<?xml version="1.0" encoding="UTF-8" standalone="no" ?>
<gpx xmlns="http://www.topografix.com/GPX/1/1" xmlns:xsi="http://www.w3.org/2001/XMLSchema-instance" xsi:schemaLocation="http://www.topografix.com/GPX/1/1 http://www.topografix.com/GPX/1/1/gpx.xsd" version="1.1" creator="VisuGPX - https://www.visugpx.com">
  <metadata>
    <name>Virigneux</name>
  </metadata>
  <trk>
    <name><![CDATA[Randonnée matinale]]></name>
    <extensions>
      <line xmlns="http://www.topografix.com/GPX/gpx_style/0/2">
        <color>0000FF</color>
        <width>4</width>
      </line>
    </extensions>
    <trkseg>
      <trkpt lat="45.6884" lon="4.35609">
        <ele>546.1</ele>
        <time>2023-02-19T07:38:21Z</time>
      </trkpt>
      <trkpt lat="45.68842" lon="4.35593">
        <ele>545.3</ele>
        <time>2023-02-19T07:38:23Z</time>
      </trkpt>
      <trkpt lat="45.68843" lon="4.35582">
        <ele>545</ele>
        <time>2023-02-19T07:38:25Z</time>
      </trkpt>
      <trkpt lat="45.68842" lon="4.35582">
        <ele>545</ele>
        <time>2023-02-19T07:38:26Z</time>
      </trkpt>
      <trkpt lat="45.68841" lon="4.35577">
        <ele>544.9</ele>
        <time>2023-02-19T07:38:28Z</time>
      </trkpt>
      <trkpt lat="45.68843" lon="4.35576">
        <ele>544.8</ele>
        <time>2023-02-19T07:38:29Z</time>
      </trkpt>
      <trkpt lat="45.68847" lon="4.35573">
        <ele>544.7</ele>
        <time>2023-02-19T07:38:31Z</time>
      </trkpt>
      <trkpt lat="45.68847" lon="4.3557">
        <ele>544.6</ele>
        <time>2023-02-19T07:38:33Z</time>
      </trkpt>
      <trkpt lat="45.68846" lon="4.35568">
        <ele>544.5</ele>
        <time>2023-02-19T07:38:35Z</time>
      </trkpt>
      <trkpt lat="45.68844" lon="4.35566">
        <ele>544.5</ele>
        <time>2023-02-19T07:39:17Z</time>
      </trkpt>
      <trkpt lat="45.68843" lon="4.35564">
        <ele>544.4</ele>
        <time>2023-02-19T07:39:18Z</time>
      </trkpt>
      <trkpt lat="45.68841" lon="4.35563">
        <ele>544.4</ele>
        <time>2023-02-19T07:39:19Z</time>
      </trkpt>
      <trkpt lat="45.6884" lon="4.35571">
        <ele>544.2</ele>
        <time>2023-02-19T07:39:20Z</time>
      </trkpt>
      <trkpt lat="45.68837" lon="4.35581">
        <ele>544</ele>
        <time>2023-02-19T07:39:21Z</time>
      </trkpt>
      <trkpt lat="45.68836" lon="4.35587">
        <ele>543.9</ele>
        <time>2023-02-19T07:39:22Z</time>
      </trkpt>
      <trkpt lat="45.68835" lon="4.35591">
        <ele>543.8</ele>
        <time>2023-02-19T07:39:23Z</time>
      </trkpt>
      <trkpt lat="45.68835" lon="4.35592">
        <ele>543.8</ele>
        <time>2023-02-19T07:39:24Z</time>
      </trkpt>
      <trkpt lat="45.68835" lon="4.35593">
        <ele>543.7</ele>
        <time>2023-02-19T07:39:25Z</time>
      </trkpt>
      <trkpt lat="45.68834" lon="4.35595">
        <ele>543.7</ele>
        <time>2023-02-19T07:39:27Z</time>
      </trkpt>
      <trkpt lat="45.68834" lon="4.35596">
        <ele>543.7</ele>
        <time>2023-02-19T07:39:28Z</time>
      </trkpt>
      <trkpt lat="45.68834" lon="4.35597">
        <ele>543.7</ele>
        <time>2023-02-19T07:39:29Z</time>
      </trkpt>
      <trkpt lat="45.68834" lon="4.35597">
        <ele>543.7</ele>
        <time>2023-02-19T07:39:30Z</time>
      </trkpt>
      <trkpt lat="45.68834" lon="4.35596">
        <ele>543.6</ele>
        <time>2023-02-19T07:39:31Z</time>
      </trkpt>
      <trkpt lat="45.68834" lon="4.35594">
        <ele>543.6</ele>
        <time>2023-02-19T07:39:32Z</time>
      </trkpt>
      <trkpt lat="45.68835" lon="4.35593">
        <ele>543.6</ele>
        <time>2023-02-19T07:39:33Z</time>
      </trkpt>
      <trkpt lat="45.68835" lon="4.35591">
        <ele>543.6</ele>
        <time>2023-02-19T07:39:35Z</time>
      </trkpt>
      <trkpt lat="45.68835" lon="4.3559">
        <ele>543.5</ele>
        <time>2023-02-19T07:39:36Z</time>
      </trkpt>
      <trkpt lat="45.68836" lon="4.35585">
        <ele>543.4</ele>
        <time>2023-02-19T07:39:37Z</time>
      </trkpt>
      <trkpt lat="45.68837" lon="4.35583">
        <ele>543.4</ele>
        <time>2023-02-19T07:39:38Z</time>
      </trkpt>
      <trkpt lat="45.68837" lon="4.3558">
        <ele>543.3</ele>
        <time>2023-02-19T07:39:39Z</time>
      </trkpt>
      <trkpt lat="45.68837" lon="4.35576">
        <ele>543.3</ele>
        <time>2023-02-19T07:39:41Z</time>
      </trkpt>
      <trkpt lat="45.68837" lon="4.35573">
        <ele>543.2</ele>
        <time>2023-02-19T07:39:42Z</time>
      </trkpt>
      <trkpt lat="45.68837" lon="4.35571">
        <ele>543.2</ele>
        <time>2023-02-19T07:39:43Z</time>
      </trkpt>
      <trkpt lat="45.68838" lon="4.35566">
        <ele>543.1</ele>
        <time>2023-02-19T07:39:45Z</time>
      </trkpt>
      <trkpt lat="45.68838" lon="4.35564">
        <ele>543.1</ele>
        <time>2023-02-19T07:39:46Z</time>
      </trkpt>
      <trkpt lat="45.68838" lon="4.3556">
        <ele>543</ele>
        <time>2023-02-19T07:39:47Z</time>
      </trkpt>
      <trkpt lat="45.68838" lon="4.35558">
        <ele>543</ele>
        <time>2023-02-19T07:39:48Z</time>
      </trkpt>
      <trkpt lat="45.68838" lon="4.35555">
        <ele>542.9</ele>
        <time>2023-02-19T07:39:49Z</time>
      </trkpt>
      <trkpt lat="45.68839" lon="4.35551">
        <ele>542.8</ele>
        <time>2023-02-19T07:39:51Z</time>
      </trkpt>
      <trkpt lat="45.6884" lon="4.35548">
        <ele>542.8</ele>
        <time>2023-02-19T07:39:52Z</time>
      </trkpt>
      <trkpt lat="45.6884" lon="4.35546">
        <ele>542.8</ele>
        <time>2023-02-19T07:39:53Z</time>
      </trkpt>
      <trkpt lat="45.68841" lon="4.35543">
        <ele>542.7</ele>
        <time>2023-02-19T07:39:55Z</time>
      </trkpt>
      <trkpt lat="45.68842" lon="4.35541">
        <ele>542.7</ele>
        <time>2023-02-19T07:39:56Z</time>
      </trkpt>
      <trkpt lat="45.68843" lon="4.35539">
        <ele>542.6</ele>
        <time>2023-02-19T07:39:57Z</time>
      </trkpt>
      <trkpt lat="45.68844" lon="4.35537">
        <ele>542.6</ele>
        <time>2023-02-19T07:39:58Z</time>
      </trkpt>
      <trkpt lat="45.68845" lon="4.35536">
        <ele>542.6</ele>
        <time>2023-02-19T07:39:59Z</time>
      </trkpt>
      <trkpt lat="45.68845" lon="4.35535">
        <ele>542.5</ele>
        <time>2023-02-19T07:40:00Z</time>
      </trkpt>
      <trkpt lat="45.68845" lon="4.35534">
        <ele>542.5</ele>
        <time>2023-02-19T07:40:01Z</time>
      </trkpt>
      <trkpt lat="45.68846" lon="4.35533">
        <ele>542.5</ele>
        <time>2023-02-19T07:40:02Z</time>
      </trkpt>
      <trkpt lat="45.68846" lon="4.35531">
        <ele>542.5</ele>
        <time>2023-02-19T07:40:03Z</time>
      </trkpt>
      <trkpt lat="45.68847" lon="4.35529">
        <ele>542.4</ele>
        <time>2023-02-19T07:40:05Z</time>
      </trkpt>
      <trkpt lat="45.68847" lon="4.35527">
        <ele>542.4</ele>
        <time>2023-02-19T07:40:06Z</time>
      </trkpt>
      <trkpt lat="45.68848" lon="4.35524">
        <ele>542.4</ele>
        <time>2023-02-19T07:40:07Z</time>
      </trkpt>
      <trkpt lat="45.68849" lon="4.35522">
        <ele>542.3</ele>
        <time>2023-02-19T07:40:08Z</time>
      </trkpt>
      <trkpt lat="45.68849" lon="4.35521">
        <ele>542.3</ele>
        <time>2023-02-19T07:40:09Z</time>
      </trkpt>
      <trkpt lat="45.6885" lon="4.35519">
        <ele>542.3</ele>
        <time>2023-02-19T07:40:10Z</time>
      </trkpt>
      <trkpt lat="45.68852" lon="4.35517">
        <ele>542.2</ele>
        <time>2023-02-19T07:40:12Z</time>
      </trkpt>
      <trkpt lat="45.68853" lon="4.35517">
        <ele>542.2</ele>
        <time>2023-02-19T07:40:13Z</time>
      </trkpt>
      <trkpt lat="45.68853" lon="4.35516">
        <ele>542.2</ele>
        <time>2023-02-19T07:40:14Z</time>
      </trkpt>
      <trkpt lat="45.68855" lon="4.35515">
        <ele>542.2</ele>
        <time>2023-02-19T07:40:15Z</time>
      </trkpt>
      <trkpt lat="45.68856" lon="4.35514">
        <ele>542.2</ele>
        <time>2023-02-19T07:40:17Z</time>
      </trkpt>
      <trkpt lat="45.68857" lon="4.35514">
        <ele>542.2</ele>
        <time>2023-02-19T07:40:18Z</time>
      </trkpt>
      <trkpt lat="45.68858" lon="4.35513">
        <ele>542.2</ele>
        <time>2023-02-19T07:40:19Z</time>
      </trkpt>
      <trkpt lat="45.68859" lon="4.35513">
        <ele>542.2</ele>
        <time>2023-02-19T07:40:20Z</time>
      </trkpt>
      <trkpt lat="45.6886" lon="4.35513">
        <ele>542.2</ele>
        <time>2023-02-19T07:40:21Z</time>
      </trkpt>
      <trkpt lat="45.68861" lon="4.35512">
        <ele>542.2</ele>
        <time>2023-02-19T07:40:22Z</time>
      </trkpt>
      <trkpt lat="45.68862" lon="4.35512">
        <ele>542.2</ele>
        <time>2023-02-19T07:40:23Z</time>
      </trkpt>
      <trkpt lat="45.68864" lon="4.35511">
        <ele>542.2</ele>
        <time>2023-02-19T07:40:25Z</time>
      </trkpt>
      <trkpt lat="45.68865" lon="4.3551">
        <ele>542.2</ele>
        <time>2023-02-19T07:40:26Z</time>
      </trkpt>
      <trkpt lat="45.68865" lon="4.35509">
        <ele>542.2</ele>
        <time>2023-02-19T07:40:27Z</time>
      </trkpt>
      <trkpt lat="45.68866" lon="4.35507">
        <ele>542.2</ele>
        <time>2023-02-19T07:40:28Z</time>
      </trkpt>
      <trkpt lat="45.68866" lon="4.35506">
        <ele>542.2</ele>
        <time>2023-02-19T07:40:29Z</time>
      </trkpt>
      <trkpt lat="45.68866" lon="4.35504">
        <ele>542.2</ele>
        <time>2023-02-19T07:40:30Z</time>
      </trkpt>
      <trkpt lat="45.68866" lon="4.35502">
        <ele>542.2</ele>
        <time>2023-02-19T07:40:32Z</time>
      </trkpt>
      <trkpt lat="45.68867" lon="4.355">
        <ele>542.2</ele>
        <time>2023-02-19T07:40:33Z</time>
      </trkpt>
      <trkpt lat="45.68867" lon="4.35499">
        <ele>542.1</ele>
        <time>2023-02-19T07:40:34Z</time>
      </trkpt>
      <trkpt lat="45.68867" lon="4.35497">
        <ele>542.1</ele>
        <time>2023-02-19T07:40:35Z</time>
      </trkpt>
      <trkpt lat="45.68867" lon="4.35496">
        <ele>542.1</ele>
        <time>2023-02-19T07:40:36Z</time>
      </trkpt>
      <trkpt lat="45.68868" lon="4.35493">
        <ele>542.1</ele>
        <time>2023-02-19T07:40:38Z</time>
      </trkpt>
      <trkpt lat="45.68868" lon="4.3549">
        <ele>542.1</ele>
        <time>2023-02-19T07:40:39Z</time>
      </trkpt>
      <trkpt lat="45.68868" lon="4.35488">
        <ele>542.1</ele>
        <time>2023-02-19T07:40:40Z</time>
      </trkpt>
      <trkpt lat="45.68868" lon="4.35484">
        <ele>542.1</ele>
        <time>2023-02-19T07:40:42Z</time>
      </trkpt>
      <trkpt lat="45.68867" lon="4.35482">
        <ele>542.1</ele>
        <time>2023-02-19T07:40:43Z</time>
      </trkpt>
      <trkpt lat="45.68867" lon="4.35479">
        <ele>542.1</ele>
        <time>2023-02-19T07:40:44Z</time>
      </trkpt>
      <trkpt lat="45.68867" lon="4.35477">
        <ele>542</ele>
        <time>2023-02-19T07:40:45Z</time>
      </trkpt>
      <trkpt lat="45.68867" lon="4.35475">
        <ele>542</ele>
        <time>2023-02-19T07:40:46Z</time>
      </trkpt>
      <trkpt lat="45.68866" lon="4.35471">
        <ele>542</ele>
        <time>2023-02-19T07:40:48Z</time>
      </trkpt>
      <trkpt lat="45.68866" lon="4.3547">
        <ele>542</ele>
        <time>2023-02-19T07:40:49Z</time>
      </trkpt>
      <trkpt lat="45.68865" lon="4.35468">
        <ele>542</ele>
        <time>2023-02-19T07:40:50Z</time>
      </trkpt>
      <trkpt lat="45.68865" lon="4.35466">
        <ele>542</ele>
        <time>2023-02-19T07:40:51Z</time>
      </trkpt>
      <trkpt lat="45.68864" lon="4.35465">
        <ele>542</ele>
        <time>2023-02-19T07:40:52Z</time>
      </trkpt>
      <trkpt lat="45.68863" lon="4.35465">
        <ele>542</ele>
        <time>2023-02-19T07:40:53Z</time>
      </trkpt>
      <trkpt lat="45.68863" lon="4.35464">
        <ele>541.9</ele>
        <time>2023-02-19T07:40:54Z</time>
      </trkpt>
      <trkpt lat="45.68863" lon="4.35464">
        <ele>541.9</ele>
        <time>2023-02-19T07:40:55Z</time>
      </trkpt>
      <trkpt lat="45.68862" lon="4.35463">
        <ele>541.9</ele>
        <time>2023-02-19T07:40:57Z</time>
      </trkpt>
      <trkpt lat="45.68862" lon="4.35462">
        <ele>541.9</ele>
        <time>2023-02-19T07:40:58Z</time>
      </trkpt>
      <trkpt lat="45.68862" lon="4.35461">
        <ele>541.9</ele>
        <time>2023-02-19T07:40:59Z</time>
      </trkpt>
      <trkpt lat="45.68862" lon="4.3546">
        <ele>541.9</ele>
        <time>2023-02-19T07:41:00Z</time>
      </trkpt>
      <trkpt lat="45.68862" lon="4.35459">
        <ele>541.9</ele>
        <time>2023-02-19T07:41:01Z</time>
      </trkpt>
      <trkpt lat="45.68862" lon="4.35458">
        <ele>541.9</ele>
        <time>2023-02-19T07:41:02Z</time>
      </trkpt>
      <trkpt lat="45.68861" lon="4.35456">
        <ele>541.9</ele>
        <time>2023-02-19T07:41:03Z</time>
      </trkpt>
      <trkpt lat="45.68861" lon="4.35454">
        <ele>541.9</ele>
        <time>2023-02-19T07:41:04Z</time>
      </trkpt>
      <trkpt lat="45.68861" lon="4.35453">
        <ele>541.9</ele>
        <time>2023-02-19T07:41:06Z</time>
      </trkpt>
      <trkpt lat="45.68861" lon="4.35452">
        <ele>541.9</ele>
        <time>2023-02-19T07:41:07Z</time>
      </trkpt>
      <trkpt lat="45.68861" lon="4.35451">
        <ele>541.9</ele>
        <time>2023-02-19T07:41:08Z</time>
      </trkpt>
      <trkpt lat="45.68862" lon="4.35449">
        <ele>541.9</ele>
        <time>2023-02-19T07:41:09Z</time>
      </trkpt>
      <trkpt lat="45.68862" lon="4.35448">
        <ele>541.9</ele>
        <time>2023-02-19T07:41:10Z</time>
      </trkpt>
      <trkpt lat="45.68862" lon="4.35447">
        <ele>541.9</ele>
        <time>2023-02-19T07:41:11Z</time>
      </trkpt>
      <trkpt lat="45.68863" lon="4.35445">
        <ele>541.9</ele>
        <time>2023-02-19T07:41:12Z</time>
      </trkpt>
      <trkpt lat="45.68863" lon="4.35444">
        <ele>541.9</ele>
        <time>2023-02-19T07:41:13Z</time>
      </trkpt>
      <trkpt lat="45.68863" lon="4.35443">
        <ele>541.9</ele>
        <time>2023-02-19T07:41:14Z</time>
      </trkpt>
      <trkpt lat="45.68864" lon="4.3544">
        <ele>541.9</ele>
        <time>2023-02-19T07:41:15Z</time>
      </trkpt>
      <trkpt lat="45.68864" lon="4.35439">
        <ele>541.9</ele>
        <time>2023-02-19T07:41:16Z</time>
      </trkpt>
      <trkpt lat="45.68864" lon="4.35438">
        <ele>541.9</ele>
        <time>2023-02-19T07:41:17Z</time>
      </trkpt>
      <trkpt lat="45.68864" lon="4.35435">
        <ele>541.9</ele>
        <time>2023-02-19T07:41:19Z</time>
      </trkpt>
      <trkpt lat="45.68864" lon="4.35434">
        <ele>541.9</ele>
        <time>2023-02-19T07:41:20Z</time>
      </trkpt>
      <trkpt lat="45.68864" lon="4.35433">
        <ele>541.9</ele>
        <time>2023-02-19T07:41:21Z</time>
      </trkpt>
      <trkpt lat="45.68864" lon="4.35431">
        <ele>541.9</ele>
        <time>2023-02-19T07:41:22Z</time>
      </trkpt>
      <trkpt lat="45.68865" lon="4.35429">
        <ele>541.9</ele>
        <time>2023-02-19T07:41:23Z</time>
      </trkpt>
      <trkpt lat="45.68865" lon="4.35428">
        <ele>541.9</ele>
        <time>2023-02-19T07:41:24Z</time>
      </trkpt>
      <trkpt lat="45.68865" lon="4.35426">
        <ele>541.9</ele>
        <time>2023-02-19T07:41:25Z</time>
      </trkpt>
      <trkpt lat="45.68866" lon="4.35424">
        <ele>541.9</ele>
        <time>2023-02-19T07:41:26Z</time>
      </trkpt>
      <trkpt lat="45.68866" lon="4.35422">
        <ele>542</ele>
        <time>2023-02-19T07:41:27Z</time>
      </trkpt>
      <trkpt lat="45.68867" lon="4.3542">
        <ele>542</ele>
        <time>2023-02-19T07:41:28Z</time>
      </trkpt>
      <trkpt lat="45.68867" lon="4.35418">
        <ele>542</ele>
        <time>2023-02-19T07:41:29Z</time>
      </trkpt>
      <trkpt lat="45.68867" lon="4.35417">
        <ele>542</ele>
        <time>2023-02-19T07:41:31Z</time>
      </trkpt>
      <trkpt lat="45.68868" lon="4.35414">
        <ele>542</ele>
        <time>2023-02-19T07:41:32Z</time>
      </trkpt>
      <trkpt lat="45.68868" lon="4.35412">
        <ele>542</ele>
        <time>2023-02-19T07:41:33Z</time>
      </trkpt>
      <trkpt lat="45.68869" lon="4.3541">
        <ele>542.1</ele>
        <time>2023-02-19T07:41:34Z</time>
      </trkpt>
      <trkpt lat="45.6887" lon="4.35408">
        <ele>542.1</ele>
        <time>2023-02-19T07:41:35Z</time>
      </trkpt>
      <trkpt lat="45.68871" lon="4.35404">
        <ele>542.1</ele>
        <time>2023-02-19T07:41:37Z</time>
      </trkpt>
      <trkpt lat="45.68871" lon="4.35403">
        <ele>542.2</ele>
        <time>2023-02-19T07:41:38Z</time>
      </trkpt>
      <trkpt lat="45.68871" lon="4.35402">
        <ele>542.2</ele>
        <time>2023-02-19T07:41:39Z</time>
      </trkpt>
      <trkpt lat="45.68872" lon="4.35399">
        <ele>542.2</ele>
        <time>2023-02-19T07:41:40Z</time>
      </trkpt>
      <trkpt lat="45.68872" lon="4.35397">
        <ele>542.3</ele>
        <time>2023-02-19T07:41:41Z</time>
      </trkpt>
      <trkpt lat="45.68872" lon="4.35396">
        <ele>542.3</ele>
        <time>2023-02-19T07:41:42Z</time>
      </trkpt>
      <trkpt lat="45.68873" lon="4.35394">
        <ele>542.3</ele>
        <time>2023-02-19T07:41:44Z</time>
      </trkpt>
      <trkpt lat="45.68873" lon="4.35392">
        <ele>542.4</ele>
        <time>2023-02-19T07:41:45Z</time>
      </trkpt>
      <trkpt lat="45.68873" lon="4.3539">
        <ele>542.4</ele>
        <time>2023-02-19T07:41:46Z</time>
      </trkpt>
      <trkpt lat="45.68874" lon="4.35388">
        <ele>542.5</ele>
        <time>2023-02-19T07:41:47Z</time>
      </trkpt>
      <trkpt lat="45.68875" lon="4.35386">
        <ele>542.5</ele>
        <time>2023-02-19T07:41:48Z</time>
      </trkpt>
      <trkpt lat="45.68876" lon="4.35384">
        <ele>542.6</ele>
        <time>2023-02-19T07:41:49Z</time>
      </trkpt>
      <trkpt lat="45.68877" lon="4.35382">
        <ele>542.7</ele>
        <time>2023-02-19T07:41:50Z</time>
      </trkpt>
      <trkpt lat="45.68878" lon="4.3538">
        <ele>542.8</ele>
        <time>2023-02-19T07:41:52Z</time>
      </trkpt>
      <trkpt lat="45.68878" lon="4.35378">
        <ele>542.8</ele>
        <time>2023-02-19T07:41:53Z</time>
      </trkpt>
      <trkpt lat="45.68879" lon="4.35376">
        <ele>542.9</ele>
        <time>2023-02-19T07:41:54Z</time>
      </trkpt>
      <trkpt lat="45.6888" lon="4.35375">
        <ele>543</ele>
        <time>2023-02-19T07:41:55Z</time>
      </trkpt>
      <trkpt lat="45.68881" lon="4.35373">
        <ele>543.1</ele>
        <time>2023-02-19T07:41:56Z</time>
      </trkpt>
      <trkpt lat="45.68882" lon="4.35371">
        <ele>543.2</ele>
        <time>2023-02-19T07:41:57Z</time>
      </trkpt>
      <trkpt lat="45.68884" lon="4.35369">
        <ele>543.3</ele>
        <time>2023-02-19T07:41:58Z</time>
      </trkpt>
      <trkpt lat="45.68884" lon="4.35368">
        <ele>543.3</ele>
        <time>2023-02-19T07:41:59Z</time>
      </trkpt>
      <trkpt lat="45.68885" lon="4.35367">
        <ele>543.4</ele>
        <time>2023-02-19T07:42:00Z</time>
      </trkpt>
      <trkpt lat="45.68886" lon="4.35366">
        <ele>543.5</ele>
        <time>2023-02-19T07:42:01Z</time>
      </trkpt>
      <trkpt lat="45.68886" lon="4.35364">
        <ele>543.6</ele>
        <time>2023-02-19T07:42:02Z</time>
      </trkpt>
      <trkpt lat="45.68887" lon="4.35361">
        <ele>543.7</ele>
        <time>2023-02-19T07:42:03Z</time>
      </trkpt>
      <trkpt lat="45.68888" lon="4.3536">
        <ele>543.8</ele>
        <time>2023-02-19T07:42:04Z</time>
      </trkpt>
      <trkpt lat="45.68888" lon="4.35359">
        <ele>543.9</ele>
        <time>2023-02-19T07:42:05Z</time>
      </trkpt>
      <trkpt lat="45.68888" lon="4.35357">
        <ele>544</ele>
        <time>2023-02-19T07:42:07Z</time>
      </trkpt>
      <trkpt lat="45.68889" lon="4.35355">
        <ele>544.1</ele>
        <time>2023-02-19T07:42:08Z</time>
      </trkpt>
      <trkpt lat="45.68889" lon="4.35353">
        <ele>544.2</ele>
        <time>2023-02-19T07:42:09Z</time>
      </trkpt>
      <trkpt lat="45.68889" lon="4.3535">
        <ele>544.4</ele>
        <time>2023-02-19T07:42:10Z</time>
      </trkpt>
      <trkpt lat="45.6889" lon="4.35348">
        <ele>544.5</ele>
        <time>2023-02-19T07:42:11Z</time>
      </trkpt>
      <trkpt lat="45.6889" lon="4.35345">
        <ele>544.7</ele>
        <time>2023-02-19T07:42:13Z</time>
      </trkpt>
      <trkpt lat="45.68891" lon="4.35343">
        <ele>544.8</ele>
        <time>2023-02-19T07:42:14Z</time>
      </trkpt>
      <trkpt lat="45.68891" lon="4.35341">
        <ele>545</ele>
        <time>2023-02-19T07:42:15Z</time>
      </trkpt>
      <trkpt lat="45.68893" lon="4.35338">
        <ele>545.2</ele>
        <time>2023-02-19T07:42:16Z</time>
      </trkpt>
      <trkpt lat="45.68893" lon="4.35337">
        <ele>545.3</ele>
        <time>2023-02-19T07:42:17Z</time>
      </trkpt>
      <trkpt lat="45.68894" lon="4.35336">
        <ele>545.3</ele>
        <time>2023-02-19T07:42:18Z</time>
      </trkpt>
      <trkpt lat="45.68895" lon="4.35335">
        <ele>545.5</ele>
        <time>2023-02-19T07:42:19Z</time>
      </trkpt>
      <trkpt lat="45.68896" lon="4.35333">
        <ele>545.6</ele>
        <time>2023-02-19T07:42:20Z</time>
      </trkpt>
      <trkpt lat="45.68897" lon="4.3533">
        <ele>545.9</ele>
        <time>2023-02-19T07:42:21Z</time>
      </trkpt>
      <trkpt lat="45.68897" lon="4.35329">
        <ele>546</ele>
        <time>2023-02-19T07:42:22Z</time>
      </trkpt>
      <trkpt lat="45.68898" lon="4.35327">
        <ele>546.1</ele>
        <time>2023-02-19T07:42:23Z</time>
      </trkpt>
      <trkpt lat="45.68899" lon="4.35325">
        <ele>546.3</ele>
        <time>2023-02-19T07:42:24Z</time>
      </trkpt>
      <trkpt lat="45.68899" lon="4.35322">
        <ele>546.5</ele>
        <time>2023-02-19T07:42:26Z</time>
      </trkpt>
      <trkpt lat="45.68899" lon="4.3532">
        <ele>546.6</ele>
        <time>2023-02-19T07:42:27Z</time>
      </trkpt>
      <trkpt lat="45.68899" lon="4.35319">
        <ele>546.7</ele>
        <time>2023-02-19T07:42:28Z</time>
      </trkpt>
      <trkpt lat="45.689" lon="4.35317">
        <ele>546.9</ele>
        <time>2023-02-19T07:42:30Z</time>
      </trkpt>
      <trkpt lat="45.689" lon="4.35315">
        <ele>547</ele>
        <time>2023-02-19T07:42:31Z</time>
      </trkpt>
      <trkpt lat="45.68901" lon="4.35314">
        <ele>547.1</ele>
        <time>2023-02-19T07:42:32Z</time>
      </trkpt>
      <trkpt lat="45.68901" lon="4.35314">
        <ele>547.2</ele>
        <time>2023-02-19T07:42:33Z</time>
      </trkpt>
      <trkpt lat="45.68901" lon="4.35314">
        <ele>547.2</ele>
        <time>2023-02-19T07:42:34Z</time>
      </trkpt>
      <trkpt lat="45.68902" lon="4.35313">
        <ele>547.3</ele>
        <time>2023-02-19T07:42:35Z</time>
      </trkpt>
      <trkpt lat="45.68902" lon="4.35312">
        <ele>547.3</ele>
        <time>2023-02-19T07:42:36Z</time>
      </trkpt>
      <trkpt lat="45.68903" lon="4.35311">
        <ele>547.4</ele>
        <time>2023-02-19T07:42:37Z</time>
      </trkpt>
      <trkpt lat="45.68903" lon="4.3531">
        <ele>547.5</ele>
        <time>2023-02-19T07:42:39Z</time>
      </trkpt>
      <trkpt lat="45.68903" lon="4.35309">
        <ele>547.6</ele>
        <time>2023-02-19T07:42:40Z</time>
      </trkpt>
      <trkpt lat="45.68903" lon="4.35308">
        <ele>547.7</ele>
        <time>2023-02-19T07:42:41Z</time>
      </trkpt>
      <trkpt lat="45.68904" lon="4.35306">
        <ele>547.9</ele>
        <time>2023-02-19T07:42:42Z</time>
      </trkpt>
      <trkpt lat="45.68905" lon="4.35304">
        <ele>548.1</ele>
        <time>2023-02-19T07:42:43Z</time>
      </trkpt>
      <trkpt lat="45.68906" lon="4.35301">
        <ele>548.3</ele>
        <time>2023-02-19T07:42:44Z</time>
      </trkpt>
      <trkpt lat="45.68906" lon="4.353">
        <ele>548.4</ele>
        <time>2023-02-19T07:42:46Z</time>
      </trkpt>
      <trkpt lat="45.68906" lon="4.35299">
        <ele>548.5</ele>
        <time>2023-02-19T07:42:47Z</time>
      </trkpt>
      <trkpt lat="45.68907" lon="4.35297">
        <ele>548.7</ele>
        <time>2023-02-19T07:42:48Z</time>
      </trkpt>
      <trkpt lat="45.68908" lon="4.35296">
        <ele>548.8</ele>
        <time>2023-02-19T07:42:49Z</time>
      </trkpt>
      <trkpt lat="45.68909" lon="4.35295">
        <ele>548.9</ele>
        <time>2023-02-19T07:42:50Z</time>
      </trkpt>
      <trkpt lat="45.6891" lon="4.35294">
        <ele>549.1</ele>
        <time>2023-02-19T07:42:51Z</time>
      </trkpt>
      <trkpt lat="45.68911" lon="4.35294">
        <ele>549.2</ele>
        <time>2023-02-19T07:42:52Z</time>
      </trkpt>
      <trkpt lat="45.68912" lon="4.35293">
        <ele>550.9</ele>
        <time>2023-02-19T07:42:53Z</time>
      </trkpt>
      <trkpt lat="45.68913" lon="4.35292">
        <ele>550.9</ele>
        <time>2023-02-19T07:42:54Z</time>
      </trkpt>
      <trkpt lat="45.68914" lon="4.35292">
        <ele>550.9</ele>
        <time>2023-02-19T07:42:55Z</time>
      </trkpt>
      <trkpt lat="45.68914" lon="4.35292">
        <ele>550.9</ele>
        <time>2023-02-19T07:42:56Z</time>
      </trkpt>
      <trkpt lat="45.68915" lon="4.35292">
        <ele>550.9</ele>
        <time>2023-02-19T07:42:58Z</time>
      </trkpt>
      <trkpt lat="45.68915" lon="4.35292">
        <ele>550.8</ele>
        <time>2023-02-19T07:42:59Z</time>
      </trkpt>
      <trkpt lat="45.68915" lon="4.35291">
        <ele>550.8</ele>
        <time>2023-02-19T07:43:00Z</time>
      </trkpt>
      <trkpt lat="45.68916" lon="4.3529">
        <ele>550.8</ele>
        <time>2023-02-19T07:43:01Z</time>
      </trkpt>
      <trkpt lat="45.68916" lon="4.3529">
        <ele>550.8</ele>
        <time>2023-02-19T07:43:02Z</time>
      </trkpt>
      <trkpt lat="45.68915" lon="4.3529">
        <ele>550.8</ele>
        <time>2023-02-19T07:43:03Z</time>
      </trkpt>
      <trkpt lat="45.68914" lon="4.3529">
        <ele>550.8</ele>
        <time>2023-02-19T07:43:05Z</time>
      </trkpt>
      <trkpt lat="45.68914" lon="4.35289">
        <ele>550.8</ele>
        <time>2023-02-19T07:43:06Z</time>
      </trkpt>
      <trkpt lat="45.68914" lon="4.35289">
        <ele>550.7</ele>
        <time>2023-02-19T07:43:07Z</time>
      </trkpt>
      <trkpt lat="45.68915" lon="4.35288">
        <ele>550.7</ele>
        <time>2023-02-19T07:43:08Z</time>
      </trkpt>
      <trkpt lat="45.68915" lon="4.35288">
        <ele>550.7</ele>
        <time>2023-02-19T07:43:09Z</time>
      </trkpt>
      <trkpt lat="45.68917" lon="4.35288">
        <ele>550.7</ele>
        <time>2023-02-19T07:43:11Z</time>
      </trkpt>
      <trkpt lat="45.68918" lon="4.35289">
        <ele>550.6</ele>
        <time>2023-02-19T07:43:12Z</time>
      </trkpt>
      <trkpt lat="45.68919" lon="4.35292">
        <ele>550.5</ele>
        <time>2023-02-19T07:43:13Z</time>
      </trkpt>
      <trkpt lat="45.6892" lon="4.35293">
        <ele>550.5</ele>
        <time>2023-02-19T07:43:14Z</time>
      </trkpt>
      <trkpt lat="45.68921" lon="4.35294">
        <ele>550.4</ele>
        <time>2023-02-19T07:43:15Z</time>
      </trkpt>
      <trkpt lat="45.68923" lon="4.35295">
        <ele>550.4</ele>
        <time>2023-02-19T07:43:17Z</time>
      </trkpt>
      <trkpt lat="45.68924" lon="4.35296">
        <ele>550.3</ele>
        <time>2023-02-19T07:43:18Z</time>
      </trkpt>
      <trkpt lat="45.68926" lon="4.35296">
        <ele>550.2</ele>
        <time>2023-02-19T07:43:19Z</time>
      </trkpt>
      <trkpt lat="45.68927" lon="4.35296">
        <ele>550.2</ele>
        <time>2023-02-19T07:43:20Z</time>
      </trkpt>
      <trkpt lat="45.68929" lon="4.35296">
        <ele>550.1</ele>
        <time>2023-02-19T07:43:21Z</time>
      </trkpt>
      <trkpt lat="45.68931" lon="4.35297">
        <ele>550</ele>
        <time>2023-02-19T07:43:23Z</time>
      </trkpt>
      <trkpt lat="45.68932" lon="4.35297">
        <ele>549.9</ele>
        <time>2023-02-19T07:43:24Z</time>
      </trkpt>
      <trkpt lat="45.68933" lon="4.35297">
        <ele>549.9</ele>
        <time>2023-02-19T07:43:25Z</time>
      </trkpt>
      <trkpt lat="45.68935" lon="4.35297">
        <ele>549.8</ele>
        <time>2023-02-19T07:43:26Z</time>
      </trkpt>
      <trkpt lat="45.68936" lon="4.35298">
        <ele>549.7</ele>
        <time>2023-02-19T07:43:27Z</time>
      </trkpt>
      <trkpt lat="45.68937" lon="4.35298">
        <ele>549.6</ele>
        <time>2023-02-19T07:43:28Z</time>
      </trkpt>
      <trkpt lat="45.68939" lon="4.35298">
        <ele>549.5</ele>
        <time>2023-02-19T07:43:29Z</time>
      </trkpt>
      <trkpt lat="45.6894" lon="4.35298">
        <ele>549.5</ele>
        <time>2023-02-19T07:43:30Z</time>
      </trkpt>
      <trkpt lat="45.68943" lon="4.35296">
        <ele>549.3</ele>
        <time>2023-02-19T07:43:32Z</time>
      </trkpt>
      <trkpt lat="45.68944" lon="4.35295">
        <ele>549.1</ele>
        <time>2023-02-19T07:43:33Z</time>
      </trkpt>
      <trkpt lat="45.68945" lon="4.35294">
        <ele>549</ele>
        <time>2023-02-19T07:43:34Z</time>
      </trkpt>
      <trkpt lat="45.68947" lon="4.35293">
        <ele>548.9</ele>
        <time>2023-02-19T07:43:35Z</time>
      </trkpt>
      <trkpt lat="45.68948" lon="4.35292">
        <ele>548.8</ele>
        <time>2023-02-19T07:43:36Z</time>
      </trkpt>
      <trkpt lat="45.68949" lon="4.35292">
        <ele>548.7</ele>
        <time>2023-02-19T07:43:37Z</time>
      </trkpt>
      <trkpt lat="45.68951" lon="4.35291">
        <ele>548.5</ele>
        <time>2023-02-19T07:43:39Z</time>
      </trkpt>
      <trkpt lat="45.68953" lon="4.3529">
        <ele>548.2</ele>
        <time>2023-02-19T07:43:40Z</time>
      </trkpt>
      <trkpt lat="45.68955" lon="4.35289">
        <ele>548.1</ele>
        <time>2023-02-19T07:43:42Z</time>
      </trkpt>
      <trkpt lat="45.68957" lon="4.35288">
        <ele>547.9</ele>
        <time>2023-02-19T07:43:43Z</time>
      </trkpt>
      <trkpt lat="45.68958" lon="4.35288">
        <ele>547.8</ele>
        <time>2023-02-19T07:43:44Z</time>
      </trkpt>
      <trkpt lat="45.68959" lon="4.35288">
        <ele>547.7</ele>
        <time>2023-02-19T07:43:45Z</time>
      </trkpt>
      <trkpt lat="45.6896" lon="4.35287">
        <ele>547.6</ele>
        <time>2023-02-19T07:43:46Z</time>
      </trkpt>
      <trkpt lat="45.68961" lon="4.35287">
        <ele>547.4</ele>
        <time>2023-02-19T07:43:47Z</time>
      </trkpt>
      <trkpt lat="45.68962" lon="4.35287">
        <ele>547.3</ele>
        <time>2023-02-19T07:43:48Z</time>
      </trkpt>
      <trkpt lat="45.68963" lon="4.35287">
        <ele>547.2</ele>
        <time>2023-02-19T07:43:49Z</time>
      </trkpt>
      <trkpt lat="45.68964" lon="4.35287">
        <ele>547.1</ele>
        <time>2023-02-19T07:43:50Z</time>
      </trkpt>
      <trkpt lat="45.68965" lon="4.35286">
        <ele>547</ele>
        <time>2023-02-19T07:43:51Z</time>
      </trkpt>
      <trkpt lat="45.68966" lon="4.35286">
        <ele>546.8</ele>
        <time>2023-02-19T07:43:53Z</time>
      </trkpt>
      <trkpt lat="45.68967" lon="4.35287">
        <ele>546.7</ele>
        <time>2023-02-19T07:43:54Z</time>
      </trkpt>
      <trkpt lat="45.68967" lon="4.35287">
        <ele>546.6</ele>
        <time>2023-02-19T07:43:55Z</time>
      </trkpt>
      <trkpt lat="45.68968" lon="4.35287">
        <ele>546.5</ele>
        <time>2023-02-19T07:43:56Z</time>
      </trkpt>
      <trkpt lat="45.68969" lon="4.35287">
        <ele>546.4</ele>
        <time>2023-02-19T07:43:57Z</time>
      </trkpt>
      <trkpt lat="45.6897" lon="4.35288">
        <ele>546.3</ele>
        <time>2023-02-19T07:43:58Z</time>
      </trkpt>
      <trkpt lat="45.68971" lon="4.35288">
        <ele>546.2</ele>
        <time>2023-02-19T07:43:59Z</time>
      </trkpt>
      <trkpt lat="45.68972" lon="4.35288">
        <ele>546.1</ele>
        <time>2023-02-19T07:44:01Z</time>
      </trkpt>
      <trkpt lat="45.68974" lon="4.35288">
        <ele>546</ele>
        <time>2023-02-19T07:44:02Z</time>
      </trkpt>
      <trkpt lat="45.68975" lon="4.35288">
        <ele>545.8</ele>
        <time>2023-02-19T07:44:03Z</time>
      </trkpt>
      <trkpt lat="45.68976" lon="4.35288">
        <ele>545.7</ele>
        <time>2023-02-19T07:44:04Z</time>
      </trkpt>
      <trkpt lat="45.68977" lon="4.35288">
        <ele>545.5</ele>
        <time>2023-02-19T07:44:05Z</time>
      </trkpt>
      <trkpt lat="45.68979" lon="4.35287">
        <ele>545.3</ele>
        <time>2023-02-19T07:44:06Z</time>
      </trkpt>
      <trkpt lat="45.6898" lon="4.35287">
        <ele>545.2</ele>
        <time>2023-02-19T07:44:07Z</time>
      </trkpt>
      <trkpt lat="45.68982" lon="4.35287">
        <ele>545</ele>
        <time>2023-02-19T07:44:08Z</time>
      </trkpt>
      <trkpt lat="45.68983" lon="4.35286">
        <ele>544.9</ele>
        <time>2023-02-19T07:44:09Z</time>
      </trkpt>
      <trkpt lat="45.68984" lon="4.35286">
        <ele>544.7</ele>
        <time>2023-02-19T07:44:11Z</time>
      </trkpt>
      <trkpt lat="45.68985" lon="4.35286">
        <ele>544.6</ele>
        <time>2023-02-19T07:44:12Z</time>
      </trkpt>
      <trkpt lat="45.68986" lon="4.35285">
        <ele>544.5</ele>
        <time>2023-02-19T07:44:13Z</time>
      </trkpt>
      <trkpt lat="45.68986" lon="4.35285">
        <ele>544.5</ele>
        <time>2023-02-19T07:44:14Z</time>
      </trkpt>
      <trkpt lat="45.68986" lon="4.35285">
        <ele>544.5</ele>
        <time>2023-02-19T07:44:15Z</time>
      </trkpt>
      <trkpt lat="45.68987" lon="4.35285">
        <ele>544.4</ele>
        <time>2023-02-19T07:44:16Z</time>
      </trkpt>
      <trkpt lat="45.68988" lon="4.35284">
        <ele>544.2</ele>
        <time>2023-02-19T07:44:17Z</time>
      </trkpt>
      <trkpt lat="45.68988" lon="4.35283">
        <ele>544.1</ele>
        <time>2023-02-19T07:44:18Z</time>
      </trkpt>
      <trkpt lat="45.68989" lon="4.35283">
        <ele>544.1</ele>
        <time>2023-02-19T07:44:19Z</time>
      </trkpt>
      <trkpt lat="45.68989" lon="4.35282">
        <ele>544</ele>
        <time>2023-02-19T07:44:20Z</time>
      </trkpt>
      <trkpt lat="45.6899" lon="4.35282">
        <ele>543.9</ele>
        <time>2023-02-19T07:44:21Z</time>
      </trkpt>
      <trkpt lat="45.68991" lon="4.35281">
        <ele>543.8</ele>
        <time>2023-02-19T07:44:22Z</time>
      </trkpt>
      <trkpt lat="45.68992" lon="4.3528">
        <ele>543.6</ele>
        <time>2023-02-19T07:44:24Z</time>
      </trkpt>
      <trkpt lat="45.68993" lon="4.35279">
        <ele>543.5</ele>
        <time>2023-02-19T07:44:25Z</time>
      </trkpt>
      <trkpt lat="45.68994" lon="4.35279">
        <ele>543.3</ele>
        <time>2023-02-19T07:44:26Z</time>
      </trkpt>
      <trkpt lat="45.68995" lon="4.35278">
        <ele>543.2</ele>
        <time>2023-02-19T07:44:27Z</time>
      </trkpt>
      <trkpt lat="45.68996" lon="4.35278">
        <ele>543</ele>
        <time>2023-02-19T07:44:28Z</time>
      </trkpt>
      <trkpt lat="45.68997" lon="4.35278">
        <ele>542.9</ele>
        <time>2023-02-19T07:44:29Z</time>
      </trkpt>
      <trkpt lat="45.68998" lon="4.35277">
        <ele>542.7</ele>
        <time>2023-02-19T07:44:30Z</time>
      </trkpt>
      <trkpt lat="45.68999" lon="4.35277">
        <ele>542.6</ele>
        <time>2023-02-19T07:44:31Z</time>
      </trkpt>
      <trkpt lat="45.69001" lon="4.35276">
        <ele>542.2</ele>
        <time>2023-02-19T07:44:33Z</time>
      </trkpt>
      <trkpt lat="45.69002" lon="4.35276">
        <ele>542.1</ele>
        <time>2023-02-19T07:44:35Z</time>
      </trkpt>
      <trkpt lat="45.69002" lon="4.35276">
        <ele>542</ele>
        <time>2023-02-19T07:44:36Z</time>
      </trkpt>
      <trkpt lat="45.69003" lon="4.35277">
        <ele>541.9</ele>
        <time>2023-02-19T07:44:37Z</time>
      </trkpt>
      <trkpt lat="45.69003" lon="4.35277">
        <ele>541.8</ele>
        <time>2023-02-19T07:44:38Z</time>
      </trkpt>
      <trkpt lat="45.69003" lon="4.35277">
        <ele>541.8</ele>
        <time>2023-02-19T07:44:39Z</time>
      </trkpt>
      <trkpt lat="45.69003" lon="4.35278">
        <ele>541.7</ele>
        <time>2023-02-19T07:44:41Z</time>
      </trkpt>
      <trkpt lat="45.69003" lon="4.35278">
        <ele>541.7</ele>
        <time>2023-02-19T07:44:42Z</time>
      </trkpt>
      <trkpt lat="45.69003" lon="4.35278">
        <ele>541.7</ele>
        <time>2023-02-19T07:44:43Z</time>
      </trkpt>
      <trkpt lat="45.69003" lon="4.35278">
        <ele>541.6</ele>
        <time>2023-02-19T07:44:44Z</time>
      </trkpt>
      <trkpt lat="45.69002" lon="4.35278">
        <ele>541.6</ele>
        <time>2023-02-19T07:44:45Z</time>
      </trkpt>
      <trkpt lat="45.69002" lon="4.35278">
        <ele>541.6</ele>
        <time>2023-02-19T07:44:47Z</time>
      </trkpt>
      <trkpt lat="45.69002" lon="4.35278">
        <ele>541.6</ele>
        <time>2023-02-19T07:44:48Z</time>
      </trkpt>
      <trkpt lat="45.69002" lon="4.35278">
        <ele>541.6</ele>
        <time>2023-02-19T07:44:49Z</time>
      </trkpt>
      <trkpt lat="45.69002" lon="4.35278">
        <ele>541.6</ele>
        <time>2023-02-19T07:44:51Z</time>
      </trkpt>
      <trkpt lat="45.69003" lon="4.35278">
        <ele>541.5</ele>
        <time>2023-02-19T07:44:52Z</time>
      </trkpt>
      <trkpt lat="45.69002" lon="4.35277">
        <ele>541.5</ele>
        <time>2023-02-19T07:44:53Z</time>
      </trkpt>
      <trkpt lat="45.69002" lon="4.35277">
        <ele>541.5</ele>
        <time>2023-02-19T07:44:54Z</time>
      </trkpt>
      <trkpt lat="45.69002" lon="4.35277">
        <ele>541.4</ele>
        <time>2023-02-19T07:44:55Z</time>
      </trkpt>
      <trkpt lat="45.69003" lon="4.35276">
        <ele>541.4</ele>
        <time>2023-02-19T07:44:56Z</time>
      </trkpt>
      <trkpt lat="45.69003" lon="4.35275">
        <ele>541.2</ele>
        <time>2023-02-19T07:44:58Z</time>
      </trkpt>
      <trkpt lat="45.69003" lon="4.35274">
        <ele>541.1</ele>
        <time>2023-02-19T07:44:59Z</time>
      </trkpt>
      <trkpt lat="45.69003" lon="4.35273">
        <ele>540.9</ele>
        <time>2023-02-19T07:45:00Z</time>
      </trkpt>
      <trkpt lat="45.69004" lon="4.35271">
        <ele>540.7</ele>
        <time>2023-02-19T07:45:01Z</time>
      </trkpt>
      <trkpt lat="45.69004" lon="4.3527">
        <ele>540.5</ele>
        <time>2023-02-19T07:45:02Z</time>
      </trkpt>
      <trkpt lat="45.69005" lon="4.35268">
        <ele>540.3</ele>
        <time>2023-02-19T07:45:03Z</time>
      </trkpt>
      <trkpt lat="45.69006" lon="4.35267">
        <ele>540</ele>
        <time>2023-02-19T07:45:04Z</time>
      </trkpt>
      <trkpt lat="45.69006" lon="4.35266">
        <ele>539.8</ele>
        <time>2023-02-19T07:45:05Z</time>
      </trkpt>
      <trkpt lat="45.69007" lon="4.35265">
        <ele>539.7</ele>
        <time>2023-02-19T07:45:07Z</time>
      </trkpt>
      <trkpt lat="45.69007" lon="4.35265">
        <ele>539.6</ele>
        <time>2023-02-19T07:45:08Z</time>
      </trkpt>
      <trkpt lat="45.69009" lon="4.35263">
        <ele>539.1</ele>
        <time>2023-02-19T07:45:09Z</time>
      </trkpt>
      <trkpt lat="45.6901" lon="4.35262">
        <ele>538.9</ele>
        <time>2023-02-19T07:45:10Z</time>
      </trkpt>
      <trkpt lat="45.69011" lon="4.35261">
        <ele>538.8</ele>
        <time>2023-02-19T07:45:11Z</time>
      </trkpt>
      <trkpt lat="45.69012" lon="4.3526">
        <ele>538.4</ele>
        <time>2023-02-19T07:45:12Z</time>
      </trkpt>
      <trkpt lat="45.69014" lon="4.35259">
        <ele>538</ele>
        <time>2023-02-19T07:45:14Z</time>
      </trkpt>
      <trkpt lat="45.69015" lon="4.35257">
        <ele>537.7</ele>
        <time>2023-02-19T07:45:15Z</time>
      </trkpt>
      <trkpt lat="45.69017" lon="4.35256">
        <ele>537.4</ele>
        <time>2023-02-19T07:45:16Z</time>
      </trkpt>
      <trkpt lat="45.69018" lon="4.35255">
        <ele>537.1</ele>
        <time>2023-02-19T07:45:17Z</time>
      </trkpt>
      <trkpt lat="45.69019" lon="4.35254">
        <ele>536.8</ele>
        <time>2023-02-19T07:45:18Z</time>
      </trkpt>
      <trkpt lat="45.69019" lon="4.35253">
        <ele>536.7</ele>
        <time>2023-02-19T07:45:19Z</time>
      </trkpt>
      <trkpt lat="45.6902" lon="4.35252">
        <ele>536.5</ele>
        <time>2023-02-19T07:45:21Z</time>
      </trkpt>
      <trkpt lat="45.69021" lon="4.35251">
        <ele>536.3</ele>
        <time>2023-02-19T07:45:22Z</time>
      </trkpt>
      <trkpt lat="45.69022" lon="4.35251">
        <ele>536.2</ele>
        <time>2023-02-19T07:45:23Z</time>
      </trkpt>
      <trkpt lat="45.69023" lon="4.35251">
        <ele>536</ele>
        <time>2023-02-19T07:45:24Z</time>
      </trkpt>
      <trkpt lat="45.69024" lon="4.35251">
        <ele>535.8</ele>
        <time>2023-02-19T07:45:25Z</time>
      </trkpt>
      <trkpt lat="45.69027" lon="4.35251">
        <ele>535.4</ele>
        <time>2023-02-19T07:45:27Z</time>
      </trkpt>
      <trkpt lat="45.69028" lon="4.3525">
        <ele>535.2</ele>
        <time>2023-02-19T07:45:29Z</time>
      </trkpt>
      <trkpt lat="45.69029" lon="4.3525">
        <ele>535</ele>
        <time>2023-02-19T07:45:30Z</time>
      </trkpt>
      <trkpt lat="45.6903" lon="4.3525">
        <ele>534.8</ele>
        <time>2023-02-19T07:45:31Z</time>
      </trkpt>
      <trkpt lat="45.69031" lon="4.35249">
        <ele>534.6</ele>
        <time>2023-02-19T07:45:32Z</time>
      </trkpt>
      <trkpt lat="45.69033" lon="4.35248">
        <ele>534.3</ele>
        <time>2023-02-19T07:45:33Z</time>
      </trkpt>
      <trkpt lat="45.69034" lon="4.35247">
        <ele>534.1</ele>
        <time>2023-02-19T07:45:34Z</time>
      </trkpt>
      <trkpt lat="45.69035" lon="4.35246">
        <ele>534</ele>
        <time>2023-02-19T07:45:35Z</time>
      </trkpt>
      <trkpt lat="45.69037" lon="4.35245">
        <ele>533.8</ele>
        <time>2023-02-19T07:45:36Z</time>
      </trkpt>
      <trkpt lat="45.69038" lon="4.35244">
        <ele>533.5</ele>
        <time>2023-02-19T07:45:38Z</time>
      </trkpt>
      <trkpt lat="45.69039" lon="4.35243">
        <ele>533.3</ele>
        <time>2023-02-19T07:45:39Z</time>
      </trkpt>
      <trkpt lat="45.69041" lon="4.35241">
        <ele>533.1</ele>
        <time>2023-02-19T07:45:40Z</time>
      </trkpt>
      <trkpt lat="45.69043" lon="4.35239">
        <ele>532.7</ele>
        <time>2023-02-19T07:45:41Z</time>
      </trkpt>
      <trkpt lat="45.69044" lon="4.35238">
        <ele>532.5</ele>
        <time>2023-02-19T07:45:42Z</time>
      </trkpt>
      <trkpt lat="45.69048" lon="4.35237">
        <ele>532.1</ele>
        <time>2023-02-19T07:45:43Z</time>
      </trkpt>
      <trkpt lat="45.69049" lon="4.35236">
        <ele>531.9</ele>
        <time>2023-02-19T07:45:44Z</time>
      </trkpt>
      <trkpt lat="45.69051" lon="4.35235">
        <ele>531.6</ele>
        <time>2023-02-19T07:45:45Z</time>
      </trkpt>
      <trkpt lat="45.69054" lon="4.35234">
        <ele>531.3</ele>
        <time>2023-02-19T07:45:47Z</time>
      </trkpt>
      <trkpt lat="45.69056" lon="4.35232">
        <ele>530.9</ele>
        <time>2023-02-19T07:45:48Z</time>
      </trkpt>
      <trkpt lat="45.69057" lon="4.35231">
        <ele>530.8</ele>
        <time>2023-02-19T07:45:49Z</time>
      </trkpt>
      <trkpt lat="45.6906" lon="4.3523">
        <ele>530.4</ele>
        <time>2023-02-19T07:45:50Z</time>
      </trkpt>
      <trkpt lat="45.69061" lon="4.35229">
        <ele>530.3</ele>
        <time>2023-02-19T07:45:51Z</time>
      </trkpt>
      <trkpt lat="45.69062" lon="4.35228">
        <ele>530.1</ele>
        <time>2023-02-19T07:45:52Z</time>
      </trkpt>
      <trkpt lat="45.69064" lon="4.35227">
        <ele>529.9</ele>
        <time>2023-02-19T07:45:53Z</time>
      </trkpt>
      <trkpt lat="45.69067" lon="4.35226">
        <ele>529.5</ele>
        <time>2023-02-19T07:45:55Z</time>
      </trkpt>
      <trkpt lat="45.69068" lon="4.35226">
        <ele>529.4</ele>
        <time>2023-02-19T07:45:56Z</time>
      </trkpt>
      <trkpt lat="45.69069" lon="4.35225">
        <ele>529.2</ele>
        <time>2023-02-19T07:45:57Z</time>
      </trkpt>
      <trkpt lat="45.6907" lon="4.35224">
        <ele>529</ele>
        <time>2023-02-19T07:45:58Z</time>
      </trkpt>
      <trkpt lat="45.69072" lon="4.35223">
        <ele>528.8</ele>
        <time>2023-02-19T07:45:59Z</time>
      </trkpt>
      <trkpt lat="45.69074" lon="4.35221">
        <ele>528.4</ele>
        <time>2023-02-19T07:46:01Z</time>
      </trkpt>
      <trkpt lat="45.69075" lon="4.3522">
        <ele>528.2</ele>
        <time>2023-02-19T07:46:02Z</time>
      </trkpt>
      <trkpt lat="45.69077" lon="4.35219">
        <ele>527.9</ele>
        <time>2023-02-19T07:46:03Z</time>
      </trkpt>
      <trkpt lat="45.69078" lon="4.35218">
        <ele>527.6</ele>
        <time>2023-02-19T07:46:04Z</time>
      </trkpt>
      <trkpt lat="45.69081" lon="4.35216">
        <ele>527.1</ele>
        <time>2023-02-19T07:46:06Z</time>
      </trkpt>
      <trkpt lat="45.69083" lon="4.35214">
        <ele>526.5</ele>
        <time>2023-02-19T07:46:07Z</time>
      </trkpt>
      <trkpt lat="45.69084" lon="4.35214">
        <ele>526.4</ele>
        <time>2023-02-19T07:46:08Z</time>
      </trkpt>
      <trkpt lat="45.69086" lon="4.35213">
        <ele>526</ele>
        <time>2023-02-19T07:46:09Z</time>
      </trkpt>
      <trkpt lat="45.69089" lon="4.35211">
        <ele>525.4</ele>
        <time>2023-02-19T07:46:11Z</time>
      </trkpt>
      <trkpt lat="45.6909" lon="4.35209">
        <ele>525</ele>
        <time>2023-02-19T07:46:12Z</time>
      </trkpt>
      <trkpt lat="45.69092" lon="4.35208">
        <ele>524.7</ele>
        <time>2023-02-19T07:46:13Z</time>
      </trkpt>
      <trkpt lat="45.69093" lon="4.35206">
        <ele>524.4</ele>
        <time>2023-02-19T07:46:14Z</time>
      </trkpt>
      <trkpt lat="45.69095" lon="4.35203">
        <ele>523.9</ele>
        <time>2023-02-19T07:46:16Z</time>
      </trkpt>
      <trkpt lat="45.69096" lon="4.35202">
        <ele>523.6</ele>
        <time>2023-02-19T07:46:17Z</time>
      </trkpt>
      <trkpt lat="45.69097" lon="4.352">
        <ele>523.3</ele>
        <time>2023-02-19T07:46:18Z</time>
      </trkpt>
      <trkpt lat="45.69098" lon="4.35196">
        <ele>522.8</ele>
        <time>2023-02-19T07:46:19Z</time>
      </trkpt>
      <trkpt lat="45.69099" lon="4.35195">
        <ele>522.7</ele>
        <time>2023-02-19T07:46:20Z</time>
      </trkpt>
      <trkpt lat="45.691" lon="4.35194">
        <ele>522.5</ele>
        <time>2023-02-19T07:46:21Z</time>
      </trkpt>
      <trkpt lat="45.69101" lon="4.35192">
        <ele>522.2</ele>
        <time>2023-02-19T07:46:22Z</time>
      </trkpt>
      <trkpt lat="45.69102" lon="4.3519">
        <ele>521.9</ele>
        <time>2023-02-19T07:46:24Z</time>
      </trkpt>
      <trkpt lat="45.69103" lon="4.35188">
        <ele>521.7</ele>
        <time>2023-02-19T07:46:25Z</time>
      </trkpt>
      <trkpt lat="45.69104" lon="4.35187">
        <ele>521.5</ele>
        <time>2023-02-19T07:46:26Z</time>
      </trkpt>
      <trkpt lat="45.69106" lon="4.35184">
        <ele>521</ele>
        <time>2023-02-19T07:46:28Z</time>
      </trkpt>
      <trkpt lat="45.69108" lon="4.35182">
        <ele>520.8</ele>
        <time>2023-02-19T07:46:30Z</time>
      </trkpt>
      <trkpt lat="45.69109" lon="4.35181">
        <ele>520.6</ele>
        <time>2023-02-19T07:46:31Z</time>
      </trkpt>
      <trkpt lat="45.6911" lon="4.3518">
        <ele>520.4</ele>
        <time>2023-02-19T07:46:32Z</time>
      </trkpt>
      <trkpt lat="45.69111" lon="4.35178">
        <ele>520.2</ele>
        <time>2023-02-19T07:46:33Z</time>
      </trkpt>
      <trkpt lat="45.69113" lon="4.35177">
        <ele>520</ele>
        <time>2023-02-19T07:46:34Z</time>
      </trkpt>
      <trkpt lat="45.69114" lon="4.35176">
        <ele>519.8</ele>
        <time>2023-02-19T07:46:35Z</time>
      </trkpt>
      <trkpt lat="45.69116" lon="4.35174">
        <ele>519.6</ele>
        <time>2023-02-19T07:46:37Z</time>
      </trkpt>
      <trkpt lat="45.69117" lon="4.35173">
        <ele>519.4</ele>
        <time>2023-02-19T07:46:38Z</time>
      </trkpt>
      <trkpt lat="45.69118" lon="4.35172">
        <ele>519.2</ele>
        <time>2023-02-19T07:46:39Z</time>
      </trkpt>
      <trkpt lat="45.69119" lon="4.3517">
        <ele>519</ele>
        <time>2023-02-19T07:46:40Z</time>
      </trkpt>
      <trkpt lat="45.6912" lon="4.35169">
        <ele>518.9</ele>
        <time>2023-02-19T07:46:41Z</time>
      </trkpt>
      <trkpt lat="45.69121" lon="4.35167">
        <ele>518.7</ele>
        <time>2023-02-19T07:46:42Z</time>
      </trkpt>
      <trkpt lat="45.69121" lon="4.35166">
        <ele>518.6</ele>
        <time>2023-02-19T07:46:43Z</time>
      </trkpt>
      <trkpt lat="45.69121" lon="4.35165">
        <ele>518.5</ele>
        <time>2023-02-19T07:46:44Z</time>
      </trkpt>
      <trkpt lat="45.69121" lon="4.35163">
        <ele>518.4</ele>
        <time>2023-02-19T07:46:46Z</time>
      </trkpt>
      <trkpt lat="45.69122" lon="4.35162">
        <ele>518.3</ele>
        <time>2023-02-19T07:46:47Z</time>
      </trkpt>
      <trkpt lat="45.69123" lon="4.35161">
        <ele>518.2</ele>
        <time>2023-02-19T07:46:48Z</time>
      </trkpt>
      <trkpt lat="45.69123" lon="4.35159">
        <ele>518.1</ele>
        <time>2023-02-19T07:46:49Z</time>
      </trkpt>
      <trkpt lat="45.69124" lon="4.35158">
        <ele>517.9</ele>
        <time>2023-02-19T07:46:50Z</time>
      </trkpt>
      <trkpt lat="45.69125" lon="4.35155">
        <ele>517.7</ele>
        <time>2023-02-19T07:46:52Z</time>
      </trkpt>
      <trkpt lat="45.69126" lon="4.35154">
        <ele>517.6</ele>
        <time>2023-02-19T07:46:53Z</time>
      </trkpt>
      <trkpt lat="45.69126" lon="4.35153">
        <ele>517.4</ele>
        <time>2023-02-19T07:46:54Z</time>
      </trkpt>
      <trkpt lat="45.69127" lon="4.35151">
        <ele>517.3</ele>
        <time>2023-02-19T07:46:55Z</time>
      </trkpt>
      <trkpt lat="45.69128" lon="4.3515">
        <ele>517.2</ele>
        <time>2023-02-19T07:46:56Z</time>
      </trkpt>
      <trkpt lat="45.69128" lon="4.35149">
        <ele>517.1</ele>
        <time>2023-02-19T07:46:57Z</time>
      </trkpt>
      <trkpt lat="45.69129" lon="4.35147">
        <ele>516.9</ele>
        <time>2023-02-19T07:46:58Z</time>
      </trkpt>
      <trkpt lat="45.6913" lon="4.35146">
        <ele>516.8</ele>
        <time>2023-02-19T07:46:59Z</time>
      </trkpt>
      <trkpt lat="45.6913" lon="4.35144">
        <ele>516.6</ele>
        <time>2023-02-19T07:47:00Z</time>
      </trkpt>
      <trkpt lat="45.69131" lon="4.35142">
        <ele>516.4</ele>
        <time>2023-02-19T07:47:02Z</time>
      </trkpt>
      <trkpt lat="45.69132" lon="4.35141">
        <ele>516.3</ele>
        <time>2023-02-19T07:47:03Z</time>
      </trkpt>
      <trkpt lat="45.69133" lon="4.35139">
        <ele>516.2</ele>
        <time>2023-02-19T07:47:04Z</time>
      </trkpt>
      <trkpt lat="45.69135" lon="4.35136">
        <ele>515.9</ele>
        <time>2023-02-19T07:47:05Z</time>
      </trkpt>
      <trkpt lat="45.69135" lon="4.35135">
        <ele>515.8</ele>
        <time>2023-02-19T07:47:06Z</time>
      </trkpt>
      <trkpt lat="45.69137" lon="4.35133">
        <ele>515.6</ele>
        <time>2023-02-19T07:47:08Z</time>
      </trkpt>
      <trkpt lat="45.69138" lon="4.35131">
        <ele>515.5</ele>
        <time>2023-02-19T07:47:09Z</time>
      </trkpt>
      <trkpt lat="45.69139" lon="4.3513">
        <ele>515.3</ele>
        <time>2023-02-19T07:47:10Z</time>
      </trkpt>
      <trkpt lat="45.6914" lon="4.35128">
        <ele>515.1</ele>
        <time>2023-02-19T07:47:11Z</time>
      </trkpt>
      <trkpt lat="45.69141" lon="4.35127">
        <ele>515</ele>
        <time>2023-02-19T07:47:12Z</time>
      </trkpt>
      <trkpt lat="45.69143" lon="4.35126">
        <ele>514.8</ele>
        <time>2023-02-19T07:47:13Z</time>
      </trkpt>
      <trkpt lat="45.69144" lon="4.35122">
        <ele>514.6</ele>
        <time>2023-02-19T07:47:15Z</time>
      </trkpt>
      <trkpt lat="45.69145" lon="4.35121">
        <ele>514.5</ele>
        <time>2023-02-19T07:47:16Z</time>
      </trkpt>
      <trkpt lat="45.69145" lon="4.35119">
        <ele>514.3</ele>
        <time>2023-02-19T07:47:17Z</time>
      </trkpt>
      <trkpt lat="45.69145" lon="4.35117">
        <ele>514.2</ele>
        <time>2023-02-19T07:47:18Z</time>
      </trkpt>
      <trkpt lat="45.69146" lon="4.35116">
        <ele>514.1</ele>
        <time>2023-02-19T07:47:19Z</time>
      </trkpt>
      <trkpt lat="45.69146" lon="4.35114">
        <ele>514</ele>
        <time>2023-02-19T07:47:20Z</time>
      </trkpt>
      <trkpt lat="45.69147" lon="4.35112">
        <ele>513.8</ele>
        <time>2023-02-19T07:47:22Z</time>
      </trkpt>
      <trkpt lat="45.69147" lon="4.3511">
        <ele>513.6</ele>
        <time>2023-02-19T07:47:23Z</time>
      </trkpt>
      <trkpt lat="45.69147" lon="4.35108">
        <ele>513.5</ele>
        <time>2023-02-19T07:47:24Z</time>
      </trkpt>
      <trkpt lat="45.69147" lon="4.35106">
        <ele>513.4</ele>
        <time>2023-02-19T07:47:25Z</time>
      </trkpt>
      <trkpt lat="45.69147" lon="4.35104">
        <ele>513.2</ele>
        <time>2023-02-19T07:47:26Z</time>
      </trkpt>
      <trkpt lat="45.69147" lon="4.35103">
        <ele>513.1</ele>
        <time>2023-02-19T07:47:27Z</time>
      </trkpt>
      <trkpt lat="45.69147" lon="4.35101">
        <ele>513</ele>
        <time>2023-02-19T07:47:28Z</time>
      </trkpt>
      <trkpt lat="45.69147" lon="4.351">
        <ele>512.9</ele>
        <time>2023-02-19T07:47:29Z</time>
      </trkpt>
      <trkpt lat="45.69147" lon="4.35097">
        <ele>512.7</ele>
        <time>2023-02-19T07:47:31Z</time>
      </trkpt>
      <trkpt lat="45.69147" lon="4.35096">
        <ele>512.6</ele>
        <time>2023-02-19T07:47:32Z</time>
      </trkpt>
      <trkpt lat="45.69147" lon="4.35093">
        <ele>512.4</ele>
        <time>2023-02-19T07:47:33Z</time>
      </trkpt>
      <trkpt lat="45.69148" lon="4.35091">
        <ele>512.2</ele>
        <time>2023-02-19T07:47:34Z</time>
      </trkpt>
      <trkpt lat="45.69148" lon="4.35088">
        <ele>512</ele>
        <time>2023-02-19T07:47:36Z</time>
      </trkpt>
      <trkpt lat="45.69148" lon="4.35085">
        <ele>511.7</ele>
        <time>2023-02-19T07:47:37Z</time>
      </trkpt>
      <trkpt lat="45.69149" lon="4.35084">
        <ele>511.6</ele>
        <time>2023-02-19T07:47:38Z</time>
      </trkpt>
      <trkpt lat="45.69149" lon="4.35083">
        <ele>511.5</ele>
        <time>2023-02-19T07:47:39Z</time>
      </trkpt>
      <trkpt lat="45.69149" lon="4.35081">
        <ele>511.4</ele>
        <time>2023-02-19T07:47:40Z</time>
      </trkpt>
      <trkpt lat="45.69149" lon="4.3508">
        <ele>511.3</ele>
        <time>2023-02-19T07:47:41Z</time>
      </trkpt>
      <trkpt lat="45.6915" lon="4.35078">
        <ele>511.1</ele>
        <time>2023-02-19T07:47:42Z</time>
      </trkpt>
      <trkpt lat="45.6915" lon="4.35077">
        <ele>511</ele>
        <time>2023-02-19T07:47:44Z</time>
      </trkpt>
      <trkpt lat="45.6915" lon="4.35075">
        <ele>510.8</ele>
        <time>2023-02-19T07:47:45Z</time>
      </trkpt>
      <trkpt lat="45.69151" lon="4.35073">
        <ele>510.6</ele>
        <time>2023-02-19T07:47:47Z</time>
      </trkpt>
      <trkpt lat="45.69151" lon="4.35072">
        <ele>510.5</ele>
        <time>2023-02-19T07:47:48Z</time>
      </trkpt>
      <trkpt lat="45.69151" lon="4.3507">
        <ele>510.3</ele>
        <time>2023-02-19T07:47:49Z</time>
      </trkpt>
      <trkpt lat="45.69151" lon="4.35068">
        <ele>510.2</ele>
        <time>2023-02-19T07:47:50Z</time>
      </trkpt>
      <trkpt lat="45.69152" lon="4.35067">
        <ele>510</ele>
        <time>2023-02-19T07:47:51Z</time>
      </trkpt>
      <trkpt lat="45.69153" lon="4.35065">
        <ele>509.9</ele>
        <time>2023-02-19T07:47:52Z</time>
      </trkpt>
      <trkpt lat="45.69153" lon="4.35062">
        <ele>509.6</ele>
        <time>2023-02-19T07:47:53Z</time>
      </trkpt>
      <trkpt lat="45.69153" lon="4.35061">
        <ele>509.5</ele>
        <time>2023-02-19T07:47:54Z</time>
      </trkpt>
      <trkpt lat="45.69154" lon="4.3506">
        <ele>509.4</ele>
        <time>2023-02-19T07:47:55Z</time>
      </trkpt>
      <trkpt lat="45.69154" lon="4.35058">
        <ele>509.3</ele>
        <time>2023-02-19T07:47:56Z</time>
      </trkpt>
      <trkpt lat="45.69154" lon="4.35055">
        <ele>509.1</ele>
        <time>2023-02-19T07:47:57Z</time>
      </trkpt>
      <trkpt lat="45.69155" lon="4.35051">
        <ele>508.7</ele>
        <time>2023-02-19T07:47:59Z</time>
      </trkpt>
      <trkpt lat="45.69156" lon="4.3505">
        <ele>508.6</ele>
        <time>2023-02-19T07:48:00Z</time>
      </trkpt>
      <trkpt lat="45.69156" lon="4.35047">
        <ele>508.3</ele>
        <time>2023-02-19T07:48:01Z</time>
      </trkpt>
      <trkpt lat="45.69157" lon="4.35045">
        <ele>508.1</ele>
        <time>2023-02-19T07:48:03Z</time>
      </trkpt>
      <trkpt lat="45.69157" lon="4.35043">
        <ele>508</ele>
        <time>2023-02-19T07:48:04Z</time>
      </trkpt>
      <trkpt lat="45.69158" lon="4.3504">
        <ele>507.8</ele>
        <time>2023-02-19T07:48:05Z</time>
      </trkpt>
      <trkpt lat="45.69158" lon="4.35038">
        <ele>507.6</ele>
        <time>2023-02-19T07:48:06Z</time>
      </trkpt>
      <trkpt lat="45.69159" lon="4.35037">
        <ele>507.4</ele>
        <time>2023-02-19T07:48:07Z</time>
      </trkpt>
      <trkpt lat="45.6916" lon="4.35035">
        <ele>507.2</ele>
        <time>2023-02-19T07:48:08Z</time>
      </trkpt>
      <trkpt lat="45.69161" lon="4.35032">
        <ele>507</ele>
        <time>2023-02-19T07:48:09Z</time>
      </trkpt>
      <trkpt lat="45.69161" lon="4.3503">
        <ele>506.7</ele>
        <time>2023-02-19T07:48:10Z</time>
      </trkpt>
      <trkpt lat="45.69162" lon="4.35027">
        <ele>506.5</ele>
        <time>2023-02-19T07:48:12Z</time>
      </trkpt>
      <trkpt lat="45.69163" lon="4.35024">
        <ele>506.2</ele>
        <time>2023-02-19T07:48:13Z</time>
      </trkpt>
      <trkpt lat="45.69163" lon="4.35022">
        <ele>506</ele>
        <time>2023-02-19T07:48:14Z</time>
      </trkpt>
      <trkpt lat="45.69163" lon="4.35018">
        <ele>505.7</ele>
        <time>2023-02-19T07:48:15Z</time>
      </trkpt>
      <trkpt lat="45.69163" lon="4.35017">
        <ele>505.6</ele>
        <time>2023-02-19T07:48:16Z</time>
      </trkpt>
      <trkpt lat="45.69163" lon="4.35015">
        <ele>505.4</ele>
        <time>2023-02-19T07:48:17Z</time>
      </trkpt>
      <trkpt lat="45.69164" lon="4.35013">
        <ele>505.2</ele>
        <time>2023-02-19T07:48:18Z</time>
      </trkpt>
      <trkpt lat="45.69165" lon="4.35011">
        <ele>505.1</ele>
        <time>2023-02-19T07:48:19Z</time>
      </trkpt>
      <trkpt lat="45.69165" lon="4.3501">
        <ele>504.9</ele>
        <time>2023-02-19T07:48:21Z</time>
      </trkpt>
      <trkpt lat="45.69166" lon="4.35009">
        <ele>504.8</ele>
        <time>2023-02-19T07:48:22Z</time>
      </trkpt>
      <trkpt lat="45.69167" lon="4.35008">
        <ele>504.7</ele>
        <time>2023-02-19T07:48:23Z</time>
      </trkpt>
      <trkpt lat="45.69167" lon="4.35007">
        <ele>504.6</ele>
        <time>2023-02-19T07:48:24Z</time>
      </trkpt>
      <trkpt lat="45.69167" lon="4.35006">
        <ele>504.5</ele>
        <time>2023-02-19T07:48:25Z</time>
      </trkpt>
      <trkpt lat="45.69167" lon="4.35003">
        <ele>504.3</ele>
        <time>2023-02-19T07:48:27Z</time>
      </trkpt>
      <trkpt lat="45.69166" lon="4.35001">
        <ele>504.1</ele>
        <time>2023-02-19T07:48:28Z</time>
      </trkpt>
      <trkpt lat="45.69166" lon="4.34999">
        <ele>503.9</ele>
        <time>2023-02-19T07:48:29Z</time>
      </trkpt>
      <trkpt lat="45.69166" lon="4.34997">
        <ele>503.8</ele>
        <time>2023-02-19T07:48:30Z</time>
      </trkpt>
      <trkpt lat="45.69166" lon="4.34994">
        <ele>503.6</ele>
        <time>2023-02-19T07:48:31Z</time>
      </trkpt>
      <trkpt lat="45.69165" lon="4.34992">
        <ele>503.4</ele>
        <time>2023-02-19T07:48:32Z</time>
      </trkpt>
      <trkpt lat="45.69166" lon="4.34989">
        <ele>503.2</ele>
        <time>2023-02-19T07:48:33Z</time>
      </trkpt>
      <trkpt lat="45.69166" lon="4.34987">
        <ele>503</ele>
        <time>2023-02-19T07:48:34Z</time>
      </trkpt>
      <trkpt lat="45.69166" lon="4.34985">
        <ele>502.8</ele>
        <time>2023-02-19T07:48:35Z</time>
      </trkpt>
      <trkpt lat="45.69166" lon="4.34983">
        <ele>502.6</ele>
        <time>2023-02-19T07:48:36Z</time>
      </trkpt>
      <trkpt lat="45.69165" lon="4.34979">
        <ele>502.2</ele>
        <time>2023-02-19T07:48:38Z</time>
      </trkpt>
      <trkpt lat="45.69165" lon="4.34978">
        <ele>502.1</ele>
        <time>2023-02-19T07:48:39Z</time>
      </trkpt>
      <trkpt lat="45.69165" lon="4.34975">
        <ele>501.9</ele>
        <time>2023-02-19T07:48:40Z</time>
      </trkpt>
      <trkpt lat="45.69164" lon="4.34973">
        <ele>501.7</ele>
        <time>2023-02-19T07:48:41Z</time>
      </trkpt>
      <trkpt lat="45.69164" lon="4.3497">
        <ele>501.4</ele>
        <time>2023-02-19T07:48:42Z</time>
      </trkpt>
      <trkpt lat="45.69163" lon="4.34969">
        <ele>501.3</ele>
        <time>2023-02-19T07:48:43Z</time>
      </trkpt>
      <trkpt lat="45.69163" lon="4.34968">
        <ele>501.2</ele>
        <time>2023-02-19T07:48:44Z</time>
      </trkpt>
      <trkpt lat="45.69163" lon="4.34967">
        <ele>501</ele>
        <time>2023-02-19T07:48:45Z</time>
      </trkpt>
      <trkpt lat="45.69162" lon="4.34965">
        <ele>500.8</ele>
        <time>2023-02-19T07:48:46Z</time>
      </trkpt>
      <trkpt lat="45.69162" lon="4.34963">
        <ele>500.6</ele>
        <time>2023-02-19T07:48:48Z</time>
      </trkpt>
      <trkpt lat="45.69161" lon="4.34962">
        <ele>500.4</ele>
        <time>2023-02-19T07:48:49Z</time>
      </trkpt>
      <trkpt lat="45.69161" lon="4.34959">
        <ele>500.1</ele>
        <time>2023-02-19T07:48:50Z</time>
      </trkpt>
      <trkpt lat="45.69161" lon="4.34957">
        <ele>499.9</ele>
        <time>2023-02-19T07:48:51Z</time>
      </trkpt>
      <trkpt lat="45.6916" lon="4.34954">
        <ele>499.6</ele>
        <time>2023-02-19T07:48:52Z</time>
      </trkpt>
      <trkpt lat="45.6916" lon="4.3495">
        <ele>499.1</ele>
        <time>2023-02-19T07:48:54Z</time>
      </trkpt>
      <trkpt lat="45.6916" lon="4.34949">
        <ele>499</ele>
        <time>2023-02-19T07:48:55Z</time>
      </trkpt>
      <trkpt lat="45.6916" lon="4.34947">
        <ele>498.8</ele>
        <time>2023-02-19T07:48:56Z</time>
      </trkpt>
      <trkpt lat="45.6916" lon="4.34946">
        <ele>498.6</ele>
        <time>2023-02-19T07:48:57Z</time>
      </trkpt>
      <trkpt lat="45.6916" lon="4.34944">
        <ele>498.4</ele>
        <time>2023-02-19T07:48:58Z</time>
      </trkpt>
      <trkpt lat="45.69159" lon="4.34941">
        <ele>498.1</ele>
        <time>2023-02-19T07:48:59Z</time>
      </trkpt>
      <trkpt lat="45.69159" lon="4.3494">
        <ele>497.9</ele>
        <time>2023-02-19T07:49:00Z</time>
      </trkpt>
      <trkpt lat="45.69159" lon="4.34938">
        <ele>497.8</ele>
        <time>2023-02-19T07:49:01Z</time>
      </trkpt>
      <trkpt lat="45.6916" lon="4.34935">
        <ele>497.4</ele>
        <time>2023-02-19T07:49:03Z</time>
      </trkpt>
      <trkpt lat="45.6916" lon="4.34934">
        <ele>497.3</ele>
        <time>2023-02-19T07:49:04Z</time>
      </trkpt>
      <trkpt lat="45.6916" lon="4.34933">
        <ele>497.2</ele>
        <time>2023-02-19T07:49:05Z</time>
      </trkpt>
      <trkpt lat="45.6916" lon="4.3493">
        <ele>496.9</ele>
        <time>2023-02-19T07:49:06Z</time>
      </trkpt>
      <trkpt lat="45.69161" lon="4.34928">
        <ele>496.7</ele>
        <time>2023-02-19T07:49:07Z</time>
      </trkpt>
      <trkpt lat="45.69161" lon="4.34926">
        <ele>496.4</ele>
        <time>2023-02-19T07:49:08Z</time>
      </trkpt>
      <trkpt lat="45.69162" lon="4.34922">
        <ele>495.9</ele>
        <time>2023-02-19T07:49:10Z</time>
      </trkpt>
      <trkpt lat="45.69162" lon="4.34919">
        <ele>495.6</ele>
        <time>2023-02-19T07:49:11Z</time>
      </trkpt>
      <trkpt lat="45.69162" lon="4.34917">
        <ele>495.3</ele>
        <time>2023-02-19T07:49:12Z</time>
      </trkpt>
      <trkpt lat="45.69162" lon="4.34911">
        <ele>494.7</ele>
        <time>2023-02-19T07:49:13Z</time>
      </trkpt>
      <trkpt lat="45.69162" lon="4.3491">
        <ele>494.5</ele>
        <time>2023-02-19T07:49:14Z</time>
      </trkpt>
      <trkpt lat="45.69162" lon="4.34907">
        <ele>494.2</ele>
        <time>2023-02-19T07:49:15Z</time>
      </trkpt>
      <trkpt lat="45.69163" lon="4.34905">
        <ele>493.9</ele>
        <time>2023-02-19T07:49:16Z</time>
      </trkpt>
      <trkpt lat="45.69163" lon="4.34902">
        <ele>493.6</ele>
        <time>2023-02-19T07:49:17Z</time>
      </trkpt>
      <trkpt lat="45.69163" lon="4.349">
        <ele>493.3</ele>
        <time>2023-02-19T07:49:18Z</time>
      </trkpt>
      <trkpt lat="45.69163" lon="4.34897">
        <ele>493</ele>
        <time>2023-02-19T07:49:20Z</time>
      </trkpt>
      <trkpt lat="45.69163" lon="4.34896">
        <ele>492.7</ele>
        <time>2023-02-19T07:49:21Z</time>
      </trkpt>
      <trkpt lat="45.69163" lon="4.34893">
        <ele>492.3</ele>
        <time>2023-02-19T07:49:22Z</time>
      </trkpt>
      <trkpt lat="45.69163" lon="4.34892">
        <ele>492.2</ele>
        <time>2023-02-19T07:49:23Z</time>
      </trkpt>
      <trkpt lat="45.69163" lon="4.3489">
        <ele>492</ele>
        <time>2023-02-19T07:49:24Z</time>
      </trkpt>
      <trkpt lat="45.69164" lon="4.34886">
        <ele>491.5</ele>
        <time>2023-02-19T07:49:26Z</time>
      </trkpt>
      <trkpt lat="45.69165" lon="4.34885">
        <ele>491.3</ele>
        <time>2023-02-19T07:49:27Z</time>
      </trkpt>
      <trkpt lat="45.69165" lon="4.34884">
        <ele>491.1</ele>
        <time>2023-02-19T07:49:28Z</time>
      </trkpt>
      <trkpt lat="45.69166" lon="4.34882">
        <ele>490.9</ele>
        <time>2023-02-19T07:49:29Z</time>
      </trkpt>
      <trkpt lat="45.69166" lon="4.34882">
        <ele>490.8</ele>
        <time>2023-02-19T07:49:30Z</time>
      </trkpt>
      <trkpt lat="45.69166" lon="4.3488">
        <ele>490.6</ele>
        <time>2023-02-19T07:49:31Z</time>
      </trkpt>
      <trkpt lat="45.69166" lon="4.34879">
        <ele>490.4</ele>
        <time>2023-02-19T07:49:32Z</time>
      </trkpt>
      <trkpt lat="45.69166" lon="4.34878">
        <ele>490.3</ele>
        <time>2023-02-19T07:49:33Z</time>
      </trkpt>
      <trkpt lat="45.69166" lon="4.34876">
        <ele>490.1</ele>
        <time>2023-02-19T07:49:34Z</time>
      </trkpt>
      <trkpt lat="45.69166" lon="4.34875">
        <ele>490</ele>
        <time>2023-02-19T07:49:36Z</time>
      </trkpt>
      <trkpt lat="45.69166" lon="4.34874">
        <ele>489.9</ele>
        <time>2023-02-19T07:49:37Z</time>
      </trkpt>
      <trkpt lat="45.69166" lon="4.34873">
        <ele>489.7</ele>
        <time>2023-02-19T07:49:38Z</time>
      </trkpt>
      <trkpt lat="45.69166" lon="4.34872">
        <ele>489.6</ele>
        <time>2023-02-19T07:49:39Z</time>
      </trkpt>
      <trkpt lat="45.69165" lon="4.34868">
        <ele>489.2</ele>
        <time>2023-02-19T07:49:41Z</time>
      </trkpt>
      <trkpt lat="45.69165" lon="4.34866">
        <ele>488.9</ele>
        <time>2023-02-19T07:49:43Z</time>
      </trkpt>
      <trkpt lat="45.69163" lon="4.34863">
        <ele>488.4</ele>
        <time>2023-02-19T07:49:44Z</time>
      </trkpt>
      <trkpt lat="45.69162" lon="4.34862">
        <ele>488.3</ele>
        <time>2023-02-19T07:49:45Z</time>
      </trkpt>
      <trkpt lat="45.69161" lon="4.34858">
        <ele>487.9</ele>
        <time>2023-02-19T07:49:46Z</time>
      </trkpt>
      <trkpt lat="45.6916" lon="4.34856">
        <ele>487.6</ele>
        <time>2023-02-19T07:49:47Z</time>
      </trkpt>
      <trkpt lat="45.69158" lon="4.34853">
        <ele>487.2</ele>
        <time>2023-02-19T07:49:48Z</time>
      </trkpt>
      <trkpt lat="45.69157" lon="4.34852">
        <ele>487.1</ele>
        <time>2023-02-19T07:49:49Z</time>
      </trkpt>
      <trkpt lat="45.69156" lon="4.34848">
        <ele>486.7</ele>
        <time>2023-02-19T07:49:51Z</time>
      </trkpt>
      <trkpt lat="45.69155" lon="4.34847">
        <ele>486.6</ele>
        <time>2023-02-19T07:49:52Z</time>
      </trkpt>
      <trkpt lat="45.69154" lon="4.34843">
        <ele>486.2</ele>
        <time>2023-02-19T07:49:53Z</time>
      </trkpt>
      <trkpt lat="45.69154" lon="4.34842">
        <ele>486.1</ele>
        <time>2023-02-19T07:49:54Z</time>
      </trkpt>
      <trkpt lat="45.69154" lon="4.3484">
        <ele>485.9</ele>
        <time>2023-02-19T07:49:55Z</time>
      </trkpt>
      <trkpt lat="45.69153" lon="4.34837">
        <ele>485.7</ele>
        <time>2023-02-19T07:49:56Z</time>
      </trkpt>
      <trkpt lat="45.69153" lon="4.34835">
        <ele>485.5</ele>
        <time>2023-02-19T07:49:57Z</time>
      </trkpt>
      <trkpt lat="45.69153" lon="4.34833">
        <ele>485.3</ele>
        <time>2023-02-19T07:49:58Z</time>
      </trkpt>
      <trkpt lat="45.69153" lon="4.34831">
        <ele>485.1</ele>
        <time>2023-02-19T07:49:59Z</time>
      </trkpt>
      <trkpt lat="45.69152" lon="4.34829">
        <ele>485</ele>
        <time>2023-02-19T07:50:01Z</time>
      </trkpt>
      <trkpt lat="45.69152" lon="4.34827">
        <ele>484.8</ele>
        <time>2023-02-19T07:50:02Z</time>
      </trkpt>
      <trkpt lat="45.69152" lon="4.34825">
        <ele>484.5</ele>
        <time>2023-02-19T07:50:03Z</time>
      </trkpt>
      <trkpt lat="45.69151" lon="4.34823">
        <ele>484.3</ele>
        <time>2023-02-19T07:50:04Z</time>
      </trkpt>
      <trkpt lat="45.69151" lon="4.34821">
        <ele>484.1</ele>
        <time>2023-02-19T07:50:05Z</time>
      </trkpt>
      <trkpt lat="45.69151" lon="4.34819">
        <ele>483.8</ele>
        <time>2023-02-19T07:50:06Z</time>
      </trkpt>
      <trkpt lat="45.69151" lon="4.34818">
        <ele>483.6</ele>
        <time>2023-02-19T07:50:07Z</time>
      </trkpt>
      <trkpt lat="45.69151" lon="4.34815">
        <ele>483.3</ele>
        <time>2023-02-19T07:50:09Z</time>
      </trkpt>
      <trkpt lat="45.6915" lon="4.34814">
        <ele>483.1</ele>
        <time>2023-02-19T07:50:10Z</time>
      </trkpt>
      <trkpt lat="45.6915" lon="4.34813">
        <ele>483</ele>
        <time>2023-02-19T07:50:11Z</time>
      </trkpt>
      <trkpt lat="45.69149" lon="4.34812">
        <ele>482.8</ele>
        <time>2023-02-19T07:50:12Z</time>
      </trkpt>
      <trkpt lat="45.69149" lon="4.34811">
        <ele>482.6</ele>
        <time>2023-02-19T07:50:14Z</time>
      </trkpt>
      <trkpt lat="45.6915" lon="4.3481">
        <ele>482.5</ele>
        <time>2023-02-19T07:50:15Z</time>
      </trkpt>
      <trkpt lat="45.6915" lon="4.34809">
        <ele>482.3</ele>
        <time>2023-02-19T07:50:16Z</time>
      </trkpt>
      <trkpt lat="45.69151" lon="4.34809">
        <ele>482.2</ele>
        <time>2023-02-19T07:50:17Z</time>
      </trkpt>
      <trkpt lat="45.69151" lon="4.34809">
        <ele>482.1</ele>
        <time>2023-02-19T07:50:18Z</time>
      </trkpt>
      <trkpt lat="45.69151" lon="4.34809">
        <ele>482</ele>
        <time>2023-02-19T07:50:19Z</time>
      </trkpt>
      <trkpt lat="45.69152" lon="4.3481">
        <ele>482</ele>
        <time>2023-02-19T07:50:20Z</time>
      </trkpt>
      <trkpt lat="45.69153" lon="4.34809">
        <ele>481.7</ele>
        <time>2023-02-19T07:50:22Z</time>
      </trkpt>
      <trkpt lat="45.69154" lon="4.34809">
        <ele>481.5</ele>
        <time>2023-02-19T07:50:23Z</time>
      </trkpt>
      <trkpt lat="45.69155" lon="4.34808">
        <ele>481.3</ele>
        <time>2023-02-19T07:50:24Z</time>
      </trkpt>
      <trkpt lat="45.69156" lon="4.34808">
        <ele>481.1</ele>
        <time>2023-02-19T07:50:25Z</time>
      </trkpt>
      <trkpt lat="45.69156" lon="4.34807">
        <ele>480.9</ele>
        <time>2023-02-19T07:50:26Z</time>
      </trkpt>
      <trkpt lat="45.69157" lon="4.34806">
        <ele>480.7</ele>
        <time>2023-02-19T07:50:27Z</time>
      </trkpt>
      <trkpt lat="45.69157" lon="4.34805">
        <ele>480.5</ele>
        <time>2023-02-19T07:50:28Z</time>
      </trkpt>
      <trkpt lat="45.69157" lon="4.34804">
        <ele>480.4</ele>
        <time>2023-02-19T07:50:29Z</time>
      </trkpt>
      <trkpt lat="45.69157" lon="4.34802">
        <ele>480.2</ele>
        <time>2023-02-19T07:50:30Z</time>
      </trkpt>
      <trkpt lat="45.69158" lon="4.34801">
        <ele>480</ele>
        <time>2023-02-19T07:50:31Z</time>
      </trkpt>
      <trkpt lat="45.69158" lon="4.348">
        <ele>479.9</ele>
        <time>2023-02-19T07:50:32Z</time>
      </trkpt>
      <trkpt lat="45.69159" lon="4.34798">
        <ele>479.6</ele>
        <time>2023-02-19T07:50:34Z</time>
      </trkpt>
      <trkpt lat="45.6916" lon="4.34797">
        <ele>479.3</ele>
        <time>2023-02-19T07:50:35Z</time>
      </trkpt>
      <trkpt lat="45.69162" lon="4.34795">
        <ele>478.9</ele>
        <time>2023-02-19T07:50:36Z</time>
      </trkpt>
      <trkpt lat="45.69163" lon="4.34794">
        <ele>478.8</ele>
        <time>2023-02-19T07:50:37Z</time>
      </trkpt>
      <trkpt lat="45.69165" lon="4.34792">
        <ele>478.5</ele>
        <time>2023-02-19T07:50:38Z</time>
      </trkpt>
      <trkpt lat="45.69166" lon="4.34791">
        <ele>478.4</ele>
        <time>2023-02-19T07:50:39Z</time>
      </trkpt>
      <trkpt lat="45.6917" lon="4.34788">
        <ele>478.2</ele>
        <time>2023-02-19T07:50:40Z</time>
      </trkpt>
      <trkpt lat="45.6917" lon="4.34787">
        <ele>478.2</ele>
        <time>2023-02-19T07:50:41Z</time>
      </trkpt>
      <trkpt lat="45.69172" lon="4.34785">
        <ele>478.1</ele>
        <time>2023-02-19T07:50:42Z</time>
      </trkpt>
      <trkpt lat="45.69174" lon="4.34783">
        <ele>478.2</ele>
        <time>2023-02-19T07:50:44Z</time>
      </trkpt>
      <trkpt lat="45.69177" lon="4.34781">
        <ele>478.2</ele>
        <time>2023-02-19T07:50:45Z</time>
      </trkpt>
      <trkpt lat="45.69178" lon="4.3478">
        <ele>478.3</ele>
        <time>2023-02-19T07:50:46Z</time>
      </trkpt>
      <trkpt lat="45.69181" lon="4.34777">
        <ele>478.4</ele>
        <time>2023-02-19T07:50:47Z</time>
      </trkpt>
      <trkpt lat="45.69182" lon="4.34776">
        <ele>478.5</ele>
        <time>2023-02-19T07:50:48Z</time>
      </trkpt>
      <trkpt lat="45.69185" lon="4.34773">
        <ele>478.6</ele>
        <time>2023-02-19T07:50:50Z</time>
      </trkpt>
      <trkpt lat="45.69187" lon="4.34773">
        <ele>478.7</ele>
        <time>2023-02-19T07:50:51Z</time>
      </trkpt>
      <trkpt lat="45.69189" lon="4.3477">
        <ele>478.9</ele>
        <time>2023-02-19T07:50:52Z</time>
      </trkpt>
      <trkpt lat="45.6919" lon="4.3477">
        <ele>478.9</ele>
        <time>2023-02-19T07:50:53Z</time>
      </trkpt>
      <trkpt lat="45.69192" lon="4.34768">
        <ele>479</ele>
        <time>2023-02-19T07:50:54Z</time>
      </trkpt>
      <trkpt lat="45.69193" lon="4.34767">
        <ele>479.1</ele>
        <time>2023-02-19T07:50:55Z</time>
      </trkpt>
      <trkpt lat="45.69194" lon="4.34765">
        <ele>479.2</ele>
        <time>2023-02-19T07:50:56Z</time>
      </trkpt>
      <trkpt lat="45.69196" lon="4.34764">
        <ele>479.3</ele>
        <time>2023-02-19T07:50:57Z</time>
      </trkpt>
      <trkpt lat="45.69197" lon="4.34763">
        <ele>479.4</ele>
        <time>2023-02-19T07:50:58Z</time>
      </trkpt>
      <trkpt lat="45.69198" lon="4.34762">
        <ele>479.5</ele>
        <time>2023-02-19T07:50:59Z</time>
      </trkpt>
      <trkpt lat="45.692" lon="4.3476">
        <ele>479.6</ele>
        <time>2023-02-19T07:51:01Z</time>
      </trkpt>
      <trkpt lat="45.69201" lon="4.34759">
        <ele>479.7</ele>
        <time>2023-02-19T07:51:02Z</time>
      </trkpt>
      <trkpt lat="45.69203" lon="4.34757">
        <ele>479.9</ele>
        <time>2023-02-19T07:51:03Z</time>
      </trkpt>
      <trkpt lat="45.69204" lon="4.34756">
        <ele>479.9</ele>
        <time>2023-02-19T07:51:04Z</time>
      </trkpt>
      <trkpt lat="45.69204" lon="4.34756">
        <ele>480</ele>
        <time>2023-02-19T07:51:05Z</time>
      </trkpt>
      <trkpt lat="45.69206" lon="4.34754">
        <ele>480.2</ele>
        <time>2023-02-19T07:51:07Z</time>
      </trkpt>
      <trkpt lat="45.69208" lon="4.34752">
        <ele>480.3</ele>
        <time>2023-02-19T07:51:09Z</time>
      </trkpt>
      <trkpt lat="45.69211" lon="4.34749">
        <ele>480.6</ele>
        <time>2023-02-19T07:51:10Z</time>
      </trkpt>
      <trkpt lat="45.69213" lon="4.34746">
        <ele>480.9</ele>
        <time>2023-02-19T07:51:12Z</time>
      </trkpt>
      <trkpt lat="45.69214" lon="4.34745">
        <ele>481</ele>
        <time>2023-02-19T07:51:13Z</time>
      </trkpt>
      <trkpt lat="45.69216" lon="4.34742">
        <ele>481.2</ele>
        <time>2023-02-19T07:51:14Z</time>
      </trkpt>
      <trkpt lat="45.69217" lon="4.34741">
        <ele>481.3</ele>
        <time>2023-02-19T07:51:15Z</time>
      </trkpt>
      <trkpt lat="45.69218" lon="4.3474">
        <ele>481.5</ele>
        <time>2023-02-19T07:51:16Z</time>
      </trkpt>
      <trkpt lat="45.69219" lon="4.34738">
        <ele>481.6</ele>
        <time>2023-02-19T07:51:18Z</time>
      </trkpt>
      <trkpt lat="45.6922" lon="4.34737">
        <ele>481.8</ele>
        <time>2023-02-19T07:51:19Z</time>
      </trkpt>
      <trkpt lat="45.69221" lon="4.34735">
        <ele>481.9</ele>
        <time>2023-02-19T07:51:20Z</time>
      </trkpt>
      <trkpt lat="45.69222" lon="4.34734">
        <ele>482</ele>
        <time>2023-02-19T07:51:21Z</time>
      </trkpt>
      <trkpt lat="45.69224" lon="4.34734">
        <ele>482.1</ele>
        <time>2023-02-19T07:51:22Z</time>
      </trkpt>
      <trkpt lat="45.69225" lon="4.34733">
        <ele>482.2</ele>
        <time>2023-02-19T07:51:23Z</time>
      </trkpt>
      <trkpt lat="45.69226" lon="4.34733">
        <ele>482.4</ele>
        <time>2023-02-19T07:51:24Z</time>
      </trkpt>
      <trkpt lat="45.69227" lon="4.34732">
        <ele>482.5</ele>
        <time>2023-02-19T07:51:25Z</time>
      </trkpt>
      <trkpt lat="45.69228" lon="4.34732">
        <ele>482.5</ele>
        <time>2023-02-19T07:51:27Z</time>
      </trkpt>
      <trkpt lat="45.69228" lon="4.34731">
        <ele>482.6</ele>
        <time>2023-02-19T07:51:28Z</time>
      </trkpt>
      <trkpt lat="45.69229" lon="4.34731">
        <ele>482.7</ele>
        <time>2023-02-19T07:51:29Z</time>
      </trkpt>
      <trkpt lat="45.6923" lon="4.34731">
        <ele>482.8</ele>
        <time>2023-02-19T07:51:30Z</time>
      </trkpt>
      <trkpt lat="45.6923" lon="4.3473">
        <ele>482.9</ele>
        <time>2023-02-19T07:51:31Z</time>
      </trkpt>
      <trkpt lat="45.69231" lon="4.3473">
        <ele>483</ele>
        <time>2023-02-19T07:51:33Z</time>
      </trkpt>
      <trkpt lat="45.69231" lon="4.3473">
        <ele>483</ele>
        <time>2023-02-19T07:51:34Z</time>
      </trkpt>
      <trkpt lat="45.69231" lon="4.34731">
        <ele>483.1</ele>
        <time>2023-02-19T07:51:35Z</time>
      </trkpt>
      <trkpt lat="45.69231" lon="4.3473">
        <ele>483.1</ele>
        <time>2023-02-19T07:51:37Z</time>
      </trkpt>
      <trkpt lat="45.69232" lon="4.34729">
        <ele>483.3</ele>
        <time>2023-02-19T07:51:38Z</time>
      </trkpt>
      <trkpt lat="45.69233" lon="4.34728">
        <ele>483.4</ele>
        <time>2023-02-19T07:51:39Z</time>
      </trkpt>
      <trkpt lat="45.69233" lon="4.34726">
        <ele>483.6</ele>
        <time>2023-02-19T07:51:40Z</time>
      </trkpt>
      <trkpt lat="45.69234" lon="4.34726">
        <ele>483.7</ele>
        <time>2023-02-19T07:51:41Z</time>
      </trkpt>
      <trkpt lat="45.69234" lon="4.34725">
        <ele>483.7</ele>
        <time>2023-02-19T07:51:42Z</time>
      </trkpt>
      <trkpt lat="45.69234" lon="4.34724">
        <ele>483.8</ele>
        <time>2023-02-19T07:51:43Z</time>
      </trkpt>
      <trkpt lat="45.69234" lon="4.34723">
        <ele>484</ele>
        <time>2023-02-19T07:51:44Z</time>
      </trkpt>
      <trkpt lat="45.69234" lon="4.34721">
        <ele>484.1</ele>
        <time>2023-02-19T07:51:46Z</time>
      </trkpt>
      <trkpt lat="45.69234" lon="4.3472">
        <ele>484.3</ele>
        <time>2023-02-19T07:51:47Z</time>
      </trkpt>
      <trkpt lat="45.69234" lon="4.34718">
        <ele>484.4</ele>
        <time>2023-02-19T07:51:48Z</time>
      </trkpt>
      <trkpt lat="45.69235" lon="4.34717">
        <ele>484.6</ele>
        <time>2023-02-19T07:51:50Z</time>
      </trkpt>
      <trkpt lat="45.69235" lon="4.34715">
        <ele>484.8</ele>
        <time>2023-02-19T07:51:51Z</time>
      </trkpt>
      <trkpt lat="45.69235" lon="4.34714">
        <ele>484.9</ele>
        <time>2023-02-19T07:51:52Z</time>
      </trkpt>
      <trkpt lat="45.69235" lon="4.34713">
        <ele>485.1</ele>
        <time>2023-02-19T07:51:53Z</time>
      </trkpt>
      <trkpt lat="45.69235" lon="4.34713">
        <ele>485.1</ele>
        <time>2023-02-19T07:51:54Z</time>
      </trkpt>
      <trkpt lat="45.69235" lon="4.34711">
        <ele>485.3</ele>
        <time>2023-02-19T07:51:55Z</time>
      </trkpt>
      <trkpt lat="45.69235" lon="4.34711">
        <ele>485.4</ele>
        <time>2023-02-19T07:51:56Z</time>
      </trkpt>
      <trkpt lat="45.69235" lon="4.34709">
        <ele>485.6</ele>
        <time>2023-02-19T07:51:58Z</time>
      </trkpt>
      <trkpt lat="45.69235" lon="4.34708">
        <ele>485.8</ele>
        <time>2023-02-19T07:51:59Z</time>
      </trkpt>
      <trkpt lat="45.69235" lon="4.34707">
        <ele>486</ele>
        <time>2023-02-19T07:52:00Z</time>
      </trkpt>
      <trkpt lat="45.69235" lon="4.34705">
        <ele>486.2</ele>
        <time>2023-02-19T07:52:01Z</time>
      </trkpt>
      <trkpt lat="45.69235" lon="4.34705">
        <ele>486.3</ele>
        <time>2023-02-19T07:52:02Z</time>
      </trkpt>
      <trkpt lat="45.69234" lon="4.34704">
        <ele>486.4</ele>
        <time>2023-02-19T07:52:03Z</time>
      </trkpt>
      <trkpt lat="45.69234" lon="4.34703">
        <ele>486.5</ele>
        <time>2023-02-19T07:52:04Z</time>
      </trkpt>
      <trkpt lat="45.69234" lon="4.34702">
        <ele>486.7</ele>
        <time>2023-02-19T07:52:05Z</time>
      </trkpt>
      <trkpt lat="45.69234" lon="4.34701">
        <ele>486.9</ele>
        <time>2023-02-19T07:52:07Z</time>
      </trkpt>
      <trkpt lat="45.69234" lon="4.347">
        <ele>487</ele>
        <time>2023-02-19T07:52:08Z</time>
      </trkpt>
      <trkpt lat="45.69234" lon="4.34699">
        <ele>487.2</ele>
        <time>2023-02-19T07:52:09Z</time>
      </trkpt>
      <trkpt lat="45.69234" lon="4.34698">
        <ele>487.5</ele>
        <time>2023-02-19T07:52:10Z</time>
      </trkpt>
      <trkpt lat="45.69235" lon="4.34696">
        <ele>487.8</ele>
        <time>2023-02-19T07:52:12Z</time>
      </trkpt>
      <trkpt lat="45.69235" lon="4.34694">
        <ele>488</ele>
        <time>2023-02-19T07:52:13Z</time>
      </trkpt>
      <trkpt lat="45.69235" lon="4.34692">
        <ele>488.5</ele>
        <time>2023-02-19T07:52:15Z</time>
      </trkpt>
      <trkpt lat="45.69236" lon="4.3469">
        <ele>489.5</ele>
        <time>2023-02-19T07:52:16Z</time>
      </trkpt>
      <trkpt lat="45.69236" lon="4.34689">
        <ele>489.7</ele>
        <time>2023-02-19T07:52:17Z</time>
      </trkpt>
      <trkpt lat="45.69237" lon="4.34688">
        <ele>490</ele>
        <time>2023-02-19T07:52:18Z</time>
      </trkpt>
      <trkpt lat="45.69239" lon="4.34685">
        <ele>490.5</ele>
        <time>2023-02-19T07:52:20Z</time>
      </trkpt>
      <trkpt lat="45.69241" lon="4.34682">
        <ele>491</ele>
        <time>2023-02-19T07:52:22Z</time>
      </trkpt>
      <trkpt lat="45.69242" lon="4.34681">
        <ele>491.2</ele>
        <time>2023-02-19T07:52:24Z</time>
      </trkpt>
      <trkpt lat="45.69243" lon="4.3468">
        <ele>491.4</ele>
        <time>2023-02-19T07:52:25Z</time>
      </trkpt>
      <trkpt lat="45.69244" lon="4.34679">
        <ele>491.6</ele>
        <time>2023-02-19T07:52:26Z</time>
      </trkpt>
      <trkpt lat="45.69245" lon="4.34679">
        <ele>491.9</ele>
        <time>2023-02-19T07:52:27Z</time>
      </trkpt>
      <trkpt lat="45.69246" lon="4.34679">
        <ele>492.1</ele>
        <time>2023-02-19T07:52:28Z</time>
      </trkpt>
      <trkpt lat="45.69247" lon="4.34679">
        <ele>492.2</ele>
        <time>2023-02-19T07:52:29Z</time>
      </trkpt>
      <trkpt lat="45.69248" lon="4.34679">
        <ele>492.4</ele>
        <time>2023-02-19T07:52:30Z</time>
      </trkpt>
      <trkpt lat="45.69249" lon="4.3468">
        <ele>492.7</ele>
        <time>2023-02-19T07:52:31Z</time>
      </trkpt>
      <trkpt lat="45.6925" lon="4.3468">
        <ele>492.9</ele>
        <time>2023-02-19T07:52:32Z</time>
      </trkpt>
      <trkpt lat="45.69252" lon="4.34681">
        <ele>493.3</ele>
        <time>2023-02-19T07:52:34Z</time>
      </trkpt>
      <trkpt lat="45.69253" lon="4.34682">
        <ele>493.5</ele>
        <time>2023-02-19T07:52:36Z</time>
      </trkpt>
      <trkpt lat="45.69254" lon="4.34682">
        <ele>493.7</ele>
        <time>2023-02-19T07:52:37Z</time>
      </trkpt>
      <trkpt lat="45.69255" lon="4.34682">
        <ele>493.9</ele>
        <time>2023-02-19T07:52:38Z</time>
      </trkpt>
      <trkpt lat="45.69256" lon="4.34683">
        <ele>494.1</ele>
        <time>2023-02-19T07:52:39Z</time>
      </trkpt>
      <trkpt lat="45.69257" lon="4.34683">
        <ele>494.4</ele>
        <time>2023-02-19T07:52:40Z</time>
      </trkpt>
      <trkpt lat="45.69259" lon="4.34683">
        <ele>494.8</ele>
        <time>2023-02-19T07:52:41Z</time>
      </trkpt>
      <trkpt lat="45.6926" lon="4.34683">
        <ele>494.9</ele>
        <time>2023-02-19T07:52:43Z</time>
      </trkpt>
      <trkpt lat="45.69261" lon="4.34683">
        <ele>495.1</ele>
        <time>2023-02-19T07:52:44Z</time>
      </trkpt>
      <trkpt lat="45.69262" lon="4.34683">
        <ele>495.3</ele>
        <time>2023-02-19T07:52:45Z</time>
      </trkpt>
      <trkpt lat="45.69263" lon="4.34683">
        <ele>495.5</ele>
        <time>2023-02-19T07:52:46Z</time>
      </trkpt>
      <trkpt lat="45.69264" lon="4.34683">
        <ele>495.7</ele>
        <time>2023-02-19T07:52:47Z</time>
      </trkpt>
      <trkpt lat="45.69264" lon="4.34683">
        <ele>495.9</ele>
        <time>2023-02-19T07:52:48Z</time>
      </trkpt>
      <trkpt lat="45.69265" lon="4.34682">
        <ele>496</ele>
        <time>2023-02-19T07:52:49Z</time>
      </trkpt>
      <trkpt lat="45.69266" lon="4.34682">
        <ele>496.1</ele>
        <time>2023-02-19T07:52:51Z</time>
      </trkpt>
      <trkpt lat="45.69266" lon="4.34682">
        <ele>496.2</ele>
        <time>2023-02-19T07:52:52Z</time>
      </trkpt>
      <trkpt lat="45.69266" lon="4.34682">
        <ele>496.3</ele>
        <time>2023-02-19T07:52:54Z</time>
      </trkpt>
      <trkpt lat="45.69267" lon="4.34681">
        <ele>496.3</ele>
        <time>2023-02-19T07:52:55Z</time>
      </trkpt>
      <trkpt lat="45.69267" lon="4.34681">
        <ele>496.4</ele>
        <time>2023-02-19T07:52:56Z</time>
      </trkpt>
      <trkpt lat="45.69267" lon="4.34681">
        <ele>496.4</ele>
        <time>2023-02-19T07:52:57Z</time>
      </trkpt>
      <trkpt lat="45.69267" lon="4.34681">
        <ele>496.5</ele>
        <time>2023-02-19T07:52:58Z</time>
      </trkpt>
      <trkpt lat="45.69267" lon="4.34682">
        <ele>496.5</ele>
        <time>2023-02-19T07:52:59Z</time>
      </trkpt>
      <trkpt lat="45.69267" lon="4.34681">
        <ele>496.5</ele>
        <time>2023-02-19T07:53:01Z</time>
      </trkpt>
      <trkpt lat="45.69267" lon="4.34681">
        <ele>496.6</ele>
        <time>2023-02-19T07:53:02Z</time>
      </trkpt>
      <trkpt lat="45.69267" lon="4.3468">
        <ele>496.7</ele>
        <time>2023-02-19T07:53:03Z</time>
      </trkpt>
      <trkpt lat="45.69268" lon="4.34679">
        <ele>496.9</ele>
        <time>2023-02-19T07:53:04Z</time>
      </trkpt>
      <trkpt lat="45.69269" lon="4.34678">
        <ele>497.1</ele>
        <time>2023-02-19T07:53:06Z</time>
      </trkpt>
      <trkpt lat="45.69269" lon="4.34677">
        <ele>497.3</ele>
        <time>2023-02-19T07:53:07Z</time>
      </trkpt>
      <trkpt lat="45.69269" lon="4.34676">
        <ele>497.5</ele>
        <time>2023-02-19T07:53:08Z</time>
      </trkpt>
      <trkpt lat="45.6927" lon="4.34674">
        <ele>497.8</ele>
        <time>2023-02-19T07:53:09Z</time>
      </trkpt>
      <trkpt lat="45.6927" lon="4.34672">
        <ele>498.1</ele>
        <time>2023-02-19T07:53:11Z</time>
      </trkpt>
      <trkpt lat="45.69271" lon="4.34672">
        <ele>498.3</ele>
        <time>2023-02-19T07:53:12Z</time>
      </trkpt>
      <trkpt lat="45.69271" lon="4.3467">
        <ele>498.5</ele>
        <time>2023-02-19T07:53:13Z</time>
      </trkpt>
      <trkpt lat="45.69272" lon="4.3467">
        <ele>498.7</ele>
        <time>2023-02-19T07:53:14Z</time>
      </trkpt>
      <trkpt lat="45.69272" lon="4.34669">
        <ele>498.8</ele>
        <time>2023-02-19T07:53:15Z</time>
      </trkpt>
      <trkpt lat="45.69273" lon="4.34668">
        <ele>499.1</ele>
        <time>2023-02-19T07:53:17Z</time>
      </trkpt>
      <trkpt lat="45.69274" lon="4.34667">
        <ele>499.3</ele>
        <time>2023-02-19T07:53:19Z</time>
      </trkpt>
      <trkpt lat="45.69275" lon="4.34666">
        <ele>499.6</ele>
        <time>2023-02-19T07:53:20Z</time>
      </trkpt>
      <trkpt lat="45.69275" lon="4.34665">
        <ele>499.8</ele>
        <time>2023-02-19T07:53:21Z</time>
      </trkpt>
      <trkpt lat="45.69276" lon="4.34664">
        <ele>500</ele>
        <time>2023-02-19T07:53:22Z</time>
      </trkpt>
      <trkpt lat="45.69276" lon="4.34663">
        <ele>500.3</ele>
        <time>2023-02-19T07:53:23Z</time>
      </trkpt>
      <trkpt lat="45.69277" lon="4.34661">
        <ele>500.7</ele>
        <time>2023-02-19T07:53:25Z</time>
      </trkpt>
      <trkpt lat="45.69277" lon="4.3466">
        <ele>500.8</ele>
        <time>2023-02-19T07:53:27Z</time>
      </trkpt>
      <trkpt lat="45.69277" lon="4.3466">
        <ele>500.9</ele>
        <time>2023-02-19T07:53:28Z</time>
      </trkpt>
      <trkpt lat="45.69277" lon="4.34659">
        <ele>501</ele>
        <time>2023-02-19T07:53:29Z</time>
      </trkpt>
      <trkpt lat="45.69277" lon="4.34658">
        <ele>501.2</ele>
        <time>2023-02-19T07:53:31Z</time>
      </trkpt>
      <trkpt lat="45.69278" lon="4.34658">
        <ele>501.3</ele>
        <time>2023-02-19T07:53:32Z</time>
      </trkpt>
      <trkpt lat="45.69278" lon="4.34656">
        <ele>501.6</ele>
        <time>2023-02-19T07:53:34Z</time>
      </trkpt>
      <trkpt lat="45.69278" lon="4.34655">
        <ele>501.8</ele>
        <time>2023-02-19T07:53:35Z</time>
      </trkpt>
      <trkpt lat="45.69279" lon="4.34654">
        <ele>502</ele>
        <time>2023-02-19T07:53:36Z</time>
      </trkpt>
      <trkpt lat="45.69279" lon="4.34653">
        <ele>502.1</ele>
        <time>2023-02-19T07:53:37Z</time>
      </trkpt>
      <trkpt lat="45.69279" lon="4.34652">
        <ele>502.2</ele>
        <time>2023-02-19T07:53:38Z</time>
      </trkpt>
      <trkpt lat="45.69279" lon="4.34651">
        <ele>502.5</ele>
        <time>2023-02-19T07:53:40Z</time>
      </trkpt>
      <trkpt lat="45.6928" lon="4.3465">
        <ele>502.6</ele>
        <time>2023-02-19T07:53:41Z</time>
      </trkpt>
      <trkpt lat="45.6928" lon="4.3465">
        <ele>502.8</ele>
        <time>2023-02-19T07:53:42Z</time>
      </trkpt>
      <trkpt lat="45.69281" lon="4.34649">
        <ele>503</ele>
        <time>2023-02-19T07:53:43Z</time>
      </trkpt>
      <trkpt lat="45.69282" lon="4.34648">
        <ele>503.2</ele>
        <time>2023-02-19T07:53:44Z</time>
      </trkpt>
      <trkpt lat="45.69283" lon="4.34647">
        <ele>503.5</ele>
        <time>2023-02-19T07:53:45Z</time>
      </trkpt>
      <trkpt lat="45.69284" lon="4.34646">
        <ele>503.8</ele>
        <time>2023-02-19T07:53:47Z</time>
      </trkpt>
      <trkpt lat="45.69285" lon="4.34646">
        <ele>504.1</ele>
        <time>2023-02-19T07:53:48Z</time>
      </trkpt>
      <trkpt lat="45.69286" lon="4.34645">
        <ele>504.3</ele>
        <time>2023-02-19T07:53:49Z</time>
      </trkpt>
      <trkpt lat="45.69287" lon="4.34645">
        <ele>504.5</ele>
        <time>2023-02-19T07:53:50Z</time>
      </trkpt>
      <trkpt lat="45.69288" lon="4.34643">
        <ele>505</ele>
        <time>2023-02-19T07:53:51Z</time>
      </trkpt>
      <trkpt lat="45.69289" lon="4.34642">
        <ele>505.2</ele>
        <time>2023-02-19T07:53:53Z</time>
      </trkpt>
      <trkpt lat="45.6929" lon="4.34641">
        <ele>505.4</ele>
        <time>2023-02-19T07:53:54Z</time>
      </trkpt>
      <trkpt lat="45.6929" lon="4.3464">
        <ele>505.6</ele>
        <time>2023-02-19T07:53:55Z</time>
      </trkpt>
      <trkpt lat="45.69291" lon="4.34639">
        <ele>505.8</ele>
        <time>2023-02-19T07:53:56Z</time>
      </trkpt>
      <trkpt lat="45.69292" lon="4.34638">
        <ele>506.1</ele>
        <time>2023-02-19T07:53:57Z</time>
      </trkpt>
      <trkpt lat="45.69293" lon="4.34636">
        <ele>506.5</ele>
        <time>2023-02-19T07:53:58Z</time>
      </trkpt>
      <trkpt lat="45.69294" lon="4.34635">
        <ele>506.7</ele>
        <time>2023-02-19T07:53:59Z</time>
      </trkpt>
      <trkpt lat="45.69294" lon="4.34633">
        <ele>506.9</ele>
        <time>2023-02-19T07:54:00Z</time>
      </trkpt>
      <trkpt lat="45.69296" lon="4.34631">
        <ele>507.2</ele>
        <time>2023-02-19T07:54:02Z</time>
      </trkpt>
      <trkpt lat="45.69296" lon="4.3463">
        <ele>507.4</ele>
        <time>2023-02-19T07:54:03Z</time>
      </trkpt>
      <trkpt lat="45.69296" lon="4.34629">
        <ele>507.7</ele>
        <time>2023-02-19T07:54:04Z</time>
      </trkpt>
      <trkpt lat="45.69297" lon="4.34628">
        <ele>507.8</ele>
        <time>2023-02-19T07:54:05Z</time>
      </trkpt>
      <trkpt lat="45.69298" lon="4.34626">
        <ele>508.1</ele>
        <time>2023-02-19T07:54:07Z</time>
      </trkpt>
      <trkpt lat="45.69298" lon="4.34626">
        <ele>508.2</ele>
        <time>2023-02-19T07:54:08Z</time>
      </trkpt>
      <trkpt lat="45.69299" lon="4.34625">
        <ele>508.3</ele>
        <time>2023-02-19T07:54:09Z</time>
      </trkpt>
      <trkpt lat="45.693" lon="4.34624">
        <ele>508.5</ele>
        <time>2023-02-19T07:54:10Z</time>
      </trkpt>
      <trkpt lat="45.693" lon="4.34623">
        <ele>508.7</ele>
        <time>2023-02-19T07:54:11Z</time>
      </trkpt>
      <trkpt lat="45.69301" lon="4.34621">
        <ele>508.9</ele>
        <time>2023-02-19T07:54:13Z</time>
      </trkpt>
      <trkpt lat="45.69301" lon="4.3462">
        <ele>509.1</ele>
        <time>2023-02-19T07:54:14Z</time>
      </trkpt>
      <trkpt lat="45.69302" lon="4.34619">
        <ele>509.3</ele>
        <time>2023-02-19T07:54:15Z</time>
      </trkpt>
      <trkpt lat="45.69302" lon="4.34617">
        <ele>509.5</ele>
        <time>2023-02-19T07:54:16Z</time>
      </trkpt>
      <trkpt lat="45.69303" lon="4.34616">
        <ele>509.7</ele>
        <time>2023-02-19T07:54:17Z</time>
      </trkpt>
      <trkpt lat="45.69304" lon="4.34614">
        <ele>509.9</ele>
        <time>2023-02-19T07:54:19Z</time>
      </trkpt>
      <trkpt lat="45.69304" lon="4.34613">
        <ele>510</ele>
        <time>2023-02-19T07:54:20Z</time>
      </trkpt>
      <trkpt lat="45.69304" lon="4.34612">
        <ele>510.2</ele>
        <time>2023-02-19T07:54:22Z</time>
      </trkpt>
      <trkpt lat="45.69304" lon="4.3461">
        <ele>510.4</ele>
        <time>2023-02-19T07:54:23Z</time>
      </trkpt>
      <trkpt lat="45.69304" lon="4.3461">
        <ele>510.5</ele>
        <time>2023-02-19T07:54:24Z</time>
      </trkpt>
      <trkpt lat="45.69304" lon="4.34609">
        <ele>510.6</ele>
        <time>2023-02-19T07:54:25Z</time>
      </trkpt>
      <trkpt lat="45.69304" lon="4.34607">
        <ele>510.8</ele>
        <time>2023-02-19T07:54:27Z</time>
      </trkpt>
      <trkpt lat="45.69304" lon="4.34606">
        <ele>510.9</ele>
        <time>2023-02-19T07:54:28Z</time>
      </trkpt>
      <trkpt lat="45.69305" lon="4.34605">
        <ele>511</ele>
        <time>2023-02-19T07:54:29Z</time>
      </trkpt>
      <trkpt lat="45.69305" lon="4.34604">
        <ele>511.2</ele>
        <time>2023-02-19T07:54:30Z</time>
      </trkpt>
      <trkpt lat="45.69306" lon="4.34603">
        <ele>511.3</ele>
        <time>2023-02-19T07:54:31Z</time>
      </trkpt>
      <trkpt lat="45.69306" lon="4.34601">
        <ele>511.5</ele>
        <time>2023-02-19T07:54:33Z</time>
      </trkpt>
      <trkpt lat="45.69307" lon="4.34601">
        <ele>511.6</ele>
        <time>2023-02-19T07:54:34Z</time>
      </trkpt>
      <trkpt lat="45.69307" lon="4.34601">
        <ele>511.7</ele>
        <time>2023-02-19T07:54:35Z</time>
      </trkpt>
      <trkpt lat="45.69307" lon="4.346">
        <ele>511.7</ele>
        <time>2023-02-19T07:54:36Z</time>
      </trkpt>
      <trkpt lat="45.69308" lon="4.34599">
        <ele>511.9</ele>
        <time>2023-02-19T07:54:38Z</time>
      </trkpt>
      <trkpt lat="45.69308" lon="4.34599">
        <ele>511.9</ele>
        <time>2023-02-19T07:54:39Z</time>
      </trkpt>
      <trkpt lat="45.69308" lon="4.34599">
        <ele>512</ele>
        <time>2023-02-19T07:54:41Z</time>
      </trkpt>
      <trkpt lat="45.69308" lon="4.34599">
        <ele>512</ele>
        <time>2023-02-19T07:54:42Z</time>
      </trkpt>
      <trkpt lat="45.69309" lon="4.34598">
        <ele>512.1</ele>
        <time>2023-02-19T07:54:44Z</time>
      </trkpt>
      <trkpt lat="45.69309" lon="4.34596">
        <ele>512.3</ele>
        <time>2023-02-19T07:54:45Z</time>
      </trkpt>
      <trkpt lat="45.6931" lon="4.34595">
        <ele>512.5</ele>
        <time>2023-02-19T07:54:46Z</time>
      </trkpt>
      <trkpt lat="45.69311" lon="4.34592">
        <ele>512.8</ele>
        <time>2023-02-19T07:54:47Z</time>
      </trkpt>
      <trkpt lat="45.69312" lon="4.34591">
        <ele>513</ele>
        <time>2023-02-19T07:54:48Z</time>
      </trkpt>
      <trkpt lat="45.69313" lon="4.3459">
        <ele>513.2</ele>
        <time>2023-02-19T07:54:49Z</time>
      </trkpt>
      <trkpt lat="45.69313" lon="4.34588">
        <ele>513.5</ele>
        <time>2023-02-19T07:54:51Z</time>
      </trkpt>
      <trkpt lat="45.69314" lon="4.34587">
        <ele>513.6</ele>
        <time>2023-02-19T07:54:52Z</time>
      </trkpt>
      <trkpt lat="45.69315" lon="4.34586">
        <ele>513.8</ele>
        <time>2023-02-19T07:54:53Z</time>
      </trkpt>
      <trkpt lat="45.69315" lon="4.34584">
        <ele>514</ele>
        <time>2023-02-19T07:54:54Z</time>
      </trkpt>
      <trkpt lat="45.69316" lon="4.34583">
        <ele>514.1</ele>
        <time>2023-02-19T07:54:55Z</time>
      </trkpt>
      <trkpt lat="45.69316" lon="4.34582">
        <ele>514.2</ele>
        <time>2023-02-19T07:54:56Z</time>
      </trkpt>
      <trkpt lat="45.69317" lon="4.34581">
        <ele>514.4</ele>
        <time>2023-02-19T07:54:57Z</time>
      </trkpt>
      <trkpt lat="45.69318" lon="4.3458">
        <ele>514.6</ele>
        <time>2023-02-19T07:54:58Z</time>
      </trkpt>
      <trkpt lat="45.69319" lon="4.34578">
        <ele>514.8</ele>
        <time>2023-02-19T07:55:00Z</time>
      </trkpt>
      <trkpt lat="45.6932" lon="4.34577">
        <ele>515</ele>
        <time>2023-02-19T07:55:01Z</time>
      </trkpt>
      <trkpt lat="45.69321" lon="4.34575">
        <ele>515.3</ele>
        <time>2023-02-19T07:55:02Z</time>
      </trkpt>
      <trkpt lat="45.69322" lon="4.34574">
        <ele>515.5</ele>
        <time>2023-02-19T07:55:03Z</time>
      </trkpt>
      <trkpt lat="45.69323" lon="4.34573">
        <ele>515.7</ele>
        <time>2023-02-19T07:55:04Z</time>
      </trkpt>
      <trkpt lat="45.69325" lon="4.34572">
        <ele>515.9</ele>
        <time>2023-02-19T07:55:05Z</time>
      </trkpt>
      <trkpt lat="45.69326" lon="4.3457">
        <ele>516.2</ele>
        <time>2023-02-19T07:55:06Z</time>
      </trkpt>
      <trkpt lat="45.69327" lon="4.34569">
        <ele>516.4</ele>
        <time>2023-02-19T07:55:07Z</time>
      </trkpt>
      <trkpt lat="45.69328" lon="4.34568">
        <ele>516.6</ele>
        <time>2023-02-19T07:55:09Z</time>
      </trkpt>
      <trkpt lat="45.69329" lon="4.34567">
        <ele>516.7</ele>
        <time>2023-02-19T07:55:10Z</time>
      </trkpt>
      <trkpt lat="45.6933" lon="4.34566">
        <ele>516.8</ele>
        <time>2023-02-19T07:55:11Z</time>
      </trkpt>
      <trkpt lat="45.6933" lon="4.34566">
        <ele>516.9</ele>
        <time>2023-02-19T07:55:12Z</time>
      </trkpt>
      <trkpt lat="45.69331" lon="4.34565">
        <ele>517</ele>
        <time>2023-02-19T07:55:13Z</time>
      </trkpt>
      <trkpt lat="45.69331" lon="4.34564">
        <ele>517.1</ele>
        <time>2023-02-19T07:55:14Z</time>
      </trkpt>
      <trkpt lat="45.69332" lon="4.34564">
        <ele>517.2</ele>
        <time>2023-02-19T07:55:15Z</time>
      </trkpt>
      <trkpt lat="45.69332" lon="4.34565">
        <ele>517.3</ele>
        <time>2023-02-19T07:55:17Z</time>
      </trkpt>
      <trkpt lat="45.69332" lon="4.34565">
        <ele>517.3</ele>
        <time>2023-02-19T07:55:18Z</time>
      </trkpt>
      <trkpt lat="45.69332" lon="4.34564">
        <ele>517.4</ele>
        <time>2023-02-19T07:55:19Z</time>
      </trkpt>
      <trkpt lat="45.69333" lon="4.34563">
        <ele>517.6</ele>
        <time>2023-02-19T07:55:20Z</time>
      </trkpt>
      <trkpt lat="45.69334" lon="4.34561">
        <ele>517.8</ele>
        <time>2023-02-19T07:55:21Z</time>
      </trkpt>
      <trkpt lat="45.69335" lon="4.34559">
        <ele>518</ele>
        <time>2023-02-19T07:55:22Z</time>
      </trkpt>
      <trkpt lat="45.69335" lon="4.34556">
        <ele>518.3</ele>
        <time>2023-02-19T07:55:23Z</time>
      </trkpt>
      <trkpt lat="45.69336" lon="4.34554">
        <ele>518.5</ele>
        <time>2023-02-19T07:55:25Z</time>
      </trkpt>
      <trkpt lat="45.69337" lon="4.34553">
        <ele>518.7</ele>
        <time>2023-02-19T07:55:26Z</time>
      </trkpt>
      <trkpt lat="45.69337" lon="4.34551">
        <ele>518.8</ele>
        <time>2023-02-19T07:55:27Z</time>
      </trkpt>
      <trkpt lat="45.69338" lon="4.3455">
        <ele>518.9</ele>
        <time>2023-02-19T07:55:28Z</time>
      </trkpt>
      <trkpt lat="45.69338" lon="4.34549">
        <ele>519</ele>
        <time>2023-02-19T07:55:29Z</time>
      </trkpt>
      <trkpt lat="45.69339" lon="4.34548">
        <ele>519.2</ele>
        <time>2023-02-19T07:55:30Z</time>
      </trkpt>
      <trkpt lat="45.69339" lon="4.34546">
        <ele>519.3</ele>
        <time>2023-02-19T07:55:31Z</time>
      </trkpt>
      <trkpt lat="45.6934" lon="4.34545">
        <ele>519.5</ele>
        <time>2023-02-19T07:55:33Z</time>
      </trkpt>
      <trkpt lat="45.6934" lon="4.34543">
        <ele>519.6</ele>
        <time>2023-02-19T07:55:34Z</time>
      </trkpt>
      <trkpt lat="45.69341" lon="4.34542">
        <ele>519.8</ele>
        <time>2023-02-19T07:55:35Z</time>
      </trkpt>
      <trkpt lat="45.69343" lon="4.34539">
        <ele>520.1</ele>
        <time>2023-02-19T07:55:36Z</time>
      </trkpt>
      <trkpt lat="45.69344" lon="4.34538">
        <ele>520.2</ele>
        <time>2023-02-19T07:55:38Z</time>
      </trkpt>
      <trkpt lat="45.69345" lon="4.34537">
        <ele>520.4</ele>
        <time>2023-02-19T07:55:39Z</time>
      </trkpt>
      <trkpt lat="45.69346" lon="4.34535">
        <ele>520.5</ele>
        <time>2023-02-19T07:55:40Z</time>
      </trkpt>
      <trkpt lat="45.69346" lon="4.34534">
        <ele>520.7</ele>
        <time>2023-02-19T07:55:42Z</time>
      </trkpt>
      <trkpt lat="45.69346" lon="4.34532">
        <ele>520.8</ele>
        <time>2023-02-19T07:55:43Z</time>
      </trkpt>
      <trkpt lat="45.69347" lon="4.34531">
        <ele>520.9</ele>
        <time>2023-02-19T07:55:44Z</time>
      </trkpt>
      <trkpt lat="45.69347" lon="4.3453">
        <ele>521</ele>
        <time>2023-02-19T07:55:45Z</time>
      </trkpt>
      <trkpt lat="45.69348" lon="4.34529">
        <ele>521.2</ele>
        <time>2023-02-19T07:55:46Z</time>
      </trkpt>
      <trkpt lat="45.69348" lon="4.34527">
        <ele>521.3</ele>
        <time>2023-02-19T07:55:47Z</time>
      </trkpt>
      <trkpt lat="45.69349" lon="4.34525">
        <ele>521.5</ele>
        <time>2023-02-19T07:55:48Z</time>
      </trkpt>
      <trkpt lat="45.69349" lon="4.34524">
        <ele>521.6</ele>
        <time>2023-02-19T07:55:50Z</time>
      </trkpt>
      <trkpt lat="45.6935" lon="4.34523">
        <ele>521.7</ele>
        <time>2023-02-19T07:55:51Z</time>
      </trkpt>
      <trkpt lat="45.6935" lon="4.34522">
        <ele>521.8</ele>
        <time>2023-02-19T07:55:52Z</time>
      </trkpt>
      <trkpt lat="45.69351" lon="4.34521">
        <ele>521.9</ele>
        <time>2023-02-19T07:55:53Z</time>
      </trkpt>
      <trkpt lat="45.69351" lon="4.3452">
        <ele>522</ele>
        <time>2023-02-19T07:55:54Z</time>
      </trkpt>
      <trkpt lat="45.69352" lon="4.34519">
        <ele>522.1</ele>
        <time>2023-02-19T07:55:55Z</time>
      </trkpt>
      <trkpt lat="45.69352" lon="4.34519">
        <ele>522.1</ele>
        <time>2023-02-19T07:55:56Z</time>
      </trkpt>
      <trkpt lat="45.69352" lon="4.34518">
        <ele>522.2</ele>
        <time>2023-02-19T07:55:57Z</time>
      </trkpt>
      <trkpt lat="45.69353" lon="4.34518">
        <ele>522.3</ele>
        <time>2023-02-19T07:55:59Z</time>
      </trkpt>
      <trkpt lat="45.69353" lon="4.34517">
        <ele>522.3</ele>
        <time>2023-02-19T07:56:00Z</time>
      </trkpt>
      <trkpt lat="45.69353" lon="4.34517">
        <ele>522.3</ele>
        <time>2023-02-19T07:56:01Z</time>
      </trkpt>
      <trkpt lat="45.69353" lon="4.34516">
        <ele>522.4</ele>
        <time>2023-02-19T07:56:02Z</time>
      </trkpt>
      <trkpt lat="45.69353" lon="4.34516">
        <ele>522.5</ele>
        <time>2023-02-19T07:56:03Z</time>
      </trkpt>
      <trkpt lat="45.69354" lon="4.34513">
        <ele>522.7</ele>
        <time>2023-02-19T07:56:04Z</time>
      </trkpt>
      <trkpt lat="45.69354" lon="4.34512">
        <ele>522.8</ele>
        <time>2023-02-19T07:56:06Z</time>
      </trkpt>
      <trkpt lat="45.69355" lon="4.34511">
        <ele>522.9</ele>
        <time>2023-02-19T07:56:07Z</time>
      </trkpt>
      <trkpt lat="45.69356" lon="4.34509">
        <ele>523.2</ele>
        <time>2023-02-19T07:56:08Z</time>
      </trkpt>
      <trkpt lat="45.69357" lon="4.34507">
        <ele>523.4</ele>
        <time>2023-02-19T07:56:09Z</time>
      </trkpt>
      <trkpt lat="45.69358" lon="4.34505">
        <ele>523.7</ele>
        <time>2023-02-19T07:56:11Z</time>
      </trkpt>
      <trkpt lat="45.69359" lon="4.34504">
        <ele>523.9</ele>
        <time>2023-02-19T07:56:12Z</time>
      </trkpt>
      <trkpt lat="45.6936" lon="4.34502">
        <ele>524.2</ele>
        <time>2023-02-19T07:56:13Z</time>
      </trkpt>
      <trkpt lat="45.69362" lon="4.34501">
        <ele>524.4</ele>
        <time>2023-02-19T07:56:14Z</time>
      </trkpt>
      <trkpt lat="45.69363" lon="4.34499">
        <ele>524.7</ele>
        <time>2023-02-19T07:56:16Z</time>
      </trkpt>
      <trkpt lat="45.69364" lon="4.34499">
        <ele>524.9</ele>
        <time>2023-02-19T07:56:17Z</time>
      </trkpt>
      <trkpt lat="45.69367" lon="4.34497">
        <ele>525.3</ele>
        <time>2023-02-19T07:56:18Z</time>
      </trkpt>
      <trkpt lat="45.69368" lon="4.34496">
        <ele>525.5</ele>
        <time>2023-02-19T07:56:20Z</time>
      </trkpt>
      <trkpt lat="45.69369" lon="4.34495">
        <ele>525.6</ele>
        <time>2023-02-19T07:56:21Z</time>
      </trkpt>
      <trkpt lat="45.6937" lon="4.34494">
        <ele>525.8</ele>
        <time>2023-02-19T07:56:22Z</time>
      </trkpt>
      <trkpt lat="45.69371" lon="4.34493">
        <ele>526</ele>
        <time>2023-02-19T07:56:23Z</time>
      </trkpt>
      <trkpt lat="45.69372" lon="4.34491">
        <ele>526.3</ele>
        <time>2023-02-19T07:56:24Z</time>
      </trkpt>
      <trkpt lat="45.69373" lon="4.34491">
        <ele>526.5</ele>
        <time>2023-02-19T07:56:25Z</time>
      </trkpt>
      <trkpt lat="45.69373" lon="4.3449">
        <ele>526.6</ele>
        <time>2023-02-19T07:56:26Z</time>
      </trkpt>
      <trkpt lat="45.69375" lon="4.34488">
        <ele>526.9</ele>
        <time>2023-02-19T07:56:27Z</time>
      </trkpt>
      <trkpt lat="45.69375" lon="4.34487">
        <ele>527</ele>
        <time>2023-02-19T07:56:28Z</time>
      </trkpt>
      <trkpt lat="45.69376" lon="4.34486">
        <ele>527.2</ele>
        <time>2023-02-19T07:56:29Z</time>
      </trkpt>
      <trkpt lat="45.69377" lon="4.34484">
        <ele>527.4</ele>
        <time>2023-02-19T07:56:31Z</time>
      </trkpt>
      <trkpt lat="45.69378" lon="4.34482">
        <ele>527.7</ele>
        <time>2023-02-19T07:56:32Z</time>
      </trkpt>
      <trkpt lat="45.69378" lon="4.3448">
        <ele>527.9</ele>
        <time>2023-02-19T07:56:33Z</time>
      </trkpt>
      <trkpt lat="45.69379" lon="4.34479">
        <ele>528.1</ele>
        <time>2023-02-19T07:56:34Z</time>
      </trkpt>
      <trkpt lat="45.6938" lon="4.34477">
        <ele>528.3</ele>
        <time>2023-02-19T07:56:36Z</time>
      </trkpt>
      <trkpt lat="45.69381" lon="4.34476">
        <ele>528.3</ele>
        <time>2023-02-19T07:56:37Z</time>
      </trkpt>
      <trkpt lat="45.69381" lon="4.34475">
        <ele>528.5</ele>
        <time>2023-02-19T07:56:38Z</time>
      </trkpt>
      <trkpt lat="45.69383" lon="4.34473">
        <ele>528.8</ele>
        <time>2023-02-19T07:56:39Z</time>
      </trkpt>
      <trkpt lat="45.69383" lon="4.34472">
        <ele>528.9</ele>
        <time>2023-02-19T07:56:40Z</time>
      </trkpt>
      <trkpt lat="45.69384" lon="4.34471">
        <ele>529.1</ele>
        <time>2023-02-19T07:56:41Z</time>
      </trkpt>
      <trkpt lat="45.69385" lon="4.3447">
        <ele>529.3</ele>
        <time>2023-02-19T07:56:43Z</time>
      </trkpt>
      <trkpt lat="45.69385" lon="4.34471">
        <ele>529.3</ele>
        <time>2023-02-19T07:56:44Z</time>
      </trkpt>
      <trkpt lat="45.69386" lon="4.34471">
        <ele>529.4</ele>
        <time>2023-02-19T07:56:45Z</time>
      </trkpt>
      <trkpt lat="45.69386" lon="4.34471">
        <ele>529.4</ele>
        <time>2023-02-19T07:56:46Z</time>
      </trkpt>
      <trkpt lat="45.69386" lon="4.34471">
        <ele>529.5</ele>
        <time>2023-02-19T07:56:47Z</time>
      </trkpt>
      <trkpt lat="45.69386" lon="4.34471">
        <ele>529.5</ele>
        <time>2023-02-19T07:56:48Z</time>
      </trkpt>
      <trkpt lat="45.69387" lon="4.34472">
        <ele>529.6</ele>
        <time>2023-02-19T07:56:49Z</time>
      </trkpt>
      <trkpt lat="45.69387" lon="4.34472">
        <ele>529.7</ele>
        <time>2023-02-19T07:56:50Z</time>
      </trkpt>
      <trkpt lat="45.69388" lon="4.34472">
        <ele>529.8</ele>
        <time>2023-02-19T07:56:51Z</time>
      </trkpt>
      <trkpt lat="45.69389" lon="4.34471">
        <ele>530</ele>
        <time>2023-02-19T07:56:53Z</time>
      </trkpt>
      <trkpt lat="45.69389" lon="4.34471">
        <ele>530.1</ele>
        <time>2023-02-19T07:56:55Z</time>
      </trkpt>
      <trkpt lat="45.6939" lon="4.34471">
        <ele>530.2</ele>
        <time>2023-02-19T07:56:56Z</time>
      </trkpt>
      <trkpt lat="45.6939" lon="4.3447">
        <ele>530.2</ele>
        <time>2023-02-19T07:56:57Z</time>
      </trkpt>
      <trkpt lat="45.6939" lon="4.3447">
        <ele>530.3</ele>
        <time>2023-02-19T07:56:58Z</time>
      </trkpt>
      <trkpt lat="45.69391" lon="4.3447">
        <ele>530.4</ele>
        <time>2023-02-19T07:56:59Z</time>
      </trkpt>
      <trkpt lat="45.69391" lon="4.34469">
        <ele>530.5</ele>
        <time>2023-02-19T07:57:00Z</time>
      </trkpt>
      <trkpt lat="45.69392" lon="4.34469">
        <ele>530.6</ele>
        <time>2023-02-19T07:57:01Z</time>
      </trkpt>
      <trkpt lat="45.69393" lon="4.34468">
        <ele>530.9</ele>
        <time>2023-02-19T07:57:03Z</time>
      </trkpt>
      <trkpt lat="45.69394" lon="4.34468">
        <ele>531.1</ele>
        <time>2023-02-19T07:57:05Z</time>
      </trkpt>
      <trkpt lat="45.69395" lon="4.34467">
        <ele>531.2</ele>
        <time>2023-02-19T07:57:06Z</time>
      </trkpt>
      <trkpt lat="45.69396" lon="4.34466">
        <ele>531.4</ele>
        <time>2023-02-19T07:57:07Z</time>
      </trkpt>
      <trkpt lat="45.69396" lon="4.34465">
        <ele>531.6</ele>
        <time>2023-02-19T07:57:08Z</time>
      </trkpt>
      <trkpt lat="45.69397" lon="4.34464">
        <ele>531.8</ele>
        <time>2023-02-19T07:57:09Z</time>
      </trkpt>
      <trkpt lat="45.69397" lon="4.34463">
        <ele>531.9</ele>
        <time>2023-02-19T07:57:10Z</time>
      </trkpt>
      <trkpt lat="45.69398" lon="4.34461">
        <ele>532.2</ele>
        <time>2023-02-19T07:57:11Z</time>
      </trkpt>
      <trkpt lat="45.69398" lon="4.34459">
        <ele>532.5</ele>
        <time>2023-02-19T07:57:12Z</time>
      </trkpt>
      <trkpt lat="45.69398" lon="4.34456">
        <ele>532.9</ele>
        <time>2023-02-19T07:57:14Z</time>
      </trkpt>
      <trkpt lat="45.69398" lon="4.34455">
        <ele>533.1</ele>
        <time>2023-02-19T07:57:15Z</time>
      </trkpt>
      <trkpt lat="45.69398" lon="4.34454">
        <ele>533.2</ele>
        <time>2023-02-19T07:57:16Z</time>
      </trkpt>
      <trkpt lat="45.69398" lon="4.34452">
        <ele>533.4</ele>
        <time>2023-02-19T07:57:18Z</time>
      </trkpt>
      <trkpt lat="45.69398" lon="4.34451">
        <ele>533.6</ele>
        <time>2023-02-19T07:57:19Z</time>
      </trkpt>
      <trkpt lat="45.69398" lon="4.3445">
        <ele>533.8</ele>
        <time>2023-02-19T07:57:20Z</time>
      </trkpt>
      <trkpt lat="45.69398" lon="4.34448">
        <ele>534</ele>
        <time>2023-02-19T07:57:22Z</time>
      </trkpt>
      <trkpt lat="45.69398" lon="4.34446">
        <ele>534.3</ele>
        <time>2023-02-19T07:57:23Z</time>
      </trkpt>
      <trkpt lat="45.69398" lon="4.34443">
        <ele>534.7</ele>
        <time>2023-02-19T07:57:25Z</time>
      </trkpt>
      <trkpt lat="45.69398" lon="4.34442">
        <ele>534.9</ele>
        <time>2023-02-19T07:57:26Z</time>
      </trkpt>
      <trkpt lat="45.69398" lon="4.3444">
        <ele>535.1</ele>
        <time>2023-02-19T07:57:27Z</time>
      </trkpt>
      <trkpt lat="45.69398" lon="4.34439">
        <ele>535.2</ele>
        <time>2023-02-19T07:57:28Z</time>
      </trkpt>
      <trkpt lat="45.69398" lon="4.34438">
        <ele>535.4</ele>
        <time>2023-02-19T07:57:29Z</time>
      </trkpt>
      <trkpt lat="45.69398" lon="4.34436">
        <ele>535.7</ele>
        <time>2023-02-19T07:57:30Z</time>
      </trkpt>
      <trkpt lat="45.69399" lon="4.34435">
        <ele>535.8</ele>
        <time>2023-02-19T07:57:32Z</time>
      </trkpt>
      <trkpt lat="45.69399" lon="4.34434">
        <ele>536</ele>
        <time>2023-02-19T07:57:33Z</time>
      </trkpt>
      <trkpt lat="45.69399" lon="4.34433">
        <ele>536.2</ele>
        <time>2023-02-19T07:57:35Z</time>
      </trkpt>
      <trkpt lat="45.69399" lon="4.34432">
        <ele>536.3</ele>
        <time>2023-02-19T07:57:36Z</time>
      </trkpt>
      <trkpt lat="45.694" lon="4.34432">
        <ele>536.4</ele>
        <time>2023-02-19T07:57:37Z</time>
      </trkpt>
      <trkpt lat="45.694" lon="4.34431">
        <ele>536.4</ele>
        <time>2023-02-19T07:57:38Z</time>
      </trkpt>
      <trkpt lat="45.694" lon="4.34431">
        <ele>536.6</ele>
        <time>2023-02-19T07:57:39Z</time>
      </trkpt>
      <trkpt lat="45.69401" lon="4.3443">
        <ele>536.7</ele>
        <time>2023-02-19T07:57:40Z</time>
      </trkpt>
      <trkpt lat="45.69401" lon="4.34429">
        <ele>536.9</ele>
        <time>2023-02-19T07:57:42Z</time>
      </trkpt>
      <trkpt lat="45.69401" lon="4.34427">
        <ele>537.1</ele>
        <time>2023-02-19T07:57:43Z</time>
      </trkpt>
      <trkpt lat="45.69402" lon="4.34426">
        <ele>537.2</ele>
        <time>2023-02-19T07:57:44Z</time>
      </trkpt>
      <trkpt lat="45.69402" lon="4.34425">
        <ele>537.4</ele>
        <time>2023-02-19T07:57:45Z</time>
      </trkpt>
      <trkpt lat="45.69402" lon="4.34423">
        <ele>537.6</ele>
        <time>2023-02-19T07:57:46Z</time>
      </trkpt>
      <trkpt lat="45.69403" lon="4.34421">
        <ele>537.9</ele>
        <time>2023-02-19T07:57:47Z</time>
      </trkpt>
      <trkpt lat="45.69403" lon="4.34419">
        <ele>538.1</ele>
        <time>2023-02-19T07:57:48Z</time>
      </trkpt>
      <trkpt lat="45.69403" lon="4.34418">
        <ele>538.2</ele>
        <time>2023-02-19T07:57:49Z</time>
      </trkpt>
      <trkpt lat="45.69404" lon="4.34416">
        <ele>538.4</ele>
        <time>2023-02-19T07:57:50Z</time>
      </trkpt>
      <trkpt lat="45.69404" lon="4.34414">
        <ele>538.6</ele>
        <time>2023-02-19T07:57:52Z</time>
      </trkpt>
      <trkpt lat="45.69404" lon="4.34412">
        <ele>538.8</ele>
        <time>2023-02-19T07:57:53Z</time>
      </trkpt>
      <trkpt lat="45.69404" lon="4.3441">
        <ele>539</ele>
        <time>2023-02-19T07:57:54Z</time>
      </trkpt>
      <trkpt lat="45.69405" lon="4.34409">
        <ele>539.2</ele>
        <time>2023-02-19T07:57:55Z</time>
      </trkpt>
      <trkpt lat="45.69405" lon="4.34407">
        <ele>539.4</ele>
        <time>2023-02-19T07:57:56Z</time>
      </trkpt>
      <trkpt lat="45.69406" lon="4.34406">
        <ele>539.5</ele>
        <time>2023-02-19T07:57:57Z</time>
      </trkpt>
      <trkpt lat="45.69407" lon="4.34402">
        <ele>539.8</ele>
        <time>2023-02-19T07:57:59Z</time>
      </trkpt>
      <trkpt lat="45.69407" lon="4.344">
        <ele>539.9</ele>
        <time>2023-02-19T07:58:00Z</time>
      </trkpt>
      <trkpt lat="45.69409" lon="4.34399">
        <ele>540.1</ele>
        <time>2023-02-19T07:58:02Z</time>
      </trkpt>
      <trkpt lat="45.69411" lon="4.34398">
        <ele>540.3</ele>
        <time>2023-02-19T07:58:03Z</time>
      </trkpt>
      <trkpt lat="45.69412" lon="4.34398">
        <ele>540.4</ele>
        <time>2023-02-19T07:58:04Z</time>
      </trkpt>
      <trkpt lat="45.69413" lon="4.34398">
        <ele>540.4</ele>
        <time>2023-02-19T07:58:05Z</time>
      </trkpt>
      <trkpt lat="45.69414" lon="4.34398">
        <ele>540.6</ele>
        <time>2023-02-19T07:58:07Z</time>
      </trkpt>
      <trkpt lat="45.69415" lon="4.34398">
        <ele>540.6</ele>
        <time>2023-02-19T07:58:08Z</time>
      </trkpt>
      <trkpt lat="45.69416" lon="4.34397">
        <ele>540.7</ele>
        <time>2023-02-19T07:58:09Z</time>
      </trkpt>
      <trkpt lat="45.69417" lon="4.34397">
        <ele>540.8</ele>
        <time>2023-02-19T07:58:10Z</time>
      </trkpt>
      <trkpt lat="45.69418" lon="4.34397">
        <ele>540.8</ele>
        <time>2023-02-19T07:58:11Z</time>
      </trkpt>
      <trkpt lat="45.6942" lon="4.34396">
        <ele>541</ele>
        <time>2023-02-19T07:58:13Z</time>
      </trkpt>
      <trkpt lat="45.69421" lon="4.34396">
        <ele>541</ele>
        <time>2023-02-19T07:58:14Z</time>
      </trkpt>
      <trkpt lat="45.69423" lon="4.34395">
        <ele>541.1</ele>
        <time>2023-02-19T07:58:15Z</time>
      </trkpt>
      <trkpt lat="45.69424" lon="4.34393">
        <ele>541.1</ele>
        <time>2023-02-19T07:58:16Z</time>
      </trkpt>
      <trkpt lat="45.69425" lon="4.34392">
        <ele>541.2</ele>
        <time>2023-02-19T07:58:17Z</time>
      </trkpt>
      <trkpt lat="45.69426" lon="4.3439">
        <ele>541.2</ele>
        <time>2023-02-19T07:58:18Z</time>
      </trkpt>
      <trkpt lat="45.69427" lon="4.34388">
        <ele>541.2</ele>
        <time>2023-02-19T07:58:19Z</time>
      </trkpt>
      <trkpt lat="45.69428" lon="4.34386">
        <ele>541.2</ele>
        <time>2023-02-19T07:58:21Z</time>
      </trkpt>
      <trkpt lat="45.69429" lon="4.34385">
        <ele>541.2</ele>
        <time>2023-02-19T07:58:22Z</time>
      </trkpt>
      <trkpt lat="45.6943" lon="4.34383">
        <ele>541.2</ele>
        <time>2023-02-19T07:58:23Z</time>
      </trkpt>
      <trkpt lat="45.69431" lon="4.34381">
        <ele>541.2</ele>
        <time>2023-02-19T07:58:24Z</time>
      </trkpt>
      <trkpt lat="45.69433" lon="4.34378">
        <ele>541.1</ele>
        <time>2023-02-19T07:58:26Z</time>
      </trkpt>
      <trkpt lat="45.69434" lon="4.34377">
        <ele>541.1</ele>
        <time>2023-02-19T07:58:27Z</time>
      </trkpt>
      <trkpt lat="45.69435" lon="4.34376">
        <ele>541.1</ele>
        <time>2023-02-19T07:58:28Z</time>
      </trkpt>
      <trkpt lat="45.69436" lon="4.34374">
        <ele>541</ele>
        <time>2023-02-19T07:58:29Z</time>
      </trkpt>
      <trkpt lat="45.69437" lon="4.34373">
        <ele>541</ele>
        <time>2023-02-19T07:58:30Z</time>
      </trkpt>
      <trkpt lat="45.69439" lon="4.34371">
        <ele>541</ele>
        <time>2023-02-19T07:58:32Z</time>
      </trkpt>
      <trkpt lat="45.6944" lon="4.34369">
        <ele>540.9</ele>
        <time>2023-02-19T07:58:33Z</time>
      </trkpt>
      <trkpt lat="45.69441" lon="4.34368">
        <ele>540.9</ele>
        <time>2023-02-19T07:58:34Z</time>
      </trkpt>
      <trkpt lat="45.69443" lon="4.34363">
        <ele>540.8</ele>
        <time>2023-02-19T07:58:36Z</time>
      </trkpt>
      <trkpt lat="45.69444" lon="4.34361">
        <ele>540.7</ele>
        <time>2023-02-19T07:58:37Z</time>
      </trkpt>
      <trkpt lat="45.69445" lon="4.34359">
        <ele>540.7</ele>
        <time>2023-02-19T07:58:38Z</time>
      </trkpt>
      <trkpt lat="45.69446" lon="4.34357">
        <ele>540.7</ele>
        <time>2023-02-19T07:58:39Z</time>
      </trkpt>
      <trkpt lat="45.69447" lon="4.34356">
        <ele>540.6</ele>
        <time>2023-02-19T07:58:40Z</time>
      </trkpt>
      <trkpt lat="45.69448" lon="4.34355">
        <ele>540.6</ele>
        <time>2023-02-19T07:58:41Z</time>
      </trkpt>
      <trkpt lat="45.69449" lon="4.34353">
        <ele>540.5</ele>
        <time>2023-02-19T07:58:42Z</time>
      </trkpt>
      <trkpt lat="45.69451" lon="4.34352">
        <ele>540.5</ele>
        <time>2023-02-19T07:58:44Z</time>
      </trkpt>
      <trkpt lat="45.69452" lon="4.34351">
        <ele>540.5</ele>
        <time>2023-02-19T07:58:45Z</time>
      </trkpt>
      <trkpt lat="45.69454" lon="4.3435">
        <ele>540.4</ele>
        <time>2023-02-19T07:58:46Z</time>
      </trkpt>
      <trkpt lat="45.69455" lon="4.34349">
        <ele>540.4</ele>
        <time>2023-02-19T07:58:47Z</time>
      </trkpt>
      <trkpt lat="45.69458" lon="4.34347">
        <ele>540.3</ele>
        <time>2023-02-19T07:58:49Z</time>
      </trkpt>
      <trkpt lat="45.6946" lon="4.34346">
        <ele>540.3</ele>
        <time>2023-02-19T07:58:50Z</time>
      </trkpt>
      <trkpt lat="45.69461" lon="4.34345">
        <ele>540.2</ele>
        <time>2023-02-19T07:58:51Z</time>
      </trkpt>
      <trkpt lat="45.69463" lon="4.34344">
        <ele>540.2</ele>
        <time>2023-02-19T07:58:52Z</time>
      </trkpt>
      <trkpt lat="45.69465" lon="4.34343">
        <ele>540.1</ele>
        <time>2023-02-19T07:58:54Z</time>
      </trkpt>
      <trkpt lat="45.69467" lon="4.34342">
        <ele>540.1</ele>
        <time>2023-02-19T07:58:55Z</time>
      </trkpt>
      <trkpt lat="45.69468" lon="4.34341">
        <ele>540</ele>
        <time>2023-02-19T07:58:56Z</time>
      </trkpt>
      <trkpt lat="45.6947" lon="4.34341">
        <ele>540</ele>
        <time>2023-02-19T07:58:57Z</time>
      </trkpt>
      <trkpt lat="45.69471" lon="4.3434">
        <ele>539.9</ele>
        <time>2023-02-19T07:58:58Z</time>
      </trkpt>
      <trkpt lat="45.69473" lon="4.34339">
        <ele>539.9</ele>
        <time>2023-02-19T07:58:59Z</time>
      </trkpt>
      <trkpt lat="45.69474" lon="4.34338">
        <ele>539.8</ele>
        <time>2023-02-19T07:59:00Z</time>
      </trkpt>
      <trkpt lat="45.69476" lon="4.34337">
        <ele>539.8</ele>
        <time>2023-02-19T07:59:01Z</time>
      </trkpt>
      <trkpt lat="45.69477" lon="4.34336">
        <ele>539.7</ele>
        <time>2023-02-19T07:59:03Z</time>
      </trkpt>
      <trkpt lat="45.69478" lon="4.34335">
        <ele>539.7</ele>
        <time>2023-02-19T07:59:04Z</time>
      </trkpt>
      <trkpt lat="45.6948" lon="4.34334">
        <ele>539.6</ele>
        <time>2023-02-19T07:59:05Z</time>
      </trkpt>
      <trkpt lat="45.69481" lon="4.34334">
        <ele>539.6</ele>
        <time>2023-02-19T07:59:06Z</time>
      </trkpt>
      <trkpt lat="45.69482" lon="4.34333">
        <ele>539.6</ele>
        <time>2023-02-19T07:59:07Z</time>
      </trkpt>
      <trkpt lat="45.69485" lon="4.34332">
        <ele>539.5</ele>
        <time>2023-02-19T07:59:09Z</time>
      </trkpt>
      <trkpt lat="45.69486" lon="4.34332">
        <ele>539.4</ele>
        <time>2023-02-19T07:59:10Z</time>
      </trkpt>
      <trkpt lat="45.69487" lon="4.34331">
        <ele>539.4</ele>
        <time>2023-02-19T07:59:11Z</time>
      </trkpt>
      <trkpt lat="45.69489" lon="4.34331">
        <ele>539.4</ele>
        <time>2023-02-19T07:59:12Z</time>
      </trkpt>
      <trkpt lat="45.6949" lon="4.34331">
        <ele>539.3</ele>
        <time>2023-02-19T07:59:13Z</time>
      </trkpt>
      <trkpt lat="45.69492" lon="4.3433">
        <ele>539.3</ele>
        <time>2023-02-19T07:59:14Z</time>
      </trkpt>
      <trkpt lat="45.69493" lon="4.3433">
        <ele>539.3</ele>
        <time>2023-02-19T07:59:15Z</time>
      </trkpt>
      <trkpt lat="45.69494" lon="4.34329">
        <ele>539.2</ele>
        <time>2023-02-19T07:59:16Z</time>
      </trkpt>
      <trkpt lat="45.69496" lon="4.34329">
        <ele>539.2</ele>
        <time>2023-02-19T07:59:18Z</time>
      </trkpt>
      <trkpt lat="45.69497" lon="4.34328">
        <ele>539.2</ele>
        <time>2023-02-19T07:59:19Z</time>
      </trkpt>
      <trkpt lat="45.69499" lon="4.34327">
        <ele>539.1</ele>
        <time>2023-02-19T07:59:20Z</time>
      </trkpt>
      <trkpt lat="45.69501" lon="4.34325">
        <ele>539.1</ele>
        <time>2023-02-19T07:59:22Z</time>
      </trkpt>
      <trkpt lat="45.69504" lon="4.34323">
        <ele>539</ele>
        <time>2023-02-19T07:59:23Z</time>
      </trkpt>
      <trkpt lat="45.69505" lon="4.34323">
        <ele>539</ele>
        <time>2023-02-19T07:59:24Z</time>
      </trkpt>
      <trkpt lat="45.69506" lon="4.34322">
        <ele>539</ele>
        <time>2023-02-19T07:59:25Z</time>
      </trkpt>
      <trkpt lat="45.69508" lon="4.34321">
        <ele>539</ele>
        <time>2023-02-19T07:59:26Z</time>
      </trkpt>
      <trkpt lat="45.6951" lon="4.3432">
        <ele>539</ele>
        <time>2023-02-19T07:59:27Z</time>
      </trkpt>
      <trkpt lat="45.69512" lon="4.34318">
        <ele>538.9</ele>
        <time>2023-02-19T07:59:29Z</time>
      </trkpt>
      <trkpt lat="45.69514" lon="4.34316">
        <ele>538.9</ele>
        <time>2023-02-19T07:59:30Z</time>
      </trkpt>
      <trkpt lat="45.69515" lon="4.34316">
        <ele>538.9</ele>
        <time>2023-02-19T07:59:31Z</time>
      </trkpt>
      <trkpt lat="45.69515" lon="4.34315">
        <ele>538.9</ele>
        <time>2023-02-19T07:59:32Z</time>
      </trkpt>
      <trkpt lat="45.69517" lon="4.34315">
        <ele>538.9</ele>
        <time>2023-02-19T07:59:33Z</time>
      </trkpt>
      <trkpt lat="45.69518" lon="4.34314">
        <ele>538.9</ele>
        <time>2023-02-19T07:59:34Z</time>
      </trkpt>
      <trkpt lat="45.69519" lon="4.34314">
        <ele>538.9</ele>
        <time>2023-02-19T07:59:36Z</time>
      </trkpt>
      <trkpt lat="45.69521" lon="4.34313">
        <ele>538.9</ele>
        <time>2023-02-19T07:59:37Z</time>
      </trkpt>
      <trkpt lat="45.69523" lon="4.34312">
        <ele>538.8</ele>
        <time>2023-02-19T07:59:38Z</time>
      </trkpt>
      <trkpt lat="45.69524" lon="4.34312">
        <ele>538.8</ele>
        <time>2023-02-19T07:59:39Z</time>
      </trkpt>
      <trkpt lat="45.69525" lon="4.34311">
        <ele>538.8</ele>
        <time>2023-02-19T07:59:40Z</time>
      </trkpt>
      <trkpt lat="45.69526" lon="4.34311">
        <ele>538.8</ele>
        <time>2023-02-19T07:59:41Z</time>
      </trkpt>
      <trkpt lat="45.69527" lon="4.3431">
        <ele>538.8</ele>
        <time>2023-02-19T07:59:42Z</time>
      </trkpt>
      <trkpt lat="45.69529" lon="4.3431">
        <ele>538.7</ele>
        <time>2023-02-19T07:59:43Z</time>
      </trkpt>
      <trkpt lat="45.69531" lon="4.34309">
        <ele>538.7</ele>
        <time>2023-02-19T07:59:45Z</time>
      </trkpt>
      <trkpt lat="45.69533" lon="4.34308">
        <ele>538.6</ele>
        <time>2023-02-19T07:59:46Z</time>
      </trkpt>
      <trkpt lat="45.69534" lon="4.34307">
        <ele>538.6</ele>
        <time>2023-02-19T07:59:47Z</time>
      </trkpt>
      <trkpt lat="45.69535" lon="4.34307">
        <ele>538.6</ele>
        <time>2023-02-19T07:59:48Z</time>
      </trkpt>
      <trkpt lat="45.69536" lon="4.34306">
        <ele>538.5</ele>
        <time>2023-02-19T07:59:49Z</time>
      </trkpt>
      <trkpt lat="45.69537" lon="4.34306">
        <ele>538.5</ele>
        <time>2023-02-19T07:59:50Z</time>
      </trkpt>
      <trkpt lat="45.69538" lon="4.34305">
        <ele>538.5</ele>
        <time>2023-02-19T07:59:52Z</time>
      </trkpt>
      <trkpt lat="45.6954" lon="4.34303">
        <ele>538.4</ele>
        <time>2023-02-19T07:59:53Z</time>
      </trkpt>
      <trkpt lat="45.69541" lon="4.34302">
        <ele>538.4</ele>
        <time>2023-02-19T07:59:54Z</time>
      </trkpt>
      <trkpt lat="45.69542" lon="4.34302">
        <ele>538.4</ele>
        <time>2023-02-19T07:59:55Z</time>
      </trkpt>
      <trkpt lat="45.69543" lon="4.34301">
        <ele>538.3</ele>
        <time>2023-02-19T07:59:56Z</time>
      </trkpt>
      <trkpt lat="45.69544" lon="4.343">
        <ele>538.3</ele>
        <time>2023-02-19T07:59:57Z</time>
      </trkpt>
      <trkpt lat="45.69545" lon="4.34298">
        <ele>538.3</ele>
        <time>2023-02-19T07:59:58Z</time>
      </trkpt>
      <trkpt lat="45.69546" lon="4.34297">
        <ele>538.2</ele>
        <time>2023-02-19T07:59:59Z</time>
      </trkpt>
      <trkpt lat="45.69547" lon="4.34295">
        <ele>538.2</ele>
        <time>2023-02-19T08:00:00Z</time>
      </trkpt>
      <trkpt lat="45.69548" lon="4.34293">
        <ele>538.2</ele>
        <time>2023-02-19T08:00:01Z</time>
      </trkpt>
      <trkpt lat="45.69549" lon="4.34292">
        <ele>538.2</ele>
        <time>2023-02-19T08:00:02Z</time>
      </trkpt>
      <trkpt lat="45.6955" lon="4.3429">
        <ele>538.2</ele>
        <time>2023-02-19T08:00:04Z</time>
      </trkpt>
      <trkpt lat="45.69551" lon="4.34289">
        <ele>538.1</ele>
        <time>2023-02-19T08:00:05Z</time>
      </trkpt>
      <trkpt lat="45.69552" lon="4.34287">
        <ele>538.1</ele>
        <time>2023-02-19T08:00:06Z</time>
      </trkpt>
      <trkpt lat="45.69553" lon="4.34286">
        <ele>538.1</ele>
        <time>2023-02-19T08:00:07Z</time>
      </trkpt>
      <trkpt lat="45.69555" lon="4.34283">
        <ele>538.1</ele>
        <time>2023-02-19T08:00:09Z</time>
      </trkpt>
      <trkpt lat="45.69556" lon="4.34282">
        <ele>538.1</ele>
        <time>2023-02-19T08:00:10Z</time>
      </trkpt>
      <trkpt lat="45.69557" lon="4.3428">
        <ele>538.1</ele>
        <time>2023-02-19T08:00:11Z</time>
      </trkpt>
      <trkpt lat="45.69558" lon="4.34279">
        <ele>538.1</ele>
        <time>2023-02-19T08:00:12Z</time>
      </trkpt>
      <trkpt lat="45.69559" lon="4.34277">
        <ele>538.2</ele>
        <time>2023-02-19T08:00:13Z</time>
      </trkpt>
      <trkpt lat="45.69561" lon="4.34275">
        <ele>538.2</ele>
        <time>2023-02-19T08:00:14Z</time>
      </trkpt>
      <trkpt lat="45.69562" lon="4.34274">
        <ele>538.2</ele>
        <time>2023-02-19T08:00:16Z</time>
      </trkpt>
      <trkpt lat="45.69563" lon="4.34273">
        <ele>538.2</ele>
        <time>2023-02-19T08:00:17Z</time>
      </trkpt>
      <trkpt lat="45.69564" lon="4.34273">
        <ele>538.2</ele>
        <time>2023-02-19T08:00:18Z</time>
      </trkpt>
      <trkpt lat="45.69565" lon="4.34272">
        <ele>538.2</ele>
        <time>2023-02-19T08:00:19Z</time>
      </trkpt>
      <trkpt lat="45.69565" lon="4.34271">
        <ele>538.2</ele>
        <time>2023-02-19T08:00:20Z</time>
      </trkpt>
      <trkpt lat="45.69566" lon="4.3427">
        <ele>538.3</ele>
        <time>2023-02-19T08:00:21Z</time>
      </trkpt>
      <trkpt lat="45.69567" lon="4.34269">
        <ele>538.3</ele>
        <time>2023-02-19T08:00:22Z</time>
      </trkpt>
      <trkpt lat="45.69569" lon="4.34267">
        <ele>538.3</ele>
        <time>2023-02-19T08:00:23Z</time>
      </trkpt>
      <trkpt lat="45.6957" lon="4.34267">
        <ele>538.3</ele>
        <time>2023-02-19T08:00:24Z</time>
      </trkpt>
      <trkpt lat="45.69571" lon="4.34266">
        <ele>538.3</ele>
        <time>2023-02-19T08:00:25Z</time>
      </trkpt>
      <trkpt lat="45.69572" lon="4.34265">
        <ele>538.4</ele>
        <time>2023-02-19T08:00:27Z</time>
      </trkpt>
      <trkpt lat="45.69573" lon="4.34265">
        <ele>538.4</ele>
        <time>2023-02-19T08:00:28Z</time>
      </trkpt>
      <trkpt lat="45.69575" lon="4.34264">
        <ele>538.5</ele>
        <time>2023-02-19T08:00:29Z</time>
      </trkpt>
      <trkpt lat="45.69577" lon="4.34263">
        <ele>538.5</ele>
        <time>2023-02-19T08:00:31Z</time>
      </trkpt>
      <trkpt lat="45.69579" lon="4.34262">
        <ele>538.6</ele>
        <time>2023-02-19T08:00:32Z</time>
      </trkpt>
      <trkpt lat="45.6958" lon="4.34261">
        <ele>538.6</ele>
        <time>2023-02-19T08:00:33Z</time>
      </trkpt>
      <trkpt lat="45.69581" lon="4.34261">
        <ele>538.6</ele>
        <time>2023-02-19T08:00:34Z</time>
      </trkpt>
      <trkpt lat="45.69582" lon="4.34259">
        <ele>538.7</ele>
        <time>2023-02-19T08:00:35Z</time>
      </trkpt>
      <trkpt lat="45.69583" lon="4.34258">
        <ele>538.7</ele>
        <time>2023-02-19T08:00:36Z</time>
      </trkpt>
      <trkpt lat="45.69584" lon="4.34256">
        <ele>538.8</ele>
        <time>2023-02-19T08:00:37Z</time>
      </trkpt>
      <trkpt lat="45.69585" lon="4.34255">
        <ele>538.9</ele>
        <time>2023-02-19T08:00:38Z</time>
      </trkpt>
      <trkpt lat="45.69586" lon="4.34253">
        <ele>538.9</ele>
        <time>2023-02-19T08:00:40Z</time>
      </trkpt>
      <trkpt lat="45.69587" lon="4.34251">
        <ele>539</ele>
        <time>2023-02-19T08:00:41Z</time>
      </trkpt>
      <trkpt lat="45.69589" lon="4.34249">
        <ele>539.1</ele>
        <time>2023-02-19T08:00:42Z</time>
      </trkpt>
      <trkpt lat="45.69589" lon="4.34248">
        <ele>539.2</ele>
        <time>2023-02-19T08:00:43Z</time>
      </trkpt>
      <trkpt lat="45.6959" lon="4.34246">
        <ele>539.2</ele>
        <time>2023-02-19T08:00:44Z</time>
      </trkpt>
      <trkpt lat="45.69591" lon="4.34245">
        <ele>539.3</ele>
        <time>2023-02-19T08:00:45Z</time>
      </trkpt>
      <trkpt lat="45.69591" lon="4.34243">
        <ele>539.4</ele>
        <time>2023-02-19T08:00:46Z</time>
      </trkpt>
      <trkpt lat="45.69592" lon="4.34242">
        <ele>539.5</ele>
        <time>2023-02-19T08:00:47Z</time>
      </trkpt>
      <trkpt lat="45.69593" lon="4.3424">
        <ele>539.6</ele>
        <time>2023-02-19T08:00:48Z</time>
      </trkpt>
      <trkpt lat="45.69595" lon="4.34238">
        <ele>539.7</ele>
        <time>2023-02-19T08:00:50Z</time>
      </trkpt>
      <trkpt lat="45.69596" lon="4.34238">
        <ele>539.8</ele>
        <time>2023-02-19T08:00:51Z</time>
      </trkpt>
      <trkpt lat="45.69597" lon="4.34237">
        <ele>539.9</ele>
        <time>2023-02-19T08:00:52Z</time>
      </trkpt>
      <trkpt lat="45.69599" lon="4.34237">
        <ele>540</ele>
        <time>2023-02-19T08:00:54Z</time>
      </trkpt>
      <trkpt lat="45.696" lon="4.34236">
        <ele>540.1</ele>
        <time>2023-02-19T08:00:55Z</time>
      </trkpt>
      <trkpt lat="45.69602" lon="4.34237">
        <ele>540.2</ele>
        <time>2023-02-19T08:00:56Z</time>
      </trkpt>
      <trkpt lat="45.69603" lon="4.34238">
        <ele>540.4</ele>
        <time>2023-02-19T08:00:57Z</time>
      </trkpt>
      <trkpt lat="45.69604" lon="4.34238">
        <ele>540.5</ele>
        <time>2023-02-19T08:00:58Z</time>
      </trkpt>
      <trkpt lat="45.69605" lon="4.34238">
        <ele>540.5</ele>
        <time>2023-02-19T08:00:59Z</time>
      </trkpt>
      <trkpt lat="45.69606" lon="4.34238">
        <ele>540.6</ele>
        <time>2023-02-19T08:01:00Z</time>
      </trkpt>
      <trkpt lat="45.69606" lon="4.34238">
        <ele>540.7</ele>
        <time>2023-02-19T08:01:02Z</time>
      </trkpt>
      <trkpt lat="45.69607" lon="4.34238">
        <ele>540.7</ele>
        <time>2023-02-19T08:01:03Z</time>
      </trkpt>
      <trkpt lat="45.69608" lon="4.34237">
        <ele>540.8</ele>
        <time>2023-02-19T08:01:04Z</time>
      </trkpt>
      <trkpt lat="45.69609" lon="4.34237">
        <ele>540.9</ele>
        <time>2023-02-19T08:01:05Z</time>
      </trkpt>
      <trkpt lat="45.6961" lon="4.34236">
        <ele>541</ele>
        <time>2023-02-19T08:01:06Z</time>
      </trkpt>
      <trkpt lat="45.69611" lon="4.34235">
        <ele>541.1</ele>
        <time>2023-02-19T08:01:07Z</time>
      </trkpt>
      <trkpt lat="45.69612" lon="4.34233">
        <ele>541.3</ele>
        <time>2023-02-19T08:01:09Z</time>
      </trkpt>
      <trkpt lat="45.69613" lon="4.34231">
        <ele>541.4</ele>
        <time>2023-02-19T08:01:10Z</time>
      </trkpt>
      <trkpt lat="45.69614" lon="4.34229">
        <ele>541.6</ele>
        <time>2023-02-19T08:01:11Z</time>
      </trkpt>
      <trkpt lat="45.69614" lon="4.34228">
        <ele>541.7</ele>
        <time>2023-02-19T08:01:12Z</time>
      </trkpt>
      <trkpt lat="45.69615" lon="4.34227">
        <ele>541.7</ele>
        <time>2023-02-19T08:01:13Z</time>
      </trkpt>
      <trkpt lat="45.69615" lon="4.34224">
        <ele>541.9</ele>
        <time>2023-02-19T08:01:14Z</time>
      </trkpt>
      <trkpt lat="45.69616" lon="4.34223">
        <ele>542</ele>
        <time>2023-02-19T08:01:15Z</time>
      </trkpt>
      <trkpt lat="45.69616" lon="4.34221">
        <ele>542.1</ele>
        <time>2023-02-19T08:01:16Z</time>
      </trkpt>
      <trkpt lat="45.69616" lon="4.34218">
        <ele>542.3</ele>
        <time>2023-02-19T08:01:17Z</time>
      </trkpt>
      <trkpt lat="45.69616" lon="4.34217">
        <ele>542.3</ele>
        <time>2023-02-19T08:01:19Z</time>
      </trkpt>
      <trkpt lat="45.69617" lon="4.34216">
        <ele>542.4</ele>
        <time>2023-02-19T08:01:20Z</time>
      </trkpt>
      <trkpt lat="45.69617" lon="4.34214">
        <ele>542.5</ele>
        <time>2023-02-19T08:01:21Z</time>
      </trkpt>
      <trkpt lat="45.69619" lon="4.34212">
        <ele>542.7</ele>
        <time>2023-02-19T08:01:23Z</time>
      </trkpt>
      <trkpt lat="45.6962" lon="4.3421">
        <ele>542.9</ele>
        <time>2023-02-19T08:01:24Z</time>
      </trkpt>
      <trkpt lat="45.69621" lon="4.34208">
        <ele>543</ele>
        <time>2023-02-19T08:01:25Z</time>
      </trkpt>
      <trkpt lat="45.69622" lon="4.34207">
        <ele>543.1</ele>
        <time>2023-02-19T08:01:26Z</time>
      </trkpt>
      <trkpt lat="45.69624" lon="4.34204">
        <ele>543.3</ele>
        <time>2023-02-19T08:01:28Z</time>
      </trkpt>
      <trkpt lat="45.69625" lon="4.34203">
        <ele>543.4</ele>
        <time>2023-02-19T08:01:29Z</time>
      </trkpt>
      <trkpt lat="45.69626" lon="4.34201">
        <ele>543.5</ele>
        <time>2023-02-19T08:01:30Z</time>
      </trkpt>
      <trkpt lat="45.69627" lon="4.34198">
        <ele>543.7</ele>
        <time>2023-02-19T08:01:31Z</time>
      </trkpt>
      <trkpt lat="45.69628" lon="4.34197">
        <ele>543.7</ele>
        <time>2023-02-19T08:01:32Z</time>
      </trkpt>
      <trkpt lat="45.69629" lon="4.34193">
        <ele>543.9</ele>
        <time>2023-02-19T08:01:33Z</time>
      </trkpt>
      <trkpt lat="45.69629" lon="4.34192">
        <ele>543.9</ele>
        <time>2023-02-19T08:01:34Z</time>
      </trkpt>
      <trkpt lat="45.6963" lon="4.34187">
        <ele>544</ele>
        <time>2023-02-19T08:01:35Z</time>
      </trkpt>
      <trkpt lat="45.6963" lon="4.34186">
        <ele>544.1</ele>
        <time>2023-02-19T08:01:36Z</time>
      </trkpt>
      <trkpt lat="45.69631" lon="4.34181">
        <ele>544.2</ele>
        <time>2023-02-19T08:01:38Z</time>
      </trkpt>
      <trkpt lat="45.69631" lon="4.3418">
        <ele>544.2</ele>
        <time>2023-02-19T08:01:39Z</time>
      </trkpt>
      <trkpt lat="45.69631" lon="4.34175">
        <ele>544.2</ele>
        <time>2023-02-19T08:01:40Z</time>
      </trkpt>
      <trkpt lat="45.69631" lon="4.34174">
        <ele>544.3</ele>
        <time>2023-02-19T08:01:41Z</time>
      </trkpt>
      <trkpt lat="45.69631" lon="4.34167">
        <ele>544.3</ele>
        <time>2023-02-19T08:01:43Z</time>
      </trkpt>
      <trkpt lat="45.69631" lon="4.34166">
        <ele>544.3</ele>
        <time>2023-02-19T08:01:44Z</time>
      </trkpt>
      <trkpt lat="45.6963" lon="4.34164">
        <ele>544.3</ele>
        <time>2023-02-19T08:01:45Z</time>
      </trkpt>
      <trkpt lat="45.6963" lon="4.34162">
        <ele>544.3</ele>
        <time>2023-02-19T08:01:46Z</time>
      </trkpt>
      <trkpt lat="45.6963" lon="4.34159">
        <ele>544.3</ele>
        <time>2023-02-19T08:01:47Z</time>
      </trkpt>
      <trkpt lat="45.69629" lon="4.34156">
        <ele>544.3</ele>
        <time>2023-02-19T08:01:49Z</time>
      </trkpt>
      <trkpt lat="45.69629" lon="4.34154">
        <ele>544.3</ele>
        <time>2023-02-19T08:01:50Z</time>
      </trkpt>
      <trkpt lat="45.69629" lon="4.34153">
        <ele>544.2</ele>
        <time>2023-02-19T08:01:51Z</time>
      </trkpt>
      <trkpt lat="45.69629" lon="4.34152">
        <ele>544.2</ele>
        <time>2023-02-19T08:01:52Z</time>
      </trkpt>
      <trkpt lat="45.69629" lon="4.34151">
        <ele>544.2</ele>
        <time>2023-02-19T08:01:53Z</time>
      </trkpt>
      <trkpt lat="45.69629" lon="4.3415">
        <ele>544.2</ele>
        <time>2023-02-19T08:01:55Z</time>
      </trkpt>
      <trkpt lat="45.69629" lon="4.34148">
        <ele>544.2</ele>
        <time>2023-02-19T08:01:56Z</time>
      </trkpt>
      <trkpt lat="45.69629" lon="4.34147">
        <ele>544.2</ele>
        <time>2023-02-19T08:01:57Z</time>
      </trkpt>
      <trkpt lat="45.69629" lon="4.34146">
        <ele>544.2</ele>
        <time>2023-02-19T08:01:58Z</time>
      </trkpt>
      <trkpt lat="45.69629" lon="4.34145">
        <ele>543.7</ele>
        <time>2023-02-19T08:01:59Z</time>
      </trkpt>
      <trkpt lat="45.69628" lon="4.34144">
        <ele>543.7</ele>
        <time>2023-02-19T08:02:00Z</time>
      </trkpt>
      <trkpt lat="45.69628" lon="4.34142">
        <ele>543.6</ele>
        <time>2023-02-19T08:02:01Z</time>
      </trkpt>
      <trkpt lat="45.69628" lon="4.34142">
        <ele>543.6</ele>
        <time>2023-02-19T08:02:02Z</time>
      </trkpt>
      <trkpt lat="45.69626" lon="4.34142">
        <ele>543.6</ele>
        <time>2023-02-19T08:02:04Z</time>
      </trkpt>
      <trkpt lat="45.69625" lon="4.34142">
        <ele>543.6</ele>
        <time>2023-02-19T08:02:05Z</time>
      </trkpt>
      <trkpt lat="45.69625" lon="4.34142">
        <ele>543.6</ele>
        <time>2023-02-19T08:02:06Z</time>
      </trkpt>
      <trkpt lat="45.69624" lon="4.34141">
        <ele>543.6</ele>
        <time>2023-02-19T08:02:07Z</time>
      </trkpt>
      <trkpt lat="45.69623" lon="4.3414">
        <ele>543.5</ele>
        <time>2023-02-19T08:02:08Z</time>
      </trkpt>
      <trkpt lat="45.69622" lon="4.34139">
        <ele>543.5</ele>
        <time>2023-02-19T08:02:09Z</time>
      </trkpt>
      <trkpt lat="45.69621" lon="4.34138">
        <ele>543.5</ele>
        <time>2023-02-19T08:02:10Z</time>
      </trkpt>
      <trkpt lat="45.69621" lon="4.34136">
        <ele>543.5</ele>
        <time>2023-02-19T08:02:11Z</time>
      </trkpt>
      <trkpt lat="45.6962" lon="4.34135">
        <ele>543.4</ele>
        <time>2023-02-19T08:02:13Z</time>
      </trkpt>
      <trkpt lat="45.6962" lon="4.34133">
        <ele>543.4</ele>
        <time>2023-02-19T08:02:14Z</time>
      </trkpt>
      <trkpt lat="45.69619" lon="4.34132">
        <ele>543.4</ele>
        <time>2023-02-19T08:02:15Z</time>
      </trkpt>
      <trkpt lat="45.69619" lon="4.34131">
        <ele>543.4</ele>
        <time>2023-02-19T08:02:16Z</time>
      </trkpt>
      <trkpt lat="45.69618" lon="4.34129">
        <ele>543.3</ele>
        <time>2023-02-19T08:02:17Z</time>
      </trkpt>
      <trkpt lat="45.69617" lon="4.34126">
        <ele>543.3</ele>
        <time>2023-02-19T08:02:19Z</time>
      </trkpt>
      <trkpt lat="45.69616" lon="4.34124">
        <ele>543.3</ele>
        <time>2023-02-19T08:02:20Z</time>
      </trkpt>
      <trkpt lat="45.69615" lon="4.34122">
        <ele>543.2</ele>
        <time>2023-02-19T08:02:21Z</time>
      </trkpt>
      <trkpt lat="45.69615" lon="4.34121">
        <ele>543.2</ele>
        <time>2023-02-19T08:02:22Z</time>
      </trkpt>
      <trkpt lat="45.69615" lon="4.34119">
        <ele>543.2</ele>
        <time>2023-02-19T08:02:24Z</time>
      </trkpt>
      <trkpt lat="45.69614" lon="4.34118">
        <ele>543.2</ele>
        <time>2023-02-19T08:02:25Z</time>
      </trkpt>
      <trkpt lat="45.69614" lon="4.34117">
        <ele>543.1</ele>
        <time>2023-02-19T08:02:26Z</time>
      </trkpt>
      <trkpt lat="45.69614" lon="4.34116">
        <ele>543.1</ele>
        <time>2023-02-19T08:02:27Z</time>
      </trkpt>
      <trkpt lat="45.69615" lon="4.34114">
        <ele>543.1</ele>
        <time>2023-02-19T08:02:28Z</time>
      </trkpt>
      <trkpt lat="45.69615" lon="4.34113">
        <ele>543.1</ele>
        <time>2023-02-19T08:02:29Z</time>
      </trkpt>
      <trkpt lat="45.69615" lon="4.34111">
        <ele>543.1</ele>
        <time>2023-02-19T08:02:30Z</time>
      </trkpt>
      <trkpt lat="45.69615" lon="4.34108">
        <ele>543</ele>
        <time>2023-02-19T08:02:32Z</time>
      </trkpt>
      <trkpt lat="45.69615" lon="4.34106">
        <ele>543</ele>
        <time>2023-02-19T08:02:33Z</time>
      </trkpt>
      <trkpt lat="45.69615" lon="4.34104">
        <ele>543</ele>
        <time>2023-02-19T08:02:34Z</time>
      </trkpt>
      <trkpt lat="45.69615" lon="4.34102">
        <ele>542.9</ele>
        <time>2023-02-19T08:02:35Z</time>
      </trkpt>
      <trkpt lat="45.69615" lon="4.341">
        <ele>542.9</ele>
        <time>2023-02-19T08:02:36Z</time>
      </trkpt>
      <trkpt lat="45.69615" lon="4.34097">
        <ele>542.9</ele>
        <time>2023-02-19T08:02:37Z</time>
      </trkpt>
      <trkpt lat="45.69615" lon="4.34095">
        <ele>542.9</ele>
        <time>2023-02-19T08:02:38Z</time>
      </trkpt>
      <trkpt lat="45.69615" lon="4.34093">
        <ele>542.8</ele>
        <time>2023-02-19T08:02:39Z</time>
      </trkpt>
      <trkpt lat="45.69615" lon="4.34089">
        <ele>542.8</ele>
        <time>2023-02-19T08:02:41Z</time>
      </trkpt>
      <trkpt lat="45.69615" lon="4.34086">
        <ele>542.8</ele>
        <time>2023-02-19T08:02:42Z</time>
      </trkpt>
      <trkpt lat="45.69615" lon="4.34084">
        <ele>542.6</ele>
        <time>2023-02-19T08:02:43Z</time>
      </trkpt>
      <trkpt lat="45.69616" lon="4.34082">
        <ele>542.6</ele>
        <time>2023-02-19T08:02:44Z</time>
      </trkpt>
      <trkpt lat="45.69615" lon="4.34079">
        <ele>542.5</ele>
        <time>2023-02-19T08:02:45Z</time>
      </trkpt>
      <trkpt lat="45.69615" lon="4.34075">
        <ele>542.4</ele>
        <time>2023-02-19T08:02:46Z</time>
      </trkpt>
      <trkpt lat="45.69615" lon="4.34074">
        <ele>542.4</ele>
        <time>2023-02-19T08:02:47Z</time>
      </trkpt>
      <trkpt lat="45.69615" lon="4.34072">
        <ele>542.3</ele>
        <time>2023-02-19T08:02:48Z</time>
      </trkpt>
      <trkpt lat="45.69615" lon="4.34068">
        <ele>542.2</ele>
        <time>2023-02-19T08:02:50Z</time>
      </trkpt>
      <trkpt lat="45.69615" lon="4.34066">
        <ele>542.2</ele>
        <time>2023-02-19T08:02:51Z</time>
      </trkpt>
      <trkpt lat="45.69614" lon="4.34063">
        <ele>542.1</ele>
        <time>2023-02-19T08:02:52Z</time>
      </trkpt>
      <trkpt lat="45.69614" lon="4.34061">
        <ele>542</ele>
        <time>2023-02-19T08:02:54Z</time>
      </trkpt>
      <trkpt lat="45.69613" lon="4.34059">
        <ele>542</ele>
        <time>2023-02-19T08:02:55Z</time>
      </trkpt>
      <trkpt lat="45.69613" lon="4.34056">
        <ele>541.9</ele>
        <time>2023-02-19T08:02:56Z</time>
      </trkpt>
      <trkpt lat="45.69612" lon="4.34054">
        <ele>541.9</ele>
        <time>2023-02-19T08:02:57Z</time>
      </trkpt>
      <trkpt lat="45.69612" lon="4.34052">
        <ele>541.8</ele>
        <time>2023-02-19T08:02:58Z</time>
      </trkpt>
      <trkpt lat="45.69611" lon="4.34049">
        <ele>541.8</ele>
        <time>2023-02-19T08:02:59Z</time>
      </trkpt>
      <trkpt lat="45.6961" lon="4.34045">
        <ele>541.7</ele>
        <time>2023-02-19T08:03:00Z</time>
      </trkpt>
      <trkpt lat="45.6961" lon="4.34044">
        <ele>541.7</ele>
        <time>2023-02-19T08:03:01Z</time>
      </trkpt>
      <trkpt lat="45.6961" lon="4.34041">
        <ele>541.6</ele>
        <time>2023-02-19T08:03:02Z</time>
      </trkpt>
      <trkpt lat="45.69609" lon="4.34037">
        <ele>541.5</ele>
        <time>2023-02-19T08:03:04Z</time>
      </trkpt>
      <trkpt lat="45.69609" lon="4.34034">
        <ele>541.5</ele>
        <time>2023-02-19T08:03:05Z</time>
      </trkpt>
      <trkpt lat="45.69609" lon="4.34032">
        <ele>541.4</ele>
        <time>2023-02-19T08:03:06Z</time>
      </trkpt>
      <trkpt lat="45.69609" lon="4.34029">
        <ele>541.4</ele>
        <time>2023-02-19T08:03:07Z</time>
      </trkpt>
      <trkpt lat="45.69609" lon="4.34027">
        <ele>541.4</ele>
        <time>2023-02-19T08:03:08Z</time>
      </trkpt>
      <trkpt lat="45.69609" lon="4.34025">
        <ele>541.3</ele>
        <time>2023-02-19T08:03:09Z</time>
      </trkpt>
      <trkpt lat="45.6961" lon="4.34024">
        <ele>541.3</ele>
        <time>2023-02-19T08:03:10Z</time>
      </trkpt>
      <trkpt lat="45.6961" lon="4.34021">
        <ele>541.3</ele>
        <time>2023-02-19T08:03:11Z</time>
      </trkpt>
      <trkpt lat="45.6961" lon="4.34019">
        <ele>541.2</ele>
        <time>2023-02-19T08:03:12Z</time>
      </trkpt>
      <trkpt lat="45.69611" lon="4.34017">
        <ele>541.2</ele>
        <time>2023-02-19T08:03:14Z</time>
      </trkpt>
      <trkpt lat="45.69611" lon="4.34015">
        <ele>541.1</ele>
        <time>2023-02-19T08:03:15Z</time>
      </trkpt>
      <trkpt lat="45.69611" lon="4.34012">
        <ele>541.1</ele>
        <time>2023-02-19T08:03:17Z</time>
      </trkpt>
      <trkpt lat="45.69612" lon="4.3401">
        <ele>541</ele>
        <time>2023-02-19T08:03:18Z</time>
      </trkpt>
      <trkpt lat="45.69612" lon="4.34008">
        <ele>541</ele>
        <time>2023-02-19T08:03:19Z</time>
      </trkpt>
      <trkpt lat="45.69612" lon="4.34005">
        <ele>540.9</ele>
        <time>2023-02-19T08:03:20Z</time>
      </trkpt>
      <trkpt lat="45.69612" lon="4.34002">
        <ele>540.9</ele>
        <time>2023-02-19T08:03:21Z</time>
      </trkpt>
      <trkpt lat="45.69613" lon="4.33998">
        <ele>540.8</ele>
        <time>2023-02-19T08:03:23Z</time>
      </trkpt>
      <trkpt lat="45.69612" lon="4.33995">
        <ele>540.7</ele>
        <time>2023-02-19T08:03:24Z</time>
      </trkpt>
      <trkpt lat="45.69612" lon="4.33992">
        <ele>540.6</ele>
        <time>2023-02-19T08:03:26Z</time>
      </trkpt>
      <trkpt lat="45.69611" lon="4.3399">
        <ele>540.5</ele>
        <time>2023-02-19T08:03:27Z</time>
      </trkpt>
      <trkpt lat="45.69611" lon="4.33988">
        <ele>540.5</ele>
        <time>2023-02-19T08:03:28Z</time>
      </trkpt>
      <trkpt lat="45.69611" lon="4.33986">
        <ele>540.4</ele>
        <time>2023-02-19T08:03:29Z</time>
      </trkpt>
      <trkpt lat="45.6961" lon="4.33984">
        <ele>540.4</ele>
        <time>2023-02-19T08:03:30Z</time>
      </trkpt>
      <trkpt lat="45.6961" lon="4.33982">
        <ele>540.3</ele>
        <time>2023-02-19T08:03:32Z</time>
      </trkpt>
      <trkpt lat="45.6961" lon="4.3398">
        <ele>540.3</ele>
        <time>2023-02-19T08:03:33Z</time>
      </trkpt>
      <trkpt lat="45.6961" lon="4.33978">
        <ele>540.2</ele>
        <time>2023-02-19T08:03:34Z</time>
      </trkpt>
      <trkpt lat="45.6961" lon="4.33975">
        <ele>540.2</ele>
        <time>2023-02-19T08:03:35Z</time>
      </trkpt>
      <trkpt lat="45.6961" lon="4.33973">
        <ele>540.1</ele>
        <time>2023-02-19T08:03:36Z</time>
      </trkpt>
      <trkpt lat="45.6961" lon="4.33971">
        <ele>540.1</ele>
        <time>2023-02-19T08:03:37Z</time>
      </trkpt>
      <trkpt lat="45.69609" lon="4.33967">
        <ele>540</ele>
        <time>2023-02-19T08:03:39Z</time>
      </trkpt>
      <trkpt lat="45.69609" lon="4.33965">
        <ele>539.9</ele>
        <time>2023-02-19T08:03:40Z</time>
      </trkpt>
      <trkpt lat="45.69609" lon="4.33963">
        <ele>539.9</ele>
        <time>2023-02-19T08:03:41Z</time>
      </trkpt>
      <trkpt lat="45.69608" lon="4.33961">
        <ele>539.8</ele>
        <time>2023-02-19T08:03:42Z</time>
      </trkpt>
      <trkpt lat="45.69608" lon="4.33959">
        <ele>539.8</ele>
        <time>2023-02-19T08:03:43Z</time>
      </trkpt>
      <trkpt lat="45.69608" lon="4.33957">
        <ele>539.7</ele>
        <time>2023-02-19T08:03:44Z</time>
      </trkpt>
      <trkpt lat="45.69608" lon="4.33955">
        <ele>539.7</ele>
        <time>2023-02-19T08:03:45Z</time>
      </trkpt>
      <trkpt lat="45.69608" lon="4.33952">
        <ele>539.6</ele>
        <time>2023-02-19T08:03:47Z</time>
      </trkpt>
      <trkpt lat="45.69607" lon="4.3395">
        <ele>539.5</ele>
        <time>2023-02-19T08:03:48Z</time>
      </trkpt>
      <trkpt lat="45.69607" lon="4.33948">
        <ele>539.5</ele>
        <time>2023-02-19T08:03:49Z</time>
      </trkpt>
      <trkpt lat="45.69607" lon="4.33946">
        <ele>539.4</ele>
        <time>2023-02-19T08:03:50Z</time>
      </trkpt>
      <trkpt lat="45.69607" lon="4.33943">
        <ele>539.3</ele>
        <time>2023-02-19T08:03:52Z</time>
      </trkpt>
      <trkpt lat="45.69607" lon="4.33941">
        <ele>539.3</ele>
        <time>2023-02-19T08:03:53Z</time>
      </trkpt>
      <trkpt lat="45.69607" lon="4.33939">
        <ele>539.2</ele>
        <time>2023-02-19T08:03:54Z</time>
      </trkpt>
      <trkpt lat="45.69607" lon="4.33936">
        <ele>539.1</ele>
        <time>2023-02-19T08:03:55Z</time>
      </trkpt>
      <trkpt lat="45.69607" lon="4.33934">
        <ele>539.1</ele>
        <time>2023-02-19T08:03:56Z</time>
      </trkpt>
      <trkpt lat="45.69607" lon="4.33932">
        <ele>539</ele>
        <time>2023-02-19T08:03:57Z</time>
      </trkpt>
      <trkpt lat="45.69607" lon="4.33929">
        <ele>538.9</ele>
        <time>2023-02-19T08:03:58Z</time>
      </trkpt>
      <trkpt lat="45.69607" lon="4.33927">
        <ele>538.9</ele>
        <time>2023-02-19T08:03:59Z</time>
      </trkpt>
      <trkpt lat="45.69607" lon="4.33925">
        <ele>538.8</ele>
        <time>2023-02-19T08:04:00Z</time>
      </trkpt>
      <trkpt lat="45.69607" lon="4.33922">
        <ele>538.8</ele>
        <time>2023-02-19T08:04:01Z</time>
      </trkpt>
      <trkpt lat="45.69607" lon="4.3392">
        <ele>538.7</ele>
        <time>2023-02-19T08:04:02Z</time>
      </trkpt>
      <trkpt lat="45.69607" lon="4.33915">
        <ele>538.6</ele>
        <time>2023-02-19T08:04:04Z</time>
      </trkpt>
      <trkpt lat="45.69607" lon="4.33914">
        <ele>538.5</ele>
        <time>2023-02-19T08:04:05Z</time>
      </trkpt>
      <trkpt lat="45.69606" lon="4.33911">
        <ele>538.5</ele>
        <time>2023-02-19T08:04:06Z</time>
      </trkpt>
      <trkpt lat="45.69606" lon="4.33909">
        <ele>538.4</ele>
        <time>2023-02-19T08:04:07Z</time>
      </trkpt>
      <trkpt lat="45.69606" lon="4.33905">
        <ele>538.3</ele>
        <time>2023-02-19T08:04:09Z</time>
      </trkpt>
      <trkpt lat="45.69605" lon="4.33904">
        <ele>538.2</ele>
        <time>2023-02-19T08:04:10Z</time>
      </trkpt>
      <trkpt lat="45.69605" lon="4.33901">
        <ele>538.2</ele>
        <time>2023-02-19T08:04:11Z</time>
      </trkpt>
      <trkpt lat="45.69605" lon="4.33898">
        <ele>538.1</ele>
        <time>2023-02-19T08:04:13Z</time>
      </trkpt>
      <trkpt lat="45.69604" lon="4.33894">
        <ele>537.9</ele>
        <time>2023-02-19T08:04:14Z</time>
      </trkpt>
      <trkpt lat="45.69604" lon="4.33893">
        <ele>537.9</ele>
        <time>2023-02-19T08:04:15Z</time>
      </trkpt>
      <trkpt lat="45.69603" lon="4.33889">
        <ele>537.7</ele>
        <time>2023-02-19T08:04:16Z</time>
      </trkpt>
      <trkpt lat="45.69603" lon="4.33887">
        <ele>537.7</ele>
        <time>2023-02-19T08:04:17Z</time>
      </trkpt>
      <trkpt lat="45.69603" lon="4.33885">
        <ele>537.6</ele>
        <time>2023-02-19T08:04:18Z</time>
      </trkpt>
      <trkpt lat="45.69603" lon="4.33883">
        <ele>537.5</ele>
        <time>2023-02-19T08:04:20Z</time>
      </trkpt>
      <trkpt lat="45.69603" lon="4.3388">
        <ele>537.4</ele>
        <time>2023-02-19T08:04:21Z</time>
      </trkpt>
      <trkpt lat="45.69603" lon="4.33878">
        <ele>537.3</ele>
        <time>2023-02-19T08:04:22Z</time>
      </trkpt>
      <trkpt lat="45.69603" lon="4.33876">
        <ele>537.2</ele>
        <time>2023-02-19T08:04:23Z</time>
      </trkpt>
      <trkpt lat="45.69603" lon="4.33874">
        <ele>537.1</ele>
        <time>2023-02-19T08:04:24Z</time>
      </trkpt>
      <trkpt lat="45.69603" lon="4.33872">
        <ele>537</ele>
        <time>2023-02-19T08:04:25Z</time>
      </trkpt>
      <trkpt lat="45.69603" lon="4.33869">
        <ele>536.9</ele>
        <time>2023-02-19T08:04:26Z</time>
      </trkpt>
      <trkpt lat="45.69604" lon="4.33865">
        <ele>536.6</ele>
        <time>2023-02-19T08:04:27Z</time>
      </trkpt>
      <trkpt lat="45.69604" lon="4.33863">
        <ele>536.5</ele>
        <time>2023-02-19T08:04:28Z</time>
      </trkpt>
      <trkpt lat="45.69604" lon="4.33861">
        <ele>536.4</ele>
        <time>2023-02-19T08:04:29Z</time>
      </trkpt>
      <trkpt lat="45.69604" lon="4.33857">
        <ele>536.2</ele>
        <time>2023-02-19T08:04:31Z</time>
      </trkpt>
      <trkpt lat="45.69604" lon="4.33854">
        <ele>536</ele>
        <time>2023-02-19T08:04:32Z</time>
      </trkpt>
      <trkpt lat="45.69604" lon="4.33852">
        <ele>535.9</ele>
        <time>2023-02-19T08:04:33Z</time>
      </trkpt>
      <trkpt lat="45.69604" lon="4.33849">
        <ele>535.8</ele>
        <time>2023-02-19T08:04:34Z</time>
      </trkpt>
      <trkpt lat="45.69604" lon="4.33846">
        <ele>535.6</ele>
        <time>2023-02-19T08:04:36Z</time>
      </trkpt>
      <trkpt lat="45.69603" lon="4.33843">
        <ele>535.5</ele>
        <time>2023-02-19T08:04:37Z</time>
      </trkpt>
      <trkpt lat="45.69603" lon="4.33841">
        <ele>535.4</ele>
        <time>2023-02-19T08:04:38Z</time>
      </trkpt>
      <trkpt lat="45.69603" lon="4.33839">
        <ele>535.3</ele>
        <time>2023-02-19T08:04:39Z</time>
      </trkpt>
      <trkpt lat="45.69603" lon="4.33837">
        <ele>535.2</ele>
        <time>2023-02-19T08:04:40Z</time>
      </trkpt>
      <trkpt lat="45.69603" lon="4.33836">
        <ele>535.1</ele>
        <time>2023-02-19T08:04:41Z</time>
      </trkpt>
      <trkpt lat="45.69603" lon="4.33834">
        <ele>535</ele>
        <time>2023-02-19T08:04:43Z</time>
      </trkpt>
      <trkpt lat="45.69603" lon="4.33833">
        <ele>535</ele>
        <time>2023-02-19T08:04:44Z</time>
      </trkpt>
      <trkpt lat="45.69603" lon="4.33832">
        <ele>534.9</ele>
        <time>2023-02-19T08:04:45Z</time>
      </trkpt>
      <trkpt lat="45.69603" lon="4.3383">
        <ele>534.9</ele>
        <time>2023-02-19T08:04:46Z</time>
      </trkpt>
      <trkpt lat="45.69603" lon="4.33829">
        <ele>534.8</ele>
        <time>2023-02-19T08:04:47Z</time>
      </trkpt>
      <trkpt lat="45.69603" lon="4.33828">
        <ele>534.8</ele>
        <time>2023-02-19T08:04:48Z</time>
      </trkpt>
      <trkpt lat="45.69603" lon="4.33827">
        <ele>534.7</ele>
        <time>2023-02-19T08:04:49Z</time>
      </trkpt>
      <trkpt lat="45.69602" lon="4.33824">
        <ele>534.6</ele>
        <time>2023-02-19T08:04:51Z</time>
      </trkpt>
      <trkpt lat="45.69602" lon="4.33823">
        <ele>534.5</ele>
        <time>2023-02-19T08:04:52Z</time>
      </trkpt>
      <trkpt lat="45.69602" lon="4.33821">
        <ele>534.5</ele>
        <time>2023-02-19T08:04:53Z</time>
      </trkpt>
      <trkpt lat="45.69602" lon="4.33819">
        <ele>534.4</ele>
        <time>2023-02-19T08:04:54Z</time>
      </trkpt>
      <trkpt lat="45.69602" lon="4.33817">
        <ele>534.3</ele>
        <time>2023-02-19T08:04:56Z</time>
      </trkpt>
      <trkpt lat="45.69601" lon="4.33813">
        <ele>534.2</ele>
        <time>2023-02-19T08:04:57Z</time>
      </trkpt>
      <trkpt lat="45.69601" lon="4.33812">
        <ele>534.1</ele>
        <time>2023-02-19T08:04:58Z</time>
      </trkpt>
      <trkpt lat="45.69601" lon="4.33811">
        <ele>534.1</ele>
        <time>2023-02-19T08:04:59Z</time>
      </trkpt>
      <trkpt lat="45.69601" lon="4.33806">
        <ele>533.9</ele>
        <time>2023-02-19T08:05:01Z</time>
      </trkpt>
      <trkpt lat="45.69601" lon="4.33805">
        <ele>533.9</ele>
        <time>2023-02-19T08:05:02Z</time>
      </trkpt>
      <trkpt lat="45.69601" lon="4.33802">
        <ele>533.8</ele>
        <time>2023-02-19T08:05:03Z</time>
      </trkpt>
      <trkpt lat="45.69601" lon="4.338">
        <ele>533.7</ele>
        <time>2023-02-19T08:05:04Z</time>
      </trkpt>
      <trkpt lat="45.69601" lon="4.33797">
        <ele>533.6</ele>
        <time>2023-02-19T08:05:05Z</time>
      </trkpt>
      <trkpt lat="45.69601" lon="4.33795">
        <ele>533.5</ele>
        <time>2023-02-19T08:05:06Z</time>
      </trkpt>
      <trkpt lat="45.696" lon="4.33792">
        <ele>533.4</ele>
        <time>2023-02-19T08:05:07Z</time>
      </trkpt>
      <trkpt lat="45.696" lon="4.33788">
        <ele>533.3</ele>
        <time>2023-02-19T08:05:09Z</time>
      </trkpt>
      <trkpt lat="45.696" lon="4.33784">
        <ele>533.2</ele>
        <time>2023-02-19T08:05:10Z</time>
      </trkpt>
      <trkpt lat="45.696" lon="4.33782">
        <ele>533.1</ele>
        <time>2023-02-19T08:05:12Z</time>
      </trkpt>
      <trkpt lat="45.69601" lon="4.33778">
        <ele>533</ele>
        <time>2023-02-19T08:05:13Z</time>
      </trkpt>
      <trkpt lat="45.69601" lon="4.33776">
        <ele>533</ele>
        <time>2023-02-19T08:05:14Z</time>
      </trkpt>
      <trkpt lat="45.69601" lon="4.33772">
        <ele>532.8</ele>
        <time>2023-02-19T08:05:15Z</time>
      </trkpt>
      <trkpt lat="45.69601" lon="4.33771">
        <ele>532.8</ele>
        <time>2023-02-19T08:05:16Z</time>
      </trkpt>
      <trkpt lat="45.69601" lon="4.33768">
        <ele>532.7</ele>
        <time>2023-02-19T08:05:17Z</time>
      </trkpt>
      <trkpt lat="45.69601" lon="4.33766">
        <ele>532.6</ele>
        <time>2023-02-19T08:05:18Z</time>
      </trkpt>
      <trkpt lat="45.69601" lon="4.33763">
        <ele>532.5</ele>
        <time>2023-02-19T08:05:20Z</time>
      </trkpt>
      <trkpt lat="45.69601" lon="4.33762">
        <ele>532.3</ele>
        <time>2023-02-19T08:05:21Z</time>
      </trkpt>
      <trkpt lat="45.69601" lon="4.3376">
        <ele>532.3</ele>
        <time>2023-02-19T08:05:22Z</time>
      </trkpt>
      <trkpt lat="45.69602" lon="4.33758">
        <ele>532.2</ele>
        <time>2023-02-19T08:05:23Z</time>
      </trkpt>
      <trkpt lat="45.69603" lon="4.33755">
        <ele>532.1</ele>
        <time>2023-02-19T08:05:25Z</time>
      </trkpt>
      <trkpt lat="45.69604" lon="4.33753">
        <ele>532</ele>
        <time>2023-02-19T08:05:26Z</time>
      </trkpt>
      <trkpt lat="45.69604" lon="4.33751">
        <ele>531.9</ele>
        <time>2023-02-19T08:05:27Z</time>
      </trkpt>
      <trkpt lat="45.69605" lon="4.33749">
        <ele>531.8</ele>
        <time>2023-02-19T08:05:28Z</time>
      </trkpt>
      <trkpt lat="45.69605" lon="4.33747">
        <ele>531.7</ele>
        <time>2023-02-19T08:05:29Z</time>
      </trkpt>
      <trkpt lat="45.69605" lon="4.33745">
        <ele>531.6</ele>
        <time>2023-02-19T08:05:30Z</time>
      </trkpt>
      <trkpt lat="45.69605" lon="4.33744">
        <ele>531.6</ele>
        <time>2023-02-19T08:05:31Z</time>
      </trkpt>
      <trkpt lat="45.69605" lon="4.33741">
        <ele>531.5</ele>
        <time>2023-02-19T08:05:33Z</time>
      </trkpt>
      <trkpt lat="45.69605" lon="4.33739">
        <ele>531.4</ele>
        <time>2023-02-19T08:05:34Z</time>
      </trkpt>
      <trkpt lat="45.69605" lon="4.33737">
        <ele>531.3</ele>
        <time>2023-02-19T08:05:35Z</time>
      </trkpt>
      <trkpt lat="45.69605" lon="4.33735">
        <ele>531.2</ele>
        <time>2023-02-19T08:05:37Z</time>
      </trkpt>
      <trkpt lat="45.69605" lon="4.33733">
        <ele>531.1</ele>
        <time>2023-02-19T08:05:38Z</time>
      </trkpt>
      <trkpt lat="45.69606" lon="4.33732">
        <ele>531</ele>
        <time>2023-02-19T08:05:39Z</time>
      </trkpt>
      <trkpt lat="45.69607" lon="4.3373">
        <ele>530.9</ele>
        <time>2023-02-19T08:05:40Z</time>
      </trkpt>
      <trkpt lat="45.69608" lon="4.33728">
        <ele>530.8</ele>
        <time>2023-02-19T08:05:41Z</time>
      </trkpt>
      <trkpt lat="45.69609" lon="4.33726">
        <ele>530.7</ele>
        <time>2023-02-19T08:05:42Z</time>
      </trkpt>
      <trkpt lat="45.6961" lon="4.33725">
        <ele>530.6</ele>
        <time>2023-02-19T08:05:43Z</time>
      </trkpt>
      <trkpt lat="45.69611" lon="4.33722">
        <ele>530.5</ele>
        <time>2023-02-19T08:05:44Z</time>
      </trkpt>
      <trkpt lat="45.69612" lon="4.33722">
        <ele>530.5</ele>
        <time>2023-02-19T08:05:45Z</time>
      </trkpt>
      <trkpt lat="45.69613" lon="4.33721">
        <ele>530.4</ele>
        <time>2023-02-19T08:05:46Z</time>
      </trkpt>
      <trkpt lat="45.69614" lon="4.3372">
        <ele>530.3</ele>
        <time>2023-02-19T08:05:47Z</time>
      </trkpt>
      <trkpt lat="45.69615" lon="4.33717">
        <ele>530.2</ele>
        <time>2023-02-19T08:05:49Z</time>
      </trkpt>
      <trkpt lat="45.69616" lon="4.33716">
        <ele>530.1</ele>
        <time>2023-02-19T08:05:50Z</time>
      </trkpt>
      <trkpt lat="45.69617" lon="4.33714">
        <ele>530</ele>
        <time>2023-02-19T08:05:51Z</time>
      </trkpt>
      <trkpt lat="45.69618" lon="4.33713">
        <ele>530</ele>
        <time>2023-02-19T08:05:52Z</time>
      </trkpt>
      <trkpt lat="45.69619" lon="4.33711">
        <ele>529.9</ele>
        <time>2023-02-19T08:05:53Z</time>
      </trkpt>
      <trkpt lat="45.69619" lon="4.33709">
        <ele>529.8</ele>
        <time>2023-02-19T08:05:54Z</time>
      </trkpt>
      <trkpt lat="45.69621" lon="4.33707">
        <ele>529.7</ele>
        <time>2023-02-19T08:05:56Z</time>
      </trkpt>
      <trkpt lat="45.69621" lon="4.33705">
        <ele>529.6</ele>
        <time>2023-02-19T08:05:57Z</time>
      </trkpt>
      <trkpt lat="45.69622" lon="4.33702">
        <ele>529.5</ele>
        <time>2023-02-19T08:05:58Z</time>
      </trkpt>
      <trkpt lat="45.69622" lon="4.337">
        <ele>529.5</ele>
        <time>2023-02-19T08:05:59Z</time>
      </trkpt>
      <trkpt lat="45.69623" lon="4.33697">
        <ele>529.4</ele>
        <time>2023-02-19T08:06:01Z</time>
      </trkpt>
      <trkpt lat="45.69624" lon="4.33694">
        <ele>529.3</ele>
        <time>2023-02-19T08:06:02Z</time>
      </trkpt>
      <trkpt lat="45.69625" lon="4.33692">
        <ele>529.2</ele>
        <time>2023-02-19T08:06:04Z</time>
      </trkpt>
      <trkpt lat="45.69626" lon="4.33691">
        <ele>529.1</ele>
        <time>2023-02-19T08:06:05Z</time>
      </trkpt>
      <trkpt lat="45.69627" lon="4.33689">
        <ele>529.1</ele>
        <time>2023-02-19T08:06:06Z</time>
      </trkpt>
      <trkpt lat="45.69628" lon="4.33687">
        <ele>529</ele>
        <time>2023-02-19T08:06:07Z</time>
      </trkpt>
      <trkpt lat="45.69629" lon="4.33685">
        <ele>528.9</ele>
        <time>2023-02-19T08:06:08Z</time>
      </trkpt>
      <trkpt lat="45.6963" lon="4.33684">
        <ele>528.9</ele>
        <time>2023-02-19T08:06:09Z</time>
      </trkpt>
      <trkpt lat="45.69631" lon="4.33682">
        <ele>528.8</ele>
        <time>2023-02-19T08:06:10Z</time>
      </trkpt>
      <trkpt lat="45.69632" lon="4.3368">
        <ele>528.8</ele>
        <time>2023-02-19T08:06:11Z</time>
      </trkpt>
      <trkpt lat="45.69633" lon="4.33679">
        <ele>528.7</ele>
        <time>2023-02-19T08:06:12Z</time>
      </trkpt>
      <trkpt lat="45.69634" lon="4.33677">
        <ele>528.7</ele>
        <time>2023-02-19T08:06:13Z</time>
      </trkpt>
      <trkpt lat="45.69635" lon="4.33674">
        <ele>528.6</ele>
        <time>2023-02-19T08:06:15Z</time>
      </trkpt>
      <trkpt lat="45.69636" lon="4.33672">
        <ele>528.5</ele>
        <time>2023-02-19T08:06:16Z</time>
      </trkpt>
      <trkpt lat="45.69637" lon="4.3367">
        <ele>528.4</ele>
        <time>2023-02-19T08:06:17Z</time>
      </trkpt>
      <trkpt lat="45.69638" lon="4.33668">
        <ele>528.4</ele>
        <time>2023-02-19T08:06:18Z</time>
      </trkpt>
      <trkpt lat="45.69639" lon="4.33666">
        <ele>528.3</ele>
        <time>2023-02-19T08:06:19Z</time>
      </trkpt>
      <trkpt lat="45.6964" lon="4.33664">
        <ele>528.3</ele>
        <time>2023-02-19T08:06:20Z</time>
      </trkpt>
      <trkpt lat="45.69642" lon="4.3366">
        <ele>528.2</ele>
        <time>2023-02-19T08:06:22Z</time>
      </trkpt>
      <trkpt lat="45.69643" lon="4.33658">
        <ele>528.1</ele>
        <time>2023-02-19T08:06:23Z</time>
      </trkpt>
      <trkpt lat="45.69644" lon="4.33657">
        <ele>528.1</ele>
        <time>2023-02-19T08:06:24Z</time>
      </trkpt>
      <trkpt lat="45.69646" lon="4.33654">
        <ele>528</ele>
        <time>2023-02-19T08:06:25Z</time>
      </trkpt>
      <trkpt lat="45.69647" lon="4.33653">
        <ele>528</ele>
        <time>2023-02-19T08:06:26Z</time>
      </trkpt>
      <trkpt lat="45.69648" lon="4.33651">
        <ele>527.9</ele>
        <time>2023-02-19T08:06:27Z</time>
      </trkpt>
      <trkpt lat="45.69649" lon="4.3365">
        <ele>527.9</ele>
        <time>2023-02-19T08:06:29Z</time>
      </trkpt>
      <trkpt lat="45.6965" lon="4.33648">
        <ele>527.8</ele>
        <time>2023-02-19T08:06:30Z</time>
      </trkpt>
      <trkpt lat="45.69651" lon="4.33647">
        <ele>527.8</ele>
        <time>2023-02-19T08:06:31Z</time>
      </trkpt>
      <trkpt lat="45.69652" lon="4.33645">
        <ele>527.7</ele>
        <time>2023-02-19T08:06:32Z</time>
      </trkpt>
      <trkpt lat="45.69653" lon="4.33644">
        <ele>527.7</ele>
        <time>2023-02-19T08:06:33Z</time>
      </trkpt>
      <trkpt lat="45.69654" lon="4.33642">
        <ele>527.7</ele>
        <time>2023-02-19T08:06:34Z</time>
      </trkpt>
      <trkpt lat="45.69655" lon="4.3364">
        <ele>527.6</ele>
        <time>2023-02-19T08:06:35Z</time>
      </trkpt>
      <trkpt lat="45.69657" lon="4.33637">
        <ele>527.5</ele>
        <time>2023-02-19T08:06:37Z</time>
      </trkpt>
      <trkpt lat="45.69657" lon="4.33636">
        <ele>527.5</ele>
        <time>2023-02-19T08:06:38Z</time>
      </trkpt>
      <trkpt lat="45.69658" lon="4.33635">
        <ele>527.5</ele>
        <time>2023-02-19T08:06:39Z</time>
      </trkpt>
      <trkpt lat="45.69658" lon="4.33633">
        <ele>527.5</ele>
        <time>2023-02-19T08:06:40Z</time>
      </trkpt>
      <trkpt lat="45.6966" lon="4.33629">
        <ele>527.4</ele>
        <time>2023-02-19T08:06:42Z</time>
      </trkpt>
      <trkpt lat="45.6966" lon="4.33628">
        <ele>527.4</ele>
        <time>2023-02-19T08:06:43Z</time>
      </trkpt>
      <trkpt lat="45.6966" lon="4.33626">
        <ele>527.3</ele>
        <time>2023-02-19T08:06:44Z</time>
      </trkpt>
      <trkpt lat="45.6966" lon="4.33624">
        <ele>527.3</ele>
        <time>2023-02-19T08:06:45Z</time>
      </trkpt>
      <trkpt lat="45.69661" lon="4.33622">
        <ele>527.3</ele>
        <time>2023-02-19T08:06:46Z</time>
      </trkpt>
      <trkpt lat="45.69661" lon="4.33619">
        <ele>527.2</ele>
        <time>2023-02-19T08:06:48Z</time>
      </trkpt>
      <trkpt lat="45.69662" lon="4.33617">
        <ele>527.2</ele>
        <time>2023-02-19T08:06:49Z</time>
      </trkpt>
      <trkpt lat="45.69662" lon="4.33615">
        <ele>527.1</ele>
        <time>2023-02-19T08:06:50Z</time>
      </trkpt>
      <trkpt lat="45.69663" lon="4.33613">
        <ele>527.1</ele>
        <time>2023-02-19T08:06:52Z</time>
      </trkpt>
      <trkpt lat="45.69664" lon="4.33612">
        <ele>527.1</ele>
        <time>2023-02-19T08:06:53Z</time>
      </trkpt>
      <trkpt lat="45.69664" lon="4.3361">
        <ele>527</ele>
        <time>2023-02-19T08:06:54Z</time>
      </trkpt>
      <trkpt lat="45.69665" lon="4.33609">
        <ele>527</ele>
        <time>2023-02-19T08:06:55Z</time>
      </trkpt>
      <trkpt lat="45.69666" lon="4.33607">
        <ele>527</ele>
        <time>2023-02-19T08:06:56Z</time>
      </trkpt>
      <trkpt lat="45.69666" lon="4.33605">
        <ele>526.9</ele>
        <time>2023-02-19T08:06:57Z</time>
      </trkpt>
      <trkpt lat="45.69667" lon="4.33603">
        <ele>526.9</ele>
        <time>2023-02-19T08:06:58Z</time>
      </trkpt>
      <trkpt lat="45.69668" lon="4.33601">
        <ele>526.8</ele>
        <time>2023-02-19T08:06:59Z</time>
      </trkpt>
      <trkpt lat="45.6967" lon="4.33598">
        <ele>526.8</ele>
        <time>2023-02-19T08:07:01Z</time>
      </trkpt>
      <trkpt lat="45.69671" lon="4.33596">
        <ele>526.7</ele>
        <time>2023-02-19T08:07:02Z</time>
      </trkpt>
      <trkpt lat="45.69672" lon="4.33595">
        <ele>526.7</ele>
        <time>2023-02-19T08:07:03Z</time>
      </trkpt>
      <trkpt lat="45.69673" lon="4.33593">
        <ele>526.7</ele>
        <time>2023-02-19T08:07:04Z</time>
      </trkpt>
      <trkpt lat="45.69674" lon="4.33592">
        <ele>526.6</ele>
        <time>2023-02-19T08:07:05Z</time>
      </trkpt>
      <trkpt lat="45.69676" lon="4.33589">
        <ele>526.6</ele>
        <time>2023-02-19T08:07:06Z</time>
      </trkpt>
      <trkpt lat="45.69677" lon="4.33588">
        <ele>526.5</ele>
        <time>2023-02-19T08:07:08Z</time>
      </trkpt>
      <trkpt lat="45.69677" lon="4.33587">
        <ele>526.5</ele>
        <time>2023-02-19T08:07:09Z</time>
      </trkpt>
      <trkpt lat="45.69678" lon="4.33585">
        <ele>526.5</ele>
        <time>2023-02-19T08:07:10Z</time>
      </trkpt>
      <trkpt lat="45.69679" lon="4.33584">
        <ele>526.4</ele>
        <time>2023-02-19T08:07:11Z</time>
      </trkpt>
      <trkpt lat="45.6968" lon="4.33582">
        <ele>526.4</ele>
        <time>2023-02-19T08:07:12Z</time>
      </trkpt>
      <trkpt lat="45.69681" lon="4.3358">
        <ele>526.3</ele>
        <time>2023-02-19T08:07:13Z</time>
      </trkpt>
      <trkpt lat="45.69681" lon="4.33578">
        <ele>526.3</ele>
        <time>2023-02-19T08:07:15Z</time>
      </trkpt>
      <trkpt lat="45.69682" lon="4.33576">
        <ele>526.3</ele>
        <time>2023-02-19T08:07:16Z</time>
      </trkpt>
      <trkpt lat="45.69683" lon="4.33572">
        <ele>526.2</ele>
        <time>2023-02-19T08:07:17Z</time>
      </trkpt>
      <trkpt lat="45.69683" lon="4.33571">
        <ele>526.2</ele>
        <time>2023-02-19T08:07:18Z</time>
      </trkpt>
      <trkpt lat="45.69683" lon="4.33569">
        <ele>526.1</ele>
        <time>2023-02-19T08:07:19Z</time>
      </trkpt>
      <trkpt lat="45.69684" lon="4.33566">
        <ele>526.1</ele>
        <time>2023-02-19T08:07:21Z</time>
      </trkpt>
      <trkpt lat="45.69685" lon="4.33564">
        <ele>526.1</ele>
        <time>2023-02-19T08:07:22Z</time>
      </trkpt>
      <trkpt lat="45.69686" lon="4.33562">
        <ele>526</ele>
        <time>2023-02-19T08:07:23Z</time>
      </trkpt>
      <trkpt lat="45.69687" lon="4.3356">
        <ele>526</ele>
        <time>2023-02-19T08:07:24Z</time>
      </trkpt>
      <trkpt lat="45.69688" lon="4.33558">
        <ele>526</ele>
        <time>2023-02-19T08:07:25Z</time>
      </trkpt>
      <trkpt lat="45.69689" lon="4.33555">
        <ele>525.9</ele>
        <time>2023-02-19T08:07:27Z</time>
      </trkpt>
      <trkpt lat="45.69689" lon="4.33553">
        <ele>525.9</ele>
        <time>2023-02-19T08:07:28Z</time>
      </trkpt>
      <trkpt lat="45.6969" lon="4.33551">
        <ele>525.9</ele>
        <time>2023-02-19T08:07:29Z</time>
      </trkpt>
      <trkpt lat="45.69691" lon="4.3355">
        <ele>525.8</ele>
        <time>2023-02-19T08:07:30Z</time>
      </trkpt>
      <trkpt lat="45.69691" lon="4.33549">
        <ele>525.8</ele>
        <time>2023-02-19T08:07:31Z</time>
      </trkpt>
      <trkpt lat="45.69692" lon="4.33547">
        <ele>525.8</ele>
        <time>2023-02-19T08:07:32Z</time>
      </trkpt>
      <trkpt lat="45.69692" lon="4.33545">
        <ele>525.8</ele>
        <time>2023-02-19T08:07:33Z</time>
      </trkpt>
      <trkpt lat="45.69693" lon="4.33543">
        <ele>525.7</ele>
        <time>2023-02-19T08:07:35Z</time>
      </trkpt>
      <trkpt lat="45.69695" lon="4.33541">
        <ele>525.7</ele>
        <time>2023-02-19T08:07:36Z</time>
      </trkpt>
      <trkpt lat="45.69696" lon="4.3354">
        <ele>525.7</ele>
        <time>2023-02-19T08:07:37Z</time>
      </trkpt>
      <trkpt lat="45.69697" lon="4.33538">
        <ele>525.7</ele>
        <time>2023-02-19T08:07:38Z</time>
      </trkpt>
      <trkpt lat="45.69699" lon="4.33535">
        <ele>525.6</ele>
        <time>2023-02-19T08:07:39Z</time>
      </trkpt>
      <trkpt lat="45.697" lon="4.33534">
        <ele>525.6</ele>
        <time>2023-02-19T08:07:40Z</time>
      </trkpt>
      <trkpt lat="45.69701" lon="4.33532">
        <ele>525.6</ele>
        <time>2023-02-19T08:07:41Z</time>
      </trkpt>
      <trkpt lat="45.69702" lon="4.33528">
        <ele>525.5</ele>
        <time>2023-02-19T08:07:43Z</time>
      </trkpt>
      <trkpt lat="45.69702" lon="4.33526">
        <ele>525.5</ele>
        <time>2023-02-19T08:07:44Z</time>
      </trkpt>
      <trkpt lat="45.69702" lon="4.33523">
        <ele>525.5</ele>
        <time>2023-02-19T08:07:45Z</time>
      </trkpt>
      <trkpt lat="45.69702" lon="4.33519">
        <ele>525.5</ele>
        <time>2023-02-19T08:07:46Z</time>
      </trkpt>
      <trkpt lat="45.69702" lon="4.33518">
        <ele>525.5</ele>
        <time>2023-02-19T08:07:47Z</time>
      </trkpt>
      <trkpt lat="45.69702" lon="4.33514">
        <ele>525.4</ele>
        <time>2023-02-19T08:07:48Z</time>
      </trkpt>
      <trkpt lat="45.69701" lon="4.33512">
        <ele>525.4</ele>
        <time>2023-02-19T08:07:49Z</time>
      </trkpt>
      <trkpt lat="45.69701" lon="4.33509">
        <ele>525.4</ele>
        <time>2023-02-19T08:07:51Z</time>
      </trkpt>
      <trkpt lat="45.69701" lon="4.33506">
        <ele>525.4</ele>
        <time>2023-02-19T08:07:52Z</time>
      </trkpt>
      <trkpt lat="45.69701" lon="4.33504">
        <ele>525.3</ele>
        <time>2023-02-19T08:07:53Z</time>
      </trkpt>
      <trkpt lat="45.69701" lon="4.33501">
        <ele>525.3</ele>
        <time>2023-02-19T08:07:54Z</time>
      </trkpt>
      <trkpt lat="45.69702" lon="4.33499">
        <ele>525.3</ele>
        <time>2023-02-19T08:07:55Z</time>
      </trkpt>
      <trkpt lat="45.69702" lon="4.33493">
        <ele>525.2</ele>
        <time>2023-02-19T08:07:57Z</time>
      </trkpt>
      <trkpt lat="45.69703" lon="4.33491">
        <ele>525.2</ele>
        <time>2023-02-19T08:07:59Z</time>
      </trkpt>
      <trkpt lat="45.69703" lon="4.33489">
        <ele>525.2</ele>
        <time>2023-02-19T08:08:00Z</time>
      </trkpt>
      <trkpt lat="45.69705" lon="4.33485">
        <ele>525.2</ele>
        <time>2023-02-19T08:08:01Z</time>
      </trkpt>
      <trkpt lat="45.69705" lon="4.33483">
        <ele>525.1</ele>
        <time>2023-02-19T08:08:02Z</time>
      </trkpt>
      <trkpt lat="45.69706" lon="4.33479">
        <ele>525.1</ele>
        <time>2023-02-19T08:08:03Z</time>
      </trkpt>
      <trkpt lat="45.69706" lon="4.33478">
        <ele>525.1</ele>
        <time>2023-02-19T08:08:04Z</time>
      </trkpt>
      <trkpt lat="45.69707" lon="4.33476">
        <ele>525.1</ele>
        <time>2023-02-19T08:08:05Z</time>
      </trkpt>
      <trkpt lat="45.69707" lon="4.33475">
        <ele>525.1</ele>
        <time>2023-02-19T08:08:06Z</time>
      </trkpt>
      <trkpt lat="45.69708" lon="4.33475">
        <ele>525.1</ele>
        <time>2023-02-19T08:08:07Z</time>
      </trkpt>
      <trkpt lat="45.69708" lon="4.33475">
        <ele>525.1</ele>
        <time>2023-02-19T08:08:08Z</time>
      </trkpt>
      <trkpt lat="45.69708" lon="4.33474">
        <ele>525.1</ele>
        <time>2023-02-19T08:08:10Z</time>
      </trkpt>
      <trkpt lat="45.69709" lon="4.33472">
        <ele>525</ele>
        <time>2023-02-19T08:08:11Z</time>
      </trkpt>
      <trkpt lat="45.69709" lon="4.33471">
        <ele>525</ele>
        <time>2023-02-19T08:08:12Z</time>
      </trkpt>
      <trkpt lat="45.69709" lon="4.33469">
        <ele>525</ele>
        <time>2023-02-19T08:08:13Z</time>
      </trkpt>
      <trkpt lat="45.6971" lon="4.33466">
        <ele>525</ele>
        <time>2023-02-19T08:08:15Z</time>
      </trkpt>
      <trkpt lat="45.69711" lon="4.33464">
        <ele>525</ele>
        <time>2023-02-19T08:08:16Z</time>
      </trkpt>
      <trkpt lat="45.69711" lon="4.33462">
        <ele>524.9</ele>
        <time>2023-02-19T08:08:17Z</time>
      </trkpt>
      <trkpt lat="45.69712" lon="4.33459">
        <ele>524.9</ele>
        <time>2023-02-19T08:08:18Z</time>
      </trkpt>
      <trkpt lat="45.69712" lon="4.33458">
        <ele>524.9</ele>
        <time>2023-02-19T08:08:19Z</time>
      </trkpt>
      <trkpt lat="45.69712" lon="4.33456">
        <ele>524.9</ele>
        <time>2023-02-19T08:08:20Z</time>
      </trkpt>
      <trkpt lat="45.69713" lon="4.33453">
        <ele>524.9</ele>
        <time>2023-02-19T08:08:21Z</time>
      </trkpt>
      <trkpt lat="45.69713" lon="4.33451">
        <ele>524.8</ele>
        <time>2023-02-19T08:08:23Z</time>
      </trkpt>
      <trkpt lat="45.69713" lon="4.3345">
        <ele>524.8</ele>
        <time>2023-02-19T08:08:24Z</time>
      </trkpt>
      <trkpt lat="45.69713" lon="4.33448">
        <ele>524.8</ele>
        <time>2023-02-19T08:08:25Z</time>
      </trkpt>
      <trkpt lat="45.69713" lon="4.33447">
        <ele>524.8</ele>
        <time>2023-02-19T08:08:26Z</time>
      </trkpt>
      <trkpt lat="45.69713" lon="4.33445">
        <ele>524.8</ele>
        <time>2023-02-19T08:08:27Z</time>
      </trkpt>
      <trkpt lat="45.69712" lon="4.33442">
        <ele>524.7</ele>
        <time>2023-02-19T08:08:28Z</time>
      </trkpt>
      <trkpt lat="45.69712" lon="4.3344">
        <ele>524.7</ele>
        <time>2023-02-19T08:08:29Z</time>
      </trkpt>
      <trkpt lat="45.69711" lon="4.33438">
        <ele>524.7</ele>
        <time>2023-02-19T08:08:30Z</time>
      </trkpt>
      <trkpt lat="45.6971" lon="4.33434">
        <ele>524.6</ele>
        <time>2023-02-19T08:08:32Z</time>
      </trkpt>
      <trkpt lat="45.69709" lon="4.33433">
        <ele>524.6</ele>
        <time>2023-02-19T08:08:33Z</time>
      </trkpt>
      <trkpt lat="45.69707" lon="4.3343">
        <ele>524.5</ele>
        <time>2023-02-19T08:08:34Z</time>
      </trkpt>
      <trkpt lat="45.69707" lon="4.33429">
        <ele>524.5</ele>
        <time>2023-02-19T08:08:35Z</time>
      </trkpt>
      <trkpt lat="45.69704" lon="4.33426">
        <ele>524.5</ele>
        <time>2023-02-19T08:08:36Z</time>
      </trkpt>
      <trkpt lat="45.69704" lon="4.33425">
        <ele>524.4</ele>
        <time>2023-02-19T08:08:37Z</time>
      </trkpt>
      <trkpt lat="45.69701" lon="4.33422">
        <ele>524.3</ele>
        <time>2023-02-19T08:08:38Z</time>
      </trkpt>
      <trkpt lat="45.69701" lon="4.33421">
        <ele>524.3</ele>
        <time>2023-02-19T08:08:39Z</time>
      </trkpt>
      <trkpt lat="45.697" lon="4.33418">
        <ele>524.3</ele>
        <time>2023-02-19T08:08:40Z</time>
      </trkpt>
      <trkpt lat="45.69699" lon="4.33415">
        <ele>524.2</ele>
        <time>2023-02-19T08:08:42Z</time>
      </trkpt>
      <trkpt lat="45.69699" lon="4.33413">
        <ele>524.2</ele>
        <time>2023-02-19T08:08:43Z</time>
      </trkpt>
      <trkpt lat="45.69698" lon="4.33411">
        <ele>524.1</ele>
        <time>2023-02-19T08:08:44Z</time>
      </trkpt>
      <trkpt lat="45.69699" lon="4.33407">
        <ele>524</ele>
        <time>2023-02-19T08:08:45Z</time>
      </trkpt>
      <trkpt lat="45.69699" lon="4.33405">
        <ele>524</ele>
        <time>2023-02-19T08:08:46Z</time>
      </trkpt>
      <trkpt lat="45.69699" lon="4.33402">
        <ele>523.9</ele>
        <time>2023-02-19T08:08:47Z</time>
      </trkpt>
      <trkpt lat="45.69699" lon="4.334">
        <ele>523.9</ele>
        <time>2023-02-19T08:08:49Z</time>
      </trkpt>
      <trkpt lat="45.69699" lon="4.33395">
        <ele>523.8</ele>
        <time>2023-02-19T08:08:50Z</time>
      </trkpt>
      <trkpt lat="45.69699" lon="4.33394">
        <ele>523.8</ele>
        <time>2023-02-19T08:08:51Z</time>
      </trkpt>
      <trkpt lat="45.69699" lon="4.33392">
        <ele>523.7</ele>
        <time>2023-02-19T08:08:52Z</time>
      </trkpt>
      <trkpt lat="45.69699" lon="4.3339">
        <ele>523.7</ele>
        <time>2023-02-19T08:08:53Z</time>
      </trkpt>
      <trkpt lat="45.69699" lon="4.33388">
        <ele>523.7</ele>
        <time>2023-02-19T08:08:54Z</time>
      </trkpt>
      <trkpt lat="45.69698" lon="4.33386">
        <ele>523.6</ele>
        <time>2023-02-19T08:08:56Z</time>
      </trkpt>
      <trkpt lat="45.69698" lon="4.33384">
        <ele>523.6</ele>
        <time>2023-02-19T08:08:57Z</time>
      </trkpt>
      <trkpt lat="45.69697" lon="4.33382">
        <ele>523.6</ele>
        <time>2023-02-19T08:08:58Z</time>
      </trkpt>
      <trkpt lat="45.69697" lon="4.3338">
        <ele>523.5</ele>
        <time>2023-02-19T08:08:59Z</time>
      </trkpt>
      <trkpt lat="45.69697" lon="4.33378">
        <ele>523.5</ele>
        <time>2023-02-19T08:09:00Z</time>
      </trkpt>
      <trkpt lat="45.69696" lon="4.33375">
        <ele>523.4</ele>
        <time>2023-02-19T08:09:02Z</time>
      </trkpt>
      <trkpt lat="45.69696" lon="4.33374">
        <ele>523.4</ele>
        <time>2023-02-19T08:09:03Z</time>
      </trkpt>
      <trkpt lat="45.69695" lon="4.33373">
        <ele>523.4</ele>
        <time>2023-02-19T08:09:04Z</time>
      </trkpt>
      <trkpt lat="45.69695" lon="4.33372">
        <ele>523.4</ele>
        <time>2023-02-19T08:09:05Z</time>
      </trkpt>
      <trkpt lat="45.69695" lon="4.33368">
        <ele>523.3</ele>
        <time>2023-02-19T08:09:07Z</time>
      </trkpt>
      <trkpt lat="45.69695" lon="4.33367">
        <ele>523.3</ele>
        <time>2023-02-19T08:09:08Z</time>
      </trkpt>
      <trkpt lat="45.69694" lon="4.33365">
        <ele>523.3</ele>
        <time>2023-02-19T08:09:09Z</time>
      </trkpt>
      <trkpt lat="45.69694" lon="4.33361">
        <ele>523.2</ele>
        <time>2023-02-19T08:09:11Z</time>
      </trkpt>
      <trkpt lat="45.69693" lon="4.33358">
        <ele>523.1</ele>
        <time>2023-02-19T08:09:12Z</time>
      </trkpt>
      <trkpt lat="45.69693" lon="4.33357">
        <ele>523.1</ele>
        <time>2023-02-19T08:09:13Z</time>
      </trkpt>
      <trkpt lat="45.69693" lon="4.33355">
        <ele>523.1</ele>
        <time>2023-02-19T08:09:14Z</time>
      </trkpt>
      <trkpt lat="45.69692" lon="4.33353">
        <ele>523</ele>
        <time>2023-02-19T08:09:15Z</time>
      </trkpt>
      <trkpt lat="45.69692" lon="4.33351">
        <ele>523</ele>
        <time>2023-02-19T08:09:16Z</time>
      </trkpt>
      <trkpt lat="45.69691" lon="4.33348">
        <ele>522.9</ele>
        <time>2023-02-19T08:09:17Z</time>
      </trkpt>
      <trkpt lat="45.6969" lon="4.33345">
        <ele>522.9</ele>
        <time>2023-02-19T08:09:19Z</time>
      </trkpt>
      <trkpt lat="45.69689" lon="4.33341">
        <ele>522.8</ele>
        <time>2023-02-19T08:09:20Z</time>
      </trkpt>
      <trkpt lat="45.69689" lon="4.33339">
        <ele>522.7</ele>
        <time>2023-02-19T08:09:22Z</time>
      </trkpt>
      <trkpt lat="45.69689" lon="4.33337">
        <ele>522.7</ele>
        <time>2023-02-19T08:09:23Z</time>
      </trkpt>
      <trkpt lat="45.69688" lon="4.33335">
        <ele>522.7</ele>
        <time>2023-02-19T08:09:24Z</time>
      </trkpt>
      <trkpt lat="45.69688" lon="4.33331">
        <ele>522.6</ele>
        <time>2023-02-19T08:09:25Z</time>
      </trkpt>
      <trkpt lat="45.69688" lon="4.3333">
        <ele>522.5</ele>
        <time>2023-02-19T08:09:26Z</time>
      </trkpt>
      <trkpt lat="45.69687" lon="4.33326">
        <ele>522.5</ele>
        <time>2023-02-19T08:09:27Z</time>
      </trkpt>
      <trkpt lat="45.69687" lon="4.33325">
        <ele>522.4</ele>
        <time>2023-02-19T08:09:28Z</time>
      </trkpt>
      <trkpt lat="45.69687" lon="4.33322">
        <ele>522.4</ele>
        <time>2023-02-19T08:09:29Z</time>
      </trkpt>
      <trkpt lat="45.69687" lon="4.33318">
        <ele>522.3</ele>
        <time>2023-02-19T08:09:31Z</time>
      </trkpt>
      <trkpt lat="45.69687" lon="4.33316">
        <ele>522.3</ele>
        <time>2023-02-19T08:09:32Z</time>
      </trkpt>
      <trkpt lat="45.69687" lon="4.33313">
        <ele>522.2</ele>
        <time>2023-02-19T08:09:33Z</time>
      </trkpt>
      <trkpt lat="45.69687" lon="4.33311">
        <ele>522.2</ele>
        <time>2023-02-19T08:09:34Z</time>
      </trkpt>
      <trkpt lat="45.69686" lon="4.33309">
        <ele>522.1</ele>
        <time>2023-02-19T08:09:35Z</time>
      </trkpt>
      <trkpt lat="45.69686" lon="4.33306">
        <ele>522.1</ele>
        <time>2023-02-19T08:09:36Z</time>
      </trkpt>
      <trkpt lat="45.69686" lon="4.33304">
        <ele>522.1</ele>
        <time>2023-02-19T08:09:37Z</time>
      </trkpt>
      <trkpt lat="45.69686" lon="4.333">
        <ele>522</ele>
        <time>2023-02-19T08:09:39Z</time>
      </trkpt>
      <trkpt lat="45.69686" lon="4.33299">
        <ele>522</ele>
        <time>2023-02-19T08:09:40Z</time>
      </trkpt>
      <trkpt lat="45.69686" lon="4.33297">
        <ele>521.9</ele>
        <time>2023-02-19T08:09:41Z</time>
      </trkpt>
      <trkpt lat="45.69685" lon="4.33293">
        <ele>521.8</ele>
        <time>2023-02-19T08:09:43Z</time>
      </trkpt>
      <trkpt lat="45.69685" lon="4.33289">
        <ele>521.8</ele>
        <time>2023-02-19T08:09:44Z</time>
      </trkpt>
      <trkpt lat="45.69685" lon="4.33288">
        <ele>521.7</ele>
        <time>2023-02-19T08:09:45Z</time>
      </trkpt>
      <trkpt lat="45.69685" lon="4.33285">
        <ele>521.7</ele>
        <time>2023-02-19T08:09:46Z</time>
      </trkpt>
      <trkpt lat="45.69684" lon="4.33283">
        <ele>521.6</ele>
        <time>2023-02-19T08:09:48Z</time>
      </trkpt>
      <trkpt lat="45.69684" lon="4.3328">
        <ele>521.6</ele>
        <time>2023-02-19T08:09:49Z</time>
      </trkpt>
      <trkpt lat="45.69684" lon="4.33278">
        <ele>521.5</ele>
        <time>2023-02-19T08:09:50Z</time>
      </trkpt>
      <trkpt lat="45.69683" lon="4.33274">
        <ele>521.4</ele>
        <time>2023-02-19T08:09:51Z</time>
      </trkpt>
      <trkpt lat="45.69683" lon="4.33273">
        <ele>521.4</ele>
        <time>2023-02-19T08:09:52Z</time>
      </trkpt>
      <trkpt lat="45.69683" lon="4.3327">
        <ele>521.4</ele>
        <time>2023-02-19T08:09:53Z</time>
      </trkpt>
      <trkpt lat="45.69683" lon="4.33268">
        <ele>521.3</ele>
        <time>2023-02-19T08:09:54Z</time>
      </trkpt>
      <trkpt lat="45.69682" lon="4.33263">
        <ele>521.2</ele>
        <time>2023-02-19T08:09:56Z</time>
      </trkpt>
      <trkpt lat="45.69682" lon="4.33262">
        <ele>521.2</ele>
        <time>2023-02-19T08:09:57Z</time>
      </trkpt>
      <trkpt lat="45.69682" lon="4.33259">
        <ele>521.1</ele>
        <time>2023-02-19T08:09:58Z</time>
      </trkpt>
      <trkpt lat="45.69682" lon="4.33257">
        <ele>521.1</ele>
        <time>2023-02-19T08:09:59Z</time>
      </trkpt>
      <trkpt lat="45.69682" lon="4.33256">
        <ele>521.1</ele>
        <time>2023-02-19T08:10:00Z</time>
      </trkpt>
      <trkpt lat="45.69682" lon="4.33254">
        <ele>521</ele>
        <time>2023-02-19T08:10:01Z</time>
      </trkpt>
      <trkpt lat="45.69682" lon="4.33251">
        <ele>520.9</ele>
        <time>2023-02-19T08:10:03Z</time>
      </trkpt>
      <trkpt lat="45.69681" lon="4.33249">
        <ele>520.9</ele>
        <time>2023-02-19T08:10:04Z</time>
      </trkpt>
      <trkpt lat="45.69681" lon="4.33247">
        <ele>520.8</ele>
        <time>2023-02-19T08:10:05Z</time>
      </trkpt>
      <trkpt lat="45.69681" lon="4.33243">
        <ele>520.7</ele>
        <time>2023-02-19T08:10:06Z</time>
      </trkpt>
      <trkpt lat="45.69681" lon="4.33241">
        <ele>520.7</ele>
        <time>2023-02-19T08:10:07Z</time>
      </trkpt>
      <trkpt lat="45.69681" lon="4.33239">
        <ele>520.7</ele>
        <time>2023-02-19T08:10:08Z</time>
      </trkpt>
      <trkpt lat="45.6968" lon="4.33235">
        <ele>520.6</ele>
        <time>2023-02-19T08:10:10Z</time>
      </trkpt>
      <trkpt lat="45.6968" lon="4.33234">
        <ele>520.5</ele>
        <time>2023-02-19T08:10:11Z</time>
      </trkpt>
      <trkpt lat="45.6968" lon="4.33233">
        <ele>520.5</ele>
        <time>2023-02-19T08:10:12Z</time>
      </trkpt>
      <trkpt lat="45.6968" lon="4.33231">
        <ele>520.5</ele>
        <time>2023-02-19T08:10:13Z</time>
      </trkpt>
      <trkpt lat="45.6968" lon="4.3323">
        <ele>520.4</ele>
        <time>2023-02-19T08:10:14Z</time>
      </trkpt>
      <trkpt lat="45.69679" lon="4.33228">
        <ele>520.4</ele>
        <time>2023-02-19T08:10:15Z</time>
      </trkpt>
      <trkpt lat="45.69679" lon="4.33225">
        <ele>520.3</ele>
        <time>2023-02-19T08:10:17Z</time>
      </trkpt>
      <trkpt lat="45.69679" lon="4.33222">
        <ele>520.3</ele>
        <time>2023-02-19T08:10:19Z</time>
      </trkpt>
      <trkpt lat="45.6968" lon="4.33221">
        <ele>520.3</ele>
        <time>2023-02-19T08:10:20Z</time>
      </trkpt>
      <trkpt lat="45.6968" lon="4.3322">
        <ele>520.2</ele>
        <time>2023-02-19T08:10:21Z</time>
      </trkpt>
      <trkpt lat="45.6968" lon="4.33218">
        <ele>520.2</ele>
        <time>2023-02-19T08:10:22Z</time>
      </trkpt>
      <trkpt lat="45.6968" lon="4.33216">
        <ele>520.2</ele>
        <time>2023-02-19T08:10:23Z</time>
      </trkpt>
      <trkpt lat="45.6968" lon="4.33213">
        <ele>520.1</ele>
        <time>2023-02-19T08:10:24Z</time>
      </trkpt>
      <trkpt lat="45.6968" lon="4.33211">
        <ele>520.1</ele>
        <time>2023-02-19T08:10:25Z</time>
      </trkpt>
      <trkpt lat="45.6968" lon="4.3321">
        <ele>520</ele>
        <time>2023-02-19T08:10:26Z</time>
      </trkpt>
      <trkpt lat="45.6968" lon="4.33209">
        <ele>520</ele>
        <time>2023-02-19T08:10:27Z</time>
      </trkpt>
      <trkpt lat="45.6968" lon="4.33205">
        <ele>520</ele>
        <time>2023-02-19T08:10:29Z</time>
      </trkpt>
      <trkpt lat="45.6968" lon="4.33203">
        <ele>519.9</ele>
        <time>2023-02-19T08:10:30Z</time>
      </trkpt>
      <trkpt lat="45.6968" lon="4.33201">
        <ele>519.9</ele>
        <time>2023-02-19T08:10:31Z</time>
      </trkpt>
      <trkpt lat="45.6968" lon="4.33199">
        <ele>519.8</ele>
        <time>2023-02-19T08:10:32Z</time>
      </trkpt>
      <trkpt lat="45.6968" lon="4.33197">
        <ele>519.8</ele>
        <time>2023-02-19T08:10:33Z</time>
      </trkpt>
      <trkpt lat="45.6968" lon="4.33193">
        <ele>519.8</ele>
        <time>2023-02-19T08:10:35Z</time>
      </trkpt>
      <trkpt lat="45.69679" lon="4.33192">
        <ele>519.7</ele>
        <time>2023-02-19T08:10:36Z</time>
      </trkpt>
      <trkpt lat="45.69679" lon="4.3319">
        <ele>519.7</ele>
        <time>2023-02-19T08:10:37Z</time>
      </trkpt>
      <trkpt lat="45.69679" lon="4.33187">
        <ele>519.7</ele>
        <time>2023-02-19T08:10:38Z</time>
      </trkpt>
      <trkpt lat="45.69679" lon="4.33185">
        <ele>519.6</ele>
        <time>2023-02-19T08:10:39Z</time>
      </trkpt>
      <trkpt lat="45.69678" lon="4.33183">
        <ele>519.6</ele>
        <time>2023-02-19T08:10:40Z</time>
      </trkpt>
      <trkpt lat="45.69678" lon="4.3318">
        <ele>519.6</ele>
        <time>2023-02-19T08:10:42Z</time>
      </trkpt>
      <trkpt lat="45.69678" lon="4.33178">
        <ele>519.6</ele>
        <time>2023-02-19T08:10:43Z</time>
      </trkpt>
      <trkpt lat="45.69678" lon="4.33176">
        <ele>519.6</ele>
        <time>2023-02-19T08:10:44Z</time>
      </trkpt>
      <trkpt lat="45.69678" lon="4.33174">
        <ele>519.5</ele>
        <time>2023-02-19T08:10:45Z</time>
      </trkpt>
      <trkpt lat="45.69677" lon="4.33172">
        <ele>519.5</ele>
        <time>2023-02-19T08:10:46Z</time>
      </trkpt>
      <trkpt lat="45.69677" lon="4.33169">
        <ele>519.5</ele>
        <time>2023-02-19T08:10:48Z</time>
      </trkpt>
      <trkpt lat="45.69677" lon="4.33167">
        <ele>519.5</ele>
        <time>2023-02-19T08:10:49Z</time>
      </trkpt>
      <trkpt lat="45.69677" lon="4.33164">
        <ele>519.5</ele>
        <time>2023-02-19T08:10:51Z</time>
      </trkpt>
      <trkpt lat="45.69677" lon="4.33162">
        <ele>519.4</ele>
        <time>2023-02-19T08:10:52Z</time>
      </trkpt>
      <trkpt lat="45.69676" lon="4.3316">
        <ele>519.4</ele>
        <time>2023-02-19T08:10:53Z</time>
      </trkpt>
      <trkpt lat="45.69676" lon="4.33158">
        <ele>519.4</ele>
        <time>2023-02-19T08:10:54Z</time>
      </trkpt>
      <trkpt lat="45.69676" lon="4.33156">
        <ele>519.4</ele>
        <time>2023-02-19T08:10:55Z</time>
      </trkpt>
      <trkpt lat="45.69676" lon="4.33154">
        <ele>519.4</ele>
        <time>2023-02-19T08:10:56Z</time>
      </trkpt>
      <trkpt lat="45.69676" lon="4.33153">
        <ele>519.4</ele>
        <time>2023-02-19T08:10:57Z</time>
      </trkpt>
      <trkpt lat="45.69675" lon="4.3315">
        <ele>519.4</ele>
        <time>2023-02-19T08:10:59Z</time>
      </trkpt>
      <trkpt lat="45.69675" lon="4.33148">
        <ele>519.4</ele>
        <time>2023-02-19T08:11:00Z</time>
      </trkpt>
      <trkpt lat="45.69675" lon="4.33146">
        <ele>519.4</ele>
        <time>2023-02-19T08:11:01Z</time>
      </trkpt>
      <trkpt lat="45.69675" lon="4.33143">
        <ele>519.4</ele>
        <time>2023-02-19T08:11:02Z</time>
      </trkpt>
      <trkpt lat="45.69675" lon="4.33141">
        <ele>519.3</ele>
        <time>2023-02-19T08:11:03Z</time>
      </trkpt>
      <trkpt lat="45.69675" lon="4.33136">
        <ele>519.3</ele>
        <time>2023-02-19T08:11:05Z</time>
      </trkpt>
      <trkpt lat="45.69675" lon="4.33135">
        <ele>519.3</ele>
        <time>2023-02-19T08:11:06Z</time>
      </trkpt>
      <trkpt lat="45.69675" lon="4.33133">
        <ele>519.3</ele>
        <time>2023-02-19T08:11:07Z</time>
      </trkpt>
      <trkpt lat="45.69675" lon="4.33131">
        <ele>519.3</ele>
        <time>2023-02-19T08:11:08Z</time>
      </trkpt>
      <trkpt lat="45.69675" lon="4.33129">
        <ele>519.3</ele>
        <time>2023-02-19T08:11:09Z</time>
      </trkpt>
      <trkpt lat="45.69675" lon="4.33127">
        <ele>519.3</ele>
        <time>2023-02-19T08:11:10Z</time>
      </trkpt>
      <trkpt lat="45.69674" lon="4.33123">
        <ele>519.3</ele>
        <time>2023-02-19T08:11:12Z</time>
      </trkpt>
      <trkpt lat="45.69674" lon="4.33121">
        <ele>519.3</ele>
        <time>2023-02-19T08:11:13Z</time>
      </trkpt>
      <trkpt lat="45.69673" lon="4.33117">
        <ele>519.3</ele>
        <time>2023-02-19T08:11:14Z</time>
      </trkpt>
      <trkpt lat="45.69673" lon="4.33116">
        <ele>519.3</ele>
        <time>2023-02-19T08:11:15Z</time>
      </trkpt>
      <trkpt lat="45.69672" lon="4.33114">
        <ele>519.3</ele>
        <time>2023-02-19T08:11:16Z</time>
      </trkpt>
      <trkpt lat="45.69671" lon="4.3311">
        <ele>519.3</ele>
        <time>2023-02-19T08:11:18Z</time>
      </trkpt>
      <trkpt lat="45.69671" lon="4.33108">
        <ele>519.3</ele>
        <time>2023-02-19T08:11:19Z</time>
      </trkpt>
      <trkpt lat="45.6967" lon="4.33106">
        <ele>519.3</ele>
        <time>2023-02-19T08:11:20Z</time>
      </trkpt>
      <trkpt lat="45.6967" lon="4.33104">
        <ele>519.3</ele>
        <time>2023-02-19T08:11:21Z</time>
      </trkpt>
      <trkpt lat="45.69669" lon="4.33101">
        <ele>519.3</ele>
        <time>2023-02-19T08:11:23Z</time>
      </trkpt>
      <trkpt lat="45.69668" lon="4.33101">
        <ele>519.3</ele>
        <time>2023-02-19T08:11:24Z</time>
      </trkpt>
      <trkpt lat="45.69667" lon="4.331">
        <ele>519.3</ele>
        <time>2023-02-19T08:11:25Z</time>
      </trkpt>
      <trkpt lat="45.69666" lon="4.33098">
        <ele>519.3</ele>
        <time>2023-02-19T08:11:26Z</time>
      </trkpt>
      <trkpt lat="45.69664" lon="4.33096">
        <ele>519.3</ele>
        <time>2023-02-19T08:11:27Z</time>
      </trkpt>
      <trkpt lat="45.69664" lon="4.33095">
        <ele>519.3</ele>
        <time>2023-02-19T08:11:28Z</time>
      </trkpt>
      <trkpt lat="45.69663" lon="4.33095">
        <ele>519.3</ele>
        <time>2023-02-19T08:11:29Z</time>
      </trkpt>
      <trkpt lat="45.69662" lon="4.33093">
        <ele>519.3</ele>
        <time>2023-02-19T08:11:30Z</time>
      </trkpt>
      <trkpt lat="45.69661" lon="4.33091">
        <ele>519.3</ele>
        <time>2023-02-19T08:11:31Z</time>
      </trkpt>
      <trkpt lat="45.6966" lon="4.33089">
        <ele>519.3</ele>
        <time>2023-02-19T08:11:33Z</time>
      </trkpt>
      <trkpt lat="45.6966" lon="4.33087">
        <ele>519.4</ele>
        <time>2023-02-19T08:11:34Z</time>
      </trkpt>
      <trkpt lat="45.69659" lon="4.33086">
        <ele>519.4</ele>
        <time>2023-02-19T08:11:35Z</time>
      </trkpt>
      <trkpt lat="45.69658" lon="4.33084">
        <ele>519.4</ele>
        <time>2023-02-19T08:11:36Z</time>
      </trkpt>
      <trkpt lat="45.69658" lon="4.33083">
        <ele>519.4</ele>
        <time>2023-02-19T08:11:37Z</time>
      </trkpt>
      <trkpt lat="45.69656" lon="4.33081">
        <ele>519.4</ele>
        <time>2023-02-19T08:11:39Z</time>
      </trkpt>
      <trkpt lat="45.69656" lon="4.33079">
        <ele>519.5</ele>
        <time>2023-02-19T08:11:40Z</time>
      </trkpt>
      <trkpt lat="45.69655" lon="4.33078">
        <ele>519.5</ele>
        <time>2023-02-19T08:11:41Z</time>
      </trkpt>
      <trkpt lat="45.69655" lon="4.33078">
        <ele>519.5</ele>
        <time>2023-02-19T08:11:42Z</time>
      </trkpt>
      <trkpt lat="45.69654" lon="4.33076">
        <ele>519.5</ele>
        <time>2023-02-19T08:11:44Z</time>
      </trkpt>
      <trkpt lat="45.69654" lon="4.33075">
        <ele>519.5</ele>
        <time>2023-02-19T08:11:45Z</time>
      </trkpt>
      <trkpt lat="45.69653" lon="4.33074">
        <ele>519.5</ele>
        <time>2023-02-19T08:11:46Z</time>
      </trkpt>
      <trkpt lat="45.69653" lon="4.33072">
        <ele>519.6</ele>
        <time>2023-02-19T08:11:47Z</time>
      </trkpt>
      <trkpt lat="45.69652" lon="4.33071">
        <ele>519.6</ele>
        <time>2023-02-19T08:11:48Z</time>
      </trkpt>
      <trkpt lat="45.69652" lon="4.3307">
        <ele>519.6</ele>
        <time>2023-02-19T08:11:50Z</time>
      </trkpt>
      <trkpt lat="45.69652" lon="4.33069">
        <ele>519.6</ele>
        <time>2023-02-19T08:11:51Z</time>
      </trkpt>
      <trkpt lat="45.69651" lon="4.33067">
        <ele>519.6</ele>
        <time>2023-02-19T08:11:52Z</time>
      </trkpt>
      <trkpt lat="45.69651" lon="4.33065">
        <ele>519.7</ele>
        <time>2023-02-19T08:11:53Z</time>
      </trkpt>
      <trkpt lat="45.6965" lon="4.33063">
        <ele>519.7</ele>
        <time>2023-02-19T08:11:54Z</time>
      </trkpt>
      <trkpt lat="45.69649" lon="4.33061">
        <ele>519.7</ele>
        <time>2023-02-19T08:11:55Z</time>
      </trkpt>
      <trkpt lat="45.69648" lon="4.33059">
        <ele>519.8</ele>
        <time>2023-02-19T08:11:56Z</time>
      </trkpt>
      <trkpt lat="45.69647" lon="4.33057">
        <ele>519.8</ele>
        <time>2023-02-19T08:11:57Z</time>
      </trkpt>
      <trkpt lat="45.69646" lon="4.33055">
        <ele>519.9</ele>
        <time>2023-02-19T08:11:59Z</time>
      </trkpt>
      <trkpt lat="45.69645" lon="4.33053">
        <ele>519.9</ele>
        <time>2023-02-19T08:12:00Z</time>
      </trkpt>
      <trkpt lat="45.69644" lon="4.33051">
        <ele>519.9</ele>
        <time>2023-02-19T08:12:01Z</time>
      </trkpt>
      <trkpt lat="45.69643" lon="4.3305">
        <ele>519.9</ele>
        <time>2023-02-19T08:12:02Z</time>
      </trkpt>
      <trkpt lat="45.69643" lon="4.33049">
        <ele>519.9</ele>
        <time>2023-02-19T08:12:03Z</time>
      </trkpt>
      <trkpt lat="45.69642" lon="4.33047">
        <ele>519.9</ele>
        <time>2023-02-19T08:12:05Z</time>
      </trkpt>
      <trkpt lat="45.69641" lon="4.33045">
        <ele>520</ele>
        <time>2023-02-19T08:12:06Z</time>
      </trkpt>
      <trkpt lat="45.69641" lon="4.33044">
        <ele>520</ele>
        <time>2023-02-19T08:12:07Z</time>
      </trkpt>
      <trkpt lat="45.6964" lon="4.33042">
        <ele>520</ele>
        <time>2023-02-19T08:12:09Z</time>
      </trkpt>
      <trkpt lat="45.6964" lon="4.33041">
        <ele>520</ele>
        <time>2023-02-19T08:12:10Z</time>
      </trkpt>
      <trkpt lat="45.69639" lon="4.33038">
        <ele>520</ele>
        <time>2023-02-19T08:12:11Z</time>
      </trkpt>
      <trkpt lat="45.69638" lon="4.33037">
        <ele>520</ele>
        <time>2023-02-19T08:12:12Z</time>
      </trkpt>
      <trkpt lat="45.69638" lon="4.33036">
        <ele>520</ele>
        <time>2023-02-19T08:12:13Z</time>
      </trkpt>
      <trkpt lat="45.69637" lon="4.33034">
        <ele>520</ele>
        <time>2023-02-19T08:12:14Z</time>
      </trkpt>
      <trkpt lat="45.69637" lon="4.33032">
        <ele>520.1</ele>
        <time>2023-02-19T08:12:15Z</time>
      </trkpt>
      <trkpt lat="45.69636" lon="4.33029">
        <ele>520.1</ele>
        <time>2023-02-19T08:12:16Z</time>
      </trkpt>
      <trkpt lat="45.69635" lon="4.33028">
        <ele>520.1</ele>
        <time>2023-02-19T08:12:17Z</time>
      </trkpt>
      <trkpt lat="45.69635" lon="4.33027">
        <ele>520.1</ele>
        <time>2023-02-19T08:12:18Z</time>
      </trkpt>
      <trkpt lat="45.69634" lon="4.33025">
        <ele>520.1</ele>
        <time>2023-02-19T08:12:19Z</time>
      </trkpt>
      <trkpt lat="45.69634" lon="4.33024">
        <ele>520.1</ele>
        <time>2023-02-19T08:12:20Z</time>
      </trkpt>
      <trkpt lat="45.69633" lon="4.33023">
        <ele>520.1</ele>
        <time>2023-02-19T08:12:21Z</time>
      </trkpt>
      <trkpt lat="45.69633" lon="4.33022">
        <ele>520.2</ele>
        <time>2023-02-19T08:12:22Z</time>
      </trkpt>
      <trkpt lat="45.69632" lon="4.3302">
        <ele>520.2</ele>
        <time>2023-02-19T08:12:24Z</time>
      </trkpt>
      <trkpt lat="45.69632" lon="4.33018">
        <ele>520.2</ele>
        <time>2023-02-19T08:12:25Z</time>
      </trkpt>
      <trkpt lat="45.69631" lon="4.33015">
        <ele>520.2</ele>
        <time>2023-02-19T08:12:26Z</time>
      </trkpt>
      <trkpt lat="45.69631" lon="4.33013">
        <ele>520.2</ele>
        <time>2023-02-19T08:12:28Z</time>
      </trkpt>
      <trkpt lat="45.69631" lon="4.33011">
        <ele>520.3</ele>
        <time>2023-02-19T08:12:29Z</time>
      </trkpt>
      <trkpt lat="45.69632" lon="4.33008">
        <ele>520.3</ele>
        <time>2023-02-19T08:12:30Z</time>
      </trkpt>
      <trkpt lat="45.69632" lon="4.33006">
        <ele>520.3</ele>
        <time>2023-02-19T08:12:31Z</time>
      </trkpt>
      <trkpt lat="45.69633" lon="4.33004">
        <ele>520.3</ele>
        <time>2023-02-19T08:12:32Z</time>
      </trkpt>
      <trkpt lat="45.69633" lon="4.33002">
        <ele>520.3</ele>
        <time>2023-02-19T08:12:33Z</time>
      </trkpt>
      <trkpt lat="45.69632" lon="4.32999">
        <ele>520.4</ele>
        <time>2023-02-19T08:12:34Z</time>
      </trkpt>
      <trkpt lat="45.6963" lon="4.32995">
        <ele>520.4</ele>
        <time>2023-02-19T08:12:36Z</time>
      </trkpt>
      <trkpt lat="45.6963" lon="4.32994">
        <ele>520.4</ele>
        <time>2023-02-19T08:12:37Z</time>
      </trkpt>
      <trkpt lat="45.69628" lon="4.3299">
        <ele>520.5</ele>
        <time>2023-02-19T08:12:38Z</time>
      </trkpt>
      <trkpt lat="45.69627" lon="4.32989">
        <ele>520.5</ele>
        <time>2023-02-19T08:12:39Z</time>
      </trkpt>
      <trkpt lat="45.69625" lon="4.32985">
        <ele>520.5</ele>
        <time>2023-02-19T08:12:41Z</time>
      </trkpt>
      <trkpt lat="45.69622" lon="4.32982">
        <ele>520.5</ele>
        <time>2023-02-19T08:12:42Z</time>
      </trkpt>
      <trkpt lat="45.69622" lon="4.32981">
        <ele>520.5</ele>
        <time>2023-02-19T08:12:43Z</time>
      </trkpt>
      <trkpt lat="45.6962" lon="4.32978">
        <ele>520.5</ele>
        <time>2023-02-19T08:12:44Z</time>
      </trkpt>
      <trkpt lat="45.69619" lon="4.32977">
        <ele>520.5</ele>
        <time>2023-02-19T08:12:45Z</time>
      </trkpt>
      <trkpt lat="45.69618" lon="4.32973">
        <ele>520.5</ele>
        <time>2023-02-19T08:12:46Z</time>
      </trkpt>
      <trkpt lat="45.69618" lon="4.32971">
        <ele>520.5</ele>
        <time>2023-02-19T08:12:47Z</time>
      </trkpt>
      <trkpt lat="45.69617" lon="4.32966">
        <ele>520.5</ele>
        <time>2023-02-19T08:12:48Z</time>
      </trkpt>
      <trkpt lat="45.69617" lon="4.32965">
        <ele>520.5</ele>
        <time>2023-02-19T08:12:49Z</time>
      </trkpt>
      <trkpt lat="45.69617" lon="4.32962">
        <ele>520.5</ele>
        <time>2023-02-19T08:12:50Z</time>
      </trkpt>
      <trkpt lat="45.69616" lon="4.32958">
        <ele>520.5</ele>
        <time>2023-02-19T08:12:52Z</time>
      </trkpt>
      <trkpt lat="45.69616" lon="4.32956">
        <ele>520.4</ele>
        <time>2023-02-19T08:12:53Z</time>
      </trkpt>
      <trkpt lat="45.69616" lon="4.32954">
        <ele>520.4</ele>
        <time>2023-02-19T08:12:54Z</time>
      </trkpt>
      <trkpt lat="45.69616" lon="4.3295">
        <ele>520.3</ele>
        <time>2023-02-19T08:12:55Z</time>
      </trkpt>
      <trkpt lat="45.69616" lon="4.32948">
        <ele>520.3</ele>
        <time>2023-02-19T08:12:56Z</time>
      </trkpt>
      <trkpt lat="45.69616" lon="4.32944">
        <ele>520.3</ele>
        <time>2023-02-19T08:12:57Z</time>
      </trkpt>
      <trkpt lat="45.69616" lon="4.32942">
        <ele>520.2</ele>
        <time>2023-02-19T08:12:58Z</time>
      </trkpt>
      <trkpt lat="45.69615" lon="4.32938">
        <ele>520.1</ele>
        <time>2023-02-19T08:12:59Z</time>
      </trkpt>
      <trkpt lat="45.69615" lon="4.32937">
        <ele>520.1</ele>
        <time>2023-02-19T08:13:00Z</time>
      </trkpt>
      <trkpt lat="45.69614" lon="4.32933">
        <ele>520</ele>
        <time>2023-02-19T08:13:02Z</time>
      </trkpt>
      <trkpt lat="45.69614" lon="4.32931">
        <ele>520</ele>
        <time>2023-02-19T08:13:03Z</time>
      </trkpt>
      <trkpt lat="45.69613" lon="4.32928">
        <ele>519.9</ele>
        <time>2023-02-19T08:13:04Z</time>
      </trkpt>
      <trkpt lat="45.69612" lon="4.32927">
        <ele>519.9</ele>
        <time>2023-02-19T08:13:05Z</time>
      </trkpt>
      <trkpt lat="45.69611" lon="4.32924">
        <ele>519.8</ele>
        <time>2023-02-19T08:13:06Z</time>
      </trkpt>
      <trkpt lat="45.69611" lon="4.32922">
        <ele>519.8</ele>
        <time>2023-02-19T08:13:07Z</time>
      </trkpt>
      <trkpt lat="45.69609" lon="4.32919">
        <ele>519.7</ele>
        <time>2023-02-19T08:13:09Z</time>
      </trkpt>
      <trkpt lat="45.69608" lon="4.32917">
        <ele>519.6</ele>
        <time>2023-02-19T08:13:10Z</time>
      </trkpt>
      <trkpt lat="45.69607" lon="4.32915">
        <ele>519.5</ele>
        <time>2023-02-19T08:13:11Z</time>
      </trkpt>
      <trkpt lat="45.69605" lon="4.32912">
        <ele>519.4</ele>
        <time>2023-02-19T08:13:13Z</time>
      </trkpt>
      <trkpt lat="45.69604" lon="4.3291">
        <ele>519.4</ele>
        <time>2023-02-19T08:13:14Z</time>
      </trkpt>
      <trkpt lat="45.69603" lon="4.32908">
        <ele>519.3</ele>
        <time>2023-02-19T08:13:15Z</time>
      </trkpt>
      <trkpt lat="45.69602" lon="4.32904">
        <ele>519.2</ele>
        <time>2023-02-19T08:13:17Z</time>
      </trkpt>
      <trkpt lat="45.69602" lon="4.32903">
        <ele>519.2</ele>
        <time>2023-02-19T08:13:18Z</time>
      </trkpt>
      <trkpt lat="45.69601" lon="4.329">
        <ele>519.1</ele>
        <time>2023-02-19T08:13:19Z</time>
      </trkpt>
      <trkpt lat="45.69601" lon="4.32899">
        <ele>519.1</ele>
        <time>2023-02-19T08:13:20Z</time>
      </trkpt>
      <trkpt lat="45.69601" lon="4.32898">
        <ele>519</ele>
        <time>2023-02-19T08:13:21Z</time>
      </trkpt>
      <trkpt lat="45.69601" lon="4.32895">
        <ele>519</ele>
        <time>2023-02-19T08:13:22Z</time>
      </trkpt>
      <trkpt lat="45.696" lon="4.32892">
        <ele>518.9</ele>
        <time>2023-02-19T08:13:24Z</time>
      </trkpt>
      <trkpt lat="45.696" lon="4.32889">
        <ele>518.8</ele>
        <time>2023-02-19T08:13:25Z</time>
      </trkpt>
      <trkpt lat="45.69599" lon="4.32884">
        <ele>518.7</ele>
        <time>2023-02-19T08:13:27Z</time>
      </trkpt>
      <trkpt lat="45.69599" lon="4.32882">
        <ele>518.7</ele>
        <time>2023-02-19T08:13:29Z</time>
      </trkpt>
      <trkpt lat="45.69599" lon="4.3288">
        <ele>518.6</ele>
        <time>2023-02-19T08:13:30Z</time>
      </trkpt>
      <trkpt lat="45.69599" lon="4.32877">
        <ele>518.6</ele>
        <time>2023-02-19T08:13:31Z</time>
      </trkpt>
      <trkpt lat="45.69599" lon="4.32875">
        <ele>518.5</ele>
        <time>2023-02-19T08:13:32Z</time>
      </trkpt>
      <trkpt lat="45.69599" lon="4.32873">
        <ele>518.5</ele>
        <time>2023-02-19T08:13:33Z</time>
      </trkpt>
      <trkpt lat="45.69599" lon="4.32871">
        <ele>518.4</ele>
        <time>2023-02-19T08:13:34Z</time>
      </trkpt>
      <trkpt lat="45.69599" lon="4.32869">
        <ele>518.4</ele>
        <time>2023-02-19T08:13:35Z</time>
      </trkpt>
      <trkpt lat="45.69599" lon="4.32864">
        <ele>518.3</ele>
        <time>2023-02-19T08:13:37Z</time>
      </trkpt>
      <trkpt lat="45.69599" lon="4.32863">
        <ele>518.3</ele>
        <time>2023-02-19T08:13:38Z</time>
      </trkpt>
      <trkpt lat="45.69599" lon="4.3286">
        <ele>518.2</ele>
        <time>2023-02-19T08:13:39Z</time>
      </trkpt>
      <trkpt lat="45.69599" lon="4.32859">
        <ele>518.2</ele>
        <time>2023-02-19T08:13:40Z</time>
      </trkpt>
      <trkpt lat="45.69598" lon="4.32854">
        <ele>518.1</ele>
        <time>2023-02-19T08:13:42Z</time>
      </trkpt>
      <trkpt lat="45.69598" lon="4.32853">
        <ele>518.1</ele>
        <time>2023-02-19T08:13:43Z</time>
      </trkpt>
      <trkpt lat="45.69597" lon="4.32852">
        <ele>518</ele>
        <time>2023-02-19T08:13:44Z</time>
      </trkpt>
      <trkpt lat="45.69597" lon="4.3285">
        <ele>518</ele>
        <time>2023-02-19T08:13:45Z</time>
      </trkpt>
      <trkpt lat="45.69596" lon="4.32847">
        <ele>517.9</ele>
        <time>2023-02-19T08:13:46Z</time>
      </trkpt>
      <trkpt lat="45.69595" lon="4.32843">
        <ele>517.8</ele>
        <time>2023-02-19T08:13:48Z</time>
      </trkpt>
      <trkpt lat="45.69594" lon="4.32839">
        <ele>517.8</ele>
        <time>2023-02-19T08:13:49Z</time>
      </trkpt>
      <trkpt lat="45.69594" lon="4.32838">
        <ele>517.7</ele>
        <time>2023-02-19T08:13:50Z</time>
      </trkpt>
      <trkpt lat="45.69594" lon="4.32834">
        <ele>517.6</ele>
        <time>2023-02-19T08:13:51Z</time>
      </trkpt>
      <trkpt lat="45.69593" lon="4.32833">
        <ele>517.6</ele>
        <time>2023-02-19T08:13:52Z</time>
      </trkpt>
      <trkpt lat="45.69593" lon="4.3283">
        <ele>517.6</ele>
        <time>2023-02-19T08:13:53Z</time>
      </trkpt>
      <trkpt lat="45.69593" lon="4.32828">
        <ele>517.5</ele>
        <time>2023-02-19T08:13:55Z</time>
      </trkpt>
      <trkpt lat="45.69593" lon="4.32826">
        <ele>517.5</ele>
        <time>2023-02-19T08:13:56Z</time>
      </trkpt>
      <trkpt lat="45.69594" lon="4.32824">
        <ele>517.4</ele>
        <time>2023-02-19T08:13:57Z</time>
      </trkpt>
      <trkpt lat="45.69594" lon="4.32822">
        <ele>517.4</ele>
        <time>2023-02-19T08:13:58Z</time>
      </trkpt>
      <trkpt lat="45.69593" lon="4.32819">
        <ele>517.3</ele>
        <time>2023-02-19T08:13:59Z</time>
      </trkpt>
      <trkpt lat="45.69593" lon="4.32817">
        <ele>517.3</ele>
        <time>2023-02-19T08:14:00Z</time>
      </trkpt>
      <trkpt lat="45.69593" lon="4.32815">
        <ele>517.2</ele>
        <time>2023-02-19T08:14:01Z</time>
      </trkpt>
      <trkpt lat="45.69593" lon="4.32812">
        <ele>517.2</ele>
        <time>2023-02-19T08:14:03Z</time>
      </trkpt>
      <trkpt lat="45.69593" lon="4.3281">
        <ele>517.1</ele>
        <time>2023-02-19T08:14:04Z</time>
      </trkpt>
      <trkpt lat="45.69593" lon="4.32807">
        <ele>517.1</ele>
        <time>2023-02-19T08:14:05Z</time>
      </trkpt>
      <trkpt lat="45.69593" lon="4.32805">
        <ele>517.1</ele>
        <time>2023-02-19T08:14:06Z</time>
      </trkpt>
      <trkpt lat="45.69593" lon="4.32804">
        <ele>517</ele>
        <time>2023-02-19T08:14:07Z</time>
      </trkpt>
      <trkpt lat="45.69592" lon="4.32803">
        <ele>517</ele>
        <time>2023-02-19T08:14:08Z</time>
      </trkpt>
      <trkpt lat="45.69592" lon="4.328">
        <ele>517</ele>
        <time>2023-02-19T08:14:10Z</time>
      </trkpt>
      <trkpt lat="45.69592" lon="4.32799">
        <ele>516.9</ele>
        <time>2023-02-19T08:14:11Z</time>
      </trkpt>
      <trkpt lat="45.69592" lon="4.32798">
        <ele>516.9</ele>
        <time>2023-02-19T08:14:12Z</time>
      </trkpt>
      <trkpt lat="45.69592" lon="4.32797">
        <ele>516.9</ele>
        <time>2023-02-19T08:14:13Z</time>
      </trkpt>
      <trkpt lat="45.69591" lon="4.32795">
        <ele>516.9</ele>
        <time>2023-02-19T08:14:14Z</time>
      </trkpt>
      <trkpt lat="45.69591" lon="4.32793">
        <ele>516.8</ele>
        <time>2023-02-19T08:14:16Z</time>
      </trkpt>
      <trkpt lat="45.69591" lon="4.32792">
        <ele>516.8</ele>
        <time>2023-02-19T08:14:17Z</time>
      </trkpt>
      <trkpt lat="45.6959" lon="4.32789">
        <ele>516.8</ele>
        <time>2023-02-19T08:14:19Z</time>
      </trkpt>
      <trkpt lat="45.6959" lon="4.32787">
        <ele>516.7</ele>
        <time>2023-02-19T08:14:20Z</time>
      </trkpt>
      <trkpt lat="45.6959" lon="4.32785">
        <ele>516.7</ele>
        <time>2023-02-19T08:14:21Z</time>
      </trkpt>
      <trkpt lat="45.69589" lon="4.32781">
        <ele>516.6</ele>
        <time>2023-02-19T08:14:22Z</time>
      </trkpt>
      <trkpt lat="45.69589" lon="4.3278">
        <ele>516.6</ele>
        <time>2023-02-19T08:14:23Z</time>
      </trkpt>
      <trkpt lat="45.69589" lon="4.32778">
        <ele>516.5</ele>
        <time>2023-02-19T08:14:24Z</time>
      </trkpt>
      <trkpt lat="45.69588" lon="4.32775">
        <ele>516.5</ele>
        <time>2023-02-19T08:14:25Z</time>
      </trkpt>
      <trkpt lat="45.69588" lon="4.32772">
        <ele>516.5</ele>
        <time>2023-02-19T08:14:26Z</time>
      </trkpt>
      <trkpt lat="45.69587" lon="4.32769">
        <ele>516.4</ele>
        <time>2023-02-19T08:14:28Z</time>
      </trkpt>
      <trkpt lat="45.69587" lon="4.32767">
        <ele>516.4</ele>
        <time>2023-02-19T08:14:29Z</time>
      </trkpt>
      <trkpt lat="45.69587" lon="4.32765">
        <ele>516.3</ele>
        <time>2023-02-19T08:14:30Z</time>
      </trkpt>
      <trkpt lat="45.69586" lon="4.32763">
        <ele>516.3</ele>
        <time>2023-02-19T08:14:31Z</time>
      </trkpt>
      <trkpt lat="45.69586" lon="4.32761">
        <ele>516.3</ele>
        <time>2023-02-19T08:14:32Z</time>
      </trkpt>
      <trkpt lat="45.69586" lon="4.32759">
        <ele>516.2</ele>
        <time>2023-02-19T08:14:33Z</time>
      </trkpt>
      <trkpt lat="45.69586" lon="4.32756">
        <ele>516.2</ele>
        <time>2023-02-19T08:14:34Z</time>
      </trkpt>
      <trkpt lat="45.69586" lon="4.32754">
        <ele>516.1</ele>
        <time>2023-02-19T08:14:35Z</time>
      </trkpt>
      <trkpt lat="45.69586" lon="4.32751">
        <ele>516.1</ele>
        <time>2023-02-19T08:14:37Z</time>
      </trkpt>
      <trkpt lat="45.69586" lon="4.32746">
        <ele>516</ele>
        <time>2023-02-19T08:14:38Z</time>
      </trkpt>
      <trkpt lat="45.69586" lon="4.32744">
        <ele>516</ele>
        <time>2023-02-19T08:14:39Z</time>
      </trkpt>
      <trkpt lat="45.69587" lon="4.3274">
        <ele>515.9</ele>
        <time>2023-02-19T08:14:41Z</time>
      </trkpt>
      <trkpt lat="45.69587" lon="4.32739">
        <ele>515.9</ele>
        <time>2023-02-19T08:14:42Z</time>
      </trkpt>
      <trkpt lat="45.69587" lon="4.32735">
        <ele>515.8</ele>
        <time>2023-02-19T08:14:43Z</time>
      </trkpt>
      <trkpt lat="45.69586" lon="4.32733">
        <ele>515.8</ele>
        <time>2023-02-19T08:14:44Z</time>
      </trkpt>
      <trkpt lat="45.69586" lon="4.32729">
        <ele>515.7</ele>
        <time>2023-02-19T08:14:45Z</time>
      </trkpt>
      <trkpt lat="45.69586" lon="4.32727">
        <ele>515.7</ele>
        <time>2023-02-19T08:14:46Z</time>
      </trkpt>
      <trkpt lat="45.69586" lon="4.32723">
        <ele>515.6</ele>
        <time>2023-02-19T08:14:47Z</time>
      </trkpt>
      <trkpt lat="45.69586" lon="4.32722">
        <ele>515.6</ele>
        <time>2023-02-19T08:14:48Z</time>
      </trkpt>
      <trkpt lat="45.69587" lon="4.32719">
        <ele>515.5</ele>
        <time>2023-02-19T08:14:49Z</time>
      </trkpt>
      <trkpt lat="45.69587" lon="4.32717">
        <ele>515.5</ele>
        <time>2023-02-19T08:14:50Z</time>
      </trkpt>
      <trkpt lat="45.69587" lon="4.32714">
        <ele>515.5</ele>
        <time>2023-02-19T08:14:51Z</time>
      </trkpt>
      <trkpt lat="45.69587" lon="4.32711">
        <ele>515.4</ele>
        <time>2023-02-19T08:14:53Z</time>
      </trkpt>
      <trkpt lat="45.69587" lon="4.32708">
        <ele>515.3</ele>
        <time>2023-02-19T08:14:54Z</time>
      </trkpt>
      <trkpt lat="45.69587" lon="4.32706">
        <ele>515.3</ele>
        <time>2023-02-19T08:14:55Z</time>
      </trkpt>
      <trkpt lat="45.69587" lon="4.32703">
        <ele>515.2</ele>
        <time>2023-02-19T08:14:56Z</time>
      </trkpt>
      <trkpt lat="45.69587" lon="4.32701">
        <ele>515.1</ele>
        <time>2023-02-19T08:14:57Z</time>
      </trkpt>
      <trkpt lat="45.69587" lon="4.32699">
        <ele>515.1</ele>
        <time>2023-02-19T08:14:58Z</time>
      </trkpt>
      <trkpt lat="45.69587" lon="4.32697">
        <ele>515</ele>
        <time>2023-02-19T08:14:59Z</time>
      </trkpt>
      <trkpt lat="45.69586" lon="4.32695">
        <ele>515</ele>
        <time>2023-02-19T08:15:00Z</time>
      </trkpt>
      <trkpt lat="45.69586" lon="4.32693">
        <ele>514.9</ele>
        <time>2023-02-19T08:15:01Z</time>
      </trkpt>
      <trkpt lat="45.69585" lon="4.32688">
        <ele>514.8</ele>
        <time>2023-02-19T08:15:03Z</time>
      </trkpt>
      <trkpt lat="45.69585" lon="4.32687">
        <ele>514.7</ele>
        <time>2023-02-19T08:15:04Z</time>
      </trkpt>
      <trkpt lat="45.69585" lon="4.32685">
        <ele>514.7</ele>
        <time>2023-02-19T08:15:05Z</time>
      </trkpt>
      <trkpt lat="45.69585" lon="4.32683">
        <ele>514.6</ele>
        <time>2023-02-19T08:15:06Z</time>
      </trkpt>
      <trkpt lat="45.69584" lon="4.3268">
        <ele>514.5</ele>
        <time>2023-02-19T08:15:07Z</time>
      </trkpt>
      <trkpt lat="45.69584" lon="4.32678">
        <ele>514.4</ele>
        <time>2023-02-19T08:15:08Z</time>
      </trkpt>
      <trkpt lat="45.69584" lon="4.32674">
        <ele>514.2</ele>
        <time>2023-02-19T08:15:10Z</time>
      </trkpt>
      <trkpt lat="45.69584" lon="4.32672">
        <ele>514.2</ele>
        <time>2023-02-19T08:15:11Z</time>
      </trkpt>
      <trkpt lat="45.69584" lon="4.3267">
        <ele>514.1</ele>
        <time>2023-02-19T08:15:12Z</time>
      </trkpt>
      <trkpt lat="45.69584" lon="4.32668">
        <ele>514.1</ele>
        <time>2023-02-19T08:15:13Z</time>
      </trkpt>
      <trkpt lat="45.69583" lon="4.32666">
        <ele>514</ele>
        <time>2023-02-19T08:15:14Z</time>
      </trkpt>
      <trkpt lat="45.69583" lon="4.32664">
        <ele>513.9</ele>
        <time>2023-02-19T08:15:15Z</time>
      </trkpt>
      <trkpt lat="45.69583" lon="4.32664">
        <ele>513.9</ele>
        <time>2023-02-19T08:15:16Z</time>
      </trkpt>
      <trkpt lat="45.69583" lon="4.32662">
        <ele>513.9</ele>
        <time>2023-02-19T08:15:18Z</time>
      </trkpt>
      <trkpt lat="45.69582" lon="4.32661">
        <ele>513.9</ele>
        <time>2023-02-19T08:15:19Z</time>
      </trkpt>
      <trkpt lat="45.69582" lon="4.3266">
        <ele>513.8</ele>
        <time>2023-02-19T08:15:20Z</time>
      </trkpt>
      <trkpt lat="45.69582" lon="4.32659">
        <ele>513.8</ele>
        <time>2023-02-19T08:15:21Z</time>
      </trkpt>
      <trkpt lat="45.69582" lon="4.32657">
        <ele>513.8</ele>
        <time>2023-02-19T08:15:22Z</time>
      </trkpt>
      <trkpt lat="45.69582" lon="4.32656">
        <ele>513.7</ele>
        <time>2023-02-19T08:15:23Z</time>
      </trkpt>
      <trkpt lat="45.69581" lon="4.32653">
        <ele>513.6</ele>
        <time>2023-02-19T08:15:24Z</time>
      </trkpt>
      <trkpt lat="45.69581" lon="4.32651">
        <ele>513.6</ele>
        <time>2023-02-19T08:15:25Z</time>
      </trkpt>
      <trkpt lat="45.69581" lon="4.3265">
        <ele>513.6</ele>
        <time>2023-02-19T08:15:26Z</time>
      </trkpt>
      <trkpt lat="45.69581" lon="4.32648">
        <ele>513.5</ele>
        <time>2023-02-19T08:15:27Z</time>
      </trkpt>
      <trkpt lat="45.6958" lon="4.32646">
        <ele>513.5</ele>
        <time>2023-02-19T08:15:28Z</time>
      </trkpt>
      <trkpt lat="45.6958" lon="4.32643">
        <ele>513.4</ele>
        <time>2023-02-19T08:15:29Z</time>
      </trkpt>
      <trkpt lat="45.69579" lon="4.3264">
        <ele>513.4</ele>
        <time>2023-02-19T08:15:31Z</time>
      </trkpt>
      <trkpt lat="45.69578" lon="4.32638">
        <ele>513.3</ele>
        <time>2023-02-19T08:15:32Z</time>
      </trkpt>
      <trkpt lat="45.69577" lon="4.32637">
        <ele>513.3</ele>
        <time>2023-02-19T08:15:33Z</time>
      </trkpt>
      <trkpt lat="45.69577" lon="4.32635">
        <ele>513.2</ele>
        <time>2023-02-19T08:15:35Z</time>
      </trkpt>
      <trkpt lat="45.69577" lon="4.32634">
        <ele>513.2</ele>
        <time>2023-02-19T08:15:36Z</time>
      </trkpt>
      <trkpt lat="45.69576" lon="4.32633">
        <ele>513.2</ele>
        <time>2023-02-19T08:15:37Z</time>
      </trkpt>
      <trkpt lat="45.69575" lon="4.32632">
        <ele>513.1</ele>
        <time>2023-02-19T08:15:38Z</time>
      </trkpt>
      <trkpt lat="45.69575" lon="4.32632">
        <ele>513.1</ele>
        <time>2023-02-19T08:15:39Z</time>
      </trkpt>
      <trkpt lat="45.69574" lon="4.3263">
        <ele>513</ele>
        <time>2023-02-19T08:15:40Z</time>
      </trkpt>
      <trkpt lat="45.69574" lon="4.32628">
        <ele>513</ele>
        <time>2023-02-19T08:15:41Z</time>
      </trkpt>
      <trkpt lat="45.69573" lon="4.32626">
        <ele>512.9</ele>
        <time>2023-02-19T08:15:42Z</time>
      </trkpt>
      <trkpt lat="45.69573" lon="4.3262">
        <ele>512.7</ele>
        <time>2023-02-19T08:15:44Z</time>
      </trkpt>
      <trkpt lat="45.69573" lon="4.32618">
        <ele>512.7</ele>
        <time>2023-02-19T08:15:45Z</time>
      </trkpt>
      <trkpt lat="45.69572" lon="4.32616">
        <ele>512.6</ele>
        <time>2023-02-19T08:15:46Z</time>
      </trkpt>
      <trkpt lat="45.69572" lon="4.32614">
        <ele>512.5</ele>
        <time>2023-02-19T08:15:48Z</time>
      </trkpt>
      <trkpt lat="45.69571" lon="4.32612">
        <ele>512.5</ele>
        <time>2023-02-19T08:15:49Z</time>
      </trkpt>
      <trkpt lat="45.6957" lon="4.3261">
        <ele>512.4</ele>
        <time>2023-02-19T08:15:50Z</time>
      </trkpt>
      <trkpt lat="45.69569" lon="4.32608">
        <ele>512.4</ele>
        <time>2023-02-19T08:15:51Z</time>
      </trkpt>
      <trkpt lat="45.69568" lon="4.32606">
        <ele>512.3</ele>
        <time>2023-02-19T08:15:52Z</time>
      </trkpt>
      <trkpt lat="45.69567" lon="4.32605">
        <ele>512.3</ele>
        <time>2023-02-19T08:15:53Z</time>
      </trkpt>
      <trkpt lat="45.69566" lon="4.32603">
        <ele>512.2</ele>
        <time>2023-02-19T08:15:54Z</time>
      </trkpt>
      <trkpt lat="45.69565" lon="4.32601">
        <ele>512.1</ele>
        <time>2023-02-19T08:15:55Z</time>
      </trkpt>
      <trkpt lat="45.69564" lon="4.32599">
        <ele>512.1</ele>
        <time>2023-02-19T08:15:56Z</time>
      </trkpt>
      <trkpt lat="45.69563" lon="4.32597">
        <ele>512</ele>
        <time>2023-02-19T08:15:57Z</time>
      </trkpt>
      <trkpt lat="45.69562" lon="4.32596">
        <ele>512</ele>
        <time>2023-02-19T08:15:58Z</time>
      </trkpt>
      <trkpt lat="45.69561" lon="4.32593">
        <ele>511.9</ele>
        <time>2023-02-19T08:16:00Z</time>
      </trkpt>
      <trkpt lat="45.6956" lon="4.32592">
        <ele>511.9</ele>
        <time>2023-02-19T08:16:01Z</time>
      </trkpt>
      <trkpt lat="45.69559" lon="4.32591">
        <ele>511.8</ele>
        <time>2023-02-19T08:16:02Z</time>
      </trkpt>
      <trkpt lat="45.69558" lon="4.32589">
        <ele>511.8</ele>
        <time>2023-02-19T08:16:03Z</time>
      </trkpt>
      <trkpt lat="45.69557" lon="4.32588">
        <ele>511.8</ele>
        <time>2023-02-19T08:16:04Z</time>
      </trkpt>
      <trkpt lat="45.69556" lon="4.32587">
        <ele>511.7</ele>
        <time>2023-02-19T08:16:05Z</time>
      </trkpt>
      <trkpt lat="45.69555" lon="4.32585">
        <ele>511.7</ele>
        <time>2023-02-19T08:16:07Z</time>
      </trkpt>
      <trkpt lat="45.69554" lon="4.32584">
        <ele>511.6</ele>
        <time>2023-02-19T08:16:08Z</time>
      </trkpt>
      <trkpt lat="45.69553" lon="4.32582">
        <ele>511.6</ele>
        <time>2023-02-19T08:16:09Z</time>
      </trkpt>
      <trkpt lat="45.69553" lon="4.32581">
        <ele>511.6</ele>
        <time>2023-02-19T08:16:10Z</time>
      </trkpt>
      <trkpt lat="45.69552" lon="4.3258">
        <ele>511.5</ele>
        <time>2023-02-19T08:16:11Z</time>
      </trkpt>
      <trkpt lat="45.69551" lon="4.32578">
        <ele>511.5</ele>
        <time>2023-02-19T08:16:12Z</time>
      </trkpt>
      <trkpt lat="45.6955" lon="4.32576">
        <ele>511.4</ele>
        <time>2023-02-19T08:16:14Z</time>
      </trkpt>
      <trkpt lat="45.69549" lon="4.32575">
        <ele>511.4</ele>
        <time>2023-02-19T08:16:15Z</time>
      </trkpt>
      <trkpt lat="45.69548" lon="4.32573">
        <ele>511.4</ele>
        <time>2023-02-19T08:16:16Z</time>
      </trkpt>
      <trkpt lat="45.69546" lon="4.32572">
        <ele>511.3</ele>
        <time>2023-02-19T08:16:17Z</time>
      </trkpt>
      <trkpt lat="45.69545" lon="4.3257">
        <ele>511.3</ele>
        <time>2023-02-19T08:16:18Z</time>
      </trkpt>
      <trkpt lat="45.69543" lon="4.32567">
        <ele>511.2</ele>
        <time>2023-02-19T08:16:20Z</time>
      </trkpt>
      <trkpt lat="45.69543" lon="4.32566">
        <ele>511.2</ele>
        <time>2023-02-19T08:16:21Z</time>
      </trkpt>
      <trkpt lat="45.69541" lon="4.32564">
        <ele>511.2</ele>
        <time>2023-02-19T08:16:22Z</time>
      </trkpt>
      <trkpt lat="45.6954" lon="4.32563">
        <ele>511.2</ele>
        <time>2023-02-19T08:16:23Z</time>
      </trkpt>
      <trkpt lat="45.69539" lon="4.32561">
        <ele>511.1</ele>
        <time>2023-02-19T08:16:24Z</time>
      </trkpt>
      <trkpt lat="45.69537" lon="4.32558">
        <ele>511.1</ele>
        <time>2023-02-19T08:16:26Z</time>
      </trkpt>
      <trkpt lat="45.69536" lon="4.32556">
        <ele>511.1</ele>
        <time>2023-02-19T08:16:27Z</time>
      </trkpt>
      <trkpt lat="45.69535" lon="4.32554">
        <ele>511.1</ele>
        <time>2023-02-19T08:16:28Z</time>
      </trkpt>
      <trkpt lat="45.69534" lon="4.32551">
        <ele>511</ele>
        <time>2023-02-19T08:16:29Z</time>
      </trkpt>
      <trkpt lat="45.69534" lon="4.3255">
        <ele>511</ele>
        <time>2023-02-19T08:16:30Z</time>
      </trkpt>
      <trkpt lat="45.69533" lon="4.32549">
        <ele>511</ele>
        <time>2023-02-19T08:16:31Z</time>
      </trkpt>
      <trkpt lat="45.69532" lon="4.32545">
        <ele>511</ele>
        <time>2023-02-19T08:16:33Z</time>
      </trkpt>
      <trkpt lat="45.69531" lon="4.32544">
        <ele>511</ele>
        <time>2023-02-19T08:16:34Z</time>
      </trkpt>
      <trkpt lat="45.69531" lon="4.32543">
        <ele>511</ele>
        <time>2023-02-19T08:16:35Z</time>
      </trkpt>
      <trkpt lat="45.6953" lon="4.32541">
        <ele>511</ele>
        <time>2023-02-19T08:16:36Z</time>
      </trkpt>
      <trkpt lat="45.69529" lon="4.32539">
        <ele>511</ele>
        <time>2023-02-19T08:16:37Z</time>
      </trkpt>
      <trkpt lat="45.69529" lon="4.32538">
        <ele>511</ele>
        <time>2023-02-19T08:16:38Z</time>
      </trkpt>
      <trkpt lat="45.69528" lon="4.32537">
        <ele>511</ele>
        <time>2023-02-19T08:16:39Z</time>
      </trkpt>
      <trkpt lat="45.69528" lon="4.32535">
        <ele>511</ele>
        <time>2023-02-19T08:16:41Z</time>
      </trkpt>
      <trkpt lat="45.69527" lon="4.32533">
        <ele>510.9</ele>
        <time>2023-02-19T08:16:42Z</time>
      </trkpt>
      <trkpt lat="45.69526" lon="4.3253">
        <ele>510.9</ele>
        <time>2023-02-19T08:16:43Z</time>
      </trkpt>
      <trkpt lat="45.69526" lon="4.32529">
        <ele>510.9</ele>
        <time>2023-02-19T08:16:44Z</time>
      </trkpt>
      <trkpt lat="45.69525" lon="4.32528">
        <ele>510.9</ele>
        <time>2023-02-19T08:16:45Z</time>
      </trkpt>
      <trkpt lat="45.69524" lon="4.32526">
        <ele>510.9</ele>
        <time>2023-02-19T08:16:46Z</time>
      </trkpt>
      <trkpt lat="45.69524" lon="4.32524">
        <ele>510.9</ele>
        <time>2023-02-19T08:16:47Z</time>
      </trkpt>
      <trkpt lat="45.69522" lon="4.3252">
        <ele>510.9</ele>
        <time>2023-02-19T08:16:49Z</time>
      </trkpt>
      <trkpt lat="45.69522" lon="4.32519">
        <ele>510.9</ele>
        <time>2023-02-19T08:16:50Z</time>
      </trkpt>
      <trkpt lat="45.69521" lon="4.32517">
        <ele>510.9</ele>
        <time>2023-02-19T08:16:51Z</time>
      </trkpt>
      <trkpt lat="45.6952" lon="4.32515">
        <ele>510.9</ele>
        <time>2023-02-19T08:16:52Z</time>
      </trkpt>
      <trkpt lat="45.6952" lon="4.32513">
        <ele>510.9</ele>
        <time>2023-02-19T08:16:53Z</time>
      </trkpt>
      <trkpt lat="45.69519" lon="4.32512">
        <ele>510.9</ele>
        <time>2023-02-19T08:16:54Z</time>
      </trkpt>
      <trkpt lat="45.69518" lon="4.32509">
        <ele>510.9</ele>
        <time>2023-02-19T08:16:55Z</time>
      </trkpt>
      <trkpt lat="45.69517" lon="4.32507">
        <ele>511</ele>
        <time>2023-02-19T08:16:57Z</time>
      </trkpt>
      <trkpt lat="45.69517" lon="4.32506">
        <ele>511</ele>
        <time>2023-02-19T08:16:58Z</time>
      </trkpt>
      <trkpt lat="45.69516" lon="4.32504">
        <ele>511</ele>
        <time>2023-02-19T08:16:59Z</time>
      </trkpt>
      <trkpt lat="45.69516" lon="4.32503">
        <ele>511</ele>
        <time>2023-02-19T08:17:00Z</time>
      </trkpt>
      <trkpt lat="45.69515" lon="4.32499">
        <ele>511</ele>
        <time>2023-02-19T08:17:02Z</time>
      </trkpt>
      <trkpt lat="45.69514" lon="4.32497">
        <ele>511</ele>
        <time>2023-02-19T08:17:03Z</time>
      </trkpt>
      <trkpt lat="45.69514" lon="4.32495">
        <ele>511</ele>
        <time>2023-02-19T08:17:04Z</time>
      </trkpt>
      <trkpt lat="45.69513" lon="4.32492">
        <ele>511</ele>
        <time>2023-02-19T08:17:06Z</time>
      </trkpt>
      <trkpt lat="45.69513" lon="4.3249">
        <ele>511</ele>
        <time>2023-02-19T08:17:07Z</time>
      </trkpt>
      <trkpt lat="45.69512" lon="4.32488">
        <ele>511</ele>
        <time>2023-02-19T08:17:08Z</time>
      </trkpt>
      <trkpt lat="45.69512" lon="4.32485">
        <ele>511.1</ele>
        <time>2023-02-19T08:17:09Z</time>
      </trkpt>
      <trkpt lat="45.69512" lon="4.32483">
        <ele>511.1</ele>
        <time>2023-02-19T08:17:10Z</time>
      </trkpt>
      <trkpt lat="45.69512" lon="4.32479">
        <ele>511.1</ele>
        <time>2023-02-19T08:17:11Z</time>
      </trkpt>
      <trkpt lat="45.69512" lon="4.32477">
        <ele>511.1</ele>
        <time>2023-02-19T08:17:12Z</time>
      </trkpt>
      <trkpt lat="45.69511" lon="4.32475">
        <ele>511.1</ele>
        <time>2023-02-19T08:17:14Z</time>
      </trkpt>
      <trkpt lat="45.69511" lon="4.32472">
        <ele>511.2</ele>
        <time>2023-02-19T08:17:15Z</time>
      </trkpt>
      <trkpt lat="45.69511" lon="4.32468">
        <ele>511.2</ele>
        <time>2023-02-19T08:17:16Z</time>
      </trkpt>
      <trkpt lat="45.69511" lon="4.32466">
        <ele>511.2</ele>
        <time>2023-02-19T08:17:17Z</time>
      </trkpt>
      <trkpt lat="45.6951" lon="4.32464">
        <ele>511.2</ele>
        <time>2023-02-19T08:17:18Z</time>
      </trkpt>
      <trkpt lat="45.6951" lon="4.32461">
        <ele>511.2</ele>
        <time>2023-02-19T08:17:19Z</time>
      </trkpt>
      <trkpt lat="45.6951" lon="4.32457">
        <ele>511.3</ele>
        <time>2023-02-19T08:17:20Z</time>
      </trkpt>
      <trkpt lat="45.6951" lon="4.32456">
        <ele>511.3</ele>
        <time>2023-02-19T08:17:21Z</time>
      </trkpt>
      <trkpt lat="45.6951" lon="4.32451">
        <ele>511.3</ele>
        <time>2023-02-19T08:17:23Z</time>
      </trkpt>
      <trkpt lat="45.6951" lon="4.32449">
        <ele>511.3</ele>
        <time>2023-02-19T08:17:24Z</time>
      </trkpt>
      <trkpt lat="45.69509" lon="4.32447">
        <ele>511.4</ele>
        <time>2023-02-19T08:17:25Z</time>
      </trkpt>
      <trkpt lat="45.69509" lon="4.32444">
        <ele>511.4</ele>
        <time>2023-02-19T08:17:26Z</time>
      </trkpt>
      <trkpt lat="45.69509" lon="4.32441">
        <ele>511.4</ele>
        <time>2023-02-19T08:17:27Z</time>
      </trkpt>
      <trkpt lat="45.69509" lon="4.3244">
        <ele>511.5</ele>
        <time>2023-02-19T08:17:28Z</time>
      </trkpt>
      <trkpt lat="45.69509" lon="4.32439">
        <ele>511.5</ele>
        <time>2023-02-19T08:17:29Z</time>
      </trkpt>
      <trkpt lat="45.69509" lon="4.32436">
        <ele>511.5</ele>
        <time>2023-02-19T08:17:30Z</time>
      </trkpt>
      <trkpt lat="45.69509" lon="4.32435">
        <ele>511.6</ele>
        <time>2023-02-19T08:17:31Z</time>
      </trkpt>
      <trkpt lat="45.69508" lon="4.32433">
        <ele>511.6</ele>
        <time>2023-02-19T08:17:33Z</time>
      </trkpt>
      <trkpt lat="45.69508" lon="4.32432">
        <ele>511.6</ele>
        <time>2023-02-19T08:17:34Z</time>
      </trkpt>
      <trkpt lat="45.69508" lon="4.3243">
        <ele>511.7</ele>
        <time>2023-02-19T08:17:35Z</time>
      </trkpt>
      <trkpt lat="45.69508" lon="4.32428">
        <ele>511.7</ele>
        <time>2023-02-19T08:17:36Z</time>
      </trkpt>
      <trkpt lat="45.69508" lon="4.32426">
        <ele>511.8</ele>
        <time>2023-02-19T08:17:37Z</time>
      </trkpt>
      <trkpt lat="45.69508" lon="4.32424">
        <ele>511.8</ele>
        <time>2023-02-19T08:17:38Z</time>
      </trkpt>
      <trkpt lat="45.69508" lon="4.32422">
        <ele>511.9</ele>
        <time>2023-02-19T08:17:39Z</time>
      </trkpt>
      <trkpt lat="45.69508" lon="4.32419">
        <ele>512</ele>
        <time>2023-02-19T08:17:40Z</time>
      </trkpt>
      <trkpt lat="45.69508" lon="4.32417">
        <ele>512</ele>
        <time>2023-02-19T08:17:41Z</time>
      </trkpt>
      <trkpt lat="45.69508" lon="4.32413">
        <ele>512.2</ele>
        <time>2023-02-19T08:17:43Z</time>
      </trkpt>
      <trkpt lat="45.69508" lon="4.32411">
        <ele>512.2</ele>
        <time>2023-02-19T08:17:44Z</time>
      </trkpt>
      <trkpt lat="45.69509" lon="4.32409">
        <ele>512.3</ele>
        <time>2023-02-19T08:17:45Z</time>
      </trkpt>
      <trkpt lat="45.69509" lon="4.32407">
        <ele>512.4</ele>
        <time>2023-02-19T08:17:46Z</time>
      </trkpt>
      <trkpt lat="45.69509" lon="4.32405">
        <ele>512.5</ele>
        <time>2023-02-19T08:17:47Z</time>
      </trkpt>
      <trkpt lat="45.69509" lon="4.32402">
        <ele>512.6</ele>
        <time>2023-02-19T08:17:48Z</time>
      </trkpt>
      <trkpt lat="45.69509" lon="4.32399">
        <ele>512.7</ele>
        <time>2023-02-19T08:17:50Z</time>
      </trkpt>
      <trkpt lat="45.6951" lon="4.32396">
        <ele>512.8</ele>
        <time>2023-02-19T08:17:51Z</time>
      </trkpt>
      <trkpt lat="45.6951" lon="4.32394">
        <ele>512.9</ele>
        <time>2023-02-19T08:17:52Z</time>
      </trkpt>
      <trkpt lat="45.69509" lon="4.32392">
        <ele>513</ele>
        <time>2023-02-19T08:17:53Z</time>
      </trkpt>
      <trkpt lat="45.69509" lon="4.32389">
        <ele>513.1</ele>
        <time>2023-02-19T08:17:54Z</time>
      </trkpt>
      <trkpt lat="45.69509" lon="4.32384">
        <ele>513.3</ele>
        <time>2023-02-19T08:17:56Z</time>
      </trkpt>
      <trkpt lat="45.69509" lon="4.32383">
        <ele>513.4</ele>
        <time>2023-02-19T08:17:57Z</time>
      </trkpt>
      <trkpt lat="45.69509" lon="4.3238">
        <ele>513.5</ele>
        <time>2023-02-19T08:17:58Z</time>
      </trkpt>
      <trkpt lat="45.69509" lon="4.32378">
        <ele>513.6</ele>
        <time>2023-02-19T08:17:59Z</time>
      </trkpt>
      <trkpt lat="45.69509" lon="4.32372">
        <ele>513.8</ele>
        <time>2023-02-19T08:18:01Z</time>
      </trkpt>
      <trkpt lat="45.69509" lon="4.32371">
        <ele>513.9</ele>
        <time>2023-02-19T08:18:02Z</time>
      </trkpt>
      <trkpt lat="45.6951" lon="4.32367">
        <ele>514.1</ele>
        <time>2023-02-19T08:18:03Z</time>
      </trkpt>
      <trkpt lat="45.6951" lon="4.32365">
        <ele>514.2</ele>
        <time>2023-02-19T08:18:04Z</time>
      </trkpt>
      <trkpt lat="45.69511" lon="4.32362">
        <ele>514.4</ele>
        <time>2023-02-19T08:18:05Z</time>
      </trkpt>
      <trkpt lat="45.69511" lon="4.32359">
        <ele>514.5</ele>
        <time>2023-02-19T08:18:07Z</time>
      </trkpt>
      <trkpt lat="45.69511" lon="4.32357">
        <ele>514.6</ele>
        <time>2023-02-19T08:18:08Z</time>
      </trkpt>
      <trkpt lat="45.69511" lon="4.32355">
        <ele>514.7</ele>
        <time>2023-02-19T08:18:09Z</time>
      </trkpt>
      <trkpt lat="45.69512" lon="4.32352">
        <ele>514.9</ele>
        <time>2023-02-19T08:18:10Z</time>
      </trkpt>
      <trkpt lat="45.69512" lon="4.32351">
        <ele>514.9</ele>
        <time>2023-02-19T08:18:11Z</time>
      </trkpt>
      <trkpt lat="45.69512" lon="4.3235">
        <ele>515</ele>
        <time>2023-02-19T08:18:12Z</time>
      </trkpt>
      <trkpt lat="45.69512" lon="4.32348">
        <ele>515.1</ele>
        <time>2023-02-19T08:18:13Z</time>
      </trkpt>
      <trkpt lat="45.69512" lon="4.32347">
        <ele>515.1</ele>
        <time>2023-02-19T08:18:14Z</time>
      </trkpt>
      <trkpt lat="45.69513" lon="4.32344">
        <ele>515.3</ele>
        <time>2023-02-19T08:18:16Z</time>
      </trkpt>
      <trkpt lat="45.69513" lon="4.32342">
        <ele>515.3</ele>
        <time>2023-02-19T08:18:17Z</time>
      </trkpt>
      <trkpt lat="45.69514" lon="4.32341">
        <ele>515.4</ele>
        <time>2023-02-19T08:18:18Z</time>
      </trkpt>
      <trkpt lat="45.69514" lon="4.32339">
        <ele>515.5</ele>
        <time>2023-02-19T08:18:19Z</time>
      </trkpt>
      <trkpt lat="45.69515" lon="4.32336">
        <ele>515.6</ele>
        <time>2023-02-19T08:18:20Z</time>
      </trkpt>
      <trkpt lat="45.69515" lon="4.32335">
        <ele>515.7</ele>
        <time>2023-02-19T08:18:21Z</time>
      </trkpt>
      <trkpt lat="45.69515" lon="4.32334">
        <ele>515.7</ele>
        <time>2023-02-19T08:18:22Z</time>
      </trkpt>
      <trkpt lat="45.69516" lon="4.32331">
        <ele>515.9</ele>
        <time>2023-02-19T08:18:24Z</time>
      </trkpt>
      <trkpt lat="45.69516" lon="4.32329">
        <ele>515.9</ele>
        <time>2023-02-19T08:18:25Z</time>
      </trkpt>
      <trkpt lat="45.69516" lon="4.32328">
        <ele>516</ele>
        <time>2023-02-19T08:18:26Z</time>
      </trkpt>
      <trkpt lat="45.69516" lon="4.32325">
        <ele>516.1</ele>
        <time>2023-02-19T08:18:27Z</time>
      </trkpt>
      <trkpt lat="45.69517" lon="4.32324">
        <ele>516.1</ele>
        <time>2023-02-19T08:18:28Z</time>
      </trkpt>
      <trkpt lat="45.69517" lon="4.32323">
        <ele>516.2</ele>
        <time>2023-02-19T08:18:29Z</time>
      </trkpt>
      <trkpt lat="45.69517" lon="4.3232">
        <ele>516.3</ele>
        <time>2023-02-19T08:18:30Z</time>
      </trkpt>
      <trkpt lat="45.69516" lon="4.32317">
        <ele>516.4</ele>
        <time>2023-02-19T08:18:32Z</time>
      </trkpt>
      <trkpt lat="45.69516" lon="4.32315">
        <ele>516.5</ele>
        <time>2023-02-19T08:18:33Z</time>
      </trkpt>
      <trkpt lat="45.69516" lon="4.32312">
        <ele>516.6</ele>
        <time>2023-02-19T08:18:34Z</time>
      </trkpt>
      <trkpt lat="45.69516" lon="4.32308">
        <ele>516.7</ele>
        <time>2023-02-19T08:18:35Z</time>
      </trkpt>
      <trkpt lat="45.69517" lon="4.32306">
        <ele>516.8</ele>
        <time>2023-02-19T08:18:36Z</time>
      </trkpt>
      <trkpt lat="45.69517" lon="4.32304">
        <ele>516.9</ele>
        <time>2023-02-19T08:18:37Z</time>
      </trkpt>
      <trkpt lat="45.69517" lon="4.32301">
        <ele>517</ele>
        <time>2023-02-19T08:18:39Z</time>
      </trkpt>
      <trkpt lat="45.69517" lon="4.32299">
        <ele>517.1</ele>
        <time>2023-02-19T08:18:40Z</time>
      </trkpt>
      <trkpt lat="45.69517" lon="4.32296">
        <ele>517.2</ele>
        <time>2023-02-19T08:18:41Z</time>
      </trkpt>
      <trkpt lat="45.69517" lon="4.32294">
        <ele>517.2</ele>
        <time>2023-02-19T08:18:42Z</time>
      </trkpt>
      <trkpt lat="45.69518" lon="4.32292">
        <ele>517.3</ele>
        <time>2023-02-19T08:18:43Z</time>
      </trkpt>
      <trkpt lat="45.69518" lon="4.3229">
        <ele>517.4</ele>
        <time>2023-02-19T08:18:44Z</time>
      </trkpt>
      <trkpt lat="45.69518" lon="4.32288">
        <ele>517.4</ele>
        <time>2023-02-19T08:18:46Z</time>
      </trkpt>
      <trkpt lat="45.69518" lon="4.32285">
        <ele>517.5</ele>
        <time>2023-02-19T08:18:47Z</time>
      </trkpt>
      <trkpt lat="45.69518" lon="4.32283">
        <ele>517.6</ele>
        <time>2023-02-19T08:18:48Z</time>
      </trkpt>
      <trkpt lat="45.69517" lon="4.32281">
        <ele>517.7</ele>
        <time>2023-02-19T08:18:49Z</time>
      </trkpt>
      <trkpt lat="45.69518" lon="4.32278">
        <ele>517.8</ele>
        <time>2023-02-19T08:18:51Z</time>
      </trkpt>
      <trkpt lat="45.69518" lon="4.32275">
        <ele>517.9</ele>
        <time>2023-02-19T08:18:52Z</time>
      </trkpt>
      <trkpt lat="45.69518" lon="4.32273">
        <ele>517.9</ele>
        <time>2023-02-19T08:18:54Z</time>
      </trkpt>
      <trkpt lat="45.69518" lon="4.32272">
        <ele>517.9</ele>
        <time>2023-02-19T08:18:55Z</time>
      </trkpt>
      <trkpt lat="45.69519" lon="4.3227">
        <ele>518</ele>
        <time>2023-02-19T08:18:56Z</time>
      </trkpt>
      <trkpt lat="45.69519" lon="4.32268">
        <ele>518</ele>
        <time>2023-02-19T08:18:57Z</time>
      </trkpt>
      <trkpt lat="45.69519" lon="4.32267">
        <ele>518</ele>
        <time>2023-02-19T08:18:58Z</time>
      </trkpt>
      <trkpt lat="45.69519" lon="4.32265">
        <ele>518.1</ele>
        <time>2023-02-19T08:19:00Z</time>
      </trkpt>
      <trkpt lat="45.6952" lon="4.32263">
        <ele>518.1</ele>
        <time>2023-02-19T08:19:01Z</time>
      </trkpt>
      <trkpt lat="45.6952" lon="4.3226">
        <ele>518.2</ele>
        <time>2023-02-19T08:19:02Z</time>
      </trkpt>
      <trkpt lat="45.6952" lon="4.32258">
        <ele>518.2</ele>
        <time>2023-02-19T08:19:04Z</time>
      </trkpt>
      <trkpt lat="45.6952" lon="4.32257">
        <ele>518.2</ele>
        <time>2023-02-19T08:19:05Z</time>
      </trkpt>
      <trkpt lat="45.6952" lon="4.32255">
        <ele>518.2</ele>
        <time>2023-02-19T08:19:06Z</time>
      </trkpt>
      <trkpt lat="45.69519" lon="4.32254">
        <ele>518.2</ele>
        <time>2023-02-19T08:19:07Z</time>
      </trkpt>
      <trkpt lat="45.6952" lon="4.32252">
        <ele>518.2</ele>
        <time>2023-02-19T08:19:08Z</time>
      </trkpt>
      <trkpt lat="45.6952" lon="4.32249">
        <ele>518.3</ele>
        <time>2023-02-19T08:19:10Z</time>
      </trkpt>
      <trkpt lat="45.69521" lon="4.32247">
        <ele>518.3</ele>
        <time>2023-02-19T08:19:11Z</time>
      </trkpt>
      <trkpt lat="45.69521" lon="4.32245">
        <ele>518.3</ele>
        <time>2023-02-19T08:19:12Z</time>
      </trkpt>
      <trkpt lat="45.69521" lon="4.32243">
        <ele>518.3</ele>
        <time>2023-02-19T08:19:13Z</time>
      </trkpt>
      <trkpt lat="45.69522" lon="4.32241">
        <ele>518.3</ele>
        <time>2023-02-19T08:19:14Z</time>
      </trkpt>
      <trkpt lat="45.69522" lon="4.32239">
        <ele>518.3</ele>
        <time>2023-02-19T08:19:15Z</time>
      </trkpt>
      <trkpt lat="45.69523" lon="4.32237">
        <ele>518.3</ele>
        <time>2023-02-19T08:19:16Z</time>
      </trkpt>
      <trkpt lat="45.69523" lon="4.32235">
        <ele>518.3</ele>
        <time>2023-02-19T08:19:17Z</time>
      </trkpt>
      <trkpt lat="45.69523" lon="4.32234">
        <ele>518.3</ele>
        <time>2023-02-19T08:19:19Z</time>
      </trkpt>
      <trkpt lat="45.69523" lon="4.32232">
        <ele>518.3</ele>
        <time>2023-02-19T08:19:20Z</time>
      </trkpt>
      <trkpt lat="45.69523" lon="4.3223">
        <ele>518.4</ele>
        <time>2023-02-19T08:19:21Z</time>
      </trkpt>
      <trkpt lat="45.69523" lon="4.32229">
        <ele>518.4</ele>
        <time>2023-02-19T08:19:22Z</time>
      </trkpt>
      <trkpt lat="45.69523" lon="4.32227">
        <ele>518.4</ele>
        <time>2023-02-19T08:19:23Z</time>
      </trkpt>
      <trkpt lat="45.69524" lon="4.32225">
        <ele>518.4</ele>
        <time>2023-02-19T08:19:24Z</time>
      </trkpt>
      <trkpt lat="45.69525" lon="4.32223">
        <ele>518.4</ele>
        <time>2023-02-19T08:19:25Z</time>
      </trkpt>
      <trkpt lat="45.69525" lon="4.3222">
        <ele>518.4</ele>
        <time>2023-02-19T08:19:26Z</time>
      </trkpt>
      <trkpt lat="45.69527" lon="4.32216">
        <ele>518.4</ele>
        <time>2023-02-19T08:19:28Z</time>
      </trkpt>
      <trkpt lat="45.69527" lon="4.32213">
        <ele>518.4</ele>
        <time>2023-02-19T08:19:29Z</time>
      </trkpt>
      <trkpt lat="45.69528" lon="4.32211">
        <ele>518.4</ele>
        <time>2023-02-19T08:19:31Z</time>
      </trkpt>
      <trkpt lat="45.69528" lon="4.3221">
        <ele>518.4</ele>
        <time>2023-02-19T08:19:32Z</time>
      </trkpt>
      <trkpt lat="45.69529" lon="4.32207">
        <ele>518.4</ele>
        <time>2023-02-19T08:19:33Z</time>
      </trkpt>
      <trkpt lat="45.6953" lon="4.32205">
        <ele>518.4</ele>
        <time>2023-02-19T08:19:34Z</time>
      </trkpt>
      <trkpt lat="45.6953" lon="4.32204">
        <ele>518.4</ele>
        <time>2023-02-19T08:19:35Z</time>
      </trkpt>
      <trkpt lat="45.69531" lon="4.32202">
        <ele>518.4</ele>
        <time>2023-02-19T08:19:36Z</time>
      </trkpt>
      <trkpt lat="45.69531" lon="4.32198">
        <ele>518.4</ele>
        <time>2023-02-19T08:19:38Z</time>
      </trkpt>
      <trkpt lat="45.69532" lon="4.32196">
        <ele>518.4</ele>
        <time>2023-02-19T08:19:39Z</time>
      </trkpt>
      <trkpt lat="45.69532" lon="4.32194">
        <ele>518.4</ele>
        <time>2023-02-19T08:19:40Z</time>
      </trkpt>
      <trkpt lat="45.69532" lon="4.32191">
        <ele>518.4</ele>
        <time>2023-02-19T08:19:41Z</time>
      </trkpt>
      <trkpt lat="45.69532" lon="4.32189">
        <ele>518.4</ele>
        <time>2023-02-19T08:19:42Z</time>
      </trkpt>
      <trkpt lat="45.69532" lon="4.32186">
        <ele>518.4</ele>
        <time>2023-02-19T08:19:43Z</time>
      </trkpt>
      <trkpt lat="45.69532" lon="4.32184">
        <ele>518.4</ele>
        <time>2023-02-19T08:19:44Z</time>
      </trkpt>
      <trkpt lat="45.69532" lon="4.32182">
        <ele>518.4</ele>
        <time>2023-02-19T08:19:46Z</time>
      </trkpt>
      <trkpt lat="45.69532" lon="4.32179">
        <ele>518.5</ele>
        <time>2023-02-19T08:19:47Z</time>
      </trkpt>
      <trkpt lat="45.69532" lon="4.32177">
        <ele>518.5</ele>
        <time>2023-02-19T08:19:48Z</time>
      </trkpt>
      <trkpt lat="45.69532" lon="4.32175">
        <ele>518.5</ele>
        <time>2023-02-19T08:19:49Z</time>
      </trkpt>
      <trkpt lat="45.69532" lon="4.32173">
        <ele>518.5</ele>
        <time>2023-02-19T08:19:50Z</time>
      </trkpt>
      <trkpt lat="45.69532" lon="4.32171">
        <ele>518.5</ele>
        <time>2023-02-19T08:19:51Z</time>
      </trkpt>
      <trkpt lat="45.69533" lon="4.32169">
        <ele>518.5</ele>
        <time>2023-02-19T08:19:52Z</time>
      </trkpt>
      <trkpt lat="45.69533" lon="4.32164">
        <ele>518.6</ele>
        <time>2023-02-19T08:19:54Z</time>
      </trkpt>
      <trkpt lat="45.69533" lon="4.32162">
        <ele>518.6</ele>
        <time>2023-02-19T08:19:56Z</time>
      </trkpt>
      <trkpt lat="45.69534" lon="4.3216">
        <ele>518.6</ele>
        <time>2023-02-19T08:19:57Z</time>
      </trkpt>
      <trkpt lat="45.69534" lon="4.32157">
        <ele>518.6</ele>
        <time>2023-02-19T08:19:58Z</time>
      </trkpt>
      <trkpt lat="45.69534" lon="4.32155">
        <ele>518.6</ele>
        <time>2023-02-19T08:19:59Z</time>
      </trkpt>
      <trkpt lat="45.69534" lon="4.32153">
        <ele>518.6</ele>
        <time>2023-02-19T08:20:00Z</time>
      </trkpt>
      <trkpt lat="45.69535" lon="4.32151">
        <ele>518.6</ele>
        <time>2023-02-19T08:20:01Z</time>
      </trkpt>
      <trkpt lat="45.69535" lon="4.32148">
        <ele>518.6</ele>
        <time>2023-02-19T08:20:03Z</time>
      </trkpt>
      <trkpt lat="45.69535" lon="4.32146">
        <ele>518.6</ele>
        <time>2023-02-19T08:20:04Z</time>
      </trkpt>
      <trkpt lat="45.69535" lon="4.32144">
        <ele>518.6</ele>
        <time>2023-02-19T08:20:05Z</time>
      </trkpt>
      <trkpt lat="45.69536" lon="4.32142">
        <ele>518.6</ele>
        <time>2023-02-19T08:20:06Z</time>
      </trkpt>
      <trkpt lat="45.69536" lon="4.3214">
        <ele>518.6</ele>
        <time>2023-02-19T08:20:07Z</time>
      </trkpt>
      <trkpt lat="45.69536" lon="4.32137">
        <ele>518.6</ele>
        <time>2023-02-19T08:20:08Z</time>
      </trkpt>
      <trkpt lat="45.69537" lon="4.32135">
        <ele>518.6</ele>
        <time>2023-02-19T08:20:09Z</time>
      </trkpt>
      <trkpt lat="45.69537" lon="4.32133">
        <ele>518.5</ele>
        <time>2023-02-19T08:20:10Z</time>
      </trkpt>
      <trkpt lat="45.69538" lon="4.32131">
        <ele>518.5</ele>
        <time>2023-02-19T08:20:11Z</time>
      </trkpt>
      <trkpt lat="45.69538" lon="4.32128">
        <ele>518.5</ele>
        <time>2023-02-19T08:20:12Z</time>
      </trkpt>
      <trkpt lat="45.69539" lon="4.32126">
        <ele>518.5</ele>
        <time>2023-02-19T08:20:14Z</time>
      </trkpt>
      <trkpt lat="45.6954" lon="4.32124">
        <ele>518.4</ele>
        <time>2023-02-19T08:20:15Z</time>
      </trkpt>
      <trkpt lat="45.69541" lon="4.32122">
        <ele>518.4</ele>
        <time>2023-02-19T08:20:16Z</time>
      </trkpt>
      <trkpt lat="45.69542" lon="4.3212">
        <ele>518.4</ele>
        <time>2023-02-19T08:20:17Z</time>
      </trkpt>
      <trkpt lat="45.69543" lon="4.32119">
        <ele>518.3</ele>
        <time>2023-02-19T08:20:18Z</time>
      </trkpt>
      <trkpt lat="45.69543" lon="4.32117">
        <ele>518.3</ele>
        <time>2023-02-19T08:20:19Z</time>
      </trkpt>
      <trkpt lat="45.69544" lon="4.32115">
        <ele>518.3</ele>
        <time>2023-02-19T08:20:20Z</time>
      </trkpt>
      <trkpt lat="45.69546" lon="4.32111">
        <ele>518.2</ele>
        <time>2023-02-19T08:20:21Z</time>
      </trkpt>
      <trkpt lat="45.69547" lon="4.3211">
        <ele>518.2</ele>
        <time>2023-02-19T08:20:22Z</time>
      </trkpt>
      <trkpt lat="45.69549" lon="4.32108">
        <ele>518.1</ele>
        <time>2023-02-19T08:20:23Z</time>
      </trkpt>
      <trkpt lat="45.69551" lon="4.32107">
        <ele>518</ele>
        <time>2023-02-19T08:20:25Z</time>
      </trkpt>
      <trkpt lat="45.69552" lon="4.32105">
        <ele>517.9</ele>
        <time>2023-02-19T08:20:26Z</time>
      </trkpt>
      <trkpt lat="45.69553" lon="4.32104">
        <ele>517.9</ele>
        <time>2023-02-19T08:20:27Z</time>
      </trkpt>
      <trkpt lat="45.69554" lon="4.32101">
        <ele>517.7</ele>
        <time>2023-02-19T08:20:28Z</time>
      </trkpt>
      <trkpt lat="45.69555" lon="4.321">
        <ele>517.7</ele>
        <time>2023-02-19T08:20:29Z</time>
      </trkpt>
      <trkpt lat="45.69555" lon="4.32099">
        <ele>517.7</ele>
        <time>2023-02-19T08:20:30Z</time>
      </trkpt>
      <trkpt lat="45.69555" lon="4.32098">
        <ele>517.6</ele>
        <time>2023-02-19T08:20:31Z</time>
      </trkpt>
      <trkpt lat="45.69556" lon="4.32096">
        <ele>517.5</ele>
        <time>2023-02-19T08:20:32Z</time>
      </trkpt>
      <trkpt lat="45.69557" lon="4.32095">
        <ele>517.5</ele>
        <time>2023-02-19T08:20:34Z</time>
      </trkpt>
      <trkpt lat="45.69557" lon="4.32093">
        <ele>517.4</ele>
        <time>2023-02-19T08:20:35Z</time>
      </trkpt>
      <trkpt lat="45.69558" lon="4.3209">
        <ele>517.3</ele>
        <time>2023-02-19T08:20:36Z</time>
      </trkpt>
      <trkpt lat="45.69558" lon="4.32088">
        <ele>517.2</ele>
        <time>2023-02-19T08:20:37Z</time>
      </trkpt>
      <trkpt lat="45.69558" lon="4.32086">
        <ele>517.1</ele>
        <time>2023-02-19T08:20:38Z</time>
      </trkpt>
      <trkpt lat="45.69559" lon="4.32084">
        <ele>517</ele>
        <time>2023-02-19T08:20:39Z</time>
      </trkpt>
      <trkpt lat="45.69559" lon="4.32082">
        <ele>516.9</ele>
        <time>2023-02-19T08:20:40Z</time>
      </trkpt>
      <trkpt lat="45.69559" lon="4.32078">
        <ele>516.8</ele>
        <time>2023-02-19T08:20:42Z</time>
      </trkpt>
      <trkpt lat="45.69559" lon="4.32077">
        <ele>516.7</ele>
        <time>2023-02-19T08:20:43Z</time>
      </trkpt>
      <trkpt lat="45.6956" lon="4.32074">
        <ele>516.6</ele>
        <time>2023-02-19T08:20:44Z</time>
      </trkpt>
      <trkpt lat="45.6956" lon="4.32072">
        <ele>516.5</ele>
        <time>2023-02-19T08:20:45Z</time>
      </trkpt>
      <trkpt lat="45.6956" lon="4.32071">
        <ele>516.5</ele>
        <time>2023-02-19T08:20:46Z</time>
      </trkpt>
      <trkpt lat="45.69561" lon="4.3207">
        <ele>516.4</ele>
        <time>2023-02-19T08:20:47Z</time>
      </trkpt>
      <trkpt lat="45.69561" lon="4.32067">
        <ele>516.3</ele>
        <time>2023-02-19T08:20:48Z</time>
      </trkpt>
      <trkpt lat="45.69561" lon="4.32065">
        <ele>516.2</ele>
        <time>2023-02-19T08:20:49Z</time>
      </trkpt>
      <trkpt lat="45.69561" lon="4.32063">
        <ele>516.1</ele>
        <time>2023-02-19T08:20:51Z</time>
      </trkpt>
      <trkpt lat="45.69562" lon="4.32061">
        <ele>516</ele>
        <time>2023-02-19T08:20:52Z</time>
      </trkpt>
      <trkpt lat="45.69563" lon="4.32059">
        <ele>515.9</ele>
        <time>2023-02-19T08:20:53Z</time>
      </trkpt>
      <trkpt lat="45.69563" lon="4.32057">
        <ele>515.8</ele>
        <time>2023-02-19T08:20:54Z</time>
      </trkpt>
      <trkpt lat="45.69564" lon="4.32056">
        <ele>515.8</ele>
        <time>2023-02-19T08:20:55Z</time>
      </trkpt>
      <trkpt lat="45.69564" lon="4.32054">
        <ele>515.7</ele>
        <time>2023-02-19T08:20:56Z</time>
      </trkpt>
      <trkpt lat="45.69564" lon="4.32051">
        <ele>515.6</ele>
        <time>2023-02-19T08:20:57Z</time>
      </trkpt>
      <trkpt lat="45.69564" lon="4.3205">
        <ele>515.5</ele>
        <time>2023-02-19T08:20:58Z</time>
      </trkpt>
      <trkpt lat="45.69564" lon="4.32049">
        <ele>515.5</ele>
        <time>2023-02-19T08:20:59Z</time>
      </trkpt>
      <trkpt lat="45.69564" lon="4.32046">
        <ele>515.4</ele>
        <time>2023-02-19T08:21:01Z</time>
      </trkpt>
      <trkpt lat="45.69564" lon="4.32045">
        <ele>515.3</ele>
        <time>2023-02-19T08:21:02Z</time>
      </trkpt>
      <trkpt lat="45.69565" lon="4.32043">
        <ele>515.2</ele>
        <time>2023-02-19T08:21:03Z</time>
      </trkpt>
      <trkpt lat="45.69565" lon="4.32041">
        <ele>515.1</ele>
        <time>2023-02-19T08:21:04Z</time>
      </trkpt>
      <trkpt lat="45.69566" lon="4.32038">
        <ele>515</ele>
        <time>2023-02-19T08:21:06Z</time>
      </trkpt>
      <trkpt lat="45.69566" lon="4.32036">
        <ele>514.9</ele>
        <time>2023-02-19T08:21:07Z</time>
      </trkpt>
      <trkpt lat="45.69567" lon="4.32034">
        <ele>514.8</ele>
        <time>2023-02-19T08:21:08Z</time>
      </trkpt>
      <trkpt lat="45.69567" lon="4.32032">
        <ele>514.7</ele>
        <time>2023-02-19T08:21:09Z</time>
      </trkpt>
      <trkpt lat="45.69568" lon="4.3203">
        <ele>514.6</ele>
        <time>2023-02-19T08:21:10Z</time>
      </trkpt>
      <trkpt lat="45.69568" lon="4.32029">
        <ele>514.5</ele>
        <time>2023-02-19T08:21:11Z</time>
      </trkpt>
      <trkpt lat="45.69568" lon="4.32028">
        <ele>514.4</ele>
        <time>2023-02-19T08:21:12Z</time>
      </trkpt>
      <trkpt lat="45.69569" lon="4.32026">
        <ele>514.3</ele>
        <time>2023-02-19T08:21:14Z</time>
      </trkpt>
      <trkpt lat="45.69569" lon="4.32024">
        <ele>514.2</ele>
        <time>2023-02-19T08:21:15Z</time>
      </trkpt>
      <trkpt lat="45.69569" lon="4.32022">
        <ele>514.1</ele>
        <time>2023-02-19T08:21:16Z</time>
      </trkpt>
      <trkpt lat="45.6957" lon="4.3202">
        <ele>514</ele>
        <time>2023-02-19T08:21:17Z</time>
      </trkpt>
      <trkpt lat="45.6957" lon="4.32018">
        <ele>513.9</ele>
        <time>2023-02-19T08:21:19Z</time>
      </trkpt>
      <trkpt lat="45.69571" lon="4.32016">
        <ele>513.8</ele>
        <time>2023-02-19T08:21:20Z</time>
      </trkpt>
      <trkpt lat="45.69571" lon="4.32014">
        <ele>513.7</ele>
        <time>2023-02-19T08:21:21Z</time>
      </trkpt>
      <trkpt lat="45.69571" lon="4.32012">
        <ele>513.6</ele>
        <time>2023-02-19T08:21:22Z</time>
      </trkpt>
      <trkpt lat="45.69572" lon="4.32009">
        <ele>513.5</ele>
        <time>2023-02-19T08:21:23Z</time>
      </trkpt>
      <trkpt lat="45.69572" lon="4.32007">
        <ele>513.4</ele>
        <time>2023-02-19T08:21:24Z</time>
      </trkpt>
      <trkpt lat="45.69572" lon="4.32005">
        <ele>513.3</ele>
        <time>2023-02-19T08:21:25Z</time>
      </trkpt>
      <trkpt lat="45.69572" lon="4.32003">
        <ele>513.2</ele>
        <time>2023-02-19T08:21:27Z</time>
      </trkpt>
      <trkpt lat="45.69573" lon="4.32">
        <ele>513.1</ele>
        <time>2023-02-19T08:21:28Z</time>
      </trkpt>
      <trkpt lat="45.69573" lon="4.31999">
        <ele>513</ele>
        <time>2023-02-19T08:21:29Z</time>
      </trkpt>
      <trkpt lat="45.69573" lon="4.31997">
        <ele>512.9</ele>
        <time>2023-02-19T08:21:30Z</time>
      </trkpt>
      <trkpt lat="45.69573" lon="4.31995">
        <ele>512.8</ele>
        <time>2023-02-19T08:21:31Z</time>
      </trkpt>
      <trkpt lat="45.69573" lon="4.31994">
        <ele>512.7</ele>
        <time>2023-02-19T08:21:32Z</time>
      </trkpt>
      <trkpt lat="45.69573" lon="4.31992">
        <ele>512.7</ele>
        <time>2023-02-19T08:21:33Z</time>
      </trkpt>
      <trkpt lat="45.69573" lon="4.3199">
        <ele>512.6</ele>
        <time>2023-02-19T08:21:35Z</time>
      </trkpt>
      <trkpt lat="45.69573" lon="4.31989">
        <ele>512.5</ele>
        <time>2023-02-19T08:21:36Z</time>
      </trkpt>
      <trkpt lat="45.69573" lon="4.31988">
        <ele>512.5</ele>
        <time>2023-02-19T08:21:37Z</time>
      </trkpt>
      <trkpt lat="45.69573" lon="4.31986">
        <ele>512.4</ele>
        <time>2023-02-19T08:21:38Z</time>
      </trkpt>
      <trkpt lat="45.69573" lon="4.31985">
        <ele>512.3</ele>
        <time>2023-02-19T08:21:39Z</time>
      </trkpt>
      <trkpt lat="45.69573" lon="4.31984">
        <ele>512.3</ele>
        <time>2023-02-19T08:21:40Z</time>
      </trkpt>
      <trkpt lat="45.69573" lon="4.31983">
        <ele>512.3</ele>
        <time>2023-02-19T08:21:41Z</time>
      </trkpt>
      <trkpt lat="45.69572" lon="4.31982">
        <ele>512.2</ele>
        <time>2023-02-19T08:21:42Z</time>
      </trkpt>
      <trkpt lat="45.69572" lon="4.31981">
        <ele>512.1</ele>
        <time>2023-02-19T08:21:43Z</time>
      </trkpt>
      <trkpt lat="45.69572" lon="4.3198">
        <ele>512.1</ele>
        <time>2023-02-19T08:21:44Z</time>
      </trkpt>
      <trkpt lat="45.69571" lon="4.31978">
        <ele>512</ele>
        <time>2023-02-19T08:21:45Z</time>
      </trkpt>
      <trkpt lat="45.6957" lon="4.31977">
        <ele>511.9</ele>
        <time>2023-02-19T08:21:47Z</time>
      </trkpt>
      <trkpt lat="45.69569" lon="4.31976">
        <ele>511.8</ele>
        <time>2023-02-19T08:21:48Z</time>
      </trkpt>
      <trkpt lat="45.69568" lon="4.31974">
        <ele>511.7</ele>
        <time>2023-02-19T08:21:49Z</time>
      </trkpt>
      <trkpt lat="45.69568" lon="4.31973">
        <ele>511.7</ele>
        <time>2023-02-19T08:21:50Z</time>
      </trkpt>
      <trkpt lat="45.69567" lon="4.31971">
        <ele>511.6</ele>
        <time>2023-02-19T08:21:51Z</time>
      </trkpt>
      <trkpt lat="45.69566" lon="4.31967">
        <ele>511.4</ele>
        <time>2023-02-19T08:21:53Z</time>
      </trkpt>
      <trkpt lat="45.69566" lon="4.31966">
        <ele>511.3</ele>
        <time>2023-02-19T08:21:54Z</time>
      </trkpt>
      <trkpt lat="45.69565" lon="4.31964">
        <ele>511.2</ele>
        <time>2023-02-19T08:21:55Z</time>
      </trkpt>
      <trkpt lat="45.69565" lon="4.31962">
        <ele>511.1</ele>
        <time>2023-02-19T08:21:56Z</time>
      </trkpt>
      <trkpt lat="45.69565" lon="4.3196">
        <ele>511</ele>
        <time>2023-02-19T08:21:57Z</time>
      </trkpt>
      <trkpt lat="45.69565" lon="4.31955">
        <ele>510.8</ele>
        <time>2023-02-19T08:21:59Z</time>
      </trkpt>
      <trkpt lat="45.69564" lon="4.31953">
        <ele>510.7</ele>
        <time>2023-02-19T08:22:01Z</time>
      </trkpt>
      <trkpt lat="45.69564" lon="4.31951">
        <ele>510.6</ele>
        <time>2023-02-19T08:22:02Z</time>
      </trkpt>
      <trkpt lat="45.69564" lon="4.31948">
        <ele>510.4</ele>
        <time>2023-02-19T08:22:03Z</time>
      </trkpt>
      <trkpt lat="45.69564" lon="4.31946">
        <ele>510.3</ele>
        <time>2023-02-19T08:22:04Z</time>
      </trkpt>
      <trkpt lat="45.69563" lon="4.31944">
        <ele>510.2</ele>
        <time>2023-02-19T08:22:05Z</time>
      </trkpt>
      <trkpt lat="45.69563" lon="4.31942">
        <ele>510.1</ele>
        <time>2023-02-19T08:22:06Z</time>
      </trkpt>
      <trkpt lat="45.69563" lon="4.3194">
        <ele>509.9</ele>
        <time>2023-02-19T08:22:07Z</time>
      </trkpt>
      <trkpt lat="45.69562" lon="4.31939">
        <ele>509.8</ele>
        <time>2023-02-19T08:22:08Z</time>
      </trkpt>
      <trkpt lat="45.69562" lon="4.31937">
        <ele>509.7</ele>
        <time>2023-02-19T08:22:09Z</time>
      </trkpt>
      <trkpt lat="45.69561" lon="4.31935">
        <ele>509.6</ele>
        <time>2023-02-19T08:22:11Z</time>
      </trkpt>
      <trkpt lat="45.69561" lon="4.31933">
        <ele>509.5</ele>
        <time>2023-02-19T08:22:12Z</time>
      </trkpt>
      <trkpt lat="45.6956" lon="4.31931">
        <ele>509.4</ele>
        <time>2023-02-19T08:22:13Z</time>
      </trkpt>
      <trkpt lat="45.6956" lon="4.31929">
        <ele>509.3</ele>
        <time>2023-02-19T08:22:14Z</time>
      </trkpt>
      <trkpt lat="45.69559" lon="4.31927">
        <ele>509.1</ele>
        <time>2023-02-19T08:22:15Z</time>
      </trkpt>
      <trkpt lat="45.69558" lon="4.31923">
        <ele>508.9</ele>
        <time>2023-02-19T08:22:17Z</time>
      </trkpt>
      <trkpt lat="45.69558" lon="4.31922">
        <ele>508.9</ele>
        <time>2023-02-19T08:22:18Z</time>
      </trkpt>
      <trkpt lat="45.69557" lon="4.3192">
        <ele>508.8</ele>
        <time>2023-02-19T08:22:19Z</time>
      </trkpt>
      <trkpt lat="45.69557" lon="4.31919">
        <ele>508.7</ele>
        <time>2023-02-19T08:22:20Z</time>
      </trkpt>
      <trkpt lat="45.69557" lon="4.31917">
        <ele>508.7</ele>
        <time>2023-02-19T08:22:21Z</time>
      </trkpt>
      <trkpt lat="45.69557" lon="4.31915">
        <ele>508.5</ele>
        <time>2023-02-19T08:22:22Z</time>
      </trkpt>
      <trkpt lat="45.69556" lon="4.31912">
        <ele>508.4</ele>
        <time>2023-02-19T08:22:23Z</time>
      </trkpt>
      <trkpt lat="45.69556" lon="4.3191">
        <ele>508.3</ele>
        <time>2023-02-19T08:22:25Z</time>
      </trkpt>
      <trkpt lat="45.69556" lon="4.31908">
        <ele>508.2</ele>
        <time>2023-02-19T08:22:26Z</time>
      </trkpt>
      <trkpt lat="45.69555" lon="4.31906">
        <ele>508.1</ele>
        <time>2023-02-19T08:22:27Z</time>
      </trkpt>
      <trkpt lat="45.69555" lon="4.31903">
        <ele>508.1</ele>
        <time>2023-02-19T08:22:28Z</time>
      </trkpt>
      <trkpt lat="45.69555" lon="4.31901">
        <ele>508</ele>
        <time>2023-02-19T08:22:29Z</time>
      </trkpt>
      <trkpt lat="45.69555" lon="4.31899">
        <ele>507.9</ele>
        <time>2023-02-19T08:22:30Z</time>
      </trkpt>
      <trkpt lat="45.69554" lon="4.31894">
        <ele>507.7</ele>
        <time>2023-02-19T08:22:32Z</time>
      </trkpt>
      <trkpt lat="45.69554" lon="4.31893">
        <ele>507.6</ele>
        <time>2023-02-19T08:22:33Z</time>
      </trkpt>
      <trkpt lat="45.69554" lon="4.3189">
        <ele>507.6</ele>
        <time>2023-02-19T08:22:34Z</time>
      </trkpt>
      <trkpt lat="45.69553" lon="4.31887">
        <ele>507.5</ele>
        <time>2023-02-19T08:22:35Z</time>
      </trkpt>
      <trkpt lat="45.69553" lon="4.31884">
        <ele>507.3</ele>
        <time>2023-02-19T08:22:36Z</time>
      </trkpt>
      <trkpt lat="45.69553" lon="4.31882">
        <ele>507.3</ele>
        <time>2023-02-19T08:22:37Z</time>
      </trkpt>
      <trkpt lat="45.69553" lon="4.3188">
        <ele>507.2</ele>
        <time>2023-02-19T08:22:38Z</time>
      </trkpt>
      <trkpt lat="45.69552" lon="4.31878">
        <ele>507.1</ele>
        <time>2023-02-19T08:22:39Z</time>
      </trkpt>
      <trkpt lat="45.69552" lon="4.31875">
        <ele>507.1</ele>
        <time>2023-02-19T08:22:41Z</time>
      </trkpt>
      <trkpt lat="45.69552" lon="4.31874">
        <ele>507</ele>
        <time>2023-02-19T08:22:42Z</time>
      </trkpt>
      <trkpt lat="45.69552" lon="4.31872">
        <ele>507</ele>
        <time>2023-02-19T08:22:43Z</time>
      </trkpt>
      <trkpt lat="45.69552" lon="4.3187">
        <ele>506.9</ele>
        <time>2023-02-19T08:22:44Z</time>
      </trkpt>
      <trkpt lat="45.69552" lon="4.31868">
        <ele>506.8</ele>
        <time>2023-02-19T08:22:45Z</time>
      </trkpt>
      <trkpt lat="45.69552" lon="4.31866">
        <ele>506.8</ele>
        <time>2023-02-19T08:22:46Z</time>
      </trkpt>
      <trkpt lat="45.69552" lon="4.31864">
        <ele>506.7</ele>
        <time>2023-02-19T08:22:47Z</time>
      </trkpt>
      <trkpt lat="45.69552" lon="4.31862">
        <ele>506.6</ele>
        <time>2023-02-19T08:22:48Z</time>
      </trkpt>
      <trkpt lat="45.69552" lon="4.3186">
        <ele>506.6</ele>
        <time>2023-02-19T08:22:49Z</time>
      </trkpt>
      <trkpt lat="45.69553" lon="4.31858">
        <ele>506.5</ele>
        <time>2023-02-19T08:22:51Z</time>
      </trkpt>
      <trkpt lat="45.69553" lon="4.31856">
        <ele>506.4</ele>
        <time>2023-02-19T08:22:52Z</time>
      </trkpt>
      <trkpt lat="45.69553" lon="4.31854">
        <ele>506.3</ele>
        <time>2023-02-19T08:22:53Z</time>
      </trkpt>
      <trkpt lat="45.69554" lon="4.31851">
        <ele>506.3</ele>
        <time>2023-02-19T08:22:54Z</time>
      </trkpt>
      <trkpt lat="45.69554" lon="4.31847">
        <ele>505.9</ele>
        <time>2023-02-19T08:22:56Z</time>
      </trkpt>
      <trkpt lat="45.69555" lon="4.31846">
        <ele>505.9</ele>
        <time>2023-02-19T08:22:57Z</time>
      </trkpt>
      <trkpt lat="45.69555" lon="4.31844">
        <ele>505.7</ele>
        <time>2023-02-19T08:22:58Z</time>
      </trkpt>
      <trkpt lat="45.69555" lon="4.31843">
        <ele>505.6</ele>
        <time>2023-02-19T08:22:59Z</time>
      </trkpt>
      <trkpt lat="45.69555" lon="4.31839">
        <ele>505.4</ele>
        <time>2023-02-19T08:23:01Z</time>
      </trkpt>
      <trkpt lat="45.69555" lon="4.31835">
        <ele>505.2</ele>
        <time>2023-02-19T08:23:02Z</time>
      </trkpt>
      <trkpt lat="45.69554" lon="4.31834">
        <ele>505.1</ele>
        <time>2023-02-19T08:23:03Z</time>
      </trkpt>
      <trkpt lat="45.69553" lon="4.3183">
        <ele>504.8</ele>
        <time>2023-02-19T08:23:04Z</time>
      </trkpt>
      <trkpt lat="45.69551" lon="4.31824">
        <ele>504.5</ele>
        <time>2023-02-19T08:23:05Z</time>
      </trkpt>
      <trkpt lat="45.69551" lon="4.31819">
        <ele>504.3</ele>
        <time>2023-02-19T08:23:07Z</time>
      </trkpt>
      <trkpt lat="45.69551" lon="4.31815">
        <ele>504.1</ele>
        <time>2023-02-19T08:23:08Z</time>
      </trkpt>
      <trkpt lat="45.69551" lon="4.31814">
        <ele>504</ele>
        <time>2023-02-19T08:23:09Z</time>
      </trkpt>
      <trkpt lat="45.69553" lon="4.31809">
        <ele>503.8</ele>
        <time>2023-02-19T08:23:10Z</time>
      </trkpt>
      <trkpt lat="45.69553" lon="4.31807">
        <ele>503.7</ele>
        <time>2023-02-19T08:23:11Z</time>
      </trkpt>
      <trkpt lat="45.69555" lon="4.31802">
        <ele>503.4</ele>
        <time>2023-02-19T08:23:13Z</time>
      </trkpt>
      <trkpt lat="45.69556" lon="4.318">
        <ele>503.3</ele>
        <time>2023-02-19T08:23:14Z</time>
      </trkpt>
      <trkpt lat="45.69556" lon="4.31798">
        <ele>503.2</ele>
        <time>2023-02-19T08:23:15Z</time>
      </trkpt>
      <trkpt lat="45.69557" lon="4.31796">
        <ele>503.1</ele>
        <time>2023-02-19T08:23:16Z</time>
      </trkpt>
      <trkpt lat="45.69558" lon="4.31792">
        <ele>502.9</ele>
        <time>2023-02-19T08:23:18Z</time>
      </trkpt>
      <trkpt lat="45.6956" lon="4.31789">
        <ele>502.6</ele>
        <time>2023-02-19T08:23:19Z</time>
      </trkpt>
      <trkpt lat="45.69561" lon="4.31788">
        <ele>502.5</ele>
        <time>2023-02-19T08:23:20Z</time>
      </trkpt>
      <trkpt lat="45.69562" lon="4.31786">
        <ele>502.4</ele>
        <time>2023-02-19T08:23:21Z</time>
      </trkpt>
      <trkpt lat="45.69563" lon="4.31784">
        <ele>502.3</ele>
        <time>2023-02-19T08:23:22Z</time>
      </trkpt>
      <trkpt lat="45.69563" lon="4.31782">
        <ele>502.1</ele>
        <time>2023-02-19T08:23:23Z</time>
      </trkpt>
      <trkpt lat="45.69563" lon="4.3178">
        <ele>502</ele>
        <time>2023-02-19T08:23:24Z</time>
      </trkpt>
      <trkpt lat="45.69563" lon="4.31777">
        <ele>501.8</ele>
        <time>2023-02-19T08:23:25Z</time>
      </trkpt>
      <trkpt lat="45.69563" lon="4.31776">
        <ele>501.7</ele>
        <time>2023-02-19T08:23:26Z</time>
      </trkpt>
      <trkpt lat="45.69564" lon="4.31774">
        <ele>501.6</ele>
        <time>2023-02-19T08:23:28Z</time>
      </trkpt>
      <trkpt lat="45.69564" lon="4.3177">
        <ele>501.3</ele>
        <time>2023-02-19T08:23:29Z</time>
      </trkpt>
      <trkpt lat="45.69564" lon="4.31769">
        <ele>501.2</ele>
        <time>2023-02-19T08:23:30Z</time>
      </trkpt>
      <trkpt lat="45.69564" lon="4.31768">
        <ele>501.1</ele>
        <time>2023-02-19T08:23:31Z</time>
      </trkpt>
      <trkpt lat="45.69565" lon="4.31766">
        <ele>501</ele>
        <time>2023-02-19T08:23:32Z</time>
      </trkpt>
      <trkpt lat="45.69565" lon="4.31763">
        <ele>500.7</ele>
        <time>2023-02-19T08:23:33Z</time>
      </trkpt>
      <trkpt lat="45.69565" lon="4.31761">
        <ele>500.6</ele>
        <time>2023-02-19T08:23:35Z</time>
      </trkpt>
      <trkpt lat="45.69565" lon="4.31759">
        <ele>500.4</ele>
        <time>2023-02-19T08:23:36Z</time>
      </trkpt>
      <trkpt lat="45.69564" lon="4.31757">
        <ele>500.2</ele>
        <time>2023-02-19T08:23:37Z</time>
      </trkpt>
      <trkpt lat="45.69564" lon="4.31755">
        <ele>500</ele>
        <time>2023-02-19T08:23:38Z</time>
      </trkpt>
      <trkpt lat="45.69563" lon="4.31753">
        <ele>499.8</ele>
        <time>2023-02-19T08:23:39Z</time>
      </trkpt>
      <trkpt lat="45.69563" lon="4.3175">
        <ele>499.6</ele>
        <time>2023-02-19T08:23:40Z</time>
      </trkpt>
      <trkpt lat="45.69563" lon="4.31748">
        <ele>499.4</ele>
        <time>2023-02-19T08:23:41Z</time>
      </trkpt>
      <trkpt lat="45.69563" lon="4.31746">
        <ele>499.2</ele>
        <time>2023-02-19T08:23:42Z</time>
      </trkpt>
      <trkpt lat="45.69563" lon="4.31744">
        <ele>499</ele>
        <time>2023-02-19T08:23:43Z</time>
      </trkpt>
      <trkpt lat="45.69563" lon="4.31742">
        <ele>498.8</ele>
        <time>2023-02-19T08:23:44Z</time>
      </trkpt>
      <trkpt lat="45.69563" lon="4.31739">
        <ele>498.5</ele>
        <time>2023-02-19T08:23:45Z</time>
      </trkpt>
      <trkpt lat="45.69563" lon="4.31737">
        <ele>498.4</ele>
        <time>2023-02-19T08:23:47Z</time>
      </trkpt>
      <trkpt lat="45.69563" lon="4.31736">
        <ele>498.2</ele>
        <time>2023-02-19T08:23:48Z</time>
      </trkpt>
      <trkpt lat="45.69563" lon="4.31734">
        <ele>498</ele>
        <time>2023-02-19T08:23:49Z</time>
      </trkpt>
      <trkpt lat="45.69563" lon="4.31732">
        <ele>497.8</ele>
        <time>2023-02-19T08:23:50Z</time>
      </trkpt>
      <trkpt lat="45.69563" lon="4.31728">
        <ele>497.4</ele>
        <time>2023-02-19T08:23:51Z</time>
      </trkpt>
      <trkpt lat="45.69563" lon="4.31727">
        <ele>497.3</ele>
        <time>2023-02-19T08:23:52Z</time>
      </trkpt>
      <trkpt lat="45.69564" lon="4.31725">
        <ele>497.1</ele>
        <time>2023-02-19T08:23:53Z</time>
      </trkpt>
      <trkpt lat="45.69564" lon="4.31723">
        <ele>497</ele>
        <time>2023-02-19T08:23:54Z</time>
      </trkpt>
      <trkpt lat="45.69565" lon="4.31722">
        <ele>496.8</ele>
        <time>2023-02-19T08:23:56Z</time>
      </trkpt>
      <trkpt lat="45.69565" lon="4.3172">
        <ele>496.7</ele>
        <time>2023-02-19T08:23:57Z</time>
      </trkpt>
      <trkpt lat="45.69565" lon="4.31719">
        <ele>496.5</ele>
        <time>2023-02-19T08:23:58Z</time>
      </trkpt>
      <trkpt lat="45.69565" lon="4.31716">
        <ele>496.3</ele>
        <time>2023-02-19T08:24:00Z</time>
      </trkpt>
      <trkpt lat="45.69566" lon="4.31714">
        <ele>496</ele>
        <time>2023-02-19T08:24:01Z</time>
      </trkpt>
      <trkpt lat="45.69566" lon="4.31712">
        <ele>495.9</ele>
        <time>2023-02-19T08:24:02Z</time>
      </trkpt>
      <trkpt lat="45.69566" lon="4.31711">
        <ele>495.8</ele>
        <time>2023-02-19T08:24:03Z</time>
      </trkpt>
      <trkpt lat="45.69566" lon="4.3171">
        <ele>495.6</ele>
        <time>2023-02-19T08:24:04Z</time>
      </trkpt>
      <trkpt lat="45.69566" lon="4.31708">
        <ele>495.5</ele>
        <time>2023-02-19T08:24:05Z</time>
      </trkpt>
      <trkpt lat="45.69566" lon="4.31707">
        <ele>495.3</ele>
        <time>2023-02-19T08:24:06Z</time>
      </trkpt>
      <trkpt lat="45.69566" lon="4.31704">
        <ele>495</ele>
        <time>2023-02-19T08:24:08Z</time>
      </trkpt>
      <trkpt lat="45.69566" lon="4.31702">
        <ele>494.9</ele>
        <time>2023-02-19T08:24:09Z</time>
      </trkpt>
      <trkpt lat="45.69566" lon="4.31701">
        <ele>494.8</ele>
        <time>2023-02-19T08:24:10Z</time>
      </trkpt>
      <trkpt lat="45.69566" lon="4.31698">
        <ele>494.5</ele>
        <time>2023-02-19T08:24:11Z</time>
      </trkpt>
      <trkpt lat="45.69566" lon="4.31697">
        <ele>494.4</ele>
        <time>2023-02-19T08:24:12Z</time>
      </trkpt>
      <trkpt lat="45.69566" lon="4.31696">
        <ele>494.3</ele>
        <time>2023-02-19T08:24:13Z</time>
      </trkpt>
      <trkpt lat="45.69567" lon="4.31693">
        <ele>494</ele>
        <time>2023-02-19T08:24:14Z</time>
      </trkpt>
      <trkpt lat="45.69567" lon="4.3169">
        <ele>493.7</ele>
        <time>2023-02-19T08:24:16Z</time>
      </trkpt>
      <trkpt lat="45.69567" lon="4.31688">
        <ele>493.5</ele>
        <time>2023-02-19T08:24:17Z</time>
      </trkpt>
      <trkpt lat="45.69567" lon="4.31686">
        <ele>493.3</ele>
        <time>2023-02-19T08:24:18Z</time>
      </trkpt>
      <trkpt lat="45.69568" lon="4.31683">
        <ele>493.1</ele>
        <time>2023-02-19T08:24:19Z</time>
      </trkpt>
      <trkpt lat="45.69568" lon="4.31681">
        <ele>492.9</ele>
        <time>2023-02-19T08:24:20Z</time>
      </trkpt>
      <trkpt lat="45.69569" lon="4.31678">
        <ele>492.7</ele>
        <time>2023-02-19T08:24:21Z</time>
      </trkpt>
      <trkpt lat="45.69569" lon="4.31677">
        <ele>492.6</ele>
        <time>2023-02-19T08:24:22Z</time>
      </trkpt>
      <trkpt lat="45.69569" lon="4.31676">
        <ele>492.5</ele>
        <time>2023-02-19T08:24:23Z</time>
      </trkpt>
      <trkpt lat="45.6957" lon="4.31674">
        <ele>492.3</ele>
        <time>2023-02-19T08:24:24Z</time>
      </trkpt>
      <trkpt lat="45.6957" lon="4.31673">
        <ele>492.2</ele>
        <time>2023-02-19T08:24:25Z</time>
      </trkpt>
      <trkpt lat="45.6957" lon="4.31671">
        <ele>492.1</ele>
        <time>2023-02-19T08:24:26Z</time>
      </trkpt>
      <trkpt lat="45.69571" lon="4.31668">
        <ele>491.9</ele>
        <time>2023-02-19T08:24:28Z</time>
      </trkpt>
      <trkpt lat="45.69571" lon="4.31667">
        <ele>491.8</ele>
        <time>2023-02-19T08:24:29Z</time>
      </trkpt>
      <trkpt lat="45.69571" lon="4.31666">
        <ele>491.7</ele>
        <time>2023-02-19T08:24:30Z</time>
      </trkpt>
      <trkpt lat="45.69571" lon="4.31663">
        <ele>491.5</ele>
        <time>2023-02-19T08:24:31Z</time>
      </trkpt>
      <trkpt lat="45.69572" lon="4.31661">
        <ele>491.4</ele>
        <time>2023-02-19T08:24:32Z</time>
      </trkpt>
      <trkpt lat="45.69572" lon="4.3166">
        <ele>491.3</ele>
        <time>2023-02-19T08:24:33Z</time>
      </trkpt>
      <trkpt lat="45.69573" lon="4.31658">
        <ele>491.1</ele>
        <time>2023-02-19T08:24:34Z</time>
      </trkpt>
      <trkpt lat="45.69573" lon="4.31656">
        <ele>491.1</ele>
        <time>2023-02-19T08:24:35Z</time>
      </trkpt>
      <trkpt lat="45.69574" lon="4.31655">
        <ele>491</ele>
        <time>2023-02-19T08:24:36Z</time>
      </trkpt>
      <trkpt lat="45.69574" lon="4.31653">
        <ele>490.8</ele>
        <time>2023-02-19T08:24:37Z</time>
      </trkpt>
      <trkpt lat="45.69574" lon="4.31651">
        <ele>490.8</ele>
        <time>2023-02-19T08:24:39Z</time>
      </trkpt>
      <trkpt lat="45.69574" lon="4.3165">
        <ele>490.7</ele>
        <time>2023-02-19T08:24:40Z</time>
      </trkpt>
      <trkpt lat="45.69575" lon="4.31648">
        <ele>490.6</ele>
        <time>2023-02-19T08:24:41Z</time>
      </trkpt>
      <trkpt lat="45.69575" lon="4.31646">
        <ele>490.5</ele>
        <time>2023-02-19T08:24:42Z</time>
      </trkpt>
      <trkpt lat="45.69575" lon="4.31643">
        <ele>490.3</ele>
        <time>2023-02-19T08:24:43Z</time>
      </trkpt>
      <trkpt lat="45.69575" lon="4.31642">
        <ele>490.2</ele>
        <time>2023-02-19T08:24:44Z</time>
      </trkpt>
      <trkpt lat="45.69575" lon="4.3164">
        <ele>490.1</ele>
        <time>2023-02-19T08:24:46Z</time>
      </trkpt>
      <trkpt lat="45.69575" lon="4.31637">
        <ele>490</ele>
        <time>2023-02-19T08:24:47Z</time>
      </trkpt>
      <trkpt lat="45.69576" lon="4.31633">
        <ele>489.8</ele>
        <time>2023-02-19T08:24:48Z</time>
      </trkpt>
      <trkpt lat="45.69576" lon="4.31632">
        <ele>489.8</ele>
        <time>2023-02-19T08:24:49Z</time>
      </trkpt>
      <trkpt lat="45.69577" lon="4.3163">
        <ele>489.7</ele>
        <time>2023-02-19T08:24:50Z</time>
      </trkpt>
      <trkpt lat="45.69577" lon="4.31628">
        <ele>489.6</ele>
        <time>2023-02-19T08:24:51Z</time>
      </trkpt>
      <trkpt lat="45.69578" lon="4.31626">
        <ele>489.5</ele>
        <time>2023-02-19T08:24:52Z</time>
      </trkpt>
      <trkpt lat="45.69579" lon="4.31624">
        <ele>489.4</ele>
        <time>2023-02-19T08:24:53Z</time>
      </trkpt>
      <trkpt lat="45.69579" lon="4.31622">
        <ele>489.3</ele>
        <time>2023-02-19T08:24:54Z</time>
      </trkpt>
      <trkpt lat="45.6958" lon="4.31619">
        <ele>489.2</ele>
        <time>2023-02-19T08:24:55Z</time>
      </trkpt>
      <trkpt lat="45.6958" lon="4.31617">
        <ele>489.1</ele>
        <time>2023-02-19T08:24:57Z</time>
      </trkpt>
      <trkpt lat="45.69581" lon="4.31615">
        <ele>489</ele>
        <time>2023-02-19T08:24:58Z</time>
      </trkpt>
      <trkpt lat="45.69582" lon="4.31613">
        <ele>488.9</ele>
        <time>2023-02-19T08:24:59Z</time>
      </trkpt>
      <trkpt lat="45.69582" lon="4.3161">
        <ele>488.8</ele>
        <time>2023-02-19T08:25:00Z</time>
      </trkpt>
      <trkpt lat="45.69582" lon="4.31608">
        <ele>488.7</ele>
        <time>2023-02-19T08:25:01Z</time>
      </trkpt>
      <trkpt lat="45.69583" lon="4.31604">
        <ele>488.5</ele>
        <time>2023-02-19T08:25:03Z</time>
      </trkpt>
      <trkpt lat="45.69584" lon="4.31602">
        <ele>488.4</ele>
        <time>2023-02-19T08:25:04Z</time>
      </trkpt>
      <trkpt lat="45.69584" lon="4.316">
        <ele>488.3</ele>
        <time>2023-02-19T08:25:05Z</time>
      </trkpt>
      <trkpt lat="45.69585" lon="4.31598">
        <ele>488.2</ele>
        <time>2023-02-19T08:25:06Z</time>
      </trkpt>
      <trkpt lat="45.69585" lon="4.31596">
        <ele>488.2</ele>
        <time>2023-02-19T08:25:07Z</time>
      </trkpt>
      <trkpt lat="45.69586" lon="4.31593">
        <ele>488</ele>
        <time>2023-02-19T08:25:08Z</time>
      </trkpt>
      <trkpt lat="45.69586" lon="4.31591">
        <ele>487.9</ele>
        <time>2023-02-19T08:25:10Z</time>
      </trkpt>
      <trkpt lat="45.69587" lon="4.31589">
        <ele>487.9</ele>
        <time>2023-02-19T08:25:11Z</time>
      </trkpt>
      <trkpt lat="45.69587" lon="4.31588">
        <ele>487.8</ele>
        <time>2023-02-19T08:25:12Z</time>
      </trkpt>
      <trkpt lat="45.69587" lon="4.31586">
        <ele>487.7</ele>
        <time>2023-02-19T08:25:13Z</time>
      </trkpt>
      <trkpt lat="45.69588" lon="4.31584">
        <ele>487.6</ele>
        <time>2023-02-19T08:25:14Z</time>
      </trkpt>
      <trkpt lat="45.69589" lon="4.31582">
        <ele>487.5</ele>
        <time>2023-02-19T08:25:15Z</time>
      </trkpt>
      <trkpt lat="45.69589" lon="4.3158">
        <ele>487.4</ele>
        <time>2023-02-19T08:25:16Z</time>
      </trkpt>
      <trkpt lat="45.69589" lon="4.31577">
        <ele>487.3</ele>
        <time>2023-02-19T08:25:17Z</time>
      </trkpt>
      <trkpt lat="45.69589" lon="4.31575">
        <ele>487.2</ele>
        <time>2023-02-19T08:25:19Z</time>
      </trkpt>
      <trkpt lat="45.69589" lon="4.31572">
        <ele>487.1</ele>
        <time>2023-02-19T08:25:20Z</time>
      </trkpt>
      <trkpt lat="45.69589" lon="4.31568">
        <ele>486.9</ele>
        <time>2023-02-19T08:25:21Z</time>
      </trkpt>
      <trkpt lat="45.69589" lon="4.31567">
        <ele>486.8</ele>
        <time>2023-02-19T08:25:22Z</time>
      </trkpt>
      <trkpt lat="45.6959" lon="4.31562">
        <ele>486.6</ele>
        <time>2023-02-19T08:25:24Z</time>
      </trkpt>
      <trkpt lat="45.69591" lon="4.3156">
        <ele>486.5</ele>
        <time>2023-02-19T08:25:25Z</time>
      </trkpt>
      <trkpt lat="45.69592" lon="4.31559">
        <ele>486.4</ele>
        <time>2023-02-19T08:25:26Z</time>
      </trkpt>
      <trkpt lat="45.69594" lon="4.31555">
        <ele>486.2</ele>
        <time>2023-02-19T08:25:27Z</time>
      </trkpt>
      <trkpt lat="45.69595" lon="4.31554">
        <ele>486.1</ele>
        <time>2023-02-19T08:25:28Z</time>
      </trkpt>
      <trkpt lat="45.69597" lon="4.31552">
        <ele>486</ele>
        <time>2023-02-19T08:25:29Z</time>
      </trkpt>
      <trkpt lat="45.69599" lon="4.31548">
        <ele>485.8</ele>
        <time>2023-02-19T08:25:31Z</time>
      </trkpt>
      <trkpt lat="45.69602" lon="4.31545">
        <ele>485.6</ele>
        <time>2023-02-19T08:25:32Z</time>
      </trkpt>
      <trkpt lat="45.69602" lon="4.31544">
        <ele>485.5</ele>
        <time>2023-02-19T08:25:33Z</time>
      </trkpt>
      <trkpt lat="45.69604" lon="4.31541">
        <ele>485.3</ele>
        <time>2023-02-19T08:25:34Z</time>
      </trkpt>
      <trkpt lat="45.69604" lon="4.31539">
        <ele>485.3</ele>
        <time>2023-02-19T08:25:35Z</time>
      </trkpt>
      <trkpt lat="45.69606" lon="4.31535">
        <ele>485</ele>
        <time>2023-02-19T08:25:37Z</time>
      </trkpt>
      <trkpt lat="45.69606" lon="4.31533">
        <ele>485</ele>
        <time>2023-02-19T08:25:38Z</time>
      </trkpt>
      <trkpt lat="45.69607" lon="4.3153">
        <ele>484.8</ele>
        <time>2023-02-19T08:25:39Z</time>
      </trkpt>
      <trkpt lat="45.69608" lon="4.31528">
        <ele>484.7</ele>
        <time>2023-02-19T08:25:40Z</time>
      </trkpt>
      <trkpt lat="45.69609" lon="4.31526">
        <ele>484.6</ele>
        <time>2023-02-19T08:25:41Z</time>
      </trkpt>
      <trkpt lat="45.69609" lon="4.31523">
        <ele>484.5</ele>
        <time>2023-02-19T08:25:43Z</time>
      </trkpt>
      <trkpt lat="45.6961" lon="4.31521">
        <ele>484.4</ele>
        <time>2023-02-19T08:25:44Z</time>
      </trkpt>
      <trkpt lat="45.6961" lon="4.31518">
        <ele>484.3</ele>
        <time>2023-02-19T08:25:45Z</time>
      </trkpt>
      <trkpt lat="45.6961" lon="4.31516">
        <ele>484.2</ele>
        <time>2023-02-19T08:25:46Z</time>
      </trkpt>
      <trkpt lat="45.69609" lon="4.31515">
        <ele>484.1</ele>
        <time>2023-02-19T08:25:47Z</time>
      </trkpt>
      <trkpt lat="45.69608" lon="4.31513">
        <ele>484.1</ele>
        <time>2023-02-19T08:25:48Z</time>
      </trkpt>
      <trkpt lat="45.69607" lon="4.31512">
        <ele>484.1</ele>
        <time>2023-02-19T08:25:49Z</time>
      </trkpt>
      <trkpt lat="45.69606" lon="4.3151">
        <ele>484.1</ele>
        <time>2023-02-19T08:25:50Z</time>
      </trkpt>
      <trkpt lat="45.69605" lon="4.31509">
        <ele>484.1</ele>
        <time>2023-02-19T08:25:51Z</time>
      </trkpt>
      <trkpt lat="45.69604" lon="4.31507">
        <ele>484.1</ele>
        <time>2023-02-19T08:25:53Z</time>
      </trkpt>
      <trkpt lat="45.69603" lon="4.31506">
        <ele>484.1</ele>
        <time>2023-02-19T08:25:54Z</time>
      </trkpt>
      <trkpt lat="45.69602" lon="4.31505">
        <ele>484.1</ele>
        <time>2023-02-19T08:25:55Z</time>
      </trkpt>
      <trkpt lat="45.696" lon="4.31503">
        <ele>484.1</ele>
        <time>2023-02-19T08:25:56Z</time>
      </trkpt>
      <trkpt lat="45.696" lon="4.31503">
        <ele>484.1</ele>
        <time>2023-02-19T08:25:57Z</time>
      </trkpt>
      <trkpt lat="45.69599" lon="4.31502">
        <ele>484.1</ele>
        <time>2023-02-19T08:25:58Z</time>
      </trkpt>
      <trkpt lat="45.69596" lon="4.31503">
        <ele>484.1</ele>
        <time>2023-02-19T08:25:59Z</time>
      </trkpt>
      <trkpt lat="45.69594" lon="4.31503">
        <ele>484.1</ele>
        <time>2023-02-19T08:26:01Z</time>
      </trkpt>
      <trkpt lat="45.69593" lon="4.31503">
        <ele>484.1</ele>
        <time>2023-02-19T08:26:02Z</time>
      </trkpt>
      <trkpt lat="45.69592" lon="4.31503">
        <ele>484.1</ele>
        <time>2023-02-19T08:26:03Z</time>
      </trkpt>
      <trkpt lat="45.69588" lon="4.31504">
        <ele>484.2</ele>
        <time>2023-02-19T08:26:05Z</time>
      </trkpt>
      <trkpt lat="45.69587" lon="4.31504">
        <ele>484.2</ele>
        <time>2023-02-19T08:26:06Z</time>
      </trkpt>
      <trkpt lat="45.69583" lon="4.31506">
        <ele>484.4</ele>
        <time>2023-02-19T08:26:07Z</time>
      </trkpt>
      <trkpt lat="45.69582" lon="4.31506">
        <ele>484.5</ele>
        <time>2023-02-19T08:26:08Z</time>
      </trkpt>
      <trkpt lat="45.69579" lon="4.31508">
        <ele>484.6</ele>
        <time>2023-02-19T08:26:09Z</time>
      </trkpt>
      <trkpt lat="45.69576" lon="4.3151">
        <ele>484.7</ele>
        <time>2023-02-19T08:26:11Z</time>
      </trkpt>
      <trkpt lat="45.69572" lon="4.31513">
        <ele>485</ele>
        <time>2023-02-19T08:26:12Z</time>
      </trkpt>
      <trkpt lat="45.69569" lon="4.31514">
        <ele>485.1</ele>
        <time>2023-02-19T08:26:14Z</time>
      </trkpt>
      <trkpt lat="45.69565" lon="4.31515">
        <ele>485.3</ele>
        <time>2023-02-19T08:26:15Z</time>
      </trkpt>
      <trkpt lat="45.69564" lon="4.31515">
        <ele>485.4</ele>
        <time>2023-02-19T08:26:16Z</time>
      </trkpt>
      <trkpt lat="45.6956" lon="4.31516">
        <ele>485.6</ele>
        <time>2023-02-19T08:26:17Z</time>
      </trkpt>
      <trkpt lat="45.69559" lon="4.31516">
        <ele>485.6</ele>
        <time>2023-02-19T08:26:18Z</time>
      </trkpt>
      <trkpt lat="45.69556" lon="4.31516">
        <ele>485.7</ele>
        <time>2023-02-19T08:26:19Z</time>
      </trkpt>
      <trkpt lat="45.69555" lon="4.31516">
        <ele>485.8</ele>
        <time>2023-02-19T08:26:20Z</time>
      </trkpt>
      <trkpt lat="45.69551" lon="4.31516">
        <ele>485.9</ele>
        <time>2023-02-19T08:26:22Z</time>
      </trkpt>
      <trkpt lat="45.69548" lon="4.31515">
        <ele>486</ele>
        <time>2023-02-19T08:26:24Z</time>
      </trkpt>
      <trkpt lat="45.69547" lon="4.31515">
        <ele>485.8</ele>
        <time>2023-02-19T08:26:25Z</time>
      </trkpt>
      <trkpt lat="45.69546" lon="4.31514">
        <ele>485.7</ele>
        <time>2023-02-19T08:26:26Z</time>
      </trkpt>
      <trkpt lat="45.69544" lon="4.31513">
        <ele>485.7</ele>
        <time>2023-02-19T08:26:27Z</time>
      </trkpt>
      <trkpt lat="45.69542" lon="4.31511">
        <ele>485.5</ele>
        <time>2023-02-19T08:26:28Z</time>
      </trkpt>
      <trkpt lat="45.69541" lon="4.31511">
        <ele>485.5</ele>
        <time>2023-02-19T08:26:29Z</time>
      </trkpt>
      <trkpt lat="45.6954" lon="4.31509">
        <ele>485.4</ele>
        <time>2023-02-19T08:26:30Z</time>
      </trkpt>
      <trkpt lat="45.69538" lon="4.31508">
        <ele>485.4</ele>
        <time>2023-02-19T08:26:31Z</time>
      </trkpt>
      <trkpt lat="45.69536" lon="4.31505">
        <ele>485.2</ele>
        <time>2023-02-19T08:26:33Z</time>
      </trkpt>
      <trkpt lat="45.69535" lon="4.31505">
        <ele>485.2</ele>
        <time>2023-02-19T08:26:34Z</time>
      </trkpt>
      <trkpt lat="45.69534" lon="4.31503">
        <ele>485.1</ele>
        <time>2023-02-19T08:26:35Z</time>
      </trkpt>
      <trkpt lat="45.69533" lon="4.31502">
        <ele>485.1</ele>
        <time>2023-02-19T08:26:36Z</time>
      </trkpt>
      <trkpt lat="45.69533" lon="4.31501">
        <ele>485</ele>
        <time>2023-02-19T08:26:37Z</time>
      </trkpt>
      <trkpt lat="45.69532" lon="4.31498">
        <ele>484.9</ele>
        <time>2023-02-19T08:26:39Z</time>
      </trkpt>
      <trkpt lat="45.69532" lon="4.31497">
        <ele>484.9</ele>
        <time>2023-02-19T08:26:40Z</time>
      </trkpt>
      <trkpt lat="45.69532" lon="4.31496">
        <ele>484.8</ele>
        <time>2023-02-19T08:26:41Z</time>
      </trkpt>
      <trkpt lat="45.69532" lon="4.31494">
        <ele>484.7</ele>
        <time>2023-02-19T08:26:42Z</time>
      </trkpt>
      <trkpt lat="45.69531" lon="4.31492">
        <ele>484.6</ele>
        <time>2023-02-19T08:26:43Z</time>
      </trkpt>
      <trkpt lat="45.69531" lon="4.3149">
        <ele>484.5</ele>
        <time>2023-02-19T08:26:45Z</time>
      </trkpt>
      <trkpt lat="45.6953" lon="4.31488">
        <ele>484.4</ele>
        <time>2023-02-19T08:26:46Z</time>
      </trkpt>
      <trkpt lat="45.69529" lon="4.31487">
        <ele>484.3</ele>
        <time>2023-02-19T08:26:47Z</time>
      </trkpt>
      <trkpt lat="45.69529" lon="4.31487">
        <ele>484.3</ele>
        <time>2023-02-19T08:26:48Z</time>
      </trkpt>
      <trkpt lat="45.69528" lon="4.31486">
        <ele>484.2</ele>
        <time>2023-02-19T08:26:49Z</time>
      </trkpt>
      <trkpt lat="45.69527" lon="4.31486">
        <ele>484.1</ele>
        <time>2023-02-19T08:26:50Z</time>
      </trkpt>
      <trkpt lat="45.69527" lon="4.31485">
        <ele>484.1</ele>
        <time>2023-02-19T08:26:51Z</time>
      </trkpt>
      <trkpt lat="45.69526" lon="4.31483">
        <ele>484</ele>
        <time>2023-02-19T08:26:52Z</time>
      </trkpt>
      <trkpt lat="45.69525" lon="4.31482">
        <ele>483.9</ele>
        <time>2023-02-19T08:26:54Z</time>
      </trkpt>
      <trkpt lat="45.69525" lon="4.31481">
        <ele>483.8</ele>
        <time>2023-02-19T08:26:55Z</time>
      </trkpt>
      <trkpt lat="45.69524" lon="4.31479">
        <ele>483.8</ele>
        <time>2023-02-19T08:26:56Z</time>
      </trkpt>
      <trkpt lat="45.69523" lon="4.31478">
        <ele>483.7</ele>
        <time>2023-02-19T08:26:57Z</time>
      </trkpt>
      <trkpt lat="45.69523" lon="4.31477">
        <ele>483.6</ele>
        <time>2023-02-19T08:26:58Z</time>
      </trkpt>
      <trkpt lat="45.69522" lon="4.31474">
        <ele>483.5</ele>
        <time>2023-02-19T08:27:00Z</time>
      </trkpt>
      <trkpt lat="45.69522" lon="4.31473">
        <ele>483.5</ele>
        <time>2023-02-19T08:27:01Z</time>
      </trkpt>
      <trkpt lat="45.69521" lon="4.31471">
        <ele>483.4</ele>
        <time>2023-02-19T08:27:02Z</time>
      </trkpt>
      <trkpt lat="45.6952" lon="4.3147">
        <ele>483.3</ele>
        <time>2023-02-19T08:27:03Z</time>
      </trkpt>
      <trkpt lat="45.6952" lon="4.31468">
        <ele>483.3</ele>
        <time>2023-02-19T08:27:04Z</time>
      </trkpt>
      <trkpt lat="45.6952" lon="4.31467">
        <ele>483.3</ele>
        <time>2023-02-19T08:27:05Z</time>
      </trkpt>
      <trkpt lat="45.69519" lon="4.31466">
        <ele>483.2</ele>
        <time>2023-02-19T08:27:06Z</time>
      </trkpt>
      <trkpt lat="45.69519" lon="4.31464">
        <ele>483.2</ele>
        <time>2023-02-19T08:27:08Z</time>
      </trkpt>
      <trkpt lat="45.69518" lon="4.31463">
        <ele>483.1</ele>
        <time>2023-02-19T08:27:09Z</time>
      </trkpt>
      <trkpt lat="45.69518" lon="4.31462">
        <ele>483.1</ele>
        <time>2023-02-19T08:27:10Z</time>
      </trkpt>
      <trkpt lat="45.69517" lon="4.3146">
        <ele>483</ele>
        <time>2023-02-19T08:27:11Z</time>
      </trkpt>
      <trkpt lat="45.69516" lon="4.31459">
        <ele>483</ele>
        <time>2023-02-19T08:27:12Z</time>
      </trkpt>
      <trkpt lat="45.69515" lon="4.31458">
        <ele>482.9</ele>
        <time>2023-02-19T08:27:13Z</time>
      </trkpt>
      <trkpt lat="45.69514" lon="4.31456">
        <ele>482.9</ele>
        <time>2023-02-19T08:27:14Z</time>
      </trkpt>
      <trkpt lat="45.69512" lon="4.31453">
        <ele>482.8</ele>
        <time>2023-02-19T08:27:16Z</time>
      </trkpt>
      <trkpt lat="45.6951" lon="4.3145">
        <ele>482.7</ele>
        <time>2023-02-19T08:27:18Z</time>
      </trkpt>
      <trkpt lat="45.69509" lon="4.31449">
        <ele>482.6</ele>
        <time>2023-02-19T08:27:19Z</time>
      </trkpt>
      <trkpt lat="45.69508" lon="4.31447">
        <ele>482.6</ele>
        <time>2023-02-19T08:27:20Z</time>
      </trkpt>
      <trkpt lat="45.69507" lon="4.31446">
        <ele>482.5</ele>
        <time>2023-02-19T08:27:21Z</time>
      </trkpt>
      <trkpt lat="45.69505" lon="4.31445">
        <ele>482.5</ele>
        <time>2023-02-19T08:27:22Z</time>
      </trkpt>
      <trkpt lat="45.69504" lon="4.31443">
        <ele>482.4</ele>
        <time>2023-02-19T08:27:23Z</time>
      </trkpt>
      <trkpt lat="45.69503" lon="4.31442">
        <ele>482.3</ele>
        <time>2023-02-19T08:27:24Z</time>
      </trkpt>
      <trkpt lat="45.69502" lon="4.3144">
        <ele>482.3</ele>
        <time>2023-02-19T08:27:26Z</time>
      </trkpt>
      <trkpt lat="45.69501" lon="4.31439">
        <ele>482.2</ele>
        <time>2023-02-19T08:27:27Z</time>
      </trkpt>
      <trkpt lat="45.69501" lon="4.31437">
        <ele>482.2</ele>
        <time>2023-02-19T08:27:28Z</time>
      </trkpt>
      <trkpt lat="45.695" lon="4.31436">
        <ele>482.1</ele>
        <time>2023-02-19T08:27:29Z</time>
      </trkpt>
      <trkpt lat="45.695" lon="4.31435">
        <ele>482.1</ele>
        <time>2023-02-19T08:27:30Z</time>
      </trkpt>
      <trkpt lat="45.69499" lon="4.31433">
        <ele>482</ele>
        <time>2023-02-19T08:27:31Z</time>
      </trkpt>
      <trkpt lat="45.69498" lon="4.31431">
        <ele>481.9</ele>
        <time>2023-02-19T08:27:33Z</time>
      </trkpt>
      <trkpt lat="45.69497" lon="4.31429">
        <ele>481.9</ele>
        <time>2023-02-19T08:27:34Z</time>
      </trkpt>
      <trkpt lat="45.69497" lon="4.31427">
        <ele>481.8</ele>
        <time>2023-02-19T08:27:35Z</time>
      </trkpt>
      <trkpt lat="45.69496" lon="4.31425">
        <ele>481.7</ele>
        <time>2023-02-19T08:27:36Z</time>
      </trkpt>
      <trkpt lat="45.69495" lon="4.31423">
        <ele>481.6</ele>
        <time>2023-02-19T08:27:37Z</time>
      </trkpt>
      <trkpt lat="45.69494" lon="4.31421">
        <ele>481.5</ele>
        <time>2023-02-19T08:27:38Z</time>
      </trkpt>
      <trkpt lat="45.69493" lon="4.3142">
        <ele>481.5</ele>
        <time>2023-02-19T08:27:39Z</time>
      </trkpt>
      <trkpt lat="45.69492" lon="4.31419">
        <ele>481.4</ele>
        <time>2023-02-19T08:27:41Z</time>
      </trkpt>
      <trkpt lat="45.69491" lon="4.31418">
        <ele>481.4</ele>
        <time>2023-02-19T08:27:42Z</time>
      </trkpt>
      <trkpt lat="45.6949" lon="4.31417">
        <ele>481.3</ele>
        <time>2023-02-19T08:27:43Z</time>
      </trkpt>
      <trkpt lat="45.6949" lon="4.31416">
        <ele>481.3</ele>
        <time>2023-02-19T08:27:44Z</time>
      </trkpt>
      <trkpt lat="45.69488" lon="4.31416">
        <ele>481.2</ele>
        <time>2023-02-19T08:27:45Z</time>
      </trkpt>
      <trkpt lat="45.69487" lon="4.31415">
        <ele>481.1</ele>
        <time>2023-02-19T08:27:46Z</time>
      </trkpt>
      <trkpt lat="45.69485" lon="4.31414">
        <ele>481</ele>
        <time>2023-02-19T08:27:47Z</time>
      </trkpt>
      <trkpt lat="45.69484" lon="4.31413">
        <ele>480.9</ele>
        <time>2023-02-19T08:27:48Z</time>
      </trkpt>
      <trkpt lat="45.69482" lon="4.31412">
        <ele>480.9</ele>
        <time>2023-02-19T08:27:49Z</time>
      </trkpt>
      <trkpt lat="45.6948" lon="4.31411">
        <ele>480.8</ele>
        <time>2023-02-19T08:27:51Z</time>
      </trkpt>
      <trkpt lat="45.69479" lon="4.3141">
        <ele>480.7</ele>
        <time>2023-02-19T08:27:52Z</time>
      </trkpt>
      <trkpt lat="45.69477" lon="4.31409">
        <ele>480.6</ele>
        <time>2023-02-19T08:27:53Z</time>
      </trkpt>
      <trkpt lat="45.69474" lon="4.31409">
        <ele>480.5</ele>
        <time>2023-02-19T08:27:54Z</time>
      </trkpt>
      <trkpt lat="45.69474" lon="4.31408">
        <ele>480.4</ele>
        <time>2023-02-19T08:27:55Z</time>
      </trkpt>
      <trkpt lat="45.69471" lon="4.31408">
        <ele>480.3</ele>
        <time>2023-02-19T08:27:56Z</time>
      </trkpt>
      <trkpt lat="45.6947" lon="4.31407">
        <ele>480.2</ele>
        <time>2023-02-19T08:27:57Z</time>
      </trkpt>
      <trkpt lat="45.69467" lon="4.31406">
        <ele>480.1</ele>
        <time>2023-02-19T08:27:58Z</time>
      </trkpt>
      <trkpt lat="45.69466" lon="4.31405">
        <ele>480.1</ele>
        <time>2023-02-19T08:27:59Z</time>
      </trkpt>
      <trkpt lat="45.69465" lon="4.31405">
        <ele>480</ele>
        <time>2023-02-19T08:28:00Z</time>
      </trkpt>
      <trkpt lat="45.69463" lon="4.31404">
        <ele>480</ele>
        <time>2023-02-19T08:28:02Z</time>
      </trkpt>
      <trkpt lat="45.69461" lon="4.31403">
        <ele>479.9</ele>
        <time>2023-02-19T08:28:03Z</time>
      </trkpt>
      <trkpt lat="45.69459" lon="4.31401">
        <ele>479.8</ele>
        <time>2023-02-19T08:28:05Z</time>
      </trkpt>
      <trkpt lat="45.69458" lon="4.314">
        <ele>479.7</ele>
        <time>2023-02-19T08:28:06Z</time>
      </trkpt>
      <trkpt lat="45.69456" lon="4.31399">
        <ele>479.6</ele>
        <time>2023-02-19T08:28:07Z</time>
      </trkpt>
      <trkpt lat="45.69454" lon="4.31398">
        <ele>479.6</ele>
        <time>2023-02-19T08:28:08Z</time>
      </trkpt>
      <trkpt lat="45.69453" lon="4.31397">
        <ele>479.5</ele>
        <time>2023-02-19T08:28:09Z</time>
      </trkpt>
      <trkpt lat="45.69451" lon="4.31396">
        <ele>479.4</ele>
        <time>2023-02-19T08:28:10Z</time>
      </trkpt>
      <trkpt lat="45.69449" lon="4.31395">
        <ele>479.3</ele>
        <time>2023-02-19T08:28:11Z</time>
      </trkpt>
      <trkpt lat="45.69447" lon="4.31393">
        <ele>479.2</ele>
        <time>2023-02-19T08:28:12Z</time>
      </trkpt>
      <trkpt lat="45.69446" lon="4.31392">
        <ele>479.1</ele>
        <time>2023-02-19T08:28:13Z</time>
      </trkpt>
      <trkpt lat="45.69443" lon="4.3139">
        <ele>479</ele>
        <time>2023-02-19T08:28:15Z</time>
      </trkpt>
      <trkpt lat="45.69442" lon="4.3139">
        <ele>479</ele>
        <time>2023-02-19T08:28:16Z</time>
      </trkpt>
      <trkpt lat="45.69441" lon="4.31388">
        <ele>478.9</ele>
        <time>2023-02-19T08:28:17Z</time>
      </trkpt>
      <trkpt lat="45.69438" lon="4.31386">
        <ele>478.7</ele>
        <time>2023-02-19T08:28:19Z</time>
      </trkpt>
      <trkpt lat="45.69437" lon="4.31385">
        <ele>478.7</ele>
        <time>2023-02-19T08:28:20Z</time>
      </trkpt>
      <trkpt lat="45.69435" lon="4.31384">
        <ele>478.6</ele>
        <time>2023-02-19T08:28:21Z</time>
      </trkpt>
      <trkpt lat="45.69434" lon="4.31382">
        <ele>478.5</ele>
        <time>2023-02-19T08:28:22Z</time>
      </trkpt>
      <trkpt lat="45.69433" lon="4.31381">
        <ele>478.4</ele>
        <time>2023-02-19T08:28:23Z</time>
      </trkpt>
      <trkpt lat="45.69431" lon="4.31379">
        <ele>478.3</ele>
        <time>2023-02-19T08:28:24Z</time>
      </trkpt>
      <trkpt lat="45.6943" lon="4.31378">
        <ele>478.2</ele>
        <time>2023-02-19T08:28:25Z</time>
      </trkpt>
      <trkpt lat="45.69429" lon="4.31377">
        <ele>478.2</ele>
        <time>2023-02-19T08:28:26Z</time>
      </trkpt>
      <trkpt lat="45.69428" lon="4.31375">
        <ele>478.1</ele>
        <time>2023-02-19T08:28:27Z</time>
      </trkpt>
      <trkpt lat="45.69426" lon="4.31374">
        <ele>478</ele>
        <time>2023-02-19T08:28:29Z</time>
      </trkpt>
      <trkpt lat="45.69424" lon="4.31372">
        <ele>477.9</ele>
        <time>2023-02-19T08:28:30Z</time>
      </trkpt>
      <trkpt lat="45.69423" lon="4.3137">
        <ele>477.8</ele>
        <time>2023-02-19T08:28:32Z</time>
      </trkpt>
      <trkpt lat="45.69421" lon="4.31369">
        <ele>477.7</ele>
        <time>2023-02-19T08:28:33Z</time>
      </trkpt>
      <trkpt lat="45.6942" lon="4.31368">
        <ele>477.7</ele>
        <time>2023-02-19T08:28:34Z</time>
      </trkpt>
      <trkpt lat="45.69419" lon="4.31368">
        <ele>477.6</ele>
        <time>2023-02-19T08:28:35Z</time>
      </trkpt>
      <trkpt lat="45.69417" lon="4.31366">
        <ele>477.5</ele>
        <time>2023-02-19T08:28:36Z</time>
      </trkpt>
      <trkpt lat="45.69415" lon="4.31365">
        <ele>477.4</ele>
        <time>2023-02-19T08:28:37Z</time>
      </trkpt>
      <trkpt lat="45.69414" lon="4.31365">
        <ele>477.4</ele>
        <time>2023-02-19T08:28:38Z</time>
      </trkpt>
      <trkpt lat="45.69411" lon="4.31362">
        <ele>477.2</ele>
        <time>2023-02-19T08:28:40Z</time>
      </trkpt>
      <trkpt lat="45.6941" lon="4.31362">
        <ele>477.2</ele>
        <time>2023-02-19T08:28:41Z</time>
      </trkpt>
      <trkpt lat="45.69409" lon="4.31361">
        <ele>477.1</ele>
        <time>2023-02-19T08:28:43Z</time>
      </trkpt>
      <trkpt lat="45.69408" lon="4.3136">
        <ele>477.1</ele>
        <time>2023-02-19T08:28:44Z</time>
      </trkpt>
      <trkpt lat="45.69407" lon="4.31359">
        <ele>477</ele>
        <time>2023-02-19T08:28:45Z</time>
      </trkpt>
      <trkpt lat="45.69406" lon="4.31358">
        <ele>476.9</ele>
        <time>2023-02-19T08:28:46Z</time>
      </trkpt>
      <trkpt lat="45.69405" lon="4.31358">
        <ele>476.9</ele>
        <time>2023-02-19T08:28:47Z</time>
      </trkpt>
      <trkpt lat="45.69403" lon="4.31356">
        <ele>476.8</ele>
        <time>2023-02-19T08:28:48Z</time>
      </trkpt>
      <trkpt lat="45.69403" lon="4.31356">
        <ele>476.7</ele>
        <time>2023-02-19T08:28:49Z</time>
      </trkpt>
      <trkpt lat="45.69402" lon="4.31355">
        <ele>476.7</ele>
        <time>2023-02-19T08:28:50Z</time>
      </trkpt>
      <trkpt lat="45.694" lon="4.31354">
        <ele>476.6</ele>
        <time>2023-02-19T08:28:51Z</time>
      </trkpt>
      <trkpt lat="45.69399" lon="4.31353">
        <ele>476.5</ele>
        <time>2023-02-19T08:28:52Z</time>
      </trkpt>
      <trkpt lat="45.69398" lon="4.31352">
        <ele>476.4</ele>
        <time>2023-02-19T08:28:53Z</time>
      </trkpt>
      <trkpt lat="45.69396" lon="4.3135">
        <ele>476.3</ele>
        <time>2023-02-19T08:28:55Z</time>
      </trkpt>
      <trkpt lat="45.69395" lon="4.31349">
        <ele>476.2</ele>
        <time>2023-02-19T08:28:56Z</time>
      </trkpt>
      <trkpt lat="45.69394" lon="4.31348">
        <ele>476.1</ele>
        <time>2023-02-19T08:28:57Z</time>
      </trkpt>
      <trkpt lat="45.69392" lon="4.31346">
        <ele>476</ele>
        <time>2023-02-19T08:28:58Z</time>
      </trkpt>
      <trkpt lat="45.6939" lon="4.31344">
        <ele>475.8</ele>
        <time>2023-02-19T08:29:00Z</time>
      </trkpt>
      <trkpt lat="45.69389" lon="4.31343">
        <ele>475.7</ele>
        <time>2023-02-19T08:29:01Z</time>
      </trkpt>
      <trkpt lat="45.69387" lon="4.31342">
        <ele>475.6</ele>
        <time>2023-02-19T08:29:02Z</time>
      </trkpt>
      <trkpt lat="45.69385" lon="4.31341">
        <ele>475.4</ele>
        <time>2023-02-19T08:29:03Z</time>
      </trkpt>
      <trkpt lat="45.69384" lon="4.3134">
        <ele>475.4</ele>
        <time>2023-02-19T08:29:04Z</time>
      </trkpt>
      <trkpt lat="45.69382" lon="4.31339">
        <ele>475.2</ele>
        <time>2023-02-19T08:29:05Z</time>
      </trkpt>
      <trkpt lat="45.69381" lon="4.31338">
        <ele>475.1</ele>
        <time>2023-02-19T08:29:06Z</time>
      </trkpt>
      <trkpt lat="45.69379" lon="4.31338">
        <ele>475</ele>
        <time>2023-02-19T08:29:07Z</time>
      </trkpt>
      <trkpt lat="45.69377" lon="4.31337">
        <ele>474.9</ele>
        <time>2023-02-19T08:29:09Z</time>
      </trkpt>
      <trkpt lat="45.69376" lon="4.31336">
        <ele>474.8</ele>
        <time>2023-02-19T08:29:10Z</time>
      </trkpt>
      <trkpt lat="45.69375" lon="4.31336">
        <ele>474.7</ele>
        <time>2023-02-19T08:29:11Z</time>
      </trkpt>
      <trkpt lat="45.69373" lon="4.31335">
        <ele>474.6</ele>
        <time>2023-02-19T08:29:12Z</time>
      </trkpt>
      <trkpt lat="45.69372" lon="4.31334">
        <ele>474.5</ele>
        <time>2023-02-19T08:29:13Z</time>
      </trkpt>
      <trkpt lat="45.6937" lon="4.31334">
        <ele>474.4</ele>
        <time>2023-02-19T08:29:14Z</time>
      </trkpt>
      <trkpt lat="45.69369" lon="4.31332">
        <ele>474.3</ele>
        <time>2023-02-19T08:29:15Z</time>
      </trkpt>
      <trkpt lat="45.69367" lon="4.31332">
        <ele>474.2</ele>
        <time>2023-02-19T08:29:16Z</time>
      </trkpt>
      <trkpt lat="45.69366" lon="4.3133">
        <ele>474.1</ele>
        <time>2023-02-19T08:29:17Z</time>
      </trkpt>
      <trkpt lat="45.69365" lon="4.31329">
        <ele>474</ele>
        <time>2023-02-19T08:29:18Z</time>
      </trkpt>
      <trkpt lat="45.69364" lon="4.31328">
        <ele>474</ele>
        <time>2023-02-19T08:29:19Z</time>
      </trkpt>
      <trkpt lat="45.69363" lon="4.31326">
        <ele>473.9</ele>
        <time>2023-02-19T08:29:21Z</time>
      </trkpt>
      <trkpt lat="45.69363" lon="4.31325">
        <ele>473.8</ele>
        <time>2023-02-19T08:29:22Z</time>
      </trkpt>
      <trkpt lat="45.69363" lon="4.31323">
        <ele>473.7</ele>
        <time>2023-02-19T08:29:23Z</time>
      </trkpt>
      <trkpt lat="45.69362" lon="4.31322">
        <ele>473.7</ele>
        <time>2023-02-19T08:29:24Z</time>
      </trkpt>
      <trkpt lat="45.69362" lon="4.3132">
        <ele>473.6</ele>
        <time>2023-02-19T08:29:25Z</time>
      </trkpt>
      <trkpt lat="45.69362" lon="4.31318">
        <ele>473.5</ele>
        <time>2023-02-19T08:29:26Z</time>
      </trkpt>
      <trkpt lat="45.69362" lon="4.31315">
        <ele>473.5</ele>
        <time>2023-02-19T08:29:27Z</time>
      </trkpt>
      <trkpt lat="45.69363" lon="4.31313">
        <ele>473.4</ele>
        <time>2023-02-19T08:29:28Z</time>
      </trkpt>
      <trkpt lat="45.69363" lon="4.31311">
        <ele>473.3</ele>
        <time>2023-02-19T08:29:29Z</time>
      </trkpt>
      <trkpt lat="45.69363" lon="4.31308">
        <ele>473.2</ele>
        <time>2023-02-19T08:29:31Z</time>
      </trkpt>
      <trkpt lat="45.69364" lon="4.31306">
        <ele>473.2</ele>
        <time>2023-02-19T08:29:32Z</time>
      </trkpt>
      <trkpt lat="45.69364" lon="4.31304">
        <ele>473.1</ele>
        <time>2023-02-19T08:29:33Z</time>
      </trkpt>
      <trkpt lat="45.69366" lon="4.313">
        <ele>473</ele>
        <time>2023-02-19T08:29:34Z</time>
      </trkpt>
      <trkpt lat="45.69366" lon="4.31299">
        <ele>473</ele>
        <time>2023-02-19T08:29:35Z</time>
      </trkpt>
      <trkpt lat="45.69368" lon="4.31295">
        <ele>472.9</ele>
        <time>2023-02-19T08:29:36Z</time>
      </trkpt>
      <trkpt lat="45.69368" lon="4.31293">
        <ele>472.9</ele>
        <time>2023-02-19T08:29:37Z</time>
      </trkpt>
      <trkpt lat="45.6937" lon="4.3129">
        <ele>472.8</ele>
        <time>2023-02-19T08:29:38Z</time>
      </trkpt>
      <trkpt lat="45.69371" lon="4.31286">
        <ele>472.8</ele>
        <time>2023-02-19T08:29:39Z</time>
      </trkpt>
      <trkpt lat="45.69373" lon="4.31283">
        <ele>472.7</ele>
        <time>2023-02-19T08:29:40Z</time>
      </trkpt>
      <trkpt lat="45.69374" lon="4.31279">
        <ele>472.6</ele>
        <time>2023-02-19T08:29:42Z</time>
      </trkpt>
      <trkpt lat="45.69376" lon="4.31276">
        <ele>472.5</ele>
        <time>2023-02-19T08:29:43Z</time>
      </trkpt>
      <trkpt lat="45.69378" lon="4.31273">
        <ele>472.5</ele>
        <time>2023-02-19T08:29:44Z</time>
      </trkpt>
      <trkpt lat="45.6938" lon="4.31269">
        <ele>472.4</ele>
        <time>2023-02-19T08:29:45Z</time>
      </trkpt>
      <trkpt lat="45.69381" lon="4.31268">
        <ele>472.3</ele>
        <time>2023-02-19T08:29:46Z</time>
      </trkpt>
      <trkpt lat="45.69383" lon="4.31264">
        <ele>472.2</ele>
        <time>2023-02-19T08:29:48Z</time>
      </trkpt>
      <trkpt lat="45.69384" lon="4.31264">
        <ele>472.2</ele>
        <time>2023-02-19T08:29:49Z</time>
      </trkpt>
      <trkpt lat="45.69385" lon="4.31262">
        <ele>472.2</ele>
        <time>2023-02-19T08:29:50Z</time>
      </trkpt>
      <trkpt lat="45.69386" lon="4.31261">
        <ele>472.1</ele>
        <time>2023-02-19T08:29:51Z</time>
      </trkpt>
      <trkpt lat="45.69387" lon="4.31259">
        <ele>472.1</ele>
        <time>2023-02-19T08:29:53Z</time>
      </trkpt>
      <trkpt lat="45.69388" lon="4.31258">
        <ele>472</ele>
        <time>2023-02-19T08:29:54Z</time>
      </trkpt>
      <trkpt lat="45.69389" lon="4.31257">
        <ele>472</ele>
        <time>2023-02-19T08:29:55Z</time>
      </trkpt>
      <trkpt lat="45.6939" lon="4.31255">
        <ele>472</ele>
        <time>2023-02-19T08:29:56Z</time>
      </trkpt>
      <trkpt lat="45.69391" lon="4.31254">
        <ele>472</ele>
        <time>2023-02-19T08:29:57Z</time>
      </trkpt>
      <trkpt lat="45.69392" lon="4.31252">
        <ele>471.9</ele>
        <time>2023-02-19T08:29:58Z</time>
      </trkpt>
      <trkpt lat="45.69393" lon="4.31251">
        <ele>471.9</ele>
        <time>2023-02-19T08:29:59Z</time>
      </trkpt>
      <trkpt lat="45.69394" lon="4.31249">
        <ele>471.9</ele>
        <time>2023-02-19T08:30:00Z</time>
      </trkpt>
      <trkpt lat="45.69395" lon="4.31248">
        <ele>471.8</ele>
        <time>2023-02-19T08:30:01Z</time>
      </trkpt>
      <trkpt lat="45.69396" lon="4.31246">
        <ele>471.8</ele>
        <time>2023-02-19T08:30:02Z</time>
      </trkpt>
      <trkpt lat="45.69396" lon="4.31245">
        <ele>471.8</ele>
        <time>2023-02-19T08:30:03Z</time>
      </trkpt>
      <trkpt lat="45.69397" lon="4.31243">
        <ele>471.8</ele>
        <time>2023-02-19T08:30:05Z</time>
      </trkpt>
      <trkpt lat="45.69398" lon="4.31242">
        <ele>471.7</ele>
        <time>2023-02-19T08:30:06Z</time>
      </trkpt>
      <trkpt lat="45.69399" lon="4.3124">
        <ele>471.7</ele>
        <time>2023-02-19T08:30:07Z</time>
      </trkpt>
      <trkpt lat="45.69401" lon="4.31236">
        <ele>471.7</ele>
        <time>2023-02-19T08:30:09Z</time>
      </trkpt>
      <trkpt lat="45.69402" lon="4.31234">
        <ele>471.7</ele>
        <time>2023-02-19T08:30:10Z</time>
      </trkpt>
      <trkpt lat="45.69403" lon="4.31233">
        <ele>471.7</ele>
        <time>2023-02-19T08:30:11Z</time>
      </trkpt>
      <trkpt lat="45.69403" lon="4.31231">
        <ele>471.7</ele>
        <time>2023-02-19T08:30:12Z</time>
      </trkpt>
      <trkpt lat="45.69404" lon="4.31229">
        <ele>471.7</ele>
        <time>2023-02-19T08:30:13Z</time>
      </trkpt>
      <trkpt lat="45.69405" lon="4.31227">
        <ele>471.7</ele>
        <time>2023-02-19T08:30:14Z</time>
      </trkpt>
      <trkpt lat="45.69405" lon="4.31226">
        <ele>471.7</ele>
        <time>2023-02-19T08:30:15Z</time>
      </trkpt>
      <trkpt lat="45.69406" lon="4.31224">
        <ele>471.7</ele>
        <time>2023-02-19T08:30:17Z</time>
      </trkpt>
      <trkpt lat="45.69407" lon="4.31222">
        <ele>471.7</ele>
        <time>2023-02-19T08:30:18Z</time>
      </trkpt>
      <trkpt lat="45.69408" lon="4.31221">
        <ele>471.7</ele>
        <time>2023-02-19T08:30:19Z</time>
      </trkpt>
      <trkpt lat="45.69408" lon="4.3122">
        <ele>471.7</ele>
        <time>2023-02-19T08:30:20Z</time>
      </trkpt>
      <trkpt lat="45.69409" lon="4.31219">
        <ele>471.7</ele>
        <time>2023-02-19T08:30:21Z</time>
      </trkpt>
      <trkpt lat="45.6941" lon="4.31217">
        <ele>471.7</ele>
        <time>2023-02-19T08:30:22Z</time>
      </trkpt>
      <trkpt lat="45.69411" lon="4.31215">
        <ele>471.7</ele>
        <time>2023-02-19T08:30:23Z</time>
      </trkpt>
      <trkpt lat="45.69412" lon="4.31213">
        <ele>471.7</ele>
        <time>2023-02-19T08:30:24Z</time>
      </trkpt>
      <trkpt lat="45.69413" lon="4.3121">
        <ele>471.7</ele>
        <time>2023-02-19T08:30:26Z</time>
      </trkpt>
      <trkpt lat="45.69414" lon="4.31208">
        <ele>471.7</ele>
        <time>2023-02-19T08:30:28Z</time>
      </trkpt>
      <trkpt lat="45.69415" lon="4.31206">
        <ele>471.7</ele>
        <time>2023-02-19T08:30:29Z</time>
      </trkpt>
      <trkpt lat="45.69416" lon="4.31204">
        <ele>471.2</ele>
        <time>2023-02-19T08:30:30Z</time>
      </trkpt>
      <trkpt lat="45.69417" lon="4.312">
        <ele>470.9</ele>
        <time>2023-02-19T08:30:32Z</time>
      </trkpt>
      <trkpt lat="45.69418" lon="4.31198">
        <ele>470.7</ele>
        <time>2023-02-19T08:30:33Z</time>
      </trkpt>
      <trkpt lat="45.69419" lon="4.31196">
        <ele>470.5</ele>
        <time>2023-02-19T08:30:34Z</time>
      </trkpt>
      <trkpt lat="45.69419" lon="4.31194">
        <ele>470.4</ele>
        <time>2023-02-19T08:30:35Z</time>
      </trkpt>
      <trkpt lat="45.6942" lon="4.31192">
        <ele>470.2</ele>
        <time>2023-02-19T08:30:36Z</time>
      </trkpt>
      <trkpt lat="45.69421" lon="4.3119">
        <ele>470</ele>
        <time>2023-02-19T08:30:37Z</time>
      </trkpt>
      <trkpt lat="45.69423" lon="4.31188">
        <ele>469.9</ele>
        <time>2023-02-19T08:30:38Z</time>
      </trkpt>
      <trkpt lat="45.69424" lon="4.31186">
        <ele>469.7</ele>
        <time>2023-02-19T08:30:39Z</time>
      </trkpt>
      <trkpt lat="45.69425" lon="4.31185">
        <ele>469.6</ele>
        <time>2023-02-19T08:30:40Z</time>
      </trkpt>
      <trkpt lat="45.69426" lon="4.31183">
        <ele>469.4</ele>
        <time>2023-02-19T08:30:41Z</time>
      </trkpt>
      <trkpt lat="45.69427" lon="4.31181">
        <ele>469.2</ele>
        <time>2023-02-19T08:30:43Z</time>
      </trkpt>
      <trkpt lat="45.69428" lon="4.31179">
        <ele>469.1</ele>
        <time>2023-02-19T08:30:44Z</time>
      </trkpt>
      <trkpt lat="45.69429" lon="4.31178">
        <ele>469</ele>
        <time>2023-02-19T08:30:45Z</time>
      </trkpt>
      <trkpt lat="45.69431" lon="4.31176">
        <ele>468.8</ele>
        <time>2023-02-19T08:30:46Z</time>
      </trkpt>
      <trkpt lat="45.69432" lon="4.31175">
        <ele>468.7</ele>
        <time>2023-02-19T08:30:47Z</time>
      </trkpt>
      <trkpt lat="45.69434" lon="4.31171">
        <ele>468.4</ele>
        <time>2023-02-19T08:30:49Z</time>
      </trkpt>
      <trkpt lat="45.69434" lon="4.3117">
        <ele>468.4</ele>
        <time>2023-02-19T08:30:50Z</time>
      </trkpt>
      <trkpt lat="45.69435" lon="4.31169">
        <ele>468.2</ele>
        <time>2023-02-19T08:30:51Z</time>
      </trkpt>
      <trkpt lat="45.69436" lon="4.31167">
        <ele>468.1</ele>
        <time>2023-02-19T08:30:52Z</time>
      </trkpt>
      <trkpt lat="45.69438" lon="4.31164">
        <ele>467.9</ele>
        <time>2023-02-19T08:30:53Z</time>
      </trkpt>
      <trkpt lat="45.69438" lon="4.31162">
        <ele>467.9</ele>
        <time>2023-02-19T08:30:54Z</time>
      </trkpt>
      <trkpt lat="45.69439" lon="4.3116">
        <ele>467.8</ele>
        <time>2023-02-19T08:30:56Z</time>
      </trkpt>
      <trkpt lat="45.69439" lon="4.31158">
        <ele>467.7</ele>
        <time>2023-02-19T08:30:57Z</time>
      </trkpt>
      <trkpt lat="45.6944" lon="4.31156">
        <ele>467.6</ele>
        <time>2023-02-19T08:30:58Z</time>
      </trkpt>
      <trkpt lat="45.69441" lon="4.31154">
        <ele>467.5</ele>
        <time>2023-02-19T08:30:59Z</time>
      </trkpt>
      <trkpt lat="45.69442" lon="4.31152">
        <ele>467.4</ele>
        <time>2023-02-19T08:31:00Z</time>
      </trkpt>
      <trkpt lat="45.69443" lon="4.3115">
        <ele>467.3</ele>
        <time>2023-02-19T08:31:01Z</time>
      </trkpt>
      <trkpt lat="45.69443" lon="4.31149">
        <ele>467.3</ele>
        <time>2023-02-19T08:31:02Z</time>
      </trkpt>
      <trkpt lat="45.69443" lon="4.31147">
        <ele>467.2</ele>
        <time>2023-02-19T08:31:03Z</time>
      </trkpt>
      <trkpt lat="45.69444" lon="4.31146">
        <ele>467.2</ele>
        <time>2023-02-19T08:31:04Z</time>
      </trkpt>
      <trkpt lat="45.69444" lon="4.31146">
        <ele>467.2</ele>
        <time>2023-02-19T08:31:05Z</time>
      </trkpt>
      <trkpt lat="45.69444" lon="4.31145">
        <ele>467.2</ele>
        <time>2023-02-19T08:31:07Z</time>
      </trkpt>
      <trkpt lat="45.69444" lon="4.31145">
        <ele>467.2</ele>
        <time>2023-02-19T08:31:08Z</time>
      </trkpt>
      <trkpt lat="45.69444" lon="4.31143">
        <ele>467.1</ele>
        <time>2023-02-19T08:31:09Z</time>
      </trkpt>
      <trkpt lat="45.69444" lon="4.31142">
        <ele>467.1</ele>
        <time>2023-02-19T08:31:10Z</time>
      </trkpt>
      <trkpt lat="45.69445" lon="4.31139">
        <ele>467</ele>
        <time>2023-02-19T08:31:11Z</time>
      </trkpt>
      <trkpt lat="45.69445" lon="4.31138">
        <ele>467</ele>
        <time>2023-02-19T08:31:12Z</time>
      </trkpt>
      <trkpt lat="45.69445" lon="4.31137">
        <ele>467</ele>
        <time>2023-02-19T08:31:13Z</time>
      </trkpt>
      <trkpt lat="45.69446" lon="4.31134">
        <ele>466.9</ele>
        <time>2023-02-19T08:31:14Z</time>
      </trkpt>
      <trkpt lat="45.69446" lon="4.31133">
        <ele>466.9</ele>
        <time>2023-02-19T08:31:15Z</time>
      </trkpt>
      <trkpt lat="45.69447" lon="4.31132">
        <ele>466.9</ele>
        <time>2023-02-19T08:31:17Z</time>
      </trkpt>
      <trkpt lat="45.69447" lon="4.3113">
        <ele>466.9</ele>
        <time>2023-02-19T08:31:18Z</time>
      </trkpt>
      <trkpt lat="45.69448" lon="4.31129">
        <ele>466.9</ele>
        <time>2023-02-19T08:31:19Z</time>
      </trkpt>
      <trkpt lat="45.69448" lon="4.31128">
        <ele>466.9</ele>
        <time>2023-02-19T08:31:20Z</time>
      </trkpt>
      <trkpt lat="45.69448" lon="4.31126">
        <ele>466.8</ele>
        <time>2023-02-19T08:31:21Z</time>
      </trkpt>
      <trkpt lat="45.69449" lon="4.31123">
        <ele>466.8</ele>
        <time>2023-02-19T08:31:22Z</time>
      </trkpt>
      <trkpt lat="45.69449" lon="4.31121">
        <ele>466.8</ele>
        <time>2023-02-19T08:31:23Z</time>
      </trkpt>
      <trkpt lat="45.6945" lon="4.31118">
        <ele>466.8</ele>
        <time>2023-02-19T08:31:25Z</time>
      </trkpt>
      <trkpt lat="45.69451" lon="4.31114">
        <ele>466.9</ele>
        <time>2023-02-19T08:31:26Z</time>
      </trkpt>
      <trkpt lat="45.69451" lon="4.31111">
        <ele>466.9</ele>
        <time>2023-02-19T08:31:28Z</time>
      </trkpt>
      <trkpt lat="45.69451" lon="4.3111">
        <ele>466.9</ele>
        <time>2023-02-19T08:31:29Z</time>
      </trkpt>
      <trkpt lat="45.69451" lon="4.31108">
        <ele>466.9</ele>
        <time>2023-02-19T08:31:30Z</time>
      </trkpt>
      <trkpt lat="45.69451" lon="4.31105">
        <ele>467</ele>
        <time>2023-02-19T08:31:31Z</time>
      </trkpt>
      <trkpt lat="45.69451" lon="4.31103">
        <ele>467</ele>
        <time>2023-02-19T08:31:32Z</time>
      </trkpt>
      <trkpt lat="45.69451" lon="4.311">
        <ele>467.1</ele>
        <time>2023-02-19T08:31:33Z</time>
      </trkpt>
      <trkpt lat="45.69451" lon="4.31098">
        <ele>467.1</ele>
        <time>2023-02-19T08:31:34Z</time>
      </trkpt>
      <trkpt lat="45.69452" lon="4.31095">
        <ele>467.2</ele>
        <time>2023-02-19T08:31:36Z</time>
      </trkpt>
      <trkpt lat="45.69452" lon="4.31092">
        <ele>467.3</ele>
        <time>2023-02-19T08:31:37Z</time>
      </trkpt>
      <trkpt lat="45.69452" lon="4.3109">
        <ele>467.4</ele>
        <time>2023-02-19T08:31:38Z</time>
      </trkpt>
      <trkpt lat="45.69452" lon="4.31087">
        <ele>467.5</ele>
        <time>2023-02-19T08:31:39Z</time>
      </trkpt>
      <trkpt lat="45.69452" lon="4.31085">
        <ele>467.6</ele>
        <time>2023-02-19T08:31:40Z</time>
      </trkpt>
      <trkpt lat="45.69452" lon="4.3108">
        <ele>467.7</ele>
        <time>2023-02-19T08:31:41Z</time>
      </trkpt>
      <trkpt lat="45.69452" lon="4.31079">
        <ele>467.8</ele>
        <time>2023-02-19T08:31:42Z</time>
      </trkpt>
      <trkpt lat="45.69452" lon="4.31076">
        <ele>467.9</ele>
        <time>2023-02-19T08:31:43Z</time>
      </trkpt>
      <trkpt lat="45.69452" lon="4.31073">
        <ele>468</ele>
        <time>2023-02-19T08:31:45Z</time>
      </trkpt>
      <trkpt lat="45.69451" lon="4.31069">
        <ele>468.2</ele>
        <time>2023-02-19T08:31:46Z</time>
      </trkpt>
      <trkpt lat="45.69451" lon="4.31067">
        <ele>468.3</ele>
        <time>2023-02-19T08:31:47Z</time>
      </trkpt>
      <trkpt lat="45.6945" lon="4.31064">
        <ele>468.4</ele>
        <time>2023-02-19T08:31:48Z</time>
      </trkpt>
      <trkpt lat="45.6945" lon="4.31062">
        <ele>468.4</ele>
        <time>2023-02-19T08:31:49Z</time>
      </trkpt>
      <trkpt lat="45.6945" lon="4.31056">
        <ele>468.6</ele>
        <time>2023-02-19T08:31:51Z</time>
      </trkpt>
      <trkpt lat="45.6945" lon="4.31053">
        <ele>468.6</ele>
        <time>2023-02-19T08:31:53Z</time>
      </trkpt>
      <trkpt lat="45.6945" lon="4.31051">
        <ele>468.7</ele>
        <time>2023-02-19T08:31:54Z</time>
      </trkpt>
      <trkpt lat="45.6945" lon="4.31049">
        <ele>468.7</ele>
        <time>2023-02-19T08:31:55Z</time>
      </trkpt>
      <trkpt lat="45.6945" lon="4.31046">
        <ele>468.7</ele>
        <time>2023-02-19T08:31:56Z</time>
      </trkpt>
      <trkpt lat="45.6945" lon="4.31043">
        <ele>468.7</ele>
        <time>2023-02-19T08:31:57Z</time>
      </trkpt>
      <trkpt lat="45.6945" lon="4.31042">
        <ele>468.7</ele>
        <time>2023-02-19T08:31:58Z</time>
      </trkpt>
      <trkpt lat="45.6945" lon="4.3104">
        <ele>468.7</ele>
        <time>2023-02-19T08:31:59Z</time>
      </trkpt>
      <trkpt lat="45.6945" lon="4.31037">
        <ele>468.7</ele>
        <time>2023-02-19T08:32:01Z</time>
      </trkpt>
      <trkpt lat="45.6945" lon="4.31036">
        <ele>468.7</ele>
        <time>2023-02-19T08:32:02Z</time>
      </trkpt>
      <trkpt lat="45.6945" lon="4.31034">
        <ele>468.7</ele>
        <time>2023-02-19T08:32:03Z</time>
      </trkpt>
      <trkpt lat="45.6945" lon="4.31033">
        <ele>468.7</ele>
        <time>2023-02-19T08:32:04Z</time>
      </trkpt>
      <trkpt lat="45.6945" lon="4.31032">
        <ele>468.7</ele>
        <time>2023-02-19T08:32:05Z</time>
      </trkpt>
      <trkpt lat="45.6945" lon="4.3103">
        <ele>468.6</ele>
        <time>2023-02-19T08:32:06Z</time>
      </trkpt>
      <trkpt lat="45.6945" lon="4.31028">
        <ele>468.6</ele>
        <time>2023-02-19T08:32:07Z</time>
      </trkpt>
      <trkpt lat="45.6945" lon="4.31027">
        <ele>468.6</ele>
        <time>2023-02-19T08:32:09Z</time>
      </trkpt>
      <trkpt lat="45.6945" lon="4.31026">
        <ele>468.6</ele>
        <time>2023-02-19T08:32:10Z</time>
      </trkpt>
      <trkpt lat="45.6945" lon="4.31025">
        <ele>468.5</ele>
        <time>2023-02-19T08:32:11Z</time>
      </trkpt>
      <trkpt lat="45.6945" lon="4.31023">
        <ele>468.5</ele>
        <time>2023-02-19T08:32:12Z</time>
      </trkpt>
      <trkpt lat="45.6945" lon="4.3102">
        <ele>468.5</ele>
        <time>2023-02-19T08:32:13Z</time>
      </trkpt>
      <trkpt lat="45.6945" lon="4.31019">
        <ele>468.5</ele>
        <time>2023-02-19T08:32:14Z</time>
      </trkpt>
      <trkpt lat="45.6945" lon="4.31018">
        <ele>468.4</ele>
        <time>2023-02-19T08:32:16Z</time>
      </trkpt>
      <trkpt lat="45.6945" lon="4.31016">
        <ele>468.4</ele>
        <time>2023-02-19T08:32:17Z</time>
      </trkpt>
      <trkpt lat="45.6945" lon="4.31015">
        <ele>468.4</ele>
        <time>2023-02-19T08:32:18Z</time>
      </trkpt>
      <trkpt lat="45.6945" lon="4.31014">
        <ele>468.3</ele>
        <time>2023-02-19T08:32:19Z</time>
      </trkpt>
      <trkpt lat="45.6945" lon="4.31012">
        <ele>468.3</ele>
        <time>2023-02-19T08:32:20Z</time>
      </trkpt>
      <trkpt lat="45.6945" lon="4.3101">
        <ele>468.3</ele>
        <time>2023-02-19T08:32:21Z</time>
      </trkpt>
      <trkpt lat="45.6945" lon="4.31007">
        <ele>468.2</ele>
        <time>2023-02-19T08:32:23Z</time>
      </trkpt>
      <trkpt lat="45.6945" lon="4.31004">
        <ele>468.1</ele>
        <time>2023-02-19T08:32:24Z</time>
      </trkpt>
      <trkpt lat="45.6945" lon="4.31003">
        <ele>468.1</ele>
        <time>2023-02-19T08:32:25Z</time>
      </trkpt>
      <trkpt lat="45.69451" lon="4.31002">
        <ele>468.1</ele>
        <time>2023-02-19T08:32:26Z</time>
      </trkpt>
      <trkpt lat="45.69451" lon="4.31">
        <ele>468</ele>
        <time>2023-02-19T08:32:27Z</time>
      </trkpt>
      <trkpt lat="45.69452" lon="4.30998">
        <ele>468</ele>
        <time>2023-02-19T08:32:28Z</time>
      </trkpt>
      <trkpt lat="45.69453" lon="4.30997">
        <ele>467.9</ele>
        <time>2023-02-19T08:32:29Z</time>
      </trkpt>
      <trkpt lat="45.69453" lon="4.30995">
        <ele>467.9</ele>
        <time>2023-02-19T08:32:30Z</time>
      </trkpt>
      <trkpt lat="45.69454" lon="4.30994">
        <ele>467.8</ele>
        <time>2023-02-19T08:32:32Z</time>
      </trkpt>
      <trkpt lat="45.69455" lon="4.30991">
        <ele>467.7</ele>
        <time>2023-02-19T08:32:33Z</time>
      </trkpt>
      <trkpt lat="45.69455" lon="4.3099">
        <ele>467.7</ele>
        <time>2023-02-19T08:32:34Z</time>
      </trkpt>
      <trkpt lat="45.69456" lon="4.30989">
        <ele>467.6</ele>
        <time>2023-02-19T08:32:35Z</time>
      </trkpt>
      <trkpt lat="45.69456" lon="4.30987">
        <ele>467.5</ele>
        <time>2023-02-19T08:32:36Z</time>
      </trkpt>
      <trkpt lat="45.69457" lon="4.30985">
        <ele>467.5</ele>
        <time>2023-02-19T08:32:37Z</time>
      </trkpt>
      <trkpt lat="45.69457" lon="4.30982">
        <ele>467.4</ele>
        <time>2023-02-19T08:32:38Z</time>
      </trkpt>
      <trkpt lat="45.69457" lon="4.3098">
        <ele>467.3</ele>
        <time>2023-02-19T08:32:39Z</time>
      </trkpt>
      <trkpt lat="45.69458" lon="4.30978">
        <ele>467.2</ele>
        <time>2023-02-19T08:32:40Z</time>
      </trkpt>
      <trkpt lat="45.69458" lon="4.30976">
        <ele>467.1</ele>
        <time>2023-02-19T08:32:42Z</time>
      </trkpt>
      <trkpt lat="45.69459" lon="4.30974">
        <ele>467</ele>
        <time>2023-02-19T08:32:43Z</time>
      </trkpt>
      <trkpt lat="45.6946" lon="4.30972">
        <ele>467</ele>
        <time>2023-02-19T08:32:44Z</time>
      </trkpt>
      <trkpt lat="45.6946" lon="4.3097">
        <ele>466.9</ele>
        <time>2023-02-19T08:32:45Z</time>
      </trkpt>
      <trkpt lat="45.69461" lon="4.30968">
        <ele>466.8</ele>
        <time>2023-02-19T08:32:46Z</time>
      </trkpt>
      <trkpt lat="45.69462" lon="4.30966">
        <ele>466.7</ele>
        <time>2023-02-19T08:32:47Z</time>
      </trkpt>
      <trkpt lat="45.69463" lon="4.30965">
        <ele>466.6</ele>
        <time>2023-02-19T08:32:48Z</time>
      </trkpt>
      <trkpt lat="45.69463" lon="4.30964">
        <ele>466.6</ele>
        <time>2023-02-19T08:32:49Z</time>
      </trkpt>
      <trkpt lat="45.69464" lon="4.30963">
        <ele>466.5</ele>
        <time>2023-02-19T08:32:50Z</time>
      </trkpt>
      <trkpt lat="45.69464" lon="4.30961">
        <ele>466.5</ele>
        <time>2023-02-19T08:32:52Z</time>
      </trkpt>
      <trkpt lat="45.69464" lon="4.3096">
        <ele>466.4</ele>
        <time>2023-02-19T08:32:53Z</time>
      </trkpt>
      <trkpt lat="45.69465" lon="4.30958">
        <ele>466.3</ele>
        <time>2023-02-19T08:32:54Z</time>
      </trkpt>
      <trkpt lat="45.69465" lon="4.30956">
        <ele>466.2</ele>
        <time>2023-02-19T08:32:55Z</time>
      </trkpt>
      <trkpt lat="45.69465" lon="4.30954">
        <ele>466.1</ele>
        <time>2023-02-19T08:32:56Z</time>
      </trkpt>
      <trkpt lat="45.69466" lon="4.30951">
        <ele>466</ele>
        <time>2023-02-19T08:32:57Z</time>
      </trkpt>
      <trkpt lat="45.69466" lon="4.30949">
        <ele>465.9</ele>
        <time>2023-02-19T08:32:58Z</time>
      </trkpt>
      <trkpt lat="45.69466" lon="4.30947">
        <ele>465.8</ele>
        <time>2023-02-19T08:32:59Z</time>
      </trkpt>
      <trkpt lat="45.69466" lon="4.30944">
        <ele>465.6</ele>
        <time>2023-02-19T08:33:00Z</time>
      </trkpt>
      <trkpt lat="45.69467" lon="4.30942">
        <ele>465.5</ele>
        <time>2023-02-19T08:33:01Z</time>
      </trkpt>
      <trkpt lat="45.69467" lon="4.30941">
        <ele>465.4</ele>
        <time>2023-02-19T08:33:02Z</time>
      </trkpt>
      <trkpt lat="45.69467" lon="4.3094">
        <ele>465.3</ele>
        <time>2023-02-19T08:33:04Z</time>
      </trkpt>
      <trkpt lat="45.69467" lon="4.30938">
        <ele>465.3</ele>
        <time>2023-02-19T08:33:05Z</time>
      </trkpt>
      <trkpt lat="45.69467" lon="4.30937">
        <ele>465.2</ele>
        <time>2023-02-19T08:33:06Z</time>
      </trkpt>
      <trkpt lat="45.69468" lon="4.30935">
        <ele>465.1</ele>
        <time>2023-02-19T08:33:07Z</time>
      </trkpt>
      <trkpt lat="45.69468" lon="4.30934">
        <ele>465</ele>
        <time>2023-02-19T08:33:08Z</time>
      </trkpt>
      <trkpt lat="45.69469" lon="4.30932">
        <ele>464.8</ele>
        <time>2023-02-19T08:33:09Z</time>
      </trkpt>
      <trkpt lat="45.69469" lon="4.3093">
        <ele>464.7</ele>
        <time>2023-02-19T08:33:10Z</time>
      </trkpt>
      <trkpt lat="45.6947" lon="4.30928">
        <ele>464.5</ele>
        <time>2023-02-19T08:33:11Z</time>
      </trkpt>
      <trkpt lat="45.6947" lon="4.30926">
        <ele>464.4</ele>
        <time>2023-02-19T08:33:12Z</time>
      </trkpt>
      <trkpt lat="45.69471" lon="4.30924">
        <ele>464.2</ele>
        <time>2023-02-19T08:33:14Z</time>
      </trkpt>
      <trkpt lat="45.69472" lon="4.30922">
        <ele>464</ele>
        <time>2023-02-19T08:33:15Z</time>
      </trkpt>
      <trkpt lat="45.69473" lon="4.30921">
        <ele>463.8</ele>
        <time>2023-02-19T08:33:16Z</time>
      </trkpt>
      <trkpt lat="45.69474" lon="4.30919">
        <ele>463.6</ele>
        <time>2023-02-19T08:33:17Z</time>
      </trkpt>
      <trkpt lat="45.69475" lon="4.30917">
        <ele>463.5</ele>
        <time>2023-02-19T08:33:18Z</time>
      </trkpt>
      <trkpt lat="45.69476" lon="4.30915">
        <ele>463.3</ele>
        <time>2023-02-19T08:33:19Z</time>
      </trkpt>
      <trkpt lat="45.69477" lon="4.30913">
        <ele>463.1</ele>
        <time>2023-02-19T08:33:20Z</time>
      </trkpt>
      <trkpt lat="45.69478" lon="4.30911">
        <ele>462.9</ele>
        <time>2023-02-19T08:33:21Z</time>
      </trkpt>
      <trkpt lat="45.69478" lon="4.3091">
        <ele>462.7</ele>
        <time>2023-02-19T08:33:22Z</time>
      </trkpt>
      <trkpt lat="45.6948" lon="4.30907">
        <ele>462.4</ele>
        <time>2023-02-19T08:33:23Z</time>
      </trkpt>
      <trkpt lat="45.6948" lon="4.30906">
        <ele>462.3</ele>
        <time>2023-02-19T08:33:24Z</time>
      </trkpt>
      <trkpt lat="45.69481" lon="4.30905">
        <ele>462.2</ele>
        <time>2023-02-19T08:33:25Z</time>
      </trkpt>
      <trkpt lat="45.69482" lon="4.30905">
        <ele>462.1</ele>
        <time>2023-02-19T08:33:27Z</time>
      </trkpt>
      <trkpt lat="45.69483" lon="4.30904">
        <ele>461.9</ele>
        <time>2023-02-19T08:33:28Z</time>
      </trkpt>
      <trkpt lat="45.69484" lon="4.30903">
        <ele>461.8</ele>
        <time>2023-02-19T08:33:29Z</time>
      </trkpt>
      <trkpt lat="45.69484" lon="4.30902">
        <ele>461.7</ele>
        <time>2023-02-19T08:33:30Z</time>
      </trkpt>
      <trkpt lat="45.69485" lon="4.30902">
        <ele>461.6</ele>
        <time>2023-02-19T08:33:31Z</time>
      </trkpt>
      <trkpt lat="45.69485" lon="4.30901">
        <ele>461.5</ele>
        <time>2023-02-19T08:33:32Z</time>
      </trkpt>
      <trkpt lat="45.69486" lon="4.30901">
        <ele>461.4</ele>
        <time>2023-02-19T08:33:33Z</time>
      </trkpt>
      <trkpt lat="45.69486" lon="4.30899">
        <ele>461.3</ele>
        <time>2023-02-19T08:33:34Z</time>
      </trkpt>
      <trkpt lat="45.69487" lon="4.30898">
        <ele>461.1</ele>
        <time>2023-02-19T08:33:36Z</time>
      </trkpt>
      <trkpt lat="45.69488" lon="4.30896">
        <ele>461</ele>
        <time>2023-02-19T08:33:37Z</time>
      </trkpt>
      <trkpt lat="45.69488" lon="4.30895">
        <ele>460.9</ele>
        <time>2023-02-19T08:33:38Z</time>
      </trkpt>
      <trkpt lat="45.69489" lon="4.30893">
        <ele>460.7</ele>
        <time>2023-02-19T08:33:40Z</time>
      </trkpt>
      <trkpt lat="45.69489" lon="4.30892">
        <ele>460.6</ele>
        <time>2023-02-19T08:33:41Z</time>
      </trkpt>
      <trkpt lat="45.69489" lon="4.3089">
        <ele>460.4</ele>
        <time>2023-02-19T08:33:42Z</time>
      </trkpt>
      <trkpt lat="45.69489" lon="4.30889">
        <ele>460.3</ele>
        <time>2023-02-19T08:33:43Z</time>
      </trkpt>
      <trkpt lat="45.69489" lon="4.30887">
        <ele>460.1</ele>
        <time>2023-02-19T08:33:44Z</time>
      </trkpt>
      <trkpt lat="45.69489" lon="4.30883">
        <ele>459.8</ele>
        <time>2023-02-19T08:33:45Z</time>
      </trkpt>
      <trkpt lat="45.6949" lon="4.30882">
        <ele>459.7</ele>
        <time>2023-02-19T08:33:47Z</time>
      </trkpt>
      <trkpt lat="45.6949" lon="4.3088">
        <ele>459.6</ele>
        <time>2023-02-19T08:33:48Z</time>
      </trkpt>
      <trkpt lat="45.6949" lon="4.30878">
        <ele>459.4</ele>
        <time>2023-02-19T08:33:49Z</time>
      </trkpt>
      <trkpt lat="45.6949" lon="4.30877">
        <ele>459.3</ele>
        <time>2023-02-19T08:33:50Z</time>
      </trkpt>
      <trkpt lat="45.69491" lon="4.30875">
        <ele>459.1</ele>
        <time>2023-02-19T08:33:51Z</time>
      </trkpt>
      <trkpt lat="45.69492" lon="4.30873">
        <ele>459</ele>
        <time>2023-02-19T08:33:52Z</time>
      </trkpt>
      <trkpt lat="45.69492" lon="4.30872">
        <ele>458.8</ele>
        <time>2023-02-19T08:33:54Z</time>
      </trkpt>
      <trkpt lat="45.69494" lon="4.30869">
        <ele>458.6</ele>
        <time>2023-02-19T08:33:55Z</time>
      </trkpt>
      <trkpt lat="45.69494" lon="4.30868">
        <ele>458.5</ele>
        <time>2023-02-19T08:33:56Z</time>
      </trkpt>
      <trkpt lat="45.69495" lon="4.30867">
        <ele>458.4</ele>
        <time>2023-02-19T08:33:57Z</time>
      </trkpt>
      <trkpt lat="45.69495" lon="4.30865">
        <ele>458.2</ele>
        <time>2023-02-19T08:33:58Z</time>
      </trkpt>
      <trkpt lat="45.69496" lon="4.30864">
        <ele>458.1</ele>
        <time>2023-02-19T08:33:59Z</time>
      </trkpt>
      <trkpt lat="45.69497" lon="4.30861">
        <ele>457.8</ele>
        <time>2023-02-19T08:34:00Z</time>
      </trkpt>
      <trkpt lat="45.69498" lon="4.3086">
        <ele>457.7</ele>
        <time>2023-02-19T08:34:01Z</time>
      </trkpt>
      <trkpt lat="45.69498" lon="4.30859">
        <ele>457.6</ele>
        <time>2023-02-19T08:34:02Z</time>
      </trkpt>
      <trkpt lat="45.69499" lon="4.30857">
        <ele>457.5</ele>
        <time>2023-02-19T08:34:03Z</time>
      </trkpt>
      <trkpt lat="45.69499" lon="4.30855">
        <ele>457.3</ele>
        <time>2023-02-19T08:34:04Z</time>
      </trkpt>
      <trkpt lat="45.69501" lon="4.30852">
        <ele>457</ele>
        <time>2023-02-19T08:34:06Z</time>
      </trkpt>
      <trkpt lat="45.69501" lon="4.30851">
        <ele>456.9</ele>
        <time>2023-02-19T08:34:07Z</time>
      </trkpt>
      <trkpt lat="45.69502" lon="4.30849">
        <ele>456.7</ele>
        <time>2023-02-19T08:34:08Z</time>
      </trkpt>
      <trkpt lat="45.69503" lon="4.30846">
        <ele>456.4</ele>
        <time>2023-02-19T08:34:09Z</time>
      </trkpt>
      <trkpt lat="45.69504" lon="4.30844">
        <ele>456.2</ele>
        <time>2023-02-19T08:34:10Z</time>
      </trkpt>
      <trkpt lat="45.69505" lon="4.30842">
        <ele>456</ele>
        <time>2023-02-19T08:34:11Z</time>
      </trkpt>
      <trkpt lat="45.69506" lon="4.3084">
        <ele>455.8</ele>
        <time>2023-02-19T08:34:12Z</time>
      </trkpt>
      <trkpt lat="45.69507" lon="4.30838">
        <ele>455.6</ele>
        <time>2023-02-19T08:34:13Z</time>
      </trkpt>
      <trkpt lat="45.69508" lon="4.30836">
        <ele>455.3</ele>
        <time>2023-02-19T08:34:14Z</time>
      </trkpt>
      <trkpt lat="45.69509" lon="4.30834">
        <ele>455</ele>
        <time>2023-02-19T08:34:16Z</time>
      </trkpt>
      <trkpt lat="45.69511" lon="4.30833">
        <ele>454.8</ele>
        <time>2023-02-19T08:34:17Z</time>
      </trkpt>
      <trkpt lat="45.69512" lon="4.30831">
        <ele>454.6</ele>
        <time>2023-02-19T08:34:18Z</time>
      </trkpt>
      <trkpt lat="45.69513" lon="4.3083">
        <ele>454.4</ele>
        <time>2023-02-19T08:34:19Z</time>
      </trkpt>
      <trkpt lat="45.69515" lon="4.30828">
        <ele>454.2</ele>
        <time>2023-02-19T08:34:20Z</time>
      </trkpt>
      <trkpt lat="45.69516" lon="4.30827">
        <ele>454</ele>
        <time>2023-02-19T08:34:21Z</time>
      </trkpt>
      <trkpt lat="45.69517" lon="4.30826">
        <ele>453.8</ele>
        <time>2023-02-19T08:34:23Z</time>
      </trkpt>
      <trkpt lat="45.69519" lon="4.30825">
        <ele>453.6</ele>
        <time>2023-02-19T08:34:24Z</time>
      </trkpt>
      <trkpt lat="45.6952" lon="4.30824">
        <ele>453.4</ele>
        <time>2023-02-19T08:34:25Z</time>
      </trkpt>
      <trkpt lat="45.69521" lon="4.30822">
        <ele>453.3</ele>
        <time>2023-02-19T08:34:26Z</time>
      </trkpt>
      <trkpt lat="45.69523" lon="4.30821">
        <ele>453.1</ele>
        <time>2023-02-19T08:34:27Z</time>
      </trkpt>
      <trkpt lat="45.69524" lon="4.3082">
        <ele>452.9</ele>
        <time>2023-02-19T08:34:28Z</time>
      </trkpt>
      <trkpt lat="45.69526" lon="4.30819">
        <ele>452.6</ele>
        <time>2023-02-19T08:34:30Z</time>
      </trkpt>
      <trkpt lat="45.69528" lon="4.30817">
        <ele>452.3</ele>
        <time>2023-02-19T08:34:31Z</time>
      </trkpt>
      <trkpt lat="45.69529" lon="4.30817">
        <ele>452.2</ele>
        <time>2023-02-19T08:34:32Z</time>
      </trkpt>
      <trkpt lat="45.6953" lon="4.30816">
        <ele>452.1</ele>
        <time>2023-02-19T08:34:33Z</time>
      </trkpt>
      <trkpt lat="45.69531" lon="4.30815">
        <ele>451.8</ele>
        <time>2023-02-19T08:34:34Z</time>
      </trkpt>
      <trkpt lat="45.69532" lon="4.30814">
        <ele>451.7</ele>
        <time>2023-02-19T08:34:35Z</time>
      </trkpt>
      <trkpt lat="45.69533" lon="4.30814">
        <ele>451.6</ele>
        <time>2023-02-19T08:34:36Z</time>
      </trkpt>
      <trkpt lat="45.69533" lon="4.30812">
        <ele>451.5</ele>
        <time>2023-02-19T08:34:37Z</time>
      </trkpt>
      <trkpt lat="45.69534" lon="4.30809">
        <ele>451.2</ele>
        <time>2023-02-19T08:34:39Z</time>
      </trkpt>
      <trkpt lat="45.69535" lon="4.30807">
        <ele>451</ele>
        <time>2023-02-19T08:34:41Z</time>
      </trkpt>
      <trkpt lat="45.69535" lon="4.30805">
        <ele>450.8</ele>
        <time>2023-02-19T08:34:42Z</time>
      </trkpt>
      <trkpt lat="45.69536" lon="4.30803">
        <ele>450.6</ele>
        <time>2023-02-19T08:34:43Z</time>
      </trkpt>
      <trkpt lat="45.69536" lon="4.30801">
        <ele>450.4</ele>
        <time>2023-02-19T08:34:44Z</time>
      </trkpt>
      <trkpt lat="45.69537" lon="4.30798">
        <ele>450.1</ele>
        <time>2023-02-19T08:34:45Z</time>
      </trkpt>
      <trkpt lat="45.69537" lon="4.30796">
        <ele>449.9</ele>
        <time>2023-02-19T08:34:46Z</time>
      </trkpt>
      <trkpt lat="45.69537" lon="4.30795">
        <ele>449.8</ele>
        <time>2023-02-19T08:34:47Z</time>
      </trkpt>
      <trkpt lat="45.69538" lon="4.30793">
        <ele>449.6</ele>
        <time>2023-02-19T08:34:48Z</time>
      </trkpt>
      <trkpt lat="45.69539" lon="4.3079">
        <ele>449.3</ele>
        <time>2023-02-19T08:34:50Z</time>
      </trkpt>
      <trkpt lat="45.69539" lon="4.30788">
        <ele>449</ele>
        <time>2023-02-19T08:34:51Z</time>
      </trkpt>
      <trkpt lat="45.6954" lon="4.30786">
        <ele>448.8</ele>
        <time>2023-02-19T08:34:52Z</time>
      </trkpt>
      <trkpt lat="45.69541" lon="4.30784">
        <ele>448.5</ele>
        <time>2023-02-19T08:34:53Z</time>
      </trkpt>
      <trkpt lat="45.69542" lon="4.30781">
        <ele>448.1</ele>
        <time>2023-02-19T08:34:55Z</time>
      </trkpt>
      <trkpt lat="45.69543" lon="4.30779">
        <ele>447.9</ele>
        <time>2023-02-19T08:34:56Z</time>
      </trkpt>
      <trkpt lat="45.69543" lon="4.30777">
        <ele>447.6</ele>
        <time>2023-02-19T08:34:57Z</time>
      </trkpt>
      <trkpt lat="45.69544" lon="4.30775">
        <ele>447.3</ele>
        <time>2023-02-19T08:34:58Z</time>
      </trkpt>
      <trkpt lat="45.69546" lon="4.30772">
        <ele>446.9</ele>
        <time>2023-02-19T08:35:00Z</time>
      </trkpt>
      <trkpt lat="45.69547" lon="4.3077">
        <ele>446.7</ele>
        <time>2023-02-19T08:35:01Z</time>
      </trkpt>
      <trkpt lat="45.69547" lon="4.30768">
        <ele>446.5</ele>
        <time>2023-02-19T08:35:02Z</time>
      </trkpt>
      <trkpt lat="45.69548" lon="4.30766">
        <ele>446.3</ele>
        <time>2023-02-19T08:35:03Z</time>
      </trkpt>
      <trkpt lat="45.69549" lon="4.30764">
        <ele>446</ele>
        <time>2023-02-19T08:35:04Z</time>
      </trkpt>
      <trkpt lat="45.69549" lon="4.30762">
        <ele>445.8</ele>
        <time>2023-02-19T08:35:05Z</time>
      </trkpt>
      <trkpt lat="45.6955" lon="4.3076">
        <ele>445.5</ele>
        <time>2023-02-19T08:35:06Z</time>
      </trkpt>
      <trkpt lat="45.6955" lon="4.30758">
        <ele>445.3</ele>
        <time>2023-02-19T08:35:07Z</time>
      </trkpt>
      <trkpt lat="45.69551" lon="4.30757">
        <ele>445.1</ele>
        <time>2023-02-19T08:35:08Z</time>
      </trkpt>
      <trkpt lat="45.69551" lon="4.30754">
        <ele>445</ele>
        <time>2023-02-19T08:35:10Z</time>
      </trkpt>
      <trkpt lat="45.69552" lon="4.30752">
        <ele>444.8</ele>
        <time>2023-02-19T08:35:11Z</time>
      </trkpt>
      <trkpt lat="45.69554" lon="4.30748">
        <ele>444.5</ele>
        <time>2023-02-19T08:35:13Z</time>
      </trkpt>
      <trkpt lat="45.69554" lon="4.30746">
        <ele>444.4</ele>
        <time>2023-02-19T08:35:14Z</time>
      </trkpt>
      <trkpt lat="45.69555" lon="4.30743">
        <ele>444.2</ele>
        <time>2023-02-19T08:35:15Z</time>
      </trkpt>
      <trkpt lat="45.69556" lon="4.30742">
        <ele>444.1</ele>
        <time>2023-02-19T08:35:16Z</time>
      </trkpt>
      <trkpt lat="45.69557" lon="4.3074">
        <ele>443.9</ele>
        <time>2023-02-19T08:35:17Z</time>
      </trkpt>
      <trkpt lat="45.69558" lon="4.30738">
        <ele>443.8</ele>
        <time>2023-02-19T08:35:18Z</time>
      </trkpt>
      <trkpt lat="45.69558" lon="4.30737">
        <ele>443.7</ele>
        <time>2023-02-19T08:35:19Z</time>
      </trkpt>
      <trkpt lat="45.69559" lon="4.30735">
        <ele>443.5</ele>
        <time>2023-02-19T08:35:20Z</time>
      </trkpt>
      <trkpt lat="45.69561" lon="4.30733">
        <ele>443.3</ele>
        <time>2023-02-19T08:35:21Z</time>
      </trkpt>
      <trkpt lat="45.69561" lon="4.30732">
        <ele>443.3</ele>
        <time>2023-02-19T08:35:23Z</time>
      </trkpt>
      <trkpt lat="45.69562" lon="4.30731">
        <ele>443.2</ele>
        <time>2023-02-19T08:35:24Z</time>
      </trkpt>
      <trkpt lat="45.69563" lon="4.30729">
        <ele>443</ele>
        <time>2023-02-19T08:35:25Z</time>
      </trkpt>
      <trkpt lat="45.69564" lon="4.30728">
        <ele>442.9</ele>
        <time>2023-02-19T08:35:26Z</time>
      </trkpt>
      <trkpt lat="45.69564" lon="4.30727">
        <ele>442.8</ele>
        <time>2023-02-19T08:35:27Z</time>
      </trkpt>
      <trkpt lat="45.69566" lon="4.30723">
        <ele>442.5</ele>
        <time>2023-02-19T08:35:29Z</time>
      </trkpt>
      <trkpt lat="45.69566" lon="4.30722">
        <ele>442.4</ele>
        <time>2023-02-19T08:35:30Z</time>
      </trkpt>
      <trkpt lat="45.69567" lon="4.30719">
        <ele>442.2</ele>
        <time>2023-02-19T08:35:31Z</time>
      </trkpt>
      <trkpt lat="45.69568" lon="4.30718">
        <ele>442.1</ele>
        <time>2023-02-19T08:35:32Z</time>
      </trkpt>
      <trkpt lat="45.69568" lon="4.30717">
        <ele>442.1</ele>
        <time>2023-02-19T08:35:33Z</time>
      </trkpt>
      <trkpt lat="45.69569" lon="4.30715">
        <ele>441.9</ele>
        <time>2023-02-19T08:35:34Z</time>
      </trkpt>
      <trkpt lat="45.69569" lon="4.30714">
        <ele>441.8</ele>
        <time>2023-02-19T08:35:35Z</time>
      </trkpt>
      <trkpt lat="45.69571" lon="4.30711">
        <ele>441.7</ele>
        <time>2023-02-19T08:35:37Z</time>
      </trkpt>
      <trkpt lat="45.69572" lon="4.3071">
        <ele>441.6</ele>
        <time>2023-02-19T08:35:38Z</time>
      </trkpt>
      <trkpt lat="45.69573" lon="4.30709">
        <ele>441.4</ele>
        <time>2023-02-19T08:35:39Z</time>
      </trkpt>
      <trkpt lat="45.69575" lon="4.30708">
        <ele>441.3</ele>
        <time>2023-02-19T08:35:40Z</time>
      </trkpt>
      <trkpt lat="45.69576" lon="4.30706">
        <ele>441.2</ele>
        <time>2023-02-19T08:35:41Z</time>
      </trkpt>
      <trkpt lat="45.69577" lon="4.30705">
        <ele>441</ele>
        <time>2023-02-19T08:35:42Z</time>
      </trkpt>
      <trkpt lat="45.6958" lon="4.30703">
        <ele>440.8</ele>
        <time>2023-02-19T08:35:43Z</time>
      </trkpt>
      <trkpt lat="45.69581" lon="4.30702">
        <ele>440.8</ele>
        <time>2023-02-19T08:35:44Z</time>
      </trkpt>
      <trkpt lat="45.69582" lon="4.30701">
        <ele>440.6</ele>
        <time>2023-02-19T08:35:45Z</time>
      </trkpt>
      <trkpt lat="45.69584" lon="4.30699">
        <ele>440.5</ele>
        <time>2023-02-19T08:35:47Z</time>
      </trkpt>
      <trkpt lat="45.69585" lon="4.30699">
        <ele>440.4</ele>
        <time>2023-02-19T08:35:48Z</time>
      </trkpt>
      <trkpt lat="45.69587" lon="4.30698">
        <ele>440.3</ele>
        <time>2023-02-19T08:35:49Z</time>
      </trkpt>
      <trkpt lat="45.69588" lon="4.30697">
        <ele>440.2</ele>
        <time>2023-02-19T08:35:50Z</time>
      </trkpt>
      <trkpt lat="45.69589" lon="4.30695">
        <ele>440.1</ele>
        <time>2023-02-19T08:35:51Z</time>
      </trkpt>
      <trkpt lat="45.6959" lon="4.30693">
        <ele>440</ele>
        <time>2023-02-19T08:35:52Z</time>
      </trkpt>
      <trkpt lat="45.69591" lon="4.30692">
        <ele>439.9</ele>
        <time>2023-02-19T08:35:53Z</time>
      </trkpt>
      <trkpt lat="45.69594" lon="4.30689">
        <ele>439.7</ele>
        <time>2023-02-19T08:35:54Z</time>
      </trkpt>
      <trkpt lat="45.69595" lon="4.30688">
        <ele>439.6</ele>
        <time>2023-02-19T08:35:55Z</time>
      </trkpt>
      <trkpt lat="45.69596" lon="4.30687">
        <ele>439.5</ele>
        <time>2023-02-19T08:35:56Z</time>
      </trkpt>
      <trkpt lat="45.69597" lon="4.30686">
        <ele>439.4</ele>
        <time>2023-02-19T08:35:58Z</time>
      </trkpt>
      <trkpt lat="45.69599" lon="4.30685">
        <ele>439.3</ele>
        <time>2023-02-19T08:35:59Z</time>
      </trkpt>
      <trkpt lat="45.696" lon="4.30684">
        <ele>439.2</ele>
        <time>2023-02-19T08:36:00Z</time>
      </trkpt>
      <trkpt lat="45.69602" lon="4.30683">
        <ele>439.1</ele>
        <time>2023-02-19T08:36:01Z</time>
      </trkpt>
      <trkpt lat="45.69604" lon="4.30681">
        <ele>439</ele>
        <time>2023-02-19T08:36:03Z</time>
      </trkpt>
      <trkpt lat="45.69606" lon="4.30681">
        <ele>438.9</ele>
        <time>2023-02-19T08:36:04Z</time>
      </trkpt>
      <trkpt lat="45.69607" lon="4.3068">
        <ele>438.8</ele>
        <time>2023-02-19T08:36:05Z</time>
      </trkpt>
      <trkpt lat="45.6961" lon="4.30678">
        <ele>438.6</ele>
        <time>2023-02-19T08:36:07Z</time>
      </trkpt>
      <trkpt lat="45.6961" lon="4.30678">
        <ele>438.5</ele>
        <time>2023-02-19T08:36:08Z</time>
      </trkpt>
      <trkpt lat="45.69612" lon="4.30676">
        <ele>438.4</ele>
        <time>2023-02-19T08:36:10Z</time>
      </trkpt>
      <trkpt lat="45.69613" lon="4.30676">
        <ele>438.3</ele>
        <time>2023-02-19T08:36:11Z</time>
      </trkpt>
      <trkpt lat="45.69615" lon="4.30674">
        <ele>438.2</ele>
        <time>2023-02-19T08:36:12Z</time>
      </trkpt>
      <trkpt lat="45.69616" lon="4.30674">
        <ele>438.1</ele>
        <time>2023-02-19T08:36:13Z</time>
      </trkpt>
      <trkpt lat="45.69616" lon="4.30673">
        <ele>438.1</ele>
        <time>2023-02-19T08:36:14Z</time>
      </trkpt>
      <trkpt lat="45.69618" lon="4.30672">
        <ele>438</ele>
        <time>2023-02-19T08:36:15Z</time>
      </trkpt>
      <trkpt lat="45.69619" lon="4.30671">
        <ele>437.9</ele>
        <time>2023-02-19T08:36:16Z</time>
      </trkpt>
      <trkpt lat="45.6962" lon="4.3067">
        <ele>437.8</ele>
        <time>2023-02-19T08:36:17Z</time>
      </trkpt>
      <trkpt lat="45.69623" lon="4.30668">
        <ele>437.6</ele>
        <time>2023-02-19T08:36:19Z</time>
      </trkpt>
      <trkpt lat="45.69624" lon="4.30667">
        <ele>437.5</ele>
        <time>2023-02-19T08:36:20Z</time>
      </trkpt>
      <trkpt lat="45.69626" lon="4.30666">
        <ele>437.4</ele>
        <time>2023-02-19T08:36:21Z</time>
      </trkpt>
      <trkpt lat="45.69627" lon="4.30665">
        <ele>437.3</ele>
        <time>2023-02-19T08:36:22Z</time>
      </trkpt>
      <trkpt lat="45.69629" lon="4.30664">
        <ele>437.2</ele>
        <time>2023-02-19T08:36:23Z</time>
      </trkpt>
      <trkpt lat="45.69632" lon="4.30663">
        <ele>437</ele>
        <time>2023-02-19T08:36:25Z</time>
      </trkpt>
      <trkpt lat="45.69633" lon="4.30662">
        <ele>436.9</ele>
        <time>2023-02-19T08:36:26Z</time>
      </trkpt>
      <trkpt lat="45.69635" lon="4.30662">
        <ele>436.8</ele>
        <time>2023-02-19T08:36:27Z</time>
      </trkpt>
      <trkpt lat="45.69638" lon="4.3066">
        <ele>436.6</ele>
        <time>2023-02-19T08:36:29Z</time>
      </trkpt>
      <trkpt lat="45.6964" lon="4.30659">
        <ele>436.4</ele>
        <time>2023-02-19T08:36:30Z</time>
      </trkpt>
      <trkpt lat="45.69643" lon="4.30658">
        <ele>436.2</ele>
        <time>2023-02-19T08:36:32Z</time>
      </trkpt>
      <trkpt lat="45.69643" lon="4.30658">
        <ele>436.1</ele>
        <time>2023-02-19T08:36:33Z</time>
      </trkpt>
      <trkpt lat="45.69645" lon="4.30657">
        <ele>435.9</ele>
        <time>2023-02-19T08:36:34Z</time>
      </trkpt>
      <trkpt lat="45.69646" lon="4.30656">
        <ele>435.9</ele>
        <time>2023-02-19T08:36:35Z</time>
      </trkpt>
      <trkpt lat="45.69647" lon="4.30656">
        <ele>435.8</ele>
        <time>2023-02-19T08:36:36Z</time>
      </trkpt>
      <trkpt lat="45.69649" lon="4.30655">
        <ele>435.7</ele>
        <time>2023-02-19T08:36:37Z</time>
      </trkpt>
      <trkpt lat="45.6965" lon="4.30655">
        <ele>435.5</ele>
        <time>2023-02-19T08:36:38Z</time>
      </trkpt>
      <trkpt lat="45.69652" lon="4.30654">
        <ele>435.4</ele>
        <time>2023-02-19T08:36:39Z</time>
      </trkpt>
      <trkpt lat="45.69654" lon="4.30653">
        <ele>435.3</ele>
        <time>2023-02-19T08:36:41Z</time>
      </trkpt>
      <trkpt lat="45.69655" lon="4.30653">
        <ele>435.1</ele>
        <time>2023-02-19T08:36:42Z</time>
      </trkpt>
      <trkpt lat="45.69656" lon="4.30652">
        <ele>435</ele>
        <time>2023-02-19T08:36:43Z</time>
      </trkpt>
      <trkpt lat="45.69658" lon="4.30651">
        <ele>434.9</ele>
        <time>2023-02-19T08:36:44Z</time>
      </trkpt>
      <trkpt lat="45.69659" lon="4.3065">
        <ele>434.8</ele>
        <time>2023-02-19T08:36:45Z</time>
      </trkpt>
      <trkpt lat="45.6966" lon="4.30649">
        <ele>434.7</ele>
        <time>2023-02-19T08:36:46Z</time>
      </trkpt>
      <trkpt lat="45.69661" lon="4.30648">
        <ele>434.6</ele>
        <time>2023-02-19T08:36:47Z</time>
      </trkpt>
      <trkpt lat="45.69663" lon="4.30647">
        <ele>434.5</ele>
        <time>2023-02-19T08:36:49Z</time>
      </trkpt>
      <trkpt lat="45.69664" lon="4.30646">
        <ele>434.4</ele>
        <time>2023-02-19T08:36:50Z</time>
      </trkpt>
      <trkpt lat="45.69665" lon="4.30645">
        <ele>434.3</ele>
        <time>2023-02-19T08:36:51Z</time>
      </trkpt>
      <trkpt lat="45.69668" lon="4.30644">
        <ele>434.1</ele>
        <time>2023-02-19T08:36:52Z</time>
      </trkpt>
      <trkpt lat="45.69669" lon="4.30643">
        <ele>434</ele>
        <time>2023-02-19T08:36:53Z</time>
      </trkpt>
      <trkpt lat="45.6967" lon="4.30642">
        <ele>433.9</ele>
        <time>2023-02-19T08:36:54Z</time>
      </trkpt>
      <trkpt lat="45.69672" lon="4.30641">
        <ele>433.8</ele>
        <time>2023-02-19T08:36:55Z</time>
      </trkpt>
      <trkpt lat="45.69673" lon="4.3064">
        <ele>433.6</ele>
        <time>2023-02-19T08:36:56Z</time>
      </trkpt>
      <trkpt lat="45.69675" lon="4.30639">
        <ele>433.5</ele>
        <time>2023-02-19T08:36:58Z</time>
      </trkpt>
      <trkpt lat="45.69676" lon="4.30638">
        <ele>433.3</ele>
        <time>2023-02-19T08:36:59Z</time>
      </trkpt>
      <trkpt lat="45.69677" lon="4.30637">
        <ele>433.2</ele>
        <time>2023-02-19T08:37:00Z</time>
      </trkpt>
      <trkpt lat="45.69679" lon="4.30635">
        <ele>433</ele>
        <time>2023-02-19T08:37:01Z</time>
      </trkpt>
      <trkpt lat="45.6968" lon="4.30634">
        <ele>432.8</ele>
        <time>2023-02-19T08:37:03Z</time>
      </trkpt>
      <trkpt lat="45.69681" lon="4.30633">
        <ele>432.7</ele>
        <time>2023-02-19T08:37:04Z</time>
      </trkpt>
      <trkpt lat="45.69682" lon="4.30632">
        <ele>432.6</ele>
        <time>2023-02-19T08:37:05Z</time>
      </trkpt>
      <trkpt lat="45.69683" lon="4.30631">
        <ele>432.4</ele>
        <time>2023-02-19T08:37:06Z</time>
      </trkpt>
      <trkpt lat="45.69685" lon="4.30629">
        <ele>432.1</ele>
        <time>2023-02-19T08:37:07Z</time>
      </trkpt>
      <trkpt lat="45.69686" lon="4.30628">
        <ele>432</ele>
        <time>2023-02-19T08:37:09Z</time>
      </trkpt>
      <trkpt lat="45.69687" lon="4.30628">
        <ele>431.9</ele>
        <time>2023-02-19T08:37:10Z</time>
      </trkpt>
      <trkpt lat="45.69688" lon="4.30627">
        <ele>431.7</ele>
        <time>2023-02-19T08:37:11Z</time>
      </trkpt>
      <trkpt lat="45.69689" lon="4.30626">
        <ele>431.5</ele>
        <time>2023-02-19T08:37:12Z</time>
      </trkpt>
      <trkpt lat="45.6969" lon="4.30625">
        <ele>431.3</ele>
        <time>2023-02-19T08:37:14Z</time>
      </trkpt>
      <trkpt lat="45.69691" lon="4.30624">
        <ele>431.1</ele>
        <time>2023-02-19T08:37:15Z</time>
      </trkpt>
      <trkpt lat="45.69692" lon="4.30623">
        <ele>430.9</ele>
        <time>2023-02-19T08:37:16Z</time>
      </trkpt>
      <trkpt lat="45.69693" lon="4.30621">
        <ele>430.7</ele>
        <time>2023-02-19T08:37:17Z</time>
      </trkpt>
      <trkpt lat="45.69694" lon="4.30619">
        <ele>430.4</ele>
        <time>2023-02-19T08:37:19Z</time>
      </trkpt>
      <trkpt lat="45.69694" lon="4.30618">
        <ele>430.3</ele>
        <time>2023-02-19T08:37:20Z</time>
      </trkpt>
      <trkpt lat="45.69694" lon="4.30616">
        <ele>430.1</ele>
        <time>2023-02-19T08:37:21Z</time>
      </trkpt>
      <trkpt lat="45.69695" lon="4.30615">
        <ele>429.9</ele>
        <time>2023-02-19T08:37:22Z</time>
      </trkpt>
      <trkpt lat="45.69695" lon="4.30613">
        <ele>429.6</ele>
        <time>2023-02-19T08:37:23Z</time>
      </trkpt>
      <trkpt lat="45.69696" lon="4.30611">
        <ele>429.4</ele>
        <time>2023-02-19T08:37:24Z</time>
      </trkpt>
      <trkpt lat="45.69697" lon="4.30609">
        <ele>429.1</ele>
        <time>2023-02-19T08:37:25Z</time>
      </trkpt>
      <trkpt lat="45.69698" lon="4.30607">
        <ele>428.8</ele>
        <time>2023-02-19T08:37:26Z</time>
      </trkpt>
      <trkpt lat="45.69699" lon="4.30605">
        <ele>428.5</ele>
        <time>2023-02-19T08:37:27Z</time>
      </trkpt>
      <trkpt lat="45.69701" lon="4.30603">
        <ele>428.1</ele>
        <time>2023-02-19T08:37:29Z</time>
      </trkpt>
      <trkpt lat="45.69703" lon="4.306">
        <ele>427.6</ele>
        <time>2023-02-19T08:37:30Z</time>
      </trkpt>
      <trkpt lat="45.69703" lon="4.30598">
        <ele>427.5</ele>
        <time>2023-02-19T08:37:31Z</time>
      </trkpt>
      <trkpt lat="45.69704" lon="4.30597">
        <ele>427.2</ele>
        <time>2023-02-19T08:37:32Z</time>
      </trkpt>
      <trkpt lat="45.69706" lon="4.30594">
        <ele>426.8</ele>
        <time>2023-02-19T08:37:34Z</time>
      </trkpt>
      <trkpt lat="45.69707" lon="4.30592">
        <ele>426.6</ele>
        <time>2023-02-19T08:37:35Z</time>
      </trkpt>
      <trkpt lat="45.69708" lon="4.3059">
        <ele>426.4</ele>
        <time>2023-02-19T08:37:36Z</time>
      </trkpt>
      <trkpt lat="45.69709" lon="4.30588">
        <ele>426.2</ele>
        <time>2023-02-19T08:37:37Z</time>
      </trkpt>
      <trkpt lat="45.6971" lon="4.30587">
        <ele>426</ele>
        <time>2023-02-19T08:37:38Z</time>
      </trkpt>
      <trkpt lat="45.69711" lon="4.30586">
        <ele>425.8</ele>
        <time>2023-02-19T08:37:39Z</time>
      </trkpt>
      <trkpt lat="45.69712" lon="4.30584">
        <ele>425.6</ele>
        <time>2023-02-19T08:37:40Z</time>
      </trkpt>
      <trkpt lat="45.69714" lon="4.30581">
        <ele>425.3</ele>
        <time>2023-02-19T08:37:42Z</time>
      </trkpt>
      <trkpt lat="45.69714" lon="4.3058">
        <ele>425.1</ele>
        <time>2023-02-19T08:37:43Z</time>
      </trkpt>
      <trkpt lat="45.69715" lon="4.30578">
        <ele>425</ele>
        <time>2023-02-19T08:37:44Z</time>
      </trkpt>
      <trkpt lat="45.69716" lon="4.30576">
        <ele>424.8</ele>
        <time>2023-02-19T08:37:45Z</time>
      </trkpt>
      <trkpt lat="45.69716" lon="4.30574">
        <ele>424.6</ele>
        <time>2023-02-19T08:37:46Z</time>
      </trkpt>
      <trkpt lat="45.69717" lon="4.30572">
        <ele>424.4</ele>
        <time>2023-02-19T08:37:47Z</time>
      </trkpt>
      <trkpt lat="45.69718" lon="4.3057">
        <ele>424.2</ele>
        <time>2023-02-19T08:37:48Z</time>
      </trkpt>
      <trkpt lat="45.69718" lon="4.30568">
        <ele>424</ele>
        <time>2023-02-19T08:37:49Z</time>
      </trkpt>
      <trkpt lat="45.69719" lon="4.30567">
        <ele>423.9</ele>
        <time>2023-02-19T08:37:50Z</time>
      </trkpt>
      <trkpt lat="45.6972" lon="4.30565">
        <ele>423.7</ele>
        <time>2023-02-19T08:37:52Z</time>
      </trkpt>
      <trkpt lat="45.69721" lon="4.30564">
        <ele>423.5</ele>
        <time>2023-02-19T08:37:53Z</time>
      </trkpt>
      <trkpt lat="45.69722" lon="4.30563">
        <ele>423.4</ele>
        <time>2023-02-19T08:37:54Z</time>
      </trkpt>
      <trkpt lat="45.69722" lon="4.30561">
        <ele>423.2</ele>
        <time>2023-02-19T08:37:55Z</time>
      </trkpt>
      <trkpt lat="45.69723" lon="4.3056">
        <ele>423</ele>
        <time>2023-02-19T08:37:56Z</time>
      </trkpt>
      <trkpt lat="45.69724" lon="4.30558">
        <ele>422.8</ele>
        <time>2023-02-19T08:37:57Z</time>
      </trkpt>
      <trkpt lat="45.69725" lon="4.30557">
        <ele>422.7</ele>
        <time>2023-02-19T08:37:58Z</time>
      </trkpt>
      <trkpt lat="45.69726" lon="4.30555">
        <ele>422.5</ele>
        <time>2023-02-19T08:37:59Z</time>
      </trkpt>
      <trkpt lat="45.69727" lon="4.30554">
        <ele>422.3</ele>
        <time>2023-02-19T08:38:00Z</time>
      </trkpt>
      <trkpt lat="45.69728" lon="4.30552">
        <ele>422.1</ele>
        <time>2023-02-19T08:38:01Z</time>
      </trkpt>
      <trkpt lat="45.6973" lon="4.3055">
        <ele>421.7</ele>
        <time>2023-02-19T08:38:03Z</time>
      </trkpt>
      <trkpt lat="45.69731" lon="4.30549">
        <ele>421.6</ele>
        <time>2023-02-19T08:38:04Z</time>
      </trkpt>
      <trkpt lat="45.69734" lon="4.30546">
        <ele>421.2</ele>
        <time>2023-02-19T08:38:05Z</time>
      </trkpt>
      <trkpt lat="45.69735" lon="4.30546">
        <ele>421.1</ele>
        <time>2023-02-19T08:38:06Z</time>
      </trkpt>
      <trkpt lat="45.69736" lon="4.30544">
        <ele>420.9</ele>
        <time>2023-02-19T08:38:07Z</time>
      </trkpt>
      <trkpt lat="45.69737" lon="4.30543">
        <ele>420.7</ele>
        <time>2023-02-19T08:38:08Z</time>
      </trkpt>
      <trkpt lat="45.69739" lon="4.30541">
        <ele>420.5</ele>
        <time>2023-02-19T08:38:10Z</time>
      </trkpt>
      <trkpt lat="45.6974" lon="4.3054">
        <ele>420.4</ele>
        <time>2023-02-19T08:38:11Z</time>
      </trkpt>
      <trkpt lat="45.69741" lon="4.30538">
        <ele>420.2</ele>
        <time>2023-02-19T08:38:12Z</time>
      </trkpt>
      <trkpt lat="45.69743" lon="4.30537">
        <ele>420</ele>
        <time>2023-02-19T08:38:13Z</time>
      </trkpt>
      <trkpt lat="45.69744" lon="4.30535">
        <ele>419.8</ele>
        <time>2023-02-19T08:38:14Z</time>
      </trkpt>
      <trkpt lat="45.69745" lon="4.30534">
        <ele>419.7</ele>
        <time>2023-02-19T08:38:15Z</time>
      </trkpt>
      <trkpt lat="45.69745" lon="4.30533">
        <ele>419.6</ele>
        <time>2023-02-19T08:38:16Z</time>
      </trkpt>
      <trkpt lat="45.69747" lon="4.30532">
        <ele>419.4</ele>
        <time>2023-02-19T08:38:17Z</time>
      </trkpt>
      <trkpt lat="45.69748" lon="4.30531">
        <ele>419.2</ele>
        <time>2023-02-19T08:38:18Z</time>
      </trkpt>
      <trkpt lat="45.69749" lon="4.30529">
        <ele>416.2</ele>
        <time>2023-02-19T08:38:20Z</time>
      </trkpt>
      <trkpt lat="45.6975" lon="4.30528">
        <ele>416.1</ele>
        <time>2023-02-19T08:38:21Z</time>
      </trkpt>
      <trkpt lat="45.69751" lon="4.30527">
        <ele>415.9</ele>
        <time>2023-02-19T08:38:22Z</time>
      </trkpt>
      <trkpt lat="45.69752" lon="4.30525">
        <ele>415.7</ele>
        <time>2023-02-19T08:38:23Z</time>
      </trkpt>
      <trkpt lat="45.69754" lon="4.30524">
        <ele>415.5</ele>
        <time>2023-02-19T08:38:24Z</time>
      </trkpt>
      <trkpt lat="45.69755" lon="4.30523">
        <ele>415.4</ele>
        <time>2023-02-19T08:38:25Z</time>
      </trkpt>
      <trkpt lat="45.69756" lon="4.30522">
        <ele>415.2</ele>
        <time>2023-02-19T08:38:27Z</time>
      </trkpt>
      <trkpt lat="45.69756" lon="4.30521">
        <ele>415.1</ele>
        <time>2023-02-19T08:38:28Z</time>
      </trkpt>
      <trkpt lat="45.69758" lon="4.3052">
        <ele>414.9</ele>
        <time>2023-02-19T08:38:29Z</time>
      </trkpt>
      <trkpt lat="45.69759" lon="4.30519">
        <ele>414.7</ele>
        <time>2023-02-19T08:38:31Z</time>
      </trkpt>
      <trkpt lat="45.6976" lon="4.30518">
        <ele>414.5</ele>
        <time>2023-02-19T08:38:32Z</time>
      </trkpt>
      <trkpt lat="45.69761" lon="4.30517">
        <ele>414.4</ele>
        <time>2023-02-19T08:38:33Z</time>
      </trkpt>
      <trkpt lat="45.69761" lon="4.30516">
        <ele>414.3</ele>
        <time>2023-02-19T08:38:34Z</time>
      </trkpt>
      <trkpt lat="45.69762" lon="4.30515">
        <ele>414.1</ele>
        <time>2023-02-19T08:38:35Z</time>
      </trkpt>
      <trkpt lat="45.69763" lon="4.30513">
        <ele>413.9</ele>
        <time>2023-02-19T08:38:36Z</time>
      </trkpt>
      <trkpt lat="45.69765" lon="4.30512">
        <ele>413.7</ele>
        <time>2023-02-19T08:38:38Z</time>
      </trkpt>
      <trkpt lat="45.69766" lon="4.30511">
        <ele>413.7</ele>
        <time>2023-02-19T08:38:39Z</time>
      </trkpt>
      <trkpt lat="45.69767" lon="4.3051">
        <ele>413.6</ele>
        <time>2023-02-19T08:38:40Z</time>
      </trkpt>
      <trkpt lat="45.69768" lon="4.3051">
        <ele>413.6</ele>
        <time>2023-02-19T08:38:41Z</time>
      </trkpt>
      <trkpt lat="45.6977" lon="4.30509">
        <ele>413.4</ele>
        <time>2023-02-19T08:38:42Z</time>
      </trkpt>
      <trkpt lat="45.69771" lon="4.30509">
        <ele>413.4</ele>
        <time>2023-02-19T08:38:43Z</time>
      </trkpt>
      <trkpt lat="45.69771" lon="4.30508">
        <ele>413.3</ele>
        <time>2023-02-19T08:38:44Z</time>
      </trkpt>
      <trkpt lat="45.69773" lon="4.30508">
        <ele>413.2</ele>
        <time>2023-02-19T08:38:46Z</time>
      </trkpt>
      <trkpt lat="45.69775" lon="4.30507">
        <ele>413.1</ele>
        <time>2023-02-19T08:38:47Z</time>
      </trkpt>
      <trkpt lat="45.69776" lon="4.30506">
        <ele>413.1</ele>
        <time>2023-02-19T08:38:48Z</time>
      </trkpt>
      <trkpt lat="45.69777" lon="4.30505">
        <ele>413</ele>
        <time>2023-02-19T08:38:49Z</time>
      </trkpt>
      <trkpt lat="45.69779" lon="4.30504">
        <ele>412.9</ele>
        <time>2023-02-19T08:38:50Z</time>
      </trkpt>
      <trkpt lat="45.6978" lon="4.30503">
        <ele>412.9</ele>
        <time>2023-02-19T08:38:51Z</time>
      </trkpt>
      <trkpt lat="45.69781" lon="4.30502">
        <ele>412.8</ele>
        <time>2023-02-19T08:38:52Z</time>
      </trkpt>
      <trkpt lat="45.69783" lon="4.305">
        <ele>412.7</ele>
        <time>2023-02-19T08:38:54Z</time>
      </trkpt>
      <trkpt lat="45.69784" lon="4.30499">
        <ele>412.7</ele>
        <time>2023-02-19T08:38:55Z</time>
      </trkpt>
      <trkpt lat="45.69785" lon="4.30497">
        <ele>412.6</ele>
        <time>2023-02-19T08:38:56Z</time>
      </trkpt>
      <trkpt lat="45.69787" lon="4.30496">
        <ele>412.6</ele>
        <time>2023-02-19T08:38:57Z</time>
      </trkpt>
      <trkpt lat="45.69788" lon="4.30494">
        <ele>412.5</ele>
        <time>2023-02-19T08:38:58Z</time>
      </trkpt>
      <trkpt lat="45.69791" lon="4.30491">
        <ele>412.4</ele>
        <time>2023-02-19T08:39:00Z</time>
      </trkpt>
      <trkpt lat="45.69792" lon="4.3049">
        <ele>412.4</ele>
        <time>2023-02-19T08:39:01Z</time>
      </trkpt>
      <trkpt lat="45.69793" lon="4.30489">
        <ele>412.3</ele>
        <time>2023-02-19T08:39:02Z</time>
      </trkpt>
      <trkpt lat="45.69794" lon="4.30487">
        <ele>412.3</ele>
        <time>2023-02-19T08:39:03Z</time>
      </trkpt>
      <trkpt lat="45.69796" lon="4.30486">
        <ele>412.2</ele>
        <time>2023-02-19T08:39:05Z</time>
      </trkpt>
      <trkpt lat="45.69797" lon="4.30484">
        <ele>412.2</ele>
        <time>2023-02-19T08:39:06Z</time>
      </trkpt>
      <trkpt lat="45.69798" lon="4.30483">
        <ele>412.2</ele>
        <time>2023-02-19T08:39:07Z</time>
      </trkpt>
      <trkpt lat="45.69799" lon="4.30481">
        <ele>412.1</ele>
        <time>2023-02-19T08:39:08Z</time>
      </trkpt>
      <trkpt lat="45.69801" lon="4.30479">
        <ele>412.1</ele>
        <time>2023-02-19T08:39:09Z</time>
      </trkpt>
      <trkpt lat="45.69802" lon="4.30478">
        <ele>412</ele>
        <time>2023-02-19T08:39:10Z</time>
      </trkpt>
      <trkpt lat="45.69803" lon="4.30476">
        <ele>412</ele>
        <time>2023-02-19T08:39:11Z</time>
      </trkpt>
      <trkpt lat="45.69805" lon="4.30473">
        <ele>411.9</ele>
        <time>2023-02-19T08:39:13Z</time>
      </trkpt>
      <trkpt lat="45.69805" lon="4.30471">
        <ele>411.9</ele>
        <time>2023-02-19T08:39:14Z</time>
      </trkpt>
      <trkpt lat="45.69806" lon="4.3047">
        <ele>411.9</ele>
        <time>2023-02-19T08:39:15Z</time>
      </trkpt>
      <trkpt lat="45.69807" lon="4.30467">
        <ele>411.8</ele>
        <time>2023-02-19T08:39:16Z</time>
      </trkpt>
      <trkpt lat="45.69808" lon="4.30466">
        <ele>411.8</ele>
        <time>2023-02-19T08:39:17Z</time>
      </trkpt>
      <trkpt lat="45.69808" lon="4.30465">
        <ele>411.7</ele>
        <time>2023-02-19T08:39:18Z</time>
      </trkpt>
      <trkpt lat="45.6981" lon="4.30463">
        <ele>411.7</ele>
        <time>2023-02-19T08:39:19Z</time>
      </trkpt>
      <trkpt lat="45.6981" lon="4.30462">
        <ele>411.6</ele>
        <time>2023-02-19T08:39:20Z</time>
      </trkpt>
      <trkpt lat="45.69811" lon="4.30461">
        <ele>411.6</ele>
        <time>2023-02-19T08:39:21Z</time>
      </trkpt>
      <trkpt lat="45.69812" lon="4.30458">
        <ele>411.5</ele>
        <time>2023-02-19T08:39:22Z</time>
      </trkpt>
      <trkpt lat="45.69812" lon="4.30457">
        <ele>411.5</ele>
        <time>2023-02-19T08:39:23Z</time>
      </trkpt>
      <trkpt lat="45.69813" lon="4.30456">
        <ele>411.4</ele>
        <time>2023-02-19T08:39:25Z</time>
      </trkpt>
      <trkpt lat="45.69814" lon="4.30455">
        <ele>411.4</ele>
        <time>2023-02-19T08:39:26Z</time>
      </trkpt>
      <trkpt lat="45.69814" lon="4.30454">
        <ele>411.4</ele>
        <time>2023-02-19T08:39:27Z</time>
      </trkpt>
      <trkpt lat="45.69815" lon="4.30453">
        <ele>411.3</ele>
        <time>2023-02-19T08:39:28Z</time>
      </trkpt>
      <trkpt lat="45.69816" lon="4.30449">
        <ele>411.1</ele>
        <time>2023-02-19T08:39:30Z</time>
      </trkpt>
      <trkpt lat="45.69817" lon="4.30448">
        <ele>411.1</ele>
        <time>2023-02-19T08:39:31Z</time>
      </trkpt>
      <trkpt lat="45.69817" lon="4.30446">
        <ele>411</ele>
        <time>2023-02-19T08:39:32Z</time>
      </trkpt>
      <trkpt lat="45.69818" lon="4.30444">
        <ele>410.9</ele>
        <time>2023-02-19T08:39:33Z</time>
      </trkpt>
      <trkpt lat="45.69818" lon="4.30442">
        <ele>410.9</ele>
        <time>2023-02-19T08:39:34Z</time>
      </trkpt>
      <trkpt lat="45.69819" lon="4.3044">
        <ele>410.8</ele>
        <time>2023-02-19T08:39:35Z</time>
      </trkpt>
      <trkpt lat="45.69819" lon="4.30439">
        <ele>410.7</ele>
        <time>2023-02-19T08:39:36Z</time>
      </trkpt>
      <trkpt lat="45.69821" lon="4.30436">
        <ele>410.6</ele>
        <time>2023-02-19T08:39:38Z</time>
      </trkpt>
      <trkpt lat="45.69821" lon="4.30434">
        <ele>410.5</ele>
        <time>2023-02-19T08:39:39Z</time>
      </trkpt>
      <trkpt lat="45.69822" lon="4.30432">
        <ele>410.4</ele>
        <time>2023-02-19T08:39:40Z</time>
      </trkpt>
      <trkpt lat="45.69823" lon="4.30431">
        <ele>410.2</ele>
        <time>2023-02-19T08:39:41Z</time>
      </trkpt>
      <trkpt lat="45.69825" lon="4.30429">
        <ele>410.1</ele>
        <time>2023-02-19T08:39:42Z</time>
      </trkpt>
      <trkpt lat="45.69826" lon="4.30428">
        <ele>410</ele>
        <time>2023-02-19T08:39:43Z</time>
      </trkpt>
      <trkpt lat="45.69827" lon="4.30427">
        <ele>409.9</ele>
        <time>2023-02-19T08:39:44Z</time>
      </trkpt>
      <trkpt lat="45.69828" lon="4.30425">
        <ele>409.8</ele>
        <time>2023-02-19T08:39:45Z</time>
      </trkpt>
      <trkpt lat="45.6983" lon="4.30424">
        <ele>409.6</ele>
        <time>2023-02-19T08:39:46Z</time>
      </trkpt>
      <trkpt lat="45.69831" lon="4.30423">
        <ele>409.5</ele>
        <time>2023-02-19T08:39:48Z</time>
      </trkpt>
      <trkpt lat="45.69832" lon="4.30421">
        <ele>409.4</ele>
        <time>2023-02-19T08:39:49Z</time>
      </trkpt>
      <trkpt lat="45.69833" lon="4.3042">
        <ele>409.3</ele>
        <time>2023-02-19T08:39:50Z</time>
      </trkpt>
      <trkpt lat="45.69834" lon="4.30419">
        <ele>409.2</ele>
        <time>2023-02-19T08:39:51Z</time>
      </trkpt>
      <trkpt lat="45.69835" lon="4.30417">
        <ele>409</ele>
        <time>2023-02-19T08:39:53Z</time>
      </trkpt>
      <trkpt lat="45.69836" lon="4.30415">
        <ele>408.9</ele>
        <time>2023-02-19T08:39:54Z</time>
      </trkpt>
      <trkpt lat="45.69838" lon="4.30414">
        <ele>408.8</ele>
        <time>2023-02-19T08:39:55Z</time>
      </trkpt>
      <trkpt lat="45.69839" lon="4.30411">
        <ele>408.6</ele>
        <time>2023-02-19T08:39:57Z</time>
      </trkpt>
      <trkpt lat="45.69841" lon="4.3041">
        <ele>408.4</ele>
        <time>2023-02-19T08:39:58Z</time>
      </trkpt>
      <trkpt lat="45.69842" lon="4.30409">
        <ele>408.3</ele>
        <time>2023-02-19T08:39:59Z</time>
      </trkpt>
      <trkpt lat="45.69844" lon="4.30407">
        <ele>408.1</ele>
        <time>2023-02-19T08:40:00Z</time>
      </trkpt>
      <trkpt lat="45.69844" lon="4.30407">
        <ele>408</ele>
        <time>2023-02-19T08:40:01Z</time>
      </trkpt>
      <trkpt lat="45.69845" lon="4.30406">
        <ele>408</ele>
        <time>2023-02-19T08:40:02Z</time>
      </trkpt>
      <trkpt lat="45.69846" lon="4.30405">
        <ele>407.9</ele>
        <time>2023-02-19T08:40:03Z</time>
      </trkpt>
      <trkpt lat="45.69847" lon="4.30404">
        <ele>407.8</ele>
        <time>2023-02-19T08:40:04Z</time>
      </trkpt>
      <trkpt lat="45.69848" lon="4.30403">
        <ele>407.7</ele>
        <time>2023-02-19T08:40:05Z</time>
      </trkpt>
      <trkpt lat="45.69849" lon="4.30402">
        <ele>407.6</ele>
        <time>2023-02-19T08:40:06Z</time>
      </trkpt>
      <trkpt lat="45.6985" lon="4.30401">
        <ele>407.5</ele>
        <time>2023-02-19T08:40:07Z</time>
      </trkpt>
      <trkpt lat="45.69851" lon="4.304">
        <ele>407.3</ele>
        <time>2023-02-19T08:40:09Z</time>
      </trkpt>
      <trkpt lat="45.69854" lon="4.30399">
        <ele>407.1</ele>
        <time>2023-02-19T08:40:10Z</time>
      </trkpt>
      <trkpt lat="45.69854" lon="4.30399">
        <ele>407</ele>
        <time>2023-02-19T08:40:11Z</time>
      </trkpt>
      <trkpt lat="45.69855" lon="4.30399">
        <ele>407</ele>
        <time>2023-02-19T08:40:12Z</time>
      </trkpt>
      <trkpt lat="45.69857" lon="4.30398">
        <ele>406.8</ele>
        <time>2023-02-19T08:40:13Z</time>
      </trkpt>
      <trkpt lat="45.69858" lon="4.30397">
        <ele>406.7</ele>
        <time>2023-02-19T08:40:14Z</time>
      </trkpt>
      <trkpt lat="45.6986" lon="4.30397">
        <ele>406.6</ele>
        <time>2023-02-19T08:40:16Z</time>
      </trkpt>
      <trkpt lat="45.69861" lon="4.30396">
        <ele>406.4</ele>
        <time>2023-02-19T08:40:17Z</time>
      </trkpt>
      <trkpt lat="45.69863" lon="4.30395">
        <ele>406.3</ele>
        <time>2023-02-19T08:40:18Z</time>
      </trkpt>
      <trkpt lat="45.69864" lon="4.30394">
        <ele>406.2</ele>
        <time>2023-02-19T08:40:19Z</time>
      </trkpt>
      <trkpt lat="45.69865" lon="4.30393">
        <ele>406</ele>
        <time>2023-02-19T08:40:20Z</time>
      </trkpt>
      <trkpt lat="45.69868" lon="4.30391">
        <ele>405.8</ele>
        <time>2023-02-19T08:40:22Z</time>
      </trkpt>
      <trkpt lat="45.69869" lon="4.30389">
        <ele>405.7</ele>
        <time>2023-02-19T08:40:23Z</time>
      </trkpt>
      <trkpt lat="45.69871" lon="4.30388">
        <ele>405.5</ele>
        <time>2023-02-19T08:40:24Z</time>
      </trkpt>
      <trkpt lat="45.69872" lon="4.30387">
        <ele>405.4</ele>
        <time>2023-02-19T08:40:25Z</time>
      </trkpt>
      <trkpt lat="45.69874" lon="4.30386">
        <ele>405.2</ele>
        <time>2023-02-19T08:40:26Z</time>
      </trkpt>
      <trkpt lat="45.69877" lon="4.30384">
        <ele>405</ele>
        <time>2023-02-19T08:40:28Z</time>
      </trkpt>
      <trkpt lat="45.69877" lon="4.30384">
        <ele>404.9</ele>
        <time>2023-02-19T08:40:29Z</time>
      </trkpt>
      <trkpt lat="45.69879" lon="4.30383">
        <ele>404.8</ele>
        <time>2023-02-19T08:40:30Z</time>
      </trkpt>
      <trkpt lat="45.6988" lon="4.30383">
        <ele>404.7</ele>
        <time>2023-02-19T08:40:31Z</time>
      </trkpt>
      <trkpt lat="45.69881" lon="4.30382">
        <ele>404.7</ele>
        <time>2023-02-19T08:40:32Z</time>
      </trkpt>
      <trkpt lat="45.69882" lon="4.30382">
        <ele>404.6</ele>
        <time>2023-02-19T08:40:33Z</time>
      </trkpt>
      <trkpt lat="45.69883" lon="4.30381">
        <ele>404.5</ele>
        <time>2023-02-19T08:40:34Z</time>
      </trkpt>
      <trkpt lat="45.69885" lon="4.3038">
        <ele>404.4</ele>
        <time>2023-02-19T08:40:36Z</time>
      </trkpt>
      <trkpt lat="45.69885" lon="4.30379">
        <ele>404.4</ele>
        <time>2023-02-19T08:40:37Z</time>
      </trkpt>
      <trkpt lat="45.69886" lon="4.30377">
        <ele>404.3</ele>
        <time>2023-02-19T08:40:38Z</time>
      </trkpt>
      <trkpt lat="45.69887" lon="4.30377">
        <ele>404.3</ele>
        <time>2023-02-19T08:40:39Z</time>
      </trkpt>
      <trkpt lat="45.69888" lon="4.30376">
        <ele>404.2</ele>
        <time>2023-02-19T08:40:40Z</time>
      </trkpt>
      <trkpt lat="45.69889" lon="4.30375">
        <ele>404.1</ele>
        <time>2023-02-19T08:40:41Z</time>
      </trkpt>
      <trkpt lat="45.6989" lon="4.30375">
        <ele>404.1</ele>
        <time>2023-02-19T08:40:42Z</time>
      </trkpt>
      <trkpt lat="45.69892" lon="4.30373">
        <ele>404</ele>
        <time>2023-02-19T08:40:44Z</time>
      </trkpt>
      <trkpt lat="45.69893" lon="4.30373">
        <ele>403.9</ele>
        <time>2023-02-19T08:40:45Z</time>
      </trkpt>
      <trkpt lat="45.69894" lon="4.30372">
        <ele>403.9</ele>
        <time>2023-02-19T08:40:46Z</time>
      </trkpt>
      <trkpt lat="45.69895" lon="4.30371">
        <ele>403.8</ele>
        <time>2023-02-19T08:40:47Z</time>
      </trkpt>
      <trkpt lat="45.69896" lon="4.30371">
        <ele>403.7</ele>
        <time>2023-02-19T08:40:48Z</time>
      </trkpt>
      <trkpt lat="45.69898" lon="4.3037">
        <ele>403.7</ele>
        <time>2023-02-19T08:40:49Z</time>
      </trkpt>
      <trkpt lat="45.699" lon="4.30368">
        <ele>403.5</ele>
        <time>2023-02-19T08:40:51Z</time>
      </trkpt>
      <trkpt lat="45.69901" lon="4.30368">
        <ele>403.5</ele>
        <time>2023-02-19T08:40:52Z</time>
      </trkpt>
      <trkpt lat="45.69903" lon="4.30367">
        <ele>403.4</ele>
        <time>2023-02-19T08:40:53Z</time>
      </trkpt>
      <trkpt lat="45.69904" lon="4.30366">
        <ele>403.4</ele>
        <time>2023-02-19T08:40:54Z</time>
      </trkpt>
      <trkpt lat="45.69905" lon="4.30365">
        <ele>403.3</ele>
        <time>2023-02-19T08:40:55Z</time>
      </trkpt>
      <trkpt lat="45.69907" lon="4.30364">
        <ele>403.2</ele>
        <time>2023-02-19T08:40:56Z</time>
      </trkpt>
      <trkpt lat="45.69908" lon="4.30364">
        <ele>403.1</ele>
        <time>2023-02-19T08:40:57Z</time>
      </trkpt>
      <trkpt lat="45.69912" lon="4.30362">
        <ele>403</ele>
        <time>2023-02-19T08:40:59Z</time>
      </trkpt>
      <trkpt lat="45.69912" lon="4.30361">
        <ele>402.9</ele>
        <time>2023-02-19T08:41:00Z</time>
      </trkpt>
      <trkpt lat="45.69914" lon="4.3036">
        <ele>402.9</ele>
        <time>2023-02-19T08:41:01Z</time>
      </trkpt>
      <trkpt lat="45.69915" lon="4.30359">
        <ele>402.8</ele>
        <time>2023-02-19T08:41:02Z</time>
      </trkpt>
      <trkpt lat="45.69917" lon="4.30358">
        <ele>402.7</ele>
        <time>2023-02-19T08:41:03Z</time>
      </trkpt>
      <trkpt lat="45.69918" lon="4.30357">
        <ele>402.7</ele>
        <time>2023-02-19T08:41:04Z</time>
      </trkpt>
      <trkpt lat="45.69919" lon="4.30357">
        <ele>402.6</ele>
        <time>2023-02-19T08:41:06Z</time>
      </trkpt>
      <trkpt lat="45.6992" lon="4.30356">
        <ele>402.6</ele>
        <time>2023-02-19T08:41:07Z</time>
      </trkpt>
      <trkpt lat="45.69921" lon="4.30356">
        <ele>402.5</ele>
        <time>2023-02-19T08:41:08Z</time>
      </trkpt>
      <trkpt lat="45.69923" lon="4.30355">
        <ele>402.5</ele>
        <time>2023-02-19T08:41:10Z</time>
      </trkpt>
      <trkpt lat="45.69924" lon="4.30355">
        <ele>402.4</ele>
        <time>2023-02-19T08:41:11Z</time>
      </trkpt>
      <trkpt lat="45.69926" lon="4.30355">
        <ele>402.3</ele>
        <time>2023-02-19T08:41:12Z</time>
      </trkpt>
      <trkpt lat="45.69927" lon="4.30355">
        <ele>402.3</ele>
        <time>2023-02-19T08:41:13Z</time>
      </trkpt>
      <trkpt lat="45.69928" lon="4.30355">
        <ele>402.3</ele>
        <time>2023-02-19T08:41:14Z</time>
      </trkpt>
      <trkpt lat="45.6993" lon="4.30356">
        <ele>402.2</ele>
        <time>2023-02-19T08:41:16Z</time>
      </trkpt>
      <trkpt lat="45.69931" lon="4.30356">
        <ele>402.1</ele>
        <time>2023-02-19T08:41:17Z</time>
      </trkpt>
      <trkpt lat="45.69934" lon="4.30356">
        <ele>402</ele>
        <time>2023-02-19T08:41:18Z</time>
      </trkpt>
      <trkpt lat="45.69935" lon="4.30356">
        <ele>402</ele>
        <time>2023-02-19T08:41:19Z</time>
      </trkpt>
      <trkpt lat="45.69936" lon="4.30355">
        <ele>401.9</ele>
        <time>2023-02-19T08:41:20Z</time>
      </trkpt>
      <trkpt lat="45.69939" lon="4.30354">
        <ele>401.8</ele>
        <time>2023-02-19T08:41:22Z</time>
      </trkpt>
      <trkpt lat="45.69939" lon="4.30353">
        <ele>401.7</ele>
        <time>2023-02-19T08:41:23Z</time>
      </trkpt>
      <trkpt lat="45.69941" lon="4.30352">
        <ele>401.6</ele>
        <time>2023-02-19T08:41:24Z</time>
      </trkpt>
      <trkpt lat="45.69942" lon="4.30351">
        <ele>401.6</ele>
        <time>2023-02-19T08:41:25Z</time>
      </trkpt>
      <trkpt lat="45.69943" lon="4.3035">
        <ele>401.5</ele>
        <time>2023-02-19T08:41:26Z</time>
      </trkpt>
      <trkpt lat="45.69945" lon="4.30349">
        <ele>401.4</ele>
        <time>2023-02-19T08:41:27Z</time>
      </trkpt>
      <trkpt lat="45.69945" lon="4.30348">
        <ele>401.3</ele>
        <time>2023-02-19T08:41:28Z</time>
      </trkpt>
      <trkpt lat="45.69946" lon="4.30346">
        <ele>401.2</ele>
        <time>2023-02-19T08:41:30Z</time>
      </trkpt>
      <trkpt lat="45.69947" lon="4.30345">
        <ele>401.2</ele>
        <time>2023-02-19T08:41:31Z</time>
      </trkpt>
      <trkpt lat="45.69947" lon="4.30343">
        <ele>401.1</ele>
        <time>2023-02-19T08:41:32Z</time>
      </trkpt>
      <trkpt lat="45.69948" lon="4.30341">
        <ele>401</ele>
        <time>2023-02-19T08:41:33Z</time>
      </trkpt>
      <trkpt lat="45.69948" lon="4.30339">
        <ele>400.9</ele>
        <time>2023-02-19T08:41:34Z</time>
      </trkpt>
      <trkpt lat="45.69949" lon="4.30336">
        <ele>400.7</ele>
        <time>2023-02-19T08:41:35Z</time>
      </trkpt>
      <trkpt lat="45.69949" lon="4.30332">
        <ele>400.4</ele>
        <time>2023-02-19T08:41:37Z</time>
      </trkpt>
      <trkpt lat="45.6995" lon="4.30331">
        <ele>400.4</ele>
        <time>2023-02-19T08:41:38Z</time>
      </trkpt>
      <trkpt lat="45.6995" lon="4.30328">
        <ele>400.2</ele>
        <time>2023-02-19T08:41:39Z</time>
      </trkpt>
      <trkpt lat="45.69951" lon="4.30326">
        <ele>400.1</ele>
        <time>2023-02-19T08:41:40Z</time>
      </trkpt>
      <trkpt lat="45.69951" lon="4.30323">
        <ele>399.9</ele>
        <time>2023-02-19T08:41:41Z</time>
      </trkpt>
      <trkpt lat="45.69952" lon="4.3032">
        <ele>399.7</ele>
        <time>2023-02-19T08:41:43Z</time>
      </trkpt>
      <trkpt lat="45.69953" lon="4.30316">
        <ele>399.4</ele>
        <time>2023-02-19T08:41:44Z</time>
      </trkpt>
      <trkpt lat="45.69953" lon="4.30314">
        <ele>399.3</ele>
        <time>2023-02-19T08:41:45Z</time>
      </trkpt>
      <trkpt lat="45.69954" lon="4.30312">
        <ele>399.2</ele>
        <time>2023-02-19T08:41:46Z</time>
      </trkpt>
      <trkpt lat="45.69955" lon="4.3031">
        <ele>399.1</ele>
        <time>2023-02-19T08:41:47Z</time>
      </trkpt>
      <trkpt lat="45.69957" lon="4.30306">
        <ele>398.8</ele>
        <time>2023-02-19T08:41:49Z</time>
      </trkpt>
      <trkpt lat="45.69958" lon="4.30305">
        <ele>398.7</ele>
        <time>2023-02-19T08:41:50Z</time>
      </trkpt>
      <trkpt lat="45.6996" lon="4.30302">
        <ele>398.5</ele>
        <time>2023-02-19T08:41:51Z</time>
      </trkpt>
      <trkpt lat="45.6996" lon="4.30301">
        <ele>398.5</ele>
        <time>2023-02-19T08:41:52Z</time>
      </trkpt>
      <trkpt lat="45.69962" lon="4.30299">
        <ele>398.4</ele>
        <time>2023-02-19T08:41:53Z</time>
      </trkpt>
      <trkpt lat="45.69963" lon="4.30297">
        <ele>398.2</ele>
        <time>2023-02-19T08:41:54Z</time>
      </trkpt>
      <trkpt lat="45.69964" lon="4.30295">
        <ele>398.1</ele>
        <time>2023-02-19T08:41:55Z</time>
      </trkpt>
      <trkpt lat="45.69965" lon="4.30293">
        <ele>398</ele>
        <time>2023-02-19T08:41:57Z</time>
      </trkpt>
      <trkpt lat="45.69965" lon="4.30291">
        <ele>397.9</ele>
        <time>2023-02-19T08:41:58Z</time>
      </trkpt>
      <trkpt lat="45.69966" lon="4.30289">
        <ele>397.8</ele>
        <time>2023-02-19T08:41:59Z</time>
      </trkpt>
      <trkpt lat="45.69967" lon="4.30287">
        <ele>397.7</ele>
        <time>2023-02-19T08:42:00Z</time>
      </trkpt>
      <trkpt lat="45.69968" lon="4.30285">
        <ele>397.6</ele>
        <time>2023-02-19T08:42:01Z</time>
      </trkpt>
      <trkpt lat="45.69969" lon="4.30283">
        <ele>397.5</ele>
        <time>2023-02-19T08:42:02Z</time>
      </trkpt>
      <trkpt lat="45.6997" lon="4.30282">
        <ele>397.4</ele>
        <time>2023-02-19T08:42:03Z</time>
      </trkpt>
      <trkpt lat="45.69971" lon="4.3028">
        <ele>397.3</ele>
        <time>2023-02-19T08:42:04Z</time>
      </trkpt>
      <trkpt lat="45.69973" lon="4.30277">
        <ele>397.1</ele>
        <time>2023-02-19T08:42:06Z</time>
      </trkpt>
      <trkpt lat="45.69975" lon="4.30274">
        <ele>396.9</ele>
        <time>2023-02-19T08:42:07Z</time>
      </trkpt>
      <trkpt lat="45.69976" lon="4.30273">
        <ele>396.8</ele>
        <time>2023-02-19T08:42:08Z</time>
      </trkpt>
      <trkpt lat="45.69977" lon="4.30271">
        <ele>396.7</ele>
        <time>2023-02-19T08:42:09Z</time>
      </trkpt>
      <trkpt lat="45.69978" lon="4.30268">
        <ele>396.6</ele>
        <time>2023-02-19T08:42:11Z</time>
      </trkpt>
      <trkpt lat="45.69979" lon="4.30266">
        <ele>396.5</ele>
        <time>2023-02-19T08:42:12Z</time>
      </trkpt>
      <trkpt lat="45.6998" lon="4.30265">
        <ele>396.5</ele>
        <time>2023-02-19T08:42:13Z</time>
      </trkpt>
      <trkpt lat="45.6998" lon="4.30264">
        <ele>396.4</ele>
        <time>2023-02-19T08:42:14Z</time>
      </trkpt>
      <trkpt lat="45.69981" lon="4.30262">
        <ele>396.3</ele>
        <time>2023-02-19T08:42:15Z</time>
      </trkpt>
      <trkpt lat="45.69982" lon="4.3026">
        <ele>396.3</ele>
        <time>2023-02-19T08:42:16Z</time>
      </trkpt>
      <trkpt lat="45.69982" lon="4.30258">
        <ele>396.2</ele>
        <time>2023-02-19T08:42:17Z</time>
      </trkpt>
      <trkpt lat="45.69983" lon="4.30257">
        <ele>396.1</ele>
        <time>2023-02-19T08:42:18Z</time>
      </trkpt>
      <trkpt lat="45.69984" lon="4.30254">
        <ele>396</ele>
        <time>2023-02-19T08:42:20Z</time>
      </trkpt>
      <trkpt lat="45.69984" lon="4.30253">
        <ele>396</ele>
        <time>2023-02-19T08:42:21Z</time>
      </trkpt>
      <trkpt lat="45.69984" lon="4.30251">
        <ele>395.9</ele>
        <time>2023-02-19T08:42:22Z</time>
      </trkpt>
      <trkpt lat="45.69985" lon="4.3025">
        <ele>395.9</ele>
        <time>2023-02-19T08:42:23Z</time>
      </trkpt>
      <trkpt lat="45.69985" lon="4.30248">
        <ele>395.8</ele>
        <time>2023-02-19T08:42:24Z</time>
      </trkpt>
      <trkpt lat="45.69985" lon="4.30245">
        <ele>395.7</ele>
        <time>2023-02-19T08:42:26Z</time>
      </trkpt>
      <trkpt lat="45.69985" lon="4.30243">
        <ele>395.6</ele>
        <time>2023-02-19T08:42:27Z</time>
      </trkpt>
      <trkpt lat="45.69985" lon="4.30241">
        <ele>395.5</ele>
        <time>2023-02-19T08:42:28Z</time>
      </trkpt>
      <trkpt lat="45.69985" lon="4.30239">
        <ele>395.4</ele>
        <time>2023-02-19T08:42:29Z</time>
      </trkpt>
      <trkpt lat="45.69986" lon="4.30236">
        <ele>395.3</ele>
        <time>2023-02-19T08:42:30Z</time>
      </trkpt>
      <trkpt lat="45.69986" lon="4.30232">
        <ele>395.1</ele>
        <time>2023-02-19T08:42:32Z</time>
      </trkpt>
      <trkpt lat="45.69986" lon="4.30231">
        <ele>395</ele>
        <time>2023-02-19T08:42:33Z</time>
      </trkpt>
      <trkpt lat="45.69987" lon="4.30229">
        <ele>394.9</ele>
        <time>2023-02-19T08:42:34Z</time>
      </trkpt>
      <trkpt lat="45.69987" lon="4.30226">
        <ele>394.8</ele>
        <time>2023-02-19T08:42:35Z</time>
      </trkpt>
      <trkpt lat="45.69987" lon="4.30224">
        <ele>394.7</ele>
        <time>2023-02-19T08:42:36Z</time>
      </trkpt>
      <trkpt lat="45.69987" lon="4.30221">
        <ele>394.6</ele>
        <time>2023-02-19T08:42:37Z</time>
      </trkpt>
      <trkpt lat="45.69987" lon="4.30219">
        <ele>394.5</ele>
        <time>2023-02-19T08:42:38Z</time>
      </trkpt>
      <trkpt lat="45.69987" lon="4.30216">
        <ele>394.4</ele>
        <time>2023-02-19T08:42:39Z</time>
      </trkpt>
      <trkpt lat="45.69987" lon="4.30212">
        <ele>394.2</ele>
        <time>2023-02-19T08:42:41Z</time>
      </trkpt>
      <trkpt lat="45.69988" lon="4.3021">
        <ele>394.1</ele>
        <time>2023-02-19T08:42:42Z</time>
      </trkpt>
      <trkpt lat="45.69987" lon="4.30208">
        <ele>394.1</ele>
        <time>2023-02-19T08:42:43Z</time>
      </trkpt>
      <trkpt lat="45.69987" lon="4.30206">
        <ele>394</ele>
        <time>2023-02-19T08:42:44Z</time>
      </trkpt>
      <trkpt lat="45.69987" lon="4.30204">
        <ele>393.9</ele>
        <time>2023-02-19T08:42:45Z</time>
      </trkpt>
      <trkpt lat="45.69987" lon="4.30202">
        <ele>393.8</ele>
        <time>2023-02-19T08:42:46Z</time>
      </trkpt>
      <trkpt lat="45.69987" lon="4.302">
        <ele>393.7</ele>
        <time>2023-02-19T08:42:47Z</time>
      </trkpt>
      <trkpt lat="45.69987" lon="4.30198">
        <ele>393.7</ele>
        <time>2023-02-19T08:42:49Z</time>
      </trkpt>
      <trkpt lat="45.69988" lon="4.30197">
        <ele>393.6</ele>
        <time>2023-02-19T08:42:50Z</time>
      </trkpt>
      <trkpt lat="45.69988" lon="4.30195">
        <ele>393.5</ele>
        <time>2023-02-19T08:42:51Z</time>
      </trkpt>
      <trkpt lat="45.69988" lon="4.30194">
        <ele>393.5</ele>
        <time>2023-02-19T08:42:52Z</time>
      </trkpt>
      <trkpt lat="45.69988" lon="4.30192">
        <ele>393.4</ele>
        <time>2023-02-19T08:42:53Z</time>
      </trkpt>
      <trkpt lat="45.69989" lon="4.30191">
        <ele>393.3</ele>
        <time>2023-02-19T08:42:54Z</time>
      </trkpt>
      <trkpt lat="45.69989" lon="4.30189">
        <ele>393.2</ele>
        <time>2023-02-19T08:42:56Z</time>
      </trkpt>
      <trkpt lat="45.6999" lon="4.30185">
        <ele>393.1</ele>
        <time>2023-02-19T08:42:57Z</time>
      </trkpt>
      <trkpt lat="45.6999" lon="4.30184">
        <ele>393.1</ele>
        <time>2023-02-19T08:42:58Z</time>
      </trkpt>
      <trkpt lat="45.69991" lon="4.30183">
        <ele>393</ele>
        <time>2023-02-19T08:42:59Z</time>
      </trkpt>
      <trkpt lat="45.69991" lon="4.30181">
        <ele>392.9</ele>
        <time>2023-02-19T08:43:00Z</time>
      </trkpt>
      <trkpt lat="45.69992" lon="4.3018">
        <ele>392.9</ele>
        <time>2023-02-19T08:43:01Z</time>
      </trkpt>
      <trkpt lat="45.69992" lon="4.30178">
        <ele>392.8</ele>
        <time>2023-02-19T08:43:02Z</time>
      </trkpt>
      <trkpt lat="45.69993" lon="4.30176">
        <ele>392.7</ele>
        <time>2023-02-19T08:43:03Z</time>
      </trkpt>
      <trkpt lat="45.69994" lon="4.30175">
        <ele>392.6</ele>
        <time>2023-02-19T08:43:05Z</time>
      </trkpt>
      <trkpt lat="45.69994" lon="4.30174">
        <ele>392.6</ele>
        <time>2023-02-19T08:43:06Z</time>
      </trkpt>
      <trkpt lat="45.69995" lon="4.30172">
        <ele>392.5</ele>
        <time>2023-02-19T08:43:07Z</time>
      </trkpt>
      <trkpt lat="45.69996" lon="4.30171">
        <ele>392.4</ele>
        <time>2023-02-19T08:43:08Z</time>
      </trkpt>
      <trkpt lat="45.69996" lon="4.30169">
        <ele>392.4</ele>
        <time>2023-02-19T08:43:09Z</time>
      </trkpt>
      <trkpt lat="45.69997" lon="4.30167">
        <ele>392.3</ele>
        <time>2023-02-19T08:43:10Z</time>
      </trkpt>
      <trkpt lat="45.69998" lon="4.30164">
        <ele>392.2</ele>
        <time>2023-02-19T08:43:11Z</time>
      </trkpt>
      <trkpt lat="45.69999" lon="4.30161">
        <ele>392.1</ele>
        <time>2023-02-19T08:43:13Z</time>
      </trkpt>
      <trkpt lat="45.7" lon="4.30157">
        <ele>391.9</ele>
        <time>2023-02-19T08:43:14Z</time>
      </trkpt>
      <trkpt lat="45.7" lon="4.30156">
        <ele>391.9</ele>
        <time>2023-02-19T08:43:15Z</time>
      </trkpt>
      <trkpt lat="45.7" lon="4.30153">
        <ele>391.8</ele>
        <time>2023-02-19T08:43:16Z</time>
      </trkpt>
      <trkpt lat="45.7" lon="4.30151">
        <ele>391.8</ele>
        <time>2023-02-19T08:43:17Z</time>
      </trkpt>
      <trkpt lat="45.70001" lon="4.30148">
        <ele>391.7</ele>
        <time>2023-02-19T08:43:18Z</time>
      </trkpt>
      <trkpt lat="45.70001" lon="4.30145">
        <ele>391.6</ele>
        <time>2023-02-19T08:43:20Z</time>
      </trkpt>
      <trkpt lat="45.70001" lon="4.30141">
        <ele>391.5</ele>
        <time>2023-02-19T08:43:21Z</time>
      </trkpt>
      <trkpt lat="45.70001" lon="4.30139">
        <ele>391.4</ele>
        <time>2023-02-19T08:43:22Z</time>
      </trkpt>
      <trkpt lat="45.70002" lon="4.30135">
        <ele>391.4</ele>
        <time>2023-02-19T08:43:23Z</time>
      </trkpt>
      <trkpt lat="45.70002" lon="4.30134">
        <ele>391.3</ele>
        <time>2023-02-19T08:43:24Z</time>
      </trkpt>
      <trkpt lat="45.70003" lon="4.3013">
        <ele>391.2</ele>
        <time>2023-02-19T08:43:26Z</time>
      </trkpt>
      <trkpt lat="45.70004" lon="4.30128">
        <ele>391.2</ele>
        <time>2023-02-19T08:43:27Z</time>
      </trkpt>
      <trkpt lat="45.70004" lon="4.30126">
        <ele>391.2</ele>
        <time>2023-02-19T08:43:28Z</time>
      </trkpt>
      <trkpt lat="45.70005" lon="4.30122">
        <ele>391.1</ele>
        <time>2023-02-19T08:43:29Z</time>
      </trkpt>
      <trkpt lat="45.70005" lon="4.30121">
        <ele>391.1</ele>
        <time>2023-02-19T08:43:30Z</time>
      </trkpt>
      <trkpt lat="45.70006" lon="4.30117">
        <ele>391</ele>
        <time>2023-02-19T08:43:31Z</time>
      </trkpt>
      <trkpt lat="45.70007" lon="4.30113">
        <ele>390.8</ele>
        <time>2023-02-19T08:43:33Z</time>
      </trkpt>
      <trkpt lat="45.70008" lon="4.30112">
        <ele>390.8</ele>
        <time>2023-02-19T08:43:34Z</time>
      </trkpt>
      <trkpt lat="45.70008" lon="4.30109">
        <ele>390.7</ele>
        <time>2023-02-19T08:43:35Z</time>
      </trkpt>
      <trkpt lat="45.70009" lon="4.30107">
        <ele>390.6</ele>
        <time>2023-02-19T08:43:36Z</time>
      </trkpt>
      <trkpt lat="45.7001" lon="4.30105">
        <ele>390.6</ele>
        <time>2023-02-19T08:43:37Z</time>
      </trkpt>
      <trkpt lat="45.70011" lon="4.30103">
        <ele>390.5</ele>
        <time>2023-02-19T08:43:38Z</time>
      </trkpt>
      <trkpt lat="45.70011" lon="4.30102">
        <ele>390.4</ele>
        <time>2023-02-19T08:43:39Z</time>
      </trkpt>
      <trkpt lat="45.70012" lon="4.30098">
        <ele>390.3</ele>
        <time>2023-02-19T08:43:41Z</time>
      </trkpt>
      <trkpt lat="45.70012" lon="4.30096">
        <ele>390.2</ele>
        <time>2023-02-19T08:43:42Z</time>
      </trkpt>
      <trkpt lat="45.70013" lon="4.30094">
        <ele>390.2</ele>
        <time>2023-02-19T08:43:43Z</time>
      </trkpt>
      <trkpt lat="45.70013" lon="4.30092">
        <ele>390.1</ele>
        <time>2023-02-19T08:43:44Z</time>
      </trkpt>
      <trkpt lat="45.70013" lon="4.3009">
        <ele>390</ele>
        <time>2023-02-19T08:43:45Z</time>
      </trkpt>
      <trkpt lat="45.70013" lon="4.30086">
        <ele>389.8</ele>
        <time>2023-02-19T08:43:47Z</time>
      </trkpt>
      <trkpt lat="45.70013" lon="4.30085">
        <ele>389.8</ele>
        <time>2023-02-19T08:43:48Z</time>
      </trkpt>
      <trkpt lat="45.70013" lon="4.30083">
        <ele>389.7</ele>
        <time>2023-02-19T08:43:49Z</time>
      </trkpt>
      <trkpt lat="45.70013" lon="4.30081">
        <ele>389.6</ele>
        <time>2023-02-19T08:43:50Z</time>
      </trkpt>
      <trkpt lat="45.70013" lon="4.3008">
        <ele>389.6</ele>
        <time>2023-02-19T08:43:51Z</time>
      </trkpt>
      <trkpt lat="45.70012" lon="4.30078">
        <ele>389.5</ele>
        <time>2023-02-19T08:43:53Z</time>
      </trkpt>
      <trkpt lat="45.70012" lon="4.30077">
        <ele>389.4</ele>
        <time>2023-02-19T08:43:54Z</time>
      </trkpt>
      <trkpt lat="45.70013" lon="4.30076">
        <ele>389.4</ele>
        <time>2023-02-19T08:43:55Z</time>
      </trkpt>
      <trkpt lat="45.70013" lon="4.30075">
        <ele>389.3</ele>
        <time>2023-02-19T08:43:56Z</time>
      </trkpt>
      <trkpt lat="45.70013" lon="4.30073">
        <ele>389.3</ele>
        <time>2023-02-19T08:43:57Z</time>
      </trkpt>
      <trkpt lat="45.70013" lon="4.30071">
        <ele>389.2</ele>
        <time>2023-02-19T08:43:59Z</time>
      </trkpt>
      <trkpt lat="45.70013" lon="4.30069">
        <ele>389.1</ele>
        <time>2023-02-19T08:44:00Z</time>
      </trkpt>
      <trkpt lat="45.70013" lon="4.30067">
        <ele>389</ele>
        <time>2023-02-19T08:44:01Z</time>
      </trkpt>
      <trkpt lat="45.70013" lon="4.30064">
        <ele>388.9</ele>
        <time>2023-02-19T08:44:02Z</time>
      </trkpt>
      <trkpt lat="45.70013" lon="4.30062">
        <ele>388.8</ele>
        <time>2023-02-19T08:44:03Z</time>
      </trkpt>
      <trkpt lat="45.70013" lon="4.30058">
        <ele>388.6</ele>
        <time>2023-02-19T08:44:05Z</time>
      </trkpt>
      <trkpt lat="45.70013" lon="4.30055">
        <ele>388.5</ele>
        <time>2023-02-19T08:44:06Z</time>
      </trkpt>
      <trkpt lat="45.70013" lon="4.30053">
        <ele>388.4</ele>
        <time>2023-02-19T08:44:07Z</time>
      </trkpt>
      <trkpt lat="45.70013" lon="4.30051">
        <ele>388.3</ele>
        <time>2023-02-19T08:44:08Z</time>
      </trkpt>
      <trkpt lat="45.70012" lon="4.30046">
        <ele>388.1</ele>
        <time>2023-02-19T08:44:10Z</time>
      </trkpt>
      <trkpt lat="45.70012" lon="4.30044">
        <ele>388</ele>
        <time>2023-02-19T08:44:11Z</time>
      </trkpt>
      <trkpt lat="45.70012" lon="4.30042">
        <ele>387.9</ele>
        <time>2023-02-19T08:44:12Z</time>
      </trkpt>
      <trkpt lat="45.70013" lon="4.3004">
        <ele>387.8</ele>
        <time>2023-02-19T08:44:13Z</time>
      </trkpt>
      <trkpt lat="45.70013" lon="4.30038">
        <ele>387.7</ele>
        <time>2023-02-19T08:44:14Z</time>
      </trkpt>
      <trkpt lat="45.70013" lon="4.30035">
        <ele>387.6</ele>
        <time>2023-02-19T08:44:15Z</time>
      </trkpt>
      <trkpt lat="45.70013" lon="4.30033">
        <ele>387.5</ele>
        <time>2023-02-19T08:44:16Z</time>
      </trkpt>
      <trkpt lat="45.70014" lon="4.3003">
        <ele>387.4</ele>
        <time>2023-02-19T08:44:18Z</time>
      </trkpt>
      <trkpt lat="45.70014" lon="4.30029">
        <ele>387.3</ele>
        <time>2023-02-19T08:44:19Z</time>
      </trkpt>
      <trkpt lat="45.70015" lon="4.30027">
        <ele>387.2</ele>
        <time>2023-02-19T08:44:20Z</time>
      </trkpt>
      <trkpt lat="45.70015" lon="4.30025">
        <ele>387.1</ele>
        <time>2023-02-19T08:44:21Z</time>
      </trkpt>
      <trkpt lat="45.70016" lon="4.30022">
        <ele>387</ele>
        <time>2023-02-19T08:44:22Z</time>
      </trkpt>
      <trkpt lat="45.70016" lon="4.30019">
        <ele>386.8</ele>
        <time>2023-02-19T08:44:24Z</time>
      </trkpt>
      <trkpt lat="45.70016" lon="4.30016">
        <ele>386.7</ele>
        <time>2023-02-19T08:44:25Z</time>
      </trkpt>
      <trkpt lat="45.70016" lon="4.30014">
        <ele>386.6</ele>
        <time>2023-02-19T08:44:26Z</time>
      </trkpt>
      <trkpt lat="45.70016" lon="4.30012">
        <ele>386.5</ele>
        <time>2023-02-19T08:44:27Z</time>
      </trkpt>
      <trkpt lat="45.70016" lon="4.30009">
        <ele>386.4</ele>
        <time>2023-02-19T08:44:28Z</time>
      </trkpt>
      <trkpt lat="45.70015" lon="4.30005">
        <ele>386.2</ele>
        <time>2023-02-19T08:44:29Z</time>
      </trkpt>
      <trkpt lat="45.70015" lon="4.30003">
        <ele>386.1</ele>
        <time>2023-02-19T08:44:31Z</time>
      </trkpt>
      <trkpt lat="45.70015" lon="4.30002">
        <ele>386.1</ele>
        <time>2023-02-19T08:44:32Z</time>
      </trkpt>
      <trkpt lat="45.70015" lon="4.3">
        <ele>386</ele>
        <time>2023-02-19T08:44:33Z</time>
      </trkpt>
      <trkpt lat="45.70014" lon="4.29996">
        <ele>385.8</ele>
        <time>2023-02-19T08:44:35Z</time>
      </trkpt>
      <trkpt lat="45.70014" lon="4.29993">
        <ele>385.7</ele>
        <time>2023-02-19T08:44:36Z</time>
      </trkpt>
      <trkpt lat="45.70014" lon="4.29991">
        <ele>385.6</ele>
        <time>2023-02-19T08:44:37Z</time>
      </trkpt>
      <trkpt lat="45.70014" lon="4.29989">
        <ele>385.5</ele>
        <time>2023-02-19T08:44:38Z</time>
      </trkpt>
      <trkpt lat="45.70014" lon="4.29986">
        <ele>385.3</ele>
        <time>2023-02-19T08:44:40Z</time>
      </trkpt>
      <trkpt lat="45.70014" lon="4.29984">
        <ele>385.3</ele>
        <time>2023-02-19T08:44:41Z</time>
      </trkpt>
      <trkpt lat="45.70014" lon="4.29982">
        <ele>385.2</ele>
        <time>2023-02-19T08:44:42Z</time>
      </trkpt>
      <trkpt lat="45.70014" lon="4.29981">
        <ele>385.1</ele>
        <time>2023-02-19T08:44:43Z</time>
      </trkpt>
      <trkpt lat="45.70015" lon="4.29979">
        <ele>385.1</ele>
        <time>2023-02-19T08:44:44Z</time>
      </trkpt>
      <trkpt lat="45.70015" lon="4.29978">
        <ele>385</ele>
        <time>2023-02-19T08:44:45Z</time>
      </trkpt>
      <trkpt lat="45.70014" lon="4.29976">
        <ele>384.9</ele>
        <time>2023-02-19T08:44:46Z</time>
      </trkpt>
      <trkpt lat="45.70014" lon="4.29974">
        <ele>384.8</ele>
        <time>2023-02-19T08:44:47Z</time>
      </trkpt>
      <trkpt lat="45.70014" lon="4.29972">
        <ele>384.8</ele>
        <time>2023-02-19T08:44:48Z</time>
      </trkpt>
      <trkpt lat="45.70014" lon="4.2997">
        <ele>384.7</ele>
        <time>2023-02-19T08:44:49Z</time>
      </trkpt>
      <trkpt lat="45.70014" lon="4.29966">
        <ele>384.5</ele>
        <time>2023-02-19T08:44:51Z</time>
      </trkpt>
      <trkpt lat="45.70014" lon="4.29962">
        <ele>384.3</ele>
        <time>2023-02-19T08:44:52Z</time>
      </trkpt>
      <trkpt lat="45.70015" lon="4.29961">
        <ele>384.3</ele>
        <time>2023-02-19T08:44:53Z</time>
      </trkpt>
      <trkpt lat="45.70015" lon="4.29958">
        <ele>384.2</ele>
        <time>2023-02-19T08:44:54Z</time>
      </trkpt>
      <trkpt lat="45.70015" lon="4.29956">
        <ele>384.1</ele>
        <time>2023-02-19T08:44:55Z</time>
      </trkpt>
      <trkpt lat="45.70015" lon="4.29954">
        <ele>384</ele>
        <time>2023-02-19T08:44:56Z</time>
      </trkpt>
      <trkpt lat="45.70015" lon="4.29951">
        <ele>383.9</ele>
        <time>2023-02-19T08:44:57Z</time>
      </trkpt>
      <trkpt lat="45.70015" lon="4.29949">
        <ele>383.8</ele>
        <time>2023-02-19T08:44:59Z</time>
      </trkpt>
      <trkpt lat="45.70015" lon="4.29947">
        <ele>383.7</ele>
        <time>2023-02-19T08:45:00Z</time>
      </trkpt>
      <trkpt lat="45.70014" lon="4.29945">
        <ele>383.6</ele>
        <time>2023-02-19T08:45:01Z</time>
      </trkpt>
      <trkpt lat="45.70014" lon="4.29942">
        <ele>383.5</ele>
        <time>2023-02-19T08:45:02Z</time>
      </trkpt>
      <trkpt lat="45.70014" lon="4.29938">
        <ele>383.4</ele>
        <time>2023-02-19T08:45:03Z</time>
      </trkpt>
      <trkpt lat="45.70013" lon="4.29936">
        <ele>383.3</ele>
        <time>2023-02-19T08:45:04Z</time>
      </trkpt>
      <trkpt lat="45.70013" lon="4.29932">
        <ele>383.1</ele>
        <time>2023-02-19T08:45:06Z</time>
      </trkpt>
      <trkpt lat="45.70013" lon="4.29931">
        <ele>383.1</ele>
        <time>2023-02-19T08:45:07Z</time>
      </trkpt>
      <trkpt lat="45.70013" lon="4.29928">
        <ele>383</ele>
        <time>2023-02-19T08:45:08Z</time>
      </trkpt>
      <trkpt lat="45.70013" lon="4.29926">
        <ele>382.9</ele>
        <time>2023-02-19T08:45:09Z</time>
      </trkpt>
      <trkpt lat="45.70012" lon="4.29924">
        <ele>382.9</ele>
        <time>2023-02-19T08:45:10Z</time>
      </trkpt>
      <trkpt lat="45.70012" lon="4.29922">
        <ele>382.8</ele>
        <time>2023-02-19T08:45:11Z</time>
      </trkpt>
      <trkpt lat="45.70011" lon="4.2992">
        <ele>382.8</ele>
        <time>2023-02-19T08:45:12Z</time>
      </trkpt>
      <trkpt lat="45.7001" lon="4.29918">
        <ele>382.7</ele>
        <time>2023-02-19T08:45:13Z</time>
      </trkpt>
      <trkpt lat="45.70009" lon="4.29916">
        <ele>382.6</ele>
        <time>2023-02-19T08:45:14Z</time>
      </trkpt>
      <trkpt lat="45.70008" lon="4.29915">
        <ele>382.6</ele>
        <time>2023-02-19T08:45:15Z</time>
      </trkpt>
      <trkpt lat="45.70008" lon="4.29914">
        <ele>382.6</ele>
        <time>2023-02-19T08:45:16Z</time>
      </trkpt>
      <trkpt lat="45.70006" lon="4.29913">
        <ele>382.5</ele>
        <time>2023-02-19T08:45:18Z</time>
      </trkpt>
      <trkpt lat="45.70005" lon="4.29912">
        <ele>382.4</ele>
        <time>2023-02-19T08:45:19Z</time>
      </trkpt>
      <trkpt lat="45.70003" lon="4.2991">
        <ele>382.4</ele>
        <time>2023-02-19T08:45:20Z</time>
      </trkpt>
      <trkpt lat="45.70001" lon="4.29908">
        <ele>382.3</ele>
        <time>2023-02-19T08:45:22Z</time>
      </trkpt>
      <trkpt lat="45.7" lon="4.29907">
        <ele>382.2</ele>
        <time>2023-02-19T08:45:23Z</time>
      </trkpt>
      <trkpt lat="45.69998" lon="4.29906">
        <ele>382.1</ele>
        <time>2023-02-19T08:45:24Z</time>
      </trkpt>
      <trkpt lat="45.69997" lon="4.29905">
        <ele>382.1</ele>
        <time>2023-02-19T08:45:25Z</time>
      </trkpt>
      <trkpt lat="45.69995" lon="4.29904">
        <ele>382</ele>
        <time>2023-02-19T08:45:26Z</time>
      </trkpt>
      <trkpt lat="45.69994" lon="4.29903">
        <ele>381.9</ele>
        <time>2023-02-19T08:45:27Z</time>
      </trkpt>
      <trkpt lat="45.69991" lon="4.29901">
        <ele>381.9</ele>
        <time>2023-02-19T08:45:29Z</time>
      </trkpt>
      <trkpt lat="45.6999" lon="4.29899">
        <ele>381.9</ele>
        <time>2023-02-19T08:45:30Z</time>
      </trkpt>
      <trkpt lat="45.69988" lon="4.29898">
        <ele>381.8</ele>
        <time>2023-02-19T08:45:31Z</time>
      </trkpt>
      <trkpt lat="45.69986" lon="4.29897">
        <ele>381.8</ele>
        <time>2023-02-19T08:45:32Z</time>
      </trkpt>
      <trkpt lat="45.69985" lon="4.29896">
        <ele>381.8</ele>
        <time>2023-02-19T08:45:33Z</time>
      </trkpt>
      <trkpt lat="45.69983" lon="4.29896">
        <ele>381.7</ele>
        <time>2023-02-19T08:45:34Z</time>
      </trkpt>
      <trkpt lat="45.69981" lon="4.29895">
        <ele>381.7</ele>
        <time>2023-02-19T08:45:35Z</time>
      </trkpt>
      <trkpt lat="45.6998" lon="4.29895">
        <ele>381.7</ele>
        <time>2023-02-19T08:45:36Z</time>
      </trkpt>
      <trkpt lat="45.69978" lon="4.29894">
        <ele>381.7</ele>
        <time>2023-02-19T08:45:37Z</time>
      </trkpt>
      <trkpt lat="45.69975" lon="4.29893">
        <ele>381.6</ele>
        <time>2023-02-19T08:45:38Z</time>
      </trkpt>
      <trkpt lat="45.69975" lon="4.29893">
        <ele>381.6</ele>
        <time>2023-02-19T08:45:39Z</time>
      </trkpt>
      <trkpt lat="45.69973" lon="4.29892">
        <ele>381.6</ele>
        <time>2023-02-19T08:45:40Z</time>
      </trkpt>
      <trkpt lat="45.69971" lon="4.29891">
        <ele>381.5</ele>
        <time>2023-02-19T08:45:42Z</time>
      </trkpt>
      <trkpt lat="45.6997" lon="4.2989">
        <ele>381.5</ele>
        <time>2023-02-19T08:45:43Z</time>
      </trkpt>
      <trkpt lat="45.69968" lon="4.29889">
        <ele>381.5</ele>
        <time>2023-02-19T08:45:44Z</time>
      </trkpt>
      <trkpt lat="45.69966" lon="4.29888">
        <ele>381.5</ele>
        <time>2023-02-19T08:45:45Z</time>
      </trkpt>
      <trkpt lat="45.69963" lon="4.29887">
        <ele>381.4</ele>
        <time>2023-02-19T08:45:47Z</time>
      </trkpt>
      <trkpt lat="45.6996" lon="4.29886">
        <ele>381.4</ele>
        <time>2023-02-19T08:45:48Z</time>
      </trkpt>
      <trkpt lat="45.69959" lon="4.29886">
        <ele>381.4</ele>
        <time>2023-02-19T08:45:49Z</time>
      </trkpt>
      <trkpt lat="45.69956" lon="4.29885">
        <ele>381.3</ele>
        <time>2023-02-19T08:45:50Z</time>
      </trkpt>
      <trkpt lat="45.69955" lon="4.29885">
        <ele>381.3</ele>
        <time>2023-02-19T08:45:51Z</time>
      </trkpt>
      <trkpt lat="45.6995" lon="4.29884">
        <ele>381.3</ele>
        <time>2023-02-19T08:45:53Z</time>
      </trkpt>
      <trkpt lat="45.69949" lon="4.29884">
        <ele>381.3</ele>
        <time>2023-02-19T08:45:54Z</time>
      </trkpt>
      <trkpt lat="45.69947" lon="4.29884">
        <ele>381.3</ele>
        <time>2023-02-19T08:45:55Z</time>
      </trkpt>
      <trkpt lat="45.69944" lon="4.29884">
        <ele>381.3</ele>
        <time>2023-02-19T08:45:56Z</time>
      </trkpt>
      <trkpt lat="45.69942" lon="4.29884">
        <ele>381.3</ele>
        <time>2023-02-19T08:45:57Z</time>
      </trkpt>
      <trkpt lat="45.6994" lon="4.29884">
        <ele>381.3</ele>
        <time>2023-02-19T08:45:58Z</time>
      </trkpt>
      <trkpt lat="45.69937" lon="4.29884">
        <ele>381.3</ele>
        <time>2023-02-19T08:46:00Z</time>
      </trkpt>
      <trkpt lat="45.69934" lon="4.29884">
        <ele>381.3</ele>
        <time>2023-02-19T08:46:01Z</time>
      </trkpt>
      <trkpt lat="45.69933" lon="4.29884">
        <ele>381.3</ele>
        <time>2023-02-19T08:46:02Z</time>
      </trkpt>
      <trkpt lat="45.69929" lon="4.29885">
        <ele>381.3</ele>
        <time>2023-02-19T08:46:04Z</time>
      </trkpt>
      <trkpt lat="45.69926" lon="4.29885">
        <ele>381.3</ele>
        <time>2023-02-19T08:46:05Z</time>
      </trkpt>
      <trkpt lat="45.69923" lon="4.29886">
        <ele>381.4</ele>
        <time>2023-02-19T08:46:06Z</time>
      </trkpt>
      <trkpt lat="45.69918" lon="4.29886">
        <ele>381.4</ele>
        <time>2023-02-19T08:46:07Z</time>
      </trkpt>
      <trkpt lat="45.69914" lon="4.29887">
        <ele>381.4</ele>
        <time>2023-02-19T08:46:09Z</time>
      </trkpt>
      <trkpt lat="45.69911" lon="4.29887">
        <ele>381.5</ele>
        <time>2023-02-19T08:46:10Z</time>
      </trkpt>
      <trkpt lat="45.69908" lon="4.29887">
        <ele>381.5</ele>
        <time>2023-02-19T08:46:11Z</time>
      </trkpt>
      <trkpt lat="45.69905" lon="4.29887">
        <ele>381.5</ele>
        <time>2023-02-19T08:46:13Z</time>
      </trkpt>
      <trkpt lat="45.69904" lon="4.29887">
        <ele>381.5</ele>
        <time>2023-02-19T08:46:14Z</time>
      </trkpt>
      <trkpt lat="45.69902" lon="4.29888">
        <ele>381.5</ele>
        <time>2023-02-19T08:46:15Z</time>
      </trkpt>
      <trkpt lat="45.69899" lon="4.29887">
        <ele>381.5</ele>
        <time>2023-02-19T08:46:16Z</time>
      </trkpt>
      <trkpt lat="45.69898" lon="4.29887">
        <ele>381.5</ele>
        <time>2023-02-19T08:46:17Z</time>
      </trkpt>
      <trkpt lat="45.69895" lon="4.29886">
        <ele>381.4</ele>
        <time>2023-02-19T08:46:18Z</time>
      </trkpt>
      <trkpt lat="45.69894" lon="4.29886">
        <ele>381.4</ele>
        <time>2023-02-19T08:46:19Z</time>
      </trkpt>
      <trkpt lat="45.69892" lon="4.29885">
        <ele>381.4</ele>
        <time>2023-02-19T08:46:21Z</time>
      </trkpt>
      <trkpt lat="45.69891" lon="4.29885">
        <ele>381.4</ele>
        <time>2023-02-19T08:46:22Z</time>
      </trkpt>
      <trkpt lat="45.6989" lon="4.29885">
        <ele>381.4</ele>
        <time>2023-02-19T08:46:23Z</time>
      </trkpt>
      <trkpt lat="45.69889" lon="4.29884">
        <ele>381.4</ele>
        <time>2023-02-19T08:46:24Z</time>
      </trkpt>
      <trkpt lat="45.69889" lon="4.29884">
        <ele>381.4</ele>
        <time>2023-02-19T08:46:25Z</time>
      </trkpt>
      <trkpt lat="45.69888" lon="4.29883">
        <ele>381.4</ele>
        <time>2023-02-19T08:46:26Z</time>
      </trkpt>
      <trkpt lat="45.69887" lon="4.29882">
        <ele>381.3</ele>
        <time>2023-02-19T08:46:28Z</time>
      </trkpt>
      <trkpt lat="45.69887" lon="4.29881">
        <ele>381.3</ele>
        <time>2023-02-19T08:46:29Z</time>
      </trkpt>
      <trkpt lat="45.69886" lon="4.29881">
        <ele>381.3</ele>
        <time>2023-02-19T08:46:30Z</time>
      </trkpt>
      <trkpt lat="45.69884" lon="4.2988">
        <ele>381.3</ele>
        <time>2023-02-19T08:46:31Z</time>
      </trkpt>
      <trkpt lat="45.69883" lon="4.2988">
        <ele>381.3</ele>
        <time>2023-02-19T08:46:32Z</time>
      </trkpt>
      <trkpt lat="45.69882" lon="4.29879">
        <ele>381.3</ele>
        <time>2023-02-19T08:46:33Z</time>
      </trkpt>
      <trkpt lat="45.69881" lon="4.29879">
        <ele>381.2</ele>
        <time>2023-02-19T08:46:34Z</time>
      </trkpt>
      <trkpt lat="45.6988" lon="4.29878">
        <ele>381.2</ele>
        <time>2023-02-19T08:46:35Z</time>
      </trkpt>
      <trkpt lat="45.69878" lon="4.29877">
        <ele>381.2</ele>
        <time>2023-02-19T08:46:36Z</time>
      </trkpt>
      <trkpt lat="45.69877" lon="4.29876">
        <ele>381.1</ele>
        <time>2023-02-19T08:46:37Z</time>
      </trkpt>
      <trkpt lat="45.69876" lon="4.29874">
        <ele>381.1</ele>
        <time>2023-02-19T08:46:38Z</time>
      </trkpt>
      <trkpt lat="45.69876" lon="4.29872">
        <ele>381.1</ele>
        <time>2023-02-19T08:46:40Z</time>
      </trkpt>
      <trkpt lat="45.69876" lon="4.2987">
        <ele>381</ele>
        <time>2023-02-19T08:46:41Z</time>
      </trkpt>
      <trkpt lat="45.69876" lon="4.29868">
        <ele>381</ele>
        <time>2023-02-19T08:46:42Z</time>
      </trkpt>
      <trkpt lat="45.69876" lon="4.29866">
        <ele>380.9</ele>
        <time>2023-02-19T08:46:43Z</time>
      </trkpt>
      <trkpt lat="45.69876" lon="4.29863">
        <ele>380.8</ele>
        <time>2023-02-19T08:46:44Z</time>
      </trkpt>
      <trkpt lat="45.69876" lon="4.29859">
        <ele>380.7</ele>
        <time>2023-02-19T08:46:45Z</time>
      </trkpt>
      <trkpt lat="45.69876" lon="4.29857">
        <ele>380.6</ele>
        <time>2023-02-19T08:46:46Z</time>
      </trkpt>
      <trkpt lat="45.69877" lon="4.29855">
        <ele>380.6</ele>
        <time>2023-02-19T08:46:47Z</time>
      </trkpt>
      <trkpt lat="45.69877" lon="4.29852">
        <ele>380.5</ele>
        <time>2023-02-19T08:46:49Z</time>
      </trkpt>
      <trkpt lat="45.69878" lon="4.2985">
        <ele>380.4</ele>
        <time>2023-02-19T08:46:50Z</time>
      </trkpt>
      <trkpt lat="45.69878" lon="4.29847">
        <ele>380.3</ele>
        <time>2023-02-19T08:46:51Z</time>
      </trkpt>
      <trkpt lat="45.69879" lon="4.29844">
        <ele>380.2</ele>
        <time>2023-02-19T08:46:52Z</time>
      </trkpt>
      <trkpt lat="45.6988" lon="4.29842">
        <ele>380.1</ele>
        <time>2023-02-19T08:46:53Z</time>
      </trkpt>
      <trkpt lat="45.69881" lon="4.2984">
        <ele>380</ele>
        <time>2023-02-19T08:46:54Z</time>
      </trkpt>
      <trkpt lat="45.69882" lon="4.29836">
        <ele>379.9</ele>
        <time>2023-02-19T08:46:56Z</time>
      </trkpt>
      <trkpt lat="45.69883" lon="4.29834">
        <ele>379.8</ele>
        <time>2023-02-19T08:46:57Z</time>
      </trkpt>
      <trkpt lat="45.69883" lon="4.29831">
        <ele>379.7</ele>
        <time>2023-02-19T08:46:58Z</time>
      </trkpt>
      <trkpt lat="45.69884" lon="4.29829">
        <ele>379.6</ele>
        <time>2023-02-19T08:46:59Z</time>
      </trkpt>
      <trkpt lat="45.69885" lon="4.29827">
        <ele>379.6</ele>
        <time>2023-02-19T08:47:00Z</time>
      </trkpt>
      <trkpt lat="45.69886" lon="4.29825">
        <ele>379.5</ele>
        <time>2023-02-19T08:47:01Z</time>
      </trkpt>
      <trkpt lat="45.69887" lon="4.29824">
        <ele>379.5</ele>
        <time>2023-02-19T08:47:02Z</time>
      </trkpt>
      <trkpt lat="45.69888" lon="4.29824">
        <ele>379.4</ele>
        <time>2023-02-19T08:47:03Z</time>
      </trkpt>
      <trkpt lat="45.69888" lon="4.29822">
        <ele>379.4</ele>
        <time>2023-02-19T08:47:04Z</time>
      </trkpt>
      <trkpt lat="45.69888" lon="4.2982">
        <ele>379.3</ele>
        <time>2023-02-19T08:47:05Z</time>
      </trkpt>
      <trkpt lat="45.69889" lon="4.29818">
        <ele>379.2</ele>
        <time>2023-02-19T08:47:07Z</time>
      </trkpt>
      <trkpt lat="45.69889" lon="4.29816">
        <ele>379.2</ele>
        <time>2023-02-19T08:47:08Z</time>
      </trkpt>
      <trkpt lat="45.6989" lon="4.29813">
        <ele>379.1</ele>
        <time>2023-02-19T08:47:09Z</time>
      </trkpt>
      <trkpt lat="45.6989" lon="4.29811">
        <ele>379.1</ele>
        <time>2023-02-19T08:47:10Z</time>
      </trkpt>
      <trkpt lat="45.6989" lon="4.29809">
        <ele>379</ele>
        <time>2023-02-19T08:47:11Z</time>
      </trkpt>
      <trkpt lat="45.69891" lon="4.29806">
        <ele>378.9</ele>
        <time>2023-02-19T08:47:13Z</time>
      </trkpt>
      <trkpt lat="45.69891" lon="4.29803">
        <ele>378.9</ele>
        <time>2023-02-19T08:47:14Z</time>
      </trkpt>
      <trkpt lat="45.69892" lon="4.29801">
        <ele>378.8</ele>
        <time>2023-02-19T08:47:15Z</time>
      </trkpt>
      <trkpt lat="45.69892" lon="4.29799">
        <ele>378.8</ele>
        <time>2023-02-19T08:47:16Z</time>
      </trkpt>
      <trkpt lat="45.69891" lon="4.29797">
        <ele>378.7</ele>
        <time>2023-02-19T08:47:17Z</time>
      </trkpt>
      <trkpt lat="45.69891" lon="4.29793">
        <ele>378.7</ele>
        <time>2023-02-19T08:47:19Z</time>
      </trkpt>
      <trkpt lat="45.6989" lon="4.29792">
        <ele>378.6</ele>
        <time>2023-02-19T08:47:20Z</time>
      </trkpt>
      <trkpt lat="45.6989" lon="4.29788">
        <ele>378.6</ele>
        <time>2023-02-19T08:47:21Z</time>
      </trkpt>
      <trkpt lat="45.6989" lon="4.29787">
        <ele>378.6</ele>
        <time>2023-02-19T08:47:22Z</time>
      </trkpt>
      <trkpt lat="45.6989" lon="4.29786">
        <ele>378.5</ele>
        <time>2023-02-19T08:47:23Z</time>
      </trkpt>
      <trkpt lat="45.6989" lon="4.29784">
        <ele>378.5</ele>
        <time>2023-02-19T08:47:24Z</time>
      </trkpt>
      <trkpt lat="45.6989" lon="4.29782">
        <ele>378.5</ele>
        <time>2023-02-19T08:47:25Z</time>
      </trkpt>
      <trkpt lat="45.6989" lon="4.2978">
        <ele>378.4</ele>
        <time>2023-02-19T08:47:26Z</time>
      </trkpt>
      <trkpt lat="45.6989" lon="4.29778">
        <ele>378.4</ele>
        <time>2023-02-19T08:47:27Z</time>
      </trkpt>
      <trkpt lat="45.6989" lon="4.29776">
        <ele>378.4</ele>
        <time>2023-02-19T08:47:28Z</time>
      </trkpt>
      <trkpt lat="45.6989" lon="4.29774">
        <ele>378.3</ele>
        <time>2023-02-19T08:47:29Z</time>
      </trkpt>
      <trkpt lat="45.6989" lon="4.29772">
        <ele>378.3</ele>
        <time>2023-02-19T08:47:30Z</time>
      </trkpt>
      <trkpt lat="45.6989" lon="4.29769">
        <ele>378.2</ele>
        <time>2023-02-19T08:47:32Z</time>
      </trkpt>
      <trkpt lat="45.6989" lon="4.29767">
        <ele>378.2</ele>
        <time>2023-02-19T08:47:33Z</time>
      </trkpt>
      <trkpt lat="45.6989" lon="4.29765">
        <ele>378.1</ele>
        <time>2023-02-19T08:47:34Z</time>
      </trkpt>
      <trkpt lat="45.6989" lon="4.29763">
        <ele>378.1</ele>
        <time>2023-02-19T08:47:35Z</time>
      </trkpt>
      <trkpt lat="45.69891" lon="4.29759">
        <ele>378</ele>
        <time>2023-02-19T08:47:37Z</time>
      </trkpt>
      <trkpt lat="45.69891" lon="4.29757">
        <ele>378</ele>
        <time>2023-02-19T08:47:38Z</time>
      </trkpt>
      <trkpt lat="45.69891" lon="4.29754">
        <ele>377.9</ele>
        <time>2023-02-19T08:47:39Z</time>
      </trkpt>
      <trkpt lat="45.69891" lon="4.29752">
        <ele>377.9</ele>
        <time>2023-02-19T08:47:40Z</time>
      </trkpt>
      <trkpt lat="45.69892" lon="4.2975">
        <ele>377.8</ele>
        <time>2023-02-19T08:47:41Z</time>
      </trkpt>
      <trkpt lat="45.69892" lon="4.29747">
        <ele>377.7</ele>
        <time>2023-02-19T08:47:42Z</time>
      </trkpt>
      <trkpt lat="45.69893" lon="4.29745">
        <ele>377.7</ele>
        <time>2023-02-19T08:47:43Z</time>
      </trkpt>
      <trkpt lat="45.69893" lon="4.29743">
        <ele>377.6</ele>
        <time>2023-02-19T08:47:44Z</time>
      </trkpt>
      <trkpt lat="45.69894" lon="4.2974">
        <ele>377.6</ele>
        <time>2023-02-19T08:47:46Z</time>
      </trkpt>
      <trkpt lat="45.69894" lon="4.29739">
        <ele>377.5</ele>
        <time>2023-02-19T08:47:47Z</time>
      </trkpt>
      <trkpt lat="45.69894" lon="4.29736">
        <ele>377.5</ele>
        <time>2023-02-19T08:47:48Z</time>
      </trkpt>
      <trkpt lat="45.69893" lon="4.29734">
        <ele>377.5</ele>
        <time>2023-02-19T08:47:49Z</time>
      </trkpt>
      <trkpt lat="45.69893" lon="4.29732">
        <ele>377.4</ele>
        <time>2023-02-19T08:47:50Z</time>
      </trkpt>
      <trkpt lat="45.69892" lon="4.2973">
        <ele>377.4</ele>
        <time>2023-02-19T08:47:52Z</time>
      </trkpt>
      <trkpt lat="45.69892" lon="4.29729">
        <ele>377.3</ele>
        <time>2023-02-19T08:47:53Z</time>
      </trkpt>
      <trkpt lat="45.69891" lon="4.29728">
        <ele>377.3</ele>
        <time>2023-02-19T08:47:54Z</time>
      </trkpt>
      <trkpt lat="45.6989" lon="4.29726">
        <ele>377.3</ele>
        <time>2023-02-19T08:47:55Z</time>
      </trkpt>
      <trkpt lat="45.69889" lon="4.29725">
        <ele>377.2</ele>
        <time>2023-02-19T08:47:56Z</time>
      </trkpt>
      <trkpt lat="45.69888" lon="4.29723">
        <ele>377.2</ele>
        <time>2023-02-19T08:47:57Z</time>
      </trkpt>
      <trkpt lat="45.69887" lon="4.29722">
        <ele>377.2</ele>
        <time>2023-02-19T08:47:58Z</time>
      </trkpt>
      <trkpt lat="45.69884" lon="4.2972">
        <ele>377.1</ele>
        <time>2023-02-19T08:48:00Z</time>
      </trkpt>
      <trkpt lat="45.69883" lon="4.2972">
        <ele>377.1</ele>
        <time>2023-02-19T08:48:01Z</time>
      </trkpt>
      <trkpt lat="45.69882" lon="4.29719">
        <ele>377</ele>
        <time>2023-02-19T08:48:02Z</time>
      </trkpt>
      <trkpt lat="45.69881" lon="4.29717">
        <ele>377</ele>
        <time>2023-02-19T08:48:03Z</time>
      </trkpt>
      <trkpt lat="45.69878" lon="4.29715">
        <ele>377</ele>
        <time>2023-02-19T08:48:04Z</time>
      </trkpt>
      <trkpt lat="45.69878" lon="4.29714">
        <ele>376.9</ele>
        <time>2023-02-19T08:48:05Z</time>
      </trkpt>
      <trkpt lat="45.69876" lon="4.29713">
        <ele>376.9</ele>
        <time>2023-02-19T08:48:06Z</time>
      </trkpt>
      <trkpt lat="45.69875" lon="4.29711">
        <ele>376.9</ele>
        <time>2023-02-19T08:48:07Z</time>
      </trkpt>
      <trkpt lat="45.69873" lon="4.2971">
        <ele>376.8</ele>
        <time>2023-02-19T08:48:09Z</time>
      </trkpt>
      <trkpt lat="45.69872" lon="4.29708">
        <ele>376.8</ele>
        <time>2023-02-19T08:48:10Z</time>
      </trkpt>
      <trkpt lat="45.69871" lon="4.29707">
        <ele>376.8</ele>
        <time>2023-02-19T08:48:11Z</time>
      </trkpt>
      <trkpt lat="45.6987" lon="4.29706">
        <ele>376.8</ele>
        <time>2023-02-19T08:48:12Z</time>
      </trkpt>
      <trkpt lat="45.69869" lon="4.29705">
        <ele>376.8</ele>
        <time>2023-02-19T08:48:13Z</time>
      </trkpt>
      <trkpt lat="45.69867" lon="4.29704">
        <ele>376.7</ele>
        <time>2023-02-19T08:48:15Z</time>
      </trkpt>
      <trkpt lat="45.69866" lon="4.29703">
        <ele>376.7</ele>
        <time>2023-02-19T08:48:16Z</time>
      </trkpt>
      <trkpt lat="45.69864" lon="4.29703">
        <ele>376.7</ele>
        <time>2023-02-19T08:48:17Z</time>
      </trkpt>
      <trkpt lat="45.69863" lon="4.29702">
        <ele>376.7</ele>
        <time>2023-02-19T08:48:18Z</time>
      </trkpt>
      <trkpt lat="45.69861" lon="4.29702">
        <ele>376.6</ele>
        <time>2023-02-19T08:48:19Z</time>
      </trkpt>
      <trkpt lat="45.6986" lon="4.29701">
        <ele>376.6</ele>
        <time>2023-02-19T08:48:20Z</time>
      </trkpt>
      <trkpt lat="45.69858" lon="4.29701">
        <ele>376.6</ele>
        <time>2023-02-19T08:48:21Z</time>
      </trkpt>
      <trkpt lat="45.69857" lon="4.297">
        <ele>376.6</ele>
        <time>2023-02-19T08:48:22Z</time>
      </trkpt>
      <trkpt lat="45.69855" lon="4.29699">
        <ele>376.5</ele>
        <time>2023-02-19T08:48:23Z</time>
      </trkpt>
      <trkpt lat="45.69854" lon="4.29699">
        <ele>376.5</ele>
        <time>2023-02-19T08:48:25Z</time>
      </trkpt>
      <trkpt lat="45.69852" lon="4.29697">
        <ele>376.4</ele>
        <time>2023-02-19T08:48:26Z</time>
      </trkpt>
      <trkpt lat="45.69849" lon="4.29695">
        <ele>376.4</ele>
        <time>2023-02-19T08:48:27Z</time>
      </trkpt>
      <trkpt lat="45.69849" lon="4.29694">
        <ele>376.3</ele>
        <time>2023-02-19T08:48:28Z</time>
      </trkpt>
      <trkpt lat="45.69846" lon="4.29692">
        <ele>376.2</ele>
        <time>2023-02-19T08:48:30Z</time>
      </trkpt>
      <trkpt lat="45.69845" lon="4.29691">
        <ele>376.2</ele>
        <time>2023-02-19T08:48:31Z</time>
      </trkpt>
      <trkpt lat="45.69843" lon="4.2969">
        <ele>376.1</ele>
        <time>2023-02-19T08:48:32Z</time>
      </trkpt>
      <trkpt lat="45.69842" lon="4.29689">
        <ele>376.1</ele>
        <time>2023-02-19T08:48:33Z</time>
      </trkpt>
      <trkpt lat="45.6984" lon="4.29688">
        <ele>376</ele>
        <time>2023-02-19T08:48:34Z</time>
      </trkpt>
      <trkpt lat="45.69839" lon="4.29687">
        <ele>376</ele>
        <time>2023-02-19T08:48:35Z</time>
      </trkpt>
      <trkpt lat="45.69838" lon="4.29686">
        <ele>375.9</ele>
        <time>2023-02-19T08:48:36Z</time>
      </trkpt>
      <trkpt lat="45.69837" lon="4.29685">
        <ele>375.9</ele>
        <time>2023-02-19T08:48:37Z</time>
      </trkpt>
      <trkpt lat="45.69836" lon="4.29685">
        <ele>375.9</ele>
        <time>2023-02-19T08:48:38Z</time>
      </trkpt>
      <trkpt lat="45.69835" lon="4.29684">
        <ele>375.8</ele>
        <time>2023-02-19T08:48:39Z</time>
      </trkpt>
      <trkpt lat="45.69833" lon="4.29683">
        <ele>375.8</ele>
        <time>2023-02-19T08:48:40Z</time>
      </trkpt>
      <trkpt lat="45.69832" lon="4.29682">
        <ele>375.8</ele>
        <time>2023-02-19T08:48:42Z</time>
      </trkpt>
      <trkpt lat="45.69831" lon="4.29681">
        <ele>375.7</ele>
        <time>2023-02-19T08:48:43Z</time>
      </trkpt>
      <trkpt lat="45.69829" lon="4.2968">
        <ele>375.7</ele>
        <time>2023-02-19T08:48:44Z</time>
      </trkpt>
      <trkpt lat="45.69828" lon="4.29679">
        <ele>375.6</ele>
        <time>2023-02-19T08:48:45Z</time>
      </trkpt>
      <trkpt lat="45.69826" lon="4.29678">
        <ele>375.6</ele>
        <time>2023-02-19T08:48:46Z</time>
      </trkpt>
      <trkpt lat="45.69825" lon="4.29677">
        <ele>375.5</ele>
        <time>2023-02-19T08:48:47Z</time>
      </trkpt>
      <trkpt lat="45.69824" lon="4.29675">
        <ele>375.5</ele>
        <time>2023-02-19T08:48:48Z</time>
      </trkpt>
      <trkpt lat="45.69822" lon="4.29674">
        <ele>375.4</ele>
        <time>2023-02-19T08:48:49Z</time>
      </trkpt>
      <trkpt lat="45.69821" lon="4.29671">
        <ele>375.3</ele>
        <time>2023-02-19T08:48:51Z</time>
      </trkpt>
      <trkpt lat="45.6982" lon="4.29669">
        <ele>375.3</ele>
        <time>2023-02-19T08:48:52Z</time>
      </trkpt>
      <trkpt lat="45.6982" lon="4.29667">
        <ele>375.2</ele>
        <time>2023-02-19T08:48:53Z</time>
      </trkpt>
      <trkpt lat="45.69819" lon="4.29665">
        <ele>375.2</ele>
        <time>2023-02-19T08:48:54Z</time>
      </trkpt>
      <trkpt lat="45.69819" lon="4.29663">
        <ele>375.2</ele>
        <time>2023-02-19T08:48:55Z</time>
      </trkpt>
      <trkpt lat="45.69818" lon="4.2966">
        <ele>375.1</ele>
        <time>2023-02-19T08:48:56Z</time>
      </trkpt>
      <trkpt lat="45.69818" lon="4.29658">
        <ele>375.1</ele>
        <time>2023-02-19T08:48:58Z</time>
      </trkpt>
      <trkpt lat="45.69818" lon="4.29656">
        <ele>375</ele>
        <time>2023-02-19T08:48:59Z</time>
      </trkpt>
      <trkpt lat="45.69817" lon="4.29654">
        <ele>375</ele>
        <time>2023-02-19T08:49:00Z</time>
      </trkpt>
      <trkpt lat="45.69817" lon="4.29651">
        <ele>374.9</ele>
        <time>2023-02-19T08:49:01Z</time>
      </trkpt>
      <trkpt lat="45.69817" lon="4.29648">
        <ele>374.8</ele>
        <time>2023-02-19T08:49:03Z</time>
      </trkpt>
      <trkpt lat="45.69816" lon="4.29646">
        <ele>374.8</ele>
        <time>2023-02-19T08:49:04Z</time>
      </trkpt>
      <trkpt lat="45.69816" lon="4.29644">
        <ele>374.7</ele>
        <time>2023-02-19T08:49:05Z</time>
      </trkpt>
      <trkpt lat="45.69815" lon="4.29643">
        <ele>374.7</ele>
        <time>2023-02-19T08:49:06Z</time>
      </trkpt>
      <trkpt lat="45.69815" lon="4.29642">
        <ele>374.7</ele>
        <time>2023-02-19T08:49:07Z</time>
      </trkpt>
      <trkpt lat="45.69815" lon="4.2964">
        <ele>374.6</ele>
        <time>2023-02-19T08:49:08Z</time>
      </trkpt>
      <trkpt lat="45.69814" lon="4.29639">
        <ele>374.6</ele>
        <time>2023-02-19T08:49:09Z</time>
      </trkpt>
      <trkpt lat="45.69813" lon="4.29637">
        <ele>374.5</ele>
        <time>2023-02-19T08:49:10Z</time>
      </trkpt>
      <trkpt lat="45.69812" lon="4.29635">
        <ele>374.5</ele>
        <time>2023-02-19T08:49:11Z</time>
      </trkpt>
      <trkpt lat="45.69811" lon="4.29633">
        <ele>374.4</ele>
        <time>2023-02-19T08:49:12Z</time>
      </trkpt>
      <trkpt lat="45.6981" lon="4.29631">
        <ele>374.3</ele>
        <time>2023-02-19T08:49:14Z</time>
      </trkpt>
      <trkpt lat="45.6981" lon="4.29629">
        <ele>374.3</ele>
        <time>2023-02-19T08:49:15Z</time>
      </trkpt>
      <trkpt lat="45.69809" lon="4.29625">
        <ele>374.1</ele>
        <time>2023-02-19T08:49:16Z</time>
      </trkpt>
      <trkpt lat="45.69809" lon="4.29623">
        <ele>374.1</ele>
        <time>2023-02-19T08:49:17Z</time>
      </trkpt>
      <trkpt lat="45.69809" lon="4.2962">
        <ele>374</ele>
        <time>2023-02-19T08:49:18Z</time>
      </trkpt>
      <trkpt lat="45.69808" lon="4.29618">
        <ele>374</ele>
        <time>2023-02-19T08:49:19Z</time>
      </trkpt>
      <trkpt lat="45.69808" lon="4.29614">
        <ele>373.9</ele>
        <time>2023-02-19T08:49:21Z</time>
      </trkpt>
      <trkpt lat="45.69808" lon="4.29612">
        <ele>373.8</ele>
        <time>2023-02-19T08:49:22Z</time>
      </trkpt>
      <trkpt lat="45.69808" lon="4.2961">
        <ele>373.7</ele>
        <time>2023-02-19T08:49:23Z</time>
      </trkpt>
      <trkpt lat="45.69808" lon="4.29607">
        <ele>373.7</ele>
        <time>2023-02-19T08:49:24Z</time>
      </trkpt>
      <trkpt lat="45.69808" lon="4.29605">
        <ele>373.6</ele>
        <time>2023-02-19T08:49:25Z</time>
      </trkpt>
      <trkpt lat="45.69808" lon="4.29603">
        <ele>373.6</ele>
        <time>2023-02-19T08:49:26Z</time>
      </trkpt>
      <trkpt lat="45.69808" lon="4.29602">
        <ele>373.6</ele>
        <time>2023-02-19T08:49:27Z</time>
      </trkpt>
      <trkpt lat="45.69808" lon="4.296">
        <ele>373.5</ele>
        <time>2023-02-19T08:49:28Z</time>
      </trkpt>
      <trkpt lat="45.69808" lon="4.29598">
        <ele>373.5</ele>
        <time>2023-02-19T08:49:29Z</time>
      </trkpt>
      <trkpt lat="45.69807" lon="4.29596">
        <ele>373.5</ele>
        <time>2023-02-19T08:49:31Z</time>
      </trkpt>
      <trkpt lat="45.69807" lon="4.29594">
        <ele>373.4</ele>
        <time>2023-02-19T08:49:32Z</time>
      </trkpt>
      <trkpt lat="45.69807" lon="4.29592">
        <ele>373.4</ele>
        <time>2023-02-19T08:49:33Z</time>
      </trkpt>
      <trkpt lat="45.69806" lon="4.29591">
        <ele>373.4</ele>
        <time>2023-02-19T08:49:34Z</time>
      </trkpt>
      <trkpt lat="45.69807" lon="4.29588">
        <ele>373.3</ele>
        <time>2023-02-19T08:49:35Z</time>
      </trkpt>
      <trkpt lat="45.69807" lon="4.29587">
        <ele>373.3</ele>
        <time>2023-02-19T08:49:36Z</time>
      </trkpt>
      <trkpt lat="45.69807" lon="4.29586">
        <ele>373.3</ele>
        <time>2023-02-19T08:49:37Z</time>
      </trkpt>
      <trkpt lat="45.69807" lon="4.29584">
        <ele>373.3</ele>
        <time>2023-02-19T08:49:38Z</time>
      </trkpt>
      <trkpt lat="45.69807" lon="4.29583">
        <ele>373.2</ele>
        <time>2023-02-19T08:49:39Z</time>
      </trkpt>
      <trkpt lat="45.69807" lon="4.29581">
        <ele>373.2</ele>
        <time>2023-02-19T08:49:40Z</time>
      </trkpt>
      <trkpt lat="45.69807" lon="4.29578">
        <ele>373.2</ele>
        <time>2023-02-19T08:49:41Z</time>
      </trkpt>
      <trkpt lat="45.69806" lon="4.29577">
        <ele>373.1</ele>
        <time>2023-02-19T08:49:43Z</time>
      </trkpt>
      <trkpt lat="45.69806" lon="4.29575">
        <ele>373.1</ele>
        <time>2023-02-19T08:49:44Z</time>
      </trkpt>
      <trkpt lat="45.69805" lon="4.29573">
        <ele>373.1</ele>
        <time>2023-02-19T08:49:45Z</time>
      </trkpt>
      <trkpt lat="45.69804" lon="4.2957">
        <ele>373.1</ele>
        <time>2023-02-19T08:49:47Z</time>
      </trkpt>
      <trkpt lat="45.69804" lon="4.29569">
        <ele>373</ele>
        <time>2023-02-19T08:49:48Z</time>
      </trkpt>
      <trkpt lat="45.69803" lon="4.29567">
        <ele>373</ele>
        <time>2023-02-19T08:49:49Z</time>
      </trkpt>
      <trkpt lat="45.69802" lon="4.29564">
        <ele>373</ele>
        <time>2023-02-19T08:49:50Z</time>
      </trkpt>
      <trkpt lat="45.69802" lon="4.29563">
        <ele>372.9</ele>
        <time>2023-02-19T08:49:51Z</time>
      </trkpt>
      <trkpt lat="45.69801" lon="4.29561">
        <ele>372.9</ele>
        <time>2023-02-19T08:49:52Z</time>
      </trkpt>
      <trkpt lat="45.69801" lon="4.29559">
        <ele>372.9</ele>
        <time>2023-02-19T08:49:53Z</time>
      </trkpt>
      <trkpt lat="45.69801" lon="4.29557">
        <ele>372.9</ele>
        <time>2023-02-19T08:49:54Z</time>
      </trkpt>
      <trkpt lat="45.698" lon="4.29555">
        <ele>372.8</ele>
        <time>2023-02-19T08:49:55Z</time>
      </trkpt>
      <trkpt lat="45.69799" lon="4.29553">
        <ele>372.8</ele>
        <time>2023-02-19T08:49:56Z</time>
      </trkpt>
      <trkpt lat="45.69798" lon="4.2955">
        <ele>372.8</ele>
        <time>2023-02-19T08:49:58Z</time>
      </trkpt>
      <trkpt lat="45.69798" lon="4.29549">
        <ele>372.7</ele>
        <time>2023-02-19T08:49:59Z</time>
      </trkpt>
      <trkpt lat="45.69798" lon="4.29548">
        <ele>372.7</ele>
        <time>2023-02-19T08:50:00Z</time>
      </trkpt>
      <trkpt lat="45.69797" lon="4.29547">
        <ele>372.7</ele>
        <time>2023-02-19T08:50:01Z</time>
      </trkpt>
      <trkpt lat="45.69796" lon="4.29545">
        <ele>372.7</ele>
        <time>2023-02-19T08:50:02Z</time>
      </trkpt>
      <trkpt lat="45.69795" lon="4.29542">
        <ele>372.6</ele>
        <time>2023-02-19T08:50:04Z</time>
      </trkpt>
      <trkpt lat="45.69794" lon="4.2954">
        <ele>372.6</ele>
        <time>2023-02-19T08:50:05Z</time>
      </trkpt>
      <trkpt lat="45.69793" lon="4.29539">
        <ele>372.6</ele>
        <time>2023-02-19T08:50:06Z</time>
      </trkpt>
      <trkpt lat="45.69793" lon="4.29538">
        <ele>372.5</ele>
        <time>2023-02-19T08:50:07Z</time>
      </trkpt>
      <trkpt lat="45.69792" lon="4.29536">
        <ele>372.5</ele>
        <time>2023-02-19T08:50:08Z</time>
      </trkpt>
      <trkpt lat="45.69791" lon="4.29534">
        <ele>372.5</ele>
        <time>2023-02-19T08:50:09Z</time>
      </trkpt>
      <trkpt lat="45.6979" lon="4.29533">
        <ele>372.4</ele>
        <time>2023-02-19T08:50:10Z</time>
      </trkpt>
      <trkpt lat="45.69789" lon="4.29531">
        <ele>372.4</ele>
        <time>2023-02-19T08:50:11Z</time>
      </trkpt>
      <trkpt lat="45.69788" lon="4.29529">
        <ele>372.4</ele>
        <time>2023-02-19T08:50:12Z</time>
      </trkpt>
      <trkpt lat="45.69788" lon="4.29527">
        <ele>372.3</ele>
        <time>2023-02-19T08:50:13Z</time>
      </trkpt>
      <trkpt lat="45.69787" lon="4.29526">
        <ele>372.3</ele>
        <time>2023-02-19T08:50:15Z</time>
      </trkpt>
      <trkpt lat="45.69787" lon="4.29523">
        <ele>372.3</ele>
        <time>2023-02-19T08:50:16Z</time>
      </trkpt>
      <trkpt lat="45.69786" lon="4.29521">
        <ele>372.3</ele>
        <time>2023-02-19T08:50:17Z</time>
      </trkpt>
      <trkpt lat="45.69786" lon="4.29519">
        <ele>372.2</ele>
        <time>2023-02-19T08:50:18Z</time>
      </trkpt>
      <trkpt lat="45.69785" lon="4.29517">
        <ele>372.2</ele>
        <time>2023-02-19T08:50:19Z</time>
      </trkpt>
      <trkpt lat="45.69784" lon="4.29515">
        <ele>372.2</ele>
        <time>2023-02-19T08:50:20Z</time>
      </trkpt>
      <trkpt lat="45.69784" lon="4.29513">
        <ele>372.2</ele>
        <time>2023-02-19T08:50:21Z</time>
      </trkpt>
      <trkpt lat="45.69783" lon="4.2951">
        <ele>372.2</ele>
        <time>2023-02-19T08:50:22Z</time>
      </trkpt>
      <trkpt lat="45.69783" lon="4.29509">
        <ele>372.1</ele>
        <time>2023-02-19T08:50:23Z</time>
      </trkpt>
      <trkpt lat="45.69782" lon="4.29507">
        <ele>372.1</ele>
        <time>2023-02-19T08:50:24Z</time>
      </trkpt>
      <trkpt lat="45.69781" lon="4.29502">
        <ele>372.1</ele>
        <time>2023-02-19T08:50:26Z</time>
      </trkpt>
      <trkpt lat="45.6978" lon="4.29501">
        <ele>372.1</ele>
        <time>2023-02-19T08:50:27Z</time>
      </trkpt>
      <trkpt lat="45.6978" lon="4.29498">
        <ele>372</ele>
        <time>2023-02-19T08:50:28Z</time>
      </trkpt>
      <trkpt lat="45.69779" lon="4.29496">
        <ele>372</ele>
        <time>2023-02-19T08:50:29Z</time>
      </trkpt>
      <trkpt lat="45.69779" lon="4.29494">
        <ele>372</ele>
        <time>2023-02-19T08:50:31Z</time>
      </trkpt>
      <trkpt lat="45.69778" lon="4.29492">
        <ele>371.9</ele>
        <time>2023-02-19T08:50:32Z</time>
      </trkpt>
      <trkpt lat="45.69778" lon="4.2949">
        <ele>371.9</ele>
        <time>2023-02-19T08:50:33Z</time>
      </trkpt>
      <trkpt lat="45.69777" lon="4.29488">
        <ele>371.8</ele>
        <time>2023-02-19T08:50:34Z</time>
      </trkpt>
      <trkpt lat="45.69777" lon="4.29486">
        <ele>371.8</ele>
        <time>2023-02-19T08:50:35Z</time>
      </trkpt>
      <trkpt lat="45.69776" lon="4.29484">
        <ele>371.8</ele>
        <time>2023-02-19T08:50:36Z</time>
      </trkpt>
      <trkpt lat="45.69776" lon="4.29482">
        <ele>371.7</ele>
        <time>2023-02-19T08:50:37Z</time>
      </trkpt>
      <trkpt lat="45.69776" lon="4.29479">
        <ele>371.7</ele>
        <time>2023-02-19T08:50:38Z</time>
      </trkpt>
      <trkpt lat="45.69776" lon="4.29476">
        <ele>371.7</ele>
        <time>2023-02-19T08:50:39Z</time>
      </trkpt>
      <trkpt lat="45.69776" lon="4.29474">
        <ele>371.6</ele>
        <time>2023-02-19T08:50:40Z</time>
      </trkpt>
      <trkpt lat="45.69776" lon="4.2947">
        <ele>371.6</ele>
        <time>2023-02-19T08:50:41Z</time>
      </trkpt>
      <trkpt lat="45.69776" lon="4.29469">
        <ele>371.6</ele>
        <time>2023-02-19T08:50:42Z</time>
      </trkpt>
      <trkpt lat="45.69776" lon="4.29464">
        <ele>371.5</ele>
        <time>2023-02-19T08:50:44Z</time>
      </trkpt>
      <trkpt lat="45.69776" lon="4.29463">
        <ele>371.5</ele>
        <time>2023-02-19T08:50:45Z</time>
      </trkpt>
      <trkpt lat="45.69776" lon="4.29459">
        <ele>371.5</ele>
        <time>2023-02-19T08:50:46Z</time>
      </trkpt>
      <trkpt lat="45.69776" lon="4.29458">
        <ele>371.5</ele>
        <time>2023-02-19T08:50:47Z</time>
      </trkpt>
      <trkpt lat="45.69775" lon="4.29455">
        <ele>371.4</ele>
        <time>2023-02-19T08:50:48Z</time>
      </trkpt>
      <trkpt lat="45.69776" lon="4.29453">
        <ele>371.4</ele>
        <time>2023-02-19T08:50:49Z</time>
      </trkpt>
      <trkpt lat="45.69776" lon="4.29448">
        <ele>371.4</ele>
        <time>2023-02-19T08:50:51Z</time>
      </trkpt>
      <trkpt lat="45.69776" lon="4.29447">
        <ele>371.4</ele>
        <time>2023-02-19T08:50:52Z</time>
      </trkpt>
      <trkpt lat="45.69776" lon="4.29444">
        <ele>371.4</ele>
        <time>2023-02-19T08:50:53Z</time>
      </trkpt>
      <trkpt lat="45.69776" lon="4.29443">
        <ele>371.4</ele>
        <time>2023-02-19T08:50:54Z</time>
      </trkpt>
      <trkpt lat="45.69776" lon="4.29441">
        <ele>371.4</ele>
        <time>2023-02-19T08:50:55Z</time>
      </trkpt>
      <trkpt lat="45.69776" lon="4.29439">
        <ele>371.3</ele>
        <time>2023-02-19T08:50:56Z</time>
      </trkpt>
      <trkpt lat="45.69776" lon="4.29437">
        <ele>371.3</ele>
        <time>2023-02-19T08:50:57Z</time>
      </trkpt>
      <trkpt lat="45.69776" lon="4.29434">
        <ele>371.3</ele>
        <time>2023-02-19T08:50:59Z</time>
      </trkpt>
      <trkpt lat="45.69775" lon="4.29432">
        <ele>371.3</ele>
        <time>2023-02-19T08:51:00Z</time>
      </trkpt>
      <trkpt lat="45.69775" lon="4.2943">
        <ele>371.3</ele>
        <time>2023-02-19T08:51:01Z</time>
      </trkpt>
      <trkpt lat="45.69775" lon="4.29428">
        <ele>371.3</ele>
        <time>2023-02-19T08:51:02Z</time>
      </trkpt>
      <trkpt lat="45.69775" lon="4.29425">
        <ele>371.2</ele>
        <time>2023-02-19T08:51:03Z</time>
      </trkpt>
      <trkpt lat="45.69775" lon="4.29423">
        <ele>371.2</ele>
        <time>2023-02-19T08:51:04Z</time>
      </trkpt>
      <trkpt lat="45.69774" lon="4.29421">
        <ele>371.2</ele>
        <time>2023-02-19T08:51:05Z</time>
      </trkpt>
      <trkpt lat="45.69774" lon="4.29419">
        <ele>371.2</ele>
        <time>2023-02-19T08:51:06Z</time>
      </trkpt>
      <trkpt lat="45.69774" lon="4.29417">
        <ele>371.1</ele>
        <time>2023-02-19T08:51:07Z</time>
      </trkpt>
      <trkpt lat="45.69774" lon="4.29415">
        <ele>371.1</ele>
        <time>2023-02-19T08:51:08Z</time>
      </trkpt>
      <trkpt lat="45.69774" lon="4.29412">
        <ele>371.1</ele>
        <time>2023-02-19T08:51:09Z</time>
      </trkpt>
      <trkpt lat="45.69774" lon="4.2941">
        <ele>371</ele>
        <time>2023-02-19T08:51:10Z</time>
      </trkpt>
      <trkpt lat="45.69774" lon="4.29408">
        <ele>371</ele>
        <time>2023-02-19T08:51:12Z</time>
      </trkpt>
      <trkpt lat="45.69774" lon="4.29406">
        <ele>370.9</ele>
        <time>2023-02-19T08:51:13Z</time>
      </trkpt>
      <trkpt lat="45.69774" lon="4.29404">
        <ele>370.9</ele>
        <time>2023-02-19T08:51:14Z</time>
      </trkpt>
      <trkpt lat="45.69774" lon="4.29402">
        <ele>370.8</ele>
        <time>2023-02-19T08:51:15Z</time>
      </trkpt>
      <trkpt lat="45.69773" lon="4.29399">
        <ele>370.8</ele>
        <time>2023-02-19T08:51:16Z</time>
      </trkpt>
      <trkpt lat="45.69773" lon="4.29398">
        <ele>370.8</ele>
        <time>2023-02-19T08:51:17Z</time>
      </trkpt>
      <trkpt lat="45.69773" lon="4.29397">
        <ele>370.7</ele>
        <time>2023-02-19T08:51:18Z</time>
      </trkpt>
      <trkpt lat="45.69773" lon="4.29394">
        <ele>370.7</ele>
        <time>2023-02-19T08:51:19Z</time>
      </trkpt>
      <trkpt lat="45.69772" lon="4.29393">
        <ele>370.6</ele>
        <time>2023-02-19T08:51:20Z</time>
      </trkpt>
      <trkpt lat="45.69772" lon="4.29392">
        <ele>370.6</ele>
        <time>2023-02-19T08:51:21Z</time>
      </trkpt>
      <trkpt lat="45.69771" lon="4.29389">
        <ele>370.6</ele>
        <time>2023-02-19T08:51:23Z</time>
      </trkpt>
      <trkpt lat="45.69771" lon="4.29388">
        <ele>370.5</ele>
        <time>2023-02-19T08:51:24Z</time>
      </trkpt>
      <trkpt lat="45.6977" lon="4.29386">
        <ele>370.5</ele>
        <time>2023-02-19T08:51:25Z</time>
      </trkpt>
      <trkpt lat="45.6977" lon="4.29385">
        <ele>370.5</ele>
        <time>2023-02-19T08:51:26Z</time>
      </trkpt>
      <trkpt lat="45.69769" lon="4.29384">
        <ele>370.5</ele>
        <time>2023-02-19T08:51:27Z</time>
      </trkpt>
      <trkpt lat="45.69769" lon="4.29382">
        <ele>370.4</ele>
        <time>2023-02-19T08:51:28Z</time>
      </trkpt>
      <trkpt lat="45.69768" lon="4.2938">
        <ele>370.4</ele>
        <time>2023-02-19T08:51:29Z</time>
      </trkpt>
      <trkpt lat="45.69768" lon="4.29378">
        <ele>370.4</ele>
        <time>2023-02-19T08:51:31Z</time>
      </trkpt>
      <trkpt lat="45.69768" lon="4.29377">
        <ele>370.3</ele>
        <time>2023-02-19T08:51:32Z</time>
      </trkpt>
      <trkpt lat="45.69768" lon="4.29375">
        <ele>370.3</ele>
        <time>2023-02-19T08:51:33Z</time>
      </trkpt>
      <trkpt lat="45.69768" lon="4.29374">
        <ele>370.3</ele>
        <time>2023-02-19T08:51:34Z</time>
      </trkpt>
      <trkpt lat="45.69767" lon="4.29372">
        <ele>370.3</ele>
        <time>2023-02-19T08:51:35Z</time>
      </trkpt>
      <trkpt lat="45.69767" lon="4.29369">
        <ele>370.2</ele>
        <time>2023-02-19T08:51:37Z</time>
      </trkpt>
      <trkpt lat="45.69768" lon="4.29367">
        <ele>370.2</ele>
        <time>2023-02-19T08:51:38Z</time>
      </trkpt>
      <trkpt lat="45.69768" lon="4.29365">
        <ele>370.2</ele>
        <time>2023-02-19T08:51:39Z</time>
      </trkpt>
      <trkpt lat="45.69768" lon="4.29363">
        <ele>370.1</ele>
        <time>2023-02-19T08:51:41Z</time>
      </trkpt>
      <trkpt lat="45.69769" lon="4.29361">
        <ele>370.1</ele>
        <time>2023-02-19T08:51:42Z</time>
      </trkpt>
      <trkpt lat="45.69769" lon="4.29358">
        <ele>370.1</ele>
        <time>2023-02-19T08:51:43Z</time>
      </trkpt>
      <trkpt lat="45.69769" lon="4.29355">
        <ele>370</ele>
        <time>2023-02-19T08:51:44Z</time>
      </trkpt>
      <trkpt lat="45.69769" lon="4.29354">
        <ele>370</ele>
        <time>2023-02-19T08:51:45Z</time>
      </trkpt>
      <trkpt lat="45.69769" lon="4.29353">
        <ele>370</ele>
        <time>2023-02-19T08:51:46Z</time>
      </trkpt>
      <trkpt lat="45.69769" lon="4.29352">
        <ele>370</ele>
        <time>2023-02-19T08:51:47Z</time>
      </trkpt>
      <trkpt lat="45.6977" lon="4.2935">
        <ele>370</ele>
        <time>2023-02-19T08:51:48Z</time>
      </trkpt>
      <trkpt lat="45.6977" lon="4.29348">
        <ele>370</ele>
        <time>2023-02-19T08:51:49Z</time>
      </trkpt>
      <trkpt lat="45.69771" lon="4.29346">
        <ele>370</ele>
        <time>2023-02-19T08:51:51Z</time>
      </trkpt>
      <trkpt lat="45.69771" lon="4.29344">
        <ele>369.9</ele>
        <time>2023-02-19T08:51:52Z</time>
      </trkpt>
      <trkpt lat="45.69771" lon="4.2934">
        <ele>369.9</ele>
        <time>2023-02-19T08:51:53Z</time>
      </trkpt>
      <trkpt lat="45.69771" lon="4.29338">
        <ele>369.9</ele>
        <time>2023-02-19T08:51:54Z</time>
      </trkpt>
      <trkpt lat="45.69771" lon="4.29334">
        <ele>369.9</ele>
        <time>2023-02-19T08:51:55Z</time>
      </trkpt>
      <trkpt lat="45.69771" lon="4.29333">
        <ele>369.8</ele>
        <time>2023-02-19T08:51:56Z</time>
      </trkpt>
      <trkpt lat="45.69771" lon="4.2933">
        <ele>369.8</ele>
        <time>2023-02-19T08:51:57Z</time>
      </trkpt>
      <trkpt lat="45.69771" lon="4.29328">
        <ele>369.8</ele>
        <time>2023-02-19T08:51:58Z</time>
      </trkpt>
      <trkpt lat="45.69771" lon="4.29325">
        <ele>369.8</ele>
        <time>2023-02-19T08:51:59Z</time>
      </trkpt>
      <trkpt lat="45.69771" lon="4.29323">
        <ele>369.7</ele>
        <time>2023-02-19T08:52:00Z</time>
      </trkpt>
      <trkpt lat="45.69771" lon="4.29321">
        <ele>369.7</ele>
        <time>2023-02-19T08:52:01Z</time>
      </trkpt>
      <trkpt lat="45.69771" lon="4.29318">
        <ele>369.7</ele>
        <time>2023-02-19T08:52:03Z</time>
      </trkpt>
      <trkpt lat="45.69772" lon="4.29316">
        <ele>369.7</ele>
        <time>2023-02-19T08:52:04Z</time>
      </trkpt>
      <trkpt lat="45.69772" lon="4.29314">
        <ele>369.6</ele>
        <time>2023-02-19T08:52:05Z</time>
      </trkpt>
      <trkpt lat="45.69773" lon="4.29312">
        <ele>369.6</ele>
        <time>2023-02-19T08:52:06Z</time>
      </trkpt>
      <trkpt lat="45.69774" lon="4.29309">
        <ele>369.5</ele>
        <time>2023-02-19T08:52:08Z</time>
      </trkpt>
      <trkpt lat="45.69775" lon="4.29307">
        <ele>369.5</ele>
        <time>2023-02-19T08:52:09Z</time>
      </trkpt>
      <trkpt lat="45.69776" lon="4.29306">
        <ele>369.4</ele>
        <time>2023-02-19T08:52:10Z</time>
      </trkpt>
      <trkpt lat="45.69777" lon="4.29304">
        <ele>369.4</ele>
        <time>2023-02-19T08:52:11Z</time>
      </trkpt>
      <trkpt lat="45.69777" lon="4.29301">
        <ele>369.3</ele>
        <time>2023-02-19T08:52:13Z</time>
      </trkpt>
      <trkpt lat="45.69778" lon="4.293">
        <ele>369.3</ele>
        <time>2023-02-19T08:52:14Z</time>
      </trkpt>
      <trkpt lat="45.69779" lon="4.29298">
        <ele>369.3</ele>
        <time>2023-02-19T08:52:15Z</time>
      </trkpt>
      <trkpt lat="45.69779" lon="4.29297">
        <ele>369.2</ele>
        <time>2023-02-19T08:52:16Z</time>
      </trkpt>
      <trkpt lat="45.69781" lon="4.29295">
        <ele>369.1</ele>
        <time>2023-02-19T08:52:17Z</time>
      </trkpt>
      <trkpt lat="45.69782" lon="4.29294">
        <ele>369.1</ele>
        <time>2023-02-19T08:52:18Z</time>
      </trkpt>
      <trkpt lat="45.69782" lon="4.29293">
        <ele>369.1</ele>
        <time>2023-02-19T08:52:19Z</time>
      </trkpt>
      <trkpt lat="45.69784" lon="4.29292">
        <ele>369</ele>
        <time>2023-02-19T08:52:20Z</time>
      </trkpt>
      <trkpt lat="45.69785" lon="4.29289">
        <ele>369</ele>
        <time>2023-02-19T08:52:22Z</time>
      </trkpt>
      <trkpt lat="45.69786" lon="4.29285">
        <ele>368.9</ele>
        <time>2023-02-19T08:52:23Z</time>
      </trkpt>
      <trkpt lat="45.69786" lon="4.29284">
        <ele>368.9</ele>
        <time>2023-02-19T08:52:24Z</time>
      </trkpt>
      <trkpt lat="45.69788" lon="4.2928">
        <ele>368.8</ele>
        <time>2023-02-19T08:52:26Z</time>
      </trkpt>
      <trkpt lat="45.69789" lon="4.29279">
        <ele>368.8</ele>
        <time>2023-02-19T08:52:27Z</time>
      </trkpt>
      <trkpt lat="45.6979" lon="4.29277">
        <ele>368.8</ele>
        <time>2023-02-19T08:52:28Z</time>
      </trkpt>
      <trkpt lat="45.69791" lon="4.29276">
        <ele>368.7</ele>
        <time>2023-02-19T08:52:29Z</time>
      </trkpt>
      <trkpt lat="45.69793" lon="4.29274">
        <ele>368.7</ele>
        <time>2023-02-19T08:52:31Z</time>
      </trkpt>
      <trkpt lat="45.69794" lon="4.29273">
        <ele>368.7</ele>
        <time>2023-02-19T08:52:32Z</time>
      </trkpt>
      <trkpt lat="45.69795" lon="4.29272">
        <ele>368.7</ele>
        <time>2023-02-19T08:52:33Z</time>
      </trkpt>
      <trkpt lat="45.69796" lon="4.29271">
        <ele>368.7</ele>
        <time>2023-02-19T08:52:34Z</time>
      </trkpt>
      <trkpt lat="45.69796" lon="4.29271">
        <ele>368.6</ele>
        <time>2023-02-19T08:52:35Z</time>
      </trkpt>
      <trkpt lat="45.69796" lon="4.2927">
        <ele>368.6</ele>
        <time>2023-02-19T08:52:37Z</time>
      </trkpt>
      <trkpt lat="45.69796" lon="4.29268">
        <ele>368.6</ele>
        <time>2023-02-19T08:52:38Z</time>
      </trkpt>
      <trkpt lat="45.69796" lon="4.29266">
        <ele>368.6</ele>
        <time>2023-02-19T08:52:39Z</time>
      </trkpt>
      <trkpt lat="45.69798" lon="4.29262">
        <ele>368.6</ele>
        <time>2023-02-19T08:52:41Z</time>
      </trkpt>
      <trkpt lat="45.69798" lon="4.29261">
        <ele>368.6</ele>
        <time>2023-02-19T08:52:42Z</time>
      </trkpt>
      <trkpt lat="45.69799" lon="4.29259">
        <ele>368.5</ele>
        <time>2023-02-19T08:52:43Z</time>
      </trkpt>
      <trkpt lat="45.698" lon="4.29257">
        <ele>368.5</ele>
        <time>2023-02-19T08:52:44Z</time>
      </trkpt>
      <trkpt lat="45.69801" lon="4.29255">
        <ele>368.5</ele>
        <time>2023-02-19T08:52:45Z</time>
      </trkpt>
      <trkpt lat="45.69801" lon="4.29252">
        <ele>368.5</ele>
        <time>2023-02-19T08:52:47Z</time>
      </trkpt>
      <trkpt lat="45.69802" lon="4.29251">
        <ele>368.5</ele>
        <time>2023-02-19T08:52:48Z</time>
      </trkpt>
      <trkpt lat="45.69803" lon="4.29249">
        <ele>368.5</ele>
        <time>2023-02-19T08:52:49Z</time>
      </trkpt>
      <trkpt lat="45.69804" lon="4.29246">
        <ele>368.4</ele>
        <time>2023-02-19T08:52:50Z</time>
      </trkpt>
      <trkpt lat="45.69805" lon="4.29245">
        <ele>368.4</ele>
        <time>2023-02-19T08:52:51Z</time>
      </trkpt>
      <trkpt lat="45.69806" lon="4.29244">
        <ele>368.4</ele>
        <time>2023-02-19T08:52:52Z</time>
      </trkpt>
      <trkpt lat="45.69807" lon="4.29244">
        <ele>368.4</ele>
        <time>2023-02-19T08:52:53Z</time>
      </trkpt>
      <trkpt lat="45.69809" lon="4.29242">
        <ele>368.3</ele>
        <time>2023-02-19T08:52:55Z</time>
      </trkpt>
      <trkpt lat="45.69811" lon="4.2924">
        <ele>368.3</ele>
        <time>2023-02-19T08:52:56Z</time>
      </trkpt>
      <trkpt lat="45.69812" lon="4.29239">
        <ele>368.3</ele>
        <time>2023-02-19T08:52:57Z</time>
      </trkpt>
      <trkpt lat="45.69814" lon="4.29238">
        <ele>368.3</ele>
        <time>2023-02-19T08:52:58Z</time>
      </trkpt>
      <trkpt lat="45.69815" lon="4.29237">
        <ele>368.3</ele>
        <time>2023-02-19T08:52:59Z</time>
      </trkpt>
      <trkpt lat="45.69816" lon="4.29235">
        <ele>368.2</ele>
        <time>2023-02-19T08:53:01Z</time>
      </trkpt>
      <trkpt lat="45.69817" lon="4.29234">
        <ele>368.2</ele>
        <time>2023-02-19T08:53:02Z</time>
      </trkpt>
      <trkpt lat="45.69818" lon="4.29232">
        <ele>368.2</ele>
        <time>2023-02-19T08:53:03Z</time>
      </trkpt>
      <trkpt lat="45.69819" lon="4.29231">
        <ele>368.2</ele>
        <time>2023-02-19T08:53:04Z</time>
      </trkpt>
      <trkpt lat="45.6982" lon="4.2923">
        <ele>368.2</ele>
        <time>2023-02-19T08:53:05Z</time>
      </trkpt>
      <trkpt lat="45.69821" lon="4.29228">
        <ele>368.2</ele>
        <time>2023-02-19T08:53:06Z</time>
      </trkpt>
      <trkpt lat="45.69821" lon="4.29228">
        <ele>368.1</ele>
        <time>2023-02-19T08:53:07Z</time>
      </trkpt>
      <trkpt lat="45.69822" lon="4.29226">
        <ele>368.1</ele>
        <time>2023-02-19T08:53:08Z</time>
      </trkpt>
      <trkpt lat="45.69822" lon="4.29225">
        <ele>368.1</ele>
        <time>2023-02-19T08:53:09Z</time>
      </trkpt>
      <trkpt lat="45.69823" lon="4.29224">
        <ele>368.1</ele>
        <time>2023-02-19T08:53:10Z</time>
      </trkpt>
      <trkpt lat="45.69823" lon="4.29223">
        <ele>368.1</ele>
        <time>2023-02-19T08:53:12Z</time>
      </trkpt>
      <trkpt lat="45.69824" lon="4.29222">
        <ele>368.1</ele>
        <time>2023-02-19T08:53:13Z</time>
      </trkpt>
      <trkpt lat="45.69824" lon="4.2922">
        <ele>368.1</ele>
        <time>2023-02-19T08:53:14Z</time>
      </trkpt>
      <trkpt lat="45.69825" lon="4.29218">
        <ele>368.1</ele>
        <time>2023-02-19T08:53:15Z</time>
      </trkpt>
      <trkpt lat="45.69826" lon="4.29217">
        <ele>368</ele>
        <time>2023-02-19T08:53:16Z</time>
      </trkpt>
      <trkpt lat="45.69826" lon="4.29215">
        <ele>368</ele>
        <time>2023-02-19T08:53:17Z</time>
      </trkpt>
      <trkpt lat="45.69827" lon="4.29212">
        <ele>368</ele>
        <time>2023-02-19T08:53:18Z</time>
      </trkpt>
      <trkpt lat="45.69829" lon="4.29208">
        <ele>368</ele>
        <time>2023-02-19T08:53:20Z</time>
      </trkpt>
      <trkpt lat="45.6983" lon="4.29207">
        <ele>368</ele>
        <time>2023-02-19T08:53:21Z</time>
      </trkpt>
      <trkpt lat="45.6983" lon="4.29205">
        <ele>368</ele>
        <time>2023-02-19T08:53:22Z</time>
      </trkpt>
      <trkpt lat="45.69831" lon="4.29203">
        <ele>368</ele>
        <time>2023-02-19T08:53:23Z</time>
      </trkpt>
      <trkpt lat="45.69834" lon="4.29197">
        <ele>368</ele>
        <time>2023-02-19T08:53:25Z</time>
      </trkpt>
      <trkpt lat="45.69834" lon="4.29196">
        <ele>368</ele>
        <time>2023-02-19T08:53:27Z</time>
      </trkpt>
      <trkpt lat="45.69835" lon="4.29194">
        <ele>368</ele>
        <time>2023-02-19T08:53:28Z</time>
      </trkpt>
      <trkpt lat="45.69835" lon="4.29192">
        <ele>368</ele>
        <time>2023-02-19T08:53:29Z</time>
      </trkpt>
      <trkpt lat="45.69836" lon="4.2919">
        <ele>368</ele>
        <time>2023-02-19T08:53:30Z</time>
      </trkpt>
      <trkpt lat="45.69836" lon="4.29187">
        <ele>368</ele>
        <time>2023-02-19T08:53:31Z</time>
      </trkpt>
      <trkpt lat="45.69836" lon="4.29185">
        <ele>368</ele>
        <time>2023-02-19T08:53:32Z</time>
      </trkpt>
      <trkpt lat="45.69836" lon="4.29183">
        <ele>368</ele>
        <time>2023-02-19T08:53:33Z</time>
      </trkpt>
      <trkpt lat="45.69835" lon="4.29182">
        <ele>368</ele>
        <time>2023-02-19T08:53:34Z</time>
      </trkpt>
      <trkpt lat="45.69834" lon="4.29181">
        <ele>368</ele>
        <time>2023-02-19T08:53:35Z</time>
      </trkpt>
      <trkpt lat="45.69833" lon="4.29181">
        <ele>367.9</ele>
        <time>2023-02-19T08:53:37Z</time>
      </trkpt>
      <trkpt lat="45.69833" lon="4.2918">
        <ele>367.9</ele>
        <time>2023-02-19T08:53:38Z</time>
      </trkpt>
      <trkpt lat="45.69832" lon="4.29179">
        <ele>367.9</ele>
        <time>2023-02-19T08:53:39Z</time>
      </trkpt>
      <trkpt lat="45.6983" lon="4.29177">
        <ele>367.9</ele>
        <time>2023-02-19T08:53:40Z</time>
      </trkpt>
      <trkpt lat="45.6983" lon="4.29176">
        <ele>367.8</ele>
        <time>2023-02-19T08:53:41Z</time>
      </trkpt>
      <trkpt lat="45.69829" lon="4.29176">
        <ele>367.8</ele>
        <time>2023-02-19T08:53:42Z</time>
      </trkpt>
      <trkpt lat="45.69828" lon="4.29174">
        <ele>367.8</ele>
        <time>2023-02-19T08:53:43Z</time>
      </trkpt>
      <trkpt lat="45.69826" lon="4.29172">
        <ele>367.8</ele>
        <time>2023-02-19T08:53:44Z</time>
      </trkpt>
      <trkpt lat="45.69825" lon="4.29171">
        <ele>367.7</ele>
        <time>2023-02-19T08:53:45Z</time>
      </trkpt>
      <trkpt lat="45.69824" lon="4.2917">
        <ele>367.7</ele>
        <time>2023-02-19T08:53:46Z</time>
      </trkpt>
      <trkpt lat="45.69823" lon="4.29168">
        <ele>367.7</ele>
        <time>2023-02-19T08:53:47Z</time>
      </trkpt>
      <trkpt lat="45.69821" lon="4.29167">
        <ele>367.6</ele>
        <time>2023-02-19T08:53:49Z</time>
      </trkpt>
      <trkpt lat="45.6982" lon="4.29166">
        <ele>367.6</ele>
        <time>2023-02-19T08:53:50Z</time>
      </trkpt>
      <trkpt lat="45.69818" lon="4.29165">
        <ele>367.6</ele>
        <time>2023-02-19T08:53:51Z</time>
      </trkpt>
      <trkpt lat="45.69817" lon="4.29163">
        <ele>367.6</ele>
        <time>2023-02-19T08:53:52Z</time>
      </trkpt>
      <trkpt lat="45.69815" lon="4.29162">
        <ele>367.5</ele>
        <time>2023-02-19T08:53:53Z</time>
      </trkpt>
      <trkpt lat="45.69814" lon="4.29162">
        <ele>367.5</ele>
        <time>2023-02-19T08:53:54Z</time>
      </trkpt>
      <trkpt lat="45.69812" lon="4.29161">
        <ele>367.5</ele>
        <time>2023-02-19T08:53:55Z</time>
      </trkpt>
      <trkpt lat="45.69809" lon="4.29159">
        <ele>367.5</ele>
        <time>2023-02-19T08:53:57Z</time>
      </trkpt>
      <trkpt lat="45.69808" lon="4.29159">
        <ele>367.5</ele>
        <time>2023-02-19T08:53:58Z</time>
      </trkpt>
      <trkpt lat="45.69807" lon="4.29158">
        <ele>367.5</ele>
        <time>2023-02-19T08:53:59Z</time>
      </trkpt>
      <trkpt lat="45.69805" lon="4.29158">
        <ele>367.5</ele>
        <time>2023-02-19T08:54:00Z</time>
      </trkpt>
      <trkpt lat="45.69803" lon="4.29157">
        <ele>367.5</ele>
        <time>2023-02-19T08:54:01Z</time>
      </trkpt>
      <trkpt lat="45.69802" lon="4.29157">
        <ele>367.4</ele>
        <time>2023-02-19T08:54:02Z</time>
      </trkpt>
      <trkpt lat="45.698" lon="4.29156">
        <ele>367.4</ele>
        <time>2023-02-19T08:54:03Z</time>
      </trkpt>
      <trkpt lat="45.69798" lon="4.29156">
        <ele>367.4</ele>
        <time>2023-02-19T08:54:05Z</time>
      </trkpt>
      <trkpt lat="45.69796" lon="4.29155">
        <ele>367.4</ele>
        <time>2023-02-19T08:54:06Z</time>
      </trkpt>
      <trkpt lat="45.69795" lon="4.29155">
        <ele>367.4</ele>
        <time>2023-02-19T08:54:07Z</time>
      </trkpt>
      <trkpt lat="45.69792" lon="4.29153">
        <ele>367.4</ele>
        <time>2023-02-19T08:54:08Z</time>
      </trkpt>
      <trkpt lat="45.69791" lon="4.29153">
        <ele>367.4</ele>
        <time>2023-02-19T08:54:09Z</time>
      </trkpt>
      <trkpt lat="45.6979" lon="4.29152">
        <ele>367.4</ele>
        <time>2023-02-19T08:54:10Z</time>
      </trkpt>
      <trkpt lat="45.69788" lon="4.29151">
        <ele>367.4</ele>
        <time>2023-02-19T08:54:11Z</time>
      </trkpt>
      <trkpt lat="45.69786" lon="4.29151">
        <ele>367.4</ele>
        <time>2023-02-19T08:54:12Z</time>
      </trkpt>
      <trkpt lat="45.69784" lon="4.2915">
        <ele>367.4</ele>
        <time>2023-02-19T08:54:13Z</time>
      </trkpt>
      <trkpt lat="45.69783" lon="4.29149">
        <ele>367.4</ele>
        <time>2023-02-19T08:54:15Z</time>
      </trkpt>
      <trkpt lat="45.69781" lon="4.29147">
        <ele>367.4</ele>
        <time>2023-02-19T08:54:16Z</time>
      </trkpt>
      <trkpt lat="45.69779" lon="4.29146">
        <ele>367.4</ele>
        <time>2023-02-19T08:54:17Z</time>
      </trkpt>
      <trkpt lat="45.69778" lon="4.29145">
        <ele>367.4</ele>
        <time>2023-02-19T08:54:19Z</time>
      </trkpt>
      <trkpt lat="45.69776" lon="4.29144">
        <ele>367.4</ele>
        <time>2023-02-19T08:54:20Z</time>
      </trkpt>
      <trkpt lat="45.69775" lon="4.29143">
        <ele>367.4</ele>
        <time>2023-02-19T08:54:21Z</time>
      </trkpt>
      <trkpt lat="45.69774" lon="4.29142">
        <ele>367.5</ele>
        <time>2023-02-19T08:54:22Z</time>
      </trkpt>
      <trkpt lat="45.69772" lon="4.29141">
        <ele>367.5</ele>
        <time>2023-02-19T08:54:23Z</time>
      </trkpt>
      <trkpt lat="45.69771" lon="4.2914">
        <ele>367.5</ele>
        <time>2023-02-19T08:54:24Z</time>
      </trkpt>
      <trkpt lat="45.69769" lon="4.29139">
        <ele>367.5</ele>
        <time>2023-02-19T08:54:25Z</time>
      </trkpt>
      <trkpt lat="45.69768" lon="4.29139">
        <ele>367.5</ele>
        <time>2023-02-19T08:54:26Z</time>
      </trkpt>
      <trkpt lat="45.69766" lon="4.29138">
        <ele>367.5</ele>
        <time>2023-02-19T08:54:27Z</time>
      </trkpt>
      <trkpt lat="45.69764" lon="4.29137">
        <ele>367.5</ele>
        <time>2023-02-19T08:54:28Z</time>
      </trkpt>
      <trkpt lat="45.69763" lon="4.29137">
        <ele>367.5</ele>
        <time>2023-02-19T08:54:29Z</time>
      </trkpt>
      <trkpt lat="45.69761" lon="4.29136">
        <ele>367.5</ele>
        <time>2023-02-19T08:54:31Z</time>
      </trkpt>
      <trkpt lat="45.69759" lon="4.29136">
        <ele>367.5</ele>
        <time>2023-02-19T08:54:32Z</time>
      </trkpt>
      <trkpt lat="45.69757" lon="4.29135">
        <ele>367.5</ele>
        <time>2023-02-19T08:54:33Z</time>
      </trkpt>
      <trkpt lat="45.69756" lon="4.29135">
        <ele>367.5</ele>
        <time>2023-02-19T08:54:34Z</time>
      </trkpt>
      <trkpt lat="45.69754" lon="4.29134">
        <ele>367.5</ele>
        <time>2023-02-19T08:54:36Z</time>
      </trkpt>
      <trkpt lat="45.69753" lon="4.29134">
        <ele>367.5</ele>
        <time>2023-02-19T08:54:37Z</time>
      </trkpt>
      <trkpt lat="45.69752" lon="4.29133">
        <ele>367.5</ele>
        <time>2023-02-19T08:54:38Z</time>
      </trkpt>
      <trkpt lat="45.69751" lon="4.29132">
        <ele>367.5</ele>
        <time>2023-02-19T08:54:39Z</time>
      </trkpt>
      <trkpt lat="45.69749" lon="4.29131">
        <ele>367.5</ele>
        <time>2023-02-19T08:54:40Z</time>
      </trkpt>
      <trkpt lat="45.69748" lon="4.2913">
        <ele>367.5</ele>
        <time>2023-02-19T08:54:41Z</time>
      </trkpt>
      <trkpt lat="45.69747" lon="4.29129">
        <ele>367.5</ele>
        <time>2023-02-19T08:54:43Z</time>
      </trkpt>
      <trkpt lat="45.69746" lon="4.29128">
        <ele>367.5</ele>
        <time>2023-02-19T08:54:44Z</time>
      </trkpt>
      <trkpt lat="45.69745" lon="4.29126">
        <ele>367.5</ele>
        <time>2023-02-19T08:54:45Z</time>
      </trkpt>
      <trkpt lat="45.69744" lon="4.29126">
        <ele>367.5</ele>
        <time>2023-02-19T08:54:46Z</time>
      </trkpt>
      <trkpt lat="45.69743" lon="4.29125">
        <ele>367.5</ele>
        <time>2023-02-19T08:54:47Z</time>
      </trkpt>
      <trkpt lat="45.69742" lon="4.29124">
        <ele>367.5</ele>
        <time>2023-02-19T08:54:48Z</time>
      </trkpt>
      <trkpt lat="45.69741" lon="4.29123">
        <ele>367.5</ele>
        <time>2023-02-19T08:54:49Z</time>
      </trkpt>
      <trkpt lat="45.6974" lon="4.29122">
        <ele>367.5</ele>
        <time>2023-02-19T08:54:50Z</time>
      </trkpt>
      <trkpt lat="45.6974" lon="4.29121">
        <ele>367.5</ele>
        <time>2023-02-19T08:54:51Z</time>
      </trkpt>
      <trkpt lat="45.69739" lon="4.2912">
        <ele>367.5</ele>
        <time>2023-02-19T08:54:52Z</time>
      </trkpt>
      <trkpt lat="45.69738" lon="4.2912">
        <ele>367.5</ele>
        <time>2023-02-19T08:54:53Z</time>
      </trkpt>
      <trkpt lat="45.69737" lon="4.2912">
        <ele>367.5</ele>
        <time>2023-02-19T08:54:54Z</time>
      </trkpt>
      <trkpt lat="45.69736" lon="4.29119">
        <ele>367.5</ele>
        <time>2023-02-19T08:54:55Z</time>
      </trkpt>
      <trkpt lat="45.69735" lon="4.29119">
        <ele>367.5</ele>
        <time>2023-02-19T08:54:57Z</time>
      </trkpt>
      <trkpt lat="45.69734" lon="4.29119">
        <ele>367.6</ele>
        <time>2023-02-19T08:54:58Z</time>
      </trkpt>
      <trkpt lat="45.69733" lon="4.29119">
        <ele>367.6</ele>
        <time>2023-02-19T08:54:59Z</time>
      </trkpt>
      <trkpt lat="45.69731" lon="4.29119">
        <ele>367.6</ele>
        <time>2023-02-19T08:55:00Z</time>
      </trkpt>
      <trkpt lat="45.6973" lon="4.29119">
        <ele>367.6</ele>
        <time>2023-02-19T08:55:01Z</time>
      </trkpt>
      <trkpt lat="45.69728" lon="4.29119">
        <ele>367.6</ele>
        <time>2023-02-19T08:55:02Z</time>
      </trkpt>
      <trkpt lat="45.69726" lon="4.2912">
        <ele>367.6</ele>
        <time>2023-02-19T08:55:03Z</time>
      </trkpt>
      <trkpt lat="45.69725" lon="4.2912">
        <ele>367.6</ele>
        <time>2023-02-19T08:55:04Z</time>
      </trkpt>
      <trkpt lat="45.69723" lon="4.29121">
        <ele>367.6</ele>
        <time>2023-02-19T08:55:05Z</time>
      </trkpt>
      <trkpt lat="45.69721" lon="4.29122">
        <ele>367.6</ele>
        <time>2023-02-19T08:55:06Z</time>
      </trkpt>
      <trkpt lat="45.69719" lon="4.29123">
        <ele>367.6</ele>
        <time>2023-02-19T08:55:08Z</time>
      </trkpt>
      <trkpt lat="45.69718" lon="4.29123">
        <ele>367.6</ele>
        <time>2023-02-19T08:55:09Z</time>
      </trkpt>
      <trkpt lat="45.69716" lon="4.29124">
        <ele>367.6</ele>
        <time>2023-02-19T08:55:10Z</time>
      </trkpt>
      <trkpt lat="45.69715" lon="4.29125">
        <ele>367.6</ele>
        <time>2023-02-19T08:55:11Z</time>
      </trkpt>
      <trkpt lat="45.69713" lon="4.29126">
        <ele>367.7</ele>
        <time>2023-02-19T08:55:12Z</time>
      </trkpt>
      <trkpt lat="45.69712" lon="4.29127">
        <ele>367.7</ele>
        <time>2023-02-19T08:55:13Z</time>
      </trkpt>
      <trkpt lat="45.6971" lon="4.29128">
        <ele>367.7</ele>
        <time>2023-02-19T08:55:14Z</time>
      </trkpt>
      <trkpt lat="45.69707" lon="4.29128">
        <ele>367.7</ele>
        <time>2023-02-19T08:55:15Z</time>
      </trkpt>
      <trkpt lat="45.69706" lon="4.29128">
        <ele>367.7</ele>
        <time>2023-02-19T08:55:16Z</time>
      </trkpt>
      <trkpt lat="45.69704" lon="4.29129">
        <ele>367.7</ele>
        <time>2023-02-19T08:55:17Z</time>
      </trkpt>
      <trkpt lat="45.69702" lon="4.29129">
        <ele>367.7</ele>
        <time>2023-02-19T08:55:18Z</time>
      </trkpt>
      <trkpt lat="45.69701" lon="4.2913">
        <ele>367.7</ele>
        <time>2023-02-19T08:55:19Z</time>
      </trkpt>
      <trkpt lat="45.697" lon="4.2913">
        <ele>367.7</ele>
        <time>2023-02-19T08:55:21Z</time>
      </trkpt>
      <trkpt lat="45.69699" lon="4.29131">
        <ele>367.7</ele>
        <time>2023-02-19T08:55:22Z</time>
      </trkpt>
      <trkpt lat="45.69698" lon="4.29132">
        <ele>367.7</ele>
        <time>2023-02-19T08:55:23Z</time>
      </trkpt>
      <trkpt lat="45.69697" lon="4.29133">
        <ele>367.7</ele>
        <time>2023-02-19T08:55:24Z</time>
      </trkpt>
      <trkpt lat="45.69695" lon="4.29134">
        <ele>367.7</ele>
        <time>2023-02-19T08:55:25Z</time>
      </trkpt>
      <trkpt lat="45.69694" lon="4.29135">
        <ele>367.7</ele>
        <time>2023-02-19T08:55:27Z</time>
      </trkpt>
      <trkpt lat="45.69692" lon="4.29136">
        <ele>367.7</ele>
        <time>2023-02-19T08:55:28Z</time>
      </trkpt>
      <trkpt lat="45.69691" lon="4.29137">
        <ele>367.7</ele>
        <time>2023-02-19T08:55:29Z</time>
      </trkpt>
      <trkpt lat="45.6969" lon="4.29137">
        <ele>367.7</ele>
        <time>2023-02-19T08:55:30Z</time>
      </trkpt>
      <trkpt lat="45.69689" lon="4.29138">
        <ele>367.7</ele>
        <time>2023-02-19T08:55:31Z</time>
      </trkpt>
      <trkpt lat="45.69688" lon="4.29139">
        <ele>367.7</ele>
        <time>2023-02-19T08:55:32Z</time>
      </trkpt>
      <trkpt lat="45.69686" lon="4.2914">
        <ele>367.8</ele>
        <time>2023-02-19T08:55:34Z</time>
      </trkpt>
      <trkpt lat="45.69684" lon="4.2914">
        <ele>367.8</ele>
        <time>2023-02-19T08:55:35Z</time>
      </trkpt>
      <trkpt lat="45.69683" lon="4.29141">
        <ele>367.8</ele>
        <time>2023-02-19T08:55:36Z</time>
      </trkpt>
      <trkpt lat="45.69682" lon="4.29141">
        <ele>367.8</ele>
        <time>2023-02-19T08:55:37Z</time>
      </trkpt>
      <trkpt lat="45.6968" lon="4.29142">
        <ele>367.8</ele>
        <time>2023-02-19T08:55:38Z</time>
      </trkpt>
      <trkpt lat="45.69679" lon="4.29142">
        <ele>367.8</ele>
        <time>2023-02-19T08:55:39Z</time>
      </trkpt>
      <trkpt lat="45.69678" lon="4.29143">
        <ele>367.8</ele>
        <time>2023-02-19T08:55:40Z</time>
      </trkpt>
      <trkpt lat="45.69677" lon="4.29144">
        <ele>367.8</ele>
        <time>2023-02-19T08:55:41Z</time>
      </trkpt>
      <trkpt lat="45.69676" lon="4.29145">
        <ele>367.8</ele>
        <time>2023-02-19T08:55:42Z</time>
      </trkpt>
      <trkpt lat="45.69674" lon="4.29146">
        <ele>367.8</ele>
        <time>2023-02-19T08:55:44Z</time>
      </trkpt>
      <trkpt lat="45.69673" lon="4.29147">
        <ele>367.8</ele>
        <time>2023-02-19T08:55:45Z</time>
      </trkpt>
      <trkpt lat="45.69671" lon="4.29147">
        <ele>367.8</ele>
        <time>2023-02-19T08:55:46Z</time>
      </trkpt>
      <trkpt lat="45.6967" lon="4.29148">
        <ele>367.8</ele>
        <time>2023-02-19T08:55:47Z</time>
      </trkpt>
      <trkpt lat="45.69668" lon="4.29148">
        <ele>367.8</ele>
        <time>2023-02-19T08:55:48Z</time>
      </trkpt>
      <trkpt lat="45.69667" lon="4.29149">
        <ele>367.8</ele>
        <time>2023-02-19T08:55:49Z</time>
      </trkpt>
      <trkpt lat="45.69664" lon="4.29149">
        <ele>367.9</ele>
        <time>2023-02-19T08:55:51Z</time>
      </trkpt>
      <trkpt lat="45.69663" lon="4.29149">
        <ele>367.9</ele>
        <time>2023-02-19T08:55:52Z</time>
      </trkpt>
      <trkpt lat="45.69661" lon="4.29149">
        <ele>367.9</ele>
        <time>2023-02-19T08:55:53Z</time>
      </trkpt>
      <trkpt lat="45.6966" lon="4.2915">
        <ele>367.9</ele>
        <time>2023-02-19T08:55:54Z</time>
      </trkpt>
      <trkpt lat="45.69656" lon="4.29151">
        <ele>367.9</ele>
        <time>2023-02-19T08:55:56Z</time>
      </trkpt>
      <trkpt lat="45.69654" lon="4.29151">
        <ele>367.9</ele>
        <time>2023-02-19T08:55:57Z</time>
      </trkpt>
      <trkpt lat="45.69651" lon="4.29152">
        <ele>367.9</ele>
        <time>2023-02-19T08:55:59Z</time>
      </trkpt>
      <trkpt lat="45.6965" lon="4.29153">
        <ele>367.9</ele>
        <time>2023-02-19T08:56:00Z</time>
      </trkpt>
      <trkpt lat="45.69649" lon="4.29153">
        <ele>367.9</ele>
        <time>2023-02-19T08:56:01Z</time>
      </trkpt>
      <trkpt lat="45.69646" lon="4.29155">
        <ele>367.9</ele>
        <time>2023-02-19T08:56:02Z</time>
      </trkpt>
      <trkpt lat="45.69645" lon="4.29155">
        <ele>367.9</ele>
        <time>2023-02-19T08:56:03Z</time>
      </trkpt>
      <trkpt lat="45.69642" lon="4.29157">
        <ele>367.9</ele>
        <time>2023-02-19T08:56:04Z</time>
      </trkpt>
      <trkpt lat="45.69642" lon="4.29157">
        <ele>367.9</ele>
        <time>2023-02-19T08:56:05Z</time>
      </trkpt>
      <trkpt lat="45.6964" lon="4.29158">
        <ele>367.9</ele>
        <time>2023-02-19T08:56:06Z</time>
      </trkpt>
      <trkpt lat="45.69638" lon="4.29159">
        <ele>367.9</ele>
        <time>2023-02-19T08:56:08Z</time>
      </trkpt>
      <trkpt lat="45.69637" lon="4.2916">
        <ele>367.9</ele>
        <time>2023-02-19T08:56:09Z</time>
      </trkpt>
      <trkpt lat="45.69636" lon="4.2916">
        <ele>367.9</ele>
        <time>2023-02-19T08:56:10Z</time>
      </trkpt>
      <trkpt lat="45.69634" lon="4.29161">
        <ele>368</ele>
        <time>2023-02-19T08:56:11Z</time>
      </trkpt>
      <trkpt lat="45.69633" lon="4.29162">
        <ele>368</ele>
        <time>2023-02-19T08:56:12Z</time>
      </trkpt>
      <trkpt lat="45.69631" lon="4.29162">
        <ele>368</ele>
        <time>2023-02-19T08:56:13Z</time>
      </trkpt>
      <trkpt lat="45.6963" lon="4.29163">
        <ele>368</ele>
        <time>2023-02-19T08:56:14Z</time>
      </trkpt>
      <trkpt lat="45.69628" lon="4.29163">
        <ele>368</ele>
        <time>2023-02-19T08:56:15Z</time>
      </trkpt>
      <trkpt lat="45.69627" lon="4.29164">
        <ele>368</ele>
        <time>2023-02-19T08:56:16Z</time>
      </trkpt>
      <trkpt lat="45.69625" lon="4.29164">
        <ele>368</ele>
        <time>2023-02-19T08:56:18Z</time>
      </trkpt>
      <trkpt lat="45.69623" lon="4.29165">
        <ele>368.1</ele>
        <time>2023-02-19T08:56:19Z</time>
      </trkpt>
      <trkpt lat="45.69622" lon="4.29166">
        <ele>368.1</ele>
        <time>2023-02-19T08:56:20Z</time>
      </trkpt>
      <trkpt lat="45.6962" lon="4.29166">
        <ele>368.1</ele>
        <time>2023-02-19T08:56:21Z</time>
      </trkpt>
      <trkpt lat="45.69619" lon="4.29167">
        <ele>368.1</ele>
        <time>2023-02-19T08:56:22Z</time>
      </trkpt>
      <trkpt lat="45.69617" lon="4.29168">
        <ele>368.1</ele>
        <time>2023-02-19T08:56:23Z</time>
      </trkpt>
      <trkpt lat="45.69616" lon="4.29168">
        <ele>368.1</ele>
        <time>2023-02-19T08:56:24Z</time>
      </trkpt>
      <trkpt lat="45.69615" lon="4.29169">
        <ele>368.1</ele>
        <time>2023-02-19T08:56:26Z</time>
      </trkpt>
      <trkpt lat="45.69613" lon="4.2917">
        <ele>368.2</ele>
        <time>2023-02-19T08:56:27Z</time>
      </trkpt>
      <trkpt lat="45.69612" lon="4.2917">
        <ele>368.2</ele>
        <time>2023-02-19T08:56:28Z</time>
      </trkpt>
      <trkpt lat="45.6961" lon="4.29171">
        <ele>368.2</ele>
        <time>2023-02-19T08:56:29Z</time>
      </trkpt>
      <trkpt lat="45.69609" lon="4.29171">
        <ele>368.2</ele>
        <time>2023-02-19T08:56:30Z</time>
      </trkpt>
      <trkpt lat="45.69606" lon="4.29172">
        <ele>368.3</ele>
        <time>2023-02-19T08:56:31Z</time>
      </trkpt>
      <trkpt lat="45.69605" lon="4.29172">
        <ele>368.3</ele>
        <time>2023-02-19T08:56:32Z</time>
      </trkpt>
      <trkpt lat="45.69603" lon="4.29172">
        <ele>368.3</ele>
        <time>2023-02-19T08:56:33Z</time>
      </trkpt>
      <trkpt lat="45.69601" lon="4.29173">
        <ele>368.3</ele>
        <time>2023-02-19T08:56:35Z</time>
      </trkpt>
      <trkpt lat="45.69598" lon="4.29173">
        <ele>368.4</ele>
        <time>2023-02-19T08:56:36Z</time>
      </trkpt>
      <trkpt lat="45.69597" lon="4.29174">
        <ele>368.4</ele>
        <time>2023-02-19T08:56:37Z</time>
      </trkpt>
      <trkpt lat="45.69594" lon="4.29174">
        <ele>368.4</ele>
        <time>2023-02-19T08:56:38Z</time>
      </trkpt>
      <trkpt lat="45.69593" lon="4.29174">
        <ele>368.4</ele>
        <time>2023-02-19T08:56:39Z</time>
      </trkpt>
      <trkpt lat="45.69591" lon="4.29174">
        <ele>368.5</ele>
        <time>2023-02-19T08:56:40Z</time>
      </trkpt>
      <trkpt lat="45.6959" lon="4.29175">
        <ele>368.5</ele>
        <time>2023-02-19T08:56:41Z</time>
      </trkpt>
      <trkpt lat="45.69588" lon="4.29175">
        <ele>368.5</ele>
        <time>2023-02-19T08:56:42Z</time>
      </trkpt>
      <trkpt lat="45.69586" lon="4.29176">
        <ele>368.5</ele>
        <time>2023-02-19T08:56:43Z</time>
      </trkpt>
      <trkpt lat="45.69584" lon="4.29176">
        <ele>368.6</ele>
        <time>2023-02-19T08:56:44Z</time>
      </trkpt>
      <trkpt lat="45.69581" lon="4.29177">
        <ele>368.6</ele>
        <time>2023-02-19T08:56:46Z</time>
      </trkpt>
      <trkpt lat="45.69578" lon="4.29178">
        <ele>368.7</ele>
        <time>2023-02-19T08:56:48Z</time>
      </trkpt>
      <trkpt lat="45.69577" lon="4.29178">
        <ele>368.7</ele>
        <time>2023-02-19T08:56:49Z</time>
      </trkpt>
      <trkpt lat="45.69576" lon="4.29179">
        <ele>368.7</ele>
        <time>2023-02-19T08:56:50Z</time>
      </trkpt>
      <trkpt lat="45.69574" lon="4.29179">
        <ele>368.7</ele>
        <time>2023-02-19T08:56:51Z</time>
      </trkpt>
      <trkpt lat="45.69573" lon="4.2918">
        <ele>368.8</ele>
        <time>2023-02-19T08:56:52Z</time>
      </trkpt>
      <trkpt lat="45.69571" lon="4.2918">
        <ele>368.8</ele>
        <time>2023-02-19T08:56:53Z</time>
      </trkpt>
      <trkpt lat="45.69569" lon="4.29181">
        <ele>368.8</ele>
        <time>2023-02-19T08:56:55Z</time>
      </trkpt>
      <trkpt lat="45.69568" lon="4.29182">
        <ele>368.9</ele>
        <time>2023-02-19T08:56:56Z</time>
      </trkpt>
      <trkpt lat="45.69567" lon="4.29183">
        <ele>368.9</ele>
        <time>2023-02-19T08:56:57Z</time>
      </trkpt>
      <trkpt lat="45.69566" lon="4.29183">
        <ele>368.9</ele>
        <time>2023-02-19T08:56:58Z</time>
      </trkpt>
      <trkpt lat="45.69565" lon="4.29183">
        <ele>368.9</ele>
        <time>2023-02-19T08:56:59Z</time>
      </trkpt>
      <trkpt lat="45.69564" lon="4.29183">
        <ele>368.9</ele>
        <time>2023-02-19T08:57:00Z</time>
      </trkpt>
      <trkpt lat="45.69563" lon="4.29183">
        <ele>369</ele>
        <time>2023-02-19T08:57:01Z</time>
      </trkpt>
      <trkpt lat="45.69562" lon="4.29184">
        <ele>369</ele>
        <time>2023-02-19T08:57:02Z</time>
      </trkpt>
      <trkpt lat="45.69561" lon="4.29184">
        <ele>369</ele>
        <time>2023-02-19T08:57:04Z</time>
      </trkpt>
      <trkpt lat="45.6956" lon="4.29184">
        <ele>369.1</ele>
        <time>2023-02-19T08:57:05Z</time>
      </trkpt>
      <trkpt lat="45.69559" lon="4.29185">
        <ele>369.1</ele>
        <time>2023-02-19T08:57:06Z</time>
      </trkpt>
      <trkpt lat="45.69558" lon="4.29186">
        <ele>369.1</ele>
        <time>2023-02-19T08:57:07Z</time>
      </trkpt>
      <trkpt lat="45.69557" lon="4.29187">
        <ele>369.1</ele>
        <time>2023-02-19T08:57:08Z</time>
      </trkpt>
      <trkpt lat="45.69556" lon="4.29187">
        <ele>369.2</ele>
        <time>2023-02-19T08:57:09Z</time>
      </trkpt>
      <trkpt lat="45.69555" lon="4.29188">
        <ele>369.2</ele>
        <time>2023-02-19T08:57:10Z</time>
      </trkpt>
      <trkpt lat="45.69555" lon="4.29189">
        <ele>369.2</ele>
        <time>2023-02-19T08:57:11Z</time>
      </trkpt>
      <trkpt lat="45.69553" lon="4.2919">
        <ele>369.3</ele>
        <time>2023-02-19T08:57:13Z</time>
      </trkpt>
      <trkpt lat="45.69552" lon="4.29191">
        <ele>369.3</ele>
        <time>2023-02-19T08:57:14Z</time>
      </trkpt>
      <trkpt lat="45.6955" lon="4.29192">
        <ele>369.3</ele>
        <time>2023-02-19T08:57:15Z</time>
      </trkpt>
      <trkpt lat="45.69549" lon="4.29193">
        <ele>369.4</ele>
        <time>2023-02-19T08:57:16Z</time>
      </trkpt>
      <trkpt lat="45.69546" lon="4.29195">
        <ele>369.4</ele>
        <time>2023-02-19T08:57:17Z</time>
      </trkpt>
      <trkpt lat="45.69545" lon="4.29195">
        <ele>369.5</ele>
        <time>2023-02-19T08:57:18Z</time>
      </trkpt>
      <trkpt lat="45.69542" lon="4.29197">
        <ele>369.5</ele>
        <time>2023-02-19T08:57:19Z</time>
      </trkpt>
      <trkpt lat="45.69542" lon="4.29197">
        <ele>369.6</ele>
        <time>2023-02-19T08:57:20Z</time>
      </trkpt>
      <trkpt lat="45.69538" lon="4.29198">
        <ele>369.6</ele>
        <time>2023-02-19T08:57:22Z</time>
      </trkpt>
      <trkpt lat="45.69537" lon="4.29198">
        <ele>369.6</ele>
        <time>2023-02-19T08:57:23Z</time>
      </trkpt>
      <trkpt lat="45.69535" lon="4.29198">
        <ele>369.7</ele>
        <time>2023-02-19T08:57:25Z</time>
      </trkpt>
      <trkpt lat="45.69533" lon="4.29198">
        <ele>369.7</ele>
        <time>2023-02-19T08:57:26Z</time>
      </trkpt>
      <trkpt lat="45.69532" lon="4.29198">
        <ele>369.7</ele>
        <time>2023-02-19T08:57:27Z</time>
      </trkpt>
      <trkpt lat="45.69531" lon="4.29198">
        <ele>369.7</ele>
        <time>2023-02-19T08:57:28Z</time>
      </trkpt>
      <trkpt lat="45.69529" lon="4.29199">
        <ele>369.8</ele>
        <time>2023-02-19T08:57:29Z</time>
      </trkpt>
      <trkpt lat="45.69527" lon="4.29199">
        <ele>369.8</ele>
        <time>2023-02-19T08:57:30Z</time>
      </trkpt>
      <trkpt lat="45.69526" lon="4.29199">
        <ele>369.8</ele>
        <time>2023-02-19T08:57:31Z</time>
      </trkpt>
      <trkpt lat="45.69525" lon="4.292">
        <ele>369.8</ele>
        <time>2023-02-19T08:57:32Z</time>
      </trkpt>
      <trkpt lat="45.69524" lon="4.29201">
        <ele>369.8</ele>
        <time>2023-02-19T08:57:33Z</time>
      </trkpt>
      <trkpt lat="45.69522" lon="4.29202">
        <ele>369.9</ele>
        <time>2023-02-19T08:57:35Z</time>
      </trkpt>
      <trkpt lat="45.6952" lon="4.29203">
        <ele>369.9</ele>
        <time>2023-02-19T08:57:36Z</time>
      </trkpt>
      <trkpt lat="45.69519" lon="4.29204">
        <ele>369.9</ele>
        <time>2023-02-19T08:57:37Z</time>
      </trkpt>
      <trkpt lat="45.69519" lon="4.29205">
        <ele>369.9</ele>
        <time>2023-02-19T08:57:38Z</time>
      </trkpt>
      <trkpt lat="45.69517" lon="4.29207">
        <ele>369.9</ele>
        <time>2023-02-19T08:57:39Z</time>
      </trkpt>
      <trkpt lat="45.69516" lon="4.29208">
        <ele>370</ele>
        <time>2023-02-19T08:57:40Z</time>
      </trkpt>
      <trkpt lat="45.69515" lon="4.29208">
        <ele>370</ele>
        <time>2023-02-19T08:57:41Z</time>
      </trkpt>
      <trkpt lat="45.69515" lon="4.29209">
        <ele>370</ele>
        <time>2023-02-19T08:57:43Z</time>
      </trkpt>
      <trkpt lat="45.69514" lon="4.2921">
        <ele>370</ele>
        <time>2023-02-19T08:57:44Z</time>
      </trkpt>
      <trkpt lat="45.69513" lon="4.29211">
        <ele>370</ele>
        <time>2023-02-19T08:57:45Z</time>
      </trkpt>
      <trkpt lat="45.69511" lon="4.29213">
        <ele>370.1</ele>
        <time>2023-02-19T08:57:46Z</time>
      </trkpt>
      <trkpt lat="45.6951" lon="4.29213">
        <ele>370.1</ele>
        <time>2023-02-19T08:57:47Z</time>
      </trkpt>
      <trkpt lat="45.6951" lon="4.29214">
        <ele>370.1</ele>
        <time>2023-02-19T08:57:48Z</time>
      </trkpt>
      <trkpt lat="45.69508" lon="4.29215">
        <ele>370.1</ele>
        <time>2023-02-19T08:57:49Z</time>
      </trkpt>
      <trkpt lat="45.69507" lon="4.29216">
        <ele>370.2</ele>
        <time>2023-02-19T08:57:51Z</time>
      </trkpt>
      <trkpt lat="45.69505" lon="4.29217">
        <ele>370.2</ele>
        <time>2023-02-19T08:57:52Z</time>
      </trkpt>
      <trkpt lat="45.69503" lon="4.29217">
        <ele>370.2</ele>
        <time>2023-02-19T08:57:53Z</time>
      </trkpt>
      <trkpt lat="45.69502" lon="4.29218">
        <ele>370.3</ele>
        <time>2023-02-19T08:57:54Z</time>
      </trkpt>
      <trkpt lat="45.695" lon="4.29219">
        <ele>370.3</ele>
        <time>2023-02-19T08:57:55Z</time>
      </trkpt>
      <trkpt lat="45.69498" lon="4.2922">
        <ele>370.4</ele>
        <time>2023-02-19T08:57:56Z</time>
      </trkpt>
      <trkpt lat="45.69497" lon="4.2922">
        <ele>370.4</ele>
        <time>2023-02-19T08:57:57Z</time>
      </trkpt>
      <trkpt lat="45.69495" lon="4.2922">
        <ele>370.4</ele>
        <time>2023-02-19T08:57:58Z</time>
      </trkpt>
      <trkpt lat="45.69494" lon="4.29221">
        <ele>370.4</ele>
        <time>2023-02-19T08:57:59Z</time>
      </trkpt>
      <trkpt lat="45.69492" lon="4.29221">
        <ele>370.4</ele>
        <time>2023-02-19T08:58:00Z</time>
      </trkpt>
      <trkpt lat="45.6949" lon="4.29222">
        <ele>370.5</ele>
        <time>2023-02-19T08:58:02Z</time>
      </trkpt>
      <trkpt lat="45.69489" lon="4.29222">
        <ele>370.5</ele>
        <time>2023-02-19T08:58:03Z</time>
      </trkpt>
      <trkpt lat="45.69488" lon="4.29222">
        <ele>370.5</ele>
        <time>2023-02-19T08:58:04Z</time>
      </trkpt>
      <trkpt lat="45.69487" lon="4.29222">
        <ele>370.5</ele>
        <time>2023-02-19T08:58:05Z</time>
      </trkpt>
      <trkpt lat="45.69486" lon="4.29222">
        <ele>370.5</ele>
        <time>2023-02-19T08:58:06Z</time>
      </trkpt>
      <trkpt lat="45.69486" lon="4.29222">
        <ele>370.5</ele>
        <time>2023-02-19T08:58:07Z</time>
      </trkpt>
      <trkpt lat="45.69486" lon="4.29222">
        <ele>370.5</ele>
        <time>2023-02-19T08:58:08Z</time>
      </trkpt>
      <trkpt lat="45.69485" lon="4.29222">
        <ele>370.5</ele>
        <time>2023-02-19T08:58:10Z</time>
      </trkpt>
      <trkpt lat="45.69485" lon="4.29222">
        <ele>370.5</ele>
        <time>2023-02-19T08:58:11Z</time>
      </trkpt>
      <trkpt lat="45.69485" lon="4.29222">
        <ele>370.5</ele>
        <time>2023-02-19T08:58:12Z</time>
      </trkpt>
      <trkpt lat="45.69485" lon="4.29222">
        <ele>370.5</ele>
        <time>2023-02-19T08:58:13Z</time>
      </trkpt>
      <trkpt lat="45.69486" lon="4.29223">
        <ele>370.5</ele>
        <time>2023-02-19T08:58:14Z</time>
      </trkpt>
      <trkpt lat="45.69486" lon="4.29223">
        <ele>370.5</ele>
        <time>2023-02-19T08:58:15Z</time>
      </trkpt>
      <trkpt lat="45.69486" lon="4.29223">
        <ele>370.6</ele>
        <time>2023-02-19T08:58:16Z</time>
      </trkpt>
      <trkpt lat="45.69485" lon="4.29224">
        <ele>370.6</ele>
        <time>2023-02-19T08:58:17Z</time>
      </trkpt>
      <trkpt lat="45.69484" lon="4.29224">
        <ele>370.6</ele>
        <time>2023-02-19T08:58:18Z</time>
      </trkpt>
      <trkpt lat="45.69483" lon="4.29224">
        <ele>370.6</ele>
        <time>2023-02-19T08:58:20Z</time>
      </trkpt>
      <trkpt lat="45.69481" lon="4.29225">
        <ele>370.6</ele>
        <time>2023-02-19T08:58:21Z</time>
      </trkpt>
      <trkpt lat="45.6948" lon="4.29226">
        <ele>370.6</ele>
        <time>2023-02-19T08:58:22Z</time>
      </trkpt>
      <trkpt lat="45.69478" lon="4.29227">
        <ele>370.7</ele>
        <time>2023-02-19T08:58:23Z</time>
      </trkpt>
      <trkpt lat="45.69475" lon="4.29228">
        <ele>370.7</ele>
        <time>2023-02-19T08:58:24Z</time>
      </trkpt>
      <trkpt lat="45.69474" lon="4.29229">
        <ele>370.7</ele>
        <time>2023-02-19T08:58:25Z</time>
      </trkpt>
      <trkpt lat="45.69472" lon="4.29231">
        <ele>370.8</ele>
        <time>2023-02-19T08:58:26Z</time>
      </trkpt>
      <trkpt lat="45.69471" lon="4.29232">
        <ele>370.8</ele>
        <time>2023-02-19T08:58:27Z</time>
      </trkpt>
      <trkpt lat="45.69468" lon="4.29234">
        <ele>370.9</ele>
        <time>2023-02-19T08:58:29Z</time>
      </trkpt>
      <trkpt lat="45.69467" lon="4.29235">
        <ele>370.9</ele>
        <time>2023-02-19T08:58:30Z</time>
      </trkpt>
      <trkpt lat="45.69464" lon="4.29237">
        <ele>370.9</ele>
        <time>2023-02-19T08:58:31Z</time>
      </trkpt>
      <trkpt lat="45.69463" lon="4.29238">
        <ele>370.9</ele>
        <time>2023-02-19T08:58:32Z</time>
      </trkpt>
      <trkpt lat="45.6946" lon="4.2924">
        <ele>371</ele>
        <time>2023-02-19T08:58:33Z</time>
      </trkpt>
      <trkpt lat="45.6946" lon="4.2924">
        <ele>371</ele>
        <time>2023-02-19T08:58:34Z</time>
      </trkpt>
      <trkpt lat="45.69458" lon="4.29242">
        <ele>371</ele>
        <time>2023-02-19T08:58:35Z</time>
      </trkpt>
      <trkpt lat="45.69457" lon="4.29243">
        <ele>371</ele>
        <time>2023-02-19T08:58:36Z</time>
      </trkpt>
      <trkpt lat="45.69455" lon="4.29244">
        <ele>371</ele>
        <time>2023-02-19T08:58:38Z</time>
      </trkpt>
      <trkpt lat="45.69454" lon="4.29244">
        <ele>371</ele>
        <time>2023-02-19T08:58:39Z</time>
      </trkpt>
      <trkpt lat="45.69452" lon="4.29245">
        <ele>371.1</ele>
        <time>2023-02-19T08:58:40Z</time>
      </trkpt>
      <trkpt lat="45.69451" lon="4.29246">
        <ele>371.1</ele>
        <time>2023-02-19T08:58:41Z</time>
      </trkpt>
      <trkpt lat="45.6945" lon="4.29246">
        <ele>371.1</ele>
        <time>2023-02-19T08:58:42Z</time>
      </trkpt>
      <trkpt lat="45.69447" lon="4.29247">
        <ele>371.1</ele>
        <time>2023-02-19T08:58:43Z</time>
      </trkpt>
      <trkpt lat="45.69446" lon="4.29247">
        <ele>371.2</ele>
        <time>2023-02-19T08:58:44Z</time>
      </trkpt>
      <trkpt lat="45.69443" lon="4.29248">
        <ele>371.2</ele>
        <time>2023-02-19T08:58:46Z</time>
      </trkpt>
      <trkpt lat="45.69441" lon="4.29249">
        <ele>371.2</ele>
        <time>2023-02-19T08:58:47Z</time>
      </trkpt>
      <trkpt lat="45.69439" lon="4.29249">
        <ele>371.3</ele>
        <time>2023-02-19T08:58:48Z</time>
      </trkpt>
      <trkpt lat="45.69436" lon="4.2925">
        <ele>371.3</ele>
        <time>2023-02-19T08:58:50Z</time>
      </trkpt>
      <trkpt lat="45.69436" lon="4.2925">
        <ele>371.4</ele>
        <time>2023-02-19T08:58:51Z</time>
      </trkpt>
      <trkpt lat="45.69433" lon="4.29251">
        <ele>371.4</ele>
        <time>2023-02-19T08:58:52Z</time>
      </trkpt>
      <trkpt lat="45.69432" lon="4.29252">
        <ele>371.4</ele>
        <time>2023-02-19T08:58:53Z</time>
      </trkpt>
      <trkpt lat="45.69427" lon="4.29254">
        <ele>371.5</ele>
        <time>2023-02-19T08:58:55Z</time>
      </trkpt>
      <trkpt lat="45.69426" lon="4.29255">
        <ele>371.5</ele>
        <time>2023-02-19T08:58:57Z</time>
      </trkpt>
      <trkpt lat="45.69425" lon="4.29255">
        <ele>371.6</ele>
        <time>2023-02-19T08:58:58Z</time>
      </trkpt>
      <trkpt lat="45.69423" lon="4.29256">
        <ele>371.6</ele>
        <time>2023-02-19T08:58:59Z</time>
      </trkpt>
      <trkpt lat="45.69421" lon="4.29257">
        <ele>371.6</ele>
        <time>2023-02-19T08:59:00Z</time>
      </trkpt>
      <trkpt lat="45.6942" lon="4.29257">
        <ele>371.7</ele>
        <time>2023-02-19T08:59:01Z</time>
      </trkpt>
      <trkpt lat="45.69418" lon="4.29258">
        <ele>371.7</ele>
        <time>2023-02-19T08:59:02Z</time>
      </trkpt>
      <trkpt lat="45.69416" lon="4.29259">
        <ele>371.7</ele>
        <time>2023-02-19T08:59:03Z</time>
      </trkpt>
      <trkpt lat="45.69415" lon="4.29259">
        <ele>371.8</ele>
        <time>2023-02-19T08:59:05Z</time>
      </trkpt>
      <trkpt lat="45.69413" lon="4.29259">
        <ele>371.8</ele>
        <time>2023-02-19T08:59:06Z</time>
      </trkpt>
      <trkpt lat="45.69411" lon="4.2926">
        <ele>371.8</ele>
        <time>2023-02-19T08:59:07Z</time>
      </trkpt>
      <trkpt lat="45.6941" lon="4.2926">
        <ele>371.9</ele>
        <time>2023-02-19T08:59:08Z</time>
      </trkpt>
      <trkpt lat="45.69408" lon="4.29261">
        <ele>371.9</ele>
        <time>2023-02-19T08:59:10Z</time>
      </trkpt>
      <trkpt lat="45.69406" lon="4.29263">
        <ele>372</ele>
        <time>2023-02-19T08:59:11Z</time>
      </trkpt>
      <trkpt lat="45.69405" lon="4.29264">
        <ele>372</ele>
        <time>2023-02-19T08:59:12Z</time>
      </trkpt>
      <trkpt lat="45.69404" lon="4.29265">
        <ele>372</ele>
        <time>2023-02-19T08:59:13Z</time>
      </trkpt>
      <trkpt lat="45.69403" lon="4.29267">
        <ele>372.1</ele>
        <time>2023-02-19T08:59:14Z</time>
      </trkpt>
      <trkpt lat="45.69403" lon="4.29268">
        <ele>372.1</ele>
        <time>2023-02-19T08:59:15Z</time>
      </trkpt>
      <trkpt lat="45.69402" lon="4.29269">
        <ele>372.1</ele>
        <time>2023-02-19T08:59:16Z</time>
      </trkpt>
      <trkpt lat="45.69401" lon="4.29271">
        <ele>372.2</ele>
        <time>2023-02-19T08:59:17Z</time>
      </trkpt>
      <trkpt lat="45.694" lon="4.29271">
        <ele>372.2</ele>
        <time>2023-02-19T08:59:18Z</time>
      </trkpt>
      <trkpt lat="45.69399" lon="4.29272">
        <ele>372.2</ele>
        <time>2023-02-19T08:59:19Z</time>
      </trkpt>
      <trkpt lat="45.69398" lon="4.29273">
        <ele>372.2</ele>
        <time>2023-02-19T08:59:21Z</time>
      </trkpt>
      <trkpt lat="45.69397" lon="4.29275">
        <ele>372.3</ele>
        <time>2023-02-19T08:59:22Z</time>
      </trkpt>
      <trkpt lat="45.69396" lon="4.29276">
        <ele>372.3</ele>
        <time>2023-02-19T08:59:23Z</time>
      </trkpt>
      <trkpt lat="45.69396" lon="4.29277">
        <ele>372.3</ele>
        <time>2023-02-19T08:59:24Z</time>
      </trkpt>
      <trkpt lat="45.69395" lon="4.29277">
        <ele>372.3</ele>
        <time>2023-02-19T08:59:25Z</time>
      </trkpt>
      <trkpt lat="45.69394" lon="4.29279">
        <ele>372.3</ele>
        <time>2023-02-19T08:59:27Z</time>
      </trkpt>
      <trkpt lat="45.69393" lon="4.2928">
        <ele>372.4</ele>
        <time>2023-02-19T08:59:28Z</time>
      </trkpt>
      <trkpt lat="45.69391" lon="4.29281">
        <ele>372.4</ele>
        <time>2023-02-19T08:59:29Z</time>
      </trkpt>
      <trkpt lat="45.69389" lon="4.29283">
        <ele>372.4</ele>
        <time>2023-02-19T08:59:30Z</time>
      </trkpt>
      <trkpt lat="45.69387" lon="4.29286">
        <ele>372.4</ele>
        <time>2023-02-19T08:59:32Z</time>
      </trkpt>
      <trkpt lat="45.69386" lon="4.29286">
        <ele>372.4</ele>
        <time>2023-02-19T08:59:33Z</time>
      </trkpt>
      <trkpt lat="45.69383" lon="4.29289">
        <ele>372.4</ele>
        <time>2023-02-19T08:59:34Z</time>
      </trkpt>
      <trkpt lat="45.69383" lon="4.2929">
        <ele>372.4</ele>
        <time>2023-02-19T08:59:35Z</time>
      </trkpt>
      <trkpt lat="45.6938" lon="4.29292">
        <ele>372.5</ele>
        <time>2023-02-19T08:59:36Z</time>
      </trkpt>
      <trkpt lat="45.6938" lon="4.29293">
        <ele>372.5</ele>
        <time>2023-02-19T08:59:37Z</time>
      </trkpt>
      <trkpt lat="45.69377" lon="4.29296">
        <ele>372.5</ele>
        <time>2023-02-19T08:59:39Z</time>
      </trkpt>
      <trkpt lat="45.69376" lon="4.29297">
        <ele>372.5</ele>
        <time>2023-02-19T08:59:40Z</time>
      </trkpt>
      <trkpt lat="45.69374" lon="4.29299">
        <ele>372.5</ele>
        <time>2023-02-19T08:59:42Z</time>
      </trkpt>
      <trkpt lat="45.69373" lon="4.293">
        <ele>372.6</ele>
        <time>2023-02-19T08:59:43Z</time>
      </trkpt>
      <trkpt lat="45.69372" lon="4.29301">
        <ele>372.6</ele>
        <time>2023-02-19T08:59:44Z</time>
      </trkpt>
      <trkpt lat="45.6937" lon="4.29302">
        <ele>372.6</ele>
        <time>2023-02-19T08:59:45Z</time>
      </trkpt>
      <trkpt lat="45.69369" lon="4.29304">
        <ele>372.6</ele>
        <time>2023-02-19T08:59:46Z</time>
      </trkpt>
      <trkpt lat="45.69368" lon="4.29305">
        <ele>372.7</ele>
        <time>2023-02-19T08:59:47Z</time>
      </trkpt>
      <trkpt lat="45.69367" lon="4.29307">
        <ele>372.7</ele>
        <time>2023-02-19T08:59:48Z</time>
      </trkpt>
      <trkpt lat="45.69366" lon="4.29308">
        <ele>372.7</ele>
        <time>2023-02-19T08:59:49Z</time>
      </trkpt>
      <trkpt lat="45.69366" lon="4.29309">
        <ele>372.7</ele>
        <time>2023-02-19T08:59:50Z</time>
      </trkpt>
      <trkpt lat="45.69364" lon="4.29311">
        <ele>372.7</ele>
        <time>2023-02-19T08:59:52Z</time>
      </trkpt>
      <trkpt lat="45.69364" lon="4.29312">
        <ele>372.8</ele>
        <time>2023-02-19T08:59:53Z</time>
      </trkpt>
      <trkpt lat="45.69363" lon="4.29312">
        <ele>372.8</ele>
        <time>2023-02-19T08:59:54Z</time>
      </trkpt>
      <trkpt lat="45.69362" lon="4.29314">
        <ele>372.8</ele>
        <time>2023-02-19T08:59:55Z</time>
      </trkpt>
      <trkpt lat="45.69361" lon="4.29315">
        <ele>372.8</ele>
        <time>2023-02-19T08:59:56Z</time>
      </trkpt>
      <trkpt lat="45.6936" lon="4.29317">
        <ele>372.9</ele>
        <time>2023-02-19T08:59:57Z</time>
      </trkpt>
      <trkpt lat="45.69358" lon="4.29319">
        <ele>372.9</ele>
        <time>2023-02-19T08:59:58Z</time>
      </trkpt>
      <trkpt lat="45.69358" lon="4.29321">
        <ele>372.9</ele>
        <time>2023-02-19T08:59:59Z</time>
      </trkpt>
      <trkpt lat="45.69357" lon="4.29322">
        <ele>373</ele>
        <time>2023-02-19T09:00:00Z</time>
      </trkpt>
      <trkpt lat="45.69355" lon="4.29324">
        <ele>373</ele>
        <time>2023-02-19T09:00:01Z</time>
      </trkpt>
      <trkpt lat="45.69354" lon="4.29325">
        <ele>373</ele>
        <time>2023-02-19T09:00:02Z</time>
      </trkpt>
      <trkpt lat="45.69353" lon="4.29327">
        <ele>373.1</ele>
        <time>2023-02-19T09:00:04Z</time>
      </trkpt>
      <trkpt lat="45.69352" lon="4.29328">
        <ele>373.1</ele>
        <time>2023-02-19T09:00:05Z</time>
      </trkpt>
      <trkpt lat="45.69352" lon="4.29329">
        <ele>373.1</ele>
        <time>2023-02-19T09:00:06Z</time>
      </trkpt>
      <trkpt lat="45.69351" lon="4.2933">
        <ele>373.1</ele>
        <time>2023-02-19T09:00:07Z</time>
      </trkpt>
      <trkpt lat="45.6935" lon="4.29331">
        <ele>373.2</ele>
        <time>2023-02-19T09:00:08Z</time>
      </trkpt>
      <trkpt lat="45.69348" lon="4.29333">
        <ele>373.2</ele>
        <time>2023-02-19T09:00:09Z</time>
      </trkpt>
      <trkpt lat="45.69346" lon="4.29334">
        <ele>373.2</ele>
        <time>2023-02-19T09:00:11Z</time>
      </trkpt>
      <trkpt lat="45.69345" lon="4.29335">
        <ele>373.2</ele>
        <time>2023-02-19T09:00:12Z</time>
      </trkpt>
      <trkpt lat="45.69343" lon="4.29336">
        <ele>373.3</ele>
        <time>2023-02-19T09:00:13Z</time>
      </trkpt>
      <trkpt lat="45.69341" lon="4.29337">
        <ele>373.3</ele>
        <time>2023-02-19T09:00:14Z</time>
      </trkpt>
      <trkpt lat="45.69341" lon="4.29337">
        <ele>373.3</ele>
        <time>2023-02-19T09:00:15Z</time>
      </trkpt>
      <trkpt lat="45.6934" lon="4.29338">
        <ele>373.3</ele>
        <time>2023-02-19T09:00:16Z</time>
      </trkpt>
      <trkpt lat="45.69339" lon="4.2934">
        <ele>373.3</ele>
        <time>2023-02-19T09:00:17Z</time>
      </trkpt>
      <trkpt lat="45.69338" lon="4.29341">
        <ele>373.3</ele>
        <time>2023-02-19T09:00:18Z</time>
      </trkpt>
      <trkpt lat="45.69336" lon="4.29343">
        <ele>373.3</ele>
        <time>2023-02-19T09:00:19Z</time>
      </trkpt>
      <trkpt lat="45.69335" lon="4.29344">
        <ele>373.3</ele>
        <time>2023-02-19T09:00:20Z</time>
      </trkpt>
      <trkpt lat="45.69334" lon="4.29345">
        <ele>373.3</ele>
        <time>2023-02-19T09:00:22Z</time>
      </trkpt>
      <trkpt lat="45.69333" lon="4.29347">
        <ele>373.3</ele>
        <time>2023-02-19T09:00:23Z</time>
      </trkpt>
      <trkpt lat="45.69332" lon="4.29348">
        <ele>373.3</ele>
        <time>2023-02-19T09:00:24Z</time>
      </trkpt>
      <trkpt lat="45.69331" lon="4.29349">
        <ele>373.4</ele>
        <time>2023-02-19T09:00:25Z</time>
      </trkpt>
      <trkpt lat="45.69329" lon="4.2935">
        <ele>373.4</ele>
        <time>2023-02-19T09:00:26Z</time>
      </trkpt>
      <trkpt lat="45.69326" lon="4.29352">
        <ele>373.4</ele>
        <time>2023-02-19T09:00:28Z</time>
      </trkpt>
      <trkpt lat="45.69325" lon="4.29352">
        <ele>373.4</ele>
        <time>2023-02-19T09:00:29Z</time>
      </trkpt>
      <trkpt lat="45.69323" lon="4.29353">
        <ele>373.4</ele>
        <time>2023-02-19T09:00:30Z</time>
      </trkpt>
      <trkpt lat="45.69322" lon="4.29354">
        <ele>373.4</ele>
        <time>2023-02-19T09:00:31Z</time>
      </trkpt>
      <trkpt lat="45.6932" lon="4.29356">
        <ele>373.4</ele>
        <time>2023-02-19T09:00:33Z</time>
      </trkpt>
      <trkpt lat="45.69318" lon="4.29356">
        <ele>373.5</ele>
        <time>2023-02-19T09:00:34Z</time>
      </trkpt>
      <trkpt lat="45.69317" lon="4.29357">
        <ele>373.5</ele>
        <time>2023-02-19T09:00:35Z</time>
      </trkpt>
      <trkpt lat="45.69315" lon="4.29359">
        <ele>373.5</ele>
        <time>2023-02-19T09:00:36Z</time>
      </trkpt>
      <trkpt lat="45.69315" lon="4.29359">
        <ele>373.5</ele>
        <time>2023-02-19T09:00:37Z</time>
      </trkpt>
      <trkpt lat="45.69314" lon="4.2936">
        <ele>373.5</ele>
        <time>2023-02-19T09:00:38Z</time>
      </trkpt>
      <trkpt lat="45.69313" lon="4.29361">
        <ele>373.5</ele>
        <time>2023-02-19T09:00:39Z</time>
      </trkpt>
      <trkpt lat="45.69312" lon="4.29361">
        <ele>373.5</ele>
        <time>2023-02-19T09:00:40Z</time>
      </trkpt>
      <trkpt lat="45.69311" lon="4.29362">
        <ele>373.5</ele>
        <time>2023-02-19T09:00:41Z</time>
      </trkpt>
      <trkpt lat="45.6931" lon="4.29364">
        <ele>373.6</ele>
        <time>2023-02-19T09:00:43Z</time>
      </trkpt>
      <trkpt lat="45.69309" lon="4.29365">
        <ele>373.6</ele>
        <time>2023-02-19T09:00:44Z</time>
      </trkpt>
      <trkpt lat="45.69308" lon="4.29366">
        <ele>373.6</ele>
        <time>2023-02-19T09:00:45Z</time>
      </trkpt>
      <trkpt lat="45.69306" lon="4.29368">
        <ele>373.6</ele>
        <time>2023-02-19T09:00:46Z</time>
      </trkpt>
      <trkpt lat="45.69305" lon="4.29369">
        <ele>373.7</ele>
        <time>2023-02-19T09:00:47Z</time>
      </trkpt>
      <trkpt lat="45.69303" lon="4.29373">
        <ele>373.7</ele>
        <time>2023-02-19T09:00:49Z</time>
      </trkpt>
      <trkpt lat="45.69302" lon="4.29374">
        <ele>373.7</ele>
        <time>2023-02-19T09:00:50Z</time>
      </trkpt>
      <trkpt lat="45.69301" lon="4.29376">
        <ele>373.8</ele>
        <time>2023-02-19T09:00:51Z</time>
      </trkpt>
      <trkpt lat="45.69298" lon="4.29379">
        <ele>373.9</ele>
        <time>2023-02-19T09:00:53Z</time>
      </trkpt>
      <trkpt lat="45.69297" lon="4.29381">
        <ele>373.9</ele>
        <time>2023-02-19T09:00:54Z</time>
      </trkpt>
      <trkpt lat="45.69296" lon="4.29385">
        <ele>374</ele>
        <time>2023-02-19T09:00:56Z</time>
      </trkpt>
      <trkpt lat="45.69295" lon="4.29386">
        <ele>374</ele>
        <time>2023-02-19T09:00:57Z</time>
      </trkpt>
      <trkpt lat="45.69295" lon="4.29388">
        <ele>374</ele>
        <time>2023-02-19T09:00:58Z</time>
      </trkpt>
      <trkpt lat="45.69294" lon="4.2939">
        <ele>374.1</ele>
        <time>2023-02-19T09:00:59Z</time>
      </trkpt>
      <trkpt lat="45.69293" lon="4.29392">
        <ele>374.1</ele>
        <time>2023-02-19T09:01:00Z</time>
      </trkpt>
      <trkpt lat="45.69293" lon="4.29394">
        <ele>374.2</ele>
        <time>2023-02-19T09:01:01Z</time>
      </trkpt>
      <trkpt lat="45.69292" lon="4.29395">
        <ele>374.2</ele>
        <time>2023-02-19T09:01:02Z</time>
      </trkpt>
      <trkpt lat="45.6929" lon="4.29397">
        <ele>374.2</ele>
        <time>2023-02-19T09:01:03Z</time>
      </trkpt>
      <trkpt lat="45.69289" lon="4.29399">
        <ele>374.3</ele>
        <time>2023-02-19T09:01:05Z</time>
      </trkpt>
      <trkpt lat="45.69288" lon="4.29401">
        <ele>374.3</ele>
        <time>2023-02-19T09:01:06Z</time>
      </trkpt>
      <trkpt lat="45.69287" lon="4.29402">
        <ele>374.4</ele>
        <time>2023-02-19T09:01:07Z</time>
      </trkpt>
      <trkpt lat="45.69286" lon="4.29404">
        <ele>374.4</ele>
        <time>2023-02-19T09:01:08Z</time>
      </trkpt>
      <trkpt lat="45.69283" lon="4.29407">
        <ele>374.5</ele>
        <time>2023-02-19T09:01:09Z</time>
      </trkpt>
      <trkpt lat="45.69283" lon="4.29408">
        <ele>374.6</ele>
        <time>2023-02-19T09:01:10Z</time>
      </trkpt>
      <trkpt lat="45.69282" lon="4.29409">
        <ele>374.6</ele>
        <time>2023-02-19T09:01:11Z</time>
      </trkpt>
      <trkpt lat="45.6928" lon="4.29411">
        <ele>374.7</ele>
        <time>2023-02-19T09:01:12Z</time>
      </trkpt>
      <trkpt lat="45.69278" lon="4.29414">
        <ele>374.8</ele>
        <time>2023-02-19T09:01:14Z</time>
      </trkpt>
      <trkpt lat="45.69277" lon="4.29415">
        <ele>374.9</ele>
        <time>2023-02-19T09:01:15Z</time>
      </trkpt>
      <trkpt lat="45.69275" lon="4.29419">
        <ele>375</ele>
        <time>2023-02-19T09:01:16Z</time>
      </trkpt>
      <trkpt lat="45.69274" lon="4.2942">
        <ele>375</ele>
        <time>2023-02-19T09:01:17Z</time>
      </trkpt>
      <trkpt lat="45.69273" lon="4.29422">
        <ele>375.1</ele>
        <time>2023-02-19T09:01:18Z</time>
      </trkpt>
      <trkpt lat="45.69272" lon="4.29423">
        <ele>375.2</ele>
        <time>2023-02-19T09:01:19Z</time>
      </trkpt>
      <trkpt lat="45.6927" lon="4.29427">
        <ele>375.3</ele>
        <time>2023-02-19T09:01:20Z</time>
      </trkpt>
      <trkpt lat="45.69269" lon="4.29428">
        <ele>375.3</ele>
        <time>2023-02-19T09:01:21Z</time>
      </trkpt>
      <trkpt lat="45.69267" lon="4.29431">
        <ele>375.4</ele>
        <time>2023-02-19T09:01:23Z</time>
      </trkpt>
      <trkpt lat="45.69267" lon="4.29432">
        <ele>375.4</ele>
        <time>2023-02-19T09:01:24Z</time>
      </trkpt>
      <trkpt lat="45.69265" lon="4.29435">
        <ele>375.5</ele>
        <time>2023-02-19T09:01:25Z</time>
      </trkpt>
      <trkpt lat="45.69265" lon="4.29436">
        <ele>375.5</ele>
        <time>2023-02-19T09:01:26Z</time>
      </trkpt>
      <trkpt lat="45.69264" lon="4.29437">
        <ele>375.6</ele>
        <time>2023-02-19T09:01:27Z</time>
      </trkpt>
      <trkpt lat="45.69264" lon="4.29438">
        <ele>375.6</ele>
        <time>2023-02-19T09:01:28Z</time>
      </trkpt>
      <trkpt lat="45.69263" lon="4.29439">
        <ele>375.6</ele>
        <time>2023-02-19T09:01:29Z</time>
      </trkpt>
      <trkpt lat="45.69262" lon="4.2944">
        <ele>375.7</ele>
        <time>2023-02-19T09:01:31Z</time>
      </trkpt>
      <trkpt lat="45.69262" lon="4.29441">
        <ele>375.7</ele>
        <time>2023-02-19T09:01:32Z</time>
      </trkpt>
      <trkpt lat="45.69261" lon="4.29442">
        <ele>375.7</ele>
        <time>2023-02-19T09:01:33Z</time>
      </trkpt>
      <trkpt lat="45.6926" lon="4.29444">
        <ele>375.8</ele>
        <time>2023-02-19T09:01:34Z</time>
      </trkpt>
      <trkpt lat="45.69259" lon="4.29446">
        <ele>375.8</ele>
        <time>2023-02-19T09:01:35Z</time>
      </trkpt>
      <trkpt lat="45.69258" lon="4.29448">
        <ele>375.9</ele>
        <time>2023-02-19T09:01:36Z</time>
      </trkpt>
      <trkpt lat="45.69258" lon="4.2945">
        <ele>375.9</ele>
        <time>2023-02-19T09:01:37Z</time>
      </trkpt>
      <trkpt lat="45.69257" lon="4.29452">
        <ele>375.9</ele>
        <time>2023-02-19T09:01:38Z</time>
      </trkpt>
      <trkpt lat="45.69256" lon="4.29454">
        <ele>376</ele>
        <time>2023-02-19T09:01:39Z</time>
      </trkpt>
      <trkpt lat="45.69255" lon="4.29456">
        <ele>376</ele>
        <time>2023-02-19T09:01:40Z</time>
      </trkpt>
      <trkpt lat="45.69254" lon="4.29458">
        <ele>376</ele>
        <time>2023-02-19T09:01:41Z</time>
      </trkpt>
      <trkpt lat="45.69253" lon="4.29459">
        <ele>376</ele>
        <time>2023-02-19T09:01:43Z</time>
      </trkpt>
      <trkpt lat="45.69252" lon="4.29461">
        <ele>376</ele>
        <time>2023-02-19T09:01:44Z</time>
      </trkpt>
      <trkpt lat="45.69251" lon="4.29462">
        <ele>376</ele>
        <time>2023-02-19T09:01:45Z</time>
      </trkpt>
      <trkpt lat="45.69249" lon="4.29463">
        <ele>376</ele>
        <time>2023-02-19T09:01:46Z</time>
      </trkpt>
      <trkpt lat="45.69248" lon="4.29463">
        <ele>376</ele>
        <time>2023-02-19T09:01:47Z</time>
      </trkpt>
      <trkpt lat="45.69247" lon="4.29463">
        <ele>376</ele>
        <time>2023-02-19T09:01:48Z</time>
      </trkpt>
      <trkpt lat="45.69246" lon="4.29463">
        <ele>376</ele>
        <time>2023-02-19T09:01:49Z</time>
      </trkpt>
      <trkpt lat="45.69245" lon="4.29463">
        <ele>376</ele>
        <time>2023-02-19T09:01:51Z</time>
      </trkpt>
      <trkpt lat="45.69244" lon="4.29462">
        <ele>376</ele>
        <time>2023-02-19T09:01:52Z</time>
      </trkpt>
      <trkpt lat="45.69242" lon="4.29461">
        <ele>375.9</ele>
        <time>2023-02-19T09:01:53Z</time>
      </trkpt>
      <trkpt lat="45.69241" lon="4.2946">
        <ele>375.9</ele>
        <time>2023-02-19T09:01:54Z</time>
      </trkpt>
      <trkpt lat="45.6924" lon="4.29459">
        <ele>375.9</ele>
        <time>2023-02-19T09:01:55Z</time>
      </trkpt>
      <trkpt lat="45.69239" lon="4.29457">
        <ele>375.9</ele>
        <time>2023-02-19T09:01:56Z</time>
      </trkpt>
      <trkpt lat="45.69239" lon="4.29456">
        <ele>375.8</ele>
        <time>2023-02-19T09:01:58Z</time>
      </trkpt>
      <trkpt lat="45.69238" lon="4.29455">
        <ele>375.8</ele>
        <time>2023-02-19T09:01:59Z</time>
      </trkpt>
      <trkpt lat="45.69238" lon="4.29453">
        <ele>375.8</ele>
        <time>2023-02-19T09:02:00Z</time>
      </trkpt>
      <trkpt lat="45.69237" lon="4.29452">
        <ele>375.8</ele>
        <time>2023-02-19T09:02:01Z</time>
      </trkpt>
      <trkpt lat="45.69237" lon="4.29452">
        <ele>375.8</ele>
        <time>2023-02-19T09:02:02Z</time>
      </trkpt>
      <trkpt lat="45.69236" lon="4.29451">
        <ele>375.7</ele>
        <time>2023-02-19T09:02:03Z</time>
      </trkpt>
      <trkpt lat="45.69236" lon="4.2945">
        <ele>375.7</ele>
        <time>2023-02-19T09:02:04Z</time>
      </trkpt>
      <trkpt lat="45.69235" lon="4.29449">
        <ele>375.7</ele>
        <time>2023-02-19T09:02:05Z</time>
      </trkpt>
      <trkpt lat="45.69234" lon="4.29448">
        <ele>375.7</ele>
        <time>2023-02-19T09:02:06Z</time>
      </trkpt>
      <trkpt lat="45.69232" lon="4.29446">
        <ele>375.6</ele>
        <time>2023-02-19T09:02:07Z</time>
      </trkpt>
      <trkpt lat="45.69231" lon="4.29445">
        <ele>375.6</ele>
        <time>2023-02-19T09:02:08Z</time>
      </trkpt>
      <trkpt lat="45.69231" lon="4.29444">
        <ele>375.6</ele>
        <time>2023-02-19T09:02:09Z</time>
      </trkpt>
      <trkpt lat="45.69229" lon="4.29442">
        <ele>375.5</ele>
        <time>2023-02-19T09:02:10Z</time>
      </trkpt>
      <trkpt lat="45.69228" lon="4.29441">
        <ele>375.5</ele>
        <time>2023-02-19T09:02:12Z</time>
      </trkpt>
      <trkpt lat="45.69227" lon="4.29439">
        <ele>375.5</ele>
        <time>2023-02-19T09:02:13Z</time>
      </trkpt>
      <trkpt lat="45.69226" lon="4.29438">
        <ele>375.5</ele>
        <time>2023-02-19T09:02:14Z</time>
      </trkpt>
      <trkpt lat="45.69225" lon="4.29436">
        <ele>375.4</ele>
        <time>2023-02-19T09:02:15Z</time>
      </trkpt>
      <trkpt lat="45.69224" lon="4.29435">
        <ele>375.4</ele>
        <time>2023-02-19T09:02:16Z</time>
      </trkpt>
      <trkpt lat="45.69224" lon="4.29433">
        <ele>375.4</ele>
        <time>2023-02-19T09:02:17Z</time>
      </trkpt>
      <trkpt lat="45.69223" lon="4.29431">
        <ele>375.3</ele>
        <time>2023-02-19T09:02:18Z</time>
      </trkpt>
      <trkpt lat="45.69221" lon="4.29427">
        <ele>375.3</ele>
        <time>2023-02-19T09:02:19Z</time>
      </trkpt>
      <trkpt lat="45.69221" lon="4.29426">
        <ele>375.3</ele>
        <time>2023-02-19T09:02:20Z</time>
      </trkpt>
      <trkpt lat="45.69219" lon="4.29422">
        <ele>375.2</ele>
        <time>2023-02-19T09:02:21Z</time>
      </trkpt>
      <trkpt lat="45.69219" lon="4.29421">
        <ele>375.2</ele>
        <time>2023-02-19T09:02:22Z</time>
      </trkpt>
      <trkpt lat="45.69218" lon="4.29416">
        <ele>375.1</ele>
        <time>2023-02-19T09:02:24Z</time>
      </trkpt>
      <trkpt lat="45.69218" lon="4.29415">
        <ele>375.1</ele>
        <time>2023-02-19T09:02:25Z</time>
      </trkpt>
      <trkpt lat="45.69217" lon="4.29411">
        <ele>375.1</ele>
        <time>2023-02-19T09:02:26Z</time>
      </trkpt>
      <trkpt lat="45.69217" lon="4.29409">
        <ele>375.1</ele>
        <time>2023-02-19T09:02:27Z</time>
      </trkpt>
      <trkpt lat="45.69216" lon="4.29407">
        <ele>375</ele>
        <time>2023-02-19T09:02:28Z</time>
      </trkpt>
      <trkpt lat="45.69216" lon="4.29406">
        <ele>375</ele>
        <time>2023-02-19T09:02:29Z</time>
      </trkpt>
      <trkpt lat="45.69216" lon="4.29404">
        <ele>375</ele>
        <time>2023-02-19T09:02:30Z</time>
      </trkpt>
      <trkpt lat="45.69215" lon="4.29402">
        <ele>375</ele>
        <time>2023-02-19T09:02:31Z</time>
      </trkpt>
      <trkpt lat="45.69215" lon="4.29401">
        <ele>375</ele>
        <time>2023-02-19T09:02:32Z</time>
      </trkpt>
      <trkpt lat="45.69215" lon="4.29398">
        <ele>374.9</ele>
        <time>2023-02-19T09:02:33Z</time>
      </trkpt>
      <trkpt lat="45.69214" lon="4.29397">
        <ele>374.9</ele>
        <time>2023-02-19T09:02:35Z</time>
      </trkpt>
      <trkpt lat="45.69214" lon="4.29396">
        <ele>374.9</ele>
        <time>2023-02-19T09:02:36Z</time>
      </trkpt>
      <trkpt lat="45.69213" lon="4.29393">
        <ele>374.9</ele>
        <time>2023-02-19T09:02:37Z</time>
      </trkpt>
      <trkpt lat="45.69213" lon="4.29392">
        <ele>374.9</ele>
        <time>2023-02-19T09:02:38Z</time>
      </trkpt>
      <trkpt lat="45.69213" lon="4.2939">
        <ele>374.8</ele>
        <time>2023-02-19T09:02:39Z</time>
      </trkpt>
      <trkpt lat="45.69212" lon="4.29388">
        <ele>374.8</ele>
        <time>2023-02-19T09:02:41Z</time>
      </trkpt>
      <trkpt lat="45.69212" lon="4.29386">
        <ele>374.8</ele>
        <time>2023-02-19T09:02:42Z</time>
      </trkpt>
      <trkpt lat="45.69212" lon="4.29384">
        <ele>374.8</ele>
        <time>2023-02-19T09:02:43Z</time>
      </trkpt>
      <trkpt lat="45.69211" lon="4.29382">
        <ele>374.7</ele>
        <time>2023-02-19T09:02:44Z</time>
      </trkpt>
      <trkpt lat="45.69211" lon="4.2938">
        <ele>374.7</ele>
        <time>2023-02-19T09:02:45Z</time>
      </trkpt>
      <trkpt lat="45.6921" lon="4.29379">
        <ele>374.7</ele>
        <time>2023-02-19T09:02:47Z</time>
      </trkpt>
      <trkpt lat="45.6921" lon="4.29377">
        <ele>374.6</ele>
        <time>2023-02-19T09:02:48Z</time>
      </trkpt>
      <trkpt lat="45.69209" lon="4.29375">
        <ele>374.6</ele>
        <time>2023-02-19T09:02:49Z</time>
      </trkpt>
      <trkpt lat="45.69208" lon="4.29373">
        <ele>374.6</ele>
        <time>2023-02-19T09:02:50Z</time>
      </trkpt>
      <trkpt lat="45.69208" lon="4.29371">
        <ele>374.6</ele>
        <time>2023-02-19T09:02:51Z</time>
      </trkpt>
      <trkpt lat="45.69207" lon="4.29367">
        <ele>374.5</ele>
        <time>2023-02-19T09:02:52Z</time>
      </trkpt>
      <trkpt lat="45.69206" lon="4.29366">
        <ele>374.5</ele>
        <time>2023-02-19T09:02:53Z</time>
      </trkpt>
      <trkpt lat="45.69206" lon="4.29362">
        <ele>374.5</ele>
        <time>2023-02-19T09:02:54Z</time>
      </trkpt>
      <trkpt lat="45.69205" lon="4.2936">
        <ele>374.5</ele>
        <time>2023-02-19T09:02:55Z</time>
      </trkpt>
      <trkpt lat="45.69204" lon="4.29357">
        <ele>374.4</ele>
        <time>2023-02-19T09:02:56Z</time>
      </trkpt>
      <trkpt lat="45.69203" lon="4.29355">
        <ele>374.4</ele>
        <time>2023-02-19T09:02:57Z</time>
      </trkpt>
      <trkpt lat="45.69202" lon="4.29353">
        <ele>374.4</ele>
        <time>2023-02-19T09:02:58Z</time>
      </trkpt>
      <trkpt lat="45.69201" lon="4.29351">
        <ele>374.4</ele>
        <time>2023-02-19T09:03:00Z</time>
      </trkpt>
      <trkpt lat="45.692" lon="4.29349">
        <ele>374.4</ele>
        <time>2023-02-19T09:03:01Z</time>
      </trkpt>
      <trkpt lat="45.69199" lon="4.29348">
        <ele>374.4</ele>
        <time>2023-02-19T09:03:02Z</time>
      </trkpt>
      <trkpt lat="45.69199" lon="4.29345">
        <ele>374.3</ele>
        <time>2023-02-19T09:03:04Z</time>
      </trkpt>
      <trkpt lat="45.69198" lon="4.29344">
        <ele>374.3</ele>
        <time>2023-02-19T09:03:05Z</time>
      </trkpt>
      <trkpt lat="45.69198" lon="4.29343">
        <ele>374.3</ele>
        <time>2023-02-19T09:03:06Z</time>
      </trkpt>
      <trkpt lat="45.69197" lon="4.29342">
        <ele>374.3</ele>
        <time>2023-02-19T09:03:07Z</time>
      </trkpt>
      <trkpt lat="45.69196" lon="4.29341">
        <ele>374.3</ele>
        <time>2023-02-19T09:03:08Z</time>
      </trkpt>
      <trkpt lat="45.69196" lon="4.2934">
        <ele>374.3</ele>
        <time>2023-02-19T09:03:09Z</time>
      </trkpt>
      <trkpt lat="45.69194" lon="4.29338">
        <ele>374.3</ele>
        <time>2023-02-19T09:03:10Z</time>
      </trkpt>
      <trkpt lat="45.69193" lon="4.29338">
        <ele>374.3</ele>
        <time>2023-02-19T09:03:11Z</time>
      </trkpt>
      <trkpt lat="45.69192" lon="4.29337">
        <ele>374.3</ele>
        <time>2023-02-19T09:03:12Z</time>
      </trkpt>
      <trkpt lat="45.6919" lon="4.29337">
        <ele>374.3</ele>
        <time>2023-02-19T09:03:14Z</time>
      </trkpt>
      <trkpt lat="45.69189" lon="4.29336">
        <ele>374.2</ele>
        <time>2023-02-19T09:03:15Z</time>
      </trkpt>
      <trkpt lat="45.69188" lon="4.29335">
        <ele>374.2</ele>
        <time>2023-02-19T09:03:16Z</time>
      </trkpt>
      <trkpt lat="45.69186" lon="4.29334">
        <ele>374.2</ele>
        <time>2023-02-19T09:03:17Z</time>
      </trkpt>
      <trkpt lat="45.69185" lon="4.29333">
        <ele>374.2</ele>
        <time>2023-02-19T09:03:18Z</time>
      </trkpt>
      <trkpt lat="45.69183" lon="4.29332">
        <ele>374.2</ele>
        <time>2023-02-19T09:03:19Z</time>
      </trkpt>
      <trkpt lat="45.69181" lon="4.29331">
        <ele>374.2</ele>
        <time>2023-02-19T09:03:20Z</time>
      </trkpt>
      <trkpt lat="45.6918" lon="4.29331">
        <ele>374.2</ele>
        <time>2023-02-19T09:03:21Z</time>
      </trkpt>
      <trkpt lat="45.69179" lon="4.29331">
        <ele>374.2</ele>
        <time>2023-02-19T09:03:22Z</time>
      </trkpt>
      <trkpt lat="45.69177" lon="4.29331">
        <ele>374.2</ele>
        <time>2023-02-19T09:03:23Z</time>
      </trkpt>
      <trkpt lat="45.69174" lon="4.2933">
        <ele>374.2</ele>
        <time>2023-02-19T09:03:25Z</time>
      </trkpt>
      <trkpt lat="45.69173" lon="4.2933">
        <ele>374.2</ele>
        <time>2023-02-19T09:03:26Z</time>
      </trkpt>
      <trkpt lat="45.69171" lon="4.2933">
        <ele>374.2</ele>
        <time>2023-02-19T09:03:27Z</time>
      </trkpt>
      <trkpt lat="45.6917" lon="4.2933">
        <ele>374.2</ele>
        <time>2023-02-19T09:03:28Z</time>
      </trkpt>
      <trkpt lat="45.69168" lon="4.2933">
        <ele>374.3</ele>
        <time>2023-02-19T09:03:29Z</time>
      </trkpt>
      <trkpt lat="45.69167" lon="4.2933">
        <ele>374.3</ele>
        <time>2023-02-19T09:03:30Z</time>
      </trkpt>
      <trkpt lat="45.69166" lon="4.2933">
        <ele>374.3</ele>
        <time>2023-02-19T09:03:31Z</time>
      </trkpt>
      <trkpt lat="45.69165" lon="4.2933">
        <ele>374.3</ele>
        <time>2023-02-19T09:03:32Z</time>
      </trkpt>
      <trkpt lat="45.69164" lon="4.2933">
        <ele>374.3</ele>
        <time>2023-02-19T09:03:33Z</time>
      </trkpt>
      <trkpt lat="45.69161" lon="4.2933">
        <ele>374.3</ele>
        <time>2023-02-19T09:03:35Z</time>
      </trkpt>
      <trkpt lat="45.69158" lon="4.2933">
        <ele>374.4</ele>
        <time>2023-02-19T09:03:37Z</time>
      </trkpt>
      <trkpt lat="45.69158" lon="4.2933">
        <ele>374.4</ele>
        <time>2023-02-19T09:03:38Z</time>
      </trkpt>
      <trkpt lat="45.69155" lon="4.29331">
        <ele>374.4</ele>
        <time>2023-02-19T09:03:39Z</time>
      </trkpt>
      <trkpt lat="45.69155" lon="4.29331">
        <ele>374.4</ele>
        <time>2023-02-19T09:03:40Z</time>
      </trkpt>
      <trkpt lat="45.69154" lon="4.29331">
        <ele>374.4</ele>
        <time>2023-02-19T09:03:41Z</time>
      </trkpt>
      <trkpt lat="45.69152" lon="4.29331">
        <ele>374.4</ele>
        <time>2023-02-19T09:03:42Z</time>
      </trkpt>
      <trkpt lat="45.69151" lon="4.29331">
        <ele>374.5</ele>
        <time>2023-02-19T09:03:43Z</time>
      </trkpt>
      <trkpt lat="45.69149" lon="4.29331">
        <ele>374.5</ele>
        <time>2023-02-19T09:03:45Z</time>
      </trkpt>
      <trkpt lat="45.69148" lon="4.29331">
        <ele>374.5</ele>
        <time>2023-02-19T09:03:46Z</time>
      </trkpt>
      <trkpt lat="45.69147" lon="4.29331">
        <ele>374.5</ele>
        <time>2023-02-19T09:03:47Z</time>
      </trkpt>
      <trkpt lat="45.69145" lon="4.29332">
        <ele>374.5</ele>
        <time>2023-02-19T09:03:48Z</time>
      </trkpt>
      <trkpt lat="45.69144" lon="4.29333">
        <ele>374.6</ele>
        <time>2023-02-19T09:03:49Z</time>
      </trkpt>
      <trkpt lat="45.69142" lon="4.29334">
        <ele>374.6</ele>
        <time>2023-02-19T09:03:50Z</time>
      </trkpt>
      <trkpt lat="45.69141" lon="4.29335">
        <ele>374.6</ele>
        <time>2023-02-19T09:03:52Z</time>
      </trkpt>
      <trkpt lat="45.6914" lon="4.29336">
        <ele>374.6</ele>
        <time>2023-02-19T09:03:53Z</time>
      </trkpt>
      <trkpt lat="45.69139" lon="4.29337">
        <ele>374.6</ele>
        <time>2023-02-19T09:03:54Z</time>
      </trkpt>
      <trkpt lat="45.69138" lon="4.29339">
        <ele>374.7</ele>
        <time>2023-02-19T09:03:55Z</time>
      </trkpt>
      <trkpt lat="45.69137" lon="4.2934">
        <ele>374.7</ele>
        <time>2023-02-19T09:03:56Z</time>
      </trkpt>
      <trkpt lat="45.69136" lon="4.29341">
        <ele>374.7</ele>
        <time>2023-02-19T09:03:57Z</time>
      </trkpt>
      <trkpt lat="45.69135" lon="4.29342">
        <ele>374.7</ele>
        <time>2023-02-19T09:03:58Z</time>
      </trkpt>
      <trkpt lat="45.69134" lon="4.29343">
        <ele>374.8</ele>
        <time>2023-02-19T09:03:59Z</time>
      </trkpt>
      <trkpt lat="45.69133" lon="4.29343">
        <ele>374.8</ele>
        <time>2023-02-19T09:04:00Z</time>
      </trkpt>
      <trkpt lat="45.69132" lon="4.29344">
        <ele>374.8</ele>
        <time>2023-02-19T09:04:02Z</time>
      </trkpt>
      <trkpt lat="45.6913" lon="4.29345">
        <ele>374.8</ele>
        <time>2023-02-19T09:04:03Z</time>
      </trkpt>
      <trkpt lat="45.69129" lon="4.29346">
        <ele>374.9</ele>
        <time>2023-02-19T09:04:05Z</time>
      </trkpt>
      <trkpt lat="45.69128" lon="4.29347">
        <ele>374.9</ele>
        <time>2023-02-19T09:04:06Z</time>
      </trkpt>
      <trkpt lat="45.69126" lon="4.29349">
        <ele>374.9</ele>
        <time>2023-02-19T09:04:07Z</time>
      </trkpt>
      <trkpt lat="45.69125" lon="4.2935">
        <ele>375</ele>
        <time>2023-02-19T09:04:08Z</time>
      </trkpt>
      <trkpt lat="45.69124" lon="4.29351">
        <ele>375</ele>
        <time>2023-02-19T09:04:09Z</time>
      </trkpt>
      <trkpt lat="45.69122" lon="4.29354">
        <ele>375</ele>
        <time>2023-02-19T09:04:10Z</time>
      </trkpt>
      <trkpt lat="45.69121" lon="4.29354">
        <ele>375.1</ele>
        <time>2023-02-19T09:04:11Z</time>
      </trkpt>
      <trkpt lat="45.69119" lon="4.29357">
        <ele>375.1</ele>
        <time>2023-02-19T09:04:12Z</time>
      </trkpt>
      <trkpt lat="45.69118" lon="4.29358">
        <ele>375.2</ele>
        <time>2023-02-19T09:04:14Z</time>
      </trkpt>
      <trkpt lat="45.69116" lon="4.29359">
        <ele>375.2</ele>
        <time>2023-02-19T09:04:15Z</time>
      </trkpt>
      <trkpt lat="45.69115" lon="4.2936">
        <ele>375.3</ele>
        <time>2023-02-19T09:04:16Z</time>
      </trkpt>
      <trkpt lat="45.69115" lon="4.29362">
        <ele>375.3</ele>
        <time>2023-02-19T09:04:17Z</time>
      </trkpt>
      <trkpt lat="45.69113" lon="4.29363">
        <ele>375.3</ele>
        <time>2023-02-19T09:04:18Z</time>
      </trkpt>
      <trkpt lat="45.6911" lon="4.29365">
        <ele>375.4</ele>
        <time>2023-02-19T09:04:19Z</time>
      </trkpt>
      <trkpt lat="45.69109" lon="4.29366">
        <ele>375.4</ele>
        <time>2023-02-19T09:04:21Z</time>
      </trkpt>
      <trkpt lat="45.69107" lon="4.29366">
        <ele>375.4</ele>
        <time>2023-02-19T09:04:23Z</time>
      </trkpt>
      <trkpt lat="45.69106" lon="4.29367">
        <ele>375.5</ele>
        <time>2023-02-19T09:04:24Z</time>
      </trkpt>
      <trkpt lat="45.69104" lon="4.29368">
        <ele>375.5</ele>
        <time>2023-02-19T09:04:25Z</time>
      </trkpt>
      <trkpt lat="45.69103" lon="4.29368">
        <ele>375.5</ele>
        <time>2023-02-19T09:04:26Z</time>
      </trkpt>
      <trkpt lat="45.69102" lon="4.29369">
        <ele>375.6</ele>
        <time>2023-02-19T09:04:27Z</time>
      </trkpt>
      <trkpt lat="45.691" lon="4.29369">
        <ele>375.6</ele>
        <time>2023-02-19T09:04:28Z</time>
      </trkpt>
      <trkpt lat="45.69097" lon="4.29368">
        <ele>375.6</ele>
        <time>2023-02-19T09:04:30Z</time>
      </trkpt>
      <trkpt lat="45.69096" lon="4.29368">
        <ele>375.7</ele>
        <time>2023-02-19T09:04:32Z</time>
      </trkpt>
      <trkpt lat="45.69095" lon="4.29367">
        <ele>375.7</ele>
        <time>2023-02-19T09:04:33Z</time>
      </trkpt>
      <trkpt lat="45.69092" lon="4.29366">
        <ele>375.7</ele>
        <time>2023-02-19T09:04:34Z</time>
      </trkpt>
      <trkpt lat="45.69091" lon="4.29366">
        <ele>375.8</ele>
        <time>2023-02-19T09:04:35Z</time>
      </trkpt>
      <trkpt lat="45.6909" lon="4.29365">
        <ele>375.8</ele>
        <time>2023-02-19T09:04:36Z</time>
      </trkpt>
      <trkpt lat="45.69089" lon="4.29365">
        <ele>375.8</ele>
        <time>2023-02-19T09:04:37Z</time>
      </trkpt>
      <trkpt lat="45.69087" lon="4.29365">
        <ele>375.9</ele>
        <time>2023-02-19T09:04:38Z</time>
      </trkpt>
      <trkpt lat="45.69084" lon="4.29364">
        <ele>375.9</ele>
        <time>2023-02-19T09:04:40Z</time>
      </trkpt>
      <trkpt lat="45.69083" lon="4.29364">
        <ele>376</ele>
        <time>2023-02-19T09:04:42Z</time>
      </trkpt>
      <trkpt lat="45.69081" lon="4.29364">
        <ele>376</ele>
        <time>2023-02-19T09:04:43Z</time>
      </trkpt>
      <trkpt lat="45.6908" lon="4.29364">
        <ele>376</ele>
        <time>2023-02-19T09:04:44Z</time>
      </trkpt>
      <trkpt lat="45.69078" lon="4.29364">
        <ele>376.1</ele>
        <time>2023-02-19T09:04:45Z</time>
      </trkpt>
      <trkpt lat="45.69075" lon="4.29364">
        <ele>376.2</ele>
        <time>2023-02-19T09:04:46Z</time>
      </trkpt>
      <trkpt lat="45.69074" lon="4.29364">
        <ele>376.2</ele>
        <time>2023-02-19T09:04:47Z</time>
      </trkpt>
      <trkpt lat="45.69072" lon="4.29364">
        <ele>376.2</ele>
        <time>2023-02-19T09:04:48Z</time>
      </trkpt>
      <trkpt lat="45.69069" lon="4.29364">
        <ele>376.3</ele>
        <time>2023-02-19T09:04:50Z</time>
      </trkpt>
      <trkpt lat="45.69067" lon="4.29365">
        <ele>376.3</ele>
        <time>2023-02-19T09:04:51Z</time>
      </trkpt>
      <trkpt lat="45.69066" lon="4.29365">
        <ele>376.4</ele>
        <time>2023-02-19T09:04:52Z</time>
      </trkpt>
      <trkpt lat="45.69064" lon="4.29365">
        <ele>376.4</ele>
        <time>2023-02-19T09:04:53Z</time>
      </trkpt>
      <trkpt lat="45.69063" lon="4.29366">
        <ele>376.4</ele>
        <time>2023-02-19T09:04:54Z</time>
      </trkpt>
      <trkpt lat="45.69062" lon="4.29367">
        <ele>376.4</ele>
        <time>2023-02-19T09:04:55Z</time>
      </trkpt>
      <trkpt lat="45.6906" lon="4.29368">
        <ele>376.5</ele>
        <time>2023-02-19T09:04:56Z</time>
      </trkpt>
      <trkpt lat="45.69059" lon="4.29369">
        <ele>376.5</ele>
        <time>2023-02-19T09:04:57Z</time>
      </trkpt>
      <trkpt lat="45.69057" lon="4.2937">
        <ele>376.5</ele>
        <time>2023-02-19T09:04:59Z</time>
      </trkpt>
      <trkpt lat="45.69056" lon="4.2937">
        <ele>376.5</ele>
        <time>2023-02-19T09:05:00Z</time>
      </trkpt>
      <trkpt lat="45.69054" lon="4.29371">
        <ele>376.5</ele>
        <time>2023-02-19T09:05:01Z</time>
      </trkpt>
      <trkpt lat="45.69052" lon="4.29371">
        <ele>376.6</ele>
        <time>2023-02-19T09:05:02Z</time>
      </trkpt>
      <trkpt lat="45.69051" lon="4.29372">
        <ele>376.6</ele>
        <time>2023-02-19T09:05:03Z</time>
      </trkpt>
      <trkpt lat="45.69048" lon="4.29373">
        <ele>376.6</ele>
        <time>2023-02-19T09:05:04Z</time>
      </trkpt>
      <trkpt lat="45.69047" lon="4.29374">
        <ele>376.6</ele>
        <time>2023-02-19T09:05:05Z</time>
      </trkpt>
      <trkpt lat="45.69044" lon="4.29375">
        <ele>376.6</ele>
        <time>2023-02-19T09:05:06Z</time>
      </trkpt>
      <trkpt lat="45.69043" lon="4.29375">
        <ele>376.6</ele>
        <time>2023-02-19T09:05:07Z</time>
      </trkpt>
      <trkpt lat="45.69042" lon="4.29376">
        <ele>376.6</ele>
        <time>2023-02-19T09:05:09Z</time>
      </trkpt>
      <trkpt lat="45.6904" lon="4.29377">
        <ele>376.6</ele>
        <time>2023-02-19T09:05:10Z</time>
      </trkpt>
      <trkpt lat="45.69039" lon="4.29377">
        <ele>376.6</ele>
        <time>2023-02-19T09:05:11Z</time>
      </trkpt>
      <trkpt lat="45.69038" lon="4.29377">
        <ele>376.7</ele>
        <time>2023-02-19T09:05:12Z</time>
      </trkpt>
      <trkpt lat="45.69036" lon="4.29378">
        <ele>376.7</ele>
        <time>2023-02-19T09:05:13Z</time>
      </trkpt>
      <trkpt lat="45.69035" lon="4.29378">
        <ele>376.7</ele>
        <time>2023-02-19T09:05:14Z</time>
      </trkpt>
      <trkpt lat="45.69034" lon="4.29378">
        <ele>376.7</ele>
        <time>2023-02-19T09:05:15Z</time>
      </trkpt>
      <trkpt lat="45.69033" lon="4.29378">
        <ele>376.7</ele>
        <time>2023-02-19T09:05:16Z</time>
      </trkpt>
      <trkpt lat="45.69032" lon="4.29377">
        <ele>376.7</ele>
        <time>2023-02-19T09:05:17Z</time>
      </trkpt>
      <trkpt lat="45.69031" lon="4.29377">
        <ele>376.7</ele>
        <time>2023-02-19T09:05:19Z</time>
      </trkpt>
      <trkpt lat="45.6903" lon="4.29377">
        <ele>376.7</ele>
        <time>2023-02-19T09:05:20Z</time>
      </trkpt>
      <trkpt lat="45.69028" lon="4.29376">
        <ele>376.7</ele>
        <time>2023-02-19T09:05:21Z</time>
      </trkpt>
      <trkpt lat="45.69027" lon="4.29376">
        <ele>376.7</ele>
        <time>2023-02-19T09:05:22Z</time>
      </trkpt>
      <trkpt lat="45.69026" lon="4.29375">
        <ele>376.7</ele>
        <time>2023-02-19T09:05:23Z</time>
      </trkpt>
      <trkpt lat="45.69025" lon="4.29374">
        <ele>376.7</ele>
        <time>2023-02-19T09:05:24Z</time>
      </trkpt>
      <trkpt lat="45.69024" lon="4.29373">
        <ele>376.7</ele>
        <time>2023-02-19T09:05:25Z</time>
      </trkpt>
      <trkpt lat="45.69023" lon="4.29372">
        <ele>376.7</ele>
        <time>2023-02-19T09:05:26Z</time>
      </trkpt>
      <trkpt lat="45.69022" lon="4.2937">
        <ele>376.7</ele>
        <time>2023-02-19T09:05:28Z</time>
      </trkpt>
      <trkpt lat="45.69022" lon="4.29369">
        <ele>376.7</ele>
        <time>2023-02-19T09:05:30Z</time>
      </trkpt>
      <trkpt lat="45.69021" lon="4.29368">
        <ele>376.7</ele>
        <time>2023-02-19T09:05:31Z</time>
      </trkpt>
      <trkpt lat="45.6902" lon="4.29367">
        <ele>376.6</ele>
        <time>2023-02-19T09:05:32Z</time>
      </trkpt>
      <trkpt lat="45.69017" lon="4.29366">
        <ele>376.6</ele>
        <time>2023-02-19T09:05:34Z</time>
      </trkpt>
      <trkpt lat="45.69016" lon="4.29366">
        <ele>376.6</ele>
        <time>2023-02-19T09:05:35Z</time>
      </trkpt>
      <trkpt lat="45.69015" lon="4.29365">
        <ele>376.6</ele>
        <time>2023-02-19T09:05:36Z</time>
      </trkpt>
      <trkpt lat="45.69013" lon="4.29365">
        <ele>376.6</ele>
        <time>2023-02-19T09:05:37Z</time>
      </trkpt>
      <trkpt lat="45.69012" lon="4.29364">
        <ele>376.6</ele>
        <time>2023-02-19T09:05:38Z</time>
      </trkpt>
      <trkpt lat="45.6901" lon="4.29364">
        <ele>376.6</ele>
        <time>2023-02-19T09:05:39Z</time>
      </trkpt>
      <trkpt lat="45.69009" lon="4.29365">
        <ele>376.6</ele>
        <time>2023-02-19T09:05:40Z</time>
      </trkpt>
      <trkpt lat="45.69007" lon="4.29365">
        <ele>376.5</ele>
        <time>2023-02-19T09:05:42Z</time>
      </trkpt>
      <trkpt lat="45.69005" lon="4.29365">
        <ele>376.5</ele>
        <time>2023-02-19T09:05:43Z</time>
      </trkpt>
      <trkpt lat="45.69004" lon="4.29365">
        <ele>376.5</ele>
        <time>2023-02-19T09:05:44Z</time>
      </trkpt>
      <trkpt lat="45.69001" lon="4.29365">
        <ele>376.5</ele>
        <time>2023-02-19T09:05:45Z</time>
      </trkpt>
      <trkpt lat="45.69" lon="4.29364">
        <ele>376.5</ele>
        <time>2023-02-19T09:05:46Z</time>
      </trkpt>
      <trkpt lat="45.68997" lon="4.29364">
        <ele>376.5</ele>
        <time>2023-02-19T09:05:47Z</time>
      </trkpt>
      <trkpt lat="45.68996" lon="4.29364">
        <ele>376.5</ele>
        <time>2023-02-19T09:05:48Z</time>
      </trkpt>
      <trkpt lat="45.68993" lon="4.29363">
        <ele>376.5</ele>
        <time>2023-02-19T09:05:49Z</time>
      </trkpt>
      <trkpt lat="45.68992" lon="4.29363">
        <ele>376.4</ele>
        <time>2023-02-19T09:05:50Z</time>
      </trkpt>
      <trkpt lat="45.6899" lon="4.29362">
        <ele>376.4</ele>
        <time>2023-02-19T09:05:51Z</time>
      </trkpt>
      <trkpt lat="45.68988" lon="4.29362">
        <ele>376.4</ele>
        <time>2023-02-19T09:05:53Z</time>
      </trkpt>
      <trkpt lat="45.68986" lon="4.2936">
        <ele>376.4</ele>
        <time>2023-02-19T09:05:54Z</time>
      </trkpt>
      <trkpt lat="45.68985" lon="4.29359">
        <ele>376.4</ele>
        <time>2023-02-19T09:05:55Z</time>
      </trkpt>
      <trkpt lat="45.68982" lon="4.29358">
        <ele>376.4</ele>
        <time>2023-02-19T09:05:56Z</time>
      </trkpt>
      <trkpt lat="45.68982" lon="4.29357">
        <ele>376.4</ele>
        <time>2023-02-19T09:05:57Z</time>
      </trkpt>
      <trkpt lat="45.68979" lon="4.29356">
        <ele>376.4</ele>
        <time>2023-02-19T09:05:58Z</time>
      </trkpt>
      <trkpt lat="45.68978" lon="4.29355">
        <ele>376.4</ele>
        <time>2023-02-19T09:05:59Z</time>
      </trkpt>
      <trkpt lat="45.68976" lon="4.29354">
        <ele>376.4</ele>
        <time>2023-02-19T09:06:00Z</time>
      </trkpt>
      <trkpt lat="45.68975" lon="4.29353">
        <ele>376.4</ele>
        <time>2023-02-19T09:06:01Z</time>
      </trkpt>
      <trkpt lat="45.68972" lon="4.29352">
        <ele>376.4</ele>
        <time>2023-02-19T09:06:02Z</time>
      </trkpt>
      <trkpt lat="45.68971" lon="4.29351">
        <ele>376.4</ele>
        <time>2023-02-19T09:06:04Z</time>
      </trkpt>
      <trkpt lat="45.6897" lon="4.29351">
        <ele>376.4</ele>
        <time>2023-02-19T09:06:05Z</time>
      </trkpt>
      <trkpt lat="45.68969" lon="4.2935">
        <ele>376.4</ele>
        <time>2023-02-19T09:06:06Z</time>
      </trkpt>
      <trkpt lat="45.68967" lon="4.29349">
        <ele>376.4</ele>
        <time>2023-02-19T09:06:08Z</time>
      </trkpt>
      <trkpt lat="45.68966" lon="4.29348">
        <ele>376.4</ele>
        <time>2023-02-19T09:06:09Z</time>
      </trkpt>
      <trkpt lat="45.68964" lon="4.29347">
        <ele>376.5</ele>
        <time>2023-02-19T09:06:10Z</time>
      </trkpt>
      <trkpt lat="45.68963" lon="4.29347">
        <ele>376.5</ele>
        <time>2023-02-19T09:06:11Z</time>
      </trkpt>
      <trkpt lat="45.6896" lon="4.29345">
        <ele>376.5</ele>
        <time>2023-02-19T09:06:12Z</time>
      </trkpt>
      <trkpt lat="45.68959" lon="4.29345">
        <ele>376.5</ele>
        <time>2023-02-19T09:06:13Z</time>
      </trkpt>
      <trkpt lat="45.68956" lon="4.29343">
        <ele>376.4</ele>
        <time>2023-02-19T09:06:15Z</time>
      </trkpt>
      <trkpt lat="45.68953" lon="4.29342">
        <ele>376.4</ele>
        <time>2023-02-19T09:06:17Z</time>
      </trkpt>
      <trkpt lat="45.68952" lon="4.29342">
        <ele>376.4</ele>
        <time>2023-02-19T09:06:18Z</time>
      </trkpt>
      <trkpt lat="45.68949" lon="4.29341">
        <ele>376.4</ele>
        <time>2023-02-19T09:06:19Z</time>
      </trkpt>
      <trkpt lat="45.68949" lon="4.29341">
        <ele>376.4</ele>
        <time>2023-02-19T09:06:20Z</time>
      </trkpt>
      <trkpt lat="45.68947" lon="4.2934">
        <ele>376.3</ele>
        <time>2023-02-19T09:06:21Z</time>
      </trkpt>
      <trkpt lat="45.68946" lon="4.29339">
        <ele>376.3</ele>
        <time>2023-02-19T09:06:22Z</time>
      </trkpt>
      <trkpt lat="45.68944" lon="4.29339">
        <ele>376.3</ele>
        <time>2023-02-19T09:06:23Z</time>
      </trkpt>
      <trkpt lat="45.68943" lon="4.29338">
        <ele>376.3</ele>
        <time>2023-02-19T09:06:24Z</time>
      </trkpt>
      <trkpt lat="45.68941" lon="4.29337">
        <ele>376.3</ele>
        <time>2023-02-19T09:06:25Z</time>
      </trkpt>
      <trkpt lat="45.6894" lon="4.29337">
        <ele>376.3</ele>
        <time>2023-02-19T09:06:27Z</time>
      </trkpt>
      <trkpt lat="45.68939" lon="4.29336">
        <ele>376.3</ele>
        <time>2023-02-19T09:06:28Z</time>
      </trkpt>
      <trkpt lat="45.68937" lon="4.29336">
        <ele>376.3</ele>
        <time>2023-02-19T09:06:29Z</time>
      </trkpt>
      <trkpt lat="45.68935" lon="4.29335">
        <ele>376.3</ele>
        <time>2023-02-19T09:06:30Z</time>
      </trkpt>
      <trkpt lat="45.68934" lon="4.29334">
        <ele>376.2</ele>
        <time>2023-02-19T09:06:31Z</time>
      </trkpt>
      <trkpt lat="45.68932" lon="4.29334">
        <ele>376.2</ele>
        <time>2023-02-19T09:06:32Z</time>
      </trkpt>
      <trkpt lat="45.6893" lon="4.29334">
        <ele>376.2</ele>
        <time>2023-02-19T09:06:33Z</time>
      </trkpt>
      <trkpt lat="45.68927" lon="4.29332">
        <ele>376.2</ele>
        <time>2023-02-19T09:06:34Z</time>
      </trkpt>
      <trkpt lat="45.68926" lon="4.29332">
        <ele>376.2</ele>
        <time>2023-02-19T09:06:35Z</time>
      </trkpt>
      <trkpt lat="45.68924" lon="4.29332">
        <ele>376.2</ele>
        <time>2023-02-19T09:06:36Z</time>
      </trkpt>
      <trkpt lat="45.68923" lon="4.29331">
        <ele>376.2</ele>
        <time>2023-02-19T09:06:38Z</time>
      </trkpt>
      <trkpt lat="45.68921" lon="4.29331">
        <ele>376.2</ele>
        <time>2023-02-19T09:06:39Z</time>
      </trkpt>
      <trkpt lat="45.68919" lon="4.29331">
        <ele>376.2</ele>
        <time>2023-02-19T09:06:40Z</time>
      </trkpt>
      <trkpt lat="45.68918" lon="4.2933">
        <ele>376.2</ele>
        <time>2023-02-19T09:06:41Z</time>
      </trkpt>
      <trkpt lat="45.68916" lon="4.2933">
        <ele>376.2</ele>
        <time>2023-02-19T09:06:42Z</time>
      </trkpt>
      <trkpt lat="45.68914" lon="4.29329">
        <ele>376.2</ele>
        <time>2023-02-19T09:06:43Z</time>
      </trkpt>
      <trkpt lat="45.68912" lon="4.29328">
        <ele>376.2</ele>
        <time>2023-02-19T09:06:44Z</time>
      </trkpt>
      <trkpt lat="45.68911" lon="4.29328">
        <ele>376.2</ele>
        <time>2023-02-19T09:06:45Z</time>
      </trkpt>
      <trkpt lat="45.6891" lon="4.29328">
        <ele>376.2</ele>
        <time>2023-02-19T09:06:46Z</time>
      </trkpt>
      <trkpt lat="45.68908" lon="4.29327">
        <ele>376.2</ele>
        <time>2023-02-19T09:06:47Z</time>
      </trkpt>
      <trkpt lat="45.68907" lon="4.29327">
        <ele>376.2</ele>
        <time>2023-02-19T09:06:49Z</time>
      </trkpt>
      <trkpt lat="45.68906" lon="4.29327">
        <ele>376.2</ele>
        <time>2023-02-19T09:06:50Z</time>
      </trkpt>
      <trkpt lat="45.68905" lon="4.29327">
        <ele>376.2</ele>
        <time>2023-02-19T09:06:51Z</time>
      </trkpt>
      <trkpt lat="45.68904" lon="4.29326">
        <ele>376.2</ele>
        <time>2023-02-19T09:06:52Z</time>
      </trkpt>
      <trkpt lat="45.68903" lon="4.29325">
        <ele>376.2</ele>
        <time>2023-02-19T09:06:53Z</time>
      </trkpt>
      <trkpt lat="45.68901" lon="4.29324">
        <ele>376.2</ele>
        <time>2023-02-19T09:06:54Z</time>
      </trkpt>
      <trkpt lat="45.689" lon="4.29324">
        <ele>376.2</ele>
        <time>2023-02-19T09:06:55Z</time>
      </trkpt>
      <trkpt lat="45.68899" lon="4.29324">
        <ele>376.2</ele>
        <time>2023-02-19T09:06:56Z</time>
      </trkpt>
      <trkpt lat="45.68897" lon="4.29323">
        <ele>376.2</ele>
        <time>2023-02-19T09:06:57Z</time>
      </trkpt>
      <trkpt lat="45.68895" lon="4.29323">
        <ele>376.2</ele>
        <time>2023-02-19T09:06:58Z</time>
      </trkpt>
      <trkpt lat="45.68894" lon="4.29323">
        <ele>376.3</ele>
        <time>2023-02-19T09:06:59Z</time>
      </trkpt>
      <trkpt lat="45.68892" lon="4.29323">
        <ele>376.3</ele>
        <time>2023-02-19T09:07:01Z</time>
      </trkpt>
      <trkpt lat="45.6889" lon="4.29323">
        <ele>376.3</ele>
        <time>2023-02-19T09:07:02Z</time>
      </trkpt>
      <trkpt lat="45.68889" lon="4.29323">
        <ele>376.3</ele>
        <time>2023-02-19T09:07:03Z</time>
      </trkpt>
      <trkpt lat="45.68887" lon="4.29323">
        <ele>376.3</ele>
        <time>2023-02-19T09:07:04Z</time>
      </trkpt>
      <trkpt lat="45.68886" lon="4.29324">
        <ele>376.3</ele>
        <time>2023-02-19T09:07:05Z</time>
      </trkpt>
      <trkpt lat="45.68884" lon="4.29324">
        <ele>376.3</ele>
        <time>2023-02-19T09:07:06Z</time>
      </trkpt>
      <trkpt lat="45.68883" lon="4.29325">
        <ele>376.3</ele>
        <time>2023-02-19T09:07:07Z</time>
      </trkpt>
      <trkpt lat="45.68881" lon="4.29325">
        <ele>376.3</ele>
        <time>2023-02-19T09:07:08Z</time>
      </trkpt>
      <trkpt lat="45.6888" lon="4.29325">
        <ele>376.4</ele>
        <time>2023-02-19T09:07:09Z</time>
      </trkpt>
      <trkpt lat="45.68878" lon="4.29326">
        <ele>376.4</ele>
        <time>2023-02-19T09:07:10Z</time>
      </trkpt>
      <trkpt lat="45.68877" lon="4.29327">
        <ele>376.4</ele>
        <time>2023-02-19T09:07:12Z</time>
      </trkpt>
      <trkpt lat="45.68875" lon="4.29327">
        <ele>376.4</ele>
        <time>2023-02-19T09:07:13Z</time>
      </trkpt>
      <trkpt lat="45.68874" lon="4.29328">
        <ele>376.4</ele>
        <time>2023-02-19T09:07:14Z</time>
      </trkpt>
      <trkpt lat="45.68873" lon="4.29328">
        <ele>376.4</ele>
        <time>2023-02-19T09:07:15Z</time>
      </trkpt>
      <trkpt lat="45.68871" lon="4.29328">
        <ele>376.4</ele>
        <time>2023-02-19T09:07:16Z</time>
      </trkpt>
      <trkpt lat="45.68869" lon="4.29329">
        <ele>376.4</ele>
        <time>2023-02-19T09:07:17Z</time>
      </trkpt>
      <trkpt lat="45.68868" lon="4.29329">
        <ele>376.4</ele>
        <time>2023-02-19T09:07:18Z</time>
      </trkpt>
      <trkpt lat="45.68867" lon="4.29329">
        <ele>376.4</ele>
        <time>2023-02-19T09:07:19Z</time>
      </trkpt>
      <trkpt lat="45.68865" lon="4.29329">
        <ele>376.4</ele>
        <time>2023-02-19T09:07:20Z</time>
      </trkpt>
      <trkpt lat="45.68864" lon="4.29329">
        <ele>376.4</ele>
        <time>2023-02-19T09:07:21Z</time>
      </trkpt>
      <trkpt lat="45.68862" lon="4.2933">
        <ele>376.4</ele>
        <time>2023-02-19T09:07:23Z</time>
      </trkpt>
      <trkpt lat="45.68861" lon="4.2933">
        <ele>376.4</ele>
        <time>2023-02-19T09:07:24Z</time>
      </trkpt>
      <trkpt lat="45.68859" lon="4.2933">
        <ele>376.4</ele>
        <time>2023-02-19T09:07:25Z</time>
      </trkpt>
      <trkpt lat="45.68858" lon="4.2933">
        <ele>376.4</ele>
        <time>2023-02-19T09:07:26Z</time>
      </trkpt>
      <trkpt lat="45.68856" lon="4.29329">
        <ele>376.4</ele>
        <time>2023-02-19T09:07:27Z</time>
      </trkpt>
      <trkpt lat="45.68855" lon="4.29329">
        <ele>376.4</ele>
        <time>2023-02-19T09:07:28Z</time>
      </trkpt>
      <trkpt lat="45.68853" lon="4.29328">
        <ele>376.4</ele>
        <time>2023-02-19T09:07:29Z</time>
      </trkpt>
      <trkpt lat="45.6885" lon="4.29327">
        <ele>376.3</ele>
        <time>2023-02-19T09:07:31Z</time>
      </trkpt>
      <trkpt lat="45.68848" lon="4.29326">
        <ele>376.3</ele>
        <time>2023-02-19T09:07:32Z</time>
      </trkpt>
      <trkpt lat="45.68847" lon="4.29326">
        <ele>376.3</ele>
        <time>2023-02-19T09:07:33Z</time>
      </trkpt>
      <trkpt lat="45.68844" lon="4.29326">
        <ele>376.3</ele>
        <time>2023-02-19T09:07:35Z</time>
      </trkpt>
      <trkpt lat="45.68842" lon="4.29326">
        <ele>376.3</ele>
        <time>2023-02-19T09:07:37Z</time>
      </trkpt>
      <trkpt lat="45.68841" lon="4.29326">
        <ele>376.3</ele>
        <time>2023-02-19T09:07:38Z</time>
      </trkpt>
      <trkpt lat="45.68841" lon="4.29325">
        <ele>376.3</ele>
        <time>2023-02-19T09:07:39Z</time>
      </trkpt>
      <trkpt lat="45.68841" lon="4.29325">
        <ele>376.3</ele>
        <time>2023-02-19T09:07:40Z</time>
      </trkpt>
      <trkpt lat="45.68841" lon="4.29325">
        <ele>376.3</ele>
        <time>2023-02-19T09:07:41Z</time>
      </trkpt>
      <trkpt lat="45.6884" lon="4.29325">
        <ele>376.3</ele>
        <time>2023-02-19T09:07:42Z</time>
      </trkpt>
      <trkpt lat="45.6884" lon="4.29324">
        <ele>376.3</ele>
        <time>2023-02-19T09:07:43Z</time>
      </trkpt>
      <trkpt lat="45.6884" lon="4.29324">
        <ele>376.3</ele>
        <time>2023-02-19T09:07:44Z</time>
      </trkpt>
      <trkpt lat="45.68838" lon="4.29323">
        <ele>376.3</ele>
        <time>2023-02-19T09:07:46Z</time>
      </trkpt>
      <trkpt lat="45.68837" lon="4.29323">
        <ele>376.3</ele>
        <time>2023-02-19T09:07:47Z</time>
      </trkpt>
      <trkpt lat="45.68836" lon="4.29322">
        <ele>376.3</ele>
        <time>2023-02-19T09:07:48Z</time>
      </trkpt>
      <trkpt lat="45.68835" lon="4.29322">
        <ele>376.3</ele>
        <time>2023-02-19T09:07:49Z</time>
      </trkpt>
      <trkpt lat="45.68833" lon="4.29321">
        <ele>376.4</ele>
        <time>2023-02-19T09:07:50Z</time>
      </trkpt>
      <trkpt lat="45.68832" lon="4.29321">
        <ele>376.4</ele>
        <time>2023-02-19T09:07:51Z</time>
      </trkpt>
      <trkpt lat="45.6883" lon="4.29321">
        <ele>376.4</ele>
        <time>2023-02-19T09:07:52Z</time>
      </trkpt>
      <trkpt lat="45.68828" lon="4.2932">
        <ele>376.4</ele>
        <time>2023-02-19T09:07:53Z</time>
      </trkpt>
      <trkpt lat="45.68827" lon="4.2932">
        <ele>376.4</ele>
        <time>2023-02-19T09:07:54Z</time>
      </trkpt>
      <trkpt lat="45.68825" lon="4.29321">
        <ele>376.4</ele>
        <time>2023-02-19T09:07:55Z</time>
      </trkpt>
      <trkpt lat="45.68824" lon="4.29321">
        <ele>376.4</ele>
        <time>2023-02-19T09:07:56Z</time>
      </trkpt>
      <trkpt lat="45.68822" lon="4.29321">
        <ele>376.4</ele>
        <time>2023-02-19T09:07:58Z</time>
      </trkpt>
      <trkpt lat="45.6882" lon="4.29322">
        <ele>376.4</ele>
        <time>2023-02-19T09:07:59Z</time>
      </trkpt>
      <trkpt lat="45.68819" lon="4.29322">
        <ele>376.4</ele>
        <time>2023-02-19T09:08:00Z</time>
      </trkpt>
      <trkpt lat="45.68817" lon="4.29323">
        <ele>376.4</ele>
        <time>2023-02-19T09:08:01Z</time>
      </trkpt>
      <trkpt lat="45.68816" lon="4.29323">
        <ele>376.4</ele>
        <time>2023-02-19T09:08:02Z</time>
      </trkpt>
      <trkpt lat="45.68814" lon="4.29323">
        <ele>376.4</ele>
        <time>2023-02-19T09:08:03Z</time>
      </trkpt>
      <trkpt lat="45.68813" lon="4.29323">
        <ele>376.3</ele>
        <time>2023-02-19T09:08:04Z</time>
      </trkpt>
      <trkpt lat="45.68811" lon="4.29323">
        <ele>376.3</ele>
        <time>2023-02-19T09:08:05Z</time>
      </trkpt>
      <trkpt lat="45.6881" lon="4.29323">
        <ele>376.3</ele>
        <time>2023-02-19T09:08:06Z</time>
      </trkpt>
      <trkpt lat="45.68808" lon="4.29323">
        <ele>376.3</ele>
        <time>2023-02-19T09:08:07Z</time>
      </trkpt>
      <trkpt lat="45.68807" lon="4.29323">
        <ele>376.3</ele>
        <time>2023-02-19T09:08:08Z</time>
      </trkpt>
      <trkpt lat="45.68805" lon="4.29323">
        <ele>376.3</ele>
        <time>2023-02-19T09:08:10Z</time>
      </trkpt>
      <trkpt lat="45.68804" lon="4.29323">
        <ele>376.3</ele>
        <time>2023-02-19T09:08:11Z</time>
      </trkpt>
      <trkpt lat="45.68803" lon="4.29323">
        <ele>376.3</ele>
        <time>2023-02-19T09:08:12Z</time>
      </trkpt>
      <trkpt lat="45.68801" lon="4.29323">
        <ele>376.3</ele>
        <time>2023-02-19T09:08:13Z</time>
      </trkpt>
      <trkpt lat="45.688" lon="4.29323">
        <ele>376.3</ele>
        <time>2023-02-19T09:08:14Z</time>
      </trkpt>
      <trkpt lat="45.68798" lon="4.29323">
        <ele>376.3</ele>
        <time>2023-02-19T09:08:15Z</time>
      </trkpt>
      <trkpt lat="45.68796" lon="4.29323">
        <ele>376.3</ele>
        <time>2023-02-19T09:08:16Z</time>
      </trkpt>
      <trkpt lat="45.68793" lon="4.29323">
        <ele>376.3</ele>
        <time>2023-02-19T09:08:17Z</time>
      </trkpt>
      <trkpt lat="45.68792" lon="4.29323">
        <ele>376.3</ele>
        <time>2023-02-19T09:08:18Z</time>
      </trkpt>
      <trkpt lat="45.6879" lon="4.29323">
        <ele>376.3</ele>
        <time>2023-02-19T09:08:19Z</time>
      </trkpt>
      <trkpt lat="45.68789" lon="4.29323">
        <ele>376.3</ele>
        <time>2023-02-19T09:08:21Z</time>
      </trkpt>
      <trkpt lat="45.68787" lon="4.29322">
        <ele>376.3</ele>
        <time>2023-02-19T09:08:22Z</time>
      </trkpt>
      <trkpt lat="45.68785" lon="4.29322">
        <ele>376.3</ele>
        <time>2023-02-19T09:08:23Z</time>
      </trkpt>
      <trkpt lat="45.68784" lon="4.29321">
        <ele>376.3</ele>
        <time>2023-02-19T09:08:24Z</time>
      </trkpt>
      <trkpt lat="45.68782" lon="4.29321">
        <ele>376.3</ele>
        <time>2023-02-19T09:08:25Z</time>
      </trkpt>
      <trkpt lat="45.6878" lon="4.2932">
        <ele>376.3</ele>
        <time>2023-02-19T09:08:26Z</time>
      </trkpt>
      <trkpt lat="45.68779" lon="4.29319">
        <ele>376.2</ele>
        <time>2023-02-19T09:08:27Z</time>
      </trkpt>
      <trkpt lat="45.68778" lon="4.29317">
        <ele>376.2</ele>
        <time>2023-02-19T09:08:28Z</time>
      </trkpt>
      <trkpt lat="45.68777" lon="4.29316">
        <ele>376.2</ele>
        <time>2023-02-19T09:08:29Z</time>
      </trkpt>
      <trkpt lat="45.68776" lon="4.29314">
        <ele>376.2</ele>
        <time>2023-02-19T09:08:31Z</time>
      </trkpt>
      <trkpt lat="45.68775" lon="4.29313">
        <ele>376.2</ele>
        <time>2023-02-19T09:08:32Z</time>
      </trkpt>
      <trkpt lat="45.68774" lon="4.29311">
        <ele>376.2</ele>
        <time>2023-02-19T09:08:33Z</time>
      </trkpt>
      <trkpt lat="45.68773" lon="4.2931">
        <ele>376.1</ele>
        <time>2023-02-19T09:08:34Z</time>
      </trkpt>
      <trkpt lat="45.68772" lon="4.29309">
        <ele>376.1</ele>
        <time>2023-02-19T09:08:35Z</time>
      </trkpt>
      <trkpt lat="45.6877" lon="4.29307">
        <ele>376.1</ele>
        <time>2023-02-19T09:08:36Z</time>
      </trkpt>
      <trkpt lat="45.68769" lon="4.29306">
        <ele>376.1</ele>
        <time>2023-02-19T09:08:37Z</time>
      </trkpt>
      <trkpt lat="45.68769" lon="4.29305">
        <ele>376.1</ele>
        <time>2023-02-19T09:08:38Z</time>
      </trkpt>
      <trkpt lat="45.68768" lon="4.29305">
        <ele>376.1</ele>
        <time>2023-02-19T09:08:39Z</time>
      </trkpt>
      <trkpt lat="45.68766" lon="4.29303">
        <ele>376</ele>
        <time>2023-02-19T09:08:40Z</time>
      </trkpt>
      <trkpt lat="45.68765" lon="4.29302">
        <ele>376</ele>
        <time>2023-02-19T09:08:42Z</time>
      </trkpt>
      <trkpt lat="45.68765" lon="4.29302">
        <ele>376</ele>
        <time>2023-02-19T09:08:43Z</time>
      </trkpt>
      <trkpt lat="45.68763" lon="4.293">
        <ele>376</ele>
        <time>2023-02-19T09:08:44Z</time>
      </trkpt>
      <trkpt lat="45.68762" lon="4.29299">
        <ele>375.9</ele>
        <time>2023-02-19T09:08:45Z</time>
      </trkpt>
      <trkpt lat="45.68761" lon="4.29297">
        <ele>375.9</ele>
        <time>2023-02-19T09:08:46Z</time>
      </trkpt>
      <trkpt lat="45.68759" lon="4.29294">
        <ele>375.8</ele>
        <time>2023-02-19T09:08:48Z</time>
      </trkpt>
      <trkpt lat="45.68758" lon="4.29292">
        <ele>375.8</ele>
        <time>2023-02-19T09:08:49Z</time>
      </trkpt>
      <trkpt lat="45.68757" lon="4.2929">
        <ele>375.8</ele>
        <time>2023-02-19T09:08:50Z</time>
      </trkpt>
      <trkpt lat="45.68756" lon="4.29288">
        <ele>375.7</ele>
        <time>2023-02-19T09:08:51Z</time>
      </trkpt>
      <trkpt lat="45.68755" lon="4.29287">
        <ele>375.7</ele>
        <time>2023-02-19T09:08:52Z</time>
      </trkpt>
      <trkpt lat="45.68754" lon="4.29285">
        <ele>375.7</ele>
        <time>2023-02-19T09:08:53Z</time>
      </trkpt>
      <trkpt lat="45.68753" lon="4.29283">
        <ele>375.6</ele>
        <time>2023-02-19T09:08:54Z</time>
      </trkpt>
      <trkpt lat="45.68752" lon="4.29281">
        <ele>375.6</ele>
        <time>2023-02-19T09:08:56Z</time>
      </trkpt>
      <trkpt lat="45.68751" lon="4.29279">
        <ele>375.6</ele>
        <time>2023-02-19T09:08:57Z</time>
      </trkpt>
      <trkpt lat="45.6875" lon="4.29277">
        <ele>375.5</ele>
        <time>2023-02-19T09:08:58Z</time>
      </trkpt>
      <trkpt lat="45.68749" lon="4.29276">
        <ele>375.5</ele>
        <time>2023-02-19T09:08:59Z</time>
      </trkpt>
      <trkpt lat="45.68747" lon="4.29273">
        <ele>375.5</ele>
        <time>2023-02-19T09:09:00Z</time>
      </trkpt>
      <trkpt lat="45.68746" lon="4.29272">
        <ele>375.5</ele>
        <time>2023-02-19T09:09:01Z</time>
      </trkpt>
      <trkpt lat="45.68745" lon="4.2927">
        <ele>375.4</ele>
        <time>2023-02-19T09:09:03Z</time>
      </trkpt>
      <trkpt lat="45.68744" lon="4.29269">
        <ele>375.4</ele>
        <time>2023-02-19T09:09:04Z</time>
      </trkpt>
      <trkpt lat="45.68742" lon="4.29267">
        <ele>375.4</ele>
        <time>2023-02-19T09:09:05Z</time>
      </trkpt>
      <trkpt lat="45.68741" lon="4.29266">
        <ele>375.4</ele>
        <time>2023-02-19T09:09:06Z</time>
      </trkpt>
      <trkpt lat="45.6874" lon="4.29264">
        <ele>375.4</ele>
        <time>2023-02-19T09:09:07Z</time>
      </trkpt>
      <trkpt lat="45.68739" lon="4.29264">
        <ele>375.3</ele>
        <time>2023-02-19T09:09:08Z</time>
      </trkpt>
      <trkpt lat="45.68738" lon="4.29263">
        <ele>375.3</ele>
        <time>2023-02-19T09:09:09Z</time>
      </trkpt>
      <trkpt lat="45.68736" lon="4.29261">
        <ele>375.3</ele>
        <time>2023-02-19T09:09:10Z</time>
      </trkpt>
      <trkpt lat="45.68736" lon="4.29261">
        <ele>375.3</ele>
        <time>2023-02-19T09:09:11Z</time>
      </trkpt>
      <trkpt lat="45.68735" lon="4.2926">
        <ele>375.3</ele>
        <time>2023-02-19T09:09:12Z</time>
      </trkpt>
      <trkpt lat="45.68733" lon="4.29258">
        <ele>375.3</ele>
        <time>2023-02-19T09:09:14Z</time>
      </trkpt>
      <trkpt lat="45.68733" lon="4.29257">
        <ele>375.3</ele>
        <time>2023-02-19T09:09:15Z</time>
      </trkpt>
      <trkpt lat="45.68732" lon="4.29257">
        <ele>375.3</ele>
        <time>2023-02-19T09:09:16Z</time>
      </trkpt>
      <trkpt lat="45.68731" lon="4.29255">
        <ele>375.2</ele>
        <time>2023-02-19T09:09:17Z</time>
      </trkpt>
      <trkpt lat="45.6873" lon="4.29254">
        <ele>375.2</ele>
        <time>2023-02-19T09:09:18Z</time>
      </trkpt>
      <trkpt lat="45.68728" lon="4.2925">
        <ele>375.2</ele>
        <time>2023-02-19T09:09:20Z</time>
      </trkpt>
      <trkpt lat="45.68728" lon="4.29249">
        <ele>375.2</ele>
        <time>2023-02-19T09:09:21Z</time>
      </trkpt>
      <trkpt lat="45.68728" lon="4.29247">
        <ele>375.2</ele>
        <time>2023-02-19T09:09:22Z</time>
      </trkpt>
      <trkpt lat="45.68727" lon="4.29246">
        <ele>375.2</ele>
        <time>2023-02-19T09:09:23Z</time>
      </trkpt>
      <trkpt lat="45.68726" lon="4.29243">
        <ele>375.1</ele>
        <time>2023-02-19T09:09:24Z</time>
      </trkpt>
      <trkpt lat="45.68725" lon="4.29241">
        <ele>375.1</ele>
        <time>2023-02-19T09:09:25Z</time>
      </trkpt>
      <trkpt lat="45.68724" lon="4.2924">
        <ele>375.1</ele>
        <time>2023-02-19T09:09:26Z</time>
      </trkpt>
      <trkpt lat="45.68723" lon="4.29238">
        <ele>375.1</ele>
        <time>2023-02-19T09:09:27Z</time>
      </trkpt>
      <trkpt lat="45.6872" lon="4.29236">
        <ele>375.1</ele>
        <time>2023-02-19T09:09:29Z</time>
      </trkpt>
      <trkpt lat="45.68719" lon="4.29236">
        <ele>375</ele>
        <time>2023-02-19T09:09:30Z</time>
      </trkpt>
      <trkpt lat="45.68718" lon="4.29235">
        <ele>375</ele>
        <time>2023-02-19T09:09:31Z</time>
      </trkpt>
      <trkpt lat="45.68717" lon="4.29234">
        <ele>375</ele>
        <time>2023-02-19T09:09:32Z</time>
      </trkpt>
      <trkpt lat="45.68715" lon="4.29233">
        <ele>374.9</ele>
        <time>2023-02-19T09:09:33Z</time>
      </trkpt>
      <trkpt lat="45.68714" lon="4.29233">
        <ele>374.9</ele>
        <time>2023-02-19T09:09:34Z</time>
      </trkpt>
      <trkpt lat="45.68713" lon="4.29233">
        <ele>374.9</ele>
        <time>2023-02-19T09:09:35Z</time>
      </trkpt>
      <trkpt lat="45.68712" lon="4.29232">
        <ele>374.9</ele>
        <time>2023-02-19T09:09:36Z</time>
      </trkpt>
      <trkpt lat="45.6871" lon="4.29231">
        <ele>374.9</ele>
        <time>2023-02-19T09:09:37Z</time>
      </trkpt>
      <trkpt lat="45.68709" lon="4.29231">
        <ele>374.8</ele>
        <time>2023-02-19T09:09:39Z</time>
      </trkpt>
      <trkpt lat="45.68707" lon="4.29231">
        <ele>374.8</ele>
        <time>2023-02-19T09:09:40Z</time>
      </trkpt>
      <trkpt lat="45.68706" lon="4.29231">
        <ele>374.8</ele>
        <time>2023-02-19T09:09:41Z</time>
      </trkpt>
      <trkpt lat="45.68705" lon="4.29231">
        <ele>374.8</ele>
        <time>2023-02-19T09:09:42Z</time>
      </trkpt>
      <trkpt lat="45.68704" lon="4.29231">
        <ele>374.8</ele>
        <time>2023-02-19T09:09:43Z</time>
      </trkpt>
      <trkpt lat="45.68701" lon="4.29232">
        <ele>374.7</ele>
        <time>2023-02-19T09:09:45Z</time>
      </trkpt>
      <trkpt lat="45.687" lon="4.29232">
        <ele>374.7</ele>
        <time>2023-02-19T09:09:47Z</time>
      </trkpt>
      <trkpt lat="45.68699" lon="4.29233">
        <ele>374.7</ele>
        <time>2023-02-19T09:09:48Z</time>
      </trkpt>
      <trkpt lat="45.68698" lon="4.29233">
        <ele>374.7</ele>
        <time>2023-02-19T09:09:49Z</time>
      </trkpt>
      <trkpt lat="45.68697" lon="4.29233">
        <ele>374.7</ele>
        <time>2023-02-19T09:09:50Z</time>
      </trkpt>
      <trkpt lat="45.68696" lon="4.29234">
        <ele>374.7</ele>
        <time>2023-02-19T09:09:51Z</time>
      </trkpt>
      <trkpt lat="45.68694" lon="4.29234">
        <ele>374.7</ele>
        <time>2023-02-19T09:09:52Z</time>
      </trkpt>
      <trkpt lat="45.68692" lon="4.29234">
        <ele>374.6</ele>
        <time>2023-02-19T09:09:54Z</time>
      </trkpt>
      <trkpt lat="45.68691" lon="4.29235">
        <ele>374.6</ele>
        <time>2023-02-19T09:09:55Z</time>
      </trkpt>
      <trkpt lat="45.68689" lon="4.29235">
        <ele>374.6</ele>
        <time>2023-02-19T09:09:56Z</time>
      </trkpt>
      <trkpt lat="45.68688" lon="4.29236">
        <ele>374.6</ele>
        <time>2023-02-19T09:09:57Z</time>
      </trkpt>
      <trkpt lat="45.68686" lon="4.29236">
        <ele>374.6</ele>
        <time>2023-02-19T09:09:59Z</time>
      </trkpt>
      <trkpt lat="45.68685" lon="4.29237">
        <ele>374.5</ele>
        <time>2023-02-19T09:10:00Z</time>
      </trkpt>
      <trkpt lat="45.68683" lon="4.29238">
        <ele>374.5</ele>
        <time>2023-02-19T09:10:01Z</time>
      </trkpt>
      <trkpt lat="45.68682" lon="4.29238">
        <ele>374.5</ele>
        <time>2023-02-19T09:10:02Z</time>
      </trkpt>
      <trkpt lat="45.6868" lon="4.29239">
        <ele>374.5</ele>
        <time>2023-02-19T09:10:03Z</time>
      </trkpt>
      <trkpt lat="45.68678" lon="4.29239">
        <ele>374.5</ele>
        <time>2023-02-19T09:10:04Z</time>
      </trkpt>
      <trkpt lat="45.68677" lon="4.29239">
        <ele>374.4</ele>
        <time>2023-02-19T09:10:05Z</time>
      </trkpt>
      <trkpt lat="45.68675" lon="4.29239">
        <ele>374.4</ele>
        <time>2023-02-19T09:10:06Z</time>
      </trkpt>
      <trkpt lat="45.68674" lon="4.29239">
        <ele>374.4</ele>
        <time>2023-02-19T09:10:07Z</time>
      </trkpt>
      <trkpt lat="45.68672" lon="4.29239">
        <ele>374.4</ele>
        <time>2023-02-19T09:10:08Z</time>
      </trkpt>
      <trkpt lat="45.6867" lon="4.29239">
        <ele>374.4</ele>
        <time>2023-02-19T09:10:10Z</time>
      </trkpt>
      <trkpt lat="45.68669" lon="4.2924">
        <ele>374.4</ele>
        <time>2023-02-19T09:10:11Z</time>
      </trkpt>
      <trkpt lat="45.68667" lon="4.2924">
        <ele>374.4</ele>
        <time>2023-02-19T09:10:12Z</time>
      </trkpt>
      <trkpt lat="45.68666" lon="4.2924">
        <ele>374.4</ele>
        <time>2023-02-19T09:10:13Z</time>
      </trkpt>
      <trkpt lat="45.68664" lon="4.2924">
        <ele>374.4</ele>
        <time>2023-02-19T09:10:14Z</time>
      </trkpt>
      <trkpt lat="45.68663" lon="4.2924">
        <ele>374.4</ele>
        <time>2023-02-19T09:10:15Z</time>
      </trkpt>
      <trkpt lat="45.68661" lon="4.29241">
        <ele>374.4</ele>
        <time>2023-02-19T09:10:17Z</time>
      </trkpt>
      <trkpt lat="45.6866" lon="4.29241">
        <ele>374.4</ele>
        <time>2023-02-19T09:10:18Z</time>
      </trkpt>
      <trkpt lat="45.68658" lon="4.29241">
        <ele>374.4</ele>
        <time>2023-02-19T09:10:19Z</time>
      </trkpt>
      <trkpt lat="45.68656" lon="4.29242">
        <ele>374.4</ele>
        <time>2023-02-19T09:10:21Z</time>
      </trkpt>
      <trkpt lat="45.68655" lon="4.29242">
        <ele>374.4</ele>
        <time>2023-02-19T09:10:22Z</time>
      </trkpt>
      <trkpt lat="45.68653" lon="4.29242">
        <ele>374.4</ele>
        <time>2023-02-19T09:10:23Z</time>
      </trkpt>
      <trkpt lat="45.68652" lon="4.29243">
        <ele>374.4</ele>
        <time>2023-02-19T09:10:24Z</time>
      </trkpt>
      <trkpt lat="45.68651" lon="4.29243">
        <ele>374.4</ele>
        <time>2023-02-19T09:10:25Z</time>
      </trkpt>
      <trkpt lat="45.68649" lon="4.29243">
        <ele>374.4</ele>
        <time>2023-02-19T09:10:26Z</time>
      </trkpt>
      <trkpt lat="45.68647" lon="4.29244">
        <ele>374.3</ele>
        <time>2023-02-19T09:10:27Z</time>
      </trkpt>
      <trkpt lat="45.68646" lon="4.29244">
        <ele>374.3</ele>
        <time>2023-02-19T09:10:28Z</time>
      </trkpt>
      <trkpt lat="45.68645" lon="4.29244">
        <ele>374.3</ele>
        <time>2023-02-19T09:10:29Z</time>
      </trkpt>
      <trkpt lat="45.68644" lon="4.29244">
        <ele>374.3</ele>
        <time>2023-02-19T09:10:30Z</time>
      </trkpt>
      <trkpt lat="45.68643" lon="4.29244">
        <ele>374.3</ele>
        <time>2023-02-19T09:10:31Z</time>
      </trkpt>
      <trkpt lat="45.68641" lon="4.29244">
        <ele>374.3</ele>
        <time>2023-02-19T09:10:32Z</time>
      </trkpt>
      <trkpt lat="45.68639" lon="4.29244">
        <ele>374.3</ele>
        <time>2023-02-19T09:10:33Z</time>
      </trkpt>
      <trkpt lat="45.68637" lon="4.29243">
        <ele>374.3</ele>
        <time>2023-02-19T09:10:35Z</time>
      </trkpt>
      <trkpt lat="45.68636" lon="4.29243">
        <ele>374.3</ele>
        <time>2023-02-19T09:10:36Z</time>
      </trkpt>
      <trkpt lat="45.68634" lon="4.29243">
        <ele>374.3</ele>
        <time>2023-02-19T09:10:37Z</time>
      </trkpt>
      <trkpt lat="45.68632" lon="4.29243">
        <ele>374.3</ele>
        <time>2023-02-19T09:10:38Z</time>
      </trkpt>
      <trkpt lat="45.68629" lon="4.29245">
        <ele>374.3</ele>
        <time>2023-02-19T09:10:39Z</time>
      </trkpt>
      <trkpt lat="45.68628" lon="4.29245">
        <ele>374.3</ele>
        <time>2023-02-19T09:10:40Z</time>
      </trkpt>
      <trkpt lat="45.68626" lon="4.29246">
        <ele>374.2</ele>
        <time>2023-02-19T09:10:41Z</time>
      </trkpt>
      <trkpt lat="45.68625" lon="4.29246">
        <ele>374.2</ele>
        <time>2023-02-19T09:10:43Z</time>
      </trkpt>
      <trkpt lat="45.68623" lon="4.29247">
        <ele>374.2</ele>
        <time>2023-02-19T09:10:44Z</time>
      </trkpt>
      <trkpt lat="45.68621" lon="4.29247">
        <ele>374.2</ele>
        <time>2023-02-19T09:10:45Z</time>
      </trkpt>
      <trkpt lat="45.68619" lon="4.29247">
        <ele>374.1</ele>
        <time>2023-02-19T09:10:46Z</time>
      </trkpt>
      <trkpt lat="45.68618" lon="4.29247">
        <ele>374.1</ele>
        <time>2023-02-19T09:10:47Z</time>
      </trkpt>
      <trkpt lat="45.68615" lon="4.29247">
        <ele>374.1</ele>
        <time>2023-02-19T09:10:48Z</time>
      </trkpt>
      <trkpt lat="45.68614" lon="4.29247">
        <ele>374</ele>
        <time>2023-02-19T09:10:49Z</time>
      </trkpt>
      <trkpt lat="45.68612" lon="4.29247">
        <ele>374</ele>
        <time>2023-02-19T09:10:50Z</time>
      </trkpt>
      <trkpt lat="45.68611" lon="4.29247">
        <ele>374</ele>
        <time>2023-02-19T09:10:51Z</time>
      </trkpt>
      <trkpt lat="45.68609" lon="4.29247">
        <ele>374</ele>
        <time>2023-02-19T09:10:52Z</time>
      </trkpt>
      <trkpt lat="45.68607" lon="4.29247">
        <ele>373.9</ele>
        <time>2023-02-19T09:10:53Z</time>
      </trkpt>
      <trkpt lat="45.68606" lon="4.29247">
        <ele>373.9</ele>
        <time>2023-02-19T09:10:55Z</time>
      </trkpt>
      <trkpt lat="45.68604" lon="4.29247">
        <ele>373.9</ele>
        <time>2023-02-19T09:10:56Z</time>
      </trkpt>
      <trkpt lat="45.68601" lon="4.29247">
        <ele>373.8</ele>
        <time>2023-02-19T09:10:57Z</time>
      </trkpt>
      <trkpt lat="45.686" lon="4.29247">
        <ele>373.8</ele>
        <time>2023-02-19T09:10:58Z</time>
      </trkpt>
      <trkpt lat="45.68597" lon="4.29247">
        <ele>373.8</ele>
        <time>2023-02-19T09:11:00Z</time>
      </trkpt>
      <trkpt lat="45.68596" lon="4.29247">
        <ele>373.8</ele>
        <time>2023-02-19T09:11:01Z</time>
      </trkpt>
      <trkpt lat="45.68594" lon="4.29246">
        <ele>373.7</ele>
        <time>2023-02-19T09:11:02Z</time>
      </trkpt>
      <trkpt lat="45.68593" lon="4.29246">
        <ele>373.7</ele>
        <time>2023-02-19T09:11:03Z</time>
      </trkpt>
      <trkpt lat="45.68591" lon="4.29245">
        <ele>373.7</ele>
        <time>2023-02-19T09:11:04Z</time>
      </trkpt>
      <trkpt lat="45.68588" lon="4.29244">
        <ele>373.7</ele>
        <time>2023-02-19T09:11:06Z</time>
      </trkpt>
      <trkpt lat="45.68587" lon="4.29244">
        <ele>373.6</ele>
        <time>2023-02-19T09:11:07Z</time>
      </trkpt>
      <trkpt lat="45.68584" lon="4.29243">
        <ele>373.6</ele>
        <time>2023-02-19T09:11:08Z</time>
      </trkpt>
      <trkpt lat="45.68583" lon="4.29243">
        <ele>373.6</ele>
        <time>2023-02-19T09:11:09Z</time>
      </trkpt>
      <trkpt lat="45.6858" lon="4.29243">
        <ele>373.5</ele>
        <time>2023-02-19T09:11:11Z</time>
      </trkpt>
      <trkpt lat="45.68579" lon="4.29243">
        <ele>373.5</ele>
        <time>2023-02-19T09:11:12Z</time>
      </trkpt>
      <trkpt lat="45.68577" lon="4.29243">
        <ele>373.5</ele>
        <time>2023-02-19T09:11:13Z</time>
      </trkpt>
      <trkpt lat="45.68574" lon="4.29243">
        <ele>373.5</ele>
        <time>2023-02-19T09:11:15Z</time>
      </trkpt>
      <trkpt lat="45.68573" lon="4.29242">
        <ele>373.5</ele>
        <time>2023-02-19T09:11:16Z</time>
      </trkpt>
      <trkpt lat="45.68571" lon="4.29242">
        <ele>373.5</ele>
        <time>2023-02-19T09:11:17Z</time>
      </trkpt>
      <trkpt lat="45.68568" lon="4.29242">
        <ele>373.5</ele>
        <time>2023-02-19T09:11:19Z</time>
      </trkpt>
      <trkpt lat="45.68567" lon="4.29242">
        <ele>373.5</ele>
        <time>2023-02-19T09:11:20Z</time>
      </trkpt>
      <trkpt lat="45.68565" lon="4.29243">
        <ele>373.4</ele>
        <time>2023-02-19T09:11:21Z</time>
      </trkpt>
      <trkpt lat="45.68563" lon="4.29244">
        <ele>373.4</ele>
        <time>2023-02-19T09:11:22Z</time>
      </trkpt>
      <trkpt lat="45.68561" lon="4.29245">
        <ele>373.4</ele>
        <time>2023-02-19T09:11:24Z</time>
      </trkpt>
      <trkpt lat="45.6856" lon="4.29245">
        <ele>373.4</ele>
        <time>2023-02-19T09:11:25Z</time>
      </trkpt>
      <trkpt lat="45.68558" lon="4.29245">
        <ele>373.4</ele>
        <time>2023-02-19T09:11:26Z</time>
      </trkpt>
      <trkpt lat="45.68556" lon="4.29245">
        <ele>373.4</ele>
        <time>2023-02-19T09:11:27Z</time>
      </trkpt>
      <trkpt lat="45.68555" lon="4.29245">
        <ele>373.4</ele>
        <time>2023-02-19T09:11:28Z</time>
      </trkpt>
      <trkpt lat="45.68551" lon="4.29245">
        <ele>373.4</ele>
        <time>2023-02-19T09:11:30Z</time>
      </trkpt>
      <trkpt lat="45.6855" lon="4.29245">
        <ele>373.4</ele>
        <time>2023-02-19T09:11:31Z</time>
      </trkpt>
      <trkpt lat="45.68549" lon="4.29246">
        <ele>373.4</ele>
        <time>2023-02-19T09:11:32Z</time>
      </trkpt>
      <trkpt lat="45.68548" lon="4.29246">
        <ele>373.3</ele>
        <time>2023-02-19T09:11:33Z</time>
      </trkpt>
      <trkpt lat="45.68546" lon="4.29246">
        <ele>373.3</ele>
        <time>2023-02-19T09:11:35Z</time>
      </trkpt>
      <trkpt lat="45.68545" lon="4.29247">
        <ele>373.3</ele>
        <time>2023-02-19T09:11:36Z</time>
      </trkpt>
      <trkpt lat="45.68543" lon="4.29247">
        <ele>373.3</ele>
        <time>2023-02-19T09:11:37Z</time>
      </trkpt>
      <trkpt lat="45.68542" lon="4.29246">
        <ele>373.3</ele>
        <time>2023-02-19T09:11:38Z</time>
      </trkpt>
      <trkpt lat="45.68538" lon="4.29245">
        <ele>373.2</ele>
        <time>2023-02-19T09:11:40Z</time>
      </trkpt>
      <trkpt lat="45.68537" lon="4.29245">
        <ele>373.2</ele>
        <time>2023-02-19T09:11:41Z</time>
      </trkpt>
      <trkpt lat="45.68536" lon="4.29245">
        <ele>373.2</ele>
        <time>2023-02-19T09:11:42Z</time>
      </trkpt>
      <trkpt lat="45.68534" lon="4.29245">
        <ele>373.2</ele>
        <time>2023-02-19T09:11:43Z</time>
      </trkpt>
      <trkpt lat="45.68531" lon="4.29245">
        <ele>373.2</ele>
        <time>2023-02-19T09:11:45Z</time>
      </trkpt>
      <trkpt lat="45.6853" lon="4.29245">
        <ele>373.2</ele>
        <time>2023-02-19T09:11:46Z</time>
      </trkpt>
      <trkpt lat="45.68528" lon="4.29245">
        <ele>373.2</ele>
        <time>2023-02-19T09:11:47Z</time>
      </trkpt>
      <trkpt lat="45.68526" lon="4.29245">
        <ele>373.2</ele>
        <time>2023-02-19T09:11:48Z</time>
      </trkpt>
      <trkpt lat="45.68525" lon="4.29245">
        <ele>373.1</ele>
        <time>2023-02-19T09:11:49Z</time>
      </trkpt>
      <trkpt lat="45.68522" lon="4.29245">
        <ele>373.1</ele>
        <time>2023-02-19T09:11:51Z</time>
      </trkpt>
      <trkpt lat="45.68521" lon="4.29245">
        <ele>373.1</ele>
        <time>2023-02-19T09:11:52Z</time>
      </trkpt>
      <trkpt lat="45.6852" lon="4.29245">
        <ele>373.1</ele>
        <time>2023-02-19T09:11:53Z</time>
      </trkpt>
      <trkpt lat="45.68519" lon="4.29246">
        <ele>373.1</ele>
        <time>2023-02-19T09:11:54Z</time>
      </trkpt>
      <trkpt lat="45.68516" lon="4.29246">
        <ele>373.1</ele>
        <time>2023-02-19T09:11:56Z</time>
      </trkpt>
      <trkpt lat="45.68515" lon="4.29246">
        <ele>373.2</ele>
        <time>2023-02-19T09:11:57Z</time>
      </trkpt>
      <trkpt lat="45.68513" lon="4.29246">
        <ele>373.2</ele>
        <time>2023-02-19T09:11:58Z</time>
      </trkpt>
      <trkpt lat="45.68511" lon="4.29247">
        <ele>373.3</ele>
        <time>2023-02-19T09:12:00Z</time>
      </trkpt>
      <trkpt lat="45.6851" lon="4.29247">
        <ele>373.3</ele>
        <time>2023-02-19T09:12:01Z</time>
      </trkpt>
      <trkpt lat="45.68509" lon="4.29247">
        <ele>373.3</ele>
        <time>2023-02-19T09:12:02Z</time>
      </trkpt>
      <trkpt lat="45.68507" lon="4.29248">
        <ele>373.4</ele>
        <time>2023-02-19T09:12:03Z</time>
      </trkpt>
      <trkpt lat="45.68506" lon="4.29248">
        <ele>373.4</ele>
        <time>2023-02-19T09:12:04Z</time>
      </trkpt>
      <trkpt lat="45.68505" lon="4.29248">
        <ele>373.4</ele>
        <time>2023-02-19T09:12:05Z</time>
      </trkpt>
      <trkpt lat="45.68503" lon="4.29247">
        <ele>373.4</ele>
        <time>2023-02-19T09:12:07Z</time>
      </trkpt>
      <trkpt lat="45.68502" lon="4.29246">
        <ele>373.4</ele>
        <time>2023-02-19T09:12:08Z</time>
      </trkpt>
      <trkpt lat="45.68501" lon="4.29245">
        <ele>373.5</ele>
        <time>2023-02-19T09:12:09Z</time>
      </trkpt>
      <trkpt lat="45.685" lon="4.29245">
        <ele>373.5</ele>
        <time>2023-02-19T09:12:10Z</time>
      </trkpt>
      <trkpt lat="45.68498" lon="4.29245">
        <ele>373.5</ele>
        <time>2023-02-19T09:12:11Z</time>
      </trkpt>
      <trkpt lat="45.68497" lon="4.29246">
        <ele>373.5</ele>
        <time>2023-02-19T09:12:13Z</time>
      </trkpt>
      <trkpt lat="45.68496" lon="4.29246">
        <ele>373.5</ele>
        <time>2023-02-19T09:12:14Z</time>
      </trkpt>
      <trkpt lat="45.68495" lon="4.29247">
        <ele>373.5</ele>
        <time>2023-02-19T09:12:15Z</time>
      </trkpt>
      <trkpt lat="45.68494" lon="4.29248">
        <ele>373.6</ele>
        <time>2023-02-19T09:12:16Z</time>
      </trkpt>
      <trkpt lat="45.68493" lon="4.29248">
        <ele>373.6</ele>
        <time>2023-02-19T09:12:17Z</time>
      </trkpt>
      <trkpt lat="45.68492" lon="4.29248">
        <ele>373.6</ele>
        <time>2023-02-19T09:12:18Z</time>
      </trkpt>
      <trkpt lat="45.68491" lon="4.29249">
        <ele>373.6</ele>
        <time>2023-02-19T09:12:19Z</time>
      </trkpt>
      <trkpt lat="45.68489" lon="4.29249">
        <ele>373.6</ele>
        <time>2023-02-19T09:12:20Z</time>
      </trkpt>
      <trkpt lat="45.68488" lon="4.2925">
        <ele>373.6</ele>
        <time>2023-02-19T09:12:21Z</time>
      </trkpt>
      <trkpt lat="45.68487" lon="4.2925">
        <ele>373.7</ele>
        <time>2023-02-19T09:12:23Z</time>
      </trkpt>
      <trkpt lat="45.68486" lon="4.2925">
        <ele>373.7</ele>
        <time>2023-02-19T09:12:24Z</time>
      </trkpt>
      <trkpt lat="45.68485" lon="4.2925">
        <ele>373.7</ele>
        <time>2023-02-19T09:12:25Z</time>
      </trkpt>
      <trkpt lat="45.68484" lon="4.29251">
        <ele>373.7</ele>
        <time>2023-02-19T09:12:26Z</time>
      </trkpt>
      <trkpt lat="45.68482" lon="4.29251">
        <ele>373.7</ele>
        <time>2023-02-19T09:12:27Z</time>
      </trkpt>
      <trkpt lat="45.68481" lon="4.29251">
        <ele>373.7</ele>
        <time>2023-02-19T09:12:28Z</time>
      </trkpt>
      <trkpt lat="45.6848" lon="4.29251">
        <ele>373.8</ele>
        <time>2023-02-19T09:12:29Z</time>
      </trkpt>
      <trkpt lat="45.68478" lon="4.29252">
        <ele>373.8</ele>
        <time>2023-02-19T09:12:30Z</time>
      </trkpt>
      <trkpt lat="45.68475" lon="4.29253">
        <ele>373.8</ele>
        <time>2023-02-19T09:12:32Z</time>
      </trkpt>
      <trkpt lat="45.68474" lon="4.29253">
        <ele>373.8</ele>
        <time>2023-02-19T09:12:33Z</time>
      </trkpt>
      <trkpt lat="45.68471" lon="4.29253">
        <ele>373.9</ele>
        <time>2023-02-19T09:12:35Z</time>
      </trkpt>
      <trkpt lat="45.68469" lon="4.29254">
        <ele>373.9</ele>
        <time>2023-02-19T09:12:36Z</time>
      </trkpt>
      <trkpt lat="45.68467" lon="4.29254">
        <ele>373.9</ele>
        <time>2023-02-19T09:12:37Z</time>
      </trkpt>
      <trkpt lat="45.68465" lon="4.29254">
        <ele>374</ele>
        <time>2023-02-19T09:12:39Z</time>
      </trkpt>
      <trkpt lat="45.68464" lon="4.29254">
        <ele>374</ele>
        <time>2023-02-19T09:12:40Z</time>
      </trkpt>
      <trkpt lat="45.68462" lon="4.29254">
        <ele>374.1</ele>
        <time>2023-02-19T09:12:41Z</time>
      </trkpt>
      <trkpt lat="45.6846" lon="4.29255">
        <ele>374.1</ele>
        <time>2023-02-19T09:12:42Z</time>
      </trkpt>
      <trkpt lat="45.68459" lon="4.29255">
        <ele>374.2</ele>
        <time>2023-02-19T09:12:43Z</time>
      </trkpt>
      <trkpt lat="45.68457" lon="4.29255">
        <ele>374.2</ele>
        <time>2023-02-19T09:12:44Z</time>
      </trkpt>
      <trkpt lat="45.68456" lon="4.29255">
        <ele>374.2</ele>
        <time>2023-02-19T09:12:45Z</time>
      </trkpt>
      <trkpt lat="45.68454" lon="4.29255">
        <ele>374.3</ele>
        <time>2023-02-19T09:12:47Z</time>
      </trkpt>
      <trkpt lat="45.68452" lon="4.29256">
        <ele>374.3</ele>
        <time>2023-02-19T09:12:48Z</time>
      </trkpt>
      <trkpt lat="45.68451" lon="4.29256">
        <ele>374.4</ele>
        <time>2023-02-19T09:12:49Z</time>
      </trkpt>
      <trkpt lat="45.68449" lon="4.29256">
        <ele>374.4</ele>
        <time>2023-02-19T09:12:50Z</time>
      </trkpt>
      <trkpt lat="45.68448" lon="4.29256">
        <ele>374.4</ele>
        <time>2023-02-19T09:12:51Z</time>
      </trkpt>
      <trkpt lat="45.68447" lon="4.29257">
        <ele>374.4</ele>
        <time>2023-02-19T09:12:52Z</time>
      </trkpt>
      <trkpt lat="45.68445" lon="4.29257">
        <ele>374.5</ele>
        <time>2023-02-19T09:12:53Z</time>
      </trkpt>
      <trkpt lat="45.68444" lon="4.29258">
        <ele>374.5</ele>
        <time>2023-02-19T09:12:54Z</time>
      </trkpt>
      <trkpt lat="45.68443" lon="4.29258">
        <ele>374.5</ele>
        <time>2023-02-19T09:12:55Z</time>
      </trkpt>
      <trkpt lat="45.68441" lon="4.29259">
        <ele>374.6</ele>
        <time>2023-02-19T09:12:56Z</time>
      </trkpt>
      <trkpt lat="45.6844" lon="4.29259">
        <ele>374.6</ele>
        <time>2023-02-19T09:12:58Z</time>
      </trkpt>
      <trkpt lat="45.68438" lon="4.29259">
        <ele>374.6</ele>
        <time>2023-02-19T09:12:59Z</time>
      </trkpt>
      <trkpt lat="45.68437" lon="4.29259">
        <ele>374.6</ele>
        <time>2023-02-19T09:13:00Z</time>
      </trkpt>
      <trkpt lat="45.68435" lon="4.2926">
        <ele>374.7</ele>
        <time>2023-02-19T09:13:01Z</time>
      </trkpt>
      <trkpt lat="45.68434" lon="4.2926">
        <ele>374.7</ele>
        <time>2023-02-19T09:13:02Z</time>
      </trkpt>
      <trkpt lat="45.68432" lon="4.2926">
        <ele>374.7</ele>
        <time>2023-02-19T09:13:03Z</time>
      </trkpt>
      <trkpt lat="45.68431" lon="4.2926">
        <ele>374.8</ele>
        <time>2023-02-19T09:13:04Z</time>
      </trkpt>
      <trkpt lat="45.68429" lon="4.2926">
        <ele>374.8</ele>
        <time>2023-02-19T09:13:05Z</time>
      </trkpt>
      <trkpt lat="45.68428" lon="4.29261">
        <ele>374.8</ele>
        <time>2023-02-19T09:13:06Z</time>
      </trkpt>
      <trkpt lat="45.68426" lon="4.29261">
        <ele>374.8</ele>
        <time>2023-02-19T09:13:07Z</time>
      </trkpt>
      <trkpt lat="45.68425" lon="4.29261">
        <ele>374.9</ele>
        <time>2023-02-19T09:13:08Z</time>
      </trkpt>
      <trkpt lat="45.68423" lon="4.29262">
        <ele>374.9</ele>
        <time>2023-02-19T09:13:09Z</time>
      </trkpt>
      <trkpt lat="45.68422" lon="4.29262">
        <ele>374.9</ele>
        <time>2023-02-19T09:13:11Z</time>
      </trkpt>
      <trkpt lat="45.6842" lon="4.29262">
        <ele>374.9</ele>
        <time>2023-02-19T09:13:12Z</time>
      </trkpt>
      <trkpt lat="45.68418" lon="4.29263">
        <ele>375</ele>
        <time>2023-02-19T09:13:14Z</time>
      </trkpt>
      <trkpt lat="45.68417" lon="4.29263">
        <ele>375</ele>
        <time>2023-02-19T09:13:15Z</time>
      </trkpt>
      <trkpt lat="45.68415" lon="4.29263">
        <ele>375</ele>
        <time>2023-02-19T09:13:16Z</time>
      </trkpt>
      <trkpt lat="45.68414" lon="4.29263">
        <ele>375</ele>
        <time>2023-02-19T09:13:17Z</time>
      </trkpt>
      <trkpt lat="45.68412" lon="4.29264">
        <ele>375.1</ele>
        <time>2023-02-19T09:13:18Z</time>
      </trkpt>
      <trkpt lat="45.68411" lon="4.29264">
        <ele>375.1</ele>
        <time>2023-02-19T09:13:19Z</time>
      </trkpt>
      <trkpt lat="45.68409" lon="4.29264">
        <ele>375.1</ele>
        <time>2023-02-19T09:13:20Z</time>
      </trkpt>
      <trkpt lat="45.68407" lon="4.29265">
        <ele>375.1</ele>
        <time>2023-02-19T09:13:21Z</time>
      </trkpt>
      <trkpt lat="45.68405" lon="4.29265">
        <ele>375.1</ele>
        <time>2023-02-19T09:13:23Z</time>
      </trkpt>
      <trkpt lat="45.68403" lon="4.29265">
        <ele>375.1</ele>
        <time>2023-02-19T09:13:24Z</time>
      </trkpt>
      <trkpt lat="45.68402" lon="4.29265">
        <ele>375.1</ele>
        <time>2023-02-19T09:13:25Z</time>
      </trkpt>
      <trkpt lat="45.684" lon="4.29266">
        <ele>375.2</ele>
        <time>2023-02-19T09:13:26Z</time>
      </trkpt>
      <trkpt lat="45.68399" lon="4.29266">
        <ele>375.2</ele>
        <time>2023-02-19T09:13:27Z</time>
      </trkpt>
      <trkpt lat="45.68397" lon="4.29267">
        <ele>375.2</ele>
        <time>2023-02-19T09:13:28Z</time>
      </trkpt>
      <trkpt lat="45.68396" lon="4.29268">
        <ele>375.2</ele>
        <time>2023-02-19T09:13:29Z</time>
      </trkpt>
      <trkpt lat="45.68394" lon="4.29269">
        <ele>375.2</ele>
        <time>2023-02-19T09:13:30Z</time>
      </trkpt>
      <trkpt lat="45.68393" lon="4.29269">
        <ele>375.2</ele>
        <time>2023-02-19T09:13:31Z</time>
      </trkpt>
      <trkpt lat="45.68393" lon="4.2927">
        <ele>375.2</ele>
        <time>2023-02-19T09:13:32Z</time>
      </trkpt>
      <trkpt lat="45.6839" lon="4.29273">
        <ele>375.2</ele>
        <time>2023-02-19T09:13:34Z</time>
      </trkpt>
      <trkpt lat="45.6839" lon="4.29274">
        <ele>375.2</ele>
        <time>2023-02-19T09:13:35Z</time>
      </trkpt>
      <trkpt lat="45.68388" lon="4.29278">
        <ele>375.2</ele>
        <time>2023-02-19T09:13:37Z</time>
      </trkpt>
      <trkpt lat="45.68388" lon="4.2928">
        <ele>375.3</ele>
        <time>2023-02-19T09:13:38Z</time>
      </trkpt>
      <trkpt lat="45.68388" lon="4.29282">
        <ele>375.3</ele>
        <time>2023-02-19T09:13:39Z</time>
      </trkpt>
      <trkpt lat="45.68389" lon="4.29284">
        <ele>375.2</ele>
        <time>2023-02-19T09:13:40Z</time>
      </trkpt>
      <trkpt lat="45.6839" lon="4.29286">
        <ele>375.2</ele>
        <time>2023-02-19T09:13:41Z</time>
      </trkpt>
      <trkpt lat="45.6839" lon="4.29288">
        <ele>375.2</ele>
        <time>2023-02-19T09:13:42Z</time>
      </trkpt>
      <trkpt lat="45.6839" lon="4.2929">
        <ele>375.2</ele>
        <time>2023-02-19T09:13:43Z</time>
      </trkpt>
      <trkpt lat="45.6839" lon="4.29293">
        <ele>375.2</ele>
        <time>2023-02-19T09:13:45Z</time>
      </trkpt>
      <trkpt lat="45.68389" lon="4.29295">
        <ele>375.2</ele>
        <time>2023-02-19T09:13:46Z</time>
      </trkpt>
      <trkpt lat="45.68389" lon="4.29297">
        <ele>375.2</ele>
        <time>2023-02-19T09:13:47Z</time>
      </trkpt>
      <trkpt lat="45.68389" lon="4.29299">
        <ele>375.2</ele>
        <time>2023-02-19T09:13:48Z</time>
      </trkpt>
      <trkpt lat="45.68388" lon="4.29301">
        <ele>375.1</ele>
        <time>2023-02-19T09:13:49Z</time>
      </trkpt>
      <trkpt lat="45.68388" lon="4.29303">
        <ele>375.1</ele>
        <time>2023-02-19T09:13:50Z</time>
      </trkpt>
      <trkpt lat="45.68388" lon="4.29308">
        <ele>375.1</ele>
        <time>2023-02-19T09:13:52Z</time>
      </trkpt>
      <trkpt lat="45.68388" lon="4.29308">
        <ele>375.1</ele>
        <time>2023-02-19T09:13:53Z</time>
      </trkpt>
      <trkpt lat="45.68388" lon="4.29311">
        <ele>375.2</ele>
        <time>2023-02-19T09:13:54Z</time>
      </trkpt>
      <trkpt lat="45.68388" lon="4.29313">
        <ele>375.2</ele>
        <time>2023-02-19T09:13:55Z</time>
      </trkpt>
      <trkpt lat="45.68388" lon="4.29314">
        <ele>375.2</ele>
        <time>2023-02-19T09:13:56Z</time>
      </trkpt>
      <trkpt lat="45.68388" lon="4.29316">
        <ele>375.2</ele>
        <time>2023-02-19T09:13:58Z</time>
      </trkpt>
      <trkpt lat="45.68388" lon="4.29318">
        <ele>375.2</ele>
        <time>2023-02-19T09:13:59Z</time>
      </trkpt>
      <trkpt lat="45.68388" lon="4.2932">
        <ele>375.2</ele>
        <time>2023-02-19T09:14:00Z</time>
      </trkpt>
      <trkpt lat="45.68388" lon="4.29322">
        <ele>375.2</ele>
        <time>2023-02-19T09:14:01Z</time>
      </trkpt>
      <trkpt lat="45.68388" lon="4.29324">
        <ele>375.2</ele>
        <time>2023-02-19T09:14:02Z</time>
      </trkpt>
      <trkpt lat="45.68388" lon="4.29326">
        <ele>375.3</ele>
        <time>2023-02-19T09:14:03Z</time>
      </trkpt>
      <trkpt lat="45.68389" lon="4.29328">
        <ele>375.3</ele>
        <time>2023-02-19T09:14:04Z</time>
      </trkpt>
      <trkpt lat="45.68389" lon="4.2933">
        <ele>375.3</ele>
        <time>2023-02-19T09:14:05Z</time>
      </trkpt>
      <trkpt lat="45.68389" lon="4.2933">
        <ele>375.3</ele>
        <time>2023-02-19T09:14:06Z</time>
      </trkpt>
      <trkpt lat="45.68389" lon="4.29332">
        <ele>375.4</ele>
        <time>2023-02-19T09:14:07Z</time>
      </trkpt>
      <trkpt lat="45.6839" lon="4.29333">
        <ele>375.4</ele>
        <time>2023-02-19T09:14:08Z</time>
      </trkpt>
      <trkpt lat="45.6839" lon="4.29334">
        <ele>375.4</ele>
        <time>2023-02-19T09:14:09Z</time>
      </trkpt>
      <trkpt lat="45.68391" lon="4.29338">
        <ele>375.5</ele>
        <time>2023-02-19T09:14:10Z</time>
      </trkpt>
      <trkpt lat="45.68391" lon="4.29339">
        <ele>375.5</ele>
        <time>2023-02-19T09:14:12Z</time>
      </trkpt>
      <trkpt lat="45.68391" lon="4.2934">
        <ele>375.5</ele>
        <time>2023-02-19T09:14:13Z</time>
      </trkpt>
      <trkpt lat="45.68391" lon="4.29342">
        <ele>375.5</ele>
        <time>2023-02-19T09:14:14Z</time>
      </trkpt>
      <trkpt lat="45.68392" lon="4.29344">
        <ele>375.6</ele>
        <time>2023-02-19T09:14:15Z</time>
      </trkpt>
      <trkpt lat="45.68392" lon="4.29346">
        <ele>375.6</ele>
        <time>2023-02-19T09:14:16Z</time>
      </trkpt>
      <trkpt lat="45.68393" lon="4.29348">
        <ele>375.7</ele>
        <time>2023-02-19T09:14:17Z</time>
      </trkpt>
      <trkpt lat="45.68393" lon="4.2935">
        <ele>375.7</ele>
        <time>2023-02-19T09:14:18Z</time>
      </trkpt>
      <trkpt lat="45.68394" lon="4.29354">
        <ele>375.7</ele>
        <time>2023-02-19T09:14:20Z</time>
      </trkpt>
      <trkpt lat="45.68394" lon="4.29356">
        <ele>375.8</ele>
        <time>2023-02-19T09:14:21Z</time>
      </trkpt>
      <trkpt lat="45.68394" lon="4.29358">
        <ele>375.8</ele>
        <time>2023-02-19T09:14:22Z</time>
      </trkpt>
      <trkpt lat="45.68394" lon="4.29361">
        <ele>375.8</ele>
        <time>2023-02-19T09:14:23Z</time>
      </trkpt>
      <trkpt lat="45.68395" lon="4.29363">
        <ele>375.8</ele>
        <time>2023-02-19T09:14:24Z</time>
      </trkpt>
      <trkpt lat="45.68396" lon="4.29365">
        <ele>375.9</ele>
        <time>2023-02-19T09:14:26Z</time>
      </trkpt>
      <trkpt lat="45.68397" lon="4.29367">
        <ele>375.9</ele>
        <time>2023-02-19T09:14:27Z</time>
      </trkpt>
      <trkpt lat="45.68398" lon="4.29368">
        <ele>375.9</ele>
        <time>2023-02-19T09:14:28Z</time>
      </trkpt>
      <trkpt lat="45.68399" lon="4.2937">
        <ele>375.9</ele>
        <time>2023-02-19T09:14:29Z</time>
      </trkpt>
      <trkpt lat="45.684" lon="4.29372">
        <ele>375.9</ele>
        <time>2023-02-19T09:14:30Z</time>
      </trkpt>
      <trkpt lat="45.68401" lon="4.29374">
        <ele>375.9</ele>
        <time>2023-02-19T09:14:31Z</time>
      </trkpt>
      <trkpt lat="45.68402" lon="4.29376">
        <ele>376</ele>
        <time>2023-02-19T09:14:33Z</time>
      </trkpt>
      <trkpt lat="45.68403" lon="4.29377">
        <ele>376</ele>
        <time>2023-02-19T09:14:34Z</time>
      </trkpt>
      <trkpt lat="45.68403" lon="4.29379">
        <ele>376</ele>
        <time>2023-02-19T09:14:35Z</time>
      </trkpt>
      <trkpt lat="45.68404" lon="4.2938">
        <ele>376</ele>
        <time>2023-02-19T09:14:36Z</time>
      </trkpt>
      <trkpt lat="45.68405" lon="4.29382">
        <ele>376</ele>
        <time>2023-02-19T09:14:37Z</time>
      </trkpt>
      <trkpt lat="45.68406" lon="4.29383">
        <ele>376</ele>
        <time>2023-02-19T09:14:38Z</time>
      </trkpt>
      <trkpt lat="45.68407" lon="4.29385">
        <ele>376</ele>
        <time>2023-02-19T09:14:39Z</time>
      </trkpt>
      <trkpt lat="45.68408" lon="4.29386">
        <ele>376</ele>
        <time>2023-02-19T09:14:40Z</time>
      </trkpt>
      <trkpt lat="45.6841" lon="4.29388">
        <ele>376.1</ele>
        <time>2023-02-19T09:14:42Z</time>
      </trkpt>
      <trkpt lat="45.68411" lon="4.29389">
        <ele>376.1</ele>
        <time>2023-02-19T09:14:43Z</time>
      </trkpt>
      <trkpt lat="45.68412" lon="4.2939">
        <ele>376.1</ele>
        <time>2023-02-19T09:14:44Z</time>
      </trkpt>
      <trkpt lat="45.68413" lon="4.29391">
        <ele>376.1</ele>
        <time>2023-02-19T09:14:45Z</time>
      </trkpt>
      <trkpt lat="45.68414" lon="4.29392">
        <ele>376.1</ele>
        <time>2023-02-19T09:14:46Z</time>
      </trkpt>
      <trkpt lat="45.68416" lon="4.29393">
        <ele>376.1</ele>
        <time>2023-02-19T09:14:47Z</time>
      </trkpt>
      <trkpt lat="45.68417" lon="4.29394">
        <ele>376.1</ele>
        <time>2023-02-19T09:14:48Z</time>
      </trkpt>
      <trkpt lat="45.68419" lon="4.29394">
        <ele>376.1</ele>
        <time>2023-02-19T09:14:49Z</time>
      </trkpt>
      <trkpt lat="45.6842" lon="4.29395">
        <ele>376.1</ele>
        <time>2023-02-19T09:14:50Z</time>
      </trkpt>
      <trkpt lat="45.68422" lon="4.29396">
        <ele>376.2</ele>
        <time>2023-02-19T09:14:52Z</time>
      </trkpt>
      <trkpt lat="45.68423" lon="4.29397">
        <ele>376.2</ele>
        <time>2023-02-19T09:14:53Z</time>
      </trkpt>
      <trkpt lat="45.68424" lon="4.29398">
        <ele>376.2</ele>
        <time>2023-02-19T09:14:54Z</time>
      </trkpt>
      <trkpt lat="45.68425" lon="4.29398">
        <ele>376.2</ele>
        <time>2023-02-19T09:14:55Z</time>
      </trkpt>
      <trkpt lat="45.68426" lon="4.29399">
        <ele>376.2</ele>
        <time>2023-02-19T09:14:56Z</time>
      </trkpt>
      <trkpt lat="45.68426" lon="4.29399">
        <ele>376.2</ele>
        <time>2023-02-19T09:14:57Z</time>
      </trkpt>
      <trkpt lat="45.6843" lon="4.294">
        <ele>376.3</ele>
        <time>2023-02-19T09:14:59Z</time>
      </trkpt>
      <trkpt lat="45.6843" lon="4.294">
        <ele>376.3</ele>
        <time>2023-02-19T09:15:00Z</time>
      </trkpt>
      <trkpt lat="45.68431" lon="4.294">
        <ele>376.3</ele>
        <time>2023-02-19T09:15:01Z</time>
      </trkpt>
      <trkpt lat="45.68433" lon="4.29401">
        <ele>376.4</ele>
        <time>2023-02-19T09:15:03Z</time>
      </trkpt>
      <trkpt lat="45.68434" lon="4.29401">
        <ele>376.4</ele>
        <time>2023-02-19T09:15:04Z</time>
      </trkpt>
      <trkpt lat="45.68435" lon="4.29402">
        <ele>376.4</ele>
        <time>2023-02-19T09:15:05Z</time>
      </trkpt>
      <trkpt lat="45.68436" lon="4.29402">
        <ele>376.4</ele>
        <time>2023-02-19T09:15:06Z</time>
      </trkpt>
      <trkpt lat="45.68438" lon="4.29403">
        <ele>376.5</ele>
        <time>2023-02-19T09:15:07Z</time>
      </trkpt>
      <trkpt lat="45.68439" lon="4.29403">
        <ele>376.5</ele>
        <time>2023-02-19T09:15:08Z</time>
      </trkpt>
      <trkpt lat="45.6844" lon="4.29403">
        <ele>376.5</ele>
        <time>2023-02-19T09:15:09Z</time>
      </trkpt>
      <trkpt lat="45.68442" lon="4.29403">
        <ele>376.5</ele>
        <time>2023-02-19T09:15:10Z</time>
      </trkpt>
      <trkpt lat="45.68443" lon="4.29404">
        <ele>376.5</ele>
        <time>2023-02-19T09:15:12Z</time>
      </trkpt>
      <trkpt lat="45.68445" lon="4.29404">
        <ele>376.6</ele>
        <time>2023-02-19T09:15:13Z</time>
      </trkpt>
      <trkpt lat="45.68446" lon="4.29404">
        <ele>376.6</ele>
        <time>2023-02-19T09:15:14Z</time>
      </trkpt>
      <trkpt lat="45.68448" lon="4.29404">
        <ele>376.6</ele>
        <time>2023-02-19T09:15:15Z</time>
      </trkpt>
      <trkpt lat="45.68449" lon="4.29404">
        <ele>376.6</ele>
        <time>2023-02-19T09:15:16Z</time>
      </trkpt>
      <trkpt lat="45.68451" lon="4.29404">
        <ele>376.6</ele>
        <time>2023-02-19T09:15:17Z</time>
      </trkpt>
      <trkpt lat="45.68452" lon="4.29404">
        <ele>376.7</ele>
        <time>2023-02-19T09:15:18Z</time>
      </trkpt>
      <trkpt lat="45.68454" lon="4.29404">
        <ele>376.7</ele>
        <time>2023-02-19T09:15:20Z</time>
      </trkpt>
      <trkpt lat="45.68456" lon="4.29405">
        <ele>376.7</ele>
        <time>2023-02-19T09:15:21Z</time>
      </trkpt>
      <trkpt lat="45.68458" lon="4.29406">
        <ele>376.7</ele>
        <time>2023-02-19T09:15:22Z</time>
      </trkpt>
      <trkpt lat="45.68458" lon="4.29407">
        <ele>376.8</ele>
        <time>2023-02-19T09:15:23Z</time>
      </trkpt>
      <trkpt lat="45.68459" lon="4.29407">
        <ele>376.8</ele>
        <time>2023-02-19T09:15:24Z</time>
      </trkpt>
      <trkpt lat="45.68461" lon="4.29407">
        <ele>376.8</ele>
        <time>2023-02-19T09:15:25Z</time>
      </trkpt>
      <trkpt lat="45.68462" lon="4.29407">
        <ele>376.8</ele>
        <time>2023-02-19T09:15:26Z</time>
      </trkpt>
      <trkpt lat="45.68465" lon="4.29408">
        <ele>376.9</ele>
        <time>2023-02-19T09:15:27Z</time>
      </trkpt>
      <trkpt lat="45.68465" lon="4.29408">
        <ele>376.9</ele>
        <time>2023-02-19T09:15:28Z</time>
      </trkpt>
      <trkpt lat="45.68466" lon="4.29408">
        <ele>376.9</ele>
        <time>2023-02-19T09:15:29Z</time>
      </trkpt>
      <trkpt lat="45.68469" lon="4.29409">
        <ele>376.9</ele>
        <time>2023-02-19T09:15:31Z</time>
      </trkpt>
      <trkpt lat="45.68469" lon="4.29409">
        <ele>377</ele>
        <time>2023-02-19T09:15:32Z</time>
      </trkpt>
      <trkpt lat="45.6847" lon="4.29409">
        <ele>377</ele>
        <time>2023-02-19T09:15:33Z</time>
      </trkpt>
      <trkpt lat="45.68471" lon="4.2941">
        <ele>377</ele>
        <time>2023-02-19T09:15:34Z</time>
      </trkpt>
      <trkpt lat="45.68472" lon="4.29411">
        <ele>377</ele>
        <time>2023-02-19T09:15:35Z</time>
      </trkpt>
      <trkpt lat="45.68473" lon="4.29411">
        <ele>377</ele>
        <time>2023-02-19T09:15:36Z</time>
      </trkpt>
      <trkpt lat="45.68474" lon="4.29412">
        <ele>377</ele>
        <time>2023-02-19T09:15:37Z</time>
      </trkpt>
      <trkpt lat="45.68475" lon="4.29413">
        <ele>377</ele>
        <time>2023-02-19T09:15:38Z</time>
      </trkpt>
      <trkpt lat="45.68476" lon="4.29413">
        <ele>377</ele>
        <time>2023-02-19T09:15:39Z</time>
      </trkpt>
      <trkpt lat="45.68478" lon="4.29415">
        <ele>377</ele>
        <time>2023-02-19T09:15:41Z</time>
      </trkpt>
      <trkpt lat="45.68479" lon="4.29415">
        <ele>377</ele>
        <time>2023-02-19T09:15:42Z</time>
      </trkpt>
      <trkpt lat="45.6848" lon="4.29415">
        <ele>377</ele>
        <time>2023-02-19T09:15:43Z</time>
      </trkpt>
      <trkpt lat="45.68481" lon="4.29416">
        <ele>377</ele>
        <time>2023-02-19T09:15:44Z</time>
      </trkpt>
      <trkpt lat="45.68483" lon="4.29417">
        <ele>377.1</ele>
        <time>2023-02-19T09:15:45Z</time>
      </trkpt>
      <trkpt lat="45.68486" lon="4.29419">
        <ele>377.1</ele>
        <time>2023-02-19T09:15:47Z</time>
      </trkpt>
      <trkpt lat="45.68486" lon="4.2942">
        <ele>377.1</ele>
        <time>2023-02-19T09:15:48Z</time>
      </trkpt>
      <trkpt lat="45.68487" lon="4.29421">
        <ele>377.1</ele>
        <time>2023-02-19T09:15:49Z</time>
      </trkpt>
      <trkpt lat="45.68488" lon="4.29423">
        <ele>377.1</ele>
        <time>2023-02-19T09:15:50Z</time>
      </trkpt>
      <trkpt lat="45.6849" lon="4.29424">
        <ele>377.1</ele>
        <time>2023-02-19T09:15:51Z</time>
      </trkpt>
      <trkpt lat="45.68491" lon="4.29426">
        <ele>377.1</ele>
        <time>2023-02-19T09:15:52Z</time>
      </trkpt>
      <trkpt lat="45.68492" lon="4.29427">
        <ele>377.1</ele>
        <time>2023-02-19T09:15:53Z</time>
      </trkpt>
      <trkpt lat="45.68494" lon="4.2943">
        <ele>377.1</ele>
        <time>2023-02-19T09:15:55Z</time>
      </trkpt>
      <trkpt lat="45.68495" lon="4.29432">
        <ele>377.2</ele>
        <time>2023-02-19T09:15:56Z</time>
      </trkpt>
      <trkpt lat="45.68495" lon="4.29433">
        <ele>377.2</ele>
        <time>2023-02-19T09:15:57Z</time>
      </trkpt>
      <trkpt lat="45.68497" lon="4.29437">
        <ele>377.2</ele>
        <time>2023-02-19T09:15:59Z</time>
      </trkpt>
      <trkpt lat="45.68497" lon="4.29438">
        <ele>377.2</ele>
        <time>2023-02-19T09:16:00Z</time>
      </trkpt>
      <trkpt lat="45.68498" lon="4.2944">
        <ele>377.2</ele>
        <time>2023-02-19T09:16:01Z</time>
      </trkpt>
      <trkpt lat="45.68499" lon="4.29442">
        <ele>377.2</ele>
        <time>2023-02-19T09:16:02Z</time>
      </trkpt>
      <trkpt lat="45.68499" lon="4.29444">
        <ele>377.2</ele>
        <time>2023-02-19T09:16:03Z</time>
      </trkpt>
      <trkpt lat="45.685" lon="4.29446">
        <ele>377.2</ele>
        <time>2023-02-19T09:16:04Z</time>
      </trkpt>
      <trkpt lat="45.68501" lon="4.2945">
        <ele>377.2</ele>
        <time>2023-02-19T09:16:06Z</time>
      </trkpt>
      <trkpt lat="45.68502" lon="4.2945">
        <ele>377.2</ele>
        <time>2023-02-19T09:16:07Z</time>
      </trkpt>
      <trkpt lat="45.68502" lon="4.29452">
        <ele>377.2</ele>
        <time>2023-02-19T09:16:08Z</time>
      </trkpt>
      <trkpt lat="45.68502" lon="4.29455">
        <ele>377.2</ele>
        <time>2023-02-19T09:16:09Z</time>
      </trkpt>
      <trkpt lat="45.68502" lon="4.29457">
        <ele>377.2</ele>
        <time>2023-02-19T09:16:10Z</time>
      </trkpt>
      <trkpt lat="45.68503" lon="4.29461">
        <ele>377.2</ele>
        <time>2023-02-19T09:16:12Z</time>
      </trkpt>
      <trkpt lat="45.68503" lon="4.29463">
        <ele>377.2</ele>
        <time>2023-02-19T09:16:13Z</time>
      </trkpt>
      <trkpt lat="45.68504" lon="4.29465">
        <ele>377.2</ele>
        <time>2023-02-19T09:16:14Z</time>
      </trkpt>
      <trkpt lat="45.68504" lon="4.29468">
        <ele>377.3</ele>
        <time>2023-02-19T09:16:15Z</time>
      </trkpt>
      <trkpt lat="45.68504" lon="4.2947">
        <ele>377.3</ele>
        <time>2023-02-19T09:16:16Z</time>
      </trkpt>
      <trkpt lat="45.68505" lon="4.29475">
        <ele>377.3</ele>
        <time>2023-02-19T09:16:18Z</time>
      </trkpt>
      <trkpt lat="45.68505" lon="4.29476">
        <ele>377.3</ele>
        <time>2023-02-19T09:16:19Z</time>
      </trkpt>
      <trkpt lat="45.68505" lon="4.29478">
        <ele>377.3</ele>
        <time>2023-02-19T09:16:20Z</time>
      </trkpt>
      <trkpt lat="45.68505" lon="4.2948">
        <ele>377.3</ele>
        <time>2023-02-19T09:16:21Z</time>
      </trkpt>
      <trkpt lat="45.68506" lon="4.29481">
        <ele>377.4</ele>
        <time>2023-02-19T09:16:22Z</time>
      </trkpt>
      <trkpt lat="45.68506" lon="4.29484">
        <ele>377.4</ele>
        <time>2023-02-19T09:16:23Z</time>
      </trkpt>
      <trkpt lat="45.68507" lon="4.29486">
        <ele>377.4</ele>
        <time>2023-02-19T09:16:25Z</time>
      </trkpt>
      <trkpt lat="45.68507" lon="4.29489">
        <ele>377.4</ele>
        <time>2023-02-19T09:16:26Z</time>
      </trkpt>
      <trkpt lat="45.68508" lon="4.29491">
        <ele>377.4</ele>
        <time>2023-02-19T09:16:27Z</time>
      </trkpt>
      <trkpt lat="45.68509" lon="4.29493">
        <ele>377.5</ele>
        <time>2023-02-19T09:16:28Z</time>
      </trkpt>
      <trkpt lat="45.68509" lon="4.29496">
        <ele>377.5</ele>
        <time>2023-02-19T09:16:29Z</time>
      </trkpt>
      <trkpt lat="45.6851" lon="4.29498">
        <ele>377.5</ele>
        <time>2023-02-19T09:16:30Z</time>
      </trkpt>
      <trkpt lat="45.6851" lon="4.295">
        <ele>377.6</ele>
        <time>2023-02-19T09:16:31Z</time>
      </trkpt>
      <trkpt lat="45.68511" lon="4.29503">
        <ele>377.6</ele>
        <time>2023-02-19T09:16:32Z</time>
      </trkpt>
      <trkpt lat="45.68511" lon="4.29505">
        <ele>377.6</ele>
        <time>2023-02-19T09:16:33Z</time>
      </trkpt>
      <trkpt lat="45.68511" lon="4.29507">
        <ele>377.6</ele>
        <time>2023-02-19T09:16:34Z</time>
      </trkpt>
      <trkpt lat="45.68511" lon="4.29509">
        <ele>377.7</ele>
        <time>2023-02-19T09:16:35Z</time>
      </trkpt>
      <trkpt lat="45.68511" lon="4.2951">
        <ele>377.7</ele>
        <time>2023-02-19T09:16:36Z</time>
      </trkpt>
      <trkpt lat="45.68512" lon="4.29512">
        <ele>377.7</ele>
        <time>2023-02-19T09:16:38Z</time>
      </trkpt>
      <trkpt lat="45.68512" lon="4.29514">
        <ele>377.8</ele>
        <time>2023-02-19T09:16:39Z</time>
      </trkpt>
      <trkpt lat="45.68513" lon="4.29515">
        <ele>377.8</ele>
        <time>2023-02-19T09:16:40Z</time>
      </trkpt>
      <trkpt lat="45.68514" lon="4.29517">
        <ele>377.8</ele>
        <time>2023-02-19T09:16:42Z</time>
      </trkpt>
      <trkpt lat="45.68515" lon="4.2952">
        <ele>377.9</ele>
        <time>2023-02-19T09:16:43Z</time>
      </trkpt>
      <trkpt lat="45.68516" lon="4.29521">
        <ele>377.9</ele>
        <time>2023-02-19T09:16:44Z</time>
      </trkpt>
      <trkpt lat="45.68516" lon="4.29522">
        <ele>377.9</ele>
        <time>2023-02-19T09:16:45Z</time>
      </trkpt>
      <trkpt lat="45.68516" lon="4.29524">
        <ele>378</ele>
        <time>2023-02-19T09:16:46Z</time>
      </trkpt>
      <trkpt lat="45.68517" lon="4.29526">
        <ele>378</ele>
        <time>2023-02-19T09:16:47Z</time>
      </trkpt>
      <trkpt lat="45.68517" lon="4.29529">
        <ele>378</ele>
        <time>2023-02-19T09:16:48Z</time>
      </trkpt>
      <trkpt lat="45.68517" lon="4.29531">
        <ele>378</ele>
        <time>2023-02-19T09:16:49Z</time>
      </trkpt>
      <trkpt lat="45.68517" lon="4.29533">
        <ele>378.1</ele>
        <time>2023-02-19T09:16:50Z</time>
      </trkpt>
      <trkpt lat="45.68518" lon="4.29535">
        <ele>378.1</ele>
        <time>2023-02-19T09:16:52Z</time>
      </trkpt>
      <trkpt lat="45.68518" lon="4.29537">
        <ele>378.1</ele>
        <time>2023-02-19T09:16:53Z</time>
      </trkpt>
      <trkpt lat="45.68518" lon="4.29539">
        <ele>378.1</ele>
        <time>2023-02-19T09:16:54Z</time>
      </trkpt>
      <trkpt lat="45.68518" lon="4.29543">
        <ele>378.2</ele>
        <time>2023-02-19T09:16:55Z</time>
      </trkpt>
      <trkpt lat="45.68518" lon="4.29544">
        <ele>378.2</ele>
        <time>2023-02-19T09:16:56Z</time>
      </trkpt>
      <trkpt lat="45.68519" lon="4.29545">
        <ele>378.2</ele>
        <time>2023-02-19T09:16:57Z</time>
      </trkpt>
      <trkpt lat="45.68519" lon="4.29548">
        <ele>378.2</ele>
        <time>2023-02-19T09:16:58Z</time>
      </trkpt>
      <trkpt lat="45.68519" lon="4.29549">
        <ele>378.2</ele>
        <time>2023-02-19T09:16:59Z</time>
      </trkpt>
      <trkpt lat="45.6852" lon="4.2955">
        <ele>378.3</ele>
        <time>2023-02-19T09:17:00Z</time>
      </trkpt>
      <trkpt lat="45.68521" lon="4.29555">
        <ele>378.3</ele>
        <time>2023-02-19T09:17:02Z</time>
      </trkpt>
      <trkpt lat="45.68521" lon="4.29556">
        <ele>378.3</ele>
        <time>2023-02-19T09:17:03Z</time>
      </trkpt>
      <trkpt lat="45.68521" lon="4.29559">
        <ele>378.3</ele>
        <time>2023-02-19T09:17:04Z</time>
      </trkpt>
      <trkpt lat="45.68522" lon="4.2956">
        <ele>378.3</ele>
        <time>2023-02-19T09:17:06Z</time>
      </trkpt>
      <trkpt lat="45.68522" lon="4.29561">
        <ele>378.4</ele>
        <time>2023-02-19T09:17:07Z</time>
      </trkpt>
      <trkpt lat="45.68522" lon="4.29563">
        <ele>378.4</ele>
        <time>2023-02-19T09:17:08Z</time>
      </trkpt>
      <trkpt lat="45.68523" lon="4.29565">
        <ele>378.4</ele>
        <time>2023-02-19T09:17:09Z</time>
      </trkpt>
      <trkpt lat="45.68523" lon="4.29567">
        <ele>378.4</ele>
        <time>2023-02-19T09:17:10Z</time>
      </trkpt>
      <trkpt lat="45.68523" lon="4.29569">
        <ele>378.4</ele>
        <time>2023-02-19T09:17:11Z</time>
      </trkpt>
      <trkpt lat="45.68524" lon="4.29571">
        <ele>378.4</ele>
        <time>2023-02-19T09:17:13Z</time>
      </trkpt>
      <trkpt lat="45.68524" lon="4.29572">
        <ele>378.4</ele>
        <time>2023-02-19T09:17:14Z</time>
      </trkpt>
      <trkpt lat="45.68525" lon="4.29573">
        <ele>378.4</ele>
        <time>2023-02-19T09:17:15Z</time>
      </trkpt>
      <trkpt lat="45.68525" lon="4.29574">
        <ele>378.5</ele>
        <time>2023-02-19T09:17:16Z</time>
      </trkpt>
      <trkpt lat="45.68526" lon="4.29575">
        <ele>378.5</ele>
        <time>2023-02-19T09:17:17Z</time>
      </trkpt>
      <trkpt lat="45.68526" lon="4.29576">
        <ele>378.5</ele>
        <time>2023-02-19T09:17:18Z</time>
      </trkpt>
      <trkpt lat="45.68527" lon="4.29577">
        <ele>378.5</ele>
        <time>2023-02-19T09:17:19Z</time>
      </trkpt>
      <trkpt lat="45.68527" lon="4.29579">
        <ele>378.5</ele>
        <time>2023-02-19T09:17:21Z</time>
      </trkpt>
      <trkpt lat="45.68528" lon="4.29581">
        <ele>378.5</ele>
        <time>2023-02-19T09:17:22Z</time>
      </trkpt>
      <trkpt lat="45.68528" lon="4.29583">
        <ele>378.5</ele>
        <time>2023-02-19T09:17:23Z</time>
      </trkpt>
      <trkpt lat="45.68529" lon="4.29585">
        <ele>378.5</ele>
        <time>2023-02-19T09:17:24Z</time>
      </trkpt>
      <trkpt lat="45.68529" lon="4.29587">
        <ele>378.5</ele>
        <time>2023-02-19T09:17:25Z</time>
      </trkpt>
      <trkpt lat="45.6853" lon="4.29589">
        <ele>378.5</ele>
        <time>2023-02-19T09:17:26Z</time>
      </trkpt>
      <trkpt lat="45.6853" lon="4.29591">
        <ele>378.5</ele>
        <time>2023-02-19T09:17:27Z</time>
      </trkpt>
      <trkpt lat="45.6853" lon="4.29593">
        <ele>378.5</ele>
        <time>2023-02-19T09:17:28Z</time>
      </trkpt>
      <trkpt lat="45.6853" lon="4.29596">
        <ele>378.6</ele>
        <time>2023-02-19T09:17:30Z</time>
      </trkpt>
      <trkpt lat="45.6853" lon="4.29598">
        <ele>378.6</ele>
        <time>2023-02-19T09:17:31Z</time>
      </trkpt>
      <trkpt lat="45.6853" lon="4.29598">
        <ele>378.6</ele>
        <time>2023-02-19T09:17:33Z</time>
      </trkpt>
      <trkpt lat="45.6853" lon="4.29598">
        <ele>378.6</ele>
        <time>2023-02-19T09:17:34Z</time>
      </trkpt>
      <trkpt lat="45.6853" lon="4.29598">
        <ele>378.6</ele>
        <time>2023-02-19T09:17:35Z</time>
      </trkpt>
      <trkpt lat="45.6853" lon="4.29598">
        <ele>378.6</ele>
        <time>2023-02-19T09:17:36Z</time>
      </trkpt>
      <trkpt lat="45.68529" lon="4.29597">
        <ele>378.6</ele>
        <time>2023-02-19T09:17:37Z</time>
      </trkpt>
      <trkpt lat="45.68529" lon="4.29597">
        <ele>378.6</ele>
        <time>2023-02-19T09:17:39Z</time>
      </trkpt>
      <trkpt lat="45.68529" lon="4.29597">
        <ele>378.6</ele>
        <time>2023-02-19T09:17:40Z</time>
      </trkpt>
      <trkpt lat="45.68529" lon="4.29597">
        <ele>378.6</ele>
        <time>2023-02-19T09:17:41Z</time>
      </trkpt>
      <trkpt lat="45.68529" lon="4.29597">
        <ele>378.6</ele>
        <time>2023-02-19T09:17:43Z</time>
      </trkpt>
      <trkpt lat="45.68529" lon="4.29597">
        <ele>378.6</ele>
        <time>2023-02-19T09:17:44Z</time>
      </trkpt>
      <trkpt lat="45.68529" lon="4.29597">
        <ele>378.6</ele>
        <time>2023-02-19T09:17:45Z</time>
      </trkpt>
      <trkpt lat="45.68529" lon="4.29597">
        <ele>378.6</ele>
        <time>2023-02-19T09:17:46Z</time>
      </trkpt>
      <trkpt lat="45.6853" lon="4.29597">
        <ele>378.6</ele>
        <time>2023-02-19T09:17:48Z</time>
      </trkpt>
      <trkpt lat="45.6853" lon="4.29597">
        <ele>378.6</ele>
        <time>2023-02-19T09:17:49Z</time>
      </trkpt>
      <trkpt lat="45.6853" lon="4.29598">
        <ele>378.6</ele>
        <time>2023-02-19T09:17:50Z</time>
      </trkpt>
      <trkpt lat="45.6853" lon="4.29599">
        <ele>378.6</ele>
        <time>2023-02-19T09:17:51Z</time>
      </trkpt>
      <trkpt lat="45.68531" lon="4.29599">
        <ele>378.6</ele>
        <time>2023-02-19T09:17:52Z</time>
      </trkpt>
      <trkpt lat="45.68531" lon="4.296">
        <ele>378.6</ele>
        <time>2023-02-19T09:17:53Z</time>
      </trkpt>
      <trkpt lat="45.68531" lon="4.296">
        <ele>378.6</ele>
        <time>2023-02-19T09:17:54Z</time>
      </trkpt>
      <trkpt lat="45.68531" lon="4.29601">
        <ele>378.6</ele>
        <time>2023-02-19T09:17:55Z</time>
      </trkpt>
      <trkpt lat="45.68531" lon="4.29601">
        <ele>378.6</ele>
        <time>2023-02-19T09:17:56Z</time>
      </trkpt>
      <trkpt lat="45.68531" lon="4.29601">
        <ele>378.6</ele>
        <time>2023-02-19T09:17:57Z</time>
      </trkpt>
      <trkpt lat="45.68531" lon="4.29601">
        <ele>378.6</ele>
        <time>2023-02-19T09:17:58Z</time>
      </trkpt>
      <trkpt lat="45.68531" lon="4.29601">
        <ele>378.6</ele>
        <time>2023-02-19T09:17:59Z</time>
      </trkpt>
      <trkpt lat="45.68531" lon="4.29601">
        <ele>378.6</ele>
        <time>2023-02-19T09:18:00Z</time>
      </trkpt>
      <trkpt lat="45.68531" lon="4.296">
        <ele>378.6</ele>
        <time>2023-02-19T09:18:01Z</time>
      </trkpt>
      <trkpt lat="45.68531" lon="4.296">
        <ele>378.6</ele>
        <time>2023-02-19T09:18:02Z</time>
      </trkpt>
      <trkpt lat="45.68531" lon="4.296">
        <ele>378.6</ele>
        <time>2023-02-19T09:18:03Z</time>
      </trkpt>
      <trkpt lat="45.68531" lon="4.296">
        <ele>378.6</ele>
        <time>2023-02-19T09:18:04Z</time>
      </trkpt>
      <trkpt lat="45.68531" lon="4.296">
        <ele>378.6</ele>
        <time>2023-02-19T09:18:05Z</time>
      </trkpt>
      <trkpt lat="45.68531" lon="4.296">
        <ele>378.6</ele>
        <time>2023-02-19T09:18:06Z</time>
      </trkpt>
      <trkpt lat="45.68531" lon="4.296">
        <ele>378.6</ele>
        <time>2023-02-19T09:18:07Z</time>
      </trkpt>
      <trkpt lat="45.68531" lon="4.296">
        <ele>378.6</ele>
        <time>2023-02-19T09:18:08Z</time>
      </trkpt>
      <trkpt lat="45.68531" lon="4.296">
        <ele>378.7</ele>
        <time>2023-02-19T09:18:09Z</time>
      </trkpt>
      <trkpt lat="45.68531" lon="4.296">
        <ele>378.7</ele>
        <time>2023-02-19T09:18:10Z</time>
      </trkpt>
      <trkpt lat="45.68531" lon="4.296">
        <ele>378.7</ele>
        <time>2023-02-19T09:18:11Z</time>
      </trkpt>
      <trkpt lat="45.68531" lon="4.296">
        <ele>378.7</ele>
        <time>2023-02-19T09:18:12Z</time>
      </trkpt>
      <trkpt lat="45.68532" lon="4.29601">
        <ele>378.7</ele>
        <time>2023-02-19T09:18:13Z</time>
      </trkpt>
      <trkpt lat="45.68532" lon="4.29601">
        <ele>378.7</ele>
        <time>2023-02-19T09:18:14Z</time>
      </trkpt>
      <trkpt lat="45.68532" lon="4.29603">
        <ele>378.7</ele>
        <time>2023-02-19T09:18:15Z</time>
      </trkpt>
      <trkpt lat="45.68532" lon="4.29604">
        <ele>378.7</ele>
        <time>2023-02-19T09:18:16Z</time>
      </trkpt>
      <trkpt lat="45.68532" lon="4.29606">
        <ele>378.7</ele>
        <time>2023-02-19T09:18:17Z</time>
      </trkpt>
      <trkpt lat="45.68532" lon="4.29607">
        <ele>378.8</ele>
        <time>2023-02-19T09:18:18Z</time>
      </trkpt>
      <trkpt lat="45.68532" lon="4.29609">
        <ele>378.8</ele>
        <time>2023-02-19T09:18:19Z</time>
      </trkpt>
      <trkpt lat="45.68532" lon="4.2961">
        <ele>378.8</ele>
        <time>2023-02-19T09:18:20Z</time>
      </trkpt>
      <trkpt lat="45.68532" lon="4.29612">
        <ele>378.9</ele>
        <time>2023-02-19T09:18:21Z</time>
      </trkpt>
      <trkpt lat="45.68533" lon="4.29616">
        <ele>379</ele>
        <time>2023-02-19T09:18:22Z</time>
      </trkpt>
      <trkpt lat="45.68533" lon="4.29617">
        <ele>379</ele>
        <time>2023-02-19T09:18:23Z</time>
      </trkpt>
      <trkpt lat="45.68533" lon="4.29619">
        <ele>379.1</ele>
        <time>2023-02-19T09:18:25Z</time>
      </trkpt>
      <trkpt lat="45.68534" lon="4.29621">
        <ele>379.2</ele>
        <time>2023-02-19T09:18:26Z</time>
      </trkpt>
      <trkpt lat="45.68535" lon="4.29623">
        <ele>379.3</ele>
        <time>2023-02-19T09:18:27Z</time>
      </trkpt>
      <trkpt lat="45.68536" lon="4.29626">
        <ele>379.4</ele>
        <time>2023-02-19T09:18:28Z</time>
      </trkpt>
      <trkpt lat="45.68536" lon="4.29628">
        <ele>379.5</ele>
        <time>2023-02-19T09:18:29Z</time>
      </trkpt>
      <trkpt lat="45.68537" lon="4.2963">
        <ele>379.6</ele>
        <time>2023-02-19T09:18:30Z</time>
      </trkpt>
      <trkpt lat="45.68538" lon="4.29633">
        <ele>379.7</ele>
        <time>2023-02-19T09:18:31Z</time>
      </trkpt>
      <trkpt lat="45.68538" lon="4.29634">
        <ele>379.7</ele>
        <time>2023-02-19T09:18:32Z</time>
      </trkpt>
      <trkpt lat="45.68538" lon="4.29635">
        <ele>379.8</ele>
        <time>2023-02-19T09:18:33Z</time>
      </trkpt>
      <trkpt lat="45.68539" lon="4.29638">
        <ele>379.9</ele>
        <time>2023-02-19T09:18:34Z</time>
      </trkpt>
      <trkpt lat="45.68539" lon="4.29639">
        <ele>379.9</ele>
        <time>2023-02-19T09:18:35Z</time>
      </trkpt>
      <trkpt lat="45.68539" lon="4.2964">
        <ele>379.9</ele>
        <time>2023-02-19T09:18:36Z</time>
      </trkpt>
      <trkpt lat="45.6854" lon="4.29643">
        <ele>380</ele>
        <time>2023-02-19T09:18:38Z</time>
      </trkpt>
      <trkpt lat="45.6854" lon="4.29644">
        <ele>380.1</ele>
        <time>2023-02-19T09:18:39Z</time>
      </trkpt>
      <trkpt lat="45.6854" lon="4.29645">
        <ele>380.1</ele>
        <time>2023-02-19T09:18:40Z</time>
      </trkpt>
      <trkpt lat="45.6854" lon="4.29647">
        <ele>380.1</ele>
        <time>2023-02-19T09:18:41Z</time>
      </trkpt>
      <trkpt lat="45.6854" lon="4.29649">
        <ele>380.2</ele>
        <time>2023-02-19T09:18:42Z</time>
      </trkpt>
      <trkpt lat="45.68541" lon="4.2965">
        <ele>380.2</ele>
        <time>2023-02-19T09:18:43Z</time>
      </trkpt>
      <trkpt lat="45.68541" lon="4.29652">
        <ele>380.2</ele>
        <time>2023-02-19T09:18:44Z</time>
      </trkpt>
      <trkpt lat="45.68541" lon="4.29653">
        <ele>380.3</ele>
        <time>2023-02-19T09:18:45Z</time>
      </trkpt>
      <trkpt lat="45.68541" lon="4.29655">
        <ele>380.3</ele>
        <time>2023-02-19T09:18:47Z</time>
      </trkpt>
      <trkpt lat="45.68542" lon="4.29658">
        <ele>380.4</ele>
        <time>2023-02-19T09:18:48Z</time>
      </trkpt>
      <trkpt lat="45.68542" lon="4.29659">
        <ele>380.4</ele>
        <time>2023-02-19T09:18:49Z</time>
      </trkpt>
      <trkpt lat="45.68542" lon="4.29661">
        <ele>380.4</ele>
        <time>2023-02-19T09:18:50Z</time>
      </trkpt>
      <trkpt lat="45.68543" lon="4.29663">
        <ele>380.5</ele>
        <time>2023-02-19T09:18:51Z</time>
      </trkpt>
      <trkpt lat="45.68543" lon="4.29664">
        <ele>380.5</ele>
        <time>2023-02-19T09:18:52Z</time>
      </trkpt>
      <trkpt lat="45.68544" lon="4.29665">
        <ele>380.5</ele>
        <time>2023-02-19T09:18:53Z</time>
      </trkpt>
      <trkpt lat="45.68545" lon="4.29667">
        <ele>380.6</ele>
        <time>2023-02-19T09:18:54Z</time>
      </trkpt>
      <trkpt lat="45.68545" lon="4.29668">
        <ele>380.6</ele>
        <time>2023-02-19T09:18:55Z</time>
      </trkpt>
      <trkpt lat="45.68546" lon="4.29673">
        <ele>380.7</ele>
        <time>2023-02-19T09:18:57Z</time>
      </trkpt>
      <trkpt lat="45.68546" lon="4.29674">
        <ele>380.8</ele>
        <time>2023-02-19T09:18:58Z</time>
      </trkpt>
      <trkpt lat="45.68546" lon="4.29676">
        <ele>380.8</ele>
        <time>2023-02-19T09:18:59Z</time>
      </trkpt>
      <trkpt lat="45.68546" lon="4.29678">
        <ele>380.9</ele>
        <time>2023-02-19T09:19:00Z</time>
      </trkpt>
      <trkpt lat="45.68546" lon="4.29681">
        <ele>381</ele>
        <time>2023-02-19T09:19:02Z</time>
      </trkpt>
      <trkpt lat="45.68547" lon="4.29683">
        <ele>381.1</ele>
        <time>2023-02-19T09:19:03Z</time>
      </trkpt>
      <trkpt lat="45.68547" lon="4.29685">
        <ele>381.2</ele>
        <time>2023-02-19T09:19:04Z</time>
      </trkpt>
      <trkpt lat="45.68547" lon="4.29687">
        <ele>381.3</ele>
        <time>2023-02-19T09:19:05Z</time>
      </trkpt>
      <trkpt lat="45.68547" lon="4.29689">
        <ele>381.4</ele>
        <time>2023-02-19T09:19:06Z</time>
      </trkpt>
      <trkpt lat="45.68548" lon="4.29691">
        <ele>381.5</ele>
        <time>2023-02-19T09:19:07Z</time>
      </trkpt>
      <trkpt lat="45.68548" lon="4.29693">
        <ele>381.6</ele>
        <time>2023-02-19T09:19:08Z</time>
      </trkpt>
      <trkpt lat="45.68548" lon="4.29695">
        <ele>381.7</ele>
        <time>2023-02-19T09:19:09Z</time>
      </trkpt>
      <trkpt lat="45.68548" lon="4.29697">
        <ele>381.8</ele>
        <time>2023-02-19T09:19:10Z</time>
      </trkpt>
      <trkpt lat="45.68549" lon="4.29699">
        <ele>381.8</ele>
        <time>2023-02-19T09:19:11Z</time>
      </trkpt>
      <trkpt lat="45.68549" lon="4.29701">
        <ele>381.9</ele>
        <time>2023-02-19T09:19:12Z</time>
      </trkpt>
      <trkpt lat="45.68549" lon="4.29703">
        <ele>382</ele>
        <time>2023-02-19T09:19:14Z</time>
      </trkpt>
      <trkpt lat="45.68549" lon="4.29705">
        <ele>382.1</ele>
        <time>2023-02-19T09:19:15Z</time>
      </trkpt>
      <trkpt lat="45.68549" lon="4.29708">
        <ele>382.2</ele>
        <time>2023-02-19T09:19:16Z</time>
      </trkpt>
      <trkpt lat="45.68549" lon="4.2971">
        <ele>382.2</ele>
        <time>2023-02-19T09:19:17Z</time>
      </trkpt>
      <trkpt lat="45.68548" lon="4.29712">
        <ele>382.3</ele>
        <time>2023-02-19T09:19:18Z</time>
      </trkpt>
      <trkpt lat="45.68548" lon="4.29714">
        <ele>382.4</ele>
        <time>2023-02-19T09:19:19Z</time>
      </trkpt>
      <trkpt lat="45.68548" lon="4.29716">
        <ele>382.4</ele>
        <time>2023-02-19T09:19:20Z</time>
      </trkpt>
      <trkpt lat="45.68548" lon="4.29719">
        <ele>382.5</ele>
        <time>2023-02-19T09:19:21Z</time>
      </trkpt>
      <trkpt lat="45.68548" lon="4.29721">
        <ele>382.6</ele>
        <time>2023-02-19T09:19:22Z</time>
      </trkpt>
      <trkpt lat="45.68548" lon="4.29724">
        <ele>382.6</ele>
        <time>2023-02-19T09:19:23Z</time>
      </trkpt>
      <trkpt lat="45.68549" lon="4.29727">
        <ele>382.7</ele>
        <time>2023-02-19T09:19:25Z</time>
      </trkpt>
      <trkpt lat="45.6855" lon="4.29731">
        <ele>382.8</ele>
        <time>2023-02-19T09:19:26Z</time>
      </trkpt>
      <trkpt lat="45.6855" lon="4.29732">
        <ele>382.8</ele>
        <time>2023-02-19T09:19:27Z</time>
      </trkpt>
      <trkpt lat="45.68551" lon="4.29734">
        <ele>382.9</ele>
        <time>2023-02-19T09:19:28Z</time>
      </trkpt>
      <trkpt lat="45.68551" lon="4.29736">
        <ele>382.9</ele>
        <time>2023-02-19T09:19:29Z</time>
      </trkpt>
      <trkpt lat="45.68551" lon="4.29738">
        <ele>383</ele>
        <time>2023-02-19T09:19:30Z</time>
      </trkpt>
      <trkpt lat="45.68552" lon="4.2974">
        <ele>383</ele>
        <time>2023-02-19T09:19:31Z</time>
      </trkpt>
      <trkpt lat="45.68552" lon="4.29742">
        <ele>383.1</ele>
        <time>2023-02-19T09:19:32Z</time>
      </trkpt>
      <trkpt lat="45.68552" lon="4.29744">
        <ele>383.1</ele>
        <time>2023-02-19T09:19:33Z</time>
      </trkpt>
      <trkpt lat="45.68552" lon="4.29745">
        <ele>383.2</ele>
        <time>2023-02-19T09:19:35Z</time>
      </trkpt>
      <trkpt lat="45.68553" lon="4.29749">
        <ele>383.2</ele>
        <time>2023-02-19T09:19:36Z</time>
      </trkpt>
      <trkpt lat="45.68553" lon="4.2975">
        <ele>383.3</ele>
        <time>2023-02-19T09:19:37Z</time>
      </trkpt>
      <trkpt lat="45.68553" lon="4.29751">
        <ele>383.3</ele>
        <time>2023-02-19T09:19:38Z</time>
      </trkpt>
      <trkpt lat="45.68553" lon="4.29753">
        <ele>383.4</ele>
        <time>2023-02-19T09:19:39Z</time>
      </trkpt>
      <trkpt lat="45.68552" lon="4.29755">
        <ele>383.4</ele>
        <time>2023-02-19T09:19:41Z</time>
      </trkpt>
      <trkpt lat="45.68552" lon="4.29757">
        <ele>383.5</ele>
        <time>2023-02-19T09:19:42Z</time>
      </trkpt>
      <trkpt lat="45.68552" lon="4.29759">
        <ele>383.5</ele>
        <time>2023-02-19T09:19:43Z</time>
      </trkpt>
      <trkpt lat="45.68552" lon="4.2976">
        <ele>383.6</ele>
        <time>2023-02-19T09:19:44Z</time>
      </trkpt>
      <trkpt lat="45.68551" lon="4.29763">
        <ele>383.7</ele>
        <time>2023-02-19T09:19:45Z</time>
      </trkpt>
      <trkpt lat="45.68551" lon="4.29764">
        <ele>383.7</ele>
        <time>2023-02-19T09:19:46Z</time>
      </trkpt>
      <trkpt lat="45.68551" lon="4.29765">
        <ele>383.8</ele>
        <time>2023-02-19T09:19:47Z</time>
      </trkpt>
      <trkpt lat="45.6855" lon="4.29768">
        <ele>383.9</ele>
        <time>2023-02-19T09:19:48Z</time>
      </trkpt>
      <trkpt lat="45.6855" lon="4.29769">
        <ele>383.9</ele>
        <time>2023-02-19T09:19:49Z</time>
      </trkpt>
      <trkpt lat="45.68549" lon="4.2977">
        <ele>384</ele>
        <time>2023-02-19T09:19:50Z</time>
      </trkpt>
      <trkpt lat="45.68549" lon="4.29772">
        <ele>384</ele>
        <time>2023-02-19T09:19:51Z</time>
      </trkpt>
      <trkpt lat="45.68549" lon="4.29773">
        <ele>384.1</ele>
        <time>2023-02-19T09:19:53Z</time>
      </trkpt>
      <trkpt lat="45.68548" lon="4.29775">
        <ele>384.1</ele>
        <time>2023-02-19T09:19:54Z</time>
      </trkpt>
      <trkpt lat="45.68548" lon="4.29777">
        <ele>384.2</ele>
        <time>2023-02-19T09:19:55Z</time>
      </trkpt>
      <trkpt lat="45.68548" lon="4.29778">
        <ele>384.2</ele>
        <time>2023-02-19T09:19:56Z</time>
      </trkpt>
      <trkpt lat="45.68548" lon="4.29781">
        <ele>384.3</ele>
        <time>2023-02-19T09:19:58Z</time>
      </trkpt>
      <trkpt lat="45.68547" lon="4.29783">
        <ele>384.4</ele>
        <time>2023-02-19T09:19:59Z</time>
      </trkpt>
      <trkpt lat="45.68547" lon="4.29785">
        <ele>384.5</ele>
        <time>2023-02-19T09:20:00Z</time>
      </trkpt>
      <trkpt lat="45.68547" lon="4.29788">
        <ele>384.6</ele>
        <time>2023-02-19T09:20:01Z</time>
      </trkpt>
      <trkpt lat="45.68547" lon="4.2979">
        <ele>384.7</ele>
        <time>2023-02-19T09:20:02Z</time>
      </trkpt>
      <trkpt lat="45.68547" lon="4.29792">
        <ele>384.8</ele>
        <time>2023-02-19T09:20:04Z</time>
      </trkpt>
      <trkpt lat="45.68546" lon="4.29796">
        <ele>384.9</ele>
        <time>2023-02-19T09:20:05Z</time>
      </trkpt>
      <trkpt lat="45.68545" lon="4.29798">
        <ele>385.1</ele>
        <time>2023-02-19T09:20:07Z</time>
      </trkpt>
      <trkpt lat="45.68544" lon="4.298">
        <ele>385.2</ele>
        <time>2023-02-19T09:20:08Z</time>
      </trkpt>
      <trkpt lat="45.68543" lon="4.29803">
        <ele>385.3</ele>
        <time>2023-02-19T09:20:09Z</time>
      </trkpt>
      <trkpt lat="45.68543" lon="4.29806">
        <ele>385.5</ele>
        <time>2023-02-19T09:20:10Z</time>
      </trkpt>
      <trkpt lat="45.68542" lon="4.29808">
        <ele>385.6</ele>
        <time>2023-02-19T09:20:11Z</time>
      </trkpt>
      <trkpt lat="45.68541" lon="4.29812">
        <ele>385.9</ele>
        <time>2023-02-19T09:20:12Z</time>
      </trkpt>
      <trkpt lat="45.68541" lon="4.29814">
        <ele>386</ele>
        <time>2023-02-19T09:20:13Z</time>
      </trkpt>
      <trkpt lat="45.6854" lon="4.29817">
        <ele>386.2</ele>
        <time>2023-02-19T09:20:14Z</time>
      </trkpt>
      <trkpt lat="45.6854" lon="4.29818">
        <ele>386.2</ele>
        <time>2023-02-19T09:20:16Z</time>
      </trkpt>
      <trkpt lat="45.6854" lon="4.29819">
        <ele>386.3</ele>
        <time>2023-02-19T09:20:17Z</time>
      </trkpt>
      <trkpt lat="45.6854" lon="4.29821">
        <ele>386.4</ele>
        <time>2023-02-19T09:20:18Z</time>
      </trkpt>
      <trkpt lat="45.68539" lon="4.29824">
        <ele>386.6</ele>
        <time>2023-02-19T09:20:19Z</time>
      </trkpt>
      <trkpt lat="45.68539" lon="4.29826">
        <ele>386.7</ele>
        <time>2023-02-19T09:20:20Z</time>
      </trkpt>
      <trkpt lat="45.68539" lon="4.29828">
        <ele>386.8</ele>
        <time>2023-02-19T09:20:21Z</time>
      </trkpt>
      <trkpt lat="45.68538" lon="4.2983">
        <ele>387</ele>
        <time>2023-02-19T09:20:22Z</time>
      </trkpt>
      <trkpt lat="45.68538" lon="4.29832">
        <ele>387.1</ele>
        <time>2023-02-19T09:20:24Z</time>
      </trkpt>
      <trkpt lat="45.68537" lon="4.29834">
        <ele>387.3</ele>
        <time>2023-02-19T09:20:25Z</time>
      </trkpt>
      <trkpt lat="45.68537" lon="4.29836">
        <ele>387.4</ele>
        <time>2023-02-19T09:20:26Z</time>
      </trkpt>
      <trkpt lat="45.68537" lon="4.29838">
        <ele>387.5</ele>
        <time>2023-02-19T09:20:27Z</time>
      </trkpt>
      <trkpt lat="45.68537" lon="4.29839">
        <ele>387.6</ele>
        <time>2023-02-19T09:20:28Z</time>
      </trkpt>
      <trkpt lat="45.68536" lon="4.29841">
        <ele>387.7</ele>
        <time>2023-02-19T09:20:29Z</time>
      </trkpt>
      <trkpt lat="45.68536" lon="4.29844">
        <ele>387.9</ele>
        <time>2023-02-19T09:20:31Z</time>
      </trkpt>
      <trkpt lat="45.68536" lon="4.29845">
        <ele>388</ele>
        <time>2023-02-19T09:20:32Z</time>
      </trkpt>
      <trkpt lat="45.68536" lon="4.29847">
        <ele>388.1</ele>
        <time>2023-02-19T09:20:33Z</time>
      </trkpt>
      <trkpt lat="45.68536" lon="4.29849">
        <ele>388.2</ele>
        <time>2023-02-19T09:20:34Z</time>
      </trkpt>
      <trkpt lat="45.68536" lon="4.29852">
        <ele>388.4</ele>
        <time>2023-02-19T09:20:36Z</time>
      </trkpt>
      <trkpt lat="45.68535" lon="4.29855">
        <ele>388.5</ele>
        <time>2023-02-19T09:20:37Z</time>
      </trkpt>
      <trkpt lat="45.68535" lon="4.29858">
        <ele>388.7</ele>
        <time>2023-02-19T09:20:39Z</time>
      </trkpt>
      <trkpt lat="45.68535" lon="4.29859">
        <ele>388.8</ele>
        <time>2023-02-19T09:20:40Z</time>
      </trkpt>
      <trkpt lat="45.68535" lon="4.29861">
        <ele>388.9</ele>
        <time>2023-02-19T09:20:41Z</time>
      </trkpt>
      <trkpt lat="45.68534" lon="4.29863">
        <ele>389</ele>
        <time>2023-02-19T09:20:42Z</time>
      </trkpt>
      <trkpt lat="45.68534" lon="4.29864">
        <ele>389.1</ele>
        <time>2023-02-19T09:20:43Z</time>
      </trkpt>
      <trkpt lat="45.68534" lon="4.29866">
        <ele>389.3</ele>
        <time>2023-02-19T09:20:45Z</time>
      </trkpt>
      <trkpt lat="45.68533" lon="4.29868">
        <ele>389.4</ele>
        <time>2023-02-19T09:20:46Z</time>
      </trkpt>
      <trkpt lat="45.68533" lon="4.2987">
        <ele>389.5</ele>
        <time>2023-02-19T09:20:47Z</time>
      </trkpt>
      <trkpt lat="45.68533" lon="4.29871">
        <ele>389.5</ele>
        <time>2023-02-19T09:20:48Z</time>
      </trkpt>
      <trkpt lat="45.68532" lon="4.29873">
        <ele>389.7</ele>
        <time>2023-02-19T09:20:50Z</time>
      </trkpt>
      <trkpt lat="45.68532" lon="4.29875">
        <ele>389.8</ele>
        <time>2023-02-19T09:20:51Z</time>
      </trkpt>
      <trkpt lat="45.68532" lon="4.29876">
        <ele>389.9</ele>
        <time>2023-02-19T09:20:52Z</time>
      </trkpt>
      <trkpt lat="45.68531" lon="4.29878">
        <ele>390</ele>
        <time>2023-02-19T09:20:53Z</time>
      </trkpt>
      <trkpt lat="45.68531" lon="4.2988">
        <ele>390.1</ele>
        <time>2023-02-19T09:20:55Z</time>
      </trkpt>
      <trkpt lat="45.68531" lon="4.29881">
        <ele>390.2</ele>
        <time>2023-02-19T09:20:56Z</time>
      </trkpt>
      <trkpt lat="45.68531" lon="4.29882">
        <ele>390.3</ele>
        <time>2023-02-19T09:20:57Z</time>
      </trkpt>
      <trkpt lat="45.68531" lon="4.29884">
        <ele>390.4</ele>
        <time>2023-02-19T09:20:58Z</time>
      </trkpt>
      <trkpt lat="45.68531" lon="4.29885">
        <ele>390.6</ele>
        <time>2023-02-19T09:20:59Z</time>
      </trkpt>
      <trkpt lat="45.6853" lon="4.29889">
        <ele>390.8</ele>
        <time>2023-02-19T09:21:00Z</time>
      </trkpt>
      <trkpt lat="45.6853" lon="4.2989">
        <ele>390.9</ele>
        <time>2023-02-19T09:21:02Z</time>
      </trkpt>
      <trkpt lat="45.68529" lon="4.29892">
        <ele>391</ele>
        <time>2023-02-19T09:21:03Z</time>
      </trkpt>
      <trkpt lat="45.68529" lon="4.29893">
        <ele>391.1</ele>
        <time>2023-02-19T09:21:04Z</time>
      </trkpt>
      <trkpt lat="45.68528" lon="4.29895">
        <ele>391.2</ele>
        <time>2023-02-19T09:21:05Z</time>
      </trkpt>
      <trkpt lat="45.68528" lon="4.29896">
        <ele>391.4</ele>
        <time>2023-02-19T09:21:06Z</time>
      </trkpt>
      <trkpt lat="45.68527" lon="4.29898">
        <ele>391.5</ele>
        <time>2023-02-19T09:21:07Z</time>
      </trkpt>
      <trkpt lat="45.68527" lon="4.299">
        <ele>391.7</ele>
        <time>2023-02-19T09:21:08Z</time>
      </trkpt>
      <trkpt lat="45.68526" lon="4.29902">
        <ele>391.8</ele>
        <time>2023-02-19T09:21:09Z</time>
      </trkpt>
      <trkpt lat="45.68526" lon="4.29904">
        <ele>392</ele>
        <time>2023-02-19T09:21:10Z</time>
      </trkpt>
      <trkpt lat="45.68525" lon="4.29906">
        <ele>392.1</ele>
        <time>2023-02-19T09:21:11Z</time>
      </trkpt>
      <trkpt lat="45.68525" lon="4.29908">
        <ele>392.3</ele>
        <time>2023-02-19T09:21:13Z</time>
      </trkpt>
      <trkpt lat="45.68524" lon="4.2991">
        <ele>392.4</ele>
        <time>2023-02-19T09:21:14Z</time>
      </trkpt>
      <trkpt lat="45.68524" lon="4.29913">
        <ele>392.6</ele>
        <time>2023-02-19T09:21:15Z</time>
      </trkpt>
      <trkpt lat="45.68523" lon="4.29914">
        <ele>392.7</ele>
        <time>2023-02-19T09:21:16Z</time>
      </trkpt>
      <trkpt lat="45.68523" lon="4.29915">
        <ele>392.8</ele>
        <time>2023-02-19T09:21:17Z</time>
      </trkpt>
      <trkpt lat="45.68523" lon="4.29917">
        <ele>392.9</ele>
        <time>2023-02-19T09:21:18Z</time>
      </trkpt>
      <trkpt lat="45.68523" lon="4.29919">
        <ele>393.1</ele>
        <time>2023-02-19T09:21:19Z</time>
      </trkpt>
      <trkpt lat="45.68523" lon="4.29921">
        <ele>393.3</ele>
        <time>2023-02-19T09:21:20Z</time>
      </trkpt>
      <trkpt lat="45.68523" lon="4.29923">
        <ele>393.4</ele>
        <time>2023-02-19T09:21:21Z</time>
      </trkpt>
      <trkpt lat="45.68522" lon="4.29926">
        <ele>393.6</ele>
        <time>2023-02-19T09:21:22Z</time>
      </trkpt>
      <trkpt lat="45.68522" lon="4.29927">
        <ele>393.8</ele>
        <time>2023-02-19T09:21:24Z</time>
      </trkpt>
      <trkpt lat="45.68523" lon="4.29929">
        <ele>393.9</ele>
        <time>2023-02-19T09:21:25Z</time>
      </trkpt>
      <trkpt lat="45.68523" lon="4.29931">
        <ele>394</ele>
        <time>2023-02-19T09:21:26Z</time>
      </trkpt>
      <trkpt lat="45.68523" lon="4.29932">
        <ele>394.1</ele>
        <time>2023-02-19T09:21:27Z</time>
      </trkpt>
      <trkpt lat="45.68523" lon="4.29935">
        <ele>394.3</ele>
        <time>2023-02-19T09:21:28Z</time>
      </trkpt>
      <trkpt lat="45.68523" lon="4.29936">
        <ele>394.5</ele>
        <time>2023-02-19T09:21:29Z</time>
      </trkpt>
      <trkpt lat="45.68522" lon="4.29938">
        <ele>394.6</ele>
        <time>2023-02-19T09:21:31Z</time>
      </trkpt>
      <trkpt lat="45.68522" lon="4.29939">
        <ele>394.7</ele>
        <time>2023-02-19T09:21:32Z</time>
      </trkpt>
      <trkpt lat="45.68522" lon="4.29941">
        <ele>394.8</ele>
        <time>2023-02-19T09:21:33Z</time>
      </trkpt>
      <trkpt lat="45.68522" lon="4.29942">
        <ele>394.9</ele>
        <time>2023-02-19T09:21:34Z</time>
      </trkpt>
      <trkpt lat="45.68521" lon="4.29946">
        <ele>395.1</ele>
        <time>2023-02-19T09:21:35Z</time>
      </trkpt>
      <trkpt lat="45.68521" lon="4.29948">
        <ele>395.2</ele>
        <time>2023-02-19T09:21:37Z</time>
      </trkpt>
      <trkpt lat="45.68521" lon="4.2995">
        <ele>395.4</ele>
        <time>2023-02-19T09:21:38Z</time>
      </trkpt>
      <trkpt lat="45.6852" lon="4.29952">
        <ele>395.5</ele>
        <time>2023-02-19T09:21:39Z</time>
      </trkpt>
      <trkpt lat="45.68519" lon="4.29955">
        <ele>395.7</ele>
        <time>2023-02-19T09:21:40Z</time>
      </trkpt>
      <trkpt lat="45.68519" lon="4.29956">
        <ele>395.7</ele>
        <time>2023-02-19T09:21:41Z</time>
      </trkpt>
      <trkpt lat="45.68517" lon="4.29961">
        <ele>396</ele>
        <time>2023-02-19T09:21:43Z</time>
      </trkpt>
      <trkpt lat="45.68517" lon="4.29962">
        <ele>396</ele>
        <time>2023-02-19T09:21:44Z</time>
      </trkpt>
      <trkpt lat="45.68516" lon="4.29965">
        <ele>396.1</ele>
        <time>2023-02-19T09:21:45Z</time>
      </trkpt>
      <trkpt lat="45.68516" lon="4.29967">
        <ele>396.2</ele>
        <time>2023-02-19T09:21:46Z</time>
      </trkpt>
      <trkpt lat="45.68515" lon="4.29969">
        <ele>396.3</ele>
        <time>2023-02-19T09:21:47Z</time>
      </trkpt>
      <trkpt lat="45.68515" lon="4.29971">
        <ele>396.4</ele>
        <time>2023-02-19T09:21:48Z</time>
      </trkpt>
      <trkpt lat="45.68514" lon="4.29975">
        <ele>396.6</ele>
        <time>2023-02-19T09:21:50Z</time>
      </trkpt>
      <trkpt lat="45.68514" lon="4.29977">
        <ele>396.7</ele>
        <time>2023-02-19T09:21:51Z</time>
      </trkpt>
      <trkpt lat="45.68513" lon="4.29979">
        <ele>396.8</ele>
        <time>2023-02-19T09:21:53Z</time>
      </trkpt>
      <trkpt lat="45.68513" lon="4.29982">
        <ele>396.9</ele>
        <time>2023-02-19T09:21:54Z</time>
      </trkpt>
      <trkpt lat="45.68513" lon="4.29984">
        <ele>397</ele>
        <time>2023-02-19T09:21:55Z</time>
      </trkpt>
      <trkpt lat="45.68512" lon="4.29986">
        <ele>397.1</ele>
        <time>2023-02-19T09:21:56Z</time>
      </trkpt>
      <trkpt lat="45.68512" lon="4.29988">
        <ele>397.2</ele>
        <time>2023-02-19T09:21:57Z</time>
      </trkpt>
      <trkpt lat="45.68512" lon="4.29991">
        <ele>397.4</ele>
        <time>2023-02-19T09:21:59Z</time>
      </trkpt>
      <trkpt lat="45.68512" lon="4.29993">
        <ele>397.4</ele>
        <time>2023-02-19T09:22:00Z</time>
      </trkpt>
      <trkpt lat="45.68512" lon="4.29995">
        <ele>397.5</ele>
        <time>2023-02-19T09:22:01Z</time>
      </trkpt>
      <trkpt lat="45.68512" lon="4.29997">
        <ele>397.6</ele>
        <time>2023-02-19T09:22:02Z</time>
      </trkpt>
      <trkpt lat="45.68512" lon="4.29999">
        <ele>397.8</ele>
        <time>2023-02-19T09:22:03Z</time>
      </trkpt>
      <trkpt lat="45.68511" lon="4.30001">
        <ele>397.9</ele>
        <time>2023-02-19T09:22:04Z</time>
      </trkpt>
      <trkpt lat="45.68511" lon="4.30003">
        <ele>398</ele>
        <time>2023-02-19T09:22:06Z</time>
      </trkpt>
      <trkpt lat="45.6851" lon="4.30006">
        <ele>398.1</ele>
        <time>2023-02-19T09:22:07Z</time>
      </trkpt>
      <trkpt lat="45.6851" lon="4.30008">
        <ele>398.2</ele>
        <time>2023-02-19T09:22:08Z</time>
      </trkpt>
      <trkpt lat="45.68509" lon="4.30009">
        <ele>398.2</ele>
        <time>2023-02-19T09:22:09Z</time>
      </trkpt>
      <trkpt lat="45.68509" lon="4.30011">
        <ele>398.3</ele>
        <time>2023-02-19T09:22:10Z</time>
      </trkpt>
      <trkpt lat="45.68508" lon="4.30012">
        <ele>398.4</ele>
        <time>2023-02-19T09:22:11Z</time>
      </trkpt>
      <trkpt lat="45.68507" lon="4.30013">
        <ele>398.4</ele>
        <time>2023-02-19T09:22:12Z</time>
      </trkpt>
      <trkpt lat="45.68507" lon="4.30015">
        <ele>398.5</ele>
        <time>2023-02-19T09:22:14Z</time>
      </trkpt>
      <trkpt lat="45.68506" lon="4.30015">
        <ele>398.5</ele>
        <time>2023-02-19T09:22:15Z</time>
      </trkpt>
      <trkpt lat="45.68506" lon="4.30016">
        <ele>398.5</ele>
        <time>2023-02-19T09:22:16Z</time>
      </trkpt>
      <trkpt lat="45.68505" lon="4.30018">
        <ele>398.6</ele>
        <time>2023-02-19T09:22:17Z</time>
      </trkpt>
      <trkpt lat="45.68505" lon="4.3002">
        <ele>398.6</ele>
        <time>2023-02-19T09:22:18Z</time>
      </trkpt>
      <trkpt lat="45.68505" lon="4.30021">
        <ele>398.6</ele>
        <time>2023-02-19T09:22:19Z</time>
      </trkpt>
      <trkpt lat="45.68506" lon="4.30023">
        <ele>398.7</ele>
        <time>2023-02-19T09:22:20Z</time>
      </trkpt>
      <trkpt lat="45.68507" lon="4.30025">
        <ele>398.7</ele>
        <time>2023-02-19T09:22:22Z</time>
      </trkpt>
      <trkpt lat="45.68507" lon="4.30027">
        <ele>398.7</ele>
        <time>2023-02-19T09:22:23Z</time>
      </trkpt>
      <trkpt lat="45.68508" lon="4.30029">
        <ele>398.7</ele>
        <time>2023-02-19T09:22:24Z</time>
      </trkpt>
      <trkpt lat="45.68509" lon="4.3003">
        <ele>398.8</ele>
        <time>2023-02-19T09:22:25Z</time>
      </trkpt>
      <trkpt lat="45.68511" lon="4.30031">
        <ele>399</ele>
        <time>2023-02-19T09:22:26Z</time>
      </trkpt>
      <trkpt lat="45.68512" lon="4.30033">
        <ele>399.1</ele>
        <time>2023-02-19T09:22:27Z</time>
      </trkpt>
      <trkpt lat="45.68513" lon="4.30034">
        <ele>399.2</ele>
        <time>2023-02-19T09:22:28Z</time>
      </trkpt>
      <trkpt lat="45.68515" lon="4.30035">
        <ele>399.4</ele>
        <time>2023-02-19T09:22:30Z</time>
      </trkpt>
      <trkpt lat="45.68516" lon="4.30036">
        <ele>399.5</ele>
        <time>2023-02-19T09:22:31Z</time>
      </trkpt>
      <trkpt lat="45.68517" lon="4.30037">
        <ele>399.6</ele>
        <time>2023-02-19T09:22:32Z</time>
      </trkpt>
      <trkpt lat="45.68518" lon="4.30038">
        <ele>399.8</ele>
        <time>2023-02-19T09:22:33Z</time>
      </trkpt>
      <trkpt lat="45.6852" lon="4.30039">
        <ele>400</ele>
        <time>2023-02-19T09:22:34Z</time>
      </trkpt>
      <trkpt lat="45.68521" lon="4.30041">
        <ele>400.1</ele>
        <time>2023-02-19T09:22:35Z</time>
      </trkpt>
      <trkpt lat="45.68522" lon="4.30043">
        <ele>400.3</ele>
        <time>2023-02-19T09:22:37Z</time>
      </trkpt>
      <trkpt lat="45.68524" lon="4.30045">
        <ele>400.7</ele>
        <time>2023-02-19T09:22:38Z</time>
      </trkpt>
      <trkpt lat="45.68526" lon="4.30047">
        <ele>401</ele>
        <time>2023-02-19T09:22:40Z</time>
      </trkpt>
      <trkpt lat="45.68526" lon="4.30048">
        <ele>401</ele>
        <time>2023-02-19T09:22:41Z</time>
      </trkpt>
      <trkpt lat="45.68527" lon="4.30048">
        <ele>401.1</ele>
        <time>2023-02-19T09:22:42Z</time>
      </trkpt>
      <trkpt lat="45.68528" lon="4.30049">
        <ele>401.3</ele>
        <time>2023-02-19T09:22:43Z</time>
      </trkpt>
      <trkpt lat="45.6853" lon="4.3005">
        <ele>401.5</ele>
        <time>2023-02-19T09:22:45Z</time>
      </trkpt>
      <trkpt lat="45.68532" lon="4.30052">
        <ele>401.8</ele>
        <time>2023-02-19T09:22:46Z</time>
      </trkpt>
      <trkpt lat="45.68532" lon="4.30052">
        <ele>401.9</ele>
        <time>2023-02-19T09:22:48Z</time>
      </trkpt>
      <trkpt lat="45.68533" lon="4.30053">
        <ele>402</ele>
        <time>2023-02-19T09:22:49Z</time>
      </trkpt>
      <trkpt lat="45.68534" lon="4.30054">
        <ele>402.2</ele>
        <time>2023-02-19T09:22:50Z</time>
      </trkpt>
      <trkpt lat="45.68536" lon="4.30055">
        <ele>402.4</ele>
        <time>2023-02-19T09:22:51Z</time>
      </trkpt>
      <trkpt lat="45.68538" lon="4.30056">
        <ele>402.7</ele>
        <time>2023-02-19T09:22:52Z</time>
      </trkpt>
      <trkpt lat="45.68538" lon="4.30056">
        <ele>402.7</ele>
        <time>2023-02-19T09:22:53Z</time>
      </trkpt>
      <trkpt lat="45.68539" lon="4.30057">
        <ele>402.8</ele>
        <time>2023-02-19T09:22:54Z</time>
      </trkpt>
      <trkpt lat="45.6854" lon="4.30057">
        <ele>403</ele>
        <time>2023-02-19T09:22:55Z</time>
      </trkpt>
      <trkpt lat="45.68541" lon="4.30057">
        <ele>403.1</ele>
        <time>2023-02-19T09:22:57Z</time>
      </trkpt>
      <trkpt lat="45.68542" lon="4.30057">
        <ele>403.1</ele>
        <time>2023-02-19T09:22:59Z</time>
      </trkpt>
      <trkpt lat="45.68543" lon="4.30056">
        <ele>403.3</ele>
        <time>2023-02-19T09:23:00Z</time>
      </trkpt>
      <trkpt lat="45.68544" lon="4.30056">
        <ele>403.4</ele>
        <time>2023-02-19T09:23:01Z</time>
      </trkpt>
      <trkpt lat="45.68545" lon="4.30057">
        <ele>403.6</ele>
        <time>2023-02-19T09:23:02Z</time>
      </trkpt>
      <trkpt lat="45.68547" lon="4.30057">
        <ele>403.8</ele>
        <time>2023-02-19T09:23:03Z</time>
      </trkpt>
      <trkpt lat="45.68549" lon="4.30058">
        <ele>404</ele>
        <time>2023-02-19T09:23:05Z</time>
      </trkpt>
      <trkpt lat="45.6855" lon="4.30059">
        <ele>404.2</ele>
        <time>2023-02-19T09:23:06Z</time>
      </trkpt>
      <trkpt lat="45.68551" lon="4.30061">
        <ele>404.4</ele>
        <time>2023-02-19T09:23:07Z</time>
      </trkpt>
      <trkpt lat="45.68551" lon="4.30062">
        <ele>404.4</ele>
        <time>2023-02-19T09:23:08Z</time>
      </trkpt>
      <trkpt lat="45.68552" lon="4.30064">
        <ele>404.5</ele>
        <time>2023-02-19T09:23:09Z</time>
      </trkpt>
      <trkpt lat="45.68552" lon="4.30066">
        <ele>404.6</ele>
        <time>2023-02-19T09:23:11Z</time>
      </trkpt>
      <trkpt lat="45.68552" lon="4.30067">
        <ele>404.7</ele>
        <time>2023-02-19T09:23:12Z</time>
      </trkpt>
      <trkpt lat="45.68552" lon="4.30069">
        <ele>404.8</ele>
        <time>2023-02-19T09:23:13Z</time>
      </trkpt>
      <trkpt lat="45.68552" lon="4.3007">
        <ele>404.9</ele>
        <time>2023-02-19T09:23:14Z</time>
      </trkpt>
      <trkpt lat="45.68552" lon="4.30072">
        <ele>405.1</ele>
        <time>2023-02-19T09:23:15Z</time>
      </trkpt>
      <trkpt lat="45.68553" lon="4.30075">
        <ele>405.3</ele>
        <time>2023-02-19T09:23:17Z</time>
      </trkpt>
      <trkpt lat="45.68553" lon="4.30076">
        <ele>405.4</ele>
        <time>2023-02-19T09:23:18Z</time>
      </trkpt>
      <trkpt lat="45.68553" lon="4.30078">
        <ele>405.5</ele>
        <time>2023-02-19T09:23:19Z</time>
      </trkpt>
      <trkpt lat="45.68553" lon="4.30079">
        <ele>405.5</ele>
        <time>2023-02-19T09:23:20Z</time>
      </trkpt>
      <trkpt lat="45.68553" lon="4.3008">
        <ele>405.6</ele>
        <time>2023-02-19T09:23:21Z</time>
      </trkpt>
      <trkpt lat="45.68553" lon="4.30082">
        <ele>405.8</ele>
        <time>2023-02-19T09:23:23Z</time>
      </trkpt>
      <trkpt lat="45.68553" lon="4.30083">
        <ele>405.8</ele>
        <time>2023-02-19T09:23:24Z</time>
      </trkpt>
      <trkpt lat="45.68553" lon="4.30085">
        <ele>405.9</ele>
        <time>2023-02-19T09:23:25Z</time>
      </trkpt>
      <trkpt lat="45.68553" lon="4.30086">
        <ele>406</ele>
        <time>2023-02-19T09:23:26Z</time>
      </trkpt>
      <trkpt lat="45.68553" lon="4.30087">
        <ele>406.1</ele>
        <time>2023-02-19T09:23:27Z</time>
      </trkpt>
      <trkpt lat="45.68552" lon="4.30088">
        <ele>406.2</ele>
        <time>2023-02-19T09:23:28Z</time>
      </trkpt>
      <trkpt lat="45.68552" lon="4.3009">
        <ele>406.3</ele>
        <time>2023-02-19T09:23:29Z</time>
      </trkpt>
      <trkpt lat="45.68552" lon="4.30091">
        <ele>406.4</ele>
        <time>2023-02-19T09:23:30Z</time>
      </trkpt>
      <trkpt lat="45.68552" lon="4.30093">
        <ele>406.5</ele>
        <time>2023-02-19T09:23:32Z</time>
      </trkpt>
      <trkpt lat="45.68552" lon="4.30094">
        <ele>406.6</ele>
        <time>2023-02-19T09:23:33Z</time>
      </trkpt>
      <trkpt lat="45.68551" lon="4.30096">
        <ele>406.7</ele>
        <time>2023-02-19T09:23:34Z</time>
      </trkpt>
      <trkpt lat="45.68551" lon="4.30097">
        <ele>406.8</ele>
        <time>2023-02-19T09:23:35Z</time>
      </trkpt>
      <trkpt lat="45.68551" lon="4.30099">
        <ele>406.9</ele>
        <time>2023-02-19T09:23:36Z</time>
      </trkpt>
      <trkpt lat="45.68551" lon="4.301">
        <ele>407</ele>
        <time>2023-02-19T09:23:37Z</time>
      </trkpt>
      <trkpt lat="45.68551" lon="4.30102">
        <ele>407.1</ele>
        <time>2023-02-19T09:23:38Z</time>
      </trkpt>
      <trkpt lat="45.68551" lon="4.30105">
        <ele>407.3</ele>
        <time>2023-02-19T09:23:39Z</time>
      </trkpt>
      <trkpt lat="45.68551" lon="4.30106">
        <ele>407.4</ele>
        <time>2023-02-19T09:23:40Z</time>
      </trkpt>
      <trkpt lat="45.6855" lon="4.30107">
        <ele>407.5</ele>
        <time>2023-02-19T09:23:41Z</time>
      </trkpt>
      <trkpt lat="45.6855" lon="4.30109">
        <ele>407.6</ele>
        <time>2023-02-19T09:23:43Z</time>
      </trkpt>
      <trkpt lat="45.6855" lon="4.30111">
        <ele>407.7</ele>
        <time>2023-02-19T09:23:44Z</time>
      </trkpt>
      <trkpt lat="45.6855" lon="4.30114">
        <ele>407.9</ele>
        <time>2023-02-19T09:23:45Z</time>
      </trkpt>
      <trkpt lat="45.6855" lon="4.30115">
        <ele>408</ele>
        <time>2023-02-19T09:23:46Z</time>
      </trkpt>
      <trkpt lat="45.68551" lon="4.30117">
        <ele>408.1</ele>
        <time>2023-02-19T09:23:47Z</time>
      </trkpt>
      <trkpt lat="45.68551" lon="4.30119">
        <ele>408.2</ele>
        <time>2023-02-19T09:23:48Z</time>
      </trkpt>
      <trkpt lat="45.68551" lon="4.3012">
        <ele>408.3</ele>
        <time>2023-02-19T09:23:49Z</time>
      </trkpt>
      <trkpt lat="45.68551" lon="4.30123">
        <ele>408.5</ele>
        <time>2023-02-19T09:23:51Z</time>
      </trkpt>
      <trkpt lat="45.6855" lon="4.30124">
        <ele>408.6</ele>
        <time>2023-02-19T09:23:52Z</time>
      </trkpt>
      <trkpt lat="45.6855" lon="4.30126">
        <ele>408.7</ele>
        <time>2023-02-19T09:23:53Z</time>
      </trkpt>
      <trkpt lat="45.6855" lon="4.30127">
        <ele>408.8</ele>
        <time>2023-02-19T09:23:54Z</time>
      </trkpt>
      <trkpt lat="45.6855" lon="4.30129">
        <ele>408.9</ele>
        <time>2023-02-19T09:23:55Z</time>
      </trkpt>
      <trkpt lat="45.6855" lon="4.3013">
        <ele>409</ele>
        <time>2023-02-19T09:23:56Z</time>
      </trkpt>
      <trkpt lat="45.6855" lon="4.30131">
        <ele>409.1</ele>
        <time>2023-02-19T09:23:57Z</time>
      </trkpt>
      <trkpt lat="45.6855" lon="4.30133">
        <ele>409.2</ele>
        <time>2023-02-19T09:23:58Z</time>
      </trkpt>
      <trkpt lat="45.6855" lon="4.30134">
        <ele>409.3</ele>
        <time>2023-02-19T09:24:00Z</time>
      </trkpt>
      <trkpt lat="45.6855" lon="4.30135">
        <ele>409.4</ele>
        <time>2023-02-19T09:24:01Z</time>
      </trkpt>
      <trkpt lat="45.6855" lon="4.30136">
        <ele>409.5</ele>
        <time>2023-02-19T09:24:02Z</time>
      </trkpt>
      <trkpt lat="45.6855" lon="4.30138">
        <ele>409.6</ele>
        <time>2023-02-19T09:24:04Z</time>
      </trkpt>
      <trkpt lat="45.6855" lon="4.30139">
        <ele>409.7</ele>
        <time>2023-02-19T09:24:05Z</time>
      </trkpt>
      <trkpt lat="45.68549" lon="4.3014">
        <ele>409.7</ele>
        <time>2023-02-19T09:24:06Z</time>
      </trkpt>
      <trkpt lat="45.68549" lon="4.30142">
        <ele>409.9</ele>
        <time>2023-02-19T09:24:08Z</time>
      </trkpt>
      <trkpt lat="45.68549" lon="4.30143">
        <ele>410</ele>
        <time>2023-02-19T09:24:09Z</time>
      </trkpt>
      <trkpt lat="45.68548" lon="4.30144">
        <ele>410.1</ele>
        <time>2023-02-19T09:24:10Z</time>
      </trkpt>
      <trkpt lat="45.68548" lon="4.30146">
        <ele>410.2</ele>
        <time>2023-02-19T09:24:11Z</time>
      </trkpt>
      <trkpt lat="45.68548" lon="4.30148">
        <ele>410.3</ele>
        <time>2023-02-19T09:24:12Z</time>
      </trkpt>
      <trkpt lat="45.68548" lon="4.30149">
        <ele>410.4</ele>
        <time>2023-02-19T09:24:13Z</time>
      </trkpt>
      <trkpt lat="45.68548" lon="4.3015">
        <ele>410.5</ele>
        <time>2023-02-19T09:24:14Z</time>
      </trkpt>
      <trkpt lat="45.68549" lon="4.30152">
        <ele>410.6</ele>
        <time>2023-02-19T09:24:15Z</time>
      </trkpt>
      <trkpt lat="45.68549" lon="4.30154">
        <ele>410.8</ele>
        <time>2023-02-19T09:24:16Z</time>
      </trkpt>
      <trkpt lat="45.68549" lon="4.30156">
        <ele>410.9</ele>
        <time>2023-02-19T09:24:17Z</time>
      </trkpt>
      <trkpt lat="45.68549" lon="4.30157">
        <ele>411.1</ele>
        <time>2023-02-19T09:24:19Z</time>
      </trkpt>
      <trkpt lat="45.68549" lon="4.30159">
        <ele>411.2</ele>
        <time>2023-02-19T09:24:20Z</time>
      </trkpt>
      <trkpt lat="45.68549" lon="4.3016">
        <ele>411.3</ele>
        <time>2023-02-19T09:24:21Z</time>
      </trkpt>
      <trkpt lat="45.68549" lon="4.30162">
        <ele>411.4</ele>
        <time>2023-02-19T09:24:22Z</time>
      </trkpt>
      <trkpt lat="45.68549" lon="4.30164">
        <ele>411.5</ele>
        <time>2023-02-19T09:24:24Z</time>
      </trkpt>
      <trkpt lat="45.68549" lon="4.30166">
        <ele>411.7</ele>
        <time>2023-02-19T09:24:25Z</time>
      </trkpt>
      <trkpt lat="45.68549" lon="4.30167">
        <ele>411.8</ele>
        <time>2023-02-19T09:24:26Z</time>
      </trkpt>
      <trkpt lat="45.6855" lon="4.30169">
        <ele>411.9</ele>
        <time>2023-02-19T09:24:27Z</time>
      </trkpt>
      <trkpt lat="45.6855" lon="4.3017">
        <ele>412</ele>
        <time>2023-02-19T09:24:28Z</time>
      </trkpt>
      <trkpt lat="45.68551" lon="4.30171">
        <ele>412.1</ele>
        <time>2023-02-19T09:24:29Z</time>
      </trkpt>
      <trkpt lat="45.68551" lon="4.30173">
        <ele>412.2</ele>
        <time>2023-02-19T09:24:30Z</time>
      </trkpt>
      <trkpt lat="45.68552" lon="4.30174">
        <ele>412.3</ele>
        <time>2023-02-19T09:24:31Z</time>
      </trkpt>
      <trkpt lat="45.68552" lon="4.30176">
        <ele>412.4</ele>
        <time>2023-02-19T09:24:33Z</time>
      </trkpt>
      <trkpt lat="45.68552" lon="4.30177">
        <ele>412.5</ele>
        <time>2023-02-19T09:24:34Z</time>
      </trkpt>
      <trkpt lat="45.68553" lon="4.30179">
        <ele>412.6</ele>
        <time>2023-02-19T09:24:35Z</time>
      </trkpt>
      <trkpt lat="45.68553" lon="4.30181">
        <ele>412.7</ele>
        <time>2023-02-19T09:24:36Z</time>
      </trkpt>
      <trkpt lat="45.68553" lon="4.30182">
        <ele>412.8</ele>
        <time>2023-02-19T09:24:37Z</time>
      </trkpt>
      <trkpt lat="45.68554" lon="4.30185">
        <ele>413</ele>
        <time>2023-02-19T09:24:38Z</time>
      </trkpt>
      <trkpt lat="45.68554" lon="4.30186">
        <ele>413.1</ele>
        <time>2023-02-19T09:24:39Z</time>
      </trkpt>
      <trkpt lat="45.68555" lon="4.30187">
        <ele>413.2</ele>
        <time>2023-02-19T09:24:40Z</time>
      </trkpt>
      <trkpt lat="45.68555" lon="4.30189">
        <ele>413.4</ele>
        <time>2023-02-19T09:24:41Z</time>
      </trkpt>
      <trkpt lat="45.68555" lon="4.30191">
        <ele>413.5</ele>
        <time>2023-02-19T09:24:42Z</time>
      </trkpt>
      <trkpt lat="45.68555" lon="4.30192">
        <ele>413.6</ele>
        <time>2023-02-19T09:24:43Z</time>
      </trkpt>
      <trkpt lat="45.68556" lon="4.30195">
        <ele>413.8</ele>
        <time>2023-02-19T09:24:44Z</time>
      </trkpt>
      <trkpt lat="45.68556" lon="4.30197">
        <ele>413.9</ele>
        <time>2023-02-19T09:24:46Z</time>
      </trkpt>
      <trkpt lat="45.68556" lon="4.302">
        <ele>414.1</ele>
        <time>2023-02-19T09:24:47Z</time>
      </trkpt>
      <trkpt lat="45.68555" lon="4.30202">
        <ele>414.3</ele>
        <time>2023-02-19T09:24:48Z</time>
      </trkpt>
      <trkpt lat="45.68555" lon="4.30205">
        <ele>414.4</ele>
        <time>2023-02-19T09:24:49Z</time>
      </trkpt>
      <trkpt lat="45.68556" lon="4.30208">
        <ele>414.6</ele>
        <time>2023-02-19T09:24:51Z</time>
      </trkpt>
      <trkpt lat="45.68556" lon="4.3021">
        <ele>414.7</ele>
        <time>2023-02-19T09:24:52Z</time>
      </trkpt>
      <trkpt lat="45.68556" lon="4.30212">
        <ele>414.9</ele>
        <time>2023-02-19T09:24:53Z</time>
      </trkpt>
      <trkpt lat="45.68557" lon="4.30215">
        <ele>415.1</ele>
        <time>2023-02-19T09:24:54Z</time>
      </trkpt>
      <trkpt lat="45.68557" lon="4.30216">
        <ele>415.1</ele>
        <time>2023-02-19T09:24:55Z</time>
      </trkpt>
      <trkpt lat="45.68557" lon="4.30218">
        <ele>415.2</ele>
        <time>2023-02-19T09:24:56Z</time>
      </trkpt>
      <trkpt lat="45.68557" lon="4.30221">
        <ele>415.4</ele>
        <time>2023-02-19T09:24:58Z</time>
      </trkpt>
      <trkpt lat="45.68557" lon="4.30222">
        <ele>415.5</ele>
        <time>2023-02-19T09:24:59Z</time>
      </trkpt>
      <trkpt lat="45.68557" lon="4.30223">
        <ele>415.5</ele>
        <time>2023-02-19T09:25:00Z</time>
      </trkpt>
      <trkpt lat="45.68558" lon="4.30225">
        <ele>415.6</ele>
        <time>2023-02-19T09:25:01Z</time>
      </trkpt>
      <trkpt lat="45.68558" lon="4.30226">
        <ele>415.7</ele>
        <time>2023-02-19T09:25:02Z</time>
      </trkpt>
      <trkpt lat="45.68558" lon="4.30229">
        <ele>415.9</ele>
        <time>2023-02-19T09:25:04Z</time>
      </trkpt>
      <trkpt lat="45.68558" lon="4.30233">
        <ele>416.1</ele>
        <time>2023-02-19T09:25:05Z</time>
      </trkpt>
      <trkpt lat="45.68558" lon="4.30234">
        <ele>416.2</ele>
        <time>2023-02-19T09:25:06Z</time>
      </trkpt>
      <trkpt lat="45.68558" lon="4.30235">
        <ele>416.3</ele>
        <time>2023-02-19T09:25:07Z</time>
      </trkpt>
      <trkpt lat="45.68557" lon="4.30239">
        <ele>416.5</ele>
        <time>2023-02-19T09:25:08Z</time>
      </trkpt>
      <trkpt lat="45.68557" lon="4.3024">
        <ele>416.6</ele>
        <time>2023-02-19T09:25:09Z</time>
      </trkpt>
      <trkpt lat="45.68556" lon="4.30243">
        <ele>416.8</ele>
        <time>2023-02-19T09:25:11Z</time>
      </trkpt>
      <trkpt lat="45.68556" lon="4.30245">
        <ele>416.9</ele>
        <time>2023-02-19T09:25:12Z</time>
      </trkpt>
      <trkpt lat="45.68556" lon="4.30247">
        <ele>417</ele>
        <time>2023-02-19T09:25:13Z</time>
      </trkpt>
      <trkpt lat="45.68556" lon="4.30249">
        <ele>417.1</ele>
        <time>2023-02-19T09:25:15Z</time>
      </trkpt>
      <trkpt lat="45.68557" lon="4.30251">
        <ele>417.3</ele>
        <time>2023-02-19T09:25:16Z</time>
      </trkpt>
      <trkpt lat="45.68557" lon="4.30253">
        <ele>417.4</ele>
        <time>2023-02-19T09:25:17Z</time>
      </trkpt>
      <trkpt lat="45.68558" lon="4.30255">
        <ele>417.6</ele>
        <time>2023-02-19T09:25:18Z</time>
      </trkpt>
      <trkpt lat="45.68559" lon="4.30257">
        <ele>417.8</ele>
        <time>2023-02-19T09:25:19Z</time>
      </trkpt>
      <trkpt lat="45.6856" lon="4.30259">
        <ele>417.9</ele>
        <time>2023-02-19T09:25:20Z</time>
      </trkpt>
      <trkpt lat="45.68561" lon="4.30261">
        <ele>418.1</ele>
        <time>2023-02-19T09:25:22Z</time>
      </trkpt>
      <trkpt lat="45.68562" lon="4.30262">
        <ele>418.2</ele>
        <time>2023-02-19T09:25:23Z</time>
      </trkpt>
      <trkpt lat="45.68562" lon="4.30264">
        <ele>418.4</ele>
        <time>2023-02-19T09:25:24Z</time>
      </trkpt>
      <trkpt lat="45.68563" lon="4.30265">
        <ele>418.5</ele>
        <time>2023-02-19T09:25:25Z</time>
      </trkpt>
      <trkpt lat="45.68564" lon="4.30267">
        <ele>418.7</ele>
        <time>2023-02-19T09:25:26Z</time>
      </trkpt>
      <trkpt lat="45.68565" lon="4.30268">
        <ele>418.8</ele>
        <time>2023-02-19T09:25:27Z</time>
      </trkpt>
      <trkpt lat="45.68565" lon="4.3027">
        <ele>419</ele>
        <time>2023-02-19T09:25:28Z</time>
      </trkpt>
      <trkpt lat="45.68566" lon="4.30272">
        <ele>419.1</ele>
        <time>2023-02-19T09:25:29Z</time>
      </trkpt>
      <trkpt lat="45.68566" lon="4.30274">
        <ele>419.3</ele>
        <time>2023-02-19T09:25:31Z</time>
      </trkpt>
      <trkpt lat="45.68567" lon="4.30275">
        <ele>419.4</ele>
        <time>2023-02-19T09:25:32Z</time>
      </trkpt>
      <trkpt lat="45.68567" lon="4.30276">
        <ele>419.5</ele>
        <time>2023-02-19T09:25:33Z</time>
      </trkpt>
      <trkpt lat="45.68567" lon="4.30277">
        <ele>419.5</ele>
        <time>2023-02-19T09:25:34Z</time>
      </trkpt>
      <trkpt lat="45.68567" lon="4.30278">
        <ele>419.6</ele>
        <time>2023-02-19T09:25:35Z</time>
      </trkpt>
      <trkpt lat="45.68567" lon="4.30278">
        <ele>419.6</ele>
        <time>2023-02-19T09:25:36Z</time>
      </trkpt>
      <trkpt lat="45.68567" lon="4.30279">
        <ele>419.7</ele>
        <time>2023-02-19T09:25:37Z</time>
      </trkpt>
      <trkpt lat="45.68567" lon="4.30281">
        <ele>419.9</ele>
        <time>2023-02-19T09:25:39Z</time>
      </trkpt>
      <trkpt lat="45.68564" lon="4.30284">
        <ele>420.2</ele>
        <time>2023-02-19T09:25:40Z</time>
      </trkpt>
      <trkpt lat="45.68562" lon="4.30285">
        <ele>420.4</ele>
        <time>2023-02-19T09:25:41Z</time>
      </trkpt>
      <trkpt lat="45.68559" lon="4.30289">
        <ele>420.8</ele>
        <time>2023-02-19T09:25:42Z</time>
      </trkpt>
      <trkpt lat="45.68557" lon="4.30294">
        <ele>421.3</ele>
        <time>2023-02-19T09:25:44Z</time>
      </trkpt>
      <trkpt lat="45.68556" lon="4.30297">
        <ele>421.4</ele>
        <time>2023-02-19T09:25:45Z</time>
      </trkpt>
      <trkpt lat="45.68556" lon="4.30299">
        <ele>421.6</ele>
        <time>2023-02-19T09:25:46Z</time>
      </trkpt>
      <trkpt lat="45.68554" lon="4.30303">
        <ele>421.9</ele>
        <time>2023-02-19T09:25:47Z</time>
      </trkpt>
      <trkpt lat="45.68554" lon="4.30304">
        <ele>422</ele>
        <time>2023-02-19T09:25:48Z</time>
      </trkpt>
      <trkpt lat="45.68554" lon="4.30306">
        <ele>422.2</ele>
        <time>2023-02-19T09:25:49Z</time>
      </trkpt>
      <trkpt lat="45.68555" lon="4.30309">
        <ele>422.4</ele>
        <time>2023-02-19T09:25:50Z</time>
      </trkpt>
      <trkpt lat="45.68556" lon="4.30311">
        <ele>422.5</ele>
        <time>2023-02-19T09:25:51Z</time>
      </trkpt>
      <trkpt lat="45.68557" lon="4.30313">
        <ele>422.8</ele>
        <time>2023-02-19T09:25:53Z</time>
      </trkpt>
      <trkpt lat="45.68558" lon="4.30315">
        <ele>422.9</ele>
        <time>2023-02-19T09:25:54Z</time>
      </trkpt>
      <trkpt lat="45.68559" lon="4.30316">
        <ele>423</ele>
        <time>2023-02-19T09:25:55Z</time>
      </trkpt>
      <trkpt lat="45.6856" lon="4.30318">
        <ele>423.2</ele>
        <time>2023-02-19T09:25:57Z</time>
      </trkpt>
      <trkpt lat="45.6856" lon="4.30319">
        <ele>423.3</ele>
        <time>2023-02-19T09:25:58Z</time>
      </trkpt>
      <trkpt lat="45.68561" lon="4.3032">
        <ele>423.5</ele>
        <time>2023-02-19T09:25:59Z</time>
      </trkpt>
      <trkpt lat="45.68561" lon="4.30322">
        <ele>423.6</ele>
        <time>2023-02-19T09:26:00Z</time>
      </trkpt>
      <trkpt lat="45.68562" lon="4.30324">
        <ele>423.8</ele>
        <time>2023-02-19T09:26:01Z</time>
      </trkpt>
      <trkpt lat="45.68563" lon="4.30326">
        <ele>423.9</ele>
        <time>2023-02-19T09:26:02Z</time>
      </trkpt>
      <trkpt lat="45.68563" lon="4.30328">
        <ele>424.1</ele>
        <time>2023-02-19T09:26:03Z</time>
      </trkpt>
      <trkpt lat="45.68564" lon="4.3033">
        <ele>424.3</ele>
        <time>2023-02-19T09:26:04Z</time>
      </trkpt>
      <trkpt lat="45.68565" lon="4.30332">
        <ele>424.5</ele>
        <time>2023-02-19T09:26:06Z</time>
      </trkpt>
      <trkpt lat="45.68566" lon="4.30334">
        <ele>424.7</ele>
        <time>2023-02-19T09:26:07Z</time>
      </trkpt>
      <trkpt lat="45.68566" lon="4.30336">
        <ele>424.8</ele>
        <time>2023-02-19T09:26:08Z</time>
      </trkpt>
      <trkpt lat="45.68567" lon="4.30338">
        <ele>425.1</ele>
        <time>2023-02-19T09:26:10Z</time>
      </trkpt>
      <trkpt lat="45.68568" lon="4.3034">
        <ele>425.2</ele>
        <time>2023-02-19T09:26:11Z</time>
      </trkpt>
      <trkpt lat="45.68568" lon="4.30341">
        <ele>425.3</ele>
        <time>2023-02-19T09:26:12Z</time>
      </trkpt>
      <trkpt lat="45.68569" lon="4.30342">
        <ele>425.5</ele>
        <time>2023-02-19T09:26:13Z</time>
      </trkpt>
      <trkpt lat="45.68569" lon="4.30343">
        <ele>425.6</ele>
        <time>2023-02-19T09:26:14Z</time>
      </trkpt>
      <trkpt lat="45.6857" lon="4.30345">
        <ele>425.8</ele>
        <time>2023-02-19T09:26:16Z</time>
      </trkpt>
      <trkpt lat="45.6857" lon="4.30346">
        <ele>425.9</ele>
        <time>2023-02-19T09:26:17Z</time>
      </trkpt>
      <trkpt lat="45.68571" lon="4.30348">
        <ele>426</ele>
        <time>2023-02-19T09:26:18Z</time>
      </trkpt>
      <trkpt lat="45.68571" lon="4.30349">
        <ele>426.2</ele>
        <time>2023-02-19T09:26:20Z</time>
      </trkpt>
      <trkpt lat="45.68571" lon="4.3035">
        <ele>426.3</ele>
        <time>2023-02-19T09:26:21Z</time>
      </trkpt>
      <trkpt lat="45.68571" lon="4.30351">
        <ele>426.4</ele>
        <time>2023-02-19T09:26:22Z</time>
      </trkpt>
      <trkpt lat="45.68571" lon="4.30353">
        <ele>426.6</ele>
        <time>2023-02-19T09:26:23Z</time>
      </trkpt>
      <trkpt lat="45.68571" lon="4.30355">
        <ele>426.7</ele>
        <time>2023-02-19T09:26:24Z</time>
      </trkpt>
      <trkpt lat="45.68571" lon="4.30357">
        <ele>427</ele>
        <time>2023-02-19T09:26:25Z</time>
      </trkpt>
      <trkpt lat="45.68571" lon="4.30359">
        <ele>427.1</ele>
        <time>2023-02-19T09:26:27Z</time>
      </trkpt>
      <trkpt lat="45.68572" lon="4.3036">
        <ele>427.3</ele>
        <time>2023-02-19T09:26:28Z</time>
      </trkpt>
      <trkpt lat="45.68573" lon="4.30362">
        <ele>427.6</ele>
        <time>2023-02-19T09:26:30Z</time>
      </trkpt>
      <trkpt lat="45.68574" lon="4.30364">
        <ele>427.8</ele>
        <time>2023-02-19T09:26:31Z</time>
      </trkpt>
      <trkpt lat="45.68574" lon="4.30365">
        <ele>427.9</ele>
        <time>2023-02-19T09:26:32Z</time>
      </trkpt>
      <trkpt lat="45.68575" lon="4.30367">
        <ele>428.1</ele>
        <time>2023-02-19T09:26:33Z</time>
      </trkpt>
      <trkpt lat="45.68575" lon="4.30368">
        <ele>428.2</ele>
        <time>2023-02-19T09:26:34Z</time>
      </trkpt>
      <trkpt lat="45.68576" lon="4.30371">
        <ele>428.6</ele>
        <time>2023-02-19T09:26:36Z</time>
      </trkpt>
      <trkpt lat="45.68577" lon="4.30372">
        <ele>428.7</ele>
        <time>2023-02-19T09:26:37Z</time>
      </trkpt>
      <trkpt lat="45.68577" lon="4.30373">
        <ele>428.8</ele>
        <time>2023-02-19T09:26:38Z</time>
      </trkpt>
      <trkpt lat="45.68578" lon="4.30374">
        <ele>428.9</ele>
        <time>2023-02-19T09:26:39Z</time>
      </trkpt>
      <trkpt lat="45.68578" lon="4.30375">
        <ele>429.1</ele>
        <time>2023-02-19T09:26:40Z</time>
      </trkpt>
      <trkpt lat="45.68579" lon="4.30377">
        <ele>429.2</ele>
        <time>2023-02-19T09:26:41Z</time>
      </trkpt>
      <trkpt lat="45.68579" lon="4.30378">
        <ele>429.3</ele>
        <time>2023-02-19T09:26:42Z</time>
      </trkpt>
      <trkpt lat="45.6858" lon="4.30379">
        <ele>429.5</ele>
        <time>2023-02-19T09:26:43Z</time>
      </trkpt>
      <trkpt lat="45.6858" lon="4.3038">
        <ele>429.6</ele>
        <time>2023-02-19T09:26:45Z</time>
      </trkpt>
      <trkpt lat="45.6858" lon="4.30382">
        <ele>429.8</ele>
        <time>2023-02-19T09:26:46Z</time>
      </trkpt>
      <trkpt lat="45.68581" lon="4.30383">
        <ele>429.9</ele>
        <time>2023-02-19T09:26:47Z</time>
      </trkpt>
      <trkpt lat="45.68581" lon="4.30383">
        <ele>430</ele>
        <time>2023-02-19T09:26:48Z</time>
      </trkpt>
      <trkpt lat="45.68581" lon="4.30384">
        <ele>430.1</ele>
        <time>2023-02-19T09:26:49Z</time>
      </trkpt>
      <trkpt lat="45.68582" lon="4.30386">
        <ele>430.2</ele>
        <time>2023-02-19T09:26:50Z</time>
      </trkpt>
      <trkpt lat="45.68582" lon="4.30387">
        <ele>430.4</ele>
        <time>2023-02-19T09:26:51Z</time>
      </trkpt>
      <trkpt lat="45.68583" lon="4.30389">
        <ele>430.6</ele>
        <time>2023-02-19T09:26:52Z</time>
      </trkpt>
      <trkpt lat="45.68583" lon="4.3039">
        <ele>430.7</ele>
        <time>2023-02-19T09:26:53Z</time>
      </trkpt>
      <trkpt lat="45.68584" lon="4.30392">
        <ele>430.9</ele>
        <time>2023-02-19T09:26:54Z</time>
      </trkpt>
      <trkpt lat="45.68584" lon="4.30394">
        <ele>431.1</ele>
        <time>2023-02-19T09:26:56Z</time>
      </trkpt>
      <trkpt lat="45.68585" lon="4.30396">
        <ele>431.3</ele>
        <time>2023-02-19T09:26:57Z</time>
      </trkpt>
      <trkpt lat="45.68586" lon="4.30398">
        <ele>431.6</ele>
        <time>2023-02-19T09:26:58Z</time>
      </trkpt>
      <trkpt lat="45.68587" lon="4.30399">
        <ele>431.7</ele>
        <time>2023-02-19T09:26:59Z</time>
      </trkpt>
      <trkpt lat="45.68587" lon="4.30402">
        <ele>432</ele>
        <time>2023-02-19T09:27:01Z</time>
      </trkpt>
      <trkpt lat="45.68588" lon="4.30403">
        <ele>432.1</ele>
        <time>2023-02-19T09:27:02Z</time>
      </trkpt>
      <trkpt lat="45.68589" lon="4.30404">
        <ele>432.3</ele>
        <time>2023-02-19T09:27:03Z</time>
      </trkpt>
      <trkpt lat="45.68589" lon="4.30406">
        <ele>432.4</ele>
        <time>2023-02-19T09:27:04Z</time>
      </trkpt>
      <trkpt lat="45.6859" lon="4.30408">
        <ele>432.6</ele>
        <time>2023-02-19T09:27:06Z</time>
      </trkpt>
      <trkpt lat="45.6859" lon="4.30409">
        <ele>432.8</ele>
        <time>2023-02-19T09:27:07Z</time>
      </trkpt>
      <trkpt lat="45.6859" lon="4.3041">
        <ele>432.9</ele>
        <time>2023-02-19T09:27:08Z</time>
      </trkpt>
      <trkpt lat="45.68591" lon="4.30412">
        <ele>433</ele>
        <time>2023-02-19T09:27:10Z</time>
      </trkpt>
      <trkpt lat="45.68591" lon="4.30413">
        <ele>433.2</ele>
        <time>2023-02-19T09:27:11Z</time>
      </trkpt>
      <trkpt lat="45.68591" lon="4.30414">
        <ele>433.3</ele>
        <time>2023-02-19T09:27:12Z</time>
      </trkpt>
      <trkpt lat="45.68591" lon="4.30416">
        <ele>433.4</ele>
        <time>2023-02-19T09:27:13Z</time>
      </trkpt>
      <trkpt lat="45.68591" lon="4.30417">
        <ele>433.6</ele>
        <time>2023-02-19T09:27:14Z</time>
      </trkpt>
      <trkpt lat="45.68591" lon="4.30419">
        <ele>433.8</ele>
        <time>2023-02-19T09:27:15Z</time>
      </trkpt>
      <trkpt lat="45.6859" lon="4.30421">
        <ele>434.1</ele>
        <time>2023-02-19T09:27:16Z</time>
      </trkpt>
      <trkpt lat="45.6859" lon="4.30423">
        <ele>434.3</ele>
        <time>2023-02-19T09:27:17Z</time>
      </trkpt>
      <trkpt lat="45.68589" lon="4.30426">
        <ele>434.5</ele>
        <time>2023-02-19T09:27:19Z</time>
      </trkpt>
      <trkpt lat="45.68589" lon="4.30428">
        <ele>434.7</ele>
        <time>2023-02-19T09:27:20Z</time>
      </trkpt>
      <trkpt lat="45.68589" lon="4.3043">
        <ele>434.9</ele>
        <time>2023-02-19T09:27:21Z</time>
      </trkpt>
      <trkpt lat="45.68588" lon="4.30432">
        <ele>435.1</ele>
        <time>2023-02-19T09:27:23Z</time>
      </trkpt>
      <trkpt lat="45.68588" lon="4.30432">
        <ele>435.2</ele>
        <time>2023-02-19T09:27:24Z</time>
      </trkpt>
      <trkpt lat="45.68588" lon="4.30434">
        <ele>435.4</ele>
        <time>2023-02-19T09:27:26Z</time>
      </trkpt>
      <trkpt lat="45.68588" lon="4.30434">
        <ele>435.4</ele>
        <time>2023-02-19T09:27:27Z</time>
      </trkpt>
      <trkpt lat="45.68588" lon="4.30436">
        <ele>435.6</ele>
        <time>2023-02-19T09:27:28Z</time>
      </trkpt>
      <trkpt lat="45.68588" lon="4.30437">
        <ele>435.8</ele>
        <time>2023-02-19T09:27:30Z</time>
      </trkpt>
      <trkpt lat="45.68589" lon="4.30438">
        <ele>435.9</ele>
        <time>2023-02-19T09:27:31Z</time>
      </trkpt>
      <trkpt lat="45.68589" lon="4.30439">
        <ele>436</ele>
        <time>2023-02-19T09:27:32Z</time>
      </trkpt>
      <trkpt lat="45.6859" lon="4.30441">
        <ele>436.2</ele>
        <time>2023-02-19T09:27:33Z</time>
      </trkpt>
      <trkpt lat="45.68591" lon="4.30442">
        <ele>436.4</ele>
        <time>2023-02-19T09:27:34Z</time>
      </trkpt>
      <trkpt lat="45.68592" lon="4.30444">
        <ele>436.6</ele>
        <time>2023-02-19T09:27:35Z</time>
      </trkpt>
      <trkpt lat="45.68593" lon="4.30446">
        <ele>436.9</ele>
        <time>2023-02-19T09:27:37Z</time>
      </trkpt>
      <trkpt lat="45.68594" lon="4.30447">
        <ele>437.1</ele>
        <time>2023-02-19T09:27:38Z</time>
      </trkpt>
      <trkpt lat="45.68595" lon="4.30449">
        <ele>437.5</ele>
        <time>2023-02-19T09:27:39Z</time>
      </trkpt>
      <trkpt lat="45.68596" lon="4.3045">
        <ele>437.6</ele>
        <time>2023-02-19T09:27:41Z</time>
      </trkpt>
      <trkpt lat="45.68596" lon="4.30451">
        <ele>437.8</ele>
        <time>2023-02-19T09:27:42Z</time>
      </trkpt>
      <trkpt lat="45.68598" lon="4.30453">
        <ele>438.1</ele>
        <time>2023-02-19T09:27:43Z</time>
      </trkpt>
      <trkpt lat="45.68599" lon="4.30454">
        <ele>438.3</ele>
        <time>2023-02-19T09:27:44Z</time>
      </trkpt>
      <trkpt lat="45.686" lon="4.30455">
        <ele>438.4</ele>
        <time>2023-02-19T09:27:45Z</time>
      </trkpt>
      <trkpt lat="45.68601" lon="4.30456">
        <ele>438.6</ele>
        <time>2023-02-19T09:27:46Z</time>
      </trkpt>
      <trkpt lat="45.68602" lon="4.30458">
        <ele>439</ele>
        <time>2023-02-19T09:27:48Z</time>
      </trkpt>
      <trkpt lat="45.68603" lon="4.30459">
        <ele>439.2</ele>
        <time>2023-02-19T09:27:49Z</time>
      </trkpt>
      <trkpt lat="45.68604" lon="4.3046">
        <ele>439.2</ele>
        <time>2023-02-19T09:27:50Z</time>
      </trkpt>
      <trkpt lat="45.68604" lon="4.30461">
        <ele>439.3</ele>
        <time>2023-02-19T09:27:51Z</time>
      </trkpt>
      <trkpt lat="45.68605" lon="4.30462">
        <ele>439.5</ele>
        <time>2023-02-19T09:27:52Z</time>
      </trkpt>
      <trkpt lat="45.68605" lon="4.30463">
        <ele>439.6</ele>
        <time>2023-02-19T09:27:53Z</time>
      </trkpt>
      <trkpt lat="45.68605" lon="4.30465">
        <ele>439.8</ele>
        <time>2023-02-19T09:27:54Z</time>
      </trkpt>
      <trkpt lat="45.68606" lon="4.30466">
        <ele>439.9</ele>
        <time>2023-02-19T09:27:55Z</time>
      </trkpt>
      <trkpt lat="45.68606" lon="4.30468">
        <ele>440.1</ele>
        <time>2023-02-19T09:27:57Z</time>
      </trkpt>
      <trkpt lat="45.68606" lon="4.30471">
        <ele>440.4</ele>
        <time>2023-02-19T09:27:58Z</time>
      </trkpt>
      <trkpt lat="45.68606" lon="4.30473">
        <ele>440.6</ele>
        <time>2023-02-19T09:28:00Z</time>
      </trkpt>
      <trkpt lat="45.68606" lon="4.30475">
        <ele>440.8</ele>
        <time>2023-02-19T09:28:01Z</time>
      </trkpt>
      <trkpt lat="45.68606" lon="4.30476">
        <ele>440.9</ele>
        <time>2023-02-19T09:28:02Z</time>
      </trkpt>
      <trkpt lat="45.68606" lon="4.30478">
        <ele>441.1</ele>
        <time>2023-02-19T09:28:04Z</time>
      </trkpt>
      <trkpt lat="45.68606" lon="4.3048">
        <ele>441.3</ele>
        <time>2023-02-19T09:28:05Z</time>
      </trkpt>
      <trkpt lat="45.68606" lon="4.30481">
        <ele>441.4</ele>
        <time>2023-02-19T09:28:06Z</time>
      </trkpt>
      <trkpt lat="45.68607" lon="4.30482">
        <ele>441.5</ele>
        <time>2023-02-19T09:28:07Z</time>
      </trkpt>
      <trkpt lat="45.68607" lon="4.30484">
        <ele>441.7</ele>
        <time>2023-02-19T09:28:08Z</time>
      </trkpt>
      <trkpt lat="45.68607" lon="4.30486">
        <ele>441.9</ele>
        <time>2023-02-19T09:28:09Z</time>
      </trkpt>
      <trkpt lat="45.68607" lon="4.30487">
        <ele>442</ele>
        <time>2023-02-19T09:28:10Z</time>
      </trkpt>
      <trkpt lat="45.68608" lon="4.3049">
        <ele>442.3</ele>
        <time>2023-02-19T09:28:12Z</time>
      </trkpt>
      <trkpt lat="45.68608" lon="4.30493">
        <ele>442.5</ele>
        <time>2023-02-19T09:28:13Z</time>
      </trkpt>
      <trkpt lat="45.68608" lon="4.30494">
        <ele>442.6</ele>
        <time>2023-02-19T09:28:14Z</time>
      </trkpt>
      <trkpt lat="45.68608" lon="4.30495">
        <ele>442.7</ele>
        <time>2023-02-19T09:28:15Z</time>
      </trkpt>
      <trkpt lat="45.68609" lon="4.30498">
        <ele>443</ele>
        <time>2023-02-19T09:28:17Z</time>
      </trkpt>
      <trkpt lat="45.6861" lon="4.305">
        <ele>443.1</ele>
        <time>2023-02-19T09:28:18Z</time>
      </trkpt>
      <trkpt lat="45.6861" lon="4.30502">
        <ele>443.3</ele>
        <time>2023-02-19T09:28:19Z</time>
      </trkpt>
      <trkpt lat="45.6861" lon="4.30505">
        <ele>443.5</ele>
        <time>2023-02-19T09:28:21Z</time>
      </trkpt>
      <trkpt lat="45.6861" lon="4.30506">
        <ele>443.6</ele>
        <time>2023-02-19T09:28:22Z</time>
      </trkpt>
      <trkpt lat="45.68611" lon="4.30507">
        <ele>443.7</ele>
        <time>2023-02-19T09:28:23Z</time>
      </trkpt>
      <trkpt lat="45.68611" lon="4.30509">
        <ele>443.8</ele>
        <time>2023-02-19T09:28:25Z</time>
      </trkpt>
      <trkpt lat="45.68611" lon="4.3051">
        <ele>443.9</ele>
        <time>2023-02-19T09:28:26Z</time>
      </trkpt>
      <trkpt lat="45.68611" lon="4.30511">
        <ele>444</ele>
        <time>2023-02-19T09:28:27Z</time>
      </trkpt>
      <trkpt lat="45.68612" lon="4.30512">
        <ele>444.1</ele>
        <time>2023-02-19T09:28:28Z</time>
      </trkpt>
      <trkpt lat="45.68612" lon="4.30514">
        <ele>444.2</ele>
        <time>2023-02-19T09:28:29Z</time>
      </trkpt>
      <trkpt lat="45.68612" lon="4.30516">
        <ele>444.4</ele>
        <time>2023-02-19T09:28:31Z</time>
      </trkpt>
      <trkpt lat="45.68612" lon="4.30517">
        <ele>444.5</ele>
        <time>2023-02-19T09:28:32Z</time>
      </trkpt>
      <trkpt lat="45.68613" lon="4.30518">
        <ele>444.6</ele>
        <time>2023-02-19T09:28:33Z</time>
      </trkpt>
      <trkpt lat="45.68613" lon="4.30519">
        <ele>444.7</ele>
        <time>2023-02-19T09:28:34Z</time>
      </trkpt>
      <trkpt lat="45.68614" lon="4.3052">
        <ele>444.8</ele>
        <time>2023-02-19T09:28:35Z</time>
      </trkpt>
      <trkpt lat="45.68615" lon="4.30522">
        <ele>445</ele>
        <time>2023-02-19T09:28:36Z</time>
      </trkpt>
      <trkpt lat="45.68616" lon="4.30524">
        <ele>445.2</ele>
        <time>2023-02-19T09:28:37Z</time>
      </trkpt>
      <trkpt lat="45.68616" lon="4.30525">
        <ele>445.3</ele>
        <time>2023-02-19T09:28:39Z</time>
      </trkpt>
      <trkpt lat="45.68617" lon="4.30526">
        <ele>445.4</ele>
        <time>2023-02-19T09:28:40Z</time>
      </trkpt>
      <trkpt lat="45.68617" lon="4.30527">
        <ele>445.5</ele>
        <time>2023-02-19T09:28:41Z</time>
      </trkpt>
      <trkpt lat="45.68617" lon="4.30528">
        <ele>445.6</ele>
        <time>2023-02-19T09:28:42Z</time>
      </trkpt>
      <trkpt lat="45.68617" lon="4.30529">
        <ele>445.7</ele>
        <time>2023-02-19T09:28:43Z</time>
      </trkpt>
      <trkpt lat="45.68618" lon="4.30531">
        <ele>445.8</ele>
        <time>2023-02-19T09:28:45Z</time>
      </trkpt>
      <trkpt lat="45.68618" lon="4.30531">
        <ele>445.9</ele>
        <time>2023-02-19T09:28:46Z</time>
      </trkpt>
      <trkpt lat="45.68618" lon="4.30532">
        <ele>445.9</ele>
        <time>2023-02-19T09:28:47Z</time>
      </trkpt>
      <trkpt lat="45.68618" lon="4.30532">
        <ele>445.9</ele>
        <time>2023-02-19T09:28:48Z</time>
      </trkpt>
      <trkpt lat="45.68619" lon="4.30532">
        <ele>446</ele>
        <time>2023-02-19T09:28:49Z</time>
      </trkpt>
      <trkpt lat="45.68619" lon="4.30533">
        <ele>446.1</ele>
        <time>2023-02-19T09:28:50Z</time>
      </trkpt>
      <trkpt lat="45.68621" lon="4.30533">
        <ele>446.2</ele>
        <time>2023-02-19T09:28:51Z</time>
      </trkpt>
      <trkpt lat="45.68622" lon="4.30534">
        <ele>446.4</ele>
        <time>2023-02-19T09:28:53Z</time>
      </trkpt>
      <trkpt lat="45.68623" lon="4.30534">
        <ele>446.5</ele>
        <time>2023-02-19T09:28:54Z</time>
      </trkpt>
      <trkpt lat="45.68623" lon="4.30534">
        <ele>446.6</ele>
        <time>2023-02-19T09:28:55Z</time>
      </trkpt>
      <trkpt lat="45.68625" lon="4.30536">
        <ele>446.8</ele>
        <time>2023-02-19T09:28:57Z</time>
      </trkpt>
      <trkpt lat="45.68626" lon="4.30538">
        <ele>447</ele>
        <time>2023-02-19T09:28:58Z</time>
      </trkpt>
      <trkpt lat="45.68627" lon="4.30542">
        <ele>447.4</ele>
        <time>2023-02-19T09:28:59Z</time>
      </trkpt>
      <trkpt lat="45.68627" lon="4.30543">
        <ele>447.5</ele>
        <time>2023-02-19T09:29:00Z</time>
      </trkpt>
      <trkpt lat="45.68628" lon="4.30548">
        <ele>448</ele>
        <time>2023-02-19T09:29:02Z</time>
      </trkpt>
      <trkpt lat="45.68629" lon="4.30549">
        <ele>448.2</ele>
        <time>2023-02-19T09:29:03Z</time>
      </trkpt>
      <trkpt lat="45.68629" lon="4.30551">
        <ele>448.4</ele>
        <time>2023-02-19T09:29:04Z</time>
      </trkpt>
      <trkpt lat="45.6863" lon="4.30553">
        <ele>448.6</ele>
        <time>2023-02-19T09:29:05Z</time>
      </trkpt>
      <trkpt lat="45.6863" lon="4.30556">
        <ele>448.8</ele>
        <time>2023-02-19T09:29:06Z</time>
      </trkpt>
      <trkpt lat="45.68631" lon="4.30558">
        <ele>449.1</ele>
        <time>2023-02-19T09:29:08Z</time>
      </trkpt>
      <trkpt lat="45.68632" lon="4.30559">
        <ele>449.2</ele>
        <time>2023-02-19T09:29:09Z</time>
      </trkpt>
      <trkpt lat="45.68633" lon="4.3056">
        <ele>449.4</ele>
        <time>2023-02-19T09:29:10Z</time>
      </trkpt>
      <trkpt lat="45.68634" lon="4.30561">
        <ele>449.6</ele>
        <time>2023-02-19T09:29:11Z</time>
      </trkpt>
      <trkpt lat="45.68635" lon="4.30562">
        <ele>449.7</ele>
        <time>2023-02-19T09:29:12Z</time>
      </trkpt>
      <trkpt lat="45.68637" lon="4.30562">
        <ele>450</ele>
        <time>2023-02-19T09:29:13Z</time>
      </trkpt>
      <trkpt lat="45.68638" lon="4.30563">
        <ele>450.2</ele>
        <time>2023-02-19T09:29:15Z</time>
      </trkpt>
      <trkpt lat="45.6864" lon="4.30565">
        <ele>450.4</ele>
        <time>2023-02-19T09:29:16Z</time>
      </trkpt>
      <trkpt lat="45.68641" lon="4.30566">
        <ele>450.6</ele>
        <time>2023-02-19T09:29:17Z</time>
      </trkpt>
      <trkpt lat="45.68642" lon="4.30567">
        <ele>450.7</ele>
        <time>2023-02-19T09:29:18Z</time>
      </trkpt>
      <trkpt lat="45.68644" lon="4.30568">
        <ele>451</ele>
        <time>2023-02-19T09:29:19Z</time>
      </trkpt>
      <trkpt lat="45.68645" lon="4.30569">
        <ele>451.1</ele>
        <time>2023-02-19T09:29:20Z</time>
      </trkpt>
      <trkpt lat="45.68645" lon="4.30569">
        <ele>451.2</ele>
        <time>2023-02-19T09:29:21Z</time>
      </trkpt>
      <trkpt lat="45.68647" lon="4.30571">
        <ele>451.5</ele>
        <time>2023-02-19T09:29:22Z</time>
      </trkpt>
      <trkpt lat="45.68648" lon="4.30571">
        <ele>451.5</ele>
        <time>2023-02-19T09:29:24Z</time>
      </trkpt>
      <trkpt lat="45.68649" lon="4.30572">
        <ele>451.6</ele>
        <time>2023-02-19T09:29:25Z</time>
      </trkpt>
      <trkpt lat="45.6865" lon="4.30573">
        <ele>451.8</ele>
        <time>2023-02-19T09:29:26Z</time>
      </trkpt>
      <trkpt lat="45.6865" lon="4.30574">
        <ele>451.9</ele>
        <time>2023-02-19T09:29:27Z</time>
      </trkpt>
      <trkpt lat="45.68651" lon="4.30575">
        <ele>452</ele>
        <time>2023-02-19T09:29:28Z</time>
      </trkpt>
      <trkpt lat="45.68652" lon="4.30576">
        <ele>452.1</ele>
        <time>2023-02-19T09:29:29Z</time>
      </trkpt>
      <trkpt lat="45.68652" lon="4.30578">
        <ele>452.2</ele>
        <time>2023-02-19T09:29:30Z</time>
      </trkpt>
      <trkpt lat="45.68653" lon="4.30579">
        <ele>452.3</ele>
        <time>2023-02-19T09:29:31Z</time>
      </trkpt>
      <trkpt lat="45.68654" lon="4.3058">
        <ele>452.4</ele>
        <time>2023-02-19T09:29:33Z</time>
      </trkpt>
      <trkpt lat="45.68654" lon="4.30581">
        <ele>452.5</ele>
        <time>2023-02-19T09:29:34Z</time>
      </trkpt>
      <trkpt lat="45.68655" lon="4.30583">
        <ele>452.6</ele>
        <time>2023-02-19T09:29:35Z</time>
      </trkpt>
      <trkpt lat="45.68655" lon="4.30584">
        <ele>452.7</ele>
        <time>2023-02-19T09:29:36Z</time>
      </trkpt>
      <trkpt lat="45.68655" lon="4.30585">
        <ele>452.7</ele>
        <time>2023-02-19T09:29:37Z</time>
      </trkpt>
      <trkpt lat="45.68656" lon="4.30585">
        <ele>452.8</ele>
        <time>2023-02-19T09:29:38Z</time>
      </trkpt>
      <trkpt lat="45.68657" lon="4.30586">
        <ele>452.9</ele>
        <time>2023-02-19T09:29:39Z</time>
      </trkpt>
      <trkpt lat="45.68657" lon="4.30587">
        <ele>452.9</ele>
        <time>2023-02-19T09:29:41Z</time>
      </trkpt>
      <trkpt lat="45.68658" lon="4.30587">
        <ele>453</ele>
        <time>2023-02-19T09:29:42Z</time>
      </trkpt>
      <trkpt lat="45.68659" lon="4.30588">
        <ele>453.1</ele>
        <time>2023-02-19T09:29:43Z</time>
      </trkpt>
      <trkpt lat="45.6866" lon="4.3059">
        <ele>453.2</ele>
        <time>2023-02-19T09:29:44Z</time>
      </trkpt>
      <trkpt lat="45.6866" lon="4.30591">
        <ele>453.3</ele>
        <time>2023-02-19T09:29:45Z</time>
      </trkpt>
      <trkpt lat="45.68662" lon="4.30593">
        <ele>453.5</ele>
        <time>2023-02-19T09:29:47Z</time>
      </trkpt>
      <trkpt lat="45.68662" lon="4.30594">
        <ele>453.6</ele>
        <time>2023-02-19T09:29:48Z</time>
      </trkpt>
      <trkpt lat="45.68663" lon="4.30595">
        <ele>453.7</ele>
        <time>2023-02-19T09:29:49Z</time>
      </trkpt>
      <trkpt lat="45.68663" lon="4.30597">
        <ele>453.7</ele>
        <time>2023-02-19T09:29:50Z</time>
      </trkpt>
      <trkpt lat="45.68664" lon="4.30598">
        <ele>453.8</ele>
        <time>2023-02-19T09:29:51Z</time>
      </trkpt>
      <trkpt lat="45.68664" lon="4.306">
        <ele>453.9</ele>
        <time>2023-02-19T09:29:52Z</time>
      </trkpt>
      <trkpt lat="45.68664" lon="4.30601">
        <ele>454</ele>
        <time>2023-02-19T09:29:53Z</time>
      </trkpt>
      <trkpt lat="45.68664" lon="4.30602">
        <ele>454</ele>
        <time>2023-02-19T09:29:55Z</time>
      </trkpt>
      <trkpt lat="45.68664" lon="4.30603">
        <ele>454.1</ele>
        <time>2023-02-19T09:29:56Z</time>
      </trkpt>
      <trkpt lat="45.68664" lon="4.30604">
        <ele>454.1</ele>
        <time>2023-02-19T09:29:57Z</time>
      </trkpt>
      <trkpt lat="45.68665" lon="4.30606">
        <ele>454.2</ele>
        <time>2023-02-19T09:29:58Z</time>
      </trkpt>
      <trkpt lat="45.68665" lon="4.30607">
        <ele>454.3</ele>
        <time>2023-02-19T09:29:59Z</time>
      </trkpt>
      <trkpt lat="45.68666" lon="4.30608">
        <ele>454.4</ele>
        <time>2023-02-19T09:30:00Z</time>
      </trkpt>
      <trkpt lat="45.68666" lon="4.30609">
        <ele>454.4</ele>
        <time>2023-02-19T09:30:01Z</time>
      </trkpt>
      <trkpt lat="45.68667" lon="4.30611">
        <ele>454.6</ele>
        <time>2023-02-19T09:30:02Z</time>
      </trkpt>
      <trkpt lat="45.68668" lon="4.30613">
        <ele>454.7</ele>
        <time>2023-02-19T09:30:03Z</time>
      </trkpt>
      <trkpt lat="45.68669" lon="4.30615">
        <ele>454.8</ele>
        <time>2023-02-19T09:30:05Z</time>
      </trkpt>
      <trkpt lat="45.6867" lon="4.30616">
        <ele>454.9</ele>
        <time>2023-02-19T09:30:06Z</time>
      </trkpt>
      <trkpt lat="45.6867" lon="4.30618">
        <ele>455</ele>
        <time>2023-02-19T09:30:07Z</time>
      </trkpt>
      <trkpt lat="45.68671" lon="4.3062">
        <ele>455.1</ele>
        <time>2023-02-19T09:30:08Z</time>
      </trkpt>
      <trkpt lat="45.68672" lon="4.30622">
        <ele>455.3</ele>
        <time>2023-02-19T09:30:09Z</time>
      </trkpt>
      <trkpt lat="45.68672" lon="4.30624">
        <ele>455.4</ele>
        <time>2023-02-19T09:30:10Z</time>
      </trkpt>
      <trkpt lat="45.68673" lon="4.30626">
        <ele>455.6</ele>
        <time>2023-02-19T09:30:11Z</time>
      </trkpt>
      <trkpt lat="45.68673" lon="4.30628">
        <ele>455.7</ele>
        <time>2023-02-19T09:30:13Z</time>
      </trkpt>
      <trkpt lat="45.68673" lon="4.3063">
        <ele>455.9</ele>
        <time>2023-02-19T09:30:14Z</time>
      </trkpt>
      <trkpt lat="45.68673" lon="4.30633">
        <ele>456</ele>
        <time>2023-02-19T09:30:15Z</time>
      </trkpt>
      <trkpt lat="45.68673" lon="4.30635">
        <ele>456.1</ele>
        <time>2023-02-19T09:30:16Z</time>
      </trkpt>
      <trkpt lat="45.68673" lon="4.30637">
        <ele>456.3</ele>
        <time>2023-02-19T09:30:17Z</time>
      </trkpt>
      <trkpt lat="45.68673" lon="4.30639">
        <ele>456.4</ele>
        <time>2023-02-19T09:30:18Z</time>
      </trkpt>
      <trkpt lat="45.68673" lon="4.3064">
        <ele>456.5</ele>
        <time>2023-02-19T09:30:19Z</time>
      </trkpt>
      <trkpt lat="45.68673" lon="4.30643">
        <ele>456.7</ele>
        <time>2023-02-19T09:30:20Z</time>
      </trkpt>
      <trkpt lat="45.68674" lon="4.30645">
        <ele>456.8</ele>
        <time>2023-02-19T09:30:21Z</time>
      </trkpt>
      <trkpt lat="45.68674" lon="4.30647">
        <ele>457</ele>
        <time>2023-02-19T09:30:23Z</time>
      </trkpt>
      <trkpt lat="45.68674" lon="4.30649">
        <ele>457.1</ele>
        <time>2023-02-19T09:30:24Z</time>
      </trkpt>
      <trkpt lat="45.68675" lon="4.30652">
        <ele>457.3</ele>
        <time>2023-02-19T09:30:25Z</time>
      </trkpt>
      <trkpt lat="45.68676" lon="4.30653">
        <ele>457.4</ele>
        <time>2023-02-19T09:30:26Z</time>
      </trkpt>
      <trkpt lat="45.68676" lon="4.30654">
        <ele>457.5</ele>
        <time>2023-02-19T09:30:27Z</time>
      </trkpt>
      <trkpt lat="45.68677" lon="4.30656">
        <ele>457.6</ele>
        <time>2023-02-19T09:30:28Z</time>
      </trkpt>
      <trkpt lat="45.68677" lon="4.30658">
        <ele>457.7</ele>
        <time>2023-02-19T09:30:29Z</time>
      </trkpt>
      <trkpt lat="45.68678" lon="4.3066">
        <ele>457.9</ele>
        <time>2023-02-19T09:30:30Z</time>
      </trkpt>
      <trkpt lat="45.68679" lon="4.30661">
        <ele>458</ele>
        <time>2023-02-19T09:30:31Z</time>
      </trkpt>
      <trkpt lat="45.68679" lon="4.30663">
        <ele>458.2</ele>
        <time>2023-02-19T09:30:32Z</time>
      </trkpt>
      <trkpt lat="45.6868" lon="4.30664">
        <ele>458.2</ele>
        <time>2023-02-19T09:30:34Z</time>
      </trkpt>
      <trkpt lat="45.6868" lon="4.30665">
        <ele>458.3</ele>
        <time>2023-02-19T09:30:35Z</time>
      </trkpt>
      <trkpt lat="45.68681" lon="4.30667">
        <ele>458.4</ele>
        <time>2023-02-19T09:30:36Z</time>
      </trkpt>
      <trkpt lat="45.68681" lon="4.30668">
        <ele>458.5</ele>
        <time>2023-02-19T09:30:37Z</time>
      </trkpt>
      <trkpt lat="45.68681" lon="4.30669">
        <ele>458.6</ele>
        <time>2023-02-19T09:30:38Z</time>
      </trkpt>
      <trkpt lat="45.68681" lon="4.3067">
        <ele>458.7</ele>
        <time>2023-02-19T09:30:39Z</time>
      </trkpt>
      <trkpt lat="45.68681" lon="4.30672">
        <ele>458.8</ele>
        <time>2023-02-19T09:30:40Z</time>
      </trkpt>
      <trkpt lat="45.68682" lon="4.30674">
        <ele>458.9</ele>
        <time>2023-02-19T09:30:41Z</time>
      </trkpt>
      <trkpt lat="45.68682" lon="4.30677">
        <ele>459</ele>
        <time>2023-02-19T09:30:42Z</time>
      </trkpt>
      <trkpt lat="45.68682" lon="4.30678">
        <ele>459.1</ele>
        <time>2023-02-19T09:30:43Z</time>
      </trkpt>
      <trkpt lat="45.68683" lon="4.30679">
        <ele>459.2</ele>
        <time>2023-02-19T09:30:44Z</time>
      </trkpt>
      <trkpt lat="45.68683" lon="4.3068">
        <ele>459.3</ele>
        <time>2023-02-19T09:30:46Z</time>
      </trkpt>
      <trkpt lat="45.68684" lon="4.30682">
        <ele>459.3</ele>
        <time>2023-02-19T09:30:47Z</time>
      </trkpt>
      <trkpt lat="45.68684" lon="4.30683">
        <ele>459.4</ele>
        <time>2023-02-19T09:30:48Z</time>
      </trkpt>
      <trkpt lat="45.68684" lon="4.30685">
        <ele>459.5</ele>
        <time>2023-02-19T09:30:49Z</time>
      </trkpt>
      <trkpt lat="45.68685" lon="4.30686">
        <ele>459.6</ele>
        <time>2023-02-19T09:30:50Z</time>
      </trkpt>
      <trkpt lat="45.68685" lon="4.30688">
        <ele>459.7</ele>
        <time>2023-02-19T09:30:51Z</time>
      </trkpt>
      <trkpt lat="45.68686" lon="4.30689">
        <ele>459.8</ele>
        <time>2023-02-19T09:30:52Z</time>
      </trkpt>
      <trkpt lat="45.68686" lon="4.30691">
        <ele>459.8</ele>
        <time>2023-02-19T09:30:53Z</time>
      </trkpt>
      <trkpt lat="45.68687" lon="4.30693">
        <ele>459.9</ele>
        <time>2023-02-19T09:30:55Z</time>
      </trkpt>
      <trkpt lat="45.68687" lon="4.30694">
        <ele>460</ele>
        <time>2023-02-19T09:30:56Z</time>
      </trkpt>
      <trkpt lat="45.68688" lon="4.30696">
        <ele>460.1</ele>
        <time>2023-02-19T09:30:57Z</time>
      </trkpt>
      <trkpt lat="45.68689" lon="4.30698">
        <ele>460.2</ele>
        <time>2023-02-19T09:30:58Z</time>
      </trkpt>
      <trkpt lat="45.68689" lon="4.307">
        <ele>460.3</ele>
        <time>2023-02-19T09:30:59Z</time>
      </trkpt>
      <trkpt lat="45.68691" lon="4.30703">
        <ele>460.6</ele>
        <time>2023-02-19T09:31:00Z</time>
      </trkpt>
      <trkpt lat="45.68691" lon="4.30704">
        <ele>460.6</ele>
        <time>2023-02-19T09:31:01Z</time>
      </trkpt>
      <trkpt lat="45.68692" lon="4.30706">
        <ele>460.7</ele>
        <time>2023-02-19T09:31:03Z</time>
      </trkpt>
      <trkpt lat="45.68693" lon="4.30708">
        <ele>460.8</ele>
        <time>2023-02-19T09:31:04Z</time>
      </trkpt>
      <trkpt lat="45.68694" lon="4.3071">
        <ele>460.9</ele>
        <time>2023-02-19T09:31:05Z</time>
      </trkpt>
      <trkpt lat="45.68695" lon="4.30711">
        <ele>461</ele>
        <time>2023-02-19T09:31:06Z</time>
      </trkpt>
      <trkpt lat="45.68696" lon="4.30714">
        <ele>461.2</ele>
        <time>2023-02-19T09:31:07Z</time>
      </trkpt>
      <trkpt lat="45.68696" lon="4.30715">
        <ele>461.2</ele>
        <time>2023-02-19T09:31:08Z</time>
      </trkpt>
      <trkpt lat="45.68697" lon="4.30716">
        <ele>461.3</ele>
        <time>2023-02-19T09:31:09Z</time>
      </trkpt>
      <trkpt lat="45.68698" lon="4.30717">
        <ele>461.4</ele>
        <time>2023-02-19T09:31:10Z</time>
      </trkpt>
      <trkpt lat="45.68698" lon="4.30719">
        <ele>461.5</ele>
        <time>2023-02-19T09:31:11Z</time>
      </trkpt>
      <trkpt lat="45.68699" lon="4.3072">
        <ele>461.6</ele>
        <time>2023-02-19T09:31:13Z</time>
      </trkpt>
      <trkpt lat="45.687" lon="4.30721">
        <ele>461.6</ele>
        <time>2023-02-19T09:31:14Z</time>
      </trkpt>
      <trkpt lat="45.68702" lon="4.30723">
        <ele>461.8</ele>
        <time>2023-02-19T09:31:16Z</time>
      </trkpt>
      <trkpt lat="45.68703" lon="4.30725">
        <ele>461.9</ele>
        <time>2023-02-19T09:31:17Z</time>
      </trkpt>
      <trkpt lat="45.68704" lon="4.30727">
        <ele>461.9</ele>
        <time>2023-02-19T09:31:18Z</time>
      </trkpt>
      <trkpt lat="45.68704" lon="4.30729">
        <ele>462</ele>
        <time>2023-02-19T09:31:19Z</time>
      </trkpt>
      <trkpt lat="45.68705" lon="4.3073">
        <ele>462.1</ele>
        <time>2023-02-19T09:31:20Z</time>
      </trkpt>
      <trkpt lat="45.68706" lon="4.30732">
        <ele>462.2</ele>
        <time>2023-02-19T09:31:21Z</time>
      </trkpt>
      <trkpt lat="45.68707" lon="4.30733">
        <ele>462.2</ele>
        <time>2023-02-19T09:31:23Z</time>
      </trkpt>
      <trkpt lat="45.68708" lon="4.30734">
        <ele>462.3</ele>
        <time>2023-02-19T09:31:24Z</time>
      </trkpt>
      <trkpt lat="45.68709" lon="4.30735">
        <ele>462.4</ele>
        <time>2023-02-19T09:31:25Z</time>
      </trkpt>
      <trkpt lat="45.6871" lon="4.30736">
        <ele>462.4</ele>
        <time>2023-02-19T09:31:26Z</time>
      </trkpt>
      <trkpt lat="45.68712" lon="4.30737">
        <ele>462.5</ele>
        <time>2023-02-19T09:31:27Z</time>
      </trkpt>
      <trkpt lat="45.68713" lon="4.30739">
        <ele>462.6</ele>
        <time>2023-02-19T09:31:28Z</time>
      </trkpt>
      <trkpt lat="45.68714" lon="4.3074">
        <ele>462.7</ele>
        <time>2023-02-19T09:31:29Z</time>
      </trkpt>
      <trkpt lat="45.68715" lon="4.30742">
        <ele>462.8</ele>
        <time>2023-02-19T09:31:30Z</time>
      </trkpt>
      <trkpt lat="45.68717" lon="4.30745">
        <ele>462.9</ele>
        <time>2023-02-19T09:31:31Z</time>
      </trkpt>
      <trkpt lat="45.68718" lon="4.30746">
        <ele>462.9</ele>
        <time>2023-02-19T09:31:33Z</time>
      </trkpt>
      <trkpt lat="45.68718" lon="4.30748">
        <ele>463</ele>
        <time>2023-02-19T09:31:34Z</time>
      </trkpt>
      <trkpt lat="45.68719" lon="4.30749">
        <ele>463</ele>
        <time>2023-02-19T09:31:35Z</time>
      </trkpt>
      <trkpt lat="45.68719" lon="4.3075">
        <ele>463.1</ele>
        <time>2023-02-19T09:31:36Z</time>
      </trkpt>
      <trkpt lat="45.6872" lon="4.30752">
        <ele>463.1</ele>
        <time>2023-02-19T09:31:37Z</time>
      </trkpt>
      <trkpt lat="45.6872" lon="4.30753">
        <ele>463.2</ele>
        <time>2023-02-19T09:31:38Z</time>
      </trkpt>
      <trkpt lat="45.68721" lon="4.30755">
        <ele>463.2</ele>
        <time>2023-02-19T09:31:39Z</time>
      </trkpt>
      <trkpt lat="45.68721" lon="4.30756">
        <ele>463.3</ele>
        <time>2023-02-19T09:31:40Z</time>
      </trkpt>
      <trkpt lat="45.68722" lon="4.30758">
        <ele>463.3</ele>
        <time>2023-02-19T09:31:41Z</time>
      </trkpt>
      <trkpt lat="45.68723" lon="4.3076">
        <ele>463.4</ele>
        <time>2023-02-19T09:31:43Z</time>
      </trkpt>
      <trkpt lat="45.68724" lon="4.30762">
        <ele>463.5</ele>
        <time>2023-02-19T09:31:44Z</time>
      </trkpt>
      <trkpt lat="45.68724" lon="4.30764">
        <ele>463.5</ele>
        <time>2023-02-19T09:31:45Z</time>
      </trkpt>
      <trkpt lat="45.68725" lon="4.30766">
        <ele>463.6</ele>
        <time>2023-02-19T09:31:46Z</time>
      </trkpt>
      <trkpt lat="45.68726" lon="4.30767">
        <ele>463.6</ele>
        <time>2023-02-19T09:31:47Z</time>
      </trkpt>
      <trkpt lat="45.68726" lon="4.30768">
        <ele>463.7</ele>
        <time>2023-02-19T09:31:48Z</time>
      </trkpt>
      <trkpt lat="45.68727" lon="4.30769">
        <ele>463.7</ele>
        <time>2023-02-19T09:31:49Z</time>
      </trkpt>
      <trkpt lat="45.68728" lon="4.30771">
        <ele>463.8</ele>
        <time>2023-02-19T09:31:50Z</time>
      </trkpt>
      <trkpt lat="45.68729" lon="4.30772">
        <ele>463.8</ele>
        <time>2023-02-19T09:31:52Z</time>
      </trkpt>
      <trkpt lat="45.6873" lon="4.30774">
        <ele>463.9</ele>
        <time>2023-02-19T09:31:53Z</time>
      </trkpt>
      <trkpt lat="45.68731" lon="4.30776">
        <ele>464</ele>
        <time>2023-02-19T09:31:54Z</time>
      </trkpt>
      <trkpt lat="45.68733" lon="4.30778">
        <ele>464</ele>
        <time>2023-02-19T09:31:56Z</time>
      </trkpt>
      <trkpt lat="45.68733" lon="4.30779">
        <ele>464.1</ele>
        <time>2023-02-19T09:31:57Z</time>
      </trkpt>
      <trkpt lat="45.68734" lon="4.3078">
        <ele>464.1</ele>
        <time>2023-02-19T09:31:58Z</time>
      </trkpt>
      <trkpt lat="45.68735" lon="4.30782">
        <ele>464.2</ele>
        <time>2023-02-19T09:31:59Z</time>
      </trkpt>
      <trkpt lat="45.68736" lon="4.30783">
        <ele>464.2</ele>
        <time>2023-02-19T09:32:00Z</time>
      </trkpt>
      <trkpt lat="45.68737" lon="4.30785">
        <ele>464.3</ele>
        <time>2023-02-19T09:32:01Z</time>
      </trkpt>
      <trkpt lat="45.68738" lon="4.30786">
        <ele>464.4</ele>
        <time>2023-02-19T09:32:02Z</time>
      </trkpt>
      <trkpt lat="45.68738" lon="4.30787">
        <ele>464.4</ele>
        <time>2023-02-19T09:32:04Z</time>
      </trkpt>
      <trkpt lat="45.68739" lon="4.30788">
        <ele>464.4</ele>
        <time>2023-02-19T09:32:05Z</time>
      </trkpt>
      <trkpt lat="45.68739" lon="4.30789">
        <ele>464.5</ele>
        <time>2023-02-19T09:32:06Z</time>
      </trkpt>
      <trkpt lat="45.6874" lon="4.3079">
        <ele>464.5</ele>
        <time>2023-02-19T09:32:07Z</time>
      </trkpt>
      <trkpt lat="45.6874" lon="4.30791">
        <ele>464.5</ele>
        <time>2023-02-19T09:32:08Z</time>
      </trkpt>
      <trkpt lat="45.68741" lon="4.30792">
        <ele>464.6</ele>
        <time>2023-02-19T09:32:09Z</time>
      </trkpt>
      <trkpt lat="45.68741" lon="4.30793">
        <ele>464.6</ele>
        <time>2023-02-19T09:32:10Z</time>
      </trkpt>
      <trkpt lat="45.68742" lon="4.30795">
        <ele>464.7</ele>
        <time>2023-02-19T09:32:11Z</time>
      </trkpt>
      <trkpt lat="45.68743" lon="4.30797">
        <ele>464.8</ele>
        <time>2023-02-19T09:32:13Z</time>
      </trkpt>
      <trkpt lat="45.68744" lon="4.30798">
        <ele>464.8</ele>
        <time>2023-02-19T09:32:14Z</time>
      </trkpt>
      <trkpt lat="45.68744" lon="4.30799">
        <ele>464.8</ele>
        <time>2023-02-19T09:32:15Z</time>
      </trkpt>
      <trkpt lat="45.68745" lon="4.308">
        <ele>464.9</ele>
        <time>2023-02-19T09:32:16Z</time>
      </trkpt>
      <trkpt lat="45.68746" lon="4.30803">
        <ele>465</ele>
        <time>2023-02-19T09:32:17Z</time>
      </trkpt>
      <trkpt lat="45.68747" lon="4.30805">
        <ele>465.1</ele>
        <time>2023-02-19T09:32:18Z</time>
      </trkpt>
      <trkpt lat="45.68749" lon="4.30808">
        <ele>465.3</ele>
        <time>2023-02-19T09:32:20Z</time>
      </trkpt>
      <trkpt lat="45.6875" lon="4.3081">
        <ele>465.4</ele>
        <time>2023-02-19T09:32:21Z</time>
      </trkpt>
      <trkpt lat="45.68751" lon="4.30812">
        <ele>465.5</ele>
        <time>2023-02-19T09:32:22Z</time>
      </trkpt>
      <trkpt lat="45.68751" lon="4.30814">
        <ele>465.6</ele>
        <time>2023-02-19T09:32:24Z</time>
      </trkpt>
      <trkpt lat="45.68752" lon="4.30816">
        <ele>465.7</ele>
        <time>2023-02-19T09:32:25Z</time>
      </trkpt>
      <trkpt lat="45.68752" lon="4.30818">
        <ele>465.8</ele>
        <time>2023-02-19T09:32:26Z</time>
      </trkpt>
      <trkpt lat="45.68753" lon="4.30822">
        <ele>466</ele>
        <time>2023-02-19T09:32:27Z</time>
      </trkpt>
      <trkpt lat="45.68754" lon="4.30824">
        <ele>466.1</ele>
        <time>2023-02-19T09:32:28Z</time>
      </trkpt>
      <trkpt lat="45.68755" lon="4.30828">
        <ele>466.3</ele>
        <time>2023-02-19T09:32:30Z</time>
      </trkpt>
      <trkpt lat="45.68755" lon="4.30829">
        <ele>466.3</ele>
        <time>2023-02-19T09:32:31Z</time>
      </trkpt>
      <trkpt lat="45.68757" lon="4.30833">
        <ele>466.5</ele>
        <time>2023-02-19T09:32:32Z</time>
      </trkpt>
      <trkpt lat="45.68758" lon="4.30834">
        <ele>466.6</ele>
        <time>2023-02-19T09:32:33Z</time>
      </trkpt>
      <trkpt lat="45.6876" lon="4.30837">
        <ele>466.8</ele>
        <time>2023-02-19T09:32:34Z</time>
      </trkpt>
      <trkpt lat="45.6876" lon="4.30838">
        <ele>466.8</ele>
        <time>2023-02-19T09:32:35Z</time>
      </trkpt>
      <trkpt lat="45.68761" lon="4.30839">
        <ele>466.9</ele>
        <time>2023-02-19T09:32:36Z</time>
      </trkpt>
      <trkpt lat="45.68762" lon="4.30841">
        <ele>467.1</ele>
        <time>2023-02-19T09:32:37Z</time>
      </trkpt>
      <trkpt lat="45.68763" lon="4.30843">
        <ele>467.2</ele>
        <time>2023-02-19T09:32:39Z</time>
      </trkpt>
      <trkpt lat="45.68764" lon="4.30845">
        <ele>467.3</ele>
        <time>2023-02-19T09:32:40Z</time>
      </trkpt>
      <trkpt lat="45.68765" lon="4.30848">
        <ele>467.4</ele>
        <time>2023-02-19T09:32:41Z</time>
      </trkpt>
      <trkpt lat="45.68766" lon="4.3085">
        <ele>467.5</ele>
        <time>2023-02-19T09:32:42Z</time>
      </trkpt>
      <trkpt lat="45.68767" lon="4.30852">
        <ele>467.6</ele>
        <time>2023-02-19T09:32:43Z</time>
      </trkpt>
      <trkpt lat="45.68767" lon="4.30853">
        <ele>467.7</ele>
        <time>2023-02-19T09:32:44Z</time>
      </trkpt>
      <trkpt lat="45.68768" lon="4.30855">
        <ele>467.9</ele>
        <time>2023-02-19T09:32:46Z</time>
      </trkpt>
      <trkpt lat="45.68769" lon="4.30857">
        <ele>468</ele>
        <time>2023-02-19T09:32:47Z</time>
      </trkpt>
      <trkpt lat="45.6877" lon="4.30859">
        <ele>468.1</ele>
        <time>2023-02-19T09:32:48Z</time>
      </trkpt>
      <trkpt lat="45.68771" lon="4.30861">
        <ele>468.2</ele>
        <time>2023-02-19T09:32:50Z</time>
      </trkpt>
      <trkpt lat="45.68771" lon="4.30862">
        <ele>468.3</ele>
        <time>2023-02-19T09:32:51Z</time>
      </trkpt>
      <trkpt lat="45.68772" lon="4.30863">
        <ele>468.4</ele>
        <time>2023-02-19T09:32:52Z</time>
      </trkpt>
      <trkpt lat="45.68772" lon="4.30863">
        <ele>468.4</ele>
        <time>2023-02-19T09:32:53Z</time>
      </trkpt>
      <trkpt lat="45.68773" lon="4.30863">
        <ele>468.4</ele>
        <time>2023-02-19T09:32:54Z</time>
      </trkpt>
      <trkpt lat="45.68773" lon="4.30864">
        <ele>468.5</ele>
        <time>2023-02-19T09:32:55Z</time>
      </trkpt>
      <trkpt lat="45.68774" lon="4.30865">
        <ele>468.6</ele>
        <time>2023-02-19T09:32:56Z</time>
      </trkpt>
      <trkpt lat="45.68775" lon="4.30866">
        <ele>468.7</ele>
        <time>2023-02-19T09:32:58Z</time>
      </trkpt>
      <trkpt lat="45.68776" lon="4.30867">
        <ele>468.8</ele>
        <time>2023-02-19T09:32:59Z</time>
      </trkpt>
      <trkpt lat="45.68776" lon="4.30868">
        <ele>468.9</ele>
        <time>2023-02-19T09:33:00Z</time>
      </trkpt>
      <trkpt lat="45.68777" lon="4.30869">
        <ele>469.1</ele>
        <time>2023-02-19T09:33:01Z</time>
      </trkpt>
      <trkpt lat="45.68777" lon="4.3087">
        <ele>469.2</ele>
        <time>2023-02-19T09:33:02Z</time>
      </trkpt>
      <trkpt lat="45.68778" lon="4.30871">
        <ele>469.3</ele>
        <time>2023-02-19T09:33:03Z</time>
      </trkpt>
      <trkpt lat="45.68779" lon="4.30872">
        <ele>469.9</ele>
        <time>2023-02-19T09:33:04Z</time>
      </trkpt>
      <trkpt lat="45.68779" lon="4.30872">
        <ele>470</ele>
        <time>2023-02-19T09:33:06Z</time>
      </trkpt>
      <trkpt lat="45.6878" lon="4.30872">
        <ele>470.1</ele>
        <time>2023-02-19T09:33:07Z</time>
      </trkpt>
      <trkpt lat="45.68781" lon="4.30873">
        <ele>470.2</ele>
        <time>2023-02-19T09:33:08Z</time>
      </trkpt>
      <trkpt lat="45.68781" lon="4.30874">
        <ele>470.2</ele>
        <time>2023-02-19T09:33:09Z</time>
      </trkpt>
      <trkpt lat="45.68782" lon="4.30874">
        <ele>470.3</ele>
        <time>2023-02-19T09:33:10Z</time>
      </trkpt>
      <trkpt lat="45.68783" lon="4.30875">
        <ele>470.5</ele>
        <time>2023-02-19T09:33:11Z</time>
      </trkpt>
      <trkpt lat="45.68785" lon="4.30877">
        <ele>470.7</ele>
        <time>2023-02-19T09:33:12Z</time>
      </trkpt>
      <trkpt lat="45.68786" lon="4.30878">
        <ele>470.8</ele>
        <time>2023-02-19T09:33:13Z</time>
      </trkpt>
      <trkpt lat="45.68786" lon="4.30879">
        <ele>470.9</ele>
        <time>2023-02-19T09:33:14Z</time>
      </trkpt>
      <trkpt lat="45.68787" lon="4.30881">
        <ele>471</ele>
        <time>2023-02-19T09:33:15Z</time>
      </trkpt>
      <trkpt lat="45.68788" lon="4.30883">
        <ele>471.2</ele>
        <time>2023-02-19T09:33:17Z</time>
      </trkpt>
      <trkpt lat="45.68789" lon="4.30885">
        <ele>471.3</ele>
        <time>2023-02-19T09:33:18Z</time>
      </trkpt>
      <trkpt lat="45.6879" lon="4.30887">
        <ele>471.4</ele>
        <time>2023-02-19T09:33:19Z</time>
      </trkpt>
      <trkpt lat="45.68791" lon="4.30888">
        <ele>471.5</ele>
        <time>2023-02-19T09:33:20Z</time>
      </trkpt>
      <trkpt lat="45.68792" lon="4.3089">
        <ele>471.7</ele>
        <time>2023-02-19T09:33:21Z</time>
      </trkpt>
      <trkpt lat="45.68793" lon="4.30892">
        <ele>471.8</ele>
        <time>2023-02-19T09:33:22Z</time>
      </trkpt>
      <trkpt lat="45.68794" lon="4.30893">
        <ele>471.9</ele>
        <time>2023-02-19T09:33:23Z</time>
      </trkpt>
      <trkpt lat="45.68796" lon="4.30894">
        <ele>472</ele>
        <time>2023-02-19T09:33:24Z</time>
      </trkpt>
      <trkpt lat="45.68798" lon="4.30896">
        <ele>472.1</ele>
        <time>2023-02-19T09:33:26Z</time>
      </trkpt>
      <trkpt lat="45.68799" lon="4.30897">
        <ele>472.2</ele>
        <time>2023-02-19T09:33:28Z</time>
      </trkpt>
      <trkpt lat="45.688" lon="4.30897">
        <ele>472.3</ele>
        <time>2023-02-19T09:33:29Z</time>
      </trkpt>
      <trkpt lat="45.68802" lon="4.30897">
        <ele>472.4</ele>
        <time>2023-02-19T09:33:30Z</time>
      </trkpt>
      <trkpt lat="45.68803" lon="4.30897">
        <ele>472.5</ele>
        <time>2023-02-19T09:33:31Z</time>
      </trkpt>
      <trkpt lat="45.68804" lon="4.30897">
        <ele>472.5</ele>
        <time>2023-02-19T09:33:32Z</time>
      </trkpt>
      <trkpt lat="45.68805" lon="4.30897">
        <ele>472.6</ele>
        <time>2023-02-19T09:33:33Z</time>
      </trkpt>
      <trkpt lat="45.68807" lon="4.30896">
        <ele>472.7</ele>
        <time>2023-02-19T09:33:34Z</time>
      </trkpt>
      <trkpt lat="45.68809" lon="4.30895">
        <ele>472.9</ele>
        <time>2023-02-19T09:33:35Z</time>
      </trkpt>
      <trkpt lat="45.6881" lon="4.30894">
        <ele>473</ele>
        <time>2023-02-19T09:33:37Z</time>
      </trkpt>
      <trkpt lat="45.68811" lon="4.30894">
        <ele>473.1</ele>
        <time>2023-02-19T09:33:38Z</time>
      </trkpt>
      <trkpt lat="45.68812" lon="4.30894">
        <ele>473.1</ele>
        <time>2023-02-19T09:33:39Z</time>
      </trkpt>
      <trkpt lat="45.68813" lon="4.30893">
        <ele>473.2</ele>
        <time>2023-02-19T09:33:40Z</time>
      </trkpt>
      <trkpt lat="45.68814" lon="4.30894">
        <ele>473.3</ele>
        <time>2023-02-19T09:33:41Z</time>
      </trkpt>
      <trkpt lat="45.68816" lon="4.30894">
        <ele>473.4</ele>
        <time>2023-02-19T09:33:42Z</time>
      </trkpt>
      <trkpt lat="45.68817" lon="4.30895">
        <ele>473.5</ele>
        <time>2023-02-19T09:33:44Z</time>
      </trkpt>
      <trkpt lat="45.68818" lon="4.30895">
        <ele>473.5</ele>
        <time>2023-02-19T09:33:45Z</time>
      </trkpt>
      <trkpt lat="45.68819" lon="4.30895">
        <ele>473.6</ele>
        <time>2023-02-19T09:33:46Z</time>
      </trkpt>
      <trkpt lat="45.6882" lon="4.30896">
        <ele>473.7</ele>
        <time>2023-02-19T09:33:47Z</time>
      </trkpt>
      <trkpt lat="45.68821" lon="4.30897">
        <ele>473.8</ele>
        <time>2023-02-19T09:33:48Z</time>
      </trkpt>
      <trkpt lat="45.68822" lon="4.30898">
        <ele>473.8</ele>
        <time>2023-02-19T09:33:49Z</time>
      </trkpt>
      <trkpt lat="45.68823" lon="4.30898">
        <ele>473.9</ele>
        <time>2023-02-19T09:33:50Z</time>
      </trkpt>
      <trkpt lat="45.68824" lon="4.30899">
        <ele>473.9</ele>
        <time>2023-02-19T09:33:52Z</time>
      </trkpt>
      <trkpt lat="45.68825" lon="4.30899">
        <ele>474</ele>
        <time>2023-02-19T09:33:53Z</time>
      </trkpt>
      <trkpt lat="45.68826" lon="4.30899">
        <ele>474.1</ele>
        <time>2023-02-19T09:33:54Z</time>
      </trkpt>
      <trkpt lat="45.68828" lon="4.309">
        <ele>474.2</ele>
        <time>2023-02-19T09:33:55Z</time>
      </trkpt>
      <trkpt lat="45.68829" lon="4.309">
        <ele>474.2</ele>
        <time>2023-02-19T09:33:57Z</time>
      </trkpt>
      <trkpt lat="45.6883" lon="4.309">
        <ele>474.3</ele>
        <time>2023-02-19T09:33:58Z</time>
      </trkpt>
      <trkpt lat="45.68832" lon="4.30901">
        <ele>474.4</ele>
        <time>2023-02-19T09:33:59Z</time>
      </trkpt>
      <trkpt lat="45.68833" lon="4.30901">
        <ele>474.5</ele>
        <time>2023-02-19T09:34:00Z</time>
      </trkpt>
      <trkpt lat="45.68834" lon="4.30901">
        <ele>474.5</ele>
        <time>2023-02-19T09:34:01Z</time>
      </trkpt>
      <trkpt lat="45.68835" lon="4.30901">
        <ele>474.6</ele>
        <time>2023-02-19T09:34:02Z</time>
      </trkpt>
      <trkpt lat="45.68837" lon="4.30901">
        <ele>474.7</ele>
        <time>2023-02-19T09:34:03Z</time>
      </trkpt>
      <trkpt lat="45.68839" lon="4.309">
        <ele>474.9</ele>
        <time>2023-02-19T09:34:05Z</time>
      </trkpt>
      <trkpt lat="45.68841" lon="4.30901">
        <ele>475</ele>
        <time>2023-02-19T09:34:07Z</time>
      </trkpt>
      <trkpt lat="45.68843" lon="4.30901">
        <ele>475.1</ele>
        <time>2023-02-19T09:34:08Z</time>
      </trkpt>
      <trkpt lat="45.68844" lon="4.30902">
        <ele>475.2</ele>
        <time>2023-02-19T09:34:09Z</time>
      </trkpt>
      <trkpt lat="45.68845" lon="4.30903">
        <ele>475.3</ele>
        <time>2023-02-19T09:34:10Z</time>
      </trkpt>
      <trkpt lat="45.68846" lon="4.30904">
        <ele>475.3</ele>
        <time>2023-02-19T09:34:11Z</time>
      </trkpt>
      <trkpt lat="45.68846" lon="4.30905">
        <ele>475.4</ele>
        <time>2023-02-19T09:34:12Z</time>
      </trkpt>
      <trkpt lat="45.68847" lon="4.30907">
        <ele>475.5</ele>
        <time>2023-02-19T09:34:13Z</time>
      </trkpt>
      <trkpt lat="45.68847" lon="4.30908">
        <ele>476.3</ele>
        <time>2023-02-19T09:34:14Z</time>
      </trkpt>
      <trkpt lat="45.68847" lon="4.30909">
        <ele>476.3</ele>
        <time>2023-02-19T09:34:15Z</time>
      </trkpt>
      <trkpt lat="45.68847" lon="4.3091">
        <ele>476.3</ele>
        <time>2023-02-19T09:34:16Z</time>
      </trkpt>
      <trkpt lat="45.68847" lon="4.30912">
        <ele>476.3</ele>
        <time>2023-02-19T09:34:17Z</time>
      </trkpt>
      <trkpt lat="45.68847" lon="4.30913">
        <ele>476.3</ele>
        <time>2023-02-19T09:34:18Z</time>
      </trkpt>
      <trkpt lat="45.68846" lon="4.30914">
        <ele>476.3</ele>
        <time>2023-02-19T09:34:19Z</time>
      </trkpt>
      <trkpt lat="45.68846" lon="4.30915">
        <ele>476.3</ele>
        <time>2023-02-19T09:34:20Z</time>
      </trkpt>
      <trkpt lat="45.68845" lon="4.30916">
        <ele>476.3</ele>
        <time>2023-02-19T09:34:21Z</time>
      </trkpt>
      <trkpt lat="45.68845" lon="4.30918">
        <ele>476.3</ele>
        <time>2023-02-19T09:34:22Z</time>
      </trkpt>
      <trkpt lat="45.68843" lon="4.30919">
        <ele>476.3</ele>
        <time>2023-02-19T09:34:23Z</time>
      </trkpt>
      <trkpt lat="45.68842" lon="4.3092">
        <ele>476.3</ele>
        <time>2023-02-19T09:34:25Z</time>
      </trkpt>
      <trkpt lat="45.68842" lon="4.30921">
        <ele>476.3</ele>
        <time>2023-02-19T09:34:26Z</time>
      </trkpt>
      <trkpt lat="45.68841" lon="4.30922">
        <ele>476.3</ele>
        <time>2023-02-19T09:34:27Z</time>
      </trkpt>
      <trkpt lat="45.68839" lon="4.30923">
        <ele>476.3</ele>
        <time>2023-02-19T09:34:29Z</time>
      </trkpt>
      <trkpt lat="45.68839" lon="4.30924">
        <ele>476.3</ele>
        <time>2023-02-19T09:34:30Z</time>
      </trkpt>
      <trkpt lat="45.68839" lon="4.30924">
        <ele>476.3</ele>
        <time>2023-02-19T09:34:31Z</time>
      </trkpt>
      <trkpt lat="45.68839" lon="4.30924">
        <ele>476.3</ele>
        <time>2023-02-19T09:34:32Z</time>
      </trkpt>
      <trkpt lat="45.68839" lon="4.30923">
        <ele>476.3</ele>
        <time>2023-02-19T09:34:34Z</time>
      </trkpt>
      <trkpt lat="45.68839" lon="4.30923">
        <ele>476.3</ele>
        <time>2023-02-19T09:34:35Z</time>
      </trkpt>
      <trkpt lat="45.68839" lon="4.30923">
        <ele>476.3</ele>
        <time>2023-02-19T09:34:36Z</time>
      </trkpt>
      <trkpt lat="45.68839" lon="4.30923">
        <ele>476.3</ele>
        <time>2023-02-19T09:34:37Z</time>
      </trkpt>
      <trkpt lat="45.68839" lon="4.30923">
        <ele>476.3</ele>
        <time>2023-02-19T09:34:38Z</time>
      </trkpt>
      <trkpt lat="45.6884" lon="4.30923">
        <ele>476.3</ele>
        <time>2023-02-19T09:34:39Z</time>
      </trkpt>
      <trkpt lat="45.6884" lon="4.30922">
        <ele>476.3</ele>
        <time>2023-02-19T09:34:40Z</time>
      </trkpt>
      <trkpt lat="45.6884" lon="4.30922">
        <ele>476.3</ele>
        <time>2023-02-19T09:34:41Z</time>
      </trkpt>
      <trkpt lat="45.68839" lon="4.30923">
        <ele>476.3</ele>
        <time>2023-02-19T09:34:42Z</time>
      </trkpt>
      <trkpt lat="45.68839" lon="4.30923">
        <ele>476.3</ele>
        <time>2023-02-19T09:34:43Z</time>
      </trkpt>
      <trkpt lat="45.68838" lon="4.30923">
        <ele>476.3</ele>
        <time>2023-02-19T09:34:44Z</time>
      </trkpt>
      <trkpt lat="45.68837" lon="4.30924">
        <ele>476.3</ele>
        <time>2023-02-19T09:34:46Z</time>
      </trkpt>
      <trkpt lat="45.68836" lon="4.30925">
        <ele>476.3</ele>
        <time>2023-02-19T09:34:47Z</time>
      </trkpt>
      <trkpt lat="45.68835" lon="4.30926">
        <ele>476.3</ele>
        <time>2023-02-19T09:34:48Z</time>
      </trkpt>
      <trkpt lat="45.68833" lon="4.30927">
        <ele>476.3</ele>
        <time>2023-02-19T09:34:49Z</time>
      </trkpt>
      <trkpt lat="45.68831" lon="4.30928">
        <ele>476.3</ele>
        <time>2023-02-19T09:34:50Z</time>
      </trkpt>
      <trkpt lat="45.68829" lon="4.3093">
        <ele>476.3</ele>
        <time>2023-02-19T09:34:52Z</time>
      </trkpt>
      <trkpt lat="45.68828" lon="4.30931">
        <ele>476.4</ele>
        <time>2023-02-19T09:34:53Z</time>
      </trkpt>
      <trkpt lat="45.68827" lon="4.30932">
        <ele>476.4</ele>
        <time>2023-02-19T09:34:54Z</time>
      </trkpt>
      <trkpt lat="45.68825" lon="4.30934">
        <ele>476.4</ele>
        <time>2023-02-19T09:34:55Z</time>
      </trkpt>
      <trkpt lat="45.68824" lon="4.30935">
        <ele>476.4</ele>
        <time>2023-02-19T09:34:56Z</time>
      </trkpt>
      <trkpt lat="45.68824" lon="4.30936">
        <ele>476.4</ele>
        <time>2023-02-19T09:34:57Z</time>
      </trkpt>
      <trkpt lat="45.68822" lon="4.30937">
        <ele>476.4</ele>
        <time>2023-02-19T09:34:58Z</time>
      </trkpt>
      <trkpt lat="45.68821" lon="4.30938">
        <ele>476.5</ele>
        <time>2023-02-19T09:35:00Z</time>
      </trkpt>
      <trkpt lat="45.6882" lon="4.30939">
        <ele>476.5</ele>
        <time>2023-02-19T09:35:01Z</time>
      </trkpt>
      <trkpt lat="45.68819" lon="4.30941">
        <ele>476.5</ele>
        <time>2023-02-19T09:35:02Z</time>
      </trkpt>
      <trkpt lat="45.68818" lon="4.30943">
        <ele>476.5</ele>
        <time>2023-02-19T09:35:03Z</time>
      </trkpt>
      <trkpt lat="45.68817" lon="4.30944">
        <ele>476.6</ele>
        <time>2023-02-19T09:35:04Z</time>
      </trkpt>
      <trkpt lat="45.68815" lon="4.30946">
        <ele>476.6</ele>
        <time>2023-02-19T09:35:05Z</time>
      </trkpt>
      <trkpt lat="45.68814" lon="4.30947">
        <ele>476.6</ele>
        <time>2023-02-19T09:35:06Z</time>
      </trkpt>
      <trkpt lat="45.68813" lon="4.30949">
        <ele>476.7</ele>
        <time>2023-02-19T09:35:07Z</time>
      </trkpt>
      <trkpt lat="45.68811" lon="4.30951">
        <ele>476.8</ele>
        <time>2023-02-19T09:35:09Z</time>
      </trkpt>
      <trkpt lat="45.6881" lon="4.30953">
        <ele>476.8</ele>
        <time>2023-02-19T09:35:10Z</time>
      </trkpt>
      <trkpt lat="45.68809" lon="4.30954">
        <ele>476.9</ele>
        <time>2023-02-19T09:35:12Z</time>
      </trkpt>
      <trkpt lat="45.68808" lon="4.30955">
        <ele>476.9</ele>
        <time>2023-02-19T09:35:13Z</time>
      </trkpt>
      <trkpt lat="45.68806" lon="4.30957">
        <ele>477</ele>
        <time>2023-02-19T09:35:14Z</time>
      </trkpt>
      <trkpt lat="45.68805" lon="4.30958">
        <ele>477.1</ele>
        <time>2023-02-19T09:35:15Z</time>
      </trkpt>
      <trkpt lat="45.68803" lon="4.3096">
        <ele>477.1</ele>
        <time>2023-02-19T09:35:16Z</time>
      </trkpt>
      <trkpt lat="45.68802" lon="4.30961">
        <ele>477.2</ele>
        <time>2023-02-19T09:35:17Z</time>
      </trkpt>
      <trkpt lat="45.688" lon="4.30962">
        <ele>477.3</ele>
        <time>2023-02-19T09:35:18Z</time>
      </trkpt>
      <trkpt lat="45.68799" lon="4.30964">
        <ele>477.4</ele>
        <time>2023-02-19T09:35:19Z</time>
      </trkpt>
      <trkpt lat="45.68798" lon="4.30965">
        <ele>477.4</ele>
        <time>2023-02-19T09:35:20Z</time>
      </trkpt>
      <trkpt lat="45.68797" lon="4.30966">
        <ele>477.5</ele>
        <time>2023-02-19T09:35:21Z</time>
      </trkpt>
      <trkpt lat="45.68796" lon="4.30967">
        <ele>477.6</ele>
        <time>2023-02-19T09:35:22Z</time>
      </trkpt>
      <trkpt lat="45.68794" lon="4.30968">
        <ele>477.6</ele>
        <time>2023-02-19T09:35:24Z</time>
      </trkpt>
      <trkpt lat="45.68793" lon="4.3097">
        <ele>477.8</ele>
        <time>2023-02-19T09:35:25Z</time>
      </trkpt>
      <trkpt lat="45.68792" lon="4.3097">
        <ele>477.8</ele>
        <time>2023-02-19T09:35:26Z</time>
      </trkpt>
      <trkpt lat="45.68791" lon="4.30971">
        <ele>477.9</ele>
        <time>2023-02-19T09:35:27Z</time>
      </trkpt>
      <trkpt lat="45.6879" lon="4.30973">
        <ele>477.9</ele>
        <time>2023-02-19T09:35:28Z</time>
      </trkpt>
      <trkpt lat="45.68789" lon="4.30974">
        <ele>478</ele>
        <time>2023-02-19T09:35:29Z</time>
      </trkpt>
      <trkpt lat="45.68788" lon="4.30975">
        <ele>478.1</ele>
        <time>2023-02-19T09:35:30Z</time>
      </trkpt>
      <trkpt lat="45.68787" lon="4.30977">
        <ele>478.2</ele>
        <time>2023-02-19T09:35:31Z</time>
      </trkpt>
      <trkpt lat="45.68785" lon="4.30978">
        <ele>478.3</ele>
        <time>2023-02-19T09:35:33Z</time>
      </trkpt>
      <trkpt lat="45.68784" lon="4.30979">
        <ele>478.4</ele>
        <time>2023-02-19T09:35:34Z</time>
      </trkpt>
      <trkpt lat="45.68783" lon="4.30981">
        <ele>478.5</ele>
        <time>2023-02-19T09:35:35Z</time>
      </trkpt>
      <trkpt lat="45.68782" lon="4.30982">
        <ele>478.6</ele>
        <time>2023-02-19T09:35:36Z</time>
      </trkpt>
      <trkpt lat="45.6878" lon="4.30984">
        <ele>478.7</ele>
        <time>2023-02-19T09:35:37Z</time>
      </trkpt>
      <trkpt lat="45.68779" lon="4.30985">
        <ele>478.8</ele>
        <time>2023-02-19T09:35:38Z</time>
      </trkpt>
      <trkpt lat="45.68778" lon="4.30986">
        <ele>479</ele>
        <time>2023-02-19T09:35:39Z</time>
      </trkpt>
      <trkpt lat="45.68777" lon="4.30988">
        <ele>479.1</ele>
        <time>2023-02-19T09:35:40Z</time>
      </trkpt>
      <trkpt lat="45.68776" lon="4.30989">
        <ele>479.2</ele>
        <time>2023-02-19T09:35:41Z</time>
      </trkpt>
      <trkpt lat="45.68775" lon="4.30991">
        <ele>479.3</ele>
        <time>2023-02-19T09:35:43Z</time>
      </trkpt>
      <trkpt lat="45.68774" lon="4.30992">
        <ele>479.4</ele>
        <time>2023-02-19T09:35:44Z</time>
      </trkpt>
      <trkpt lat="45.68773" lon="4.30994">
        <ele>479.5</ele>
        <time>2023-02-19T09:35:45Z</time>
      </trkpt>
      <trkpt lat="45.68771" lon="4.30996">
        <ele>479.7</ele>
        <time>2023-02-19T09:35:46Z</time>
      </trkpt>
      <trkpt lat="45.68771" lon="4.30997">
        <ele>479.8</ele>
        <time>2023-02-19T09:35:47Z</time>
      </trkpt>
      <trkpt lat="45.6877" lon="4.30998">
        <ele>479.8</ele>
        <time>2023-02-19T09:35:48Z</time>
      </trkpt>
      <trkpt lat="45.6877" lon="4.30999">
        <ele>479.9</ele>
        <time>2023-02-19T09:35:49Z</time>
      </trkpt>
      <trkpt lat="45.68769" lon="4.31001">
        <ele>480</ele>
        <time>2023-02-19T09:35:50Z</time>
      </trkpt>
      <trkpt lat="45.68769" lon="4.31003">
        <ele>480.1</ele>
        <time>2023-02-19T09:35:51Z</time>
      </trkpt>
      <trkpt lat="45.68768" lon="4.31004">
        <ele>480.3</ele>
        <time>2023-02-19T09:35:52Z</time>
      </trkpt>
      <trkpt lat="45.68768" lon="4.31006">
        <ele>480.4</ele>
        <time>2023-02-19T09:35:53Z</time>
      </trkpt>
      <trkpt lat="45.68767" lon="4.31009">
        <ele>480.6</ele>
        <time>2023-02-19T09:35:55Z</time>
      </trkpt>
      <trkpt lat="45.68767" lon="4.31011">
        <ele>480.7</ele>
        <time>2023-02-19T09:35:56Z</time>
      </trkpt>
      <trkpt lat="45.68767" lon="4.31012">
        <ele>480.8</ele>
        <time>2023-02-19T09:35:57Z</time>
      </trkpt>
      <trkpt lat="45.68767" lon="4.31013">
        <ele>480.8</ele>
        <time>2023-02-19T09:35:58Z</time>
      </trkpt>
      <trkpt lat="45.68766" lon="4.31014">
        <ele>480.9</ele>
        <time>2023-02-19T09:35:59Z</time>
      </trkpt>
      <trkpt lat="45.68766" lon="4.31015">
        <ele>481</ele>
        <time>2023-02-19T09:36:01Z</time>
      </trkpt>
      <trkpt lat="45.68766" lon="4.31016">
        <ele>481</ele>
        <time>2023-02-19T09:36:02Z</time>
      </trkpt>
      <trkpt lat="45.68766" lon="4.31019">
        <ele>481.2</ele>
        <time>2023-02-19T09:36:03Z</time>
      </trkpt>
      <trkpt lat="45.68766" lon="4.3102">
        <ele>481.2</ele>
        <time>2023-02-19T09:36:04Z</time>
      </trkpt>
      <trkpt lat="45.68765" lon="4.31021">
        <ele>481.2</ele>
        <time>2023-02-19T09:36:05Z</time>
      </trkpt>
      <trkpt lat="45.68764" lon="4.31025">
        <ele>481.4</ele>
        <time>2023-02-19T09:36:07Z</time>
      </trkpt>
      <trkpt lat="45.68764" lon="4.31026">
        <ele>481.4</ele>
        <time>2023-02-19T09:36:08Z</time>
      </trkpt>
      <trkpt lat="45.68763" lon="4.31028">
        <ele>481.5</ele>
        <time>2023-02-19T09:36:09Z</time>
      </trkpt>
      <trkpt lat="45.68763" lon="4.31029">
        <ele>481.5</ele>
        <time>2023-02-19T09:36:10Z</time>
      </trkpt>
      <trkpt lat="45.68762" lon="4.3103">
        <ele>481.6</ele>
        <time>2023-02-19T09:36:11Z</time>
      </trkpt>
      <trkpt lat="45.68762" lon="4.31032">
        <ele>481.6</ele>
        <time>2023-02-19T09:36:12Z</time>
      </trkpt>
      <trkpt lat="45.68762" lon="4.31034">
        <ele>481.7</ele>
        <time>2023-02-19T09:36:14Z</time>
      </trkpt>
      <trkpt lat="45.68761" lon="4.31035">
        <ele>481.7</ele>
        <time>2023-02-19T09:36:15Z</time>
      </trkpt>
      <trkpt lat="45.68761" lon="4.31037">
        <ele>481.8</ele>
        <time>2023-02-19T09:36:16Z</time>
      </trkpt>
      <trkpt lat="45.68761" lon="4.31038">
        <ele>481.8</ele>
        <time>2023-02-19T09:36:17Z</time>
      </trkpt>
      <trkpt lat="45.68762" lon="4.3104">
        <ele>481.9</ele>
        <time>2023-02-19T09:36:18Z</time>
      </trkpt>
      <trkpt lat="45.68762" lon="4.31042">
        <ele>482</ele>
        <time>2023-02-19T09:36:20Z</time>
      </trkpt>
      <trkpt lat="45.68763" lon="4.31045">
        <ele>482.1</ele>
        <time>2023-02-19T09:36:21Z</time>
      </trkpt>
      <trkpt lat="45.68763" lon="4.31048">
        <ele>482.2</ele>
        <time>2023-02-19T09:36:23Z</time>
      </trkpt>
      <trkpt lat="45.68763" lon="4.31049">
        <ele>482.2</ele>
        <time>2023-02-19T09:36:24Z</time>
      </trkpt>
      <trkpt lat="45.68763" lon="4.3105">
        <ele>482.3</ele>
        <time>2023-02-19T09:36:25Z</time>
      </trkpt>
      <trkpt lat="45.68764" lon="4.31052">
        <ele>482.3</ele>
        <time>2023-02-19T09:36:26Z</time>
      </trkpt>
      <trkpt lat="45.68764" lon="4.31054">
        <ele>482.4</ele>
        <time>2023-02-19T09:36:27Z</time>
      </trkpt>
      <trkpt lat="45.68765" lon="4.31055">
        <ele>482.4</ele>
        <time>2023-02-19T09:36:28Z</time>
      </trkpt>
      <trkpt lat="45.68765" lon="4.31057">
        <ele>482.5</ele>
        <time>2023-02-19T09:36:30Z</time>
      </trkpt>
      <trkpt lat="45.68765" lon="4.31058">
        <ele>482.6</ele>
        <time>2023-02-19T09:36:31Z</time>
      </trkpt>
      <trkpt lat="45.68765" lon="4.3106">
        <ele>482.6</ele>
        <time>2023-02-19T09:36:32Z</time>
      </trkpt>
      <trkpt lat="45.68765" lon="4.31061">
        <ele>482.7</ele>
        <time>2023-02-19T09:36:33Z</time>
      </trkpt>
      <trkpt lat="45.68764" lon="4.31063">
        <ele>482.7</ele>
        <time>2023-02-19T09:36:34Z</time>
      </trkpt>
      <trkpt lat="45.68764" lon="4.31065">
        <ele>482.8</ele>
        <time>2023-02-19T09:36:36Z</time>
      </trkpt>
      <trkpt lat="45.68763" lon="4.31067">
        <ele>482.9</ele>
        <time>2023-02-19T09:36:37Z</time>
      </trkpt>
      <trkpt lat="45.68763" lon="4.31068">
        <ele>482.9</ele>
        <time>2023-02-19T09:36:38Z</time>
      </trkpt>
      <trkpt lat="45.68763" lon="4.3107">
        <ele>483</ele>
        <time>2023-02-19T09:36:39Z</time>
      </trkpt>
      <trkpt lat="45.68762" lon="4.31071">
        <ele>483</ele>
        <time>2023-02-19T09:36:40Z</time>
      </trkpt>
      <trkpt lat="45.68762" lon="4.31072">
        <ele>483</ele>
        <time>2023-02-19T09:36:41Z</time>
      </trkpt>
      <trkpt lat="45.68762" lon="4.31072">
        <ele>483.1</ele>
        <time>2023-02-19T09:36:42Z</time>
      </trkpt>
      <trkpt lat="45.68762" lon="4.31073">
        <ele>483.1</ele>
        <time>2023-02-19T09:36:43Z</time>
      </trkpt>
      <trkpt lat="45.68762" lon="4.31075">
        <ele>483.2</ele>
        <time>2023-02-19T09:36:44Z</time>
      </trkpt>
      <trkpt lat="45.68762" lon="4.31078">
        <ele>483.3</ele>
        <time>2023-02-19T09:36:45Z</time>
      </trkpt>
      <trkpt lat="45.68762" lon="4.31079">
        <ele>483.3</ele>
        <time>2023-02-19T09:36:47Z</time>
      </trkpt>
      <trkpt lat="45.68762" lon="4.3108">
        <ele>483.4</ele>
        <time>2023-02-19T09:36:48Z</time>
      </trkpt>
      <trkpt lat="45.68762" lon="4.31082">
        <ele>483.4</ele>
        <time>2023-02-19T09:36:49Z</time>
      </trkpt>
      <trkpt lat="45.68762" lon="4.31083">
        <ele>483.5</ele>
        <time>2023-02-19T09:36:50Z</time>
      </trkpt>
      <trkpt lat="45.68762" lon="4.31084">
        <ele>483.5</ele>
        <time>2023-02-19T09:36:51Z</time>
      </trkpt>
      <trkpt lat="45.68762" lon="4.31087">
        <ele>483.7</ele>
        <time>2023-02-19T09:36:52Z</time>
      </trkpt>
      <trkpt lat="45.68761" lon="4.31089">
        <ele>483.7</ele>
        <time>2023-02-19T09:36:53Z</time>
      </trkpt>
      <trkpt lat="45.68761" lon="4.3109">
        <ele>483.8</ele>
        <time>2023-02-19T09:36:54Z</time>
      </trkpt>
      <trkpt lat="45.68761" lon="4.31092">
        <ele>483.8</ele>
        <time>2023-02-19T09:36:55Z</time>
      </trkpt>
      <trkpt lat="45.68761" lon="4.31094">
        <ele>483.9</ele>
        <time>2023-02-19T09:36:56Z</time>
      </trkpt>
      <trkpt lat="45.68762" lon="4.31096">
        <ele>484</ele>
        <time>2023-02-19T09:36:58Z</time>
      </trkpt>
      <trkpt lat="45.68762" lon="4.31098">
        <ele>484.1</ele>
        <time>2023-02-19T09:36:59Z</time>
      </trkpt>
      <trkpt lat="45.68762" lon="4.311">
        <ele>484.2</ele>
        <time>2023-02-19T09:37:00Z</time>
      </trkpt>
      <trkpt lat="45.68763" lon="4.31102">
        <ele>484.2</ele>
        <time>2023-02-19T09:37:01Z</time>
      </trkpt>
      <trkpt lat="45.68763" lon="4.31105">
        <ele>484.3</ele>
        <time>2023-02-19T09:37:02Z</time>
      </trkpt>
      <trkpt lat="45.68763" lon="4.31107">
        <ele>484.4</ele>
        <time>2023-02-19T09:37:03Z</time>
      </trkpt>
      <trkpt lat="45.68763" lon="4.3111">
        <ele>484.5</ele>
        <time>2023-02-19T09:37:04Z</time>
      </trkpt>
      <trkpt lat="45.68763" lon="4.31111">
        <ele>484.6</ele>
        <time>2023-02-19T09:37:05Z</time>
      </trkpt>
      <trkpt lat="45.68763" lon="4.31112">
        <ele>484.6</ele>
        <time>2023-02-19T09:37:06Z</time>
      </trkpt>
      <trkpt lat="45.68763" lon="4.31115">
        <ele>484.7</ele>
        <time>2023-02-19T09:37:08Z</time>
      </trkpt>
      <trkpt lat="45.68763" lon="4.31116">
        <ele>484.8</ele>
        <time>2023-02-19T09:37:09Z</time>
      </trkpt>
      <trkpt lat="45.68763" lon="4.31118">
        <ele>484.8</ele>
        <time>2023-02-19T09:37:10Z</time>
      </trkpt>
      <trkpt lat="45.68763" lon="4.31121">
        <ele>485</ele>
        <time>2023-02-19T09:37:11Z</time>
      </trkpt>
      <trkpt lat="45.68764" lon="4.31122">
        <ele>485</ele>
        <time>2023-02-19T09:37:12Z</time>
      </trkpt>
      <trkpt lat="45.68764" lon="4.31123">
        <ele>485.1</ele>
        <time>2023-02-19T09:37:13Z</time>
      </trkpt>
      <trkpt lat="45.68764" lon="4.31126">
        <ele>485.1</ele>
        <time>2023-02-19T09:37:14Z</time>
      </trkpt>
      <trkpt lat="45.68765" lon="4.31128">
        <ele>485.3</ele>
        <time>2023-02-19T09:37:16Z</time>
      </trkpt>
      <trkpt lat="45.68765" lon="4.31131">
        <ele>485.3</ele>
        <time>2023-02-19T09:37:17Z</time>
      </trkpt>
      <trkpt lat="45.68764" lon="4.31133">
        <ele>485.4</ele>
        <time>2023-02-19T09:37:18Z</time>
      </trkpt>
      <trkpt lat="45.68764" lon="4.31135">
        <ele>485.5</ele>
        <time>2023-02-19T09:37:19Z</time>
      </trkpt>
      <trkpt lat="45.68764" lon="4.31138">
        <ele>485.6</ele>
        <time>2023-02-19T09:37:20Z</time>
      </trkpt>
      <trkpt lat="45.68763" lon="4.3114">
        <ele>485.7</ele>
        <time>2023-02-19T09:37:21Z</time>
      </trkpt>
      <trkpt lat="45.68763" lon="4.31142">
        <ele>485.8</ele>
        <time>2023-02-19T09:37:22Z</time>
      </trkpt>
      <trkpt lat="45.68762" lon="4.31144">
        <ele>485.9</ele>
        <time>2023-02-19T09:37:23Z</time>
      </trkpt>
      <trkpt lat="45.68762" lon="4.31147">
        <ele>486</ele>
        <time>2023-02-19T09:37:24Z</time>
      </trkpt>
      <trkpt lat="45.68761" lon="4.31149">
        <ele>486.1</ele>
        <time>2023-02-19T09:37:26Z</time>
      </trkpt>
      <trkpt lat="45.68762" lon="4.31151">
        <ele>486.1</ele>
        <time>2023-02-19T09:37:27Z</time>
      </trkpt>
      <trkpt lat="45.68762" lon="4.31153">
        <ele>486.2</ele>
        <time>2023-02-19T09:37:28Z</time>
      </trkpt>
      <trkpt lat="45.68763" lon="4.31155">
        <ele>486.3</ele>
        <time>2023-02-19T09:37:29Z</time>
      </trkpt>
      <trkpt lat="45.68763" lon="4.31157">
        <ele>486.4</ele>
        <time>2023-02-19T09:37:30Z</time>
      </trkpt>
      <trkpt lat="45.68764" lon="4.31159">
        <ele>486.5</ele>
        <time>2023-02-19T09:37:31Z</time>
      </trkpt>
      <trkpt lat="45.68764" lon="4.3116">
        <ele>486.5</ele>
        <time>2023-02-19T09:37:32Z</time>
      </trkpt>
      <trkpt lat="45.68764" lon="4.31162">
        <ele>486.6</ele>
        <time>2023-02-19T09:37:33Z</time>
      </trkpt>
      <trkpt lat="45.68765" lon="4.31164">
        <ele>486.7</ele>
        <time>2023-02-19T09:37:35Z</time>
      </trkpt>
      <trkpt lat="45.68765" lon="4.31166">
        <ele>486.8</ele>
        <time>2023-02-19T09:37:36Z</time>
      </trkpt>
      <trkpt lat="45.68766" lon="4.31168">
        <ele>486.8</ele>
        <time>2023-02-19T09:37:37Z</time>
      </trkpt>
      <trkpt lat="45.68767" lon="4.31171">
        <ele>486.9</ele>
        <time>2023-02-19T09:37:38Z</time>
      </trkpt>
      <trkpt lat="45.68767" lon="4.31172">
        <ele>487</ele>
        <time>2023-02-19T09:37:39Z</time>
      </trkpt>
      <trkpt lat="45.68767" lon="4.31173">
        <ele>487</ele>
        <time>2023-02-19T09:37:40Z</time>
      </trkpt>
      <trkpt lat="45.68768" lon="4.31175">
        <ele>487.1</ele>
        <time>2023-02-19T09:37:41Z</time>
      </trkpt>
      <trkpt lat="45.68768" lon="4.31177">
        <ele>487.2</ele>
        <time>2023-02-19T09:37:42Z</time>
      </trkpt>
      <trkpt lat="45.68769" lon="4.31179">
        <ele>487.2</ele>
        <time>2023-02-19T09:37:43Z</time>
      </trkpt>
      <trkpt lat="45.68769" lon="4.31181">
        <ele>487.3</ele>
        <time>2023-02-19T09:37:45Z</time>
      </trkpt>
      <trkpt lat="45.68769" lon="4.31183">
        <ele>487.4</ele>
        <time>2023-02-19T09:37:46Z</time>
      </trkpt>
      <trkpt lat="45.68769" lon="4.31185">
        <ele>487.4</ele>
        <time>2023-02-19T09:37:47Z</time>
      </trkpt>
      <trkpt lat="45.68769" lon="4.31188">
        <ele>487.5</ele>
        <time>2023-02-19T09:37:48Z</time>
      </trkpt>
      <trkpt lat="45.6877" lon="4.3119">
        <ele>487.6</ele>
        <time>2023-02-19T09:37:49Z</time>
      </trkpt>
      <trkpt lat="45.6877" lon="4.31192">
        <ele>487.6</ele>
        <time>2023-02-19T09:37:50Z</time>
      </trkpt>
      <trkpt lat="45.68769" lon="4.31195">
        <ele>487.7</ele>
        <time>2023-02-19T09:37:51Z</time>
      </trkpt>
      <trkpt lat="45.68769" lon="4.31197">
        <ele>487.8</ele>
        <time>2023-02-19T09:37:52Z</time>
      </trkpt>
      <trkpt lat="45.6877" lon="4.31199">
        <ele>487.8</ele>
        <time>2023-02-19T09:37:53Z</time>
      </trkpt>
      <trkpt lat="45.6877" lon="4.31201">
        <ele>487.9</ele>
        <time>2023-02-19T09:37:55Z</time>
      </trkpt>
      <trkpt lat="45.6877" lon="4.31203">
        <ele>487.9</ele>
        <time>2023-02-19T09:37:56Z</time>
      </trkpt>
      <trkpt lat="45.6877" lon="4.31206">
        <ele>488</ele>
        <time>2023-02-19T09:37:57Z</time>
      </trkpt>
      <trkpt lat="45.68771" lon="4.31207">
        <ele>488</ele>
        <time>2023-02-19T09:37:58Z</time>
      </trkpt>
      <trkpt lat="45.68771" lon="4.31208">
        <ele>488.1</ele>
        <time>2023-02-19T09:37:59Z</time>
      </trkpt>
      <trkpt lat="45.68771" lon="4.3121">
        <ele>488.1</ele>
        <time>2023-02-19T09:38:00Z</time>
      </trkpt>
      <trkpt lat="45.68772" lon="4.31212">
        <ele>488.1</ele>
        <time>2023-02-19T09:38:01Z</time>
      </trkpt>
      <trkpt lat="45.68773" lon="4.31213">
        <ele>488.2</ele>
        <time>2023-02-19T09:38:02Z</time>
      </trkpt>
      <trkpt lat="45.68774" lon="4.31215">
        <ele>488.2</ele>
        <time>2023-02-19T09:38:03Z</time>
      </trkpt>
      <trkpt lat="45.68776" lon="4.31219">
        <ele>488.3</ele>
        <time>2023-02-19T09:38:05Z</time>
      </trkpt>
      <trkpt lat="45.68776" lon="4.3122">
        <ele>488.4</ele>
        <time>2023-02-19T09:38:06Z</time>
      </trkpt>
      <trkpt lat="45.68777" lon="4.31222">
        <ele>488.4</ele>
        <time>2023-02-19T09:38:08Z</time>
      </trkpt>
      <trkpt lat="45.68778" lon="4.31223">
        <ele>488.4</ele>
        <time>2023-02-19T09:38:09Z</time>
      </trkpt>
      <trkpt lat="45.68779" lon="4.31225">
        <ele>488.5</ele>
        <time>2023-02-19T09:38:10Z</time>
      </trkpt>
      <trkpt lat="45.6878" lon="4.31227">
        <ele>488.5</ele>
        <time>2023-02-19T09:38:11Z</time>
      </trkpt>
      <trkpt lat="45.68781" lon="4.31229">
        <ele>488.6</ele>
        <time>2023-02-19T09:38:12Z</time>
      </trkpt>
      <trkpt lat="45.68781" lon="4.31231">
        <ele>488.6</ele>
        <time>2023-02-19T09:38:13Z</time>
      </trkpt>
      <trkpt lat="45.68783" lon="4.31234">
        <ele>488.7</ele>
        <time>2023-02-19T09:38:14Z</time>
      </trkpt>
      <trkpt lat="45.68783" lon="4.31235">
        <ele>488.7</ele>
        <time>2023-02-19T09:38:15Z</time>
      </trkpt>
      <trkpt lat="45.68783" lon="4.31236">
        <ele>488.7</ele>
        <time>2023-02-19T09:38:16Z</time>
      </trkpt>
      <trkpt lat="45.68784" lon="4.31237">
        <ele>488.7</ele>
        <time>2023-02-19T09:38:17Z</time>
      </trkpt>
      <trkpt lat="45.68785" lon="4.31238">
        <ele>488.8</ele>
        <time>2023-02-19T09:38:19Z</time>
      </trkpt>
      <trkpt lat="45.68785" lon="4.3124">
        <ele>488.8</ele>
        <time>2023-02-19T09:38:20Z</time>
      </trkpt>
      <trkpt lat="45.68786" lon="4.31243">
        <ele>488.9</ele>
        <time>2023-02-19T09:38:21Z</time>
      </trkpt>
      <trkpt lat="45.68787" lon="4.31244">
        <ele>488.9</ele>
        <time>2023-02-19T09:38:22Z</time>
      </trkpt>
      <trkpt lat="45.68787" lon="4.31245">
        <ele>488.9</ele>
        <time>2023-02-19T09:38:23Z</time>
      </trkpt>
      <trkpt lat="45.68788" lon="4.31247">
        <ele>489</ele>
        <time>2023-02-19T09:38:24Z</time>
      </trkpt>
      <trkpt lat="45.68789" lon="4.31249">
        <ele>489</ele>
        <time>2023-02-19T09:38:25Z</time>
      </trkpt>
      <trkpt lat="45.68791" lon="4.31252">
        <ele>489.1</ele>
        <time>2023-02-19T09:38:27Z</time>
      </trkpt>
      <trkpt lat="45.68791" lon="4.31253">
        <ele>489.1</ele>
        <time>2023-02-19T09:38:28Z</time>
      </trkpt>
      <trkpt lat="45.68793" lon="4.31255">
        <ele>489.2</ele>
        <time>2023-02-19T09:38:29Z</time>
      </trkpt>
      <trkpt lat="45.68793" lon="4.31257">
        <ele>489.2</ele>
        <time>2023-02-19T09:38:30Z</time>
      </trkpt>
      <trkpt lat="45.68794" lon="4.31259">
        <ele>489.3</ele>
        <time>2023-02-19T09:38:31Z</time>
      </trkpt>
      <trkpt lat="45.68795" lon="4.31261">
        <ele>489.3</ele>
        <time>2023-02-19T09:38:32Z</time>
      </trkpt>
      <trkpt lat="45.68796" lon="4.31263">
        <ele>489.3</ele>
        <time>2023-02-19T09:38:34Z</time>
      </trkpt>
      <trkpt lat="45.68796" lon="4.31265">
        <ele>489.3</ele>
        <time>2023-02-19T09:38:35Z</time>
      </trkpt>
      <trkpt lat="45.68797" lon="4.31267">
        <ele>489.4</ele>
        <time>2023-02-19T09:38:36Z</time>
      </trkpt>
      <trkpt lat="45.68797" lon="4.31269">
        <ele>489.4</ele>
        <time>2023-02-19T09:38:37Z</time>
      </trkpt>
      <trkpt lat="45.68797" lon="4.31271">
        <ele>489.4</ele>
        <time>2023-02-19T09:38:38Z</time>
      </trkpt>
      <trkpt lat="45.68797" lon="4.31273">
        <ele>489.4</ele>
        <time>2023-02-19T09:38:39Z</time>
      </trkpt>
      <trkpt lat="45.68798" lon="4.31278">
        <ele>489.5</ele>
        <time>2023-02-19T09:38:41Z</time>
      </trkpt>
      <trkpt lat="45.68798" lon="4.31279">
        <ele>489.5</ele>
        <time>2023-02-19T09:38:42Z</time>
      </trkpt>
      <trkpt lat="45.68798" lon="4.31281">
        <ele>489.5</ele>
        <time>2023-02-19T09:38:43Z</time>
      </trkpt>
      <trkpt lat="45.68799" lon="4.31283">
        <ele>489.5</ele>
        <time>2023-02-19T09:38:44Z</time>
      </trkpt>
      <trkpt lat="45.68799" lon="4.31285">
        <ele>489.6</ele>
        <time>2023-02-19T09:38:45Z</time>
      </trkpt>
      <trkpt lat="45.688" lon="4.31287">
        <ele>489.6</ele>
        <time>2023-02-19T09:38:46Z</time>
      </trkpt>
      <trkpt lat="45.688" lon="4.31289">
        <ele>489.7</ele>
        <time>2023-02-19T09:38:47Z</time>
      </trkpt>
      <trkpt lat="45.68801" lon="4.3129">
        <ele>489.7</ele>
        <time>2023-02-19T09:38:49Z</time>
      </trkpt>
      <trkpt lat="45.68802" lon="4.31292">
        <ele>489.7</ele>
        <time>2023-02-19T09:38:50Z</time>
      </trkpt>
      <trkpt lat="45.68803" lon="4.31294">
        <ele>489.8</ele>
        <time>2023-02-19T09:38:51Z</time>
      </trkpt>
      <trkpt lat="45.68804" lon="4.31296">
        <ele>489.8</ele>
        <time>2023-02-19T09:38:52Z</time>
      </trkpt>
      <trkpt lat="45.68805" lon="4.31298">
        <ele>489.9</ele>
        <time>2023-02-19T09:38:53Z</time>
      </trkpt>
      <trkpt lat="45.68805" lon="4.31299">
        <ele>489.9</ele>
        <time>2023-02-19T09:38:54Z</time>
      </trkpt>
      <trkpt lat="45.68806" lon="4.31302">
        <ele>490</ele>
        <time>2023-02-19T09:38:55Z</time>
      </trkpt>
      <trkpt lat="45.68806" lon="4.31304">
        <ele>490.1</ele>
        <time>2023-02-19T09:38:56Z</time>
      </trkpt>
      <trkpt lat="45.68807" lon="4.31307">
        <ele>490.2</ele>
        <time>2023-02-19T09:38:58Z</time>
      </trkpt>
      <trkpt lat="45.68808" lon="4.31309">
        <ele>490.2</ele>
        <time>2023-02-19T09:38:59Z</time>
      </trkpt>
      <trkpt lat="45.68808" lon="4.31311">
        <ele>490.3</ele>
        <time>2023-02-19T09:39:00Z</time>
      </trkpt>
      <trkpt lat="45.68809" lon="4.31314">
        <ele>490.4</ele>
        <time>2023-02-19T09:39:01Z</time>
      </trkpt>
      <trkpt lat="45.6881" lon="4.31317">
        <ele>490.5</ele>
        <time>2023-02-19T09:39:03Z</time>
      </trkpt>
      <trkpt lat="45.68811" lon="4.3132">
        <ele>490.6</ele>
        <time>2023-02-19T09:39:04Z</time>
      </trkpt>
      <trkpt lat="45.68812" lon="4.31322">
        <ele>490.7</ele>
        <time>2023-02-19T09:39:05Z</time>
      </trkpt>
      <trkpt lat="45.68812" lon="4.31324">
        <ele>490.8</ele>
        <time>2023-02-19T09:39:06Z</time>
      </trkpt>
      <trkpt lat="45.68813" lon="4.31326">
        <ele>490.9</ele>
        <time>2023-02-19T09:39:07Z</time>
      </trkpt>
      <trkpt lat="45.68813" lon="4.31329">
        <ele>491</ele>
        <time>2023-02-19T09:39:08Z</time>
      </trkpt>
      <trkpt lat="45.68814" lon="4.31331">
        <ele>491</ele>
        <time>2023-02-19T09:39:09Z</time>
      </trkpt>
      <trkpt lat="45.68814" lon="4.31333">
        <ele>491.1</ele>
        <time>2023-02-19T09:39:11Z</time>
      </trkpt>
      <trkpt lat="45.68814" lon="4.31335">
        <ele>491.2</ele>
        <time>2023-02-19T09:39:12Z</time>
      </trkpt>
      <trkpt lat="45.68814" lon="4.31337">
        <ele>491.3</ele>
        <time>2023-02-19T09:39:13Z</time>
      </trkpt>
      <trkpt lat="45.68814" lon="4.31339">
        <ele>491.4</ele>
        <time>2023-02-19T09:39:14Z</time>
      </trkpt>
      <trkpt lat="45.68814" lon="4.31341">
        <ele>491.4</ele>
        <time>2023-02-19T09:39:15Z</time>
      </trkpt>
      <trkpt lat="45.68814" lon="4.31343">
        <ele>491.5</ele>
        <time>2023-02-19T09:39:16Z</time>
      </trkpt>
      <trkpt lat="45.68813" lon="4.31345">
        <ele>491.6</ele>
        <time>2023-02-19T09:39:17Z</time>
      </trkpt>
      <trkpt lat="45.68813" lon="4.31347">
        <ele>491.7</ele>
        <time>2023-02-19T09:39:18Z</time>
      </trkpt>
      <trkpt lat="45.68813" lon="4.31348">
        <ele>491.7</ele>
        <time>2023-02-19T09:39:19Z</time>
      </trkpt>
      <trkpt lat="45.68813" lon="4.3135">
        <ele>491.8</ele>
        <time>2023-02-19T09:39:21Z</time>
      </trkpt>
      <trkpt lat="45.68812" lon="4.31352">
        <ele>491.9</ele>
        <time>2023-02-19T09:39:22Z</time>
      </trkpt>
      <trkpt lat="45.68812" lon="4.31354">
        <ele>492</ele>
        <time>2023-02-19T09:39:23Z</time>
      </trkpt>
      <trkpt lat="45.68812" lon="4.31356">
        <ele>492.1</ele>
        <time>2023-02-19T09:39:24Z</time>
      </trkpt>
      <trkpt lat="45.68811" lon="4.31358">
        <ele>492.1</ele>
        <time>2023-02-19T09:39:25Z</time>
      </trkpt>
      <trkpt lat="45.68811" lon="4.3136">
        <ele>492.2</ele>
        <time>2023-02-19T09:39:26Z</time>
      </trkpt>
      <trkpt lat="45.68812" lon="4.31361">
        <ele>492.3</ele>
        <time>2023-02-19T09:39:27Z</time>
      </trkpt>
      <trkpt lat="45.68813" lon="4.31363">
        <ele>492.4</ele>
        <time>2023-02-19T09:39:29Z</time>
      </trkpt>
      <trkpt lat="45.68813" lon="4.31364">
        <ele>492.4</ele>
        <time>2023-02-19T09:39:30Z</time>
      </trkpt>
      <trkpt lat="45.68814" lon="4.31365">
        <ele>492.5</ele>
        <time>2023-02-19T09:39:31Z</time>
      </trkpt>
      <trkpt lat="45.68815" lon="4.31366">
        <ele>492.5</ele>
        <time>2023-02-19T09:39:32Z</time>
      </trkpt>
      <trkpt lat="45.68817" lon="4.31367">
        <ele>492.6</ele>
        <time>2023-02-19T09:39:33Z</time>
      </trkpt>
      <trkpt lat="45.68818" lon="4.31368">
        <ele>492.7</ele>
        <time>2023-02-19T09:39:35Z</time>
      </trkpt>
      <trkpt lat="45.68819" lon="4.31369">
        <ele>492.7</ele>
        <time>2023-02-19T09:39:36Z</time>
      </trkpt>
      <trkpt lat="45.6882" lon="4.3137">
        <ele>492.8</ele>
        <time>2023-02-19T09:39:37Z</time>
      </trkpt>
      <trkpt lat="45.68821" lon="4.31371">
        <ele>492.9</ele>
        <time>2023-02-19T09:39:38Z</time>
      </trkpt>
      <trkpt lat="45.68823" lon="4.31372">
        <ele>493</ele>
        <time>2023-02-19T09:39:39Z</time>
      </trkpt>
      <trkpt lat="45.68824" lon="4.31374">
        <ele>493.1</ele>
        <time>2023-02-19T09:39:40Z</time>
      </trkpt>
      <trkpt lat="45.68825" lon="4.31375">
        <ele>493.1</ele>
        <time>2023-02-19T09:39:41Z</time>
      </trkpt>
      <trkpt lat="45.68826" lon="4.31376">
        <ele>493.2</ele>
        <time>2023-02-19T09:39:42Z</time>
      </trkpt>
      <trkpt lat="45.68827" lon="4.31377">
        <ele>493.3</ele>
        <time>2023-02-19T09:39:43Z</time>
      </trkpt>
      <trkpt lat="45.68828" lon="4.31379">
        <ele>493.3</ele>
        <time>2023-02-19T09:39:44Z</time>
      </trkpt>
      <trkpt lat="45.6883" lon="4.31381">
        <ele>493.4</ele>
        <time>2023-02-19T09:39:46Z</time>
      </trkpt>
      <trkpt lat="45.68831" lon="4.31383">
        <ele>493.5</ele>
        <time>2023-02-19T09:39:47Z</time>
      </trkpt>
      <trkpt lat="45.68831" lon="4.31384">
        <ele>493.6</ele>
        <time>2023-02-19T09:39:48Z</time>
      </trkpt>
      <trkpt lat="45.68832" lon="4.31385">
        <ele>493.6</ele>
        <time>2023-02-19T09:39:49Z</time>
      </trkpt>
      <trkpt lat="45.68832" lon="4.31387">
        <ele>493.7</ele>
        <time>2023-02-19T09:39:50Z</time>
      </trkpt>
      <trkpt lat="45.68833" lon="4.31389">
        <ele>493.8</ele>
        <time>2023-02-19T09:39:51Z</time>
      </trkpt>
      <trkpt lat="45.68833" lon="4.31391">
        <ele>493.8</ele>
        <time>2023-02-19T09:39:53Z</time>
      </trkpt>
      <trkpt lat="45.68834" lon="4.31393">
        <ele>493.9</ele>
        <time>2023-02-19T09:39:54Z</time>
      </trkpt>
      <trkpt lat="45.68835" lon="4.31396">
        <ele>494</ele>
        <time>2023-02-19T09:39:55Z</time>
      </trkpt>
      <trkpt lat="45.68835" lon="4.31397">
        <ele>494</ele>
        <time>2023-02-19T09:39:56Z</time>
      </trkpt>
      <trkpt lat="45.68836" lon="4.31398">
        <ele>494.1</ele>
        <time>2023-02-19T09:39:57Z</time>
      </trkpt>
      <trkpt lat="45.68837" lon="4.31399">
        <ele>494.1</ele>
        <time>2023-02-19T09:39:58Z</time>
      </trkpt>
      <trkpt lat="45.68838" lon="4.31401">
        <ele>494.2</ele>
        <time>2023-02-19T09:39:59Z</time>
      </trkpt>
      <trkpt lat="45.6884" lon="4.31401">
        <ele>494.3</ele>
        <time>2023-02-19T09:40:00Z</time>
      </trkpt>
      <trkpt lat="45.68842" lon="4.31404">
        <ele>494.4</ele>
        <time>2023-02-19T09:40:02Z</time>
      </trkpt>
      <trkpt lat="45.68843" lon="4.31405">
        <ele>494.5</ele>
        <time>2023-02-19T09:40:03Z</time>
      </trkpt>
      <trkpt lat="45.68845" lon="4.31407">
        <ele>494.6</ele>
        <time>2023-02-19T09:40:04Z</time>
      </trkpt>
      <trkpt lat="45.68846" lon="4.31408">
        <ele>494.6</ele>
        <time>2023-02-19T09:40:05Z</time>
      </trkpt>
      <trkpt lat="45.68847" lon="4.3141">
        <ele>494.7</ele>
        <time>2023-02-19T09:40:06Z</time>
      </trkpt>
      <trkpt lat="45.68848" lon="4.31412">
        <ele>494.8</ele>
        <time>2023-02-19T09:40:08Z</time>
      </trkpt>
      <trkpt lat="45.6885" lon="4.31414">
        <ele>494.8</ele>
        <time>2023-02-19T09:40:09Z</time>
      </trkpt>
      <trkpt lat="45.6885" lon="4.31415">
        <ele>494.9</ele>
        <time>2023-02-19T09:40:10Z</time>
      </trkpt>
      <trkpt lat="45.68852" lon="4.31418">
        <ele>495</ele>
        <time>2023-02-19T09:40:11Z</time>
      </trkpt>
      <trkpt lat="45.68853" lon="4.31419">
        <ele>495</ele>
        <time>2023-02-19T09:40:12Z</time>
      </trkpt>
      <trkpt lat="45.68853" lon="4.31421">
        <ele>495.1</ele>
        <time>2023-02-19T09:40:13Z</time>
      </trkpt>
      <trkpt lat="45.68855" lon="4.31425">
        <ele>495.2</ele>
        <time>2023-02-19T09:40:15Z</time>
      </trkpt>
      <trkpt lat="45.68856" lon="4.31426">
        <ele>495.2</ele>
        <time>2023-02-19T09:40:16Z</time>
      </trkpt>
      <trkpt lat="45.68856" lon="4.31428">
        <ele>495.3</ele>
        <time>2023-02-19T09:40:17Z</time>
      </trkpt>
      <trkpt lat="45.68857" lon="4.3143">
        <ele>495.3</ele>
        <time>2023-02-19T09:40:18Z</time>
      </trkpt>
      <trkpt lat="45.68858" lon="4.31432">
        <ele>495.3</ele>
        <time>2023-02-19T09:40:19Z</time>
      </trkpt>
      <trkpt lat="45.68858" lon="4.31434">
        <ele>495.4</ele>
        <time>2023-02-19T09:40:20Z</time>
      </trkpt>
      <trkpt lat="45.68859" lon="4.31436">
        <ele>495.4</ele>
        <time>2023-02-19T09:40:21Z</time>
      </trkpt>
      <trkpt lat="45.6886" lon="4.31438">
        <ele>495.5</ele>
        <time>2023-02-19T09:40:22Z</time>
      </trkpt>
      <trkpt lat="45.6886" lon="4.3144">
        <ele>495.5</ele>
        <time>2023-02-19T09:40:23Z</time>
      </trkpt>
      <trkpt lat="45.68861" lon="4.31442">
        <ele>495.5</ele>
        <time>2023-02-19T09:40:24Z</time>
      </trkpt>
      <trkpt lat="45.68862" lon="4.31445">
        <ele>495.6</ele>
        <time>2023-02-19T09:40:25Z</time>
      </trkpt>
      <trkpt lat="45.68863" lon="4.31447">
        <ele>495.6</ele>
        <time>2023-02-19T09:40:27Z</time>
      </trkpt>
      <trkpt lat="45.68863" lon="4.31449">
        <ele>495.7</ele>
        <time>2023-02-19T09:40:28Z</time>
      </trkpt>
      <trkpt lat="45.68864" lon="4.31451">
        <ele>495.7</ele>
        <time>2023-02-19T09:40:29Z</time>
      </trkpt>
      <trkpt lat="45.68865" lon="4.31453">
        <ele>495.8</ele>
        <time>2023-02-19T09:40:30Z</time>
      </trkpt>
      <trkpt lat="45.68865" lon="4.31456">
        <ele>495.8</ele>
        <time>2023-02-19T09:40:31Z</time>
      </trkpt>
      <trkpt lat="45.68866" lon="4.31459">
        <ele>495.9</ele>
        <time>2023-02-19T09:40:33Z</time>
      </trkpt>
      <trkpt lat="45.68866" lon="4.31461">
        <ele>495.9</ele>
        <time>2023-02-19T09:40:34Z</time>
      </trkpt>
      <trkpt lat="45.68867" lon="4.31463">
        <ele>496</ele>
        <time>2023-02-19T09:40:35Z</time>
      </trkpt>
      <trkpt lat="45.68867" lon="4.31465">
        <ele>496</ele>
        <time>2023-02-19T09:40:36Z</time>
      </trkpt>
      <trkpt lat="45.68867" lon="4.31467">
        <ele>496.1</ele>
        <time>2023-02-19T09:40:37Z</time>
      </trkpt>
      <trkpt lat="45.68867" lon="4.3147">
        <ele>496.1</ele>
        <time>2023-02-19T09:40:38Z</time>
      </trkpt>
      <trkpt lat="45.68868" lon="4.31472">
        <ele>496.2</ele>
        <time>2023-02-19T09:40:40Z</time>
      </trkpt>
      <trkpt lat="45.68868" lon="4.31474">
        <ele>496.3</ele>
        <time>2023-02-19T09:40:41Z</time>
      </trkpt>
      <trkpt lat="45.68868" lon="4.31477">
        <ele>496.3</ele>
        <time>2023-02-19T09:40:42Z</time>
      </trkpt>
      <trkpt lat="45.68869" lon="4.31479">
        <ele>496.4</ele>
        <time>2023-02-19T09:40:43Z</time>
      </trkpt>
      <trkpt lat="45.68869" lon="4.31482">
        <ele>496.5</ele>
        <time>2023-02-19T09:40:44Z</time>
      </trkpt>
      <trkpt lat="45.6887" lon="4.31484">
        <ele>496.6</ele>
        <time>2023-02-19T09:40:45Z</time>
      </trkpt>
      <trkpt lat="45.6887" lon="4.31487">
        <ele>496.7</ele>
        <time>2023-02-19T09:40:46Z</time>
      </trkpt>
      <trkpt lat="45.68871" lon="4.3149">
        <ele>496.8</ele>
        <time>2023-02-19T09:40:47Z</time>
      </trkpt>
      <trkpt lat="45.68872" lon="4.31492">
        <ele>496.9</ele>
        <time>2023-02-19T09:40:48Z</time>
      </trkpt>
      <trkpt lat="45.68873" lon="4.31494">
        <ele>497</ele>
        <time>2023-02-19T09:40:49Z</time>
      </trkpt>
      <trkpt lat="45.68873" lon="4.31497">
        <ele>497.1</ele>
        <time>2023-02-19T09:40:51Z</time>
      </trkpt>
      <trkpt lat="45.68874" lon="4.31501">
        <ele>497.3</ele>
        <time>2023-02-19T09:40:52Z</time>
      </trkpt>
      <trkpt lat="45.68874" lon="4.31502">
        <ele>497.3</ele>
        <time>2023-02-19T09:40:53Z</time>
      </trkpt>
      <trkpt lat="45.68874" lon="4.31505">
        <ele>497.4</ele>
        <time>2023-02-19T09:40:54Z</time>
      </trkpt>
      <trkpt lat="45.68874" lon="4.31507">
        <ele>497.5</ele>
        <time>2023-02-19T09:40:55Z</time>
      </trkpt>
      <trkpt lat="45.68874" lon="4.31511">
        <ele>497.7</ele>
        <time>2023-02-19T09:40:56Z</time>
      </trkpt>
      <trkpt lat="45.68874" lon="4.31513">
        <ele>497.8</ele>
        <time>2023-02-19T09:40:57Z</time>
      </trkpt>
      <trkpt lat="45.68874" lon="4.31516">
        <ele>498</ele>
        <time>2023-02-19T09:40:58Z</time>
      </trkpt>
      <trkpt lat="45.68874" lon="4.31518">
        <ele>498</ele>
        <time>2023-02-19T09:40:59Z</time>
      </trkpt>
      <trkpt lat="45.68874" lon="4.31521">
        <ele>498.2</ele>
        <time>2023-02-19T09:41:00Z</time>
      </trkpt>
      <trkpt lat="45.68874" lon="4.31523">
        <ele>498.3</ele>
        <time>2023-02-19T09:41:02Z</time>
      </trkpt>
      <trkpt lat="45.68874" lon="4.31525">
        <ele>498.3</ele>
        <time>2023-02-19T09:41:03Z</time>
      </trkpt>
      <trkpt lat="45.68874" lon="4.31526">
        <ele>498.4</ele>
        <time>2023-02-19T09:41:04Z</time>
      </trkpt>
      <trkpt lat="45.68874" lon="4.31528">
        <ele>498.5</ele>
        <time>2023-02-19T09:41:05Z</time>
      </trkpt>
      <trkpt lat="45.68874" lon="4.31529">
        <ele>498.6</ele>
        <time>2023-02-19T09:41:06Z</time>
      </trkpt>
      <trkpt lat="45.68875" lon="4.31533">
        <ele>498.8</ele>
        <time>2023-02-19T09:41:08Z</time>
      </trkpt>
      <trkpt lat="45.68875" lon="4.31535">
        <ele>498.9</ele>
        <time>2023-02-19T09:41:09Z</time>
      </trkpt>
      <trkpt lat="45.68875" lon="4.31537">
        <ele>499</ele>
        <time>2023-02-19T09:41:10Z</time>
      </trkpt>
      <trkpt lat="45.68875" lon="4.3154">
        <ele>499.1</ele>
        <time>2023-02-19T09:41:11Z</time>
      </trkpt>
      <trkpt lat="45.68876" lon="4.31541">
        <ele>499.2</ele>
        <time>2023-02-19T09:41:13Z</time>
      </trkpt>
      <trkpt lat="45.68876" lon="4.31542">
        <ele>499.3</ele>
        <time>2023-02-19T09:41:14Z</time>
      </trkpt>
      <trkpt lat="45.68876" lon="4.31544">
        <ele>499.4</ele>
        <time>2023-02-19T09:41:15Z</time>
      </trkpt>
      <trkpt lat="45.68877" lon="4.31546">
        <ele>499.5</ele>
        <time>2023-02-19T09:41:16Z</time>
      </trkpt>
      <trkpt lat="45.68878" lon="4.31548">
        <ele>499.6</ele>
        <time>2023-02-19T09:41:17Z</time>
      </trkpt>
      <trkpt lat="45.68879" lon="4.31549">
        <ele>499.7</ele>
        <time>2023-02-19T09:41:18Z</time>
      </trkpt>
      <trkpt lat="45.6888" lon="4.31551">
        <ele>499.9</ele>
        <time>2023-02-19T09:41:19Z</time>
      </trkpt>
      <trkpt lat="45.68881" lon="4.31552">
        <ele>500</ele>
        <time>2023-02-19T09:41:20Z</time>
      </trkpt>
      <trkpt lat="45.68882" lon="4.31554">
        <ele>500.1</ele>
        <time>2023-02-19T09:41:21Z</time>
      </trkpt>
      <trkpt lat="45.68883" lon="4.31555">
        <ele>500.2</ele>
        <time>2023-02-19T09:41:23Z</time>
      </trkpt>
      <trkpt lat="45.68884" lon="4.31555">
        <ele>500.4</ele>
        <time>2023-02-19T09:41:24Z</time>
      </trkpt>
      <trkpt lat="45.68885" lon="4.31557">
        <ele>500.5</ele>
        <time>2023-02-19T09:41:25Z</time>
      </trkpt>
      <trkpt lat="45.68886" lon="4.31558">
        <ele>500.5</ele>
        <time>2023-02-19T09:41:26Z</time>
      </trkpt>
      <trkpt lat="45.68886" lon="4.31559">
        <ele>500.6</ele>
        <time>2023-02-19T09:41:27Z</time>
      </trkpt>
      <trkpt lat="45.68887" lon="4.31561">
        <ele>500.7</ele>
        <time>2023-02-19T09:41:28Z</time>
      </trkpt>
      <trkpt lat="45.68888" lon="4.31562">
        <ele>500.7</ele>
        <time>2023-02-19T09:41:29Z</time>
      </trkpt>
      <trkpt lat="45.68888" lon="4.31564">
        <ele>500.8</ele>
        <time>2023-02-19T09:41:30Z</time>
      </trkpt>
      <trkpt lat="45.68889" lon="4.31565">
        <ele>500.9</ele>
        <time>2023-02-19T09:41:31Z</time>
      </trkpt>
      <trkpt lat="45.68889" lon="4.31566">
        <ele>500.9</ele>
        <time>2023-02-19T09:41:33Z</time>
      </trkpt>
      <trkpt lat="45.68889" lon="4.31567">
        <ele>501</ele>
        <time>2023-02-19T09:41:34Z</time>
      </trkpt>
      <trkpt lat="45.6889" lon="4.31568">
        <ele>501</ele>
        <time>2023-02-19T09:41:35Z</time>
      </trkpt>
      <trkpt lat="45.6889" lon="4.31569">
        <ele>501.1</ele>
        <time>2023-02-19T09:41:36Z</time>
      </trkpt>
      <trkpt lat="45.68891" lon="4.3157">
        <ele>501.1</ele>
        <time>2023-02-19T09:41:37Z</time>
      </trkpt>
      <trkpt lat="45.68891" lon="4.31572">
        <ele>501.2</ele>
        <time>2023-02-19T09:41:38Z</time>
      </trkpt>
      <trkpt lat="45.68892" lon="4.31575">
        <ele>501.3</ele>
        <time>2023-02-19T09:41:39Z</time>
      </trkpt>
      <trkpt lat="45.68893" lon="4.31576">
        <ele>501.4</ele>
        <time>2023-02-19T09:41:40Z</time>
      </trkpt>
      <trkpt lat="45.68893" lon="4.31577">
        <ele>501.4</ele>
        <time>2023-02-19T09:41:41Z</time>
      </trkpt>
      <trkpt lat="45.68894" lon="4.31579">
        <ele>501.5</ele>
        <time>2023-02-19T09:41:43Z</time>
      </trkpt>
      <trkpt lat="45.68895" lon="4.3158">
        <ele>501.6</ele>
        <time>2023-02-19T09:41:44Z</time>
      </trkpt>
      <trkpt lat="45.68895" lon="4.31582">
        <ele>501.7</ele>
        <time>2023-02-19T09:41:45Z</time>
      </trkpt>
      <trkpt lat="45.68896" lon="4.31584">
        <ele>501.8</ele>
        <time>2023-02-19T09:41:46Z</time>
      </trkpt>
      <trkpt lat="45.68897" lon="4.31587">
        <ele>501.9</ele>
        <time>2023-02-19T09:41:47Z</time>
      </trkpt>
      <trkpt lat="45.68898" lon="4.31588">
        <ele>502</ele>
        <time>2023-02-19T09:41:48Z</time>
      </trkpt>
      <trkpt lat="45.68898" lon="4.31589">
        <ele>502</ele>
        <time>2023-02-19T09:41:49Z</time>
      </trkpt>
      <trkpt lat="45.68899" lon="4.31591">
        <ele>502.1</ele>
        <time>2023-02-19T09:41:50Z</time>
      </trkpt>
      <trkpt lat="45.68899" lon="4.31592">
        <ele>502.1</ele>
        <time>2023-02-19T09:41:51Z</time>
      </trkpt>
      <trkpt lat="45.689" lon="4.31594">
        <ele>502.2</ele>
        <time>2023-02-19T09:41:52Z</time>
      </trkpt>
      <trkpt lat="45.68901" lon="4.31597">
        <ele>502.3</ele>
        <time>2023-02-19T09:41:53Z</time>
      </trkpt>
      <trkpt lat="45.68901" lon="4.31598">
        <ele>502.4</ele>
        <time>2023-02-19T09:41:55Z</time>
      </trkpt>
      <trkpt lat="45.68902" lon="4.31599">
        <ele>502.4</ele>
        <time>2023-02-19T09:41:56Z</time>
      </trkpt>
      <trkpt lat="45.68902" lon="4.316">
        <ele>502.5</ele>
        <time>2023-02-19T09:41:57Z</time>
      </trkpt>
      <trkpt lat="45.68903" lon="4.31602">
        <ele>502.5</ele>
        <time>2023-02-19T09:41:58Z</time>
      </trkpt>
      <trkpt lat="45.68904" lon="4.31604">
        <ele>502.6</ele>
        <time>2023-02-19T09:41:59Z</time>
      </trkpt>
      <trkpt lat="45.68905" lon="4.31605">
        <ele>502.6</ele>
        <time>2023-02-19T09:42:00Z</time>
      </trkpt>
      <trkpt lat="45.68906" lon="4.31607">
        <ele>502.7</ele>
        <time>2023-02-19T09:42:01Z</time>
      </trkpt>
      <trkpt lat="45.68907" lon="4.31608">
        <ele>502.7</ele>
        <time>2023-02-19T09:42:02Z</time>
      </trkpt>
      <trkpt lat="45.68908" lon="4.3161">
        <ele>502.8</ele>
        <time>2023-02-19T09:42:03Z</time>
      </trkpt>
      <trkpt lat="45.68909" lon="4.31611">
        <ele>502.8</ele>
        <time>2023-02-19T09:42:04Z</time>
      </trkpt>
      <trkpt lat="45.6891" lon="4.31612">
        <ele>502.9</ele>
        <time>2023-02-19T09:42:05Z</time>
      </trkpt>
      <trkpt lat="45.68911" lon="4.31614">
        <ele>502.9</ele>
        <time>2023-02-19T09:42:06Z</time>
      </trkpt>
      <trkpt lat="45.68912" lon="4.31615">
        <ele>502.9</ele>
        <time>2023-02-19T09:42:08Z</time>
      </trkpt>
      <trkpt lat="45.68913" lon="4.31617">
        <ele>503</ele>
        <time>2023-02-19T09:42:09Z</time>
      </trkpt>
      <trkpt lat="45.68914" lon="4.31618">
        <ele>503</ele>
        <time>2023-02-19T09:42:10Z</time>
      </trkpt>
      <trkpt lat="45.68915" lon="4.31619">
        <ele>503.1</ele>
        <time>2023-02-19T09:42:11Z</time>
      </trkpt>
      <trkpt lat="45.68916" lon="4.31621">
        <ele>503.1</ele>
        <time>2023-02-19T09:42:12Z</time>
      </trkpt>
      <trkpt lat="45.68917" lon="4.31622">
        <ele>503.1</ele>
        <time>2023-02-19T09:42:13Z</time>
      </trkpt>
      <trkpt lat="45.68918" lon="4.31624">
        <ele>503.2</ele>
        <time>2023-02-19T09:42:14Z</time>
      </trkpt>
      <trkpt lat="45.68919" lon="4.31626">
        <ele>503.2</ele>
        <time>2023-02-19T09:42:15Z</time>
      </trkpt>
      <trkpt lat="45.6892" lon="4.31627">
        <ele>503.2</ele>
        <time>2023-02-19T09:42:16Z</time>
      </trkpt>
      <trkpt lat="45.6892" lon="4.31629">
        <ele>503.3</ele>
        <time>2023-02-19T09:42:17Z</time>
      </trkpt>
      <trkpt lat="45.68921" lon="4.31631">
        <ele>503.3</ele>
        <time>2023-02-19T09:42:18Z</time>
      </trkpt>
      <trkpt lat="45.68922" lon="4.31633">
        <ele>503.3</ele>
        <time>2023-02-19T09:42:19Z</time>
      </trkpt>
      <trkpt lat="45.68923" lon="4.31634">
        <ele>503.4</ele>
        <time>2023-02-19T09:42:21Z</time>
      </trkpt>
      <trkpt lat="45.68923" lon="4.31635">
        <ele>503.4</ele>
        <time>2023-02-19T09:42:22Z</time>
      </trkpt>
      <trkpt lat="45.68924" lon="4.31638">
        <ele>503.4</ele>
        <time>2023-02-19T09:42:23Z</time>
      </trkpt>
      <trkpt lat="45.68924" lon="4.31639">
        <ele>503.4</ele>
        <time>2023-02-19T09:42:24Z</time>
      </trkpt>
      <trkpt lat="45.68925" lon="4.3164">
        <ele>503.5</ele>
        <time>2023-02-19T09:42:25Z</time>
      </trkpt>
      <trkpt lat="45.68925" lon="4.31642">
        <ele>503.5</ele>
        <time>2023-02-19T09:42:26Z</time>
      </trkpt>
      <trkpt lat="45.68926" lon="4.31643">
        <ele>503.5</ele>
        <time>2023-02-19T09:42:27Z</time>
      </trkpt>
      <trkpt lat="45.68927" lon="4.31645">
        <ele>503.5</ele>
        <time>2023-02-19T09:42:28Z</time>
      </trkpt>
      <trkpt lat="45.68927" lon="4.31646">
        <ele>503.6</ele>
        <time>2023-02-19T09:42:29Z</time>
      </trkpt>
      <trkpt lat="45.68928" lon="4.31648">
        <ele>503.6</ele>
        <time>2023-02-19T09:42:30Z</time>
      </trkpt>
      <trkpt lat="45.68929" lon="4.3165">
        <ele>503.6</ele>
        <time>2023-02-19T09:42:31Z</time>
      </trkpt>
      <trkpt lat="45.6893" lon="4.31652">
        <ele>503.7</ele>
        <time>2023-02-19T09:42:33Z</time>
      </trkpt>
      <trkpt lat="45.68931" lon="4.31653">
        <ele>503.7</ele>
        <time>2023-02-19T09:42:34Z</time>
      </trkpt>
      <trkpt lat="45.68932" lon="4.31655">
        <ele>503.7</ele>
        <time>2023-02-19T09:42:35Z</time>
      </trkpt>
      <trkpt lat="45.68933" lon="4.31657">
        <ele>503.8</ele>
        <time>2023-02-19T09:42:36Z</time>
      </trkpt>
      <trkpt lat="45.68934" lon="4.31658">
        <ele>503.8</ele>
        <time>2023-02-19T09:42:37Z</time>
      </trkpt>
      <trkpt lat="45.68935" lon="4.3166">
        <ele>503.9</ele>
        <time>2023-02-19T09:42:38Z</time>
      </trkpt>
      <trkpt lat="45.68936" lon="4.31662">
        <ele>503.9</ele>
        <time>2023-02-19T09:42:39Z</time>
      </trkpt>
      <trkpt lat="45.68937" lon="4.31663">
        <ele>503.9</ele>
        <time>2023-02-19T09:42:40Z</time>
      </trkpt>
      <trkpt lat="45.68939" lon="4.31665">
        <ele>504</ele>
        <time>2023-02-19T09:42:42Z</time>
      </trkpt>
      <trkpt lat="45.6894" lon="4.31667">
        <ele>504</ele>
        <time>2023-02-19T09:42:43Z</time>
      </trkpt>
      <trkpt lat="45.68941" lon="4.31668">
        <ele>504.1</ele>
        <time>2023-02-19T09:42:44Z</time>
      </trkpt>
      <trkpt lat="45.68943" lon="4.31669">
        <ele>504.1</ele>
        <time>2023-02-19T09:42:45Z</time>
      </trkpt>
      <trkpt lat="45.68944" lon="4.31671">
        <ele>504.2</ele>
        <time>2023-02-19T09:42:47Z</time>
      </trkpt>
      <trkpt lat="45.68946" lon="4.31672">
        <ele>504.2</ele>
        <time>2023-02-19T09:42:48Z</time>
      </trkpt>
      <trkpt lat="45.68947" lon="4.31674">
        <ele>504.3</ele>
        <time>2023-02-19T09:42:49Z</time>
      </trkpt>
      <trkpt lat="45.68948" lon="4.31675">
        <ele>504.3</ele>
        <time>2023-02-19T09:42:50Z</time>
      </trkpt>
      <trkpt lat="45.68949" lon="4.31677">
        <ele>504.3</ele>
        <time>2023-02-19T09:42:51Z</time>
      </trkpt>
      <trkpt lat="45.6895" lon="4.31678">
        <ele>504.4</ele>
        <time>2023-02-19T09:42:52Z</time>
      </trkpt>
      <trkpt lat="45.68951" lon="4.3168">
        <ele>504.4</ele>
        <time>2023-02-19T09:42:53Z</time>
      </trkpt>
      <trkpt lat="45.68952" lon="4.31682">
        <ele>504.4</ele>
        <time>2023-02-19T09:42:54Z</time>
      </trkpt>
      <trkpt lat="45.68953" lon="4.31683">
        <ele>504.4</ele>
        <time>2023-02-19T09:42:55Z</time>
      </trkpt>
      <trkpt lat="45.68955" lon="4.31685">
        <ele>504.5</ele>
        <time>2023-02-19T09:42:57Z</time>
      </trkpt>
      <trkpt lat="45.68956" lon="4.31686">
        <ele>504.5</ele>
        <time>2023-02-19T09:42:58Z</time>
      </trkpt>
      <trkpt lat="45.68956" lon="4.31688">
        <ele>504.5</ele>
        <time>2023-02-19T09:42:59Z</time>
      </trkpt>
      <trkpt lat="45.68957" lon="4.3169">
        <ele>504.5</ele>
        <time>2023-02-19T09:43:00Z</time>
      </trkpt>
      <trkpt lat="45.68958" lon="4.31692">
        <ele>504.5</ele>
        <time>2023-02-19T09:43:01Z</time>
      </trkpt>
      <trkpt lat="45.68959" lon="4.31694">
        <ele>504.5</ele>
        <time>2023-02-19T09:43:03Z</time>
      </trkpt>
      <trkpt lat="45.6896" lon="4.31696">
        <ele>504.5</ele>
        <time>2023-02-19T09:43:04Z</time>
      </trkpt>
      <trkpt lat="45.6896" lon="4.31697">
        <ele>504.5</ele>
        <time>2023-02-19T09:43:05Z</time>
      </trkpt>
      <trkpt lat="45.6896" lon="4.31698">
        <ele>504.6</ele>
        <time>2023-02-19T09:43:06Z</time>
      </trkpt>
      <trkpt lat="45.6896" lon="4.317">
        <ele>504.6</ele>
        <time>2023-02-19T09:43:07Z</time>
      </trkpt>
      <trkpt lat="45.6896" lon="4.31702">
        <ele>504.6</ele>
        <time>2023-02-19T09:43:08Z</time>
      </trkpt>
      <trkpt lat="45.68959" lon="4.31704">
        <ele>504.6</ele>
        <time>2023-02-19T09:43:10Z</time>
      </trkpt>
      <trkpt lat="45.68959" lon="4.31705">
        <ele>504.6</ele>
        <time>2023-02-19T09:43:11Z</time>
      </trkpt>
      <trkpt lat="45.68959" lon="4.31707">
        <ele>504.6</ele>
        <time>2023-02-19T09:43:12Z</time>
      </trkpt>
      <trkpt lat="45.68958" lon="4.3171">
        <ele>504.6</ele>
        <time>2023-02-19T09:43:13Z</time>
      </trkpt>
      <trkpt lat="45.68958" lon="4.31712">
        <ele>504.6</ele>
        <time>2023-02-19T09:43:14Z</time>
      </trkpt>
      <trkpt lat="45.68958" lon="4.31715">
        <ele>504.6</ele>
        <time>2023-02-19T09:43:15Z</time>
      </trkpt>
      <trkpt lat="45.68958" lon="4.31717">
        <ele>504.6</ele>
        <time>2023-02-19T09:43:16Z</time>
      </trkpt>
      <trkpt lat="45.68958" lon="4.31719">
        <ele>504.5</ele>
        <time>2023-02-19T09:43:17Z</time>
      </trkpt>
      <trkpt lat="45.68957" lon="4.31722">
        <ele>504.5</ele>
        <time>2023-02-19T09:43:19Z</time>
      </trkpt>
      <trkpt lat="45.68956" lon="4.31723">
        <ele>504.3</ele>
        <time>2023-02-19T09:43:20Z</time>
      </trkpt>
      <trkpt lat="45.68955" lon="4.31725">
        <ele>503.3</ele>
        <time>2023-02-19T09:43:21Z</time>
      </trkpt>
      <trkpt lat="45.68953" lon="4.31726">
        <ele>503.3</ele>
        <time>2023-02-19T09:43:23Z</time>
      </trkpt>
      <trkpt lat="45.68952" lon="4.31726">
        <ele>503.3</ele>
        <time>2023-02-19T09:43:24Z</time>
      </trkpt>
      <trkpt lat="45.6895" lon="4.31727">
        <ele>503.3</ele>
        <time>2023-02-19T09:43:25Z</time>
      </trkpt>
      <trkpt lat="45.68949" lon="4.31727">
        <ele>503.3</ele>
        <time>2023-02-19T09:43:26Z</time>
      </trkpt>
      <trkpt lat="45.68947" lon="4.31727">
        <ele>503.2</ele>
        <time>2023-02-19T09:43:27Z</time>
      </trkpt>
      <trkpt lat="45.68946" lon="4.31728">
        <ele>503.2</ele>
        <time>2023-02-19T09:43:28Z</time>
      </trkpt>
      <trkpt lat="45.68944" lon="4.31728">
        <ele>503.2</ele>
        <time>2023-02-19T09:43:29Z</time>
      </trkpt>
      <trkpt lat="45.68942" lon="4.31729">
        <ele>503.2</ele>
        <time>2023-02-19T09:43:31Z</time>
      </trkpt>
      <trkpt lat="45.68941" lon="4.31729">
        <ele>503.2</ele>
        <time>2023-02-19T09:43:32Z</time>
      </trkpt>
      <trkpt lat="45.68939" lon="4.31729">
        <ele>503.3</ele>
        <time>2023-02-19T09:43:33Z</time>
      </trkpt>
      <trkpt lat="45.68938" lon="4.3173">
        <ele>503.3</ele>
        <time>2023-02-19T09:43:34Z</time>
      </trkpt>
      <trkpt lat="45.68937" lon="4.31731">
        <ele>503.3</ele>
        <time>2023-02-19T09:43:36Z</time>
      </trkpt>
      <trkpt lat="45.68935" lon="4.31732">
        <ele>503.4</ele>
        <time>2023-02-19T09:43:37Z</time>
      </trkpt>
      <trkpt lat="45.68934" lon="4.31732">
        <ele>503.4</ele>
        <time>2023-02-19T09:43:38Z</time>
      </trkpt>
      <trkpt lat="45.68933" lon="4.31733">
        <ele>503.5</ele>
        <time>2023-02-19T09:43:39Z</time>
      </trkpt>
      <trkpt lat="45.68931" lon="4.31734">
        <ele>503.5</ele>
        <time>2023-02-19T09:43:40Z</time>
      </trkpt>
      <trkpt lat="45.68929" lon="4.31735">
        <ele>503.6</ele>
        <time>2023-02-19T09:43:42Z</time>
      </trkpt>
      <trkpt lat="45.68928" lon="4.31736">
        <ele>503.6</ele>
        <time>2023-02-19T09:43:43Z</time>
      </trkpt>
      <trkpt lat="45.68926" lon="4.31737">
        <ele>503.7</ele>
        <time>2023-02-19T09:43:44Z</time>
      </trkpt>
      <trkpt lat="45.68925" lon="4.31738">
        <ele>503.8</ele>
        <time>2023-02-19T09:43:45Z</time>
      </trkpt>
      <trkpt lat="45.68923" lon="4.31739">
        <ele>503.9</ele>
        <time>2023-02-19T09:43:46Z</time>
      </trkpt>
      <trkpt lat="45.68922" lon="4.3174">
        <ele>504</ele>
        <time>2023-02-19T09:43:47Z</time>
      </trkpt>
      <trkpt lat="45.6892" lon="4.31741">
        <ele>504.1</ele>
        <time>2023-02-19T09:43:48Z</time>
      </trkpt>
      <trkpt lat="45.68919" lon="4.31742">
        <ele>504.2</ele>
        <time>2023-02-19T09:43:49Z</time>
      </trkpt>
      <trkpt lat="45.68917" lon="4.31743">
        <ele>504.3</ele>
        <time>2023-02-19T09:43:50Z</time>
      </trkpt>
      <trkpt lat="45.68915" lon="4.31744">
        <ele>504.4</ele>
        <time>2023-02-19T09:43:52Z</time>
      </trkpt>
      <trkpt lat="45.68913" lon="4.31745">
        <ele>504.5</ele>
        <time>2023-02-19T09:43:53Z</time>
      </trkpt>
      <trkpt lat="45.68912" lon="4.31746">
        <ele>504.6</ele>
        <time>2023-02-19T09:43:54Z</time>
      </trkpt>
      <trkpt lat="45.6891" lon="4.31746">
        <ele>504.7</ele>
        <time>2023-02-19T09:43:55Z</time>
      </trkpt>
      <trkpt lat="45.68909" lon="4.31747">
        <ele>504.8</ele>
        <time>2023-02-19T09:43:56Z</time>
      </trkpt>
      <trkpt lat="45.68907" lon="4.31747">
        <ele>505</ele>
        <time>2023-02-19T09:43:58Z</time>
      </trkpt>
      <trkpt lat="45.68906" lon="4.31748">
        <ele>505.1</ele>
        <time>2023-02-19T09:43:59Z</time>
      </trkpt>
      <trkpt lat="45.68905" lon="4.31749">
        <ele>505.1</ele>
        <time>2023-02-19T09:44:00Z</time>
      </trkpt>
      <trkpt lat="45.68904" lon="4.3175">
        <ele>505.2</ele>
        <time>2023-02-19T09:44:01Z</time>
      </trkpt>
      <trkpt lat="45.68903" lon="4.31751">
        <ele>505.3</ele>
        <time>2023-02-19T09:44:02Z</time>
      </trkpt>
      <trkpt lat="45.68902" lon="4.31752">
        <ele>505.4</ele>
        <time>2023-02-19T09:44:03Z</time>
      </trkpt>
      <trkpt lat="45.68901" lon="4.31753">
        <ele>505.5</ele>
        <time>2023-02-19T09:44:04Z</time>
      </trkpt>
      <trkpt lat="45.689" lon="4.31754">
        <ele>505.6</ele>
        <time>2023-02-19T09:44:06Z</time>
      </trkpt>
      <trkpt lat="45.68898" lon="4.31755">
        <ele>505.8</ele>
        <time>2023-02-19T09:44:07Z</time>
      </trkpt>
      <trkpt lat="45.68898" lon="4.31756">
        <ele>505.8</ele>
        <time>2023-02-19T09:44:08Z</time>
      </trkpt>
      <trkpt lat="45.68897" lon="4.31757">
        <ele>505.9</ele>
        <time>2023-02-19T09:44:09Z</time>
      </trkpt>
      <trkpt lat="45.68896" lon="4.31758">
        <ele>506</ele>
        <time>2023-02-19T09:44:10Z</time>
      </trkpt>
      <trkpt lat="45.68895" lon="4.31759">
        <ele>506.1</ele>
        <time>2023-02-19T09:44:11Z</time>
      </trkpt>
      <trkpt lat="45.68894" lon="4.31759">
        <ele>506.2</ele>
        <time>2023-02-19T09:44:13Z</time>
      </trkpt>
      <trkpt lat="45.68894" lon="4.3176">
        <ele>506.3</ele>
        <time>2023-02-19T09:44:14Z</time>
      </trkpt>
      <trkpt lat="45.68893" lon="4.31761">
        <ele>506.4</ele>
        <time>2023-02-19T09:44:15Z</time>
      </trkpt>
      <trkpt lat="45.68892" lon="4.31761">
        <ele>506.4</ele>
        <time>2023-02-19T09:44:16Z</time>
      </trkpt>
      <trkpt lat="45.68892" lon="4.31762">
        <ele>506.5</ele>
        <time>2023-02-19T09:44:17Z</time>
      </trkpt>
      <trkpt lat="45.68891" lon="4.31763">
        <ele>506.6</ele>
        <time>2023-02-19T09:44:18Z</time>
      </trkpt>
      <trkpt lat="45.68889" lon="4.31764">
        <ele>506.8</ele>
        <time>2023-02-19T09:44:20Z</time>
      </trkpt>
      <trkpt lat="45.68888" lon="4.31765">
        <ele>506.9</ele>
        <time>2023-02-19T09:44:21Z</time>
      </trkpt>
      <trkpt lat="45.68887" lon="4.31766">
        <ele>507.1</ele>
        <time>2023-02-19T09:44:22Z</time>
      </trkpt>
      <trkpt lat="45.68886" lon="4.31767">
        <ele>507.2</ele>
        <time>2023-02-19T09:44:23Z</time>
      </trkpt>
      <trkpt lat="45.68885" lon="4.31767">
        <ele>507.2</ele>
        <time>2023-02-19T09:44:24Z</time>
      </trkpt>
      <trkpt lat="45.68883" lon="4.31768">
        <ele>507.4</ele>
        <time>2023-02-19T09:44:26Z</time>
      </trkpt>
      <trkpt lat="45.68882" lon="4.31769">
        <ele>507.6</ele>
        <time>2023-02-19T09:44:27Z</time>
      </trkpt>
      <trkpt lat="45.6888" lon="4.3177">
        <ele>507.8</ele>
        <time>2023-02-19T09:44:29Z</time>
      </trkpt>
      <trkpt lat="45.68879" lon="4.31771">
        <ele>507.9</ele>
        <time>2023-02-19T09:44:30Z</time>
      </trkpt>
      <trkpt lat="45.68878" lon="4.31772">
        <ele>508</ele>
        <time>2023-02-19T09:44:31Z</time>
      </trkpt>
      <trkpt lat="45.68877" lon="4.31773">
        <ele>508.1</ele>
        <time>2023-02-19T09:44:32Z</time>
      </trkpt>
      <trkpt lat="45.68876" lon="4.31774">
        <ele>508.3</ele>
        <time>2023-02-19T09:44:34Z</time>
      </trkpt>
      <trkpt lat="45.68875" lon="4.31775">
        <ele>508.4</ele>
        <time>2023-02-19T09:44:35Z</time>
      </trkpt>
      <trkpt lat="45.68874" lon="4.31776">
        <ele>508.6</ele>
        <time>2023-02-19T09:44:36Z</time>
      </trkpt>
      <trkpt lat="45.68873" lon="4.31776">
        <ele>508.7</ele>
        <time>2023-02-19T09:44:37Z</time>
      </trkpt>
      <trkpt lat="45.68872" lon="4.31777">
        <ele>508.9</ele>
        <time>2023-02-19T09:44:38Z</time>
      </trkpt>
      <trkpt lat="45.68871" lon="4.31778">
        <ele>509</ele>
        <time>2023-02-19T09:44:39Z</time>
      </trkpt>
      <trkpt lat="45.6887" lon="4.31778">
        <ele>509.1</ele>
        <time>2023-02-19T09:44:40Z</time>
      </trkpt>
      <trkpt lat="45.6887" lon="4.31779">
        <ele>509.2</ele>
        <time>2023-02-19T09:44:41Z</time>
      </trkpt>
      <trkpt lat="45.68869" lon="4.3178">
        <ele>509.3</ele>
        <time>2023-02-19T09:44:43Z</time>
      </trkpt>
      <trkpt lat="45.68868" lon="4.3178">
        <ele>509.5</ele>
        <time>2023-02-19T09:44:44Z</time>
      </trkpt>
      <trkpt lat="45.68867" lon="4.31781">
        <ele>509.6</ele>
        <time>2023-02-19T09:44:45Z</time>
      </trkpt>
      <trkpt lat="45.68866" lon="4.31782">
        <ele>509.7</ele>
        <time>2023-02-19T09:44:46Z</time>
      </trkpt>
      <trkpt lat="45.68864" lon="4.31783">
        <ele>510</ele>
        <time>2023-02-19T09:44:48Z</time>
      </trkpt>
      <trkpt lat="45.68862" lon="4.31783">
        <ele>510.2</ele>
        <time>2023-02-19T09:44:49Z</time>
      </trkpt>
      <trkpt lat="45.68861" lon="4.31784">
        <ele>510.3</ele>
        <time>2023-02-19T09:44:50Z</time>
      </trkpt>
      <trkpt lat="45.6886" lon="4.31784">
        <ele>510.4</ele>
        <time>2023-02-19T09:44:51Z</time>
      </trkpt>
      <trkpt lat="45.68859" lon="4.31785">
        <ele>510.6</ele>
        <time>2023-02-19T09:44:52Z</time>
      </trkpt>
      <trkpt lat="45.68857" lon="4.31786">
        <ele>510.8</ele>
        <time>2023-02-19T09:44:54Z</time>
      </trkpt>
      <trkpt lat="45.68856" lon="4.31786">
        <ele>511</ele>
        <time>2023-02-19T09:44:55Z</time>
      </trkpt>
      <trkpt lat="45.68855" lon="4.31787">
        <ele>511.1</ele>
        <time>2023-02-19T09:44:56Z</time>
      </trkpt>
      <trkpt lat="45.68853" lon="4.31788">
        <ele>511.3</ele>
        <time>2023-02-19T09:44:57Z</time>
      </trkpt>
      <trkpt lat="45.68851" lon="4.31788">
        <ele>511.5</ele>
        <time>2023-02-19T09:44:58Z</time>
      </trkpt>
      <trkpt lat="45.6885" lon="4.31788">
        <ele>511.6</ele>
        <time>2023-02-19T09:44:59Z</time>
      </trkpt>
      <trkpt lat="45.68847" lon="4.31789">
        <ele>511.8</ele>
        <time>2023-02-19T09:45:01Z</time>
      </trkpt>
      <trkpt lat="45.68846" lon="4.31789">
        <ele>512</ele>
        <time>2023-02-19T09:45:02Z</time>
      </trkpt>
      <trkpt lat="45.68844" lon="4.31789">
        <ele>512.1</ele>
        <time>2023-02-19T09:45:03Z</time>
      </trkpt>
      <trkpt lat="45.68842" lon="4.3179">
        <ele>512.3</ele>
        <time>2023-02-19T09:45:04Z</time>
      </trkpt>
      <trkpt lat="45.68841" lon="4.3179">
        <ele>512.4</ele>
        <time>2023-02-19T09:45:05Z</time>
      </trkpt>
      <trkpt lat="45.6884" lon="4.31791">
        <ele>512.4</ele>
        <time>2023-02-19T09:45:06Z</time>
      </trkpt>
      <trkpt lat="45.68839" lon="4.31792">
        <ele>512.6</ele>
        <time>2023-02-19T09:45:08Z</time>
      </trkpt>
      <trkpt lat="45.68838" lon="4.31793">
        <ele>512.7</ele>
        <time>2023-02-19T09:45:09Z</time>
      </trkpt>
      <trkpt lat="45.68837" lon="4.31794">
        <ele>512.8</ele>
        <time>2023-02-19T09:45:10Z</time>
      </trkpt>
      <trkpt lat="45.68836" lon="4.31796">
        <ele>512.9</ele>
        <time>2023-02-19T09:45:11Z</time>
      </trkpt>
      <trkpt lat="45.68835" lon="4.31796">
        <ele>513</ele>
        <time>2023-02-19T09:45:12Z</time>
      </trkpt>
      <trkpt lat="45.68834" lon="4.31796">
        <ele>513.1</ele>
        <time>2023-02-19T09:45:14Z</time>
      </trkpt>
      <trkpt lat="45.68832" lon="4.31797">
        <ele>513.1</ele>
        <time>2023-02-19T09:45:15Z</time>
      </trkpt>
      <trkpt lat="45.68831" lon="4.31799">
        <ele>513.3</ele>
        <time>2023-02-19T09:45:16Z</time>
      </trkpt>
      <trkpt lat="45.6883" lon="4.31801">
        <ele>513.4</ele>
        <time>2023-02-19T09:45:17Z</time>
      </trkpt>
      <trkpt lat="45.68827" lon="4.31802">
        <ele>513.5</ele>
        <time>2023-02-19T09:45:18Z</time>
      </trkpt>
      <trkpt lat="45.68826" lon="4.31802">
        <ele>513.6</ele>
        <time>2023-02-19T09:45:20Z</time>
      </trkpt>
      <trkpt lat="45.68826" lon="4.31803">
        <ele>513.6</ele>
        <time>2023-02-19T09:45:21Z</time>
      </trkpt>
      <trkpt lat="45.68825" lon="4.31803">
        <ele>513.7</ele>
        <time>2023-02-19T09:45:22Z</time>
      </trkpt>
      <trkpt lat="45.68824" lon="4.31804">
        <ele>513.7</ele>
        <time>2023-02-19T09:45:23Z</time>
      </trkpt>
      <trkpt lat="45.68823" lon="4.31805">
        <ele>513.8</ele>
        <time>2023-02-19T09:45:24Z</time>
      </trkpt>
      <trkpt lat="45.68822" lon="4.31806">
        <ele>513.9</ele>
        <time>2023-02-19T09:45:25Z</time>
      </trkpt>
      <trkpt lat="45.68821" lon="4.31808">
        <ele>513.9</ele>
        <time>2023-02-19T09:45:26Z</time>
      </trkpt>
      <trkpt lat="45.6882" lon="4.3181">
        <ele>514</ele>
        <time>2023-02-19T09:45:27Z</time>
      </trkpt>
      <trkpt lat="45.6882" lon="4.31811">
        <ele>514</ele>
        <time>2023-02-19T09:45:28Z</time>
      </trkpt>
      <trkpt lat="45.68819" lon="4.31812">
        <ele>514.1</ele>
        <time>2023-02-19T09:45:29Z</time>
      </trkpt>
      <trkpt lat="45.68818" lon="4.31814">
        <ele>514.1</ele>
        <time>2023-02-19T09:45:30Z</time>
      </trkpt>
      <trkpt lat="45.68817" lon="4.31815">
        <ele>514.2</ele>
        <time>2023-02-19T09:45:32Z</time>
      </trkpt>
      <trkpt lat="45.68816" lon="4.31816">
        <ele>514.2</ele>
        <time>2023-02-19T09:45:33Z</time>
      </trkpt>
      <trkpt lat="45.68814" lon="4.31817">
        <ele>514.3</ele>
        <time>2023-02-19T09:45:34Z</time>
      </trkpt>
      <trkpt lat="45.68813" lon="4.31818">
        <ele>514.4</ele>
        <time>2023-02-19T09:45:35Z</time>
      </trkpt>
      <trkpt lat="45.68812" lon="4.31819">
        <ele>514.4</ele>
        <time>2023-02-19T09:45:36Z</time>
      </trkpt>
      <trkpt lat="45.68811" lon="4.31819">
        <ele>514.4</ele>
        <time>2023-02-19T09:45:37Z</time>
      </trkpt>
      <trkpt lat="45.68811" lon="4.3182">
        <ele>514.5</ele>
        <time>2023-02-19T09:45:38Z</time>
      </trkpt>
      <trkpt lat="45.68811" lon="4.31821">
        <ele>514.5</ele>
        <time>2023-02-19T09:45:39Z</time>
      </trkpt>
      <trkpt lat="45.6881" lon="4.31823">
        <ele>514.6</ele>
        <time>2023-02-19T09:45:41Z</time>
      </trkpt>
      <trkpt lat="45.68808" lon="4.31824">
        <ele>514.6</ele>
        <time>2023-02-19T09:45:42Z</time>
      </trkpt>
      <trkpt lat="45.68807" lon="4.31825">
        <ele>514.7</ele>
        <time>2023-02-19T09:45:43Z</time>
      </trkpt>
      <trkpt lat="45.68806" lon="4.31827">
        <ele>514.7</ele>
        <time>2023-02-19T09:45:44Z</time>
      </trkpt>
      <trkpt lat="45.68805" lon="4.31828">
        <ele>514.8</ele>
        <time>2023-02-19T09:45:45Z</time>
      </trkpt>
      <trkpt lat="45.68804" lon="4.31829">
        <ele>514.8</ele>
        <time>2023-02-19T09:45:46Z</time>
      </trkpt>
      <trkpt lat="45.68803" lon="4.31829">
        <ele>514.9</ele>
        <time>2023-02-19T09:45:47Z</time>
      </trkpt>
      <trkpt lat="45.68802" lon="4.31831">
        <ele>514.9</ele>
        <time>2023-02-19T09:45:49Z</time>
      </trkpt>
      <trkpt lat="45.68801" lon="4.31832">
        <ele>515</ele>
        <time>2023-02-19T09:45:50Z</time>
      </trkpt>
      <trkpt lat="45.68799" lon="4.31833">
        <ele>515</ele>
        <time>2023-02-19T09:45:51Z</time>
      </trkpt>
      <trkpt lat="45.68797" lon="4.31834">
        <ele>515.1</ele>
        <time>2023-02-19T09:45:52Z</time>
      </trkpt>
      <trkpt lat="45.68797" lon="4.31835">
        <ele>515.1</ele>
        <time>2023-02-19T09:45:53Z</time>
      </trkpt>
      <trkpt lat="45.68796" lon="4.31836">
        <ele>515.1</ele>
        <time>2023-02-19T09:45:54Z</time>
      </trkpt>
      <trkpt lat="45.68794" lon="4.31837">
        <ele>515.2</ele>
        <time>2023-02-19T09:45:55Z</time>
      </trkpt>
      <trkpt lat="45.68793" lon="4.31838">
        <ele>515.2</ele>
        <time>2023-02-19T09:45:56Z</time>
      </trkpt>
      <trkpt lat="45.68792" lon="4.31839">
        <ele>515.3</ele>
        <time>2023-02-19T09:45:57Z</time>
      </trkpt>
      <trkpt lat="45.68791" lon="4.31841">
        <ele>515.3</ele>
        <time>2023-02-19T09:45:59Z</time>
      </trkpt>
      <trkpt lat="45.68789" lon="4.31842">
        <ele>515.4</ele>
        <time>2023-02-19T09:46:00Z</time>
      </trkpt>
      <trkpt lat="45.68788" lon="4.31844">
        <ele>515.4</ele>
        <time>2023-02-19T09:46:01Z</time>
      </trkpt>
      <trkpt lat="45.68787" lon="4.31845">
        <ele>515.4</ele>
        <time>2023-02-19T09:46:02Z</time>
      </trkpt>
      <trkpt lat="45.68786" lon="4.31846">
        <ele>515.5</ele>
        <time>2023-02-19T09:46:04Z</time>
      </trkpt>
      <trkpt lat="45.68785" lon="4.31848">
        <ele>515.5</ele>
        <time>2023-02-19T09:46:05Z</time>
      </trkpt>
      <trkpt lat="45.68784" lon="4.31849">
        <ele>515.5</ele>
        <time>2023-02-19T09:46:06Z</time>
      </trkpt>
      <trkpt lat="45.68783" lon="4.3185">
        <ele>515.6</ele>
        <time>2023-02-19T09:46:07Z</time>
      </trkpt>
      <trkpt lat="45.68781" lon="4.31852">
        <ele>515.6</ele>
        <time>2023-02-19T09:46:08Z</time>
      </trkpt>
      <trkpt lat="45.6878" lon="4.31853">
        <ele>515.6</ele>
        <time>2023-02-19T09:46:09Z</time>
      </trkpt>
      <trkpt lat="45.68779" lon="4.31854">
        <ele>515.6</ele>
        <time>2023-02-19T09:46:10Z</time>
      </trkpt>
      <trkpt lat="45.68778" lon="4.31854">
        <ele>515.6</ele>
        <time>2023-02-19T09:46:11Z</time>
      </trkpt>
      <trkpt lat="45.68777" lon="4.31854">
        <ele>515.7</ele>
        <time>2023-02-19T09:46:12Z</time>
      </trkpt>
      <trkpt lat="45.68775" lon="4.31855">
        <ele>515.7</ele>
        <time>2023-02-19T09:46:14Z</time>
      </trkpt>
      <trkpt lat="45.68774" lon="4.31855">
        <ele>515.7</ele>
        <time>2023-02-19T09:46:15Z</time>
      </trkpt>
      <trkpt lat="45.68773" lon="4.31856">
        <ele>515.7</ele>
        <time>2023-02-19T09:46:16Z</time>
      </trkpt>
      <trkpt lat="45.6877" lon="4.31856">
        <ele>515.6</ele>
        <time>2023-02-19T09:46:17Z</time>
      </trkpt>
      <trkpt lat="45.68768" lon="4.31856">
        <ele>515.6</ele>
        <time>2023-02-19T09:46:19Z</time>
      </trkpt>
      <trkpt lat="45.68766" lon="4.31857">
        <ele>515.5</ele>
        <time>2023-02-19T09:46:20Z</time>
      </trkpt>
      <trkpt lat="45.68765" lon="4.31857">
        <ele>515.5</ele>
        <time>2023-02-19T09:46:21Z</time>
      </trkpt>
      <trkpt lat="45.68764" lon="4.31857">
        <ele>515.5</ele>
        <time>2023-02-19T09:46:22Z</time>
      </trkpt>
      <trkpt lat="45.68763" lon="4.31857">
        <ele>515.4</ele>
        <time>2023-02-19T09:46:23Z</time>
      </trkpt>
      <trkpt lat="45.68761" lon="4.31857">
        <ele>515.3</ele>
        <time>2023-02-19T09:46:24Z</time>
      </trkpt>
      <trkpt lat="45.6876" lon="4.31858">
        <ele>515.2</ele>
        <time>2023-02-19T09:46:25Z</time>
      </trkpt>
      <trkpt lat="45.68758" lon="4.31859">
        <ele>515.1</ele>
        <time>2023-02-19T09:46:27Z</time>
      </trkpt>
      <trkpt lat="45.68756" lon="4.31858">
        <ele>515.1</ele>
        <time>2023-02-19T09:46:28Z</time>
      </trkpt>
      <trkpt lat="45.68755" lon="4.31857">
        <ele>515</ele>
        <time>2023-02-19T09:46:29Z</time>
      </trkpt>
      <trkpt lat="45.68753" lon="4.31856">
        <ele>514.8</ele>
        <time>2023-02-19T09:46:30Z</time>
      </trkpt>
      <trkpt lat="45.68752" lon="4.31855">
        <ele>514.8</ele>
        <time>2023-02-19T09:46:31Z</time>
      </trkpt>
      <trkpt lat="45.68752" lon="4.31854">
        <ele>514.7</ele>
        <time>2023-02-19T09:46:32Z</time>
      </trkpt>
      <trkpt lat="45.6875" lon="4.31853">
        <ele>514.6</ele>
        <time>2023-02-19T09:46:33Z</time>
      </trkpt>
      <trkpt lat="45.68749" lon="4.31851">
        <ele>514.5</ele>
        <time>2023-02-19T09:46:34Z</time>
      </trkpt>
      <trkpt lat="45.68747" lon="4.31848">
        <ele>514.3</ele>
        <time>2023-02-19T09:46:35Z</time>
      </trkpt>
      <trkpt lat="45.68747" lon="4.31847">
        <ele>514.2</ele>
        <time>2023-02-19T09:46:36Z</time>
      </trkpt>
      <trkpt lat="45.68745" lon="4.31844">
        <ele>514</ele>
        <time>2023-02-19T09:46:38Z</time>
      </trkpt>
      <trkpt lat="45.68744" lon="4.31843">
        <ele>513.9</ele>
        <time>2023-02-19T09:46:39Z</time>
      </trkpt>
      <trkpt lat="45.68742" lon="4.3184">
        <ele>513.7</ele>
        <time>2023-02-19T09:46:40Z</time>
      </trkpt>
      <trkpt lat="45.68742" lon="4.31838">
        <ele>513.7</ele>
        <time>2023-02-19T09:46:41Z</time>
      </trkpt>
      <trkpt lat="45.6874" lon="4.31836">
        <ele>513.5</ele>
        <time>2023-02-19T09:46:42Z</time>
      </trkpt>
      <trkpt lat="45.68739" lon="4.31834">
        <ele>513.4</ele>
        <time>2023-02-19T09:46:43Z</time>
      </trkpt>
      <trkpt lat="45.68738" lon="4.31833">
        <ele>513.3</ele>
        <time>2023-02-19T09:46:44Z</time>
      </trkpt>
      <trkpt lat="45.68737" lon="4.31831">
        <ele>513.2</ele>
        <time>2023-02-19T09:46:45Z</time>
      </trkpt>
      <trkpt lat="45.68736" lon="4.3183">
        <ele>513.1</ele>
        <time>2023-02-19T09:46:46Z</time>
      </trkpt>
      <trkpt lat="45.68735" lon="4.31828">
        <ele>513</ele>
        <time>2023-02-19T09:46:48Z</time>
      </trkpt>
      <trkpt lat="45.68734" lon="4.31826">
        <ele>513</ele>
        <time>2023-02-19T09:46:49Z</time>
      </trkpt>
      <trkpt lat="45.68733" lon="4.31825">
        <ele>512.9</ele>
        <time>2023-02-19T09:46:50Z</time>
      </trkpt>
      <trkpt lat="45.68731" lon="4.31824">
        <ele>512.8</ele>
        <time>2023-02-19T09:46:51Z</time>
      </trkpt>
      <trkpt lat="45.6873" lon="4.31823">
        <ele>512.7</ele>
        <time>2023-02-19T09:46:52Z</time>
      </trkpt>
      <trkpt lat="45.68728" lon="4.31823">
        <ele>512.7</ele>
        <time>2023-02-19T09:46:53Z</time>
      </trkpt>
      <trkpt lat="45.68727" lon="4.31822">
        <ele>512.6</ele>
        <time>2023-02-19T09:46:54Z</time>
      </trkpt>
      <trkpt lat="45.68725" lon="4.31821">
        <ele>512.5</ele>
        <time>2023-02-19T09:46:55Z</time>
      </trkpt>
      <trkpt lat="45.68724" lon="4.3182">
        <ele>512.4</ele>
        <time>2023-02-19T09:46:56Z</time>
      </trkpt>
      <trkpt lat="45.68724" lon="4.3182">
        <ele>512.4</ele>
        <time>2023-02-19T09:46:57Z</time>
      </trkpt>
      <trkpt lat="45.68722" lon="4.31818">
        <ele>512.3</ele>
        <time>2023-02-19T09:46:59Z</time>
      </trkpt>
      <trkpt lat="45.68721" lon="4.31817">
        <ele>512.3</ele>
        <time>2023-02-19T09:47:00Z</time>
      </trkpt>
      <trkpt lat="45.6872" lon="4.31816">
        <ele>512.2</ele>
        <time>2023-02-19T09:47:01Z</time>
      </trkpt>
      <trkpt lat="45.68719" lon="4.31815">
        <ele>512.2</ele>
        <time>2023-02-19T09:47:02Z</time>
      </trkpt>
      <trkpt lat="45.68718" lon="4.31813">
        <ele>512.1</ele>
        <time>2023-02-19T09:47:03Z</time>
      </trkpt>
      <trkpt lat="45.68716" lon="4.31812">
        <ele>512.1</ele>
        <time>2023-02-19T09:47:04Z</time>
      </trkpt>
      <trkpt lat="45.68715" lon="4.31811">
        <ele>512</ele>
        <time>2023-02-19T09:47:05Z</time>
      </trkpt>
      <trkpt lat="45.68714" lon="4.3181">
        <ele>512</ele>
        <time>2023-02-19T09:47:07Z</time>
      </trkpt>
      <trkpt lat="45.68712" lon="4.31809">
        <ele>512</ele>
        <time>2023-02-19T09:47:08Z</time>
      </trkpt>
      <trkpt lat="45.68711" lon="4.31808">
        <ele>511.9</ele>
        <time>2023-02-19T09:47:09Z</time>
      </trkpt>
      <trkpt lat="45.6871" lon="4.31807">
        <ele>511.9</ele>
        <time>2023-02-19T09:47:10Z</time>
      </trkpt>
      <trkpt lat="45.68709" lon="4.31806">
        <ele>511.9</ele>
        <time>2023-02-19T09:47:11Z</time>
      </trkpt>
      <trkpt lat="45.68709" lon="4.31805">
        <ele>511.9</ele>
        <time>2023-02-19T09:47:12Z</time>
      </trkpt>
      <trkpt lat="45.68708" lon="4.31803">
        <ele>511.8</ele>
        <time>2023-02-19T09:47:13Z</time>
      </trkpt>
      <trkpt lat="45.68707" lon="4.31802">
        <ele>511.8</ele>
        <time>2023-02-19T09:47:14Z</time>
      </trkpt>
      <trkpt lat="45.68706" lon="4.318">
        <ele>511.8</ele>
        <time>2023-02-19T09:47:16Z</time>
      </trkpt>
      <trkpt lat="45.68704" lon="4.31798">
        <ele>511.8</ele>
        <time>2023-02-19T09:47:17Z</time>
      </trkpt>
      <trkpt lat="45.68704" lon="4.31797">
        <ele>511.8</ele>
        <time>2023-02-19T09:47:19Z</time>
      </trkpt>
      <trkpt lat="45.68703" lon="4.31796">
        <ele>511.8</ele>
        <time>2023-02-19T09:47:20Z</time>
      </trkpt>
      <trkpt lat="45.68702" lon="4.31794">
        <ele>511.8</ele>
        <time>2023-02-19T09:47:21Z</time>
      </trkpt>
      <trkpt lat="45.68702" lon="4.31793">
        <ele>511.8</ele>
        <time>2023-02-19T09:47:22Z</time>
      </trkpt>
      <trkpt lat="45.68701" lon="4.3179">
        <ele>511.8</ele>
        <time>2023-02-19T09:47:23Z</time>
      </trkpt>
      <trkpt lat="45.687" lon="4.31789">
        <ele>511.8</ele>
        <time>2023-02-19T09:47:24Z</time>
      </trkpt>
      <trkpt lat="45.687" lon="4.31788">
        <ele>511.8</ele>
        <time>2023-02-19T09:47:25Z</time>
      </trkpt>
      <trkpt lat="45.687" lon="4.31786">
        <ele>511.8</ele>
        <time>2023-02-19T09:47:26Z</time>
      </trkpt>
      <trkpt lat="45.68699" lon="4.31783">
        <ele>511.7</ele>
        <time>2023-02-19T09:47:27Z</time>
      </trkpt>
      <trkpt lat="45.68699" lon="4.31781">
        <ele>511.7</ele>
        <time>2023-02-19T09:47:29Z</time>
      </trkpt>
      <trkpt lat="45.68698" lon="4.31779">
        <ele>511.7</ele>
        <time>2023-02-19T09:47:30Z</time>
      </trkpt>
      <trkpt lat="45.68697" lon="4.31777">
        <ele>511.7</ele>
        <time>2023-02-19T09:47:31Z</time>
      </trkpt>
      <trkpt lat="45.68697" lon="4.31776">
        <ele>511.7</ele>
        <time>2023-02-19T09:47:32Z</time>
      </trkpt>
      <trkpt lat="45.68696" lon="4.31775">
        <ele>511.7</ele>
        <time>2023-02-19T09:47:34Z</time>
      </trkpt>
      <trkpt lat="45.68695" lon="4.31774">
        <ele>511.7</ele>
        <time>2023-02-19T09:47:35Z</time>
      </trkpt>
      <trkpt lat="45.68694" lon="4.31773">
        <ele>511.7</ele>
        <time>2023-02-19T09:47:36Z</time>
      </trkpt>
      <trkpt lat="45.68693" lon="4.31772">
        <ele>511.7</ele>
        <time>2023-02-19T09:47:37Z</time>
      </trkpt>
      <trkpt lat="45.68693" lon="4.3177">
        <ele>511.7</ele>
        <time>2023-02-19T09:47:38Z</time>
      </trkpt>
      <trkpt lat="45.68692" lon="4.31769">
        <ele>511.7</ele>
        <time>2023-02-19T09:47:39Z</time>
      </trkpt>
      <trkpt lat="45.68691" lon="4.31768">
        <ele>511.7</ele>
        <time>2023-02-19T09:47:41Z</time>
      </trkpt>
      <trkpt lat="45.6869" lon="4.31767">
        <ele>511.7</ele>
        <time>2023-02-19T09:47:42Z</time>
      </trkpt>
      <trkpt lat="45.6869" lon="4.31766">
        <ele>511.7</ele>
        <time>2023-02-19T09:47:43Z</time>
      </trkpt>
      <trkpt lat="45.68689" lon="4.31764">
        <ele>511.7</ele>
        <time>2023-02-19T09:47:44Z</time>
      </trkpt>
      <trkpt lat="45.68688" lon="4.31763">
        <ele>511.7</ele>
        <time>2023-02-19T09:47:45Z</time>
      </trkpt>
      <trkpt lat="45.68688" lon="4.31762">
        <ele>511.7</ele>
        <time>2023-02-19T09:47:46Z</time>
      </trkpt>
      <trkpt lat="45.68686" lon="4.31761">
        <ele>511.7</ele>
        <time>2023-02-19T09:47:48Z</time>
      </trkpt>
      <trkpt lat="45.68685" lon="4.3176">
        <ele>511.7</ele>
        <time>2023-02-19T09:47:49Z</time>
      </trkpt>
      <trkpt lat="45.68684" lon="4.31758">
        <ele>511.7</ele>
        <time>2023-02-19T09:47:50Z</time>
      </trkpt>
      <trkpt lat="45.68683" lon="4.31757">
        <ele>511.7</ele>
        <time>2023-02-19T09:47:51Z</time>
      </trkpt>
      <trkpt lat="45.68682" lon="4.31756">
        <ele>511.7</ele>
        <time>2023-02-19T09:47:52Z</time>
      </trkpt>
      <trkpt lat="45.6868" lon="4.31755">
        <ele>511.7</ele>
        <time>2023-02-19T09:47:53Z</time>
      </trkpt>
      <trkpt lat="45.68679" lon="4.31753">
        <ele>511.7</ele>
        <time>2023-02-19T09:47:54Z</time>
      </trkpt>
      <trkpt lat="45.68678" lon="4.31752">
        <ele>511.7</ele>
        <time>2023-02-19T09:47:55Z</time>
      </trkpt>
      <trkpt lat="45.68676" lon="4.31751">
        <ele>511.7</ele>
        <time>2023-02-19T09:47:56Z</time>
      </trkpt>
      <trkpt lat="45.68675" lon="4.3175">
        <ele>511.8</ele>
        <time>2023-02-19T09:47:57Z</time>
      </trkpt>
      <trkpt lat="45.68673" lon="4.31749">
        <ele>511.8</ele>
        <time>2023-02-19T09:47:59Z</time>
      </trkpt>
      <trkpt lat="45.6867" lon="4.31746">
        <ele>511.9</ele>
        <time>2023-02-19T09:48:00Z</time>
      </trkpt>
      <trkpt lat="45.68669" lon="4.31745">
        <ele>511.9</ele>
        <time>2023-02-19T09:48:01Z</time>
      </trkpt>
      <trkpt lat="45.68667" lon="4.31744">
        <ele>511.9</ele>
        <time>2023-02-19T09:48:02Z</time>
      </trkpt>
      <trkpt lat="45.68665" lon="4.31743">
        <ele>512</ele>
        <time>2023-02-19T09:48:04Z</time>
      </trkpt>
      <trkpt lat="45.68662" lon="4.31741">
        <ele>512.1</ele>
        <time>2023-02-19T09:48:05Z</time>
      </trkpt>
      <trkpt lat="45.68661" lon="4.3174">
        <ele>512.1</ele>
        <time>2023-02-19T09:48:06Z</time>
      </trkpt>
      <trkpt lat="45.68659" lon="4.31739">
        <ele>512.2</ele>
        <time>2023-02-19T09:48:07Z</time>
      </trkpt>
      <trkpt lat="45.68658" lon="4.31738">
        <ele>512.2</ele>
        <time>2023-02-19T09:48:08Z</time>
      </trkpt>
      <trkpt lat="45.68656" lon="4.31738">
        <ele>512.3</ele>
        <time>2023-02-19T09:48:10Z</time>
      </trkpt>
      <trkpt lat="45.68655" lon="4.31737">
        <ele>512.3</ele>
        <time>2023-02-19T09:48:11Z</time>
      </trkpt>
      <trkpt lat="45.68654" lon="4.31737">
        <ele>512.3</ele>
        <time>2023-02-19T09:48:12Z</time>
      </trkpt>
      <trkpt lat="45.68653" lon="4.31737">
        <ele>512.4</ele>
        <time>2023-02-19T09:48:13Z</time>
      </trkpt>
      <trkpt lat="45.68652" lon="4.31737">
        <ele>512.4</ele>
        <time>2023-02-19T09:48:14Z</time>
      </trkpt>
      <trkpt lat="45.68651" lon="4.31737">
        <ele>512.5</ele>
        <time>2023-02-19T09:48:15Z</time>
      </trkpt>
      <trkpt lat="45.6865" lon="4.31737">
        <ele>512.5</ele>
        <time>2023-02-19T09:48:16Z</time>
      </trkpt>
      <trkpt lat="45.68649" lon="4.31737">
        <ele>512.6</ele>
        <time>2023-02-19T09:48:17Z</time>
      </trkpt>
      <trkpt lat="45.68647" lon="4.31738">
        <ele>512.6</ele>
        <time>2023-02-19T09:48:19Z</time>
      </trkpt>
      <trkpt lat="45.68645" lon="4.31739">
        <ele>512.7</ele>
        <time>2023-02-19T09:48:20Z</time>
      </trkpt>
      <trkpt lat="45.68644" lon="4.3174">
        <ele>512.7</ele>
        <time>2023-02-19T09:48:21Z</time>
      </trkpt>
      <trkpt lat="45.68643" lon="4.31742">
        <ele>512.8</ele>
        <time>2023-02-19T09:48:22Z</time>
      </trkpt>
      <trkpt lat="45.68642" lon="4.31743">
        <ele>512.9</ele>
        <time>2023-02-19T09:48:24Z</time>
      </trkpt>
      <trkpt lat="45.68641" lon="4.31744">
        <ele>512.9</ele>
        <time>2023-02-19T09:48:25Z</time>
      </trkpt>
      <trkpt lat="45.68641" lon="4.31745">
        <ele>513</ele>
        <time>2023-02-19T09:48:27Z</time>
      </trkpt>
      <trkpt lat="45.6864" lon="4.31746">
        <ele>513</ele>
        <time>2023-02-19T09:48:28Z</time>
      </trkpt>
      <trkpt lat="45.68639" lon="4.31747">
        <ele>513.1</ele>
        <time>2023-02-19T09:48:29Z</time>
      </trkpt>
      <trkpt lat="45.68638" lon="4.31749">
        <ele>513.1</ele>
        <time>2023-02-19T09:48:30Z</time>
      </trkpt>
      <trkpt lat="45.68638" lon="4.3175">
        <ele>513.2</ele>
        <time>2023-02-19T09:48:31Z</time>
      </trkpt>
      <trkpt lat="45.68637" lon="4.31751">
        <ele>513.2</ele>
        <time>2023-02-19T09:48:32Z</time>
      </trkpt>
      <trkpt lat="45.68637" lon="4.31752">
        <ele>513.2</ele>
        <time>2023-02-19T09:48:33Z</time>
      </trkpt>
      <trkpt lat="45.68637" lon="4.31753">
        <ele>513.2</ele>
        <time>2023-02-19T09:48:34Z</time>
      </trkpt>
      <trkpt lat="45.68636" lon="4.31754">
        <ele>513.3</ele>
        <time>2023-02-19T09:48:36Z</time>
      </trkpt>
      <trkpt lat="45.68636" lon="4.31755">
        <ele>513.3</ele>
        <time>2023-02-19T09:48:37Z</time>
      </trkpt>
      <trkpt lat="45.68635" lon="4.31756">
        <ele>513.4</ele>
        <time>2023-02-19T09:48:38Z</time>
      </trkpt>
      <trkpt lat="45.68635" lon="4.31758">
        <ele>513.4</ele>
        <time>2023-02-19T09:48:39Z</time>
      </trkpt>
      <trkpt lat="45.68634" lon="4.31759">
        <ele>513.5</ele>
        <time>2023-02-19T09:48:40Z</time>
      </trkpt>
      <trkpt lat="45.68633" lon="4.31761">
        <ele>513.5</ele>
        <time>2023-02-19T09:48:41Z</time>
      </trkpt>
      <trkpt lat="45.68632" lon="4.31763">
        <ele>513.6</ele>
        <time>2023-02-19T09:48:42Z</time>
      </trkpt>
      <trkpt lat="45.68632" lon="4.31765">
        <ele>513.7</ele>
        <time>2023-02-19T09:48:43Z</time>
      </trkpt>
      <trkpt lat="45.68631" lon="4.31767">
        <ele>513.7</ele>
        <time>2023-02-19T09:48:45Z</time>
      </trkpt>
      <trkpt lat="45.6863" lon="4.31768">
        <ele>513.8</ele>
        <time>2023-02-19T09:48:46Z</time>
      </trkpt>
      <trkpt lat="45.68629" lon="4.3177">
        <ele>513.8</ele>
        <time>2023-02-19T09:48:47Z</time>
      </trkpt>
      <trkpt lat="45.68629" lon="4.31772">
        <ele>513.8</ele>
        <time>2023-02-19T09:48:48Z</time>
      </trkpt>
      <trkpt lat="45.68629" lon="4.31773">
        <ele>513.9</ele>
        <time>2023-02-19T09:48:49Z</time>
      </trkpt>
      <trkpt lat="45.68628" lon="4.31775">
        <ele>513.9</ele>
        <time>2023-02-19T09:48:50Z</time>
      </trkpt>
      <trkpt lat="45.68628" lon="4.31775">
        <ele>513.9</ele>
        <time>2023-02-19T09:48:51Z</time>
      </trkpt>
      <trkpt lat="45.68627" lon="4.31776">
        <ele>513.9</ele>
        <time>2023-02-19T09:48:52Z</time>
      </trkpt>
      <trkpt lat="45.68627" lon="4.31778">
        <ele>514</ele>
        <time>2023-02-19T09:48:54Z</time>
      </trkpt>
      <trkpt lat="45.68626" lon="4.31779">
        <ele>514</ele>
        <time>2023-02-19T09:48:55Z</time>
      </trkpt>
      <trkpt lat="45.68625" lon="4.3178">
        <ele>514</ele>
        <time>2023-02-19T09:48:56Z</time>
      </trkpt>
      <trkpt lat="45.68624" lon="4.31781">
        <ele>514</ele>
        <time>2023-02-19T09:48:57Z</time>
      </trkpt>
      <trkpt lat="45.68624" lon="4.31783">
        <ele>514</ele>
        <time>2023-02-19T09:48:58Z</time>
      </trkpt>
      <trkpt lat="45.68623" lon="4.31784">
        <ele>514</ele>
        <time>2023-02-19T09:49:00Z</time>
      </trkpt>
      <trkpt lat="45.68622" lon="4.31785">
        <ele>514.1</ele>
        <time>2023-02-19T09:49:01Z</time>
      </trkpt>
      <trkpt lat="45.68621" lon="4.31788">
        <ele>514.1</ele>
        <time>2023-02-19T09:49:02Z</time>
      </trkpt>
      <trkpt lat="45.68621" lon="4.31789">
        <ele>514.1</ele>
        <time>2023-02-19T09:49:03Z</time>
      </trkpt>
      <trkpt lat="45.6862" lon="4.3179">
        <ele>514.1</ele>
        <time>2023-02-19T09:49:04Z</time>
      </trkpt>
      <trkpt lat="45.68619" lon="4.31791">
        <ele>514.1</ele>
        <time>2023-02-19T09:49:05Z</time>
      </trkpt>
      <trkpt lat="45.68618" lon="4.31792">
        <ele>514.1</ele>
        <time>2023-02-19T09:49:06Z</time>
      </trkpt>
      <trkpt lat="45.68617" lon="4.31792">
        <ele>514.1</ele>
        <time>2023-02-19T09:49:07Z</time>
      </trkpt>
      <trkpt lat="45.68615" lon="4.31792">
        <ele>514.1</ele>
        <time>2023-02-19T09:49:08Z</time>
      </trkpt>
      <trkpt lat="45.68613" lon="4.31792">
        <ele>514.1</ele>
        <time>2023-02-19T09:49:09Z</time>
      </trkpt>
      <trkpt lat="45.68612" lon="4.31793">
        <ele>514.1</ele>
        <time>2023-02-19T09:49:11Z</time>
      </trkpt>
      <trkpt lat="45.68611" lon="4.31793">
        <ele>514.1</ele>
        <time>2023-02-19T09:49:12Z</time>
      </trkpt>
      <trkpt lat="45.68609" lon="4.31793">
        <ele>514.1</ele>
        <time>2023-02-19T09:49:13Z</time>
      </trkpt>
      <trkpt lat="45.68607" lon="4.31794">
        <ele>514.1</ele>
        <time>2023-02-19T09:49:14Z</time>
      </trkpt>
      <trkpt lat="45.68606" lon="4.31794">
        <ele>514.1</ele>
        <time>2023-02-19T09:49:15Z</time>
      </trkpt>
      <trkpt lat="45.68603" lon="4.31794">
        <ele>514.1</ele>
        <time>2023-02-19T09:49:16Z</time>
      </trkpt>
      <trkpt lat="45.68602" lon="4.31794">
        <ele>514.1</ele>
        <time>2023-02-19T09:49:17Z</time>
      </trkpt>
      <trkpt lat="45.686" lon="4.31793">
        <ele>514.1</ele>
        <time>2023-02-19T09:49:19Z</time>
      </trkpt>
      <trkpt lat="45.68599" lon="4.31792">
        <ele>514.1</ele>
        <time>2023-02-19T09:49:20Z</time>
      </trkpt>
      <trkpt lat="45.68597" lon="4.31792">
        <ele>514.1</ele>
        <time>2023-02-19T09:49:21Z</time>
      </trkpt>
      <trkpt lat="45.68596" lon="4.31792">
        <ele>514.1</ele>
        <time>2023-02-19T09:49:22Z</time>
      </trkpt>
      <trkpt lat="45.68594" lon="4.31793">
        <ele>514.1</ele>
        <time>2023-02-19T09:49:25Z</time>
      </trkpt>
      <trkpt lat="45.68593" lon="4.31794">
        <ele>514.1</ele>
        <time>2023-02-19T09:49:27Z</time>
      </trkpt>
      <trkpt lat="45.68593" lon="4.31795">
        <ele>514.1</ele>
        <time>2023-02-19T09:49:28Z</time>
      </trkpt>
      <trkpt lat="45.68592" lon="4.31797">
        <ele>514.1</ele>
        <time>2023-02-19T09:49:29Z</time>
      </trkpt>
      <trkpt lat="45.68592" lon="4.318">
        <ele>514.1</ele>
        <time>2023-02-19T09:49:30Z</time>
      </trkpt>
      <trkpt lat="45.68592" lon="4.31801">
        <ele>514.1</ele>
        <time>2023-02-19T09:49:31Z</time>
      </trkpt>
      <trkpt lat="45.68591" lon="4.31804">
        <ele>514.1</ele>
        <time>2023-02-19T09:49:33Z</time>
      </trkpt>
      <trkpt lat="45.6859" lon="4.31805">
        <ele>514</ele>
        <time>2023-02-19T09:49:34Z</time>
      </trkpt>
      <trkpt lat="45.68589" lon="4.31807">
        <ele>514</ele>
        <time>2023-02-19T09:49:35Z</time>
      </trkpt>
      <trkpt lat="45.68589" lon="4.31808">
        <ele>514</ele>
        <time>2023-02-19T09:49:37Z</time>
      </trkpt>
      <trkpt lat="45.68588" lon="4.31809">
        <ele>514</ele>
        <time>2023-02-19T09:49:38Z</time>
      </trkpt>
      <trkpt lat="45.68587" lon="4.3181">
        <ele>513.9</ele>
        <time>2023-02-19T09:49:39Z</time>
      </trkpt>
      <trkpt lat="45.68586" lon="4.31811">
        <ele>513.9</ele>
        <time>2023-02-19T09:49:40Z</time>
      </trkpt>
      <trkpt lat="45.68584" lon="4.31812">
        <ele>513.8</ele>
        <time>2023-02-19T09:49:41Z</time>
      </trkpt>
      <trkpt lat="45.68583" lon="4.31812">
        <ele>513.7</ele>
        <time>2023-02-19T09:49:42Z</time>
      </trkpt>
      <trkpt lat="45.68582" lon="4.31812">
        <ele>513.7</ele>
        <time>2023-02-19T09:49:43Z</time>
      </trkpt>
      <trkpt lat="45.68581" lon="4.31812">
        <ele>513.6</ele>
        <time>2023-02-19T09:49:44Z</time>
      </trkpt>
      <trkpt lat="45.6858" lon="4.31813">
        <ele>513.5</ele>
        <time>2023-02-19T09:49:45Z</time>
      </trkpt>
      <trkpt lat="45.68579" lon="4.31813">
        <ele>513.5</ele>
        <time>2023-02-19T09:49:46Z</time>
      </trkpt>
      <trkpt lat="45.68578" lon="4.31813">
        <ele>513.4</ele>
        <time>2023-02-19T09:49:48Z</time>
      </trkpt>
      <trkpt lat="45.68578" lon="4.31813">
        <ele>513.4</ele>
        <time>2023-02-19T09:49:49Z</time>
      </trkpt>
      <trkpt lat="45.68577" lon="4.31813">
        <ele>513.3</ele>
        <time>2023-02-19T09:49:50Z</time>
      </trkpt>
      <trkpt lat="45.68576" lon="4.31813">
        <ele>513.2</ele>
        <time>2023-02-19T09:49:51Z</time>
      </trkpt>
      <trkpt lat="45.68576" lon="4.31814">
        <ele>513.2</ele>
        <time>2023-02-19T09:49:53Z</time>
      </trkpt>
      <trkpt lat="45.68575" lon="4.31814">
        <ele>513.1</ele>
        <time>2023-02-19T09:49:54Z</time>
      </trkpt>
      <trkpt lat="45.68574" lon="4.31815">
        <ele>513</ele>
        <time>2023-02-19T09:49:55Z</time>
      </trkpt>
      <trkpt lat="45.68572" lon="4.31816">
        <ele>512.8</ele>
        <time>2023-02-19T09:49:57Z</time>
      </trkpt>
      <trkpt lat="45.68572" lon="4.31817">
        <ele>512.8</ele>
        <time>2023-02-19T09:49:58Z</time>
      </trkpt>
      <trkpt lat="45.68571" lon="4.31817">
        <ele>512.7</ele>
        <time>2023-02-19T09:49:59Z</time>
      </trkpt>
      <trkpt lat="45.68571" lon="4.31817">
        <ele>512.6</ele>
        <time>2023-02-19T09:50:00Z</time>
      </trkpt>
      <trkpt lat="45.6857" lon="4.31818">
        <ele>512.5</ele>
        <time>2023-02-19T09:50:01Z</time>
      </trkpt>
      <trkpt lat="45.68568" lon="4.31819">
        <ele>512.3</ele>
        <time>2023-02-19T09:50:03Z</time>
      </trkpt>
      <trkpt lat="45.68567" lon="4.3182">
        <ele>512.3</ele>
        <time>2023-02-19T09:50:04Z</time>
      </trkpt>
      <trkpt lat="45.68566" lon="4.31821">
        <ele>512.2</ele>
        <time>2023-02-19T09:50:05Z</time>
      </trkpt>
      <trkpt lat="45.68565" lon="4.31822">
        <ele>512</ele>
        <time>2023-02-19T09:50:06Z</time>
      </trkpt>
      <trkpt lat="45.68564" lon="4.31823">
        <ele>511.9</ele>
        <time>2023-02-19T09:50:07Z</time>
      </trkpt>
      <trkpt lat="45.68563" lon="4.31824">
        <ele>511.7</ele>
        <time>2023-02-19T09:50:08Z</time>
      </trkpt>
      <trkpt lat="45.68562" lon="4.31825">
        <ele>511.6</ele>
        <time>2023-02-19T09:50:09Z</time>
      </trkpt>
      <trkpt lat="45.68561" lon="4.31826">
        <ele>511.5</ele>
        <time>2023-02-19T09:50:10Z</time>
      </trkpt>
      <trkpt lat="45.6856" lon="4.31827">
        <ele>511.4</ele>
        <time>2023-02-19T09:50:11Z</time>
      </trkpt>
      <trkpt lat="45.68559" lon="4.31828">
        <ele>511.3</ele>
        <time>2023-02-19T09:50:12Z</time>
      </trkpt>
      <trkpt lat="45.68558" lon="4.31829">
        <ele>511.2</ele>
        <time>2023-02-19T09:50:13Z</time>
      </trkpt>
      <trkpt lat="45.68557" lon="4.31831">
        <ele>511.1</ele>
        <time>2023-02-19T09:50:14Z</time>
      </trkpt>
      <trkpt lat="45.68556" lon="4.31832">
        <ele>511</ele>
        <time>2023-02-19T09:50:15Z</time>
      </trkpt>
      <trkpt lat="45.68555" lon="4.31833">
        <ele>510.8</ele>
        <time>2023-02-19T09:50:17Z</time>
      </trkpt>
      <trkpt lat="45.68554" lon="4.31833">
        <ele>510.7</ele>
        <time>2023-02-19T09:50:18Z</time>
      </trkpt>
      <trkpt lat="45.68553" lon="4.31834">
        <ele>510.6</ele>
        <time>2023-02-19T09:50:19Z</time>
      </trkpt>
      <trkpt lat="45.68552" lon="4.31834">
        <ele>510.5</ele>
        <time>2023-02-19T09:50:20Z</time>
      </trkpt>
      <trkpt lat="45.68551" lon="4.31835">
        <ele>510.5</ele>
        <time>2023-02-19T09:50:21Z</time>
      </trkpt>
      <trkpt lat="45.6855" lon="4.31835">
        <ele>510.4</ele>
        <time>2023-02-19T09:50:22Z</time>
      </trkpt>
      <trkpt lat="45.68549" lon="4.31835">
        <ele>510.3</ele>
        <time>2023-02-19T09:50:23Z</time>
      </trkpt>
      <trkpt lat="45.68548" lon="4.31836">
        <ele>510.2</ele>
        <time>2023-02-19T09:50:24Z</time>
      </trkpt>
      <trkpt lat="45.68548" lon="4.31836">
        <ele>510.2</ele>
        <time>2023-02-19T09:50:25Z</time>
      </trkpt>
      <trkpt lat="45.68547" lon="4.31836">
        <ele>510.1</ele>
        <time>2023-02-19T09:50:26Z</time>
      </trkpt>
      <trkpt lat="45.68544" lon="4.31838">
        <ele>509.9</ele>
        <time>2023-02-19T09:50:28Z</time>
      </trkpt>
      <trkpt lat="45.68544" lon="4.31839">
        <ele>509.8</ele>
        <time>2023-02-19T09:50:29Z</time>
      </trkpt>
      <trkpt lat="45.68542" lon="4.3184">
        <ele>509.7</ele>
        <time>2023-02-19T09:50:30Z</time>
      </trkpt>
      <trkpt lat="45.68541" lon="4.31841">
        <ele>509.6</ele>
        <time>2023-02-19T09:50:31Z</time>
      </trkpt>
      <trkpt lat="45.68539" lon="4.31843">
        <ele>509.4</ele>
        <time>2023-02-19T09:50:32Z</time>
      </trkpt>
      <trkpt lat="45.68538" lon="4.31845">
        <ele>509.3</ele>
        <time>2023-02-19T09:50:34Z</time>
      </trkpt>
      <trkpt lat="45.68537" lon="4.31847">
        <ele>509.1</ele>
        <time>2023-02-19T09:50:35Z</time>
      </trkpt>
      <trkpt lat="45.68536" lon="4.31849">
        <ele>509</ele>
        <time>2023-02-19T09:50:36Z</time>
      </trkpt>
      <trkpt lat="45.68534" lon="4.31853">
        <ele>508.8</ele>
        <time>2023-02-19T09:50:37Z</time>
      </trkpt>
      <trkpt lat="45.68534" lon="4.31854">
        <ele>508.7</ele>
        <time>2023-02-19T09:50:38Z</time>
      </trkpt>
      <trkpt lat="45.68533" lon="4.31856">
        <ele>508.6</ele>
        <time>2023-02-19T09:50:39Z</time>
      </trkpt>
      <trkpt lat="45.68532" lon="4.31858">
        <ele>508.5</ele>
        <time>2023-02-19T09:50:40Z</time>
      </trkpt>
      <trkpt lat="45.68531" lon="4.31859">
        <ele>508.4</ele>
        <time>2023-02-19T09:50:41Z</time>
      </trkpt>
      <trkpt lat="45.6853" lon="4.31861">
        <ele>508.3</ele>
        <time>2023-02-19T09:50:42Z</time>
      </trkpt>
      <trkpt lat="45.68528" lon="4.31865">
        <ele>508.1</ele>
        <time>2023-02-19T09:50:44Z</time>
      </trkpt>
      <trkpt lat="45.68527" lon="4.31866">
        <ele>508.1</ele>
        <time>2023-02-19T09:50:45Z</time>
      </trkpt>
      <trkpt lat="45.68526" lon="4.31868">
        <ele>508</ele>
        <time>2023-02-19T09:50:46Z</time>
      </trkpt>
      <trkpt lat="45.68526" lon="4.31869">
        <ele>507.9</ele>
        <time>2023-02-19T09:50:47Z</time>
      </trkpt>
      <trkpt lat="45.68524" lon="4.31872">
        <ele>507.8</ele>
        <time>2023-02-19T09:50:48Z</time>
      </trkpt>
      <trkpt lat="45.68524" lon="4.31873">
        <ele>507.7</ele>
        <time>2023-02-19T09:50:50Z</time>
      </trkpt>
      <trkpt lat="45.68523" lon="4.31875">
        <ele>507.6</ele>
        <time>2023-02-19T09:50:51Z</time>
      </trkpt>
      <trkpt lat="45.68522" lon="4.31876">
        <ele>507.6</ele>
        <time>2023-02-19T09:50:52Z</time>
      </trkpt>
      <trkpt lat="45.68522" lon="4.31877">
        <ele>507.5</ele>
        <time>2023-02-19T09:50:53Z</time>
      </trkpt>
      <trkpt lat="45.68521" lon="4.31879">
        <ele>507.4</ele>
        <time>2023-02-19T09:50:54Z</time>
      </trkpt>
      <trkpt lat="45.68521" lon="4.3188">
        <ele>507.4</ele>
        <time>2023-02-19T09:50:55Z</time>
      </trkpt>
      <trkpt lat="45.6852" lon="4.3188">
        <ele>507.3</ele>
        <time>2023-02-19T09:50:56Z</time>
      </trkpt>
      <trkpt lat="45.6852" lon="4.31882">
        <ele>507.3</ele>
        <time>2023-02-19T09:50:57Z</time>
      </trkpt>
      <trkpt lat="45.68518" lon="4.31884">
        <ele>507.2</ele>
        <time>2023-02-19T09:50:58Z</time>
      </trkpt>
      <trkpt lat="45.68518" lon="4.31885">
        <ele>507.1</ele>
        <time>2023-02-19T09:50:59Z</time>
      </trkpt>
      <trkpt lat="45.68517" lon="4.31887">
        <ele>507</ele>
        <time>2023-02-19T09:51:00Z</time>
      </trkpt>
      <trkpt lat="45.68515" lon="4.3189">
        <ele>506.8</ele>
        <time>2023-02-19T09:51:02Z</time>
      </trkpt>
      <trkpt lat="45.68515" lon="4.31891">
        <ele>506.8</ele>
        <time>2023-02-19T09:51:03Z</time>
      </trkpt>
      <trkpt lat="45.68514" lon="4.31893">
        <ele>506.7</ele>
        <time>2023-02-19T09:51:04Z</time>
      </trkpt>
      <trkpt lat="45.68513" lon="4.31894">
        <ele>506.5</ele>
        <time>2023-02-19T09:51:05Z</time>
      </trkpt>
      <trkpt lat="45.68512" lon="4.31896">
        <ele>506.4</ele>
        <time>2023-02-19T09:51:06Z</time>
      </trkpt>
      <trkpt lat="45.68511" lon="4.31898">
        <ele>506.3</ele>
        <time>2023-02-19T09:51:07Z</time>
      </trkpt>
      <trkpt lat="45.6851" lon="4.319">
        <ele>506.2</ele>
        <time>2023-02-19T09:51:08Z</time>
      </trkpt>
      <trkpt lat="45.68509" lon="4.31902">
        <ele>506.1</ele>
        <time>2023-02-19T09:51:09Z</time>
      </trkpt>
      <trkpt lat="45.68508" lon="4.31905">
        <ele>505.9</ele>
        <time>2023-02-19T09:51:10Z</time>
      </trkpt>
      <trkpt lat="45.68507" lon="4.31907">
        <ele>505.8</ele>
        <time>2023-02-19T09:51:11Z</time>
      </trkpt>
      <trkpt lat="45.68506" lon="4.31909">
        <ele>505.6</ele>
        <time>2023-02-19T09:51:13Z</time>
      </trkpt>
      <trkpt lat="45.68505" lon="4.31911">
        <ele>505.5</ele>
        <time>2023-02-19T09:51:14Z</time>
      </trkpt>
      <trkpt lat="45.68505" lon="4.31913">
        <ele>505.4</ele>
        <time>2023-02-19T09:51:15Z</time>
      </trkpt>
      <trkpt lat="45.68504" lon="4.31915">
        <ele>505.2</ele>
        <time>2023-02-19T09:51:16Z</time>
      </trkpt>
      <trkpt lat="45.68503" lon="4.31918">
        <ele>505.1</ele>
        <time>2023-02-19T09:51:17Z</time>
      </trkpt>
      <trkpt lat="45.68502" lon="4.31919">
        <ele>505</ele>
        <time>2023-02-19T09:51:18Z</time>
      </trkpt>
      <trkpt lat="45.68502" lon="4.31921">
        <ele>504.9</ele>
        <time>2023-02-19T09:51:19Z</time>
      </trkpt>
      <trkpt lat="45.68501" lon="4.31923">
        <ele>504.8</ele>
        <time>2023-02-19T09:51:20Z</time>
      </trkpt>
      <trkpt lat="45.685" lon="4.31925">
        <ele>504.6</ele>
        <time>2023-02-19T09:51:22Z</time>
      </trkpt>
      <trkpt lat="45.68499" lon="4.31926">
        <ele>504.5</ele>
        <time>2023-02-19T09:51:23Z</time>
      </trkpt>
      <trkpt lat="45.68499" lon="4.31928">
        <ele>504.5</ele>
        <time>2023-02-19T09:51:24Z</time>
      </trkpt>
      <trkpt lat="45.68498" lon="4.31929">
        <ele>504.4</ele>
        <time>2023-02-19T09:51:26Z</time>
      </trkpt>
      <trkpt lat="45.68497" lon="4.31931">
        <ele>504.3</ele>
        <time>2023-02-19T09:51:27Z</time>
      </trkpt>
      <trkpt lat="45.68496" lon="4.31933">
        <ele>504.2</ele>
        <time>2023-02-19T09:51:28Z</time>
      </trkpt>
      <trkpt lat="45.68496" lon="4.31934">
        <ele>504.1</ele>
        <time>2023-02-19T09:51:29Z</time>
      </trkpt>
      <trkpt lat="45.68495" lon="4.31936">
        <ele>504</ele>
        <time>2023-02-19T09:51:30Z</time>
      </trkpt>
      <trkpt lat="45.68494" lon="4.31939">
        <ele>503.8</ele>
        <time>2023-02-19T09:51:32Z</time>
      </trkpt>
      <trkpt lat="45.68493" lon="4.31942">
        <ele>503.7</ele>
        <time>2023-02-19T09:51:34Z</time>
      </trkpt>
      <trkpt lat="45.68493" lon="4.31942">
        <ele>503.7</ele>
        <time>2023-02-19T09:51:35Z</time>
      </trkpt>
      <trkpt lat="45.68492" lon="4.31944">
        <ele>503.6</ele>
        <time>2023-02-19T09:51:36Z</time>
      </trkpt>
      <trkpt lat="45.68491" lon="4.31945">
        <ele>503.5</ele>
        <time>2023-02-19T09:51:37Z</time>
      </trkpt>
      <trkpt lat="45.68491" lon="4.31946">
        <ele>503.5</ele>
        <time>2023-02-19T09:51:38Z</time>
      </trkpt>
      <trkpt lat="45.6849" lon="4.31947">
        <ele>503.4</ele>
        <time>2023-02-19T09:51:39Z</time>
      </trkpt>
      <trkpt lat="45.6849" lon="4.31948">
        <ele>503.4</ele>
        <time>2023-02-19T09:51:40Z</time>
      </trkpt>
      <trkpt lat="45.6849" lon="4.31948">
        <ele>503.3</ele>
        <time>2023-02-19T09:51:41Z</time>
      </trkpt>
      <trkpt lat="45.68489" lon="4.31949">
        <ele>503.3</ele>
        <time>2023-02-19T09:51:42Z</time>
      </trkpt>
      <trkpt lat="45.68488" lon="4.3195">
        <ele>503.2</ele>
        <time>2023-02-19T09:51:44Z</time>
      </trkpt>
      <trkpt lat="45.68487" lon="4.31952">
        <ele>503</ele>
        <time>2023-02-19T09:51:45Z</time>
      </trkpt>
      <trkpt lat="45.68487" lon="4.31954">
        <ele>502.9</ele>
        <time>2023-02-19T09:51:46Z</time>
      </trkpt>
      <trkpt lat="45.68486" lon="4.31955">
        <ele>502.8</ele>
        <time>2023-02-19T09:51:47Z</time>
      </trkpt>
      <trkpt lat="45.68485" lon="4.31957">
        <ele>502.6</ele>
        <time>2023-02-19T09:51:49Z</time>
      </trkpt>
      <trkpt lat="45.68483" lon="4.31959">
        <ele>502.4</ele>
        <time>2023-02-19T09:51:50Z</time>
      </trkpt>
      <trkpt lat="45.68482" lon="4.3196">
        <ele>502.3</ele>
        <time>2023-02-19T09:51:51Z</time>
      </trkpt>
      <trkpt lat="45.68481" lon="4.31961">
        <ele>502.1</ele>
        <time>2023-02-19T09:51:52Z</time>
      </trkpt>
      <trkpt lat="45.6848" lon="4.31962">
        <ele>501.9</ele>
        <time>2023-02-19T09:51:53Z</time>
      </trkpt>
      <trkpt lat="45.68479" lon="4.31963">
        <ele>501.8</ele>
        <time>2023-02-19T09:51:54Z</time>
      </trkpt>
      <trkpt lat="45.68478" lon="4.31964">
        <ele>501.7</ele>
        <time>2023-02-19T09:51:55Z</time>
      </trkpt>
      <trkpt lat="45.68476" lon="4.31965">
        <ele>500.5</ele>
        <time>2023-02-19T09:51:57Z</time>
      </trkpt>
      <trkpt lat="45.68476" lon="4.31965">
        <ele>500.5</ele>
        <time>2023-02-19T09:51:58Z</time>
      </trkpt>
      <trkpt lat="45.68475" lon="4.31966">
        <ele>500.5</ele>
        <time>2023-02-19T09:51:59Z</time>
      </trkpt>
      <trkpt lat="45.68474" lon="4.31967">
        <ele>500.5</ele>
        <time>2023-02-19T09:52:00Z</time>
      </trkpt>
      <trkpt lat="45.68473" lon="4.31969">
        <ele>500.5</ele>
        <time>2023-02-19T09:52:01Z</time>
      </trkpt>
      <trkpt lat="45.68472" lon="4.3197">
        <ele>500.5</ele>
        <time>2023-02-19T09:52:02Z</time>
      </trkpt>
      <trkpt lat="45.68471" lon="4.31972">
        <ele>500.5</ele>
        <time>2023-02-19T09:52:04Z</time>
      </trkpt>
      <trkpt lat="45.6847" lon="4.31972">
        <ele>500.5</ele>
        <time>2023-02-19T09:52:05Z</time>
      </trkpt>
      <trkpt lat="45.68469" lon="4.31973">
        <ele>500.5</ele>
        <time>2023-02-19T09:52:06Z</time>
      </trkpt>
      <trkpt lat="45.68467" lon="4.31973">
        <ele>500.5</ele>
        <time>2023-02-19T09:52:07Z</time>
      </trkpt>
      <trkpt lat="45.68466" lon="4.31973">
        <ele>500.5</ele>
        <time>2023-02-19T09:52:08Z</time>
      </trkpt>
      <trkpt lat="45.68464" lon="4.31974">
        <ele>500.5</ele>
        <time>2023-02-19T09:52:09Z</time>
      </trkpt>
      <trkpt lat="45.68463" lon="4.31974">
        <ele>500.5</ele>
        <time>2023-02-19T09:52:10Z</time>
      </trkpt>
      <trkpt lat="45.68462" lon="4.31975">
        <ele>500.5</ele>
        <time>2023-02-19T09:52:11Z</time>
      </trkpt>
      <trkpt lat="45.68461" lon="4.31975">
        <ele>500.5</ele>
        <time>2023-02-19T09:52:12Z</time>
      </trkpt>
      <trkpt lat="45.68459" lon="4.31975">
        <ele>500.5</ele>
        <time>2023-02-19T09:52:13Z</time>
      </trkpt>
      <trkpt lat="45.68458" lon="4.31976">
        <ele>500.6</ele>
        <time>2023-02-19T09:52:15Z</time>
      </trkpt>
      <trkpt lat="45.68456" lon="4.31976">
        <ele>500.6</ele>
        <time>2023-02-19T09:52:16Z</time>
      </trkpt>
      <trkpt lat="45.68455" lon="4.31976">
        <ele>500.6</ele>
        <time>2023-02-19T09:52:17Z</time>
      </trkpt>
      <trkpt lat="45.68453" lon="4.31976">
        <ele>500.7</ele>
        <time>2023-02-19T09:52:18Z</time>
      </trkpt>
      <trkpt lat="45.68452" lon="4.31976">
        <ele>500.7</ele>
        <time>2023-02-19T09:52:19Z</time>
      </trkpt>
      <trkpt lat="45.6845" lon="4.31976">
        <ele>500.8</ele>
        <time>2023-02-19T09:52:20Z</time>
      </trkpt>
      <trkpt lat="45.68449" lon="4.31977">
        <ele>500.9</ele>
        <time>2023-02-19T09:52:21Z</time>
      </trkpt>
      <trkpt lat="45.68448" lon="4.31977">
        <ele>500.9</ele>
        <time>2023-02-19T09:52:22Z</time>
      </trkpt>
      <trkpt lat="45.68447" lon="4.31977">
        <ele>501</ele>
        <time>2023-02-19T09:52:24Z</time>
      </trkpt>
      <trkpt lat="45.68446" lon="4.31978">
        <ele>501</ele>
        <time>2023-02-19T09:52:25Z</time>
      </trkpt>
      <trkpt lat="45.68444" lon="4.31978">
        <ele>501.1</ele>
        <time>2023-02-19T09:52:26Z</time>
      </trkpt>
      <trkpt lat="45.68443" lon="4.31978">
        <ele>501.2</ele>
        <time>2023-02-19T09:52:27Z</time>
      </trkpt>
      <trkpt lat="45.68441" lon="4.31979">
        <ele>501.3</ele>
        <time>2023-02-19T09:52:28Z</time>
      </trkpt>
      <trkpt lat="45.6844" lon="4.31979">
        <ele>501.4</ele>
        <time>2023-02-19T09:52:29Z</time>
      </trkpt>
      <trkpt lat="45.68438" lon="4.3198">
        <ele>501.5</ele>
        <time>2023-02-19T09:52:30Z</time>
      </trkpt>
      <trkpt lat="45.68436" lon="4.3198">
        <ele>501.6</ele>
        <time>2023-02-19T09:52:31Z</time>
      </trkpt>
      <trkpt lat="45.68435" lon="4.3198">
        <ele>501.7</ele>
        <time>2023-02-19T09:52:32Z</time>
      </trkpt>
      <trkpt lat="45.68434" lon="4.31981">
        <ele>501.8</ele>
        <time>2023-02-19T09:52:33Z</time>
      </trkpt>
      <trkpt lat="45.68432" lon="4.31981">
        <ele>501.9</ele>
        <time>2023-02-19T09:52:34Z</time>
      </trkpt>
      <trkpt lat="45.6843" lon="4.31982">
        <ele>502</ele>
        <time>2023-02-19T09:52:35Z</time>
      </trkpt>
      <trkpt lat="45.68429" lon="4.31982">
        <ele>502.1</ele>
        <time>2023-02-19T09:52:37Z</time>
      </trkpt>
      <trkpt lat="45.68427" lon="4.31983">
        <ele>502.2</ele>
        <time>2023-02-19T09:52:38Z</time>
      </trkpt>
      <trkpt lat="45.68426" lon="4.31983">
        <ele>502.3</ele>
        <time>2023-02-19T09:52:39Z</time>
      </trkpt>
      <trkpt lat="45.68424" lon="4.31983">
        <ele>502.4</ele>
        <time>2023-02-19T09:52:40Z</time>
      </trkpt>
      <trkpt lat="45.68422" lon="4.31983">
        <ele>502.5</ele>
        <time>2023-02-19T09:52:41Z</time>
      </trkpt>
      <trkpt lat="45.68422" lon="4.31983">
        <ele>502.6</ele>
        <time>2023-02-19T09:52:42Z</time>
      </trkpt>
      <trkpt lat="45.68421" lon="4.31983">
        <ele>502.7</ele>
        <time>2023-02-19T09:52:43Z</time>
      </trkpt>
      <trkpt lat="45.6842" lon="4.31983">
        <ele>502.7</ele>
        <time>2023-02-19T09:52:44Z</time>
      </trkpt>
      <trkpt lat="45.68417" lon="4.31983">
        <ele>502.9</ele>
        <time>2023-02-19T09:52:46Z</time>
      </trkpt>
      <trkpt lat="45.68414" lon="4.31983">
        <ele>503.1</ele>
        <time>2023-02-19T09:52:48Z</time>
      </trkpt>
      <trkpt lat="45.68413" lon="4.31983">
        <ele>503.2</ele>
        <time>2023-02-19T09:52:49Z</time>
      </trkpt>
      <trkpt lat="45.68412" lon="4.31983">
        <ele>503.3</ele>
        <time>2023-02-19T09:52:50Z</time>
      </trkpt>
      <trkpt lat="45.6841" lon="4.31983">
        <ele>503.4</ele>
        <time>2023-02-19T09:52:51Z</time>
      </trkpt>
      <trkpt lat="45.68409" lon="4.31982">
        <ele>503.5</ele>
        <time>2023-02-19T09:52:53Z</time>
      </trkpt>
      <trkpt lat="45.68407" lon="4.31982">
        <ele>503.6</ele>
        <time>2023-02-19T09:52:54Z</time>
      </trkpt>
      <trkpt lat="45.68405" lon="4.31982">
        <ele>503.8</ele>
        <time>2023-02-19T09:52:55Z</time>
      </trkpt>
      <trkpt lat="45.68404" lon="4.31983">
        <ele>503.8</ele>
        <time>2023-02-19T09:52:56Z</time>
      </trkpt>
      <trkpt lat="45.68402" lon="4.31983">
        <ele>504</ele>
        <time>2023-02-19T09:52:57Z</time>
      </trkpt>
      <trkpt lat="45.68401" lon="4.31983">
        <ele>504.1</ele>
        <time>2023-02-19T09:52:58Z</time>
      </trkpt>
      <trkpt lat="45.684" lon="4.31983">
        <ele>504.1</ele>
        <time>2023-02-19T09:52:59Z</time>
      </trkpt>
      <trkpt lat="45.68398" lon="4.31983">
        <ele>504.3</ele>
        <time>2023-02-19T09:53:00Z</time>
      </trkpt>
      <trkpt lat="45.68397" lon="4.31983">
        <ele>504.4</ele>
        <time>2023-02-19T09:53:01Z</time>
      </trkpt>
      <trkpt lat="45.68395" lon="4.31983">
        <ele>504.5</ele>
        <time>2023-02-19T09:53:03Z</time>
      </trkpt>
      <trkpt lat="45.68394" lon="4.31983">
        <ele>504.6</ele>
        <time>2023-02-19T09:53:04Z</time>
      </trkpt>
      <trkpt lat="45.68392" lon="4.31983">
        <ele>504.8</ele>
        <time>2023-02-19T09:53:05Z</time>
      </trkpt>
      <trkpt lat="45.68391" lon="4.31983">
        <ele>504.9</ele>
        <time>2023-02-19T09:53:06Z</time>
      </trkpt>
      <trkpt lat="45.68389" lon="4.31982">
        <ele>505</ele>
        <time>2023-02-19T09:53:07Z</time>
      </trkpt>
      <trkpt lat="45.68388" lon="4.31981">
        <ele>505.1</ele>
        <time>2023-02-19T09:53:08Z</time>
      </trkpt>
      <trkpt lat="45.68387" lon="4.31981">
        <ele>505.2</ele>
        <time>2023-02-19T09:53:09Z</time>
      </trkpt>
      <trkpt lat="45.68385" lon="4.3198">
        <ele>505.4</ele>
        <time>2023-02-19T09:53:10Z</time>
      </trkpt>
      <trkpt lat="45.68384" lon="4.31979">
        <ele>505.6</ele>
        <time>2023-02-19T09:53:11Z</time>
      </trkpt>
      <trkpt lat="45.68383" lon="4.31978">
        <ele>505.6</ele>
        <time>2023-02-19T09:53:12Z</time>
      </trkpt>
      <trkpt lat="45.68382" lon="4.31977">
        <ele>505.7</ele>
        <time>2023-02-19T09:53:13Z</time>
      </trkpt>
      <trkpt lat="45.68381" lon="4.31976">
        <ele>505.9</ele>
        <time>2023-02-19T09:53:15Z</time>
      </trkpt>
      <trkpt lat="45.6838" lon="4.31976">
        <ele>506</ele>
        <time>2023-02-19T09:53:16Z</time>
      </trkpt>
      <trkpt lat="45.68379" lon="4.31975">
        <ele>506.1</ele>
        <time>2023-02-19T09:53:17Z</time>
      </trkpt>
      <trkpt lat="45.68378" lon="4.31975">
        <ele>506.2</ele>
        <time>2023-02-19T09:53:18Z</time>
      </trkpt>
      <trkpt lat="45.68376" lon="4.31974">
        <ele>506.3</ele>
        <time>2023-02-19T09:53:20Z</time>
      </trkpt>
      <trkpt lat="45.68375" lon="4.31974">
        <ele>506.4</ele>
        <time>2023-02-19T09:53:21Z</time>
      </trkpt>
      <trkpt lat="45.68374" lon="4.31973">
        <ele>506.6</ele>
        <time>2023-02-19T09:53:22Z</time>
      </trkpt>
      <trkpt lat="45.68372" lon="4.31973">
        <ele>506.7</ele>
        <time>2023-02-19T09:53:23Z</time>
      </trkpt>
      <trkpt lat="45.68371" lon="4.31972">
        <ele>506.8</ele>
        <time>2023-02-19T09:53:24Z</time>
      </trkpt>
      <trkpt lat="45.68369" lon="4.31971">
        <ele>507</ele>
        <time>2023-02-19T09:53:25Z</time>
      </trkpt>
      <trkpt lat="45.68368" lon="4.31971">
        <ele>507.1</ele>
        <time>2023-02-19T09:53:26Z</time>
      </trkpt>
      <trkpt lat="45.68367" lon="4.3197">
        <ele>507.2</ele>
        <time>2023-02-19T09:53:27Z</time>
      </trkpt>
      <trkpt lat="45.68366" lon="4.3197">
        <ele>507.3</ele>
        <time>2023-02-19T09:53:28Z</time>
      </trkpt>
      <trkpt lat="45.68365" lon="4.31969">
        <ele>507.4</ele>
        <time>2023-02-19T09:53:29Z</time>
      </trkpt>
      <trkpt lat="45.68364" lon="4.31969">
        <ele>507.5</ele>
        <time>2023-02-19T09:53:31Z</time>
      </trkpt>
      <trkpt lat="45.68362" lon="4.31968">
        <ele>507.6</ele>
        <time>2023-02-19T09:53:32Z</time>
      </trkpt>
      <trkpt lat="45.68361" lon="4.31968">
        <ele>507.7</ele>
        <time>2023-02-19T09:53:33Z</time>
      </trkpt>
      <trkpt lat="45.68359" lon="4.31967">
        <ele>507.9</ele>
        <time>2023-02-19T09:53:34Z</time>
      </trkpt>
      <trkpt lat="45.68358" lon="4.31966">
        <ele>508</ele>
        <time>2023-02-19T09:53:35Z</time>
      </trkpt>
      <trkpt lat="45.68357" lon="4.31965">
        <ele>508.1</ele>
        <time>2023-02-19T09:53:36Z</time>
      </trkpt>
      <trkpt lat="45.68355" lon="4.31965">
        <ele>508.2</ele>
        <time>2023-02-19T09:53:37Z</time>
      </trkpt>
      <trkpt lat="45.68354" lon="4.31964">
        <ele>508.3</ele>
        <time>2023-02-19T09:53:38Z</time>
      </trkpt>
      <trkpt lat="45.68351" lon="4.31963">
        <ele>508.5</ele>
        <time>2023-02-19T09:53:40Z</time>
      </trkpt>
      <trkpt lat="45.68349" lon="4.31963">
        <ele>508.6</ele>
        <time>2023-02-19T09:53:41Z</time>
      </trkpt>
      <trkpt lat="45.68348" lon="4.31963">
        <ele>508.7</ele>
        <time>2023-02-19T09:53:42Z</time>
      </trkpt>
      <trkpt lat="45.68347" lon="4.31963">
        <ele>508.7</ele>
        <time>2023-02-19T09:53:43Z</time>
      </trkpt>
      <trkpt lat="45.68345" lon="4.31964">
        <ele>508.8</ele>
        <time>2023-02-19T09:53:44Z</time>
      </trkpt>
      <trkpt lat="45.68344" lon="4.31964">
        <ele>508.9</ele>
        <time>2023-02-19T09:53:45Z</time>
      </trkpt>
      <trkpt lat="45.68344" lon="4.31964">
        <ele>509</ele>
        <time>2023-02-19T09:53:46Z</time>
      </trkpt>
      <trkpt lat="45.68342" lon="4.31964">
        <ele>509</ele>
        <time>2023-02-19T09:53:48Z</time>
      </trkpt>
      <trkpt lat="45.68341" lon="4.31964">
        <ele>509.1</ele>
        <time>2023-02-19T09:53:49Z</time>
      </trkpt>
      <trkpt lat="45.6834" lon="4.31963">
        <ele>509.2</ele>
        <time>2023-02-19T09:53:50Z</time>
      </trkpt>
      <trkpt lat="45.68339" lon="4.31962">
        <ele>509.3</ele>
        <time>2023-02-19T09:53:51Z</time>
      </trkpt>
      <trkpt lat="45.68338" lon="4.31961">
        <ele>509.3</ele>
        <time>2023-02-19T09:53:52Z</time>
      </trkpt>
      <trkpt lat="45.68337" lon="4.31959">
        <ele>509.4</ele>
        <time>2023-02-19T09:53:53Z</time>
      </trkpt>
      <trkpt lat="45.68336" lon="4.31958">
        <ele>509.4</ele>
        <time>2023-02-19T09:53:54Z</time>
      </trkpt>
      <trkpt lat="45.68334" lon="4.31955">
        <ele>509.6</ele>
        <time>2023-02-19T09:53:56Z</time>
      </trkpt>
      <trkpt lat="45.68333" lon="4.31954">
        <ele>509.6</ele>
        <time>2023-02-19T09:53:57Z</time>
      </trkpt>
      <trkpt lat="45.68332" lon="4.31953">
        <ele>509.7</ele>
        <time>2023-02-19T09:53:58Z</time>
      </trkpt>
      <trkpt lat="45.68331" lon="4.31951">
        <ele>509.7</ele>
        <time>2023-02-19T09:54:00Z</time>
      </trkpt>
      <trkpt lat="45.6833" lon="4.31949">
        <ele>509.8</ele>
        <time>2023-02-19T09:54:01Z</time>
      </trkpt>
      <trkpt lat="45.68329" lon="4.31947">
        <ele>509.9</ele>
        <time>2023-02-19T09:54:02Z</time>
      </trkpt>
      <trkpt lat="45.68328" lon="4.31945">
        <ele>509.9</ele>
        <time>2023-02-19T09:54:03Z</time>
      </trkpt>
      <trkpt lat="45.68328" lon="4.31943">
        <ele>509.9</ele>
        <time>2023-02-19T09:54:04Z</time>
      </trkpt>
      <trkpt lat="45.68327" lon="4.31942">
        <ele>510</ele>
        <time>2023-02-19T09:54:06Z</time>
      </trkpt>
      <trkpt lat="45.68326" lon="4.3194">
        <ele>510</ele>
        <time>2023-02-19T09:54:07Z</time>
      </trkpt>
      <trkpt lat="45.68325" lon="4.31938">
        <ele>510.1</ele>
        <time>2023-02-19T09:54:08Z</time>
      </trkpt>
      <trkpt lat="45.68324" lon="4.31936">
        <ele>510.2</ele>
        <time>2023-02-19T09:54:09Z</time>
      </trkpt>
      <trkpt lat="45.68323" lon="4.31934">
        <ele>510.2</ele>
        <time>2023-02-19T09:54:10Z</time>
      </trkpt>
      <trkpt lat="45.68322" lon="4.31933">
        <ele>510.3</ele>
        <time>2023-02-19T09:54:11Z</time>
      </trkpt>
      <trkpt lat="45.68321" lon="4.31931">
        <ele>510.3</ele>
        <time>2023-02-19T09:54:12Z</time>
      </trkpt>
      <trkpt lat="45.6832" lon="4.31929">
        <ele>510.3</ele>
        <time>2023-02-19T09:54:13Z</time>
      </trkpt>
      <trkpt lat="45.6832" lon="4.31927">
        <ele>510.4</ele>
        <time>2023-02-19T09:54:14Z</time>
      </trkpt>
      <trkpt lat="45.68319" lon="4.31925">
        <ele>510.4</ele>
        <time>2023-02-19T09:54:15Z</time>
      </trkpt>
      <trkpt lat="45.68319" lon="4.31923">
        <ele>510.4</ele>
        <time>2023-02-19T09:54:16Z</time>
      </trkpt>
      <trkpt lat="45.68318" lon="4.31922">
        <ele>510.4</ele>
        <time>2023-02-19T09:54:17Z</time>
      </trkpt>
      <trkpt lat="45.68318" lon="4.3192">
        <ele>510.4</ele>
        <time>2023-02-19T09:54:18Z</time>
      </trkpt>
      <trkpt lat="45.68317" lon="4.31918">
        <ele>510.5</ele>
        <time>2023-02-19T09:54:20Z</time>
      </trkpt>
      <trkpt lat="45.68316" lon="4.31916">
        <ele>510.5</ele>
        <time>2023-02-19T09:54:21Z</time>
      </trkpt>
      <trkpt lat="45.68316" lon="4.31913">
        <ele>510.5</ele>
        <time>2023-02-19T09:54:23Z</time>
      </trkpt>
      <trkpt lat="45.68315" lon="4.31912">
        <ele>510.5</ele>
        <time>2023-02-19T09:54:24Z</time>
      </trkpt>
      <trkpt lat="45.68315" lon="4.31908">
        <ele>510.5</ele>
        <time>2023-02-19T09:54:25Z</time>
      </trkpt>
      <trkpt lat="45.68315" lon="4.31907">
        <ele>510.5</ele>
        <time>2023-02-19T09:54:26Z</time>
      </trkpt>
      <trkpt lat="45.68315" lon="4.31906">
        <ele>510.5</ele>
        <time>2023-02-19T09:54:27Z</time>
      </trkpt>
      <trkpt lat="45.68314" lon="4.31903">
        <ele>510.5</ele>
        <time>2023-02-19T09:54:28Z</time>
      </trkpt>
      <trkpt lat="45.68313" lon="4.31902">
        <ele>510.5</ele>
        <time>2023-02-19T09:54:29Z</time>
      </trkpt>
      <trkpt lat="45.68313" lon="4.31901">
        <ele>510.4</ele>
        <time>2023-02-19T09:54:30Z</time>
      </trkpt>
      <trkpt lat="45.68312" lon="4.31899">
        <ele>510.4</ele>
        <time>2023-02-19T09:54:31Z</time>
      </trkpt>
      <trkpt lat="45.68312" lon="4.31897">
        <ele>510.4</ele>
        <time>2023-02-19T09:54:32Z</time>
      </trkpt>
      <trkpt lat="45.68312" lon="4.31896">
        <ele>510.4</ele>
        <time>2023-02-19T09:54:33Z</time>
      </trkpt>
      <trkpt lat="45.68312" lon="4.31895">
        <ele>510.3</ele>
        <time>2023-02-19T09:54:35Z</time>
      </trkpt>
      <trkpt lat="45.68311" lon="4.31894">
        <ele>510.3</ele>
        <time>2023-02-19T09:54:36Z</time>
      </trkpt>
      <trkpt lat="45.68311" lon="4.31892">
        <ele>510.3</ele>
        <time>2023-02-19T09:54:37Z</time>
      </trkpt>
      <trkpt lat="45.6831" lon="4.3189">
        <ele>510.2</ele>
        <time>2023-02-19T09:54:38Z</time>
      </trkpt>
      <trkpt lat="45.6831" lon="4.31889">
        <ele>510.2</ele>
        <time>2023-02-19T09:54:40Z</time>
      </trkpt>
      <trkpt lat="45.6831" lon="4.31887">
        <ele>510.1</ele>
        <time>2023-02-19T09:54:41Z</time>
      </trkpt>
      <trkpt lat="45.68309" lon="4.31885">
        <ele>510</ele>
        <time>2023-02-19T09:54:42Z</time>
      </trkpt>
      <trkpt lat="45.68308" lon="4.31884">
        <ele>510</ele>
        <time>2023-02-19T09:54:43Z</time>
      </trkpt>
      <trkpt lat="45.68306" lon="4.31882">
        <ele>509.9</ele>
        <time>2023-02-19T09:54:44Z</time>
      </trkpt>
      <trkpt lat="45.68306" lon="4.3188">
        <ele>509.8</ele>
        <time>2023-02-19T09:54:45Z</time>
      </trkpt>
      <trkpt lat="45.68304" lon="4.31878">
        <ele>509.7</ele>
        <time>2023-02-19T09:54:46Z</time>
      </trkpt>
      <trkpt lat="45.68303" lon="4.31876">
        <ele>509.6</ele>
        <time>2023-02-19T09:54:47Z</time>
      </trkpt>
      <trkpt lat="45.68302" lon="4.31874">
        <ele>509.4</ele>
        <time>2023-02-19T09:54:48Z</time>
      </trkpt>
      <trkpt lat="45.68301" lon="4.31873">
        <ele>509.4</ele>
        <time>2023-02-19T09:54:49Z</time>
      </trkpt>
      <trkpt lat="45.68301" lon="4.31873">
        <ele>509.3</ele>
        <time>2023-02-19T09:54:50Z</time>
      </trkpt>
      <trkpt lat="45.68299" lon="4.31869">
        <ele>509.1</ele>
        <time>2023-02-19T09:54:52Z</time>
      </trkpt>
      <trkpt lat="45.68298" lon="4.31868">
        <ele>509</ele>
        <time>2023-02-19T09:54:53Z</time>
      </trkpt>
      <trkpt lat="45.68297" lon="4.31867">
        <ele>508.9</ele>
        <time>2023-02-19T09:54:54Z</time>
      </trkpt>
      <trkpt lat="45.68295" lon="4.31865">
        <ele>508.7</ele>
        <time>2023-02-19T09:54:56Z</time>
      </trkpt>
      <trkpt lat="45.68293" lon="4.31864">
        <ele>508.6</ele>
        <time>2023-02-19T09:54:57Z</time>
      </trkpt>
      <trkpt lat="45.68292" lon="4.31863">
        <ele>508.5</ele>
        <time>2023-02-19T09:54:58Z</time>
      </trkpt>
      <trkpt lat="45.68291" lon="4.31862">
        <ele>508.4</ele>
        <time>2023-02-19T09:55:00Z</time>
      </trkpt>
      <trkpt lat="45.6829" lon="4.31861">
        <ele>508.3</ele>
        <time>2023-02-19T09:55:01Z</time>
      </trkpt>
      <trkpt lat="45.68288" lon="4.3186">
        <ele>508.1</ele>
        <time>2023-02-19T09:55:02Z</time>
      </trkpt>
      <trkpt lat="45.68286" lon="4.31857">
        <ele>507.9</ele>
        <time>2023-02-19T09:55:03Z</time>
      </trkpt>
      <trkpt lat="45.68285" lon="4.31857">
        <ele>507.8</ele>
        <time>2023-02-19T09:55:04Z</time>
      </trkpt>
      <trkpt lat="45.68282" lon="4.31855">
        <ele>507.6</ele>
        <time>2023-02-19T09:55:05Z</time>
      </trkpt>
      <trkpt lat="45.68281" lon="4.31854">
        <ele>507.5</ele>
        <time>2023-02-19T09:55:06Z</time>
      </trkpt>
      <trkpt lat="45.6828" lon="4.31853">
        <ele>507.4</ele>
        <time>2023-02-19T09:55:07Z</time>
      </trkpt>
      <trkpt lat="45.68278" lon="4.31852">
        <ele>507.2</ele>
        <time>2023-02-19T09:55:08Z</time>
      </trkpt>
      <trkpt lat="45.68275" lon="4.31851">
        <ele>507</ele>
        <time>2023-02-19T09:55:10Z</time>
      </trkpt>
      <trkpt lat="45.68274" lon="4.3185">
        <ele>506.9</ele>
        <time>2023-02-19T09:55:11Z</time>
      </trkpt>
      <trkpt lat="45.68272" lon="4.3185">
        <ele>506.7</ele>
        <time>2023-02-19T09:55:12Z</time>
      </trkpt>
      <trkpt lat="45.68271" lon="4.31849">
        <ele>506.6</ele>
        <time>2023-02-19T09:55:13Z</time>
      </trkpt>
      <trkpt lat="45.68269" lon="4.31847">
        <ele>506.4</ele>
        <time>2023-02-19T09:55:15Z</time>
      </trkpt>
      <trkpt lat="45.68267" lon="4.31846">
        <ele>506.2</ele>
        <time>2023-02-19T09:55:16Z</time>
      </trkpt>
      <trkpt lat="45.68266" lon="4.31844">
        <ele>506.1</ele>
        <time>2023-02-19T09:55:17Z</time>
      </trkpt>
      <trkpt lat="45.68265" lon="4.31843">
        <ele>505.9</ele>
        <time>2023-02-19T09:55:18Z</time>
      </trkpt>
      <trkpt lat="45.68263" lon="4.31842">
        <ele>505.8</ele>
        <time>2023-02-19T09:55:19Z</time>
      </trkpt>
      <trkpt lat="45.68261" lon="4.31839">
        <ele>505.4</ele>
        <time>2023-02-19T09:55:21Z</time>
      </trkpt>
      <trkpt lat="45.6826" lon="4.31838">
        <ele>505.3</ele>
        <time>2023-02-19T09:55:22Z</time>
      </trkpt>
      <trkpt lat="45.68259" lon="4.31836">
        <ele>505.2</ele>
        <time>2023-02-19T09:55:23Z</time>
      </trkpt>
      <trkpt lat="45.68258" lon="4.31834">
        <ele>505</ele>
        <time>2023-02-19T09:55:24Z</time>
      </trkpt>
      <trkpt lat="45.68258" lon="4.31833">
        <ele>504.9</ele>
        <time>2023-02-19T09:55:25Z</time>
      </trkpt>
      <trkpt lat="45.68257" lon="4.3183">
        <ele>504.7</ele>
        <time>2023-02-19T09:55:27Z</time>
      </trkpt>
      <trkpt lat="45.68257" lon="4.31829">
        <ele>504.5</ele>
        <time>2023-02-19T09:55:28Z</time>
      </trkpt>
      <trkpt lat="45.68258" lon="4.31824">
        <ele>504.1</ele>
        <time>2023-02-19T09:55:31Z</time>
      </trkpt>
      <trkpt lat="45.68257" lon="4.31821">
        <ele>503.9</ele>
        <time>2023-02-19T09:55:32Z</time>
      </trkpt>
      <trkpt lat="45.68256" lon="4.31815">
        <ele>503.4</ele>
        <time>2023-02-19T09:55:34Z</time>
      </trkpt>
      <trkpt lat="45.68255" lon="4.31813">
        <ele>503.3</ele>
        <time>2023-02-19T09:55:35Z</time>
      </trkpt>
      <trkpt lat="45.68255" lon="4.31811">
        <ele>503.1</ele>
        <time>2023-02-19T09:55:36Z</time>
      </trkpt>
      <trkpt lat="45.68254" lon="4.3181">
        <ele>503</ele>
        <time>2023-02-19T09:55:37Z</time>
      </trkpt>
      <trkpt lat="45.68253" lon="4.31808">
        <ele>502.8</ele>
        <time>2023-02-19T09:55:38Z</time>
      </trkpt>
      <trkpt lat="45.68252" lon="4.31806">
        <ele>502.6</ele>
        <time>2023-02-19T09:55:39Z</time>
      </trkpt>
      <trkpt lat="45.68252" lon="4.31804">
        <ele>502.5</ele>
        <time>2023-02-19T09:55:40Z</time>
      </trkpt>
      <trkpt lat="45.68251" lon="4.31803">
        <ele>502.4</ele>
        <time>2023-02-19T09:55:41Z</time>
      </trkpt>
      <trkpt lat="45.68251" lon="4.31799">
        <ele>502.1</ele>
        <time>2023-02-19T09:55:43Z</time>
      </trkpt>
      <trkpt lat="45.68251" lon="4.31798">
        <ele>502</ele>
        <time>2023-02-19T09:55:44Z</time>
      </trkpt>
      <trkpt lat="45.6825" lon="4.31796">
        <ele>501.9</ele>
        <time>2023-02-19T09:55:45Z</time>
      </trkpt>
      <trkpt lat="45.6825" lon="4.31795">
        <ele>501.9</ele>
        <time>2023-02-19T09:55:46Z</time>
      </trkpt>
      <trkpt lat="45.68249" lon="4.31795">
        <ele>501.8</ele>
        <time>2023-02-19T09:55:48Z</time>
      </trkpt>
      <trkpt lat="45.68248" lon="4.31796">
        <ele>501.7</ele>
        <time>2023-02-19T09:55:50Z</time>
      </trkpt>
      <trkpt lat="45.68248" lon="4.31796">
        <ele>501.6</ele>
        <time>2023-02-19T09:55:51Z</time>
      </trkpt>
      <trkpt lat="45.68247" lon="4.31796">
        <ele>501.6</ele>
        <time>2023-02-19T09:55:52Z</time>
      </trkpt>
      <trkpt lat="45.68247" lon="4.31797">
        <ele>501.5</ele>
        <time>2023-02-19T09:55:53Z</time>
      </trkpt>
      <trkpt lat="45.68246" lon="4.31798">
        <ele>501.5</ele>
        <time>2023-02-19T09:55:54Z</time>
      </trkpt>
      <trkpt lat="45.68245" lon="4.31798">
        <ele>501.4</ele>
        <time>2023-02-19T09:55:55Z</time>
      </trkpt>
      <trkpt lat="45.68244" lon="4.31799">
        <ele>501.3</ele>
        <time>2023-02-19T09:55:56Z</time>
      </trkpt>
      <trkpt lat="45.68243" lon="4.31799">
        <ele>501.2</ele>
        <time>2023-02-19T09:55:57Z</time>
      </trkpt>
      <trkpt lat="45.68242" lon="4.318">
        <ele>501.1</ele>
        <time>2023-02-19T09:55:59Z</time>
      </trkpt>
      <trkpt lat="45.6824" lon="4.318">
        <ele>501.2</ele>
        <time>2023-02-19T09:56:00Z</time>
      </trkpt>
      <trkpt lat="45.68239" lon="4.318">
        <ele>501.2</ele>
        <time>2023-02-19T09:56:01Z</time>
      </trkpt>
      <trkpt lat="45.68237" lon="4.31799">
        <ele>501.3</ele>
        <time>2023-02-19T09:56:02Z</time>
      </trkpt>
      <trkpt lat="45.68236" lon="4.31799">
        <ele>501.3</ele>
        <time>2023-02-19T09:56:03Z</time>
      </trkpt>
      <trkpt lat="45.68235" lon="4.31799">
        <ele>501.3</ele>
        <time>2023-02-19T09:56:04Z</time>
      </trkpt>
      <trkpt lat="45.68234" lon="4.31799">
        <ele>501.3</ele>
        <time>2023-02-19T09:56:05Z</time>
      </trkpt>
      <trkpt lat="45.68232" lon="4.31798">
        <ele>501.4</ele>
        <time>2023-02-19T09:56:07Z</time>
      </trkpt>
      <trkpt lat="45.68231" lon="4.31798">
        <ele>501.4</ele>
        <time>2023-02-19T09:56:08Z</time>
      </trkpt>
      <trkpt lat="45.68229" lon="4.31797">
        <ele>501.5</ele>
        <time>2023-02-19T09:56:09Z</time>
      </trkpt>
      <trkpt lat="45.68228" lon="4.31796">
        <ele>501.5</ele>
        <time>2023-02-19T09:56:10Z</time>
      </trkpt>
      <trkpt lat="45.68226" lon="4.31796">
        <ele>501.5</ele>
        <time>2023-02-19T09:56:11Z</time>
      </trkpt>
      <trkpt lat="45.68224" lon="4.31794">
        <ele>501.6</ele>
        <time>2023-02-19T09:56:12Z</time>
      </trkpt>
      <trkpt lat="45.68223" lon="4.31794">
        <ele>501.6</ele>
        <time>2023-02-19T09:56:13Z</time>
      </trkpt>
      <trkpt lat="45.68222" lon="4.31793">
        <ele>501.6</ele>
        <time>2023-02-19T09:56:14Z</time>
      </trkpt>
      <trkpt lat="45.6822" lon="4.31793">
        <ele>501.7</ele>
        <time>2023-02-19T09:56:15Z</time>
      </trkpt>
      <trkpt lat="45.68219" lon="4.31792">
        <ele>501.7</ele>
        <time>2023-02-19T09:56:16Z</time>
      </trkpt>
      <trkpt lat="45.68217" lon="4.31792">
        <ele>501.7</ele>
        <time>2023-02-19T09:56:17Z</time>
      </trkpt>
      <trkpt lat="45.68216" lon="4.31792">
        <ele>501.8</ele>
        <time>2023-02-19T09:56:18Z</time>
      </trkpt>
      <trkpt lat="45.68214" lon="4.31793">
        <ele>501.8</ele>
        <time>2023-02-19T09:56:19Z</time>
      </trkpt>
      <trkpt lat="45.68212" lon="4.31793">
        <ele>501.8</ele>
        <time>2023-02-19T09:56:21Z</time>
      </trkpt>
      <trkpt lat="45.68211" lon="4.31794">
        <ele>501.8</ele>
        <time>2023-02-19T09:56:22Z</time>
      </trkpt>
      <trkpt lat="45.6821" lon="4.31794">
        <ele>501.8</ele>
        <time>2023-02-19T09:56:23Z</time>
      </trkpt>
      <trkpt lat="45.68208" lon="4.31795">
        <ele>501.8</ele>
        <time>2023-02-19T09:56:24Z</time>
      </trkpt>
      <trkpt lat="45.68207" lon="4.31796">
        <ele>501.8</ele>
        <time>2023-02-19T09:56:25Z</time>
      </trkpt>
      <trkpt lat="45.68206" lon="4.31796">
        <ele>501.8</ele>
        <time>2023-02-19T09:56:26Z</time>
      </trkpt>
      <trkpt lat="45.68203" lon="4.31797">
        <ele>501.8</ele>
        <time>2023-02-19T09:56:28Z</time>
      </trkpt>
      <trkpt lat="45.68202" lon="4.31798">
        <ele>501.8</ele>
        <time>2023-02-19T09:56:29Z</time>
      </trkpt>
      <trkpt lat="45.682" lon="4.31798">
        <ele>501.8</ele>
        <time>2023-02-19T09:56:30Z</time>
      </trkpt>
      <trkpt lat="45.68199" lon="4.31799">
        <ele>501.8</ele>
        <time>2023-02-19T09:56:31Z</time>
      </trkpt>
      <trkpt lat="45.68196" lon="4.31799">
        <ele>501.8</ele>
        <time>2023-02-19T09:56:33Z</time>
      </trkpt>
      <trkpt lat="45.68195" lon="4.318">
        <ele>501.7</ele>
        <time>2023-02-19T09:56:34Z</time>
      </trkpt>
      <trkpt lat="45.68193" lon="4.318">
        <ele>501.7</ele>
        <time>2023-02-19T09:56:35Z</time>
      </trkpt>
      <trkpt lat="45.68192" lon="4.318">
        <ele>501.7</ele>
        <time>2023-02-19T09:56:36Z</time>
      </trkpt>
      <trkpt lat="45.6819" lon="4.318">
        <ele>501.7</ele>
        <time>2023-02-19T09:56:37Z</time>
      </trkpt>
      <trkpt lat="45.68188" lon="4.318">
        <ele>501.6</ele>
        <time>2023-02-19T09:56:39Z</time>
      </trkpt>
      <trkpt lat="45.68187" lon="4.31799">
        <ele>501.6</ele>
        <time>2023-02-19T09:56:40Z</time>
      </trkpt>
      <trkpt lat="45.68185" lon="4.31798">
        <ele>501.6</ele>
        <time>2023-02-19T09:56:41Z</time>
      </trkpt>
      <trkpt lat="45.68184" lon="4.31798">
        <ele>501.5</ele>
        <time>2023-02-19T09:56:42Z</time>
      </trkpt>
      <trkpt lat="45.68184" lon="4.31797">
        <ele>501.5</ele>
        <time>2023-02-19T09:56:43Z</time>
      </trkpt>
      <trkpt lat="45.68182" lon="4.31798">
        <ele>501.5</ele>
        <time>2023-02-19T09:56:44Z</time>
      </trkpt>
      <trkpt lat="45.68181" lon="4.31798">
        <ele>501.4</ele>
        <time>2023-02-19T09:56:45Z</time>
      </trkpt>
      <trkpt lat="45.68179" lon="4.31798">
        <ele>501.4</ele>
        <time>2023-02-19T09:56:47Z</time>
      </trkpt>
      <trkpt lat="45.68178" lon="4.31799">
        <ele>501.4</ele>
        <time>2023-02-19T09:56:48Z</time>
      </trkpt>
      <trkpt lat="45.68176" lon="4.31798">
        <ele>501.3</ele>
        <time>2023-02-19T09:56:49Z</time>
      </trkpt>
      <trkpt lat="45.68175" lon="4.31798">
        <ele>501.3</ele>
        <time>2023-02-19T09:56:50Z</time>
      </trkpt>
      <trkpt lat="45.68175" lon="4.31797">
        <ele>501.3</ele>
        <time>2023-02-19T09:56:51Z</time>
      </trkpt>
      <trkpt lat="45.68176" lon="4.31797">
        <ele>501.3</ele>
        <time>2023-02-19T09:56:52Z</time>
      </trkpt>
      <trkpt lat="45.68176" lon="4.31797">
        <ele>501.2</ele>
        <time>2023-02-19T09:56:54Z</time>
      </trkpt>
      <trkpt lat="45.68177" lon="4.31797">
        <ele>501.2</ele>
        <time>2023-02-19T09:56:55Z</time>
      </trkpt>
      <trkpt lat="45.68177" lon="4.31797">
        <ele>501.2</ele>
        <time>2023-02-19T09:56:56Z</time>
      </trkpt>
      <trkpt lat="45.68177" lon="4.31797">
        <ele>501.2</ele>
        <time>2023-02-19T09:56:57Z</time>
      </trkpt>
      <trkpt lat="45.68177" lon="4.31798">
        <ele>501.2</ele>
        <time>2023-02-19T09:56:59Z</time>
      </trkpt>
      <trkpt lat="45.68177" lon="4.31798">
        <ele>501.2</ele>
        <time>2023-02-19T09:57:00Z</time>
      </trkpt>
      <trkpt lat="45.68176" lon="4.31798">
        <ele>501.2</ele>
        <time>2023-02-19T09:57:01Z</time>
      </trkpt>
      <trkpt lat="45.68176" lon="4.31798">
        <ele>501.2</ele>
        <time>2023-02-19T09:57:02Z</time>
      </trkpt>
      <trkpt lat="45.68176" lon="4.31798">
        <ele>501.2</ele>
        <time>2023-02-19T09:57:03Z</time>
      </trkpt>
      <trkpt lat="45.68175" lon="4.31798">
        <ele>501.2</ele>
        <time>2023-02-19T09:57:04Z</time>
      </trkpt>
      <trkpt lat="45.68175" lon="4.31797">
        <ele>501.1</ele>
        <time>2023-02-19T09:57:06Z</time>
      </trkpt>
      <trkpt lat="45.68175" lon="4.31797">
        <ele>501.1</ele>
        <time>2023-02-19T09:57:07Z</time>
      </trkpt>
      <trkpt lat="45.68175" lon="4.31797">
        <ele>501.1</ele>
        <time>2023-02-19T09:57:08Z</time>
      </trkpt>
      <trkpt lat="45.68174" lon="4.31797">
        <ele>501.1</ele>
        <time>2023-02-19T09:57:09Z</time>
      </trkpt>
      <trkpt lat="45.68174" lon="4.31796">
        <ele>501.1</ele>
        <time>2023-02-19T09:57:10Z</time>
      </trkpt>
      <trkpt lat="45.68174" lon="4.31797">
        <ele>501.1</ele>
        <time>2023-02-19T09:57:12Z</time>
      </trkpt>
      <trkpt lat="45.68174" lon="4.31796">
        <ele>501.1</ele>
        <time>2023-02-19T09:57:13Z</time>
      </trkpt>
      <trkpt lat="45.68174" lon="4.31797">
        <ele>501.1</ele>
        <time>2023-02-19T09:57:14Z</time>
      </trkpt>
      <trkpt lat="45.68174" lon="4.31796">
        <ele>501.1</ele>
        <time>2023-02-19T09:57:16Z</time>
      </trkpt>
      <trkpt lat="45.68174" lon="4.31796">
        <ele>501.1</ele>
        <time>2023-02-19T09:57:17Z</time>
      </trkpt>
      <trkpt lat="45.68174" lon="4.31796">
        <ele>501.1</ele>
        <time>2023-02-19T09:57:18Z</time>
      </trkpt>
      <trkpt lat="45.68174" lon="4.31796">
        <ele>501.1</ele>
        <time>2023-02-19T09:57:19Z</time>
      </trkpt>
      <trkpt lat="45.68174" lon="4.31796">
        <ele>501</ele>
        <time>2023-02-19T09:57:20Z</time>
      </trkpt>
      <trkpt lat="45.68174" lon="4.31797">
        <ele>501</ele>
        <time>2023-02-19T09:57:21Z</time>
      </trkpt>
      <trkpt lat="45.68173" lon="4.31797">
        <ele>501</ele>
        <time>2023-02-19T09:57:22Z</time>
      </trkpt>
      <trkpt lat="45.68173" lon="4.31797">
        <ele>501</ele>
        <time>2023-02-19T09:57:23Z</time>
      </trkpt>
      <trkpt lat="45.68173" lon="4.31797">
        <ele>501</ele>
        <time>2023-02-19T09:57:24Z</time>
      </trkpt>
      <trkpt lat="45.68173" lon="4.31797">
        <ele>501</ele>
        <time>2023-02-19T09:57:25Z</time>
      </trkpt>
      <trkpt lat="45.68173" lon="4.31797">
        <ele>501</ele>
        <time>2023-02-19T09:57:26Z</time>
      </trkpt>
      <trkpt lat="45.68173" lon="4.31797">
        <ele>501</ele>
        <time>2023-02-19T09:57:27Z</time>
      </trkpt>
      <trkpt lat="45.68173" lon="4.31797">
        <ele>501</ele>
        <time>2023-02-19T09:57:28Z</time>
      </trkpt>
      <trkpt lat="45.68173" lon="4.31797">
        <ele>501</ele>
        <time>2023-02-19T09:57:29Z</time>
      </trkpt>
      <trkpt lat="45.68173" lon="4.31797">
        <ele>501</ele>
        <time>2023-02-19T09:57:30Z</time>
      </trkpt>
      <trkpt lat="45.68173" lon="4.31797">
        <ele>501</ele>
        <time>2023-02-19T09:57:31Z</time>
      </trkpt>
      <trkpt lat="45.68173" lon="4.31797">
        <ele>501</ele>
        <time>2023-02-19T09:57:32Z</time>
      </trkpt>
      <trkpt lat="45.68173" lon="4.31797">
        <ele>501</ele>
        <time>2023-02-19T09:57:33Z</time>
      </trkpt>
      <trkpt lat="45.68173" lon="4.31797">
        <ele>501</ele>
        <time>2023-02-19T09:57:34Z</time>
      </trkpt>
      <trkpt lat="45.68173" lon="4.31797">
        <ele>501</ele>
        <time>2023-02-19T09:57:35Z</time>
      </trkpt>
      <trkpt lat="45.68173" lon="4.31797">
        <ele>501</ele>
        <time>2023-02-19T09:57:36Z</time>
      </trkpt>
      <trkpt lat="45.68173" lon="4.31797">
        <ele>501</ele>
        <time>2023-02-19T09:57:37Z</time>
      </trkpt>
      <trkpt lat="45.68173" lon="4.31797">
        <ele>501</ele>
        <time>2023-02-19T09:57:38Z</time>
      </trkpt>
      <trkpt lat="45.68173" lon="4.31797">
        <ele>501</ele>
        <time>2023-02-19T09:57:39Z</time>
      </trkpt>
      <trkpt lat="45.68173" lon="4.31797">
        <ele>501</ele>
        <time>2023-02-19T09:57:40Z</time>
      </trkpt>
      <trkpt lat="45.68173" lon="4.31797">
        <ele>501</ele>
        <time>2023-02-19T09:57:41Z</time>
      </trkpt>
      <trkpt lat="45.68173" lon="4.31797">
        <ele>501</ele>
        <time>2023-02-19T09:57:42Z</time>
      </trkpt>
      <trkpt lat="45.68173" lon="4.31797">
        <ele>501</ele>
        <time>2023-02-19T09:57:43Z</time>
      </trkpt>
      <trkpt lat="45.68173" lon="4.31797">
        <ele>501</ele>
        <time>2023-02-19T09:57:44Z</time>
      </trkpt>
      <trkpt lat="45.68173" lon="4.31797">
        <ele>501</ele>
        <time>2023-02-19T09:57:45Z</time>
      </trkpt>
      <trkpt lat="45.68173" lon="4.31797">
        <ele>501</ele>
        <time>2023-02-19T09:57:46Z</time>
      </trkpt>
      <trkpt lat="45.68173" lon="4.31797">
        <ele>501</ele>
        <time>2023-02-19T09:57:47Z</time>
      </trkpt>
      <trkpt lat="45.68173" lon="4.31797">
        <ele>501</ele>
        <time>2023-02-19T09:57:48Z</time>
      </trkpt>
      <trkpt lat="45.68173" lon="4.31797">
        <ele>501</ele>
        <time>2023-02-19T09:57:49Z</time>
      </trkpt>
      <trkpt lat="45.68173" lon="4.31797">
        <ele>501</ele>
        <time>2023-02-19T09:57:50Z</time>
      </trkpt>
      <trkpt lat="45.68173" lon="4.31797">
        <ele>501</ele>
        <time>2023-02-19T09:57:51Z</time>
      </trkpt>
      <trkpt lat="45.68173" lon="4.31797">
        <ele>501</ele>
        <time>2023-02-19T09:57:52Z</time>
      </trkpt>
      <trkpt lat="45.68173" lon="4.31797">
        <ele>501</ele>
        <time>2023-02-19T09:57:53Z</time>
      </trkpt>
      <trkpt lat="45.68173" lon="4.31797">
        <ele>501</ele>
        <time>2023-02-19T09:57:54Z</time>
      </trkpt>
      <trkpt lat="45.68173" lon="4.31797">
        <ele>501</ele>
        <time>2023-02-19T09:57:55Z</time>
      </trkpt>
      <trkpt lat="45.68173" lon="4.31797">
        <ele>501</ele>
        <time>2023-02-19T09:57:56Z</time>
      </trkpt>
      <trkpt lat="45.68173" lon="4.31797">
        <ele>501</ele>
        <time>2023-02-19T09:57:57Z</time>
      </trkpt>
      <trkpt lat="45.68173" lon="4.31797">
        <ele>501</ele>
        <time>2023-02-19T09:57:58Z</time>
      </trkpt>
      <trkpt lat="45.68173" lon="4.31797">
        <ele>501</ele>
        <time>2023-02-19T09:57:59Z</time>
      </trkpt>
      <trkpt lat="45.68173" lon="4.31797">
        <ele>501</ele>
        <time>2023-02-19T09:58:00Z</time>
      </trkpt>
      <trkpt lat="45.68173" lon="4.31797">
        <ele>501</ele>
        <time>2023-02-19T09:58:01Z</time>
      </trkpt>
      <trkpt lat="45.68173" lon="4.31797">
        <ele>501</ele>
        <time>2023-02-19T09:58:02Z</time>
      </trkpt>
      <trkpt lat="45.68173" lon="4.31797">
        <ele>501</ele>
        <time>2023-02-19T09:58:03Z</time>
      </trkpt>
      <trkpt lat="45.68172" lon="4.31797">
        <ele>501</ele>
        <time>2023-02-19T09:58:04Z</time>
      </trkpt>
      <trkpt lat="45.68172" lon="4.31796">
        <ele>501</ele>
        <time>2023-02-19T09:58:05Z</time>
      </trkpt>
      <trkpt lat="45.68172" lon="4.31796">
        <ele>501</ele>
        <time>2023-02-19T09:58:06Z</time>
      </trkpt>
      <trkpt lat="45.68172" lon="4.31796">
        <ele>501</ele>
        <time>2023-02-19T09:58:07Z</time>
      </trkpt>
      <trkpt lat="45.68172" lon="4.31796">
        <ele>501</ele>
        <time>2023-02-19T09:58:08Z</time>
      </trkpt>
      <trkpt lat="45.68172" lon="4.31796">
        <ele>501</ele>
        <time>2023-02-19T09:58:09Z</time>
      </trkpt>
      <trkpt lat="45.68172" lon="4.31796">
        <ele>501</ele>
        <time>2023-02-19T09:58:10Z</time>
      </trkpt>
      <trkpt lat="45.68172" lon="4.31796">
        <ele>501</ele>
        <time>2023-02-19T09:58:11Z</time>
      </trkpt>
      <trkpt lat="45.68172" lon="4.31796">
        <ele>501</ele>
        <time>2023-02-19T09:58:12Z</time>
      </trkpt>
      <trkpt lat="45.68172" lon="4.31796">
        <ele>501</ele>
        <time>2023-02-19T09:58:13Z</time>
      </trkpt>
      <trkpt lat="45.68172" lon="4.31796">
        <ele>501</ele>
        <time>2023-02-19T09:58:14Z</time>
      </trkpt>
      <trkpt lat="45.68172" lon="4.31796">
        <ele>501</ele>
        <time>2023-02-19T09:58:15Z</time>
      </trkpt>
      <trkpt lat="45.68172" lon="4.31796">
        <ele>501.1</ele>
        <time>2023-02-19T09:58:16Z</time>
      </trkpt>
      <trkpt lat="45.68172" lon="4.31796">
        <ele>501.1</ele>
        <time>2023-02-19T09:58:17Z</time>
      </trkpt>
      <trkpt lat="45.68172" lon="4.31796">
        <ele>501</ele>
        <time>2023-02-19T09:58:18Z</time>
      </trkpt>
      <trkpt lat="45.68172" lon="4.31796">
        <ele>501</ele>
        <time>2023-02-19T09:58:19Z</time>
      </trkpt>
      <trkpt lat="45.68172" lon="4.31796">
        <ele>501</ele>
        <time>2023-02-19T09:58:20Z</time>
      </trkpt>
      <trkpt lat="45.68172" lon="4.31796">
        <ele>501</ele>
        <time>2023-02-19T09:58:21Z</time>
      </trkpt>
      <trkpt lat="45.68172" lon="4.31796">
        <ele>501</ele>
        <time>2023-02-19T09:58:22Z</time>
      </trkpt>
      <trkpt lat="45.68172" lon="4.31796">
        <ele>501</ele>
        <time>2023-02-19T09:58:23Z</time>
      </trkpt>
      <trkpt lat="45.68172" lon="4.31795">
        <ele>501</ele>
        <time>2023-02-19T09:58:24Z</time>
      </trkpt>
      <trkpt lat="45.68172" lon="4.31795">
        <ele>501</ele>
        <time>2023-02-19T09:58:25Z</time>
      </trkpt>
      <trkpt lat="45.68172" lon="4.31795">
        <ele>501</ele>
        <time>2023-02-19T09:58:26Z</time>
      </trkpt>
      <trkpt lat="45.68172" lon="4.31796">
        <ele>501</ele>
        <time>2023-02-19T09:58:27Z</time>
      </trkpt>
      <trkpt lat="45.68172" lon="4.31796">
        <ele>501</ele>
        <time>2023-02-19T09:58:28Z</time>
      </trkpt>
      <trkpt lat="45.68172" lon="4.31796">
        <ele>501</ele>
        <time>2023-02-19T09:58:29Z</time>
      </trkpt>
      <trkpt lat="45.68172" lon="4.31796">
        <ele>501</ele>
        <time>2023-02-19T09:58:30Z</time>
      </trkpt>
      <trkpt lat="45.68171" lon="4.31796">
        <ele>501</ele>
        <time>2023-02-19T09:58:31Z</time>
      </trkpt>
      <trkpt lat="45.68171" lon="4.31795">
        <ele>501</ele>
        <time>2023-02-19T09:58:32Z</time>
      </trkpt>
      <trkpt lat="45.68172" lon="4.31795">
        <ele>501</ele>
        <time>2023-02-19T09:58:34Z</time>
      </trkpt>
      <trkpt lat="45.68172" lon="4.31795">
        <ele>501</ele>
        <time>2023-02-19T09:58:36Z</time>
      </trkpt>
      <trkpt lat="45.68172" lon="4.31795">
        <ele>501</ele>
        <time>2023-02-19T09:58:37Z</time>
      </trkpt>
      <trkpt lat="45.68172" lon="4.31795">
        <ele>501</ele>
        <time>2023-02-19T09:58:38Z</time>
      </trkpt>
      <trkpt lat="45.68172" lon="4.31794">
        <ele>501</ele>
        <time>2023-02-19T09:58:40Z</time>
      </trkpt>
      <trkpt lat="45.68172" lon="4.31794">
        <ele>501</ele>
        <time>2023-02-19T09:58:41Z</time>
      </trkpt>
      <trkpt lat="45.68171" lon="4.31794">
        <ele>501</ele>
        <time>2023-02-19T09:58:42Z</time>
      </trkpt>
      <trkpt lat="45.68171" lon="4.31794">
        <ele>501</ele>
        <time>2023-02-19T09:58:43Z</time>
      </trkpt>
      <trkpt lat="45.68171" lon="4.31794">
        <ele>501</ele>
        <time>2023-02-19T09:58:44Z</time>
      </trkpt>
      <trkpt lat="45.68171" lon="4.31794">
        <ele>501</ele>
        <time>2023-02-19T09:58:45Z</time>
      </trkpt>
      <trkpt lat="45.68171" lon="4.31794">
        <ele>501</ele>
        <time>2023-02-19T09:58:46Z</time>
      </trkpt>
      <trkpt lat="45.68171" lon="4.31794">
        <ele>501</ele>
        <time>2023-02-19T09:58:47Z</time>
      </trkpt>
      <trkpt lat="45.68171" lon="4.31794">
        <ele>501</ele>
        <time>2023-02-19T09:58:48Z</time>
      </trkpt>
      <trkpt lat="45.68171" lon="4.31794">
        <ele>501</ele>
        <time>2023-02-19T09:58:49Z</time>
      </trkpt>
      <trkpt lat="45.68171" lon="4.31794">
        <ele>501</ele>
        <time>2023-02-19T09:58:50Z</time>
      </trkpt>
      <trkpt lat="45.68171" lon="4.31794">
        <ele>501.1</ele>
        <time>2023-02-19T09:58:51Z</time>
      </trkpt>
      <trkpt lat="45.68171" lon="4.31794">
        <ele>501.1</ele>
        <time>2023-02-19T09:58:52Z</time>
      </trkpt>
      <trkpt lat="45.68172" lon="4.31794">
        <ele>501.1</ele>
        <time>2023-02-19T09:58:53Z</time>
      </trkpt>
      <trkpt lat="45.68172" lon="4.31794">
        <ele>501.1</ele>
        <time>2023-02-19T09:58:54Z</time>
      </trkpt>
      <trkpt lat="45.68172" lon="4.31794">
        <ele>501.1</ele>
        <time>2023-02-19T09:58:55Z</time>
      </trkpt>
      <trkpt lat="45.68172" lon="4.31794">
        <ele>501.1</ele>
        <time>2023-02-19T09:58:56Z</time>
      </trkpt>
      <trkpt lat="45.68172" lon="4.31794">
        <ele>501.1</ele>
        <time>2023-02-19T09:58:57Z</time>
      </trkpt>
      <trkpt lat="45.68172" lon="4.31794">
        <ele>501.1</ele>
        <time>2023-02-19T09:58:58Z</time>
      </trkpt>
      <trkpt lat="45.68172" lon="4.31794">
        <ele>501.1</ele>
        <time>2023-02-19T09:58:59Z</time>
      </trkpt>
      <trkpt lat="45.68172" lon="4.31794">
        <ele>501.1</ele>
        <time>2023-02-19T09:59:00Z</time>
      </trkpt>
      <trkpt lat="45.68172" lon="4.31794">
        <ele>501.1</ele>
        <time>2023-02-19T09:59:01Z</time>
      </trkpt>
      <trkpt lat="45.68172" lon="4.31794">
        <ele>501.1</ele>
        <time>2023-02-19T09:59:02Z</time>
      </trkpt>
      <trkpt lat="45.68172" lon="4.31794">
        <ele>501.1</ele>
        <time>2023-02-19T09:59:03Z</time>
      </trkpt>
      <trkpt lat="45.68172" lon="4.31794">
        <ele>501.1</ele>
        <time>2023-02-19T09:59:04Z</time>
      </trkpt>
      <trkpt lat="45.68171" lon="4.31794">
        <ele>501.1</ele>
        <time>2023-02-19T09:59:05Z</time>
      </trkpt>
      <trkpt lat="45.68171" lon="4.31794">
        <ele>501.1</ele>
        <time>2023-02-19T09:59:06Z</time>
      </trkpt>
      <trkpt lat="45.68171" lon="4.31794">
        <ele>501.1</ele>
        <time>2023-02-19T09:59:07Z</time>
      </trkpt>
      <trkpt lat="45.68171" lon="4.31794">
        <ele>501.1</ele>
        <time>2023-02-19T09:59:08Z</time>
      </trkpt>
      <trkpt lat="45.68171" lon="4.31795">
        <ele>501.1</ele>
        <time>2023-02-19T09:59:09Z</time>
      </trkpt>
      <trkpt lat="45.68171" lon="4.31794">
        <ele>501.1</ele>
        <time>2023-02-19T09:59:10Z</time>
      </trkpt>
      <trkpt lat="45.68171" lon="4.31794">
        <ele>501.1</ele>
        <time>2023-02-19T09:59:11Z</time>
      </trkpt>
      <trkpt lat="45.68171" lon="4.31794">
        <ele>501.1</ele>
        <time>2023-02-19T09:59:12Z</time>
      </trkpt>
      <trkpt lat="45.68171" lon="4.31794">
        <ele>501.1</ele>
        <time>2023-02-19T09:59:13Z</time>
      </trkpt>
      <trkpt lat="45.68171" lon="4.31794">
        <ele>501.1</ele>
        <time>2023-02-19T09:59:14Z</time>
      </trkpt>
      <trkpt lat="45.68171" lon="4.31794">
        <ele>501.1</ele>
        <time>2023-02-19T09:59:15Z</time>
      </trkpt>
      <trkpt lat="45.68171" lon="4.31794">
        <ele>501.1</ele>
        <time>2023-02-19T09:59:16Z</time>
      </trkpt>
      <trkpt lat="45.68171" lon="4.31794">
        <ele>501.1</ele>
        <time>2023-02-19T09:59:17Z</time>
      </trkpt>
      <trkpt lat="45.68171" lon="4.31794">
        <ele>501.1</ele>
        <time>2023-02-19T09:59:18Z</time>
      </trkpt>
      <trkpt lat="45.68171" lon="4.31794">
        <ele>501.1</ele>
        <time>2023-02-19T09:59:19Z</time>
      </trkpt>
      <trkpt lat="45.68171" lon="4.31794">
        <ele>501.1</ele>
        <time>2023-02-19T09:59:20Z</time>
      </trkpt>
      <trkpt lat="45.68171" lon="4.31794">
        <ele>501.1</ele>
        <time>2023-02-19T09:59:21Z</time>
      </trkpt>
      <trkpt lat="45.68171" lon="4.31794">
        <ele>501.1</ele>
        <time>2023-02-19T09:59:22Z</time>
      </trkpt>
      <trkpt lat="45.68171" lon="4.31794">
        <ele>501.1</ele>
        <time>2023-02-19T09:59:23Z</time>
      </trkpt>
      <trkpt lat="45.68171" lon="4.31794">
        <ele>501.2</ele>
        <time>2023-02-19T09:59:24Z</time>
      </trkpt>
      <trkpt lat="45.68171" lon="4.31794">
        <ele>501.2</ele>
        <time>2023-02-19T09:59:25Z</time>
      </trkpt>
      <trkpt lat="45.68171" lon="4.31794">
        <ele>501.2</ele>
        <time>2023-02-19T09:59:26Z</time>
      </trkpt>
      <trkpt lat="45.68171" lon="4.31794">
        <ele>501.2</ele>
        <time>2023-02-19T09:59:27Z</time>
      </trkpt>
      <trkpt lat="45.68171" lon="4.31794">
        <ele>501.2</ele>
        <time>2023-02-19T09:59:28Z</time>
      </trkpt>
      <trkpt lat="45.68171" lon="4.31794">
        <ele>501.2</ele>
        <time>2023-02-19T09:59:29Z</time>
      </trkpt>
      <trkpt lat="45.68171" lon="4.31794">
        <ele>501.2</ele>
        <time>2023-02-19T09:59:30Z</time>
      </trkpt>
      <trkpt lat="45.68171" lon="4.31794">
        <ele>501.2</ele>
        <time>2023-02-19T09:59:31Z</time>
      </trkpt>
      <trkpt lat="45.68172" lon="4.31794">
        <ele>501.2</ele>
        <time>2023-02-19T09:59:32Z</time>
      </trkpt>
      <trkpt lat="45.68172" lon="4.31794">
        <ele>501.2</ele>
        <time>2023-02-19T09:59:33Z</time>
      </trkpt>
      <trkpt lat="45.68172" lon="4.31793">
        <ele>501.2</ele>
        <time>2023-02-19T09:59:34Z</time>
      </trkpt>
      <trkpt lat="45.68172" lon="4.31794">
        <ele>501.2</ele>
        <time>2023-02-19T09:59:36Z</time>
      </trkpt>
      <trkpt lat="45.68172" lon="4.31794">
        <ele>501.2</ele>
        <time>2023-02-19T09:59:37Z</time>
      </trkpt>
      <trkpt lat="45.68171" lon="4.31794">
        <ele>501.2</ele>
        <time>2023-02-19T09:59:38Z</time>
      </trkpt>
      <trkpt lat="45.68171" lon="4.31794">
        <ele>501.2</ele>
        <time>2023-02-19T09:59:39Z</time>
      </trkpt>
      <trkpt lat="45.6817" lon="4.31794">
        <ele>501.2</ele>
        <time>2023-02-19T09:59:40Z</time>
      </trkpt>
      <trkpt lat="45.68168" lon="4.31795">
        <ele>501.1</ele>
        <time>2023-02-19T09:59:41Z</time>
      </trkpt>
      <trkpt lat="45.68167" lon="4.31795">
        <ele>501.1</ele>
        <time>2023-02-19T09:59:43Z</time>
      </trkpt>
      <trkpt lat="45.68166" lon="4.31795">
        <ele>501.1</ele>
        <time>2023-02-19T09:59:44Z</time>
      </trkpt>
      <trkpt lat="45.68164" lon="4.31796">
        <ele>501.1</ele>
        <time>2023-02-19T09:59:45Z</time>
      </trkpt>
      <trkpt lat="45.68164" lon="4.31797">
        <ele>501.1</ele>
        <time>2023-02-19T09:59:47Z</time>
      </trkpt>
      <trkpt lat="45.68163" lon="4.31797">
        <ele>501.1</ele>
        <time>2023-02-19T09:59:48Z</time>
      </trkpt>
      <trkpt lat="45.68163" lon="4.31798">
        <ele>501.1</ele>
        <time>2023-02-19T09:59:49Z</time>
      </trkpt>
      <trkpt lat="45.68164" lon="4.31797">
        <ele>501.1</ele>
        <time>2023-02-19T09:59:51Z</time>
      </trkpt>
      <trkpt lat="45.68164" lon="4.31797">
        <ele>501</ele>
        <time>2023-02-19T09:59:52Z</time>
      </trkpt>
      <trkpt lat="45.68164" lon="4.31796">
        <ele>501</ele>
        <time>2023-02-19T09:59:54Z</time>
      </trkpt>
      <trkpt lat="45.68164" lon="4.31796">
        <ele>501</ele>
        <time>2023-02-19T09:59:55Z</time>
      </trkpt>
      <trkpt lat="45.68163" lon="4.31796">
        <ele>501</ele>
        <time>2023-02-19T09:59:56Z</time>
      </trkpt>
      <trkpt lat="45.68163" lon="4.31796">
        <ele>501</ele>
        <time>2023-02-19T09:59:58Z</time>
      </trkpt>
      <trkpt lat="45.68163" lon="4.31796">
        <ele>501</ele>
        <time>2023-02-19T09:59:59Z</time>
      </trkpt>
      <trkpt lat="45.68163" lon="4.31795">
        <ele>501</ele>
        <time>2023-02-19T10:00:01Z</time>
      </trkpt>
      <trkpt lat="45.68163" lon="4.31795">
        <ele>501</ele>
        <time>2023-02-19T10:00:02Z</time>
      </trkpt>
      <trkpt lat="45.68163" lon="4.31795">
        <ele>501</ele>
        <time>2023-02-19T10:00:03Z</time>
      </trkpt>
      <trkpt lat="45.68163" lon="4.31795">
        <ele>501</ele>
        <time>2023-02-19T10:00:04Z</time>
      </trkpt>
      <trkpt lat="45.68163" lon="4.31795">
        <ele>501</ele>
        <time>2023-02-19T10:00:05Z</time>
      </trkpt>
      <trkpt lat="45.68162" lon="4.31796">
        <ele>501</ele>
        <time>2023-02-19T10:00:06Z</time>
      </trkpt>
      <trkpt lat="45.68162" lon="4.31796">
        <ele>501</ele>
        <time>2023-02-19T10:00:07Z</time>
      </trkpt>
      <trkpt lat="45.68162" lon="4.31796">
        <ele>501</ele>
        <time>2023-02-19T10:00:08Z</time>
      </trkpt>
      <trkpt lat="45.68162" lon="4.31796">
        <ele>501</ele>
        <time>2023-02-19T10:00:09Z</time>
      </trkpt>
      <trkpt lat="45.68162" lon="4.31796">
        <ele>501</ele>
        <time>2023-02-19T10:00:10Z</time>
      </trkpt>
      <trkpt lat="45.68161" lon="4.31796">
        <ele>501</ele>
        <time>2023-02-19T10:00:11Z</time>
      </trkpt>
      <trkpt lat="45.68161" lon="4.31796">
        <ele>501</ele>
        <time>2023-02-19T10:00:12Z</time>
      </trkpt>
      <trkpt lat="45.68161" lon="4.31796">
        <ele>500.9</ele>
        <time>2023-02-19T10:00:13Z</time>
      </trkpt>
      <trkpt lat="45.68161" lon="4.31796">
        <ele>500.9</ele>
        <time>2023-02-19T10:00:14Z</time>
      </trkpt>
      <trkpt lat="45.68161" lon="4.31796">
        <ele>500.9</ele>
        <time>2023-02-19T10:00:15Z</time>
      </trkpt>
      <trkpt lat="45.68161" lon="4.31796">
        <ele>500.9</ele>
        <time>2023-02-19T10:00:16Z</time>
      </trkpt>
      <trkpt lat="45.68161" lon="4.31796">
        <ele>500.9</ele>
        <time>2023-02-19T10:00:17Z</time>
      </trkpt>
      <trkpt lat="45.68161" lon="4.31796">
        <ele>500.9</ele>
        <time>2023-02-19T10:00:18Z</time>
      </trkpt>
      <trkpt lat="45.68161" lon="4.31796">
        <ele>500.9</ele>
        <time>2023-02-19T10:00:19Z</time>
      </trkpt>
      <trkpt lat="45.68161" lon="4.31796">
        <ele>500.9</ele>
        <time>2023-02-19T10:00:20Z</time>
      </trkpt>
      <trkpt lat="45.68161" lon="4.31796">
        <ele>500.9</ele>
        <time>2023-02-19T10:00:21Z</time>
      </trkpt>
      <trkpt lat="45.68161" lon="4.31796">
        <ele>500.9</ele>
        <time>2023-02-19T10:00:22Z</time>
      </trkpt>
      <trkpt lat="45.68161" lon="4.31796">
        <ele>500.9</ele>
        <time>2023-02-19T10:00:23Z</time>
      </trkpt>
      <trkpt lat="45.68161" lon="4.31796">
        <ele>500.9</ele>
        <time>2023-02-19T10:00:24Z</time>
      </trkpt>
      <trkpt lat="45.68161" lon="4.31796">
        <ele>500.9</ele>
        <time>2023-02-19T10:00:25Z</time>
      </trkpt>
      <trkpt lat="45.68161" lon="4.31797">
        <ele>500.9</ele>
        <time>2023-02-19T10:00:26Z</time>
      </trkpt>
      <trkpt lat="45.6816" lon="4.31797">
        <ele>500.9</ele>
        <time>2023-02-19T10:00:27Z</time>
      </trkpt>
      <trkpt lat="45.6816" lon="4.31797">
        <ele>500.9</ele>
        <time>2023-02-19T10:00:28Z</time>
      </trkpt>
      <trkpt lat="45.6816" lon="4.31798">
        <ele>500.9</ele>
        <time>2023-02-19T10:00:29Z</time>
      </trkpt>
      <trkpt lat="45.6816" lon="4.31798">
        <ele>500.9</ele>
        <time>2023-02-19T10:00:30Z</time>
      </trkpt>
      <trkpt lat="45.6816" lon="4.31798">
        <ele>500.9</ele>
        <time>2023-02-19T10:00:31Z</time>
      </trkpt>
      <trkpt lat="45.68159" lon="4.31798">
        <ele>500.9</ele>
        <time>2023-02-19T10:00:32Z</time>
      </trkpt>
      <trkpt lat="45.68159" lon="4.31799">
        <ele>500.8</ele>
        <time>2023-02-19T10:00:33Z</time>
      </trkpt>
      <trkpt lat="45.68158" lon="4.318">
        <ele>500.8</ele>
        <time>2023-02-19T10:00:35Z</time>
      </trkpt>
      <trkpt lat="45.68157" lon="4.318">
        <ele>500.8</ele>
        <time>2023-02-19T10:00:36Z</time>
      </trkpt>
      <trkpt lat="45.68158" lon="4.318">
        <ele>500.8</ele>
        <time>2023-02-19T10:00:37Z</time>
      </trkpt>
      <trkpt lat="45.68158" lon="4.318">
        <ele>500.8</ele>
        <time>2023-02-19T10:00:38Z</time>
      </trkpt>
      <trkpt lat="45.68158" lon="4.318">
        <ele>500.8</ele>
        <time>2023-02-19T10:00:39Z</time>
      </trkpt>
      <trkpt lat="45.68158" lon="4.318">
        <ele>500.8</ele>
        <time>2023-02-19T10:00:40Z</time>
      </trkpt>
      <trkpt lat="45.68158" lon="4.318">
        <ele>500.8</ele>
        <time>2023-02-19T10:00:41Z</time>
      </trkpt>
      <trkpt lat="45.68158" lon="4.318">
        <ele>500.8</ele>
        <time>2023-02-19T10:00:42Z</time>
      </trkpt>
      <trkpt lat="45.68158" lon="4.318">
        <ele>500.8</ele>
        <time>2023-02-19T10:00:43Z</time>
      </trkpt>
      <trkpt lat="45.68158" lon="4.318">
        <ele>500.8</ele>
        <time>2023-02-19T10:00:44Z</time>
      </trkpt>
      <trkpt lat="45.68158" lon="4.318">
        <ele>500.8</ele>
        <time>2023-02-19T10:00:45Z</time>
      </trkpt>
      <trkpt lat="45.68158" lon="4.318">
        <ele>500.8</ele>
        <time>2023-02-19T10:00:46Z</time>
      </trkpt>
      <trkpt lat="45.68158" lon="4.318">
        <ele>500.8</ele>
        <time>2023-02-19T10:00:47Z</time>
      </trkpt>
      <trkpt lat="45.68158" lon="4.318">
        <ele>500.8</ele>
        <time>2023-02-19T10:00:48Z</time>
      </trkpt>
      <trkpt lat="45.68158" lon="4.318">
        <ele>500.8</ele>
        <time>2023-02-19T10:00:49Z</time>
      </trkpt>
      <trkpt lat="45.68158" lon="4.318">
        <ele>500.8</ele>
        <time>2023-02-19T10:00:50Z</time>
      </trkpt>
      <trkpt lat="45.68158" lon="4.318">
        <ele>500.8</ele>
        <time>2023-02-19T10:00:51Z</time>
      </trkpt>
      <trkpt lat="45.68158" lon="4.318">
        <ele>500.8</ele>
        <time>2023-02-19T10:00:52Z</time>
      </trkpt>
      <trkpt lat="45.68158" lon="4.318">
        <ele>500.8</ele>
        <time>2023-02-19T10:00:53Z</time>
      </trkpt>
      <trkpt lat="45.68158" lon="4.318">
        <ele>500.8</ele>
        <time>2023-02-19T10:00:54Z</time>
      </trkpt>
      <trkpt lat="45.68158" lon="4.318">
        <ele>500.8</ele>
        <time>2023-02-19T10:00:55Z</time>
      </trkpt>
      <trkpt lat="45.68158" lon="4.318">
        <ele>500.8</ele>
        <time>2023-02-19T10:00:56Z</time>
      </trkpt>
      <trkpt lat="45.68157" lon="4.31801">
        <ele>500.7</ele>
        <time>2023-02-19T10:00:57Z</time>
      </trkpt>
      <trkpt lat="45.68157" lon="4.31801">
        <ele>500.7</ele>
        <time>2023-02-19T10:00:58Z</time>
      </trkpt>
      <trkpt lat="45.68157" lon="4.31801">
        <ele>500.7</ele>
        <time>2023-02-19T10:00:59Z</time>
      </trkpt>
      <trkpt lat="45.68157" lon="4.31801">
        <ele>500.7</ele>
        <time>2023-02-19T10:01:00Z</time>
      </trkpt>
      <trkpt lat="45.68157" lon="4.31801">
        <ele>500.7</ele>
        <time>2023-02-19T10:01:01Z</time>
      </trkpt>
      <trkpt lat="45.68157" lon="4.31801">
        <ele>500.7</ele>
        <time>2023-02-19T10:01:02Z</time>
      </trkpt>
      <trkpt lat="45.68157" lon="4.31801">
        <ele>500.7</ele>
        <time>2023-02-19T10:01:03Z</time>
      </trkpt>
      <trkpt lat="45.68157" lon="4.31801">
        <ele>500.7</ele>
        <time>2023-02-19T10:01:04Z</time>
      </trkpt>
      <trkpt lat="45.68157" lon="4.31801">
        <ele>500.7</ele>
        <time>2023-02-19T10:01:05Z</time>
      </trkpt>
      <trkpt lat="45.68157" lon="4.31801">
        <ele>500.7</ele>
        <time>2023-02-19T10:01:06Z</time>
      </trkpt>
      <trkpt lat="45.68157" lon="4.31801">
        <ele>500.7</ele>
        <time>2023-02-19T10:01:07Z</time>
      </trkpt>
      <trkpt lat="45.68157" lon="4.31802">
        <ele>500.7</ele>
        <time>2023-02-19T10:01:08Z</time>
      </trkpt>
      <trkpt lat="45.68157" lon="4.31802">
        <ele>500.7</ele>
        <time>2023-02-19T10:01:09Z</time>
      </trkpt>
      <trkpt lat="45.68157" lon="4.31802">
        <ele>500.7</ele>
        <time>2023-02-19T10:01:10Z</time>
      </trkpt>
      <trkpt lat="45.68157" lon="4.31802">
        <ele>500.7</ele>
        <time>2023-02-19T10:01:11Z</time>
      </trkpt>
      <trkpt lat="45.68157" lon="4.31802">
        <ele>500.7</ele>
        <time>2023-02-19T10:01:12Z</time>
      </trkpt>
      <trkpt lat="45.68157" lon="4.31802">
        <ele>500.7</ele>
        <time>2023-02-19T10:01:13Z</time>
      </trkpt>
      <trkpt lat="45.68157" lon="4.31802">
        <ele>500.7</ele>
        <time>2023-02-19T10:01:14Z</time>
      </trkpt>
      <trkpt lat="45.68157" lon="4.31802">
        <ele>500.7</ele>
        <time>2023-02-19T10:01:15Z</time>
      </trkpt>
      <trkpt lat="45.68157" lon="4.31802">
        <ele>500.7</ele>
        <time>2023-02-19T10:01:16Z</time>
      </trkpt>
      <trkpt lat="45.68157" lon="4.31802">
        <ele>500.7</ele>
        <time>2023-02-19T10:01:17Z</time>
      </trkpt>
      <trkpt lat="45.68157" lon="4.31802">
        <ele>500.7</ele>
        <time>2023-02-19T10:01:18Z</time>
      </trkpt>
      <trkpt lat="45.68157" lon="4.31802">
        <ele>500.7</ele>
        <time>2023-02-19T10:01:19Z</time>
      </trkpt>
      <trkpt lat="45.68157" lon="4.31802">
        <ele>500.7</ele>
        <time>2023-02-19T10:01:20Z</time>
      </trkpt>
      <trkpt lat="45.68157" lon="4.31802">
        <ele>500.7</ele>
        <time>2023-02-19T10:01:21Z</time>
      </trkpt>
      <trkpt lat="45.68157" lon="4.31802">
        <ele>500.7</ele>
        <time>2023-02-19T10:01:22Z</time>
      </trkpt>
      <trkpt lat="45.68157" lon="4.31802">
        <ele>500.7</ele>
        <time>2023-02-19T10:01:23Z</time>
      </trkpt>
      <trkpt lat="45.68157" lon="4.31802">
        <ele>500.7</ele>
        <time>2023-02-19T10:01:24Z</time>
      </trkpt>
      <trkpt lat="45.68157" lon="4.31802">
        <ele>500.7</ele>
        <time>2023-02-19T10:01:25Z</time>
      </trkpt>
      <trkpt lat="45.68157" lon="4.31802">
        <ele>500.7</ele>
        <time>2023-02-19T10:01:26Z</time>
      </trkpt>
      <trkpt lat="45.68157" lon="4.31802">
        <ele>500.7</ele>
        <time>2023-02-19T10:01:27Z</time>
      </trkpt>
      <trkpt lat="45.68157" lon="4.31802">
        <ele>500.7</ele>
        <time>2023-02-19T10:01:28Z</time>
      </trkpt>
      <trkpt lat="45.68157" lon="4.31802">
        <ele>500.7</ele>
        <time>2023-02-19T10:01:29Z</time>
      </trkpt>
      <trkpt lat="45.68157" lon="4.31802">
        <ele>500.7</ele>
        <time>2023-02-19T10:01:30Z</time>
      </trkpt>
      <trkpt lat="45.68157" lon="4.31803">
        <ele>500.6</ele>
        <time>2023-02-19T10:01:31Z</time>
      </trkpt>
      <trkpt lat="45.68156" lon="4.31803">
        <ele>500.6</ele>
        <time>2023-02-19T10:01:32Z</time>
      </trkpt>
      <trkpt lat="45.68156" lon="4.31803">
        <ele>500.6</ele>
        <time>2023-02-19T10:01:33Z</time>
      </trkpt>
      <trkpt lat="45.68156" lon="4.31803">
        <ele>500.6</ele>
        <time>2023-02-19T10:01:34Z</time>
      </trkpt>
      <trkpt lat="45.68156" lon="4.31803">
        <ele>500.6</ele>
        <time>2023-02-19T10:01:35Z</time>
      </trkpt>
      <trkpt lat="45.68156" lon="4.31803">
        <ele>500.6</ele>
        <time>2023-02-19T10:01:36Z</time>
      </trkpt>
      <trkpt lat="45.68156" lon="4.31803">
        <ele>500.6</ele>
        <time>2023-02-19T10:01:37Z</time>
      </trkpt>
      <trkpt lat="45.68156" lon="4.31803">
        <ele>500.6</ele>
        <time>2023-02-19T10:01:38Z</time>
      </trkpt>
      <trkpt lat="45.68156" lon="4.31803">
        <ele>500.6</ele>
        <time>2023-02-19T10:01:39Z</time>
      </trkpt>
      <trkpt lat="45.68156" lon="4.31803">
        <ele>500.6</ele>
        <time>2023-02-19T10:01:40Z</time>
      </trkpt>
      <trkpt lat="45.68156" lon="4.31803">
        <ele>500.6</ele>
        <time>2023-02-19T10:01:41Z</time>
      </trkpt>
      <trkpt lat="45.68156" lon="4.31803">
        <ele>500.6</ele>
        <time>2023-02-19T10:01:42Z</time>
      </trkpt>
      <trkpt lat="45.68156" lon="4.31803">
        <ele>500.6</ele>
        <time>2023-02-19T10:01:43Z</time>
      </trkpt>
      <trkpt lat="45.68156" lon="4.31803">
        <ele>500.6</ele>
        <time>2023-02-19T10:01:44Z</time>
      </trkpt>
      <trkpt lat="45.68156" lon="4.31803">
        <ele>500.6</ele>
        <time>2023-02-19T10:01:45Z</time>
      </trkpt>
      <trkpt lat="45.68156" lon="4.31803">
        <ele>500.6</ele>
        <time>2023-02-19T10:01:46Z</time>
      </trkpt>
      <trkpt lat="45.68156" lon="4.31803">
        <ele>500.6</ele>
        <time>2023-02-19T10:01:47Z</time>
      </trkpt>
      <trkpt lat="45.68156" lon="4.31803">
        <ele>500.6</ele>
        <time>2023-02-19T10:01:48Z</time>
      </trkpt>
      <trkpt lat="45.68156" lon="4.31803">
        <ele>500.6</ele>
        <time>2023-02-19T10:01:49Z</time>
      </trkpt>
      <trkpt lat="45.68156" lon="4.31803">
        <ele>500.6</ele>
        <time>2023-02-19T10:01:50Z</time>
      </trkpt>
      <trkpt lat="45.68156" lon="4.31803">
        <ele>500.6</ele>
        <time>2023-02-19T10:01:51Z</time>
      </trkpt>
      <trkpt lat="45.68156" lon="4.31803">
        <ele>500.6</ele>
        <time>2023-02-19T10:01:52Z</time>
      </trkpt>
      <trkpt lat="45.68156" lon="4.31804">
        <ele>500.6</ele>
        <time>2023-02-19T10:01:53Z</time>
      </trkpt>
      <trkpt lat="45.68156" lon="4.31804">
        <ele>500.6</ele>
        <time>2023-02-19T10:01:54Z</time>
      </trkpt>
      <trkpt lat="45.68156" lon="4.31804">
        <ele>500.6</ele>
        <time>2023-02-19T10:01:57Z</time>
      </trkpt>
      <trkpt lat="45.68156" lon="4.31805">
        <ele>500.6</ele>
        <time>2023-02-19T10:01:58Z</time>
      </trkpt>
      <trkpt lat="45.68156" lon="4.31805">
        <ele>500.6</ele>
        <time>2023-02-19T10:01:59Z</time>
      </trkpt>
      <trkpt lat="45.68156" lon="4.31805">
        <ele>500.6</ele>
        <time>2023-02-19T10:02:00Z</time>
      </trkpt>
      <trkpt lat="45.68155" lon="4.31805">
        <ele>500.6</ele>
        <time>2023-02-19T10:02:01Z</time>
      </trkpt>
      <trkpt lat="45.68155" lon="4.31805">
        <ele>500.6</ele>
        <time>2023-02-19T10:02:02Z</time>
      </trkpt>
      <trkpt lat="45.68155" lon="4.31805">
        <ele>500.5</ele>
        <time>2023-02-19T10:02:03Z</time>
      </trkpt>
      <trkpt lat="45.68155" lon="4.31805">
        <ele>500.5</ele>
        <time>2023-02-19T10:02:04Z</time>
      </trkpt>
      <trkpt lat="45.68156" lon="4.31805">
        <ele>500.5</ele>
        <time>2023-02-19T10:02:05Z</time>
      </trkpt>
      <trkpt lat="45.68156" lon="4.31805">
        <ele>500.5</ele>
        <time>2023-02-19T10:02:06Z</time>
      </trkpt>
      <trkpt lat="45.68156" lon="4.31805">
        <ele>500.5</ele>
        <time>2023-02-19T10:02:07Z</time>
      </trkpt>
      <trkpt lat="45.68156" lon="4.31805">
        <ele>500.5</ele>
        <time>2023-02-19T10:02:08Z</time>
      </trkpt>
      <trkpt lat="45.68156" lon="4.31805">
        <ele>500.5</ele>
        <time>2023-02-19T10:02:09Z</time>
      </trkpt>
      <trkpt lat="45.68156" lon="4.31805">
        <ele>500.5</ele>
        <time>2023-02-19T10:02:10Z</time>
      </trkpt>
      <trkpt lat="45.68156" lon="4.31805">
        <ele>500.5</ele>
        <time>2023-02-19T10:02:11Z</time>
      </trkpt>
      <trkpt lat="45.68156" lon="4.31805">
        <ele>500.5</ele>
        <time>2023-02-19T10:02:12Z</time>
      </trkpt>
      <trkpt lat="45.68156" lon="4.31805">
        <ele>500.5</ele>
        <time>2023-02-19T10:02:13Z</time>
      </trkpt>
      <trkpt lat="45.68156" lon="4.31805">
        <ele>500.5</ele>
        <time>2023-02-19T10:02:14Z</time>
      </trkpt>
      <trkpt lat="45.68156" lon="4.31805">
        <ele>500.5</ele>
        <time>2023-02-19T10:02:15Z</time>
      </trkpt>
      <trkpt lat="45.68156" lon="4.31805">
        <ele>500.5</ele>
        <time>2023-02-19T10:02:16Z</time>
      </trkpt>
      <trkpt lat="45.68156" lon="4.31805">
        <ele>500.5</ele>
        <time>2023-02-19T10:02:17Z</time>
      </trkpt>
      <trkpt lat="45.68156" lon="4.31805">
        <ele>500.5</ele>
        <time>2023-02-19T10:02:18Z</time>
      </trkpt>
      <trkpt lat="45.68156" lon="4.31805">
        <ele>500.5</ele>
        <time>2023-02-19T10:02:19Z</time>
      </trkpt>
      <trkpt lat="45.68156" lon="4.31805">
        <ele>500.5</ele>
        <time>2023-02-19T10:02:20Z</time>
      </trkpt>
      <trkpt lat="45.68156" lon="4.31805">
        <ele>500.5</ele>
        <time>2023-02-19T10:02:21Z</time>
      </trkpt>
      <trkpt lat="45.68156" lon="4.31805">
        <ele>500.5</ele>
        <time>2023-02-19T10:02:22Z</time>
      </trkpt>
      <trkpt lat="45.68156" lon="4.31805">
        <ele>500.5</ele>
        <time>2023-02-19T10:02:23Z</time>
      </trkpt>
      <trkpt lat="45.68156" lon="4.31805">
        <ele>500.5</ele>
        <time>2023-02-19T10:02:24Z</time>
      </trkpt>
      <trkpt lat="45.68156" lon="4.31805">
        <ele>500.5</ele>
        <time>2023-02-19T10:02:25Z</time>
      </trkpt>
      <trkpt lat="45.68156" lon="4.31805">
        <ele>500.5</ele>
        <time>2023-02-19T10:02:26Z</time>
      </trkpt>
      <trkpt lat="45.68156" lon="4.31805">
        <ele>500.5</ele>
        <time>2023-02-19T10:02:27Z</time>
      </trkpt>
      <trkpt lat="45.68156" lon="4.31805">
        <ele>500.5</ele>
        <time>2023-02-19T10:02:28Z</time>
      </trkpt>
      <trkpt lat="45.68156" lon="4.31805">
        <ele>500.5</ele>
        <time>2023-02-19T10:02:29Z</time>
      </trkpt>
      <trkpt lat="45.68155" lon="4.31805">
        <ele>500.5</ele>
        <time>2023-02-19T10:02:30Z</time>
      </trkpt>
      <trkpt lat="45.68155" lon="4.31805">
        <ele>500.5</ele>
        <time>2023-02-19T10:02:31Z</time>
      </trkpt>
      <trkpt lat="45.68155" lon="4.31806">
        <ele>500.5</ele>
        <time>2023-02-19T10:02:32Z</time>
      </trkpt>
      <trkpt lat="45.68155" lon="4.31805">
        <ele>500.5</ele>
        <time>2023-02-19T10:02:33Z</time>
      </trkpt>
      <trkpt lat="45.68155" lon="4.31805">
        <ele>500.5</ele>
        <time>2023-02-19T10:02:34Z</time>
      </trkpt>
      <trkpt lat="45.68155" lon="4.31805">
        <ele>500.4</ele>
        <time>2023-02-19T10:02:35Z</time>
      </trkpt>
      <trkpt lat="45.68155" lon="4.31805">
        <ele>500.4</ele>
        <time>2023-02-19T10:02:36Z</time>
      </trkpt>
      <trkpt lat="45.68155" lon="4.31805">
        <ele>500.4</ele>
        <time>2023-02-19T10:02:37Z</time>
      </trkpt>
      <trkpt lat="45.68155" lon="4.31805">
        <ele>500.4</ele>
        <time>2023-02-19T10:02:38Z</time>
      </trkpt>
      <trkpt lat="45.68155" lon="4.31805">
        <ele>500.4</ele>
        <time>2023-02-19T10:02:39Z</time>
      </trkpt>
      <trkpt lat="45.68156" lon="4.31805">
        <ele>500.4</ele>
        <time>2023-02-19T10:02:40Z</time>
      </trkpt>
      <trkpt lat="45.68156" lon="4.31805">
        <ele>500.4</ele>
        <time>2023-02-19T10:02:41Z</time>
      </trkpt>
      <trkpt lat="45.68156" lon="4.31806">
        <ele>500.4</ele>
        <time>2023-02-19T10:02:42Z</time>
      </trkpt>
      <trkpt lat="45.68156" lon="4.31806">
        <ele>500.4</ele>
        <time>2023-02-19T10:02:43Z</time>
      </trkpt>
      <trkpt lat="45.68156" lon="4.31805">
        <ele>500.4</ele>
        <time>2023-02-19T10:02:44Z</time>
      </trkpt>
      <trkpt lat="45.68156" lon="4.31805">
        <ele>500.4</ele>
        <time>2023-02-19T10:02:45Z</time>
      </trkpt>
      <trkpt lat="45.68156" lon="4.31805">
        <ele>500.4</ele>
        <time>2023-02-19T10:02:46Z</time>
      </trkpt>
      <trkpt lat="45.68156" lon="4.31805">
        <ele>500.4</ele>
        <time>2023-02-19T10:02:47Z</time>
      </trkpt>
      <trkpt lat="45.68156" lon="4.31804">
        <ele>500.4</ele>
        <time>2023-02-19T10:02:48Z</time>
      </trkpt>
      <trkpt lat="45.68156" lon="4.31804">
        <ele>500.4</ele>
        <time>2023-02-19T10:02:49Z</time>
      </trkpt>
      <trkpt lat="45.68156" lon="4.31804">
        <ele>500.4</ele>
        <time>2023-02-19T10:02:50Z</time>
      </trkpt>
      <trkpt lat="45.68156" lon="4.31804">
        <ele>500.4</ele>
        <time>2023-02-19T10:02:51Z</time>
      </trkpt>
      <trkpt lat="45.68156" lon="4.31804">
        <ele>500.4</ele>
        <time>2023-02-19T10:02:52Z</time>
      </trkpt>
      <trkpt lat="45.68156" lon="4.31804">
        <ele>500.4</ele>
        <time>2023-02-19T10:02:53Z</time>
      </trkpt>
      <trkpt lat="45.68156" lon="4.31804">
        <ele>500.4</ele>
        <time>2023-02-19T10:02:54Z</time>
      </trkpt>
      <trkpt lat="45.68156" lon="4.31804">
        <ele>500.4</ele>
        <time>2023-02-19T10:02:55Z</time>
      </trkpt>
      <trkpt lat="45.68156" lon="4.31803">
        <ele>500.3</ele>
        <time>2023-02-19T10:02:56Z</time>
      </trkpt>
      <trkpt lat="45.68157" lon="4.31803">
        <ele>500.3</ele>
        <time>2023-02-19T10:02:57Z</time>
      </trkpt>
      <trkpt lat="45.68157" lon="4.31803">
        <ele>500.3</ele>
        <time>2023-02-19T10:02:58Z</time>
      </trkpt>
      <trkpt lat="45.68157" lon="4.31803">
        <ele>500.3</ele>
        <time>2023-02-19T10:02:59Z</time>
      </trkpt>
      <trkpt lat="45.68157" lon="4.31804">
        <ele>500.3</ele>
        <time>2023-02-19T10:03:00Z</time>
      </trkpt>
      <trkpt lat="45.68157" lon="4.31804">
        <ele>500.3</ele>
        <time>2023-02-19T10:03:01Z</time>
      </trkpt>
      <trkpt lat="45.68158" lon="4.31803">
        <ele>500.3</ele>
        <time>2023-02-19T10:03:02Z</time>
      </trkpt>
      <trkpt lat="45.68158" lon="4.31804">
        <ele>500.3</ele>
        <time>2023-02-19T10:03:03Z</time>
      </trkpt>
      <trkpt lat="45.68158" lon="4.31804">
        <ele>500.3</ele>
        <time>2023-02-19T10:03:04Z</time>
      </trkpt>
      <trkpt lat="45.68159" lon="4.31804">
        <ele>500.3</ele>
        <time>2023-02-19T10:03:05Z</time>
      </trkpt>
      <trkpt lat="45.68159" lon="4.31804">
        <ele>500.3</ele>
        <time>2023-02-19T10:03:06Z</time>
      </trkpt>
      <trkpt lat="45.68159" lon="4.31804">
        <ele>500.2</ele>
        <time>2023-02-19T10:03:07Z</time>
      </trkpt>
      <trkpt lat="45.68159" lon="4.31805">
        <ele>500.2</ele>
        <time>2023-02-19T10:03:08Z</time>
      </trkpt>
      <trkpt lat="45.68158" lon="4.31805">
        <ele>500.2</ele>
        <time>2023-02-19T10:03:09Z</time>
      </trkpt>
      <trkpt lat="45.68158" lon="4.31805">
        <ele>500.2</ele>
        <time>2023-02-19T10:03:10Z</time>
      </trkpt>
      <trkpt lat="45.68158" lon="4.31805">
        <ele>500.2</ele>
        <time>2023-02-19T10:03:11Z</time>
      </trkpt>
      <trkpt lat="45.68158" lon="4.31805">
        <ele>500.2</ele>
        <time>2023-02-19T10:03:12Z</time>
      </trkpt>
      <trkpt lat="45.68158" lon="4.31805">
        <ele>500.2</ele>
        <time>2023-02-19T10:03:13Z</time>
      </trkpt>
      <trkpt lat="45.68158" lon="4.31805">
        <ele>500.2</ele>
        <time>2023-02-19T10:03:14Z</time>
      </trkpt>
      <trkpt lat="45.68158" lon="4.31806">
        <ele>500.2</ele>
        <time>2023-02-19T10:03:15Z</time>
      </trkpt>
      <trkpt lat="45.68158" lon="4.31805">
        <ele>500.2</ele>
        <time>2023-02-19T10:03:16Z</time>
      </trkpt>
      <trkpt lat="45.68157" lon="4.31805">
        <ele>500.2</ele>
        <time>2023-02-19T10:03:17Z</time>
      </trkpt>
      <trkpt lat="45.68157" lon="4.31804">
        <ele>500.2</ele>
        <time>2023-02-19T10:03:18Z</time>
      </trkpt>
      <trkpt lat="45.68157" lon="4.31804">
        <ele>500.2</ele>
        <time>2023-02-19T10:03:19Z</time>
      </trkpt>
      <trkpt lat="45.68158" lon="4.31804">
        <ele>500.1</ele>
        <time>2023-02-19T10:03:21Z</time>
      </trkpt>
      <trkpt lat="45.68159" lon="4.31804">
        <ele>500.1</ele>
        <time>2023-02-19T10:03:22Z</time>
      </trkpt>
      <trkpt lat="45.6816" lon="4.31803">
        <ele>500.1</ele>
        <time>2023-02-19T10:03:23Z</time>
      </trkpt>
      <trkpt lat="45.6816" lon="4.31802">
        <ele>500.1</ele>
        <time>2023-02-19T10:03:25Z</time>
      </trkpt>
      <trkpt lat="45.6816" lon="4.31802">
        <ele>500.1</ele>
        <time>2023-02-19T10:03:26Z</time>
      </trkpt>
      <trkpt lat="45.6816" lon="4.31802">
        <ele>500.1</ele>
        <time>2023-02-19T10:03:27Z</time>
      </trkpt>
      <trkpt lat="45.6816" lon="4.31802">
        <ele>500.1</ele>
        <time>2023-02-19T10:03:28Z</time>
      </trkpt>
      <trkpt lat="45.6816" lon="4.31802">
        <ele>500.1</ele>
        <time>2023-02-19T10:03:30Z</time>
      </trkpt>
      <trkpt lat="45.6816" lon="4.31802">
        <ele>500.1</ele>
        <time>2023-02-19T10:03:31Z</time>
      </trkpt>
      <trkpt lat="45.6816" lon="4.31802">
        <ele>500.1</ele>
        <time>2023-02-19T10:03:32Z</time>
      </trkpt>
      <trkpt lat="45.6816" lon="4.31802">
        <ele>500.1</ele>
        <time>2023-02-19T10:03:33Z</time>
      </trkpt>
      <trkpt lat="45.6816" lon="4.31802">
        <ele>500.1</ele>
        <time>2023-02-19T10:03:35Z</time>
      </trkpt>
      <trkpt lat="45.6816" lon="4.31802">
        <ele>500</ele>
        <time>2023-02-19T10:03:36Z</time>
      </trkpt>
      <trkpt lat="45.68159" lon="4.31802">
        <ele>500</ele>
        <time>2023-02-19T10:03:37Z</time>
      </trkpt>
      <trkpt lat="45.68159" lon="4.31802">
        <ele>500</ele>
        <time>2023-02-19T10:03:38Z</time>
      </trkpt>
      <trkpt lat="45.68158" lon="4.31802">
        <ele>500</ele>
        <time>2023-02-19T10:03:39Z</time>
      </trkpt>
      <trkpt lat="45.68158" lon="4.31802">
        <ele>500</ele>
        <time>2023-02-19T10:03:40Z</time>
      </trkpt>
      <trkpt lat="45.68158" lon="4.31803">
        <ele>500</ele>
        <time>2023-02-19T10:03:41Z</time>
      </trkpt>
      <trkpt lat="45.68158" lon="4.31802">
        <ele>500</ele>
        <time>2023-02-19T10:03:43Z</time>
      </trkpt>
      <trkpt lat="45.68158" lon="4.31802">
        <ele>500</ele>
        <time>2023-02-19T10:03:44Z</time>
      </trkpt>
      <trkpt lat="45.68159" lon="4.31802">
        <ele>499.9</ele>
        <time>2023-02-19T10:03:45Z</time>
      </trkpt>
      <trkpt lat="45.6816" lon="4.31802">
        <ele>499.9</ele>
        <time>2023-02-19T10:03:47Z</time>
      </trkpt>
      <trkpt lat="45.6816" lon="4.31802">
        <ele>499.9</ele>
        <time>2023-02-19T10:03:48Z</time>
      </trkpt>
      <trkpt lat="45.6816" lon="4.31801">
        <ele>499.9</ele>
        <time>2023-02-19T10:03:49Z</time>
      </trkpt>
      <trkpt lat="45.6816" lon="4.31802">
        <ele>499.9</ele>
        <time>2023-02-19T10:03:51Z</time>
      </trkpt>
      <trkpt lat="45.6816" lon="4.31801">
        <ele>499.9</ele>
        <time>2023-02-19T10:03:52Z</time>
      </trkpt>
      <trkpt lat="45.6816" lon="4.31801">
        <ele>499.9</ele>
        <time>2023-02-19T10:03:53Z</time>
      </trkpt>
      <trkpt lat="45.6816" lon="4.31801">
        <ele>499.9</ele>
        <time>2023-02-19T10:03:54Z</time>
      </trkpt>
      <trkpt lat="45.6816" lon="4.31801">
        <ele>499.9</ele>
        <time>2023-02-19T10:03:55Z</time>
      </trkpt>
      <trkpt lat="45.6816" lon="4.31801">
        <ele>499.9</ele>
        <time>2023-02-19T10:03:57Z</time>
      </trkpt>
      <trkpt lat="45.6816" lon="4.31801">
        <ele>499.9</ele>
        <time>2023-02-19T10:03:58Z</time>
      </trkpt>
      <trkpt lat="45.6816" lon="4.31801">
        <ele>499.9</ele>
        <time>2023-02-19T10:03:59Z</time>
      </trkpt>
      <trkpt lat="45.6816" lon="4.31801">
        <ele>499.9</ele>
        <time>2023-02-19T10:04:00Z</time>
      </trkpt>
      <trkpt lat="45.6816" lon="4.31801">
        <ele>499.9</ele>
        <time>2023-02-19T10:04:01Z</time>
      </trkpt>
      <trkpt lat="45.6816" lon="4.31801">
        <ele>499.9</ele>
        <time>2023-02-19T10:04:02Z</time>
      </trkpt>
      <trkpt lat="45.68159" lon="4.31802">
        <ele>499.9</ele>
        <time>2023-02-19T10:04:03Z</time>
      </trkpt>
      <trkpt lat="45.68159" lon="4.31802">
        <ele>499.9</ele>
        <time>2023-02-19T10:04:04Z</time>
      </trkpt>
      <trkpt lat="45.68158" lon="4.31803">
        <ele>499.8</ele>
        <time>2023-02-19T10:04:05Z</time>
      </trkpt>
      <trkpt lat="45.68158" lon="4.31803">
        <ele>499.8</ele>
        <time>2023-02-19T10:04:06Z</time>
      </trkpt>
      <trkpt lat="45.68158" lon="4.31803">
        <ele>499.8</ele>
        <time>2023-02-19T10:04:07Z</time>
      </trkpt>
      <trkpt lat="45.68158" lon="4.31803">
        <ele>499.8</ele>
        <time>2023-02-19T10:04:08Z</time>
      </trkpt>
      <trkpt lat="45.68158" lon="4.31803">
        <ele>499.8</ele>
        <time>2023-02-19T10:04:09Z</time>
      </trkpt>
      <trkpt lat="45.68158" lon="4.31803">
        <ele>499.8</ele>
        <time>2023-02-19T10:04:10Z</time>
      </trkpt>
      <trkpt lat="45.68158" lon="4.31803">
        <ele>499.8</ele>
        <time>2023-02-19T10:04:11Z</time>
      </trkpt>
      <trkpt lat="45.68158" lon="4.31803">
        <ele>499.8</ele>
        <time>2023-02-19T10:04:12Z</time>
      </trkpt>
      <trkpt lat="45.68158" lon="4.31803">
        <ele>499.8</ele>
        <time>2023-02-19T10:04:13Z</time>
      </trkpt>
      <trkpt lat="45.68158" lon="4.31803">
        <ele>499.8</ele>
        <time>2023-02-19T10:04:14Z</time>
      </trkpt>
      <trkpt lat="45.68158" lon="4.31803">
        <ele>499.8</ele>
        <time>2023-02-19T10:04:15Z</time>
      </trkpt>
      <trkpt lat="45.68158" lon="4.31803">
        <ele>499.8</ele>
        <time>2023-02-19T10:04:16Z</time>
      </trkpt>
      <trkpt lat="45.68158" lon="4.31804">
        <ele>499.8</ele>
        <time>2023-02-19T10:04:17Z</time>
      </trkpt>
      <trkpt lat="45.68158" lon="4.31804">
        <ele>499.8</ele>
        <time>2023-02-19T10:04:18Z</time>
      </trkpt>
      <trkpt lat="45.68158" lon="4.31804">
        <ele>499.8</ele>
        <time>2023-02-19T10:04:19Z</time>
      </trkpt>
      <trkpt lat="45.68158" lon="4.31803">
        <ele>499.8</ele>
        <time>2023-02-19T10:04:20Z</time>
      </trkpt>
      <trkpt lat="45.68158" lon="4.31803">
        <ele>499.8</ele>
        <time>2023-02-19T10:04:21Z</time>
      </trkpt>
      <trkpt lat="45.68158" lon="4.31803">
        <ele>499.8</ele>
        <time>2023-02-19T10:04:22Z</time>
      </trkpt>
      <trkpt lat="45.68158" lon="4.31804">
        <ele>499.8</ele>
        <time>2023-02-19T10:04:23Z</time>
      </trkpt>
      <trkpt lat="45.68158" lon="4.31804">
        <ele>499.8</ele>
        <time>2023-02-19T10:04:24Z</time>
      </trkpt>
      <trkpt lat="45.68158" lon="4.31804">
        <ele>499.8</ele>
        <time>2023-02-19T10:04:25Z</time>
      </trkpt>
      <trkpt lat="45.68158" lon="4.31804">
        <ele>499.8</ele>
        <time>2023-02-19T10:04:26Z</time>
      </trkpt>
      <trkpt lat="45.68158" lon="4.31804">
        <ele>499.8</ele>
        <time>2023-02-19T10:04:27Z</time>
      </trkpt>
      <trkpt lat="45.68158" lon="4.31804">
        <ele>499.8</ele>
        <time>2023-02-19T10:04:28Z</time>
      </trkpt>
      <trkpt lat="45.68158" lon="4.31804">
        <ele>499.8</ele>
        <time>2023-02-19T10:04:29Z</time>
      </trkpt>
      <trkpt lat="45.68158" lon="4.31804">
        <ele>499.8</ele>
        <time>2023-02-19T10:04:30Z</time>
      </trkpt>
      <trkpt lat="45.68157" lon="4.31804">
        <ele>499.8</ele>
        <time>2023-02-19T10:04:31Z</time>
      </trkpt>
      <trkpt lat="45.68157" lon="4.31803">
        <ele>499.8</ele>
        <time>2023-02-19T10:04:32Z</time>
      </trkpt>
      <trkpt lat="45.68157" lon="4.31804">
        <ele>499.7</ele>
        <time>2023-02-19T10:04:33Z</time>
      </trkpt>
      <trkpt lat="45.68157" lon="4.31804">
        <ele>499.7</ele>
        <time>2023-02-19T10:04:34Z</time>
      </trkpt>
      <trkpt lat="45.68157" lon="4.31804">
        <ele>499.7</ele>
        <time>2023-02-19T10:04:35Z</time>
      </trkpt>
      <trkpt lat="45.68157" lon="4.31804">
        <ele>499.7</ele>
        <time>2023-02-19T10:04:36Z</time>
      </trkpt>
      <trkpt lat="45.68157" lon="4.31804">
        <ele>499.7</ele>
        <time>2023-02-19T10:04:37Z</time>
      </trkpt>
      <trkpt lat="45.68157" lon="4.31804">
        <ele>499.7</ele>
        <time>2023-02-19T10:04:38Z</time>
      </trkpt>
      <trkpt lat="45.68157" lon="4.31804">
        <ele>499.7</ele>
        <time>2023-02-19T10:04:39Z</time>
      </trkpt>
      <trkpt lat="45.68157" lon="4.31804">
        <ele>499.7</ele>
        <time>2023-02-19T10:04:40Z</time>
      </trkpt>
      <trkpt lat="45.68157" lon="4.31804">
        <ele>499.7</ele>
        <time>2023-02-19T10:04:41Z</time>
      </trkpt>
      <trkpt lat="45.68157" lon="4.31804">
        <ele>499.7</ele>
        <time>2023-02-19T10:04:42Z</time>
      </trkpt>
      <trkpt lat="45.68157" lon="4.31804">
        <ele>499.7</ele>
        <time>2023-02-19T10:04:43Z</time>
      </trkpt>
      <trkpt lat="45.68157" lon="4.31804">
        <ele>499.7</ele>
        <time>2023-02-19T10:04:44Z</time>
      </trkpt>
      <trkpt lat="45.68157" lon="4.31804">
        <ele>499.7</ele>
        <time>2023-02-19T10:04:45Z</time>
      </trkpt>
      <trkpt lat="45.68157" lon="4.31804">
        <ele>499.7</ele>
        <time>2023-02-19T10:04:46Z</time>
      </trkpt>
      <trkpt lat="45.68157" lon="4.31804">
        <ele>499.7</ele>
        <time>2023-02-19T10:04:47Z</time>
      </trkpt>
      <trkpt lat="45.68157" lon="4.31804">
        <ele>499.7</ele>
        <time>2023-02-19T10:04:48Z</time>
      </trkpt>
      <trkpt lat="45.68157" lon="4.31804">
        <ele>499.7</ele>
        <time>2023-02-19T10:04:49Z</time>
      </trkpt>
      <trkpt lat="45.68157" lon="4.31804">
        <ele>499.7</ele>
        <time>2023-02-19T10:04:50Z</time>
      </trkpt>
      <trkpt lat="45.68157" lon="4.31804">
        <ele>499.7</ele>
        <time>2023-02-19T10:04:51Z</time>
      </trkpt>
      <trkpt lat="45.68157" lon="4.31804">
        <ele>499.7</ele>
        <time>2023-02-19T10:04:52Z</time>
      </trkpt>
      <trkpt lat="45.68157" lon="4.31804">
        <ele>499.7</ele>
        <time>2023-02-19T10:04:53Z</time>
      </trkpt>
      <trkpt lat="45.68157" lon="4.31804">
        <ele>499.7</ele>
        <time>2023-02-19T10:04:54Z</time>
      </trkpt>
      <trkpt lat="45.68157" lon="4.31804">
        <ele>499.7</ele>
        <time>2023-02-19T10:04:55Z</time>
      </trkpt>
      <trkpt lat="45.68157" lon="4.31804">
        <ele>499.7</ele>
        <time>2023-02-19T10:04:56Z</time>
      </trkpt>
      <trkpt lat="45.68157" lon="4.31804">
        <ele>499.7</ele>
        <time>2023-02-19T10:04:57Z</time>
      </trkpt>
      <trkpt lat="45.68156" lon="4.31804">
        <ele>499.7</ele>
        <time>2023-02-19T10:04:58Z</time>
      </trkpt>
      <trkpt lat="45.68156" lon="4.31804">
        <ele>499.7</ele>
        <time>2023-02-19T10:04:59Z</time>
      </trkpt>
      <trkpt lat="45.68156" lon="4.31804">
        <ele>499.7</ele>
        <time>2023-02-19T10:05:00Z</time>
      </trkpt>
      <trkpt lat="45.68157" lon="4.31804">
        <ele>499.7</ele>
        <time>2023-02-19T10:05:01Z</time>
      </trkpt>
      <trkpt lat="45.68157" lon="4.31804">
        <ele>499.7</ele>
        <time>2023-02-19T10:05:02Z</time>
      </trkpt>
      <trkpt lat="45.68157" lon="4.31804">
        <ele>499.7</ele>
        <time>2023-02-19T10:05:03Z</time>
      </trkpt>
      <trkpt lat="45.68157" lon="4.31804">
        <ele>499.7</ele>
        <time>2023-02-19T10:05:04Z</time>
      </trkpt>
      <trkpt lat="45.68156" lon="4.31804">
        <ele>499.7</ele>
        <time>2023-02-19T10:05:05Z</time>
      </trkpt>
      <trkpt lat="45.68156" lon="4.31804">
        <ele>499.7</ele>
        <time>2023-02-19T10:05:06Z</time>
      </trkpt>
      <trkpt lat="45.68156" lon="4.31804">
        <ele>499.7</ele>
        <time>2023-02-19T10:05:07Z</time>
      </trkpt>
      <trkpt lat="45.68156" lon="4.31804">
        <ele>499.7</ele>
        <time>2023-02-19T10:05:08Z</time>
      </trkpt>
      <trkpt lat="45.68156" lon="4.31804">
        <ele>499.7</ele>
        <time>2023-02-19T10:05:09Z</time>
      </trkpt>
      <trkpt lat="45.68156" lon="4.31804">
        <ele>499.7</ele>
        <time>2023-02-19T10:05:10Z</time>
      </trkpt>
      <trkpt lat="45.68156" lon="4.31804">
        <ele>499.7</ele>
        <time>2023-02-19T10:05:11Z</time>
      </trkpt>
      <trkpt lat="45.68156" lon="4.31804">
        <ele>499.7</ele>
        <time>2023-02-19T10:05:12Z</time>
      </trkpt>
      <trkpt lat="45.68156" lon="4.31804">
        <ele>499.7</ele>
        <time>2023-02-19T10:05:13Z</time>
      </trkpt>
      <trkpt lat="45.68156" lon="4.31804">
        <ele>499.7</ele>
        <time>2023-02-19T10:05:14Z</time>
      </trkpt>
      <trkpt lat="45.68156" lon="4.31804">
        <ele>499.7</ele>
        <time>2023-02-19T10:05:15Z</time>
      </trkpt>
      <trkpt lat="45.68156" lon="4.31804">
        <ele>499.7</ele>
        <time>2023-02-19T10:05:16Z</time>
      </trkpt>
      <trkpt lat="45.68156" lon="4.31804">
        <ele>499.7</ele>
        <time>2023-02-19T10:05:17Z</time>
      </trkpt>
      <trkpt lat="45.68156" lon="4.31804">
        <ele>499.7</ele>
        <time>2023-02-19T10:05:18Z</time>
      </trkpt>
      <trkpt lat="45.68156" lon="4.31805">
        <ele>499.7</ele>
        <time>2023-02-19T10:05:19Z</time>
      </trkpt>
      <trkpt lat="45.68156" lon="4.31805">
        <ele>499.7</ele>
        <time>2023-02-19T10:05:20Z</time>
      </trkpt>
      <trkpt lat="45.68156" lon="4.31805">
        <ele>499.7</ele>
        <time>2023-02-19T10:05:21Z</time>
      </trkpt>
      <trkpt lat="45.68156" lon="4.31805">
        <ele>499.7</ele>
        <time>2023-02-19T10:05:22Z</time>
      </trkpt>
      <trkpt lat="45.68156" lon="4.31805">
        <ele>499.7</ele>
        <time>2023-02-19T10:05:23Z</time>
      </trkpt>
      <trkpt lat="45.68155" lon="4.31804">
        <ele>499.6</ele>
        <time>2023-02-19T10:05:24Z</time>
      </trkpt>
      <trkpt lat="45.68155" lon="4.31804">
        <ele>499.6</ele>
        <time>2023-02-19T10:05:25Z</time>
      </trkpt>
      <trkpt lat="45.68154" lon="4.31804">
        <ele>499.6</ele>
        <time>2023-02-19T10:05:26Z</time>
      </trkpt>
      <trkpt lat="45.68153" lon="4.31805">
        <ele>499.6</ele>
        <time>2023-02-19T10:05:27Z</time>
      </trkpt>
      <trkpt lat="45.68153" lon="4.31805">
        <ele>499.6</ele>
        <time>2023-02-19T10:05:28Z</time>
      </trkpt>
      <trkpt lat="45.68153" lon="4.31805">
        <ele>499.6</ele>
        <time>2023-02-19T10:05:29Z</time>
      </trkpt>
      <trkpt lat="45.68152" lon="4.31805">
        <ele>499.5</ele>
        <time>2023-02-19T10:05:30Z</time>
      </trkpt>
      <trkpt lat="45.68152" lon="4.31805">
        <ele>499.5</ele>
        <time>2023-02-19T10:05:31Z</time>
      </trkpt>
      <trkpt lat="45.68151" lon="4.31804">
        <ele>499.5</ele>
        <time>2023-02-19T10:05:32Z</time>
      </trkpt>
      <trkpt lat="45.68151" lon="4.31804">
        <ele>499.5</ele>
        <time>2023-02-19T10:05:33Z</time>
      </trkpt>
      <trkpt lat="45.68151" lon="4.31804">
        <ele>499.5</ele>
        <time>2023-02-19T10:05:34Z</time>
      </trkpt>
      <trkpt lat="45.68151" lon="4.31804">
        <ele>499.5</ele>
        <time>2023-02-19T10:05:35Z</time>
      </trkpt>
      <trkpt lat="45.68151" lon="4.31804">
        <ele>499.5</ele>
        <time>2023-02-19T10:05:36Z</time>
      </trkpt>
      <trkpt lat="45.68151" lon="4.31804">
        <ele>499.5</ele>
        <time>2023-02-19T10:05:37Z</time>
      </trkpt>
      <trkpt lat="45.68151" lon="4.31804">
        <ele>499.5</ele>
        <time>2023-02-19T10:05:38Z</time>
      </trkpt>
      <trkpt lat="45.6815" lon="4.31804">
        <ele>499.5</ele>
        <time>2023-02-19T10:05:39Z</time>
      </trkpt>
      <trkpt lat="45.6815" lon="4.31804">
        <ele>499.5</ele>
        <time>2023-02-19T10:05:40Z</time>
      </trkpt>
      <trkpt lat="45.6815" lon="4.31804">
        <ele>499.5</ele>
        <time>2023-02-19T10:05:41Z</time>
      </trkpt>
      <trkpt lat="45.6815" lon="4.31804">
        <ele>499.5</ele>
        <time>2023-02-19T10:05:42Z</time>
      </trkpt>
      <trkpt lat="45.6815" lon="4.31804">
        <ele>499.5</ele>
        <time>2023-02-19T10:05:43Z</time>
      </trkpt>
      <trkpt lat="45.6815" lon="4.31803">
        <ele>499.4</ele>
        <time>2023-02-19T10:05:44Z</time>
      </trkpt>
      <trkpt lat="45.6815" lon="4.31803">
        <ele>499.4</ele>
        <time>2023-02-19T10:05:45Z</time>
      </trkpt>
      <trkpt lat="45.6815" lon="4.31803">
        <ele>499.4</ele>
        <time>2023-02-19T10:05:46Z</time>
      </trkpt>
      <trkpt lat="45.6815" lon="4.31803">
        <ele>499.4</ele>
        <time>2023-02-19T10:05:47Z</time>
      </trkpt>
      <trkpt lat="45.6815" lon="4.31803">
        <ele>499.4</ele>
        <time>2023-02-19T10:05:48Z</time>
      </trkpt>
      <trkpt lat="45.6815" lon="4.31803">
        <ele>499.4</ele>
        <time>2023-02-19T10:05:49Z</time>
      </trkpt>
      <trkpt lat="45.6815" lon="4.31803">
        <ele>499.4</ele>
        <time>2023-02-19T10:05:50Z</time>
      </trkpt>
      <trkpt lat="45.6815" lon="4.31803">
        <ele>499.4</ele>
        <time>2023-02-19T10:05:51Z</time>
      </trkpt>
      <trkpt lat="45.6815" lon="4.31803">
        <ele>499.4</ele>
        <time>2023-02-19T10:05:52Z</time>
      </trkpt>
      <trkpt lat="45.6815" lon="4.31803">
        <ele>499.4</ele>
        <time>2023-02-19T10:05:53Z</time>
      </trkpt>
      <trkpt lat="45.6815" lon="4.31803">
        <ele>499.4</ele>
        <time>2023-02-19T10:05:54Z</time>
      </trkpt>
      <trkpt lat="45.6815" lon="4.31803">
        <ele>499.4</ele>
        <time>2023-02-19T10:05:55Z</time>
      </trkpt>
      <trkpt lat="45.6815" lon="4.31803">
        <ele>499.4</ele>
        <time>2023-02-19T10:05:56Z</time>
      </trkpt>
      <trkpt lat="45.6815" lon="4.31803">
        <ele>499.4</ele>
        <time>2023-02-19T10:05:57Z</time>
      </trkpt>
      <trkpt lat="45.6815" lon="4.31803">
        <ele>499.4</ele>
        <time>2023-02-19T10:05:58Z</time>
      </trkpt>
      <trkpt lat="45.6815" lon="4.31803">
        <ele>499.4</ele>
        <time>2023-02-19T10:05:59Z</time>
      </trkpt>
      <trkpt lat="45.6815" lon="4.31803">
        <ele>499.4</ele>
        <time>2023-02-19T10:06:00Z</time>
      </trkpt>
      <trkpt lat="45.6815" lon="4.31803">
        <ele>499.4</ele>
        <time>2023-02-19T10:06:01Z</time>
      </trkpt>
      <trkpt lat="45.6815" lon="4.31803">
        <ele>499.4</ele>
        <time>2023-02-19T10:06:02Z</time>
      </trkpt>
      <trkpt lat="45.6815" lon="4.31803">
        <ele>499.4</ele>
        <time>2023-02-19T10:06:03Z</time>
      </trkpt>
      <trkpt lat="45.6815" lon="4.31802">
        <ele>499.4</ele>
        <time>2023-02-19T10:06:04Z</time>
      </trkpt>
      <trkpt lat="45.6815" lon="4.31802">
        <ele>499.4</ele>
        <time>2023-02-19T10:06:05Z</time>
      </trkpt>
      <trkpt lat="45.68151" lon="4.31803">
        <ele>499.4</ele>
        <time>2023-02-19T10:06:06Z</time>
      </trkpt>
      <trkpt lat="45.68151" lon="4.31803">
        <ele>499.4</ele>
        <time>2023-02-19T10:06:07Z</time>
      </trkpt>
      <trkpt lat="45.68151" lon="4.31804">
        <ele>499.3</ele>
        <time>2023-02-19T10:06:08Z</time>
      </trkpt>
      <trkpt lat="45.68151" lon="4.31804">
        <ele>499.3</ele>
        <time>2023-02-19T10:06:09Z</time>
      </trkpt>
      <trkpt lat="45.68151" lon="4.31804">
        <ele>499.3</ele>
        <time>2023-02-19T10:06:10Z</time>
      </trkpt>
      <trkpt lat="45.68151" lon="4.31803">
        <ele>499.3</ele>
        <time>2023-02-19T10:06:11Z</time>
      </trkpt>
      <trkpt lat="45.68151" lon="4.31803">
        <ele>499.3</ele>
        <time>2023-02-19T10:06:12Z</time>
      </trkpt>
      <trkpt lat="45.68151" lon="4.31803">
        <ele>499.3</ele>
        <time>2023-02-19T10:06:13Z</time>
      </trkpt>
      <trkpt lat="45.68151" lon="4.31803">
        <ele>499.3</ele>
        <time>2023-02-19T10:06:14Z</time>
      </trkpt>
      <trkpt lat="45.68151" lon="4.31803">
        <ele>499.3</ele>
        <time>2023-02-19T10:06:15Z</time>
      </trkpt>
      <trkpt lat="45.68151" lon="4.31803">
        <ele>499.3</ele>
        <time>2023-02-19T10:06:16Z</time>
      </trkpt>
      <trkpt lat="45.68151" lon="4.31803">
        <ele>499.3</ele>
        <time>2023-02-19T10:06:17Z</time>
      </trkpt>
      <trkpt lat="45.68151" lon="4.31803">
        <ele>499.3</ele>
        <time>2023-02-19T10:06:18Z</time>
      </trkpt>
      <trkpt lat="45.68151" lon="4.31803">
        <ele>499.3</ele>
        <time>2023-02-19T10:06:19Z</time>
      </trkpt>
      <trkpt lat="45.68151" lon="4.31803">
        <ele>499.3</ele>
        <time>2023-02-19T10:06:20Z</time>
      </trkpt>
      <trkpt lat="45.6815" lon="4.31803">
        <ele>499.3</ele>
        <time>2023-02-19T10:06:21Z</time>
      </trkpt>
      <trkpt lat="45.6815" lon="4.31803">
        <ele>499.3</ele>
        <time>2023-02-19T10:06:22Z</time>
      </trkpt>
      <trkpt lat="45.6815" lon="4.31803">
        <ele>499.3</ele>
        <time>2023-02-19T10:06:23Z</time>
      </trkpt>
      <trkpt lat="45.6815" lon="4.31803">
        <ele>499.3</ele>
        <time>2023-02-19T10:06:24Z</time>
      </trkpt>
      <trkpt lat="45.6815" lon="4.31803">
        <ele>499.3</ele>
        <time>2023-02-19T10:06:25Z</time>
      </trkpt>
      <trkpt lat="45.6815" lon="4.31803">
        <ele>499.3</ele>
        <time>2023-02-19T10:06:26Z</time>
      </trkpt>
      <trkpt lat="45.6815" lon="4.31803">
        <ele>499.3</ele>
        <time>2023-02-19T10:06:27Z</time>
      </trkpt>
      <trkpt lat="45.6815" lon="4.31803">
        <ele>499.3</ele>
        <time>2023-02-19T10:06:28Z</time>
      </trkpt>
      <trkpt lat="45.6815" lon="4.31803">
        <ele>499.3</ele>
        <time>2023-02-19T10:06:29Z</time>
      </trkpt>
      <trkpt lat="45.6815" lon="4.31803">
        <ele>499.3</ele>
        <time>2023-02-19T10:06:30Z</time>
      </trkpt>
      <trkpt lat="45.6815" lon="4.31803">
        <ele>499.3</ele>
        <time>2023-02-19T10:06:31Z</time>
      </trkpt>
      <trkpt lat="45.6815" lon="4.31803">
        <ele>499.3</ele>
        <time>2023-02-19T10:06:32Z</time>
      </trkpt>
      <trkpt lat="45.6815" lon="4.31802">
        <ele>499.3</ele>
        <time>2023-02-19T10:06:33Z</time>
      </trkpt>
      <trkpt lat="45.6815" lon="4.31802">
        <ele>499.3</ele>
        <time>2023-02-19T10:06:34Z</time>
      </trkpt>
      <trkpt lat="45.6815" lon="4.31801">
        <ele>499.2</ele>
        <time>2023-02-19T10:06:35Z</time>
      </trkpt>
      <trkpt lat="45.6815" lon="4.31801">
        <ele>499.2</ele>
        <time>2023-02-19T10:06:36Z</time>
      </trkpt>
      <trkpt lat="45.6815" lon="4.318">
        <ele>499.2</ele>
        <time>2023-02-19T10:06:37Z</time>
      </trkpt>
      <trkpt lat="45.6815" lon="4.318">
        <ele>499.2</ele>
        <time>2023-02-19T10:06:38Z</time>
      </trkpt>
      <trkpt lat="45.6815" lon="4.318">
        <ele>499.2</ele>
        <time>2023-02-19T10:06:39Z</time>
      </trkpt>
      <trkpt lat="45.6815" lon="4.318">
        <ele>499.2</ele>
        <time>2023-02-19T10:06:40Z</time>
      </trkpt>
      <trkpt lat="45.6815" lon="4.318">
        <ele>499.2</ele>
        <time>2023-02-19T10:06:41Z</time>
      </trkpt>
      <trkpt lat="45.6815" lon="4.318">
        <ele>499.2</ele>
        <time>2023-02-19T10:06:42Z</time>
      </trkpt>
      <trkpt lat="45.6815" lon="4.318">
        <ele>499.2</ele>
        <time>2023-02-19T10:06:43Z</time>
      </trkpt>
      <trkpt lat="45.68149" lon="4.31801">
        <ele>499.2</ele>
        <time>2023-02-19T10:06:44Z</time>
      </trkpt>
      <trkpt lat="45.68149" lon="4.31801">
        <ele>499.2</ele>
        <time>2023-02-19T10:06:45Z</time>
      </trkpt>
      <trkpt lat="45.68149" lon="4.31801">
        <ele>499.2</ele>
        <time>2023-02-19T10:06:46Z</time>
      </trkpt>
      <trkpt lat="45.68149" lon="4.31802">
        <ele>499.2</ele>
        <time>2023-02-19T10:06:47Z</time>
      </trkpt>
      <trkpt lat="45.68148" lon="4.31803">
        <ele>499.2</ele>
        <time>2023-02-19T10:06:48Z</time>
      </trkpt>
      <trkpt lat="45.68148" lon="4.31803">
        <ele>499.2</ele>
        <time>2023-02-19T10:06:49Z</time>
      </trkpt>
      <trkpt lat="45.68148" lon="4.31803">
        <ele>499.2</ele>
        <time>2023-02-19T10:06:50Z</time>
      </trkpt>
      <trkpt lat="45.68148" lon="4.31803">
        <ele>499.2</ele>
        <time>2023-02-19T10:06:51Z</time>
      </trkpt>
      <trkpt lat="45.68148" lon="4.31803">
        <ele>499.2</ele>
        <time>2023-02-19T10:06:52Z</time>
      </trkpt>
      <trkpt lat="45.68148" lon="4.31803">
        <ele>499.2</ele>
        <time>2023-02-19T10:06:53Z</time>
      </trkpt>
      <trkpt lat="45.68148" lon="4.31804">
        <ele>499.2</ele>
        <time>2023-02-19T10:06:54Z</time>
      </trkpt>
      <trkpt lat="45.68148" lon="4.31804">
        <ele>499.2</ele>
        <time>2023-02-19T10:06:55Z</time>
      </trkpt>
      <trkpt lat="45.68147" lon="4.31804">
        <ele>499.2</ele>
        <time>2023-02-19T10:06:56Z</time>
      </trkpt>
      <trkpt lat="45.68147" lon="4.31804">
        <ele>499.2</ele>
        <time>2023-02-19T10:06:57Z</time>
      </trkpt>
      <trkpt lat="45.68147" lon="4.31804">
        <ele>499.2</ele>
        <time>2023-02-19T10:06:58Z</time>
      </trkpt>
      <trkpt lat="45.68147" lon="4.31804">
        <ele>499.2</ele>
        <time>2023-02-19T10:06:59Z</time>
      </trkpt>
      <trkpt lat="45.68147" lon="4.31804">
        <ele>499.2</ele>
        <time>2023-02-19T10:07:00Z</time>
      </trkpt>
      <trkpt lat="45.68147" lon="4.31804">
        <ele>499.3</ele>
        <time>2023-02-19T10:07:01Z</time>
      </trkpt>
      <trkpt lat="45.68146" lon="4.31804">
        <ele>499.3</ele>
        <time>2023-02-19T10:07:02Z</time>
      </trkpt>
      <trkpt lat="45.68146" lon="4.31804">
        <ele>499.3</ele>
        <time>2023-02-19T10:07:03Z</time>
      </trkpt>
      <trkpt lat="45.68146" lon="4.31803">
        <ele>499.3</ele>
        <time>2023-02-19T10:07:04Z</time>
      </trkpt>
      <trkpt lat="45.68147" lon="4.31803">
        <ele>499.3</ele>
        <time>2023-02-19T10:07:05Z</time>
      </trkpt>
      <trkpt lat="45.68147" lon="4.31803">
        <ele>499.3</ele>
        <time>2023-02-19T10:07:06Z</time>
      </trkpt>
      <trkpt lat="45.68147" lon="4.31803">
        <ele>499.3</ele>
        <time>2023-02-19T10:07:07Z</time>
      </trkpt>
      <trkpt lat="45.68147" lon="4.31803">
        <ele>499.3</ele>
        <time>2023-02-19T10:07:08Z</time>
      </trkpt>
      <trkpt lat="45.68147" lon="4.31803">
        <ele>499.3</ele>
        <time>2023-02-19T10:07:09Z</time>
      </trkpt>
      <trkpt lat="45.68147" lon="4.31803">
        <ele>499.3</ele>
        <time>2023-02-19T10:07:10Z</time>
      </trkpt>
      <trkpt lat="45.68147" lon="4.31803">
        <ele>499.3</ele>
        <time>2023-02-19T10:07:11Z</time>
      </trkpt>
      <trkpt lat="45.68147" lon="4.31803">
        <ele>499.3</ele>
        <time>2023-02-19T10:07:12Z</time>
      </trkpt>
      <trkpt lat="45.68147" lon="4.31803">
        <ele>499.3</ele>
        <time>2023-02-19T10:07:13Z</time>
      </trkpt>
      <trkpt lat="45.68147" lon="4.31802">
        <ele>499.3</ele>
        <time>2023-02-19T10:07:14Z</time>
      </trkpt>
      <trkpt lat="45.68148" lon="4.31802">
        <ele>499.4</ele>
        <time>2023-02-19T10:07:15Z</time>
      </trkpt>
      <trkpt lat="45.68147" lon="4.31801">
        <ele>499.4</ele>
        <time>2023-02-19T10:07:17Z</time>
      </trkpt>
      <trkpt lat="45.68147" lon="4.318">
        <ele>499.4</ele>
        <time>2023-02-19T10:07:18Z</time>
      </trkpt>
      <trkpt lat="45.68147" lon="4.318">
        <ele>499.4</ele>
        <time>2023-02-19T10:07:19Z</time>
      </trkpt>
      <trkpt lat="45.68147" lon="4.318">
        <ele>499.4</ele>
        <time>2023-02-19T10:07:20Z</time>
      </trkpt>
      <trkpt lat="45.68147" lon="4.318">
        <ele>499.4</ele>
        <time>2023-02-19T10:07:21Z</time>
      </trkpt>
      <trkpt lat="45.68147" lon="4.318">
        <ele>499.4</ele>
        <time>2023-02-19T10:07:22Z</time>
      </trkpt>
      <trkpt lat="45.68147" lon="4.318">
        <ele>499.4</ele>
        <time>2023-02-19T10:07:23Z</time>
      </trkpt>
      <trkpt lat="45.68148" lon="4.318">
        <ele>499.4</ele>
        <time>2023-02-19T10:07:25Z</time>
      </trkpt>
      <trkpt lat="45.68148" lon="4.318">
        <ele>499.4</ele>
        <time>2023-02-19T10:07:26Z</time>
      </trkpt>
      <trkpt lat="45.68148" lon="4.318">
        <ele>499.4</ele>
        <time>2023-02-19T10:07:27Z</time>
      </trkpt>
      <trkpt lat="45.68148" lon="4.318">
        <ele>499.4</ele>
        <time>2023-02-19T10:07:29Z</time>
      </trkpt>
      <trkpt lat="45.68149" lon="4.318">
        <ele>499.4</ele>
        <time>2023-02-19T10:07:30Z</time>
      </trkpt>
      <trkpt lat="45.68149" lon="4.318">
        <ele>499.5</ele>
        <time>2023-02-19T10:07:31Z</time>
      </trkpt>
      <trkpt lat="45.68149" lon="4.318">
        <ele>499.5</ele>
        <time>2023-02-19T10:07:33Z</time>
      </trkpt>
      <trkpt lat="45.6815" lon="4.318">
        <ele>499.5</ele>
        <time>2023-02-19T10:07:34Z</time>
      </trkpt>
      <trkpt lat="45.6815" lon="4.318">
        <ele>499.5</ele>
        <time>2023-02-19T10:07:35Z</time>
      </trkpt>
      <trkpt lat="45.6815" lon="4.318">
        <ele>499.5</ele>
        <time>2023-02-19T10:07:36Z</time>
      </trkpt>
      <trkpt lat="45.6815" lon="4.318">
        <ele>499.5</ele>
        <time>2023-02-19T10:07:37Z</time>
      </trkpt>
      <trkpt lat="45.68151" lon="4.318">
        <ele>499.5</ele>
        <time>2023-02-19T10:07:38Z</time>
      </trkpt>
      <trkpt lat="45.68151" lon="4.318">
        <ele>499.5</ele>
        <time>2023-02-19T10:07:39Z</time>
      </trkpt>
      <trkpt lat="45.68152" lon="4.31799">
        <ele>499.5</ele>
        <time>2023-02-19T10:07:40Z</time>
      </trkpt>
      <trkpt lat="45.68153" lon="4.31798">
        <ele>499.6</ele>
        <time>2023-02-19T10:07:42Z</time>
      </trkpt>
      <trkpt lat="45.68155" lon="4.31795">
        <ele>499.6</ele>
        <time>2023-02-19T10:07:43Z</time>
      </trkpt>
      <trkpt lat="45.68155" lon="4.31794">
        <ele>499.6</ele>
        <time>2023-02-19T10:07:45Z</time>
      </trkpt>
      <trkpt lat="45.68155" lon="4.31793">
        <ele>499.7</ele>
        <time>2023-02-19T10:07:46Z</time>
      </trkpt>
      <trkpt lat="45.68155" lon="4.31793">
        <ele>499.7</ele>
        <time>2023-02-19T10:07:47Z</time>
      </trkpt>
      <trkpt lat="45.68155" lon="4.31793">
        <ele>499.7</ele>
        <time>2023-02-19T10:07:49Z</time>
      </trkpt>
      <trkpt lat="45.68156" lon="4.31793">
        <ele>499.7</ele>
        <time>2023-02-19T10:07:50Z</time>
      </trkpt>
      <trkpt lat="45.68156" lon="4.31793">
        <ele>499.7</ele>
        <time>2023-02-19T10:07:51Z</time>
      </trkpt>
      <trkpt lat="45.68156" lon="4.31793">
        <ele>499.7</ele>
        <time>2023-02-19T10:07:52Z</time>
      </trkpt>
      <trkpt lat="45.68157" lon="4.31794">
        <ele>499.7</ele>
        <time>2023-02-19T10:07:53Z</time>
      </trkpt>
      <trkpt lat="45.68157" lon="4.31794">
        <ele>499.7</ele>
        <time>2023-02-19T10:07:55Z</time>
      </trkpt>
      <trkpt lat="45.68158" lon="4.31794">
        <ele>499.7</ele>
        <time>2023-02-19T10:07:56Z</time>
      </trkpt>
      <trkpt lat="45.68158" lon="4.31794">
        <ele>499.7</ele>
        <time>2023-02-19T10:07:57Z</time>
      </trkpt>
      <trkpt lat="45.68158" lon="4.31794">
        <ele>499.7</ele>
        <time>2023-02-19T10:07:58Z</time>
      </trkpt>
      <trkpt lat="45.68158" lon="4.31794">
        <ele>499.7</ele>
        <time>2023-02-19T10:08:00Z</time>
      </trkpt>
      <trkpt lat="45.68158" lon="4.31794">
        <ele>499.7</ele>
        <time>2023-02-19T10:08:01Z</time>
      </trkpt>
      <trkpt lat="45.68159" lon="4.31794">
        <ele>499.7</ele>
        <time>2023-02-19T10:08:03Z</time>
      </trkpt>
      <trkpt lat="45.68159" lon="4.31795">
        <ele>499.8</ele>
        <time>2023-02-19T10:08:04Z</time>
      </trkpt>
      <trkpt lat="45.68159" lon="4.31796">
        <ele>499.8</ele>
        <time>2023-02-19T10:08:05Z</time>
      </trkpt>
      <trkpt lat="45.6816" lon="4.31796">
        <ele>499.8</ele>
        <time>2023-02-19T10:08:06Z</time>
      </trkpt>
      <trkpt lat="45.6816" lon="4.31796">
        <ele>499.8</ele>
        <time>2023-02-19T10:08:07Z</time>
      </trkpt>
      <trkpt lat="45.6816" lon="4.31796">
        <ele>499.8</ele>
        <time>2023-02-19T10:08:08Z</time>
      </trkpt>
      <trkpt lat="45.6816" lon="4.31796">
        <ele>499.8</ele>
        <time>2023-02-19T10:08:09Z</time>
      </trkpt>
      <trkpt lat="45.6816" lon="4.31797">
        <ele>499.8</ele>
        <time>2023-02-19T10:08:10Z</time>
      </trkpt>
      <trkpt lat="45.6816" lon="4.31797">
        <ele>499.8</ele>
        <time>2023-02-19T10:08:11Z</time>
      </trkpt>
      <trkpt lat="45.6816" lon="4.31797">
        <ele>499.8</ele>
        <time>2023-02-19T10:08:12Z</time>
      </trkpt>
      <trkpt lat="45.6816" lon="4.31797">
        <ele>499.8</ele>
        <time>2023-02-19T10:08:13Z</time>
      </trkpt>
      <trkpt lat="45.6816" lon="4.31797">
        <ele>499.8</ele>
        <time>2023-02-19T10:08:14Z</time>
      </trkpt>
      <trkpt lat="45.6816" lon="4.31796">
        <ele>499.8</ele>
        <time>2023-02-19T10:08:15Z</time>
      </trkpt>
      <trkpt lat="45.6816" lon="4.31796">
        <ele>499.8</ele>
        <time>2023-02-19T10:08:16Z</time>
      </trkpt>
      <trkpt lat="45.6816" lon="4.31796">
        <ele>499.8</ele>
        <time>2023-02-19T10:08:17Z</time>
      </trkpt>
      <trkpt lat="45.68161" lon="4.31796">
        <ele>499.8</ele>
        <time>2023-02-19T10:08:18Z</time>
      </trkpt>
      <trkpt lat="45.68161" lon="4.31796">
        <ele>499.8</ele>
        <time>2023-02-19T10:08:19Z</time>
      </trkpt>
      <trkpt lat="45.6816" lon="4.31794">
        <ele>499.8</ele>
        <time>2023-02-19T10:08:20Z</time>
      </trkpt>
      <trkpt lat="45.6816" lon="4.31794">
        <ele>499.9</ele>
        <time>2023-02-19T10:08:21Z</time>
      </trkpt>
      <trkpt lat="45.68159" lon="4.31794">
        <ele>499.9</ele>
        <time>2023-02-19T10:08:23Z</time>
      </trkpt>
      <trkpt lat="45.68159" lon="4.31793">
        <ele>499.9</ele>
        <time>2023-02-19T10:08:24Z</time>
      </trkpt>
      <trkpt lat="45.68159" lon="4.31793">
        <ele>499.9</ele>
        <time>2023-02-19T10:08:25Z</time>
      </trkpt>
      <trkpt lat="45.6816" lon="4.31793">
        <ele>499.9</ele>
        <time>2023-02-19T10:08:26Z</time>
      </trkpt>
      <trkpt lat="45.68161" lon="4.31793">
        <ele>499.9</ele>
        <time>2023-02-19T10:08:27Z</time>
      </trkpt>
      <trkpt lat="45.68162" lon="4.31792">
        <ele>499.9</ele>
        <time>2023-02-19T10:08:28Z</time>
      </trkpt>
      <trkpt lat="45.68162" lon="4.31791">
        <ele>500</ele>
        <time>2023-02-19T10:08:30Z</time>
      </trkpt>
      <trkpt lat="45.68162" lon="4.31792">
        <ele>500</ele>
        <time>2023-02-19T10:08:31Z</time>
      </trkpt>
      <trkpt lat="45.68162" lon="4.31792">
        <ele>500</ele>
        <time>2023-02-19T10:08:32Z</time>
      </trkpt>
      <trkpt lat="45.68162" lon="4.31793">
        <ele>500</ele>
        <time>2023-02-19T10:08:34Z</time>
      </trkpt>
      <trkpt lat="45.68161" lon="4.31793">
        <ele>500</ele>
        <time>2023-02-19T10:08:35Z</time>
      </trkpt>
      <trkpt lat="45.68161" lon="4.31793">
        <ele>500</ele>
        <time>2023-02-19T10:08:37Z</time>
      </trkpt>
      <trkpt lat="45.6816" lon="4.31794">
        <ele>500</ele>
        <time>2023-02-19T10:08:38Z</time>
      </trkpt>
      <trkpt lat="45.6816" lon="4.31794">
        <ele>500</ele>
        <time>2023-02-19T10:08:39Z</time>
      </trkpt>
      <trkpt lat="45.6816" lon="4.31795">
        <ele>500.1</ele>
        <time>2023-02-19T10:08:41Z</time>
      </trkpt>
      <trkpt lat="45.6816" lon="4.31796">
        <ele>500.1</ele>
        <time>2023-02-19T10:08:42Z</time>
      </trkpt>
      <trkpt lat="45.6816" lon="4.31797">
        <ele>500.1</ele>
        <time>2023-02-19T10:08:43Z</time>
      </trkpt>
      <trkpt lat="45.68161" lon="4.31798">
        <ele>500.1</ele>
        <time>2023-02-19T10:08:45Z</time>
      </trkpt>
      <trkpt lat="45.68161" lon="4.31799">
        <ele>500.1</ele>
        <time>2023-02-19T10:08:46Z</time>
      </trkpt>
      <trkpt lat="45.68161" lon="4.31799">
        <ele>500.1</ele>
        <time>2023-02-19T10:08:47Z</time>
      </trkpt>
      <trkpt lat="45.68161" lon="4.31799">
        <ele>500.1</ele>
        <time>2023-02-19T10:08:48Z</time>
      </trkpt>
      <trkpt lat="45.68161" lon="4.31799">
        <ele>500.1</ele>
        <time>2023-02-19T10:08:49Z</time>
      </trkpt>
      <trkpt lat="45.68161" lon="4.31799">
        <ele>500.1</ele>
        <time>2023-02-19T10:08:50Z</time>
      </trkpt>
      <trkpt lat="45.68161" lon="4.318">
        <ele>500.1</ele>
        <time>2023-02-19T10:08:52Z</time>
      </trkpt>
      <trkpt lat="45.68161" lon="4.318">
        <ele>500.1</ele>
        <time>2023-02-19T10:08:53Z</time>
      </trkpt>
      <trkpt lat="45.68161" lon="4.318">
        <ele>500.1</ele>
        <time>2023-02-19T10:08:54Z</time>
      </trkpt>
      <trkpt lat="45.68161" lon="4.318">
        <ele>500.1</ele>
        <time>2023-02-19T10:08:55Z</time>
      </trkpt>
      <trkpt lat="45.68161" lon="4.31801">
        <ele>500.1</ele>
        <time>2023-02-19T10:08:56Z</time>
      </trkpt>
      <trkpt lat="45.6816" lon="4.31802">
        <ele>500.2</ele>
        <time>2023-02-19T10:08:57Z</time>
      </trkpt>
      <trkpt lat="45.6816" lon="4.31802">
        <ele>500.2</ele>
        <time>2023-02-19T10:08:58Z</time>
      </trkpt>
      <trkpt lat="45.6816" lon="4.31802">
        <ele>500.2</ele>
        <time>2023-02-19T10:08:59Z</time>
      </trkpt>
      <trkpt lat="45.6816" lon="4.31802">
        <ele>500.2</ele>
        <time>2023-02-19T10:09:00Z</time>
      </trkpt>
      <trkpt lat="45.6816" lon="4.31802">
        <ele>500.2</ele>
        <time>2023-02-19T10:09:01Z</time>
      </trkpt>
      <trkpt lat="45.6816" lon="4.31802">
        <ele>500.2</ele>
        <time>2023-02-19T10:09:02Z</time>
      </trkpt>
      <trkpt lat="45.6816" lon="4.31802">
        <ele>500.2</ele>
        <time>2023-02-19T10:09:03Z</time>
      </trkpt>
      <trkpt lat="45.6816" lon="4.31802">
        <ele>500.2</ele>
        <time>2023-02-19T10:09:04Z</time>
      </trkpt>
      <trkpt lat="45.6816" lon="4.31802">
        <ele>500.2</ele>
        <time>2023-02-19T10:09:05Z</time>
      </trkpt>
      <trkpt lat="45.6816" lon="4.31802">
        <ele>500.2</ele>
        <time>2023-02-19T10:09:06Z</time>
      </trkpt>
      <trkpt lat="45.6816" lon="4.31802">
        <ele>500.2</ele>
        <time>2023-02-19T10:09:07Z</time>
      </trkpt>
      <trkpt lat="45.6816" lon="4.31802">
        <ele>500.2</ele>
        <time>2023-02-19T10:09:08Z</time>
      </trkpt>
      <trkpt lat="45.6816" lon="4.31802">
        <ele>500.2</ele>
        <time>2023-02-19T10:09:09Z</time>
      </trkpt>
      <trkpt lat="45.6816" lon="4.31802">
        <ele>500.2</ele>
        <time>2023-02-19T10:09:10Z</time>
      </trkpt>
      <trkpt lat="45.6816" lon="4.31802">
        <ele>500.2</ele>
        <time>2023-02-19T10:09:11Z</time>
      </trkpt>
      <trkpt lat="45.6816" lon="4.31802">
        <ele>500.2</ele>
        <time>2023-02-19T10:09:12Z</time>
      </trkpt>
      <trkpt lat="45.6816" lon="4.31802">
        <ele>500.2</ele>
        <time>2023-02-19T10:09:13Z</time>
      </trkpt>
      <trkpt lat="45.6816" lon="4.31802">
        <ele>500.2</ele>
        <time>2023-02-19T10:09:14Z</time>
      </trkpt>
      <trkpt lat="45.6816" lon="4.31802">
        <ele>500.2</ele>
        <time>2023-02-19T10:09:15Z</time>
      </trkpt>
      <trkpt lat="45.6816" lon="4.31803">
        <ele>500.2</ele>
        <time>2023-02-19T10:09:16Z</time>
      </trkpt>
      <trkpt lat="45.6816" lon="4.31803">
        <ele>500.2</ele>
        <time>2023-02-19T10:09:17Z</time>
      </trkpt>
      <trkpt lat="45.6816" lon="4.31803">
        <ele>500.2</ele>
        <time>2023-02-19T10:09:18Z</time>
      </trkpt>
      <trkpt lat="45.6816" lon="4.31803">
        <ele>500.2</ele>
        <time>2023-02-19T10:09:19Z</time>
      </trkpt>
      <trkpt lat="45.6816" lon="4.31803">
        <ele>500.2</ele>
        <time>2023-02-19T10:09:20Z</time>
      </trkpt>
      <trkpt lat="45.6816" lon="4.31803">
        <ele>500.2</ele>
        <time>2023-02-19T10:09:21Z</time>
      </trkpt>
      <trkpt lat="45.6816" lon="4.31803">
        <ele>500.2</ele>
        <time>2023-02-19T10:09:22Z</time>
      </trkpt>
      <trkpt lat="45.6816" lon="4.31803">
        <ele>500.2</ele>
        <time>2023-02-19T10:09:23Z</time>
      </trkpt>
      <trkpt lat="45.6816" lon="4.31803">
        <ele>500.2</ele>
        <time>2023-02-19T10:09:24Z</time>
      </trkpt>
      <trkpt lat="45.6816" lon="4.31803">
        <ele>500.2</ele>
        <time>2023-02-19T10:09:25Z</time>
      </trkpt>
      <trkpt lat="45.6816" lon="4.31803">
        <ele>500.2</ele>
        <time>2023-02-19T10:09:26Z</time>
      </trkpt>
      <trkpt lat="45.6816" lon="4.31803">
        <ele>500.2</ele>
        <time>2023-02-19T10:09:27Z</time>
      </trkpt>
      <trkpt lat="45.6816" lon="4.31803">
        <ele>500.2</ele>
        <time>2023-02-19T10:09:28Z</time>
      </trkpt>
      <trkpt lat="45.6816" lon="4.31803">
        <ele>500.2</ele>
        <time>2023-02-19T10:09:29Z</time>
      </trkpt>
      <trkpt lat="45.68159" lon="4.31803">
        <ele>500.2</ele>
        <time>2023-02-19T10:09:30Z</time>
      </trkpt>
      <trkpt lat="45.68159" lon="4.31803">
        <ele>500.2</ele>
        <time>2023-02-19T10:09:31Z</time>
      </trkpt>
      <trkpt lat="45.68159" lon="4.31803">
        <ele>500.2</ele>
        <time>2023-02-19T10:09:32Z</time>
      </trkpt>
      <trkpt lat="45.68159" lon="4.31803">
        <ele>500.2</ele>
        <time>2023-02-19T10:09:33Z</time>
      </trkpt>
      <trkpt lat="45.68159" lon="4.31803">
        <ele>500.2</ele>
        <time>2023-02-19T10:09:34Z</time>
      </trkpt>
      <trkpt lat="45.68159" lon="4.31803">
        <ele>500.2</ele>
        <time>2023-02-19T10:09:35Z</time>
      </trkpt>
      <trkpt lat="45.68159" lon="4.31803">
        <ele>500.2</ele>
        <time>2023-02-19T10:09:36Z</time>
      </trkpt>
      <trkpt lat="45.68159" lon="4.31802">
        <ele>500.2</ele>
        <time>2023-02-19T10:09:37Z</time>
      </trkpt>
      <trkpt lat="45.68159" lon="4.31802">
        <ele>500.2</ele>
        <time>2023-02-19T10:09:38Z</time>
      </trkpt>
      <trkpt lat="45.68159" lon="4.31802">
        <ele>500.2</ele>
        <time>2023-02-19T10:09:39Z</time>
      </trkpt>
      <trkpt lat="45.68159" lon="4.31802">
        <ele>500.2</ele>
        <time>2023-02-19T10:09:40Z</time>
      </trkpt>
      <trkpt lat="45.68159" lon="4.31802">
        <ele>500.2</ele>
        <time>2023-02-19T10:09:41Z</time>
      </trkpt>
      <trkpt lat="45.68159" lon="4.31802">
        <ele>500.2</ele>
        <time>2023-02-19T10:09:42Z</time>
      </trkpt>
      <trkpt lat="45.68159" lon="4.31802">
        <ele>500.2</ele>
        <time>2023-02-19T10:09:43Z</time>
      </trkpt>
      <trkpt lat="45.68158" lon="4.31802">
        <ele>500.3</ele>
        <time>2023-02-19T10:09:44Z</time>
      </trkpt>
      <trkpt lat="45.68158" lon="4.31802">
        <ele>500.3</ele>
        <time>2023-02-19T10:09:45Z</time>
      </trkpt>
      <trkpt lat="45.68158" lon="4.31802">
        <ele>500.3</ele>
        <time>2023-02-19T10:09:46Z</time>
      </trkpt>
      <trkpt lat="45.68158" lon="4.31802">
        <ele>500.3</ele>
        <time>2023-02-19T10:09:47Z</time>
      </trkpt>
      <trkpt lat="45.68158" lon="4.31802">
        <ele>500.3</ele>
        <time>2023-02-19T10:09:48Z</time>
      </trkpt>
      <trkpt lat="45.68158" lon="4.31802">
        <ele>500.3</ele>
        <time>2023-02-19T10:09:49Z</time>
      </trkpt>
      <trkpt lat="45.68158" lon="4.31804">
        <ele>500.3</ele>
        <time>2023-02-19T10:09:50Z</time>
      </trkpt>
      <trkpt lat="45.68157" lon="4.31804">
        <ele>500.3</ele>
        <time>2023-02-19T10:09:51Z</time>
      </trkpt>
      <trkpt lat="45.68156" lon="4.31805">
        <ele>500.3</ele>
        <time>2023-02-19T10:09:52Z</time>
      </trkpt>
      <trkpt lat="45.68156" lon="4.31805">
        <ele>500.3</ele>
        <time>2023-02-19T10:09:53Z</time>
      </trkpt>
      <trkpt lat="45.68156" lon="4.31805">
        <ele>500.3</ele>
        <time>2023-02-19T10:09:54Z</time>
      </trkpt>
      <trkpt lat="45.68156" lon="4.31805">
        <ele>500.3</ele>
        <time>2023-02-19T10:09:55Z</time>
      </trkpt>
      <trkpt lat="45.68156" lon="4.31805">
        <ele>500.3</ele>
        <time>2023-02-19T10:09:56Z</time>
      </trkpt>
      <trkpt lat="45.68156" lon="4.31804">
        <ele>500.3</ele>
        <time>2023-02-19T10:09:57Z</time>
      </trkpt>
      <trkpt lat="45.68156" lon="4.31804">
        <ele>500.3</ele>
        <time>2023-02-19T10:09:58Z</time>
      </trkpt>
      <trkpt lat="45.68156" lon="4.31804">
        <ele>500.3</ele>
        <time>2023-02-19T10:09:59Z</time>
      </trkpt>
      <trkpt lat="45.68156" lon="4.31804">
        <ele>500.3</ele>
        <time>2023-02-19T10:10:00Z</time>
      </trkpt>
      <trkpt lat="45.68155" lon="4.31805">
        <ele>500.4</ele>
        <time>2023-02-19T10:10:01Z</time>
      </trkpt>
      <trkpt lat="45.68155" lon="4.31805">
        <ele>500.4</ele>
        <time>2023-02-19T10:10:02Z</time>
      </trkpt>
      <trkpt lat="45.68154" lon="4.31805">
        <ele>500.4</ele>
        <time>2023-02-19T10:10:03Z</time>
      </trkpt>
      <trkpt lat="45.68154" lon="4.31805">
        <ele>500.4</ele>
        <time>2023-02-19T10:10:04Z</time>
      </trkpt>
      <trkpt lat="45.68154" lon="4.31806">
        <ele>500.4</ele>
        <time>2023-02-19T10:10:05Z</time>
      </trkpt>
      <trkpt lat="45.68154" lon="4.31806">
        <ele>500.4</ele>
        <time>2023-02-19T10:10:06Z</time>
      </trkpt>
      <trkpt lat="45.68153" lon="4.31806">
        <ele>500.4</ele>
        <time>2023-02-19T10:10:07Z</time>
      </trkpt>
      <trkpt lat="45.68153" lon="4.31807">
        <ele>500.4</ele>
        <time>2023-02-19T10:10:08Z</time>
      </trkpt>
      <trkpt lat="45.68153" lon="4.31807">
        <ele>500.4</ele>
        <time>2023-02-19T10:10:09Z</time>
      </trkpt>
      <trkpt lat="45.68153" lon="4.31807">
        <ele>500.4</ele>
        <time>2023-02-19T10:10:10Z</time>
      </trkpt>
      <trkpt lat="45.68152" lon="4.31807">
        <ele>500.4</ele>
        <time>2023-02-19T10:10:11Z</time>
      </trkpt>
      <trkpt lat="45.68152" lon="4.31807">
        <ele>500.4</ele>
        <time>2023-02-19T10:10:12Z</time>
      </trkpt>
      <trkpt lat="45.68152" lon="4.31807">
        <ele>500.4</ele>
        <time>2023-02-19T10:10:13Z</time>
      </trkpt>
      <trkpt lat="45.68152" lon="4.31807">
        <ele>500.5</ele>
        <time>2023-02-19T10:10:14Z</time>
      </trkpt>
      <trkpt lat="45.68152" lon="4.31807">
        <ele>500.5</ele>
        <time>2023-02-19T10:10:15Z</time>
      </trkpt>
      <trkpt lat="45.68152" lon="4.31807">
        <ele>500.5</ele>
        <time>2023-02-19T10:10:16Z</time>
      </trkpt>
      <trkpt lat="45.68152" lon="4.31807">
        <ele>500.5</ele>
        <time>2023-02-19T10:10:17Z</time>
      </trkpt>
      <trkpt lat="45.68152" lon="4.31807">
        <ele>500.5</ele>
        <time>2023-02-19T10:10:18Z</time>
      </trkpt>
      <trkpt lat="45.68152" lon="4.31807">
        <ele>500.5</ele>
        <time>2023-02-19T10:10:19Z</time>
      </trkpt>
      <trkpt lat="45.68151" lon="4.31807">
        <ele>500.5</ele>
        <time>2023-02-19T10:10:20Z</time>
      </trkpt>
      <trkpt lat="45.68151" lon="4.31807">
        <ele>500.5</ele>
        <time>2023-02-19T10:10:21Z</time>
      </trkpt>
      <trkpt lat="45.68151" lon="4.31807">
        <ele>500.5</ele>
        <time>2023-02-19T10:10:22Z</time>
      </trkpt>
      <trkpt lat="45.68151" lon="4.31807">
        <ele>500.5</ele>
        <time>2023-02-19T10:10:23Z</time>
      </trkpt>
      <trkpt lat="45.68151" lon="4.31807">
        <ele>500.5</ele>
        <time>2023-02-19T10:10:24Z</time>
      </trkpt>
      <trkpt lat="45.68151" lon="4.31807">
        <ele>500.5</ele>
        <time>2023-02-19T10:10:25Z</time>
      </trkpt>
      <trkpt lat="45.68151" lon="4.31807">
        <ele>500.5</ele>
        <time>2023-02-19T10:10:26Z</time>
      </trkpt>
      <trkpt lat="45.68151" lon="4.31807">
        <ele>500.5</ele>
        <time>2023-02-19T10:10:27Z</time>
      </trkpt>
      <trkpt lat="45.68151" lon="4.31806">
        <ele>500.5</ele>
        <time>2023-02-19T10:10:28Z</time>
      </trkpt>
      <trkpt lat="45.6815" lon="4.31806">
        <ele>500.5</ele>
        <time>2023-02-19T10:10:29Z</time>
      </trkpt>
      <trkpt lat="45.6815" lon="4.31805">
        <ele>500.5</ele>
        <time>2023-02-19T10:10:30Z</time>
      </trkpt>
      <trkpt lat="45.6815" lon="4.31805">
        <ele>500.5</ele>
        <time>2023-02-19T10:10:31Z</time>
      </trkpt>
      <trkpt lat="45.68149" lon="4.31804">
        <ele>500.5</ele>
        <time>2023-02-19T10:10:32Z</time>
      </trkpt>
      <trkpt lat="45.6815" lon="4.31805">
        <ele>500.5</ele>
        <time>2023-02-19T10:10:33Z</time>
      </trkpt>
      <trkpt lat="45.68149" lon="4.31804">
        <ele>500.6</ele>
        <time>2023-02-19T10:10:34Z</time>
      </trkpt>
      <trkpt lat="45.68148" lon="4.31804">
        <ele>500.6</ele>
        <time>2023-02-19T10:10:35Z</time>
      </trkpt>
      <trkpt lat="45.68147" lon="4.31803">
        <ele>500.6</ele>
        <time>2023-02-19T10:10:36Z</time>
      </trkpt>
      <trkpt lat="45.68147" lon="4.31803">
        <ele>500.6</ele>
        <time>2023-02-19T10:10:37Z</time>
      </trkpt>
      <trkpt lat="45.68146" lon="4.31803">
        <ele>500.6</ele>
        <time>2023-02-19T10:10:38Z</time>
      </trkpt>
      <trkpt lat="45.68146" lon="4.31803">
        <ele>500.6</ele>
        <time>2023-02-19T10:10:39Z</time>
      </trkpt>
      <trkpt lat="45.68146" lon="4.31803">
        <ele>500.6</ele>
        <time>2023-02-19T10:10:40Z</time>
      </trkpt>
      <trkpt lat="45.68146" lon="4.31803">
        <ele>500.6</ele>
        <time>2023-02-19T10:10:41Z</time>
      </trkpt>
      <trkpt lat="45.68146" lon="4.31803">
        <ele>500.6</ele>
        <time>2023-02-19T10:10:42Z</time>
      </trkpt>
      <trkpt lat="45.68146" lon="4.31803">
        <ele>500.6</ele>
        <time>2023-02-19T10:10:43Z</time>
      </trkpt>
      <trkpt lat="45.68146" lon="4.31804">
        <ele>500.6</ele>
        <time>2023-02-19T10:10:44Z</time>
      </trkpt>
      <trkpt lat="45.68146" lon="4.31804">
        <ele>500.6</ele>
        <time>2023-02-19T10:10:45Z</time>
      </trkpt>
      <trkpt lat="45.68146" lon="4.31804">
        <ele>500.6</ele>
        <time>2023-02-19T10:10:46Z</time>
      </trkpt>
      <trkpt lat="45.68146" lon="4.31804">
        <ele>500.6</ele>
        <time>2023-02-19T10:10:47Z</time>
      </trkpt>
      <trkpt lat="45.68146" lon="4.31804">
        <ele>500.6</ele>
        <time>2023-02-19T10:10:48Z</time>
      </trkpt>
      <trkpt lat="45.68146" lon="4.31804">
        <ele>500.6</ele>
        <time>2023-02-19T10:10:49Z</time>
      </trkpt>
      <trkpt lat="45.68146" lon="4.31804">
        <ele>500.6</ele>
        <time>2023-02-19T10:10:50Z</time>
      </trkpt>
      <trkpt lat="45.68146" lon="4.31804">
        <ele>500.6</ele>
        <time>2023-02-19T10:10:51Z</time>
      </trkpt>
      <trkpt lat="45.68146" lon="4.31804">
        <ele>500.6</ele>
        <time>2023-02-19T10:10:52Z</time>
      </trkpt>
      <trkpt lat="45.68146" lon="4.31804">
        <ele>500.6</ele>
        <time>2023-02-19T10:10:53Z</time>
      </trkpt>
      <trkpt lat="45.68147" lon="4.31804">
        <ele>500.6</ele>
        <time>2023-02-19T10:10:54Z</time>
      </trkpt>
      <trkpt lat="45.68147" lon="4.31804">
        <ele>500.6</ele>
        <time>2023-02-19T10:10:55Z</time>
      </trkpt>
      <trkpt lat="45.68147" lon="4.31804">
        <ele>500.6</ele>
        <time>2023-02-19T10:10:56Z</time>
      </trkpt>
      <trkpt lat="45.68147" lon="4.31804">
        <ele>500.6</ele>
        <time>2023-02-19T10:10:57Z</time>
      </trkpt>
      <trkpt lat="45.68147" lon="4.31804">
        <ele>500.7</ele>
        <time>2023-02-19T10:10:58Z</time>
      </trkpt>
      <trkpt lat="45.68147" lon="4.31803">
        <ele>500.7</ele>
        <time>2023-02-19T10:10:59Z</time>
      </trkpt>
      <trkpt lat="45.68147" lon="4.31803">
        <ele>500.7</ele>
        <time>2023-02-19T10:11:00Z</time>
      </trkpt>
      <trkpt lat="45.68146" lon="4.31803">
        <ele>500.7</ele>
        <time>2023-02-19T10:11:01Z</time>
      </trkpt>
      <trkpt lat="45.68147" lon="4.31803">
        <ele>500.7</ele>
        <time>2023-02-19T10:11:02Z</time>
      </trkpt>
      <trkpt lat="45.68147" lon="4.31803">
        <ele>500.7</ele>
        <time>2023-02-19T10:11:03Z</time>
      </trkpt>
      <trkpt lat="45.68147" lon="4.31804">
        <ele>500.7</ele>
        <time>2023-02-19T10:11:04Z</time>
      </trkpt>
      <trkpt lat="45.68148" lon="4.31804">
        <ele>500.7</ele>
        <time>2023-02-19T10:11:05Z</time>
      </trkpt>
      <trkpt lat="45.68148" lon="4.31804">
        <ele>500.7</ele>
        <time>2023-02-19T10:11:06Z</time>
      </trkpt>
      <trkpt lat="45.68148" lon="4.31804">
        <ele>500.7</ele>
        <time>2023-02-19T10:11:07Z</time>
      </trkpt>
      <trkpt lat="45.68148" lon="4.31804">
        <ele>500.7</ele>
        <time>2023-02-19T10:11:08Z</time>
      </trkpt>
      <trkpt lat="45.68149" lon="4.31805">
        <ele>500.7</ele>
        <time>2023-02-19T10:11:09Z</time>
      </trkpt>
      <trkpt lat="45.68149" lon="4.31805">
        <ele>500.7</ele>
        <time>2023-02-19T10:11:10Z</time>
      </trkpt>
      <trkpt lat="45.68148" lon="4.31805">
        <ele>500.7</ele>
        <time>2023-02-19T10:11:11Z</time>
      </trkpt>
      <trkpt lat="45.68148" lon="4.31805">
        <ele>500.8</ele>
        <time>2023-02-19T10:11:12Z</time>
      </trkpt>
      <trkpt lat="45.68147" lon="4.31805">
        <ele>500.8</ele>
        <time>2023-02-19T10:11:13Z</time>
      </trkpt>
      <trkpt lat="45.68147" lon="4.31805">
        <ele>500.8</ele>
        <time>2023-02-19T10:11:14Z</time>
      </trkpt>
      <trkpt lat="45.68146" lon="4.31805">
        <ele>500.8</ele>
        <time>2023-02-19T10:11:15Z</time>
      </trkpt>
      <trkpt lat="45.68146" lon="4.31805">
        <ele>500.8</ele>
        <time>2023-02-19T10:11:16Z</time>
      </trkpt>
      <trkpt lat="45.68146" lon="4.31805">
        <ele>500.8</ele>
        <time>2023-02-19T10:11:17Z</time>
      </trkpt>
      <trkpt lat="45.68145" lon="4.31805">
        <ele>500.8</ele>
        <time>2023-02-19T10:11:18Z</time>
      </trkpt>
      <trkpt lat="45.68145" lon="4.31805">
        <ele>500.8</ele>
        <time>2023-02-19T10:11:19Z</time>
      </trkpt>
      <trkpt lat="45.68145" lon="4.31805">
        <ele>500.8</ele>
        <time>2023-02-19T10:11:20Z</time>
      </trkpt>
      <trkpt lat="45.68145" lon="4.31805">
        <ele>500.8</ele>
        <time>2023-02-19T10:11:21Z</time>
      </trkpt>
      <trkpt lat="45.68145" lon="4.31805">
        <ele>500.8</ele>
        <time>2023-02-19T10:11:22Z</time>
      </trkpt>
      <trkpt lat="45.68145" lon="4.31805">
        <ele>500.8</ele>
        <time>2023-02-19T10:11:23Z</time>
      </trkpt>
      <trkpt lat="45.68145" lon="4.31805">
        <ele>500.8</ele>
        <time>2023-02-19T10:11:24Z</time>
      </trkpt>
      <trkpt lat="45.68146" lon="4.31805">
        <ele>500.8</ele>
        <time>2023-02-19T10:11:25Z</time>
      </trkpt>
      <trkpt lat="45.68146" lon="4.31806">
        <ele>500.8</ele>
        <time>2023-02-19T10:11:26Z</time>
      </trkpt>
      <trkpt lat="45.68146" lon="4.31806">
        <ele>500.9</ele>
        <time>2023-02-19T10:11:27Z</time>
      </trkpt>
      <trkpt lat="45.68147" lon="4.31807">
        <ele>500.9</ele>
        <time>2023-02-19T10:11:28Z</time>
      </trkpt>
      <trkpt lat="45.68147" lon="4.31807">
        <ele>500.9</ele>
        <time>2023-02-19T10:11:29Z</time>
      </trkpt>
      <trkpt lat="45.68147" lon="4.31807">
        <ele>500.9</ele>
        <time>2023-02-19T10:11:30Z</time>
      </trkpt>
      <trkpt lat="45.68147" lon="4.31807">
        <ele>500.9</ele>
        <time>2023-02-19T10:11:31Z</time>
      </trkpt>
      <trkpt lat="45.68147" lon="4.31807">
        <ele>500.9</ele>
        <time>2023-02-19T10:11:32Z</time>
      </trkpt>
      <trkpt lat="45.68147" lon="4.31807">
        <ele>500.9</ele>
        <time>2023-02-19T10:11:33Z</time>
      </trkpt>
      <trkpt lat="45.68146" lon="4.31807">
        <ele>500.9</ele>
        <time>2023-02-19T10:11:34Z</time>
      </trkpt>
      <trkpt lat="45.68146" lon="4.31806">
        <ele>500.9</ele>
        <time>2023-02-19T10:11:35Z</time>
      </trkpt>
      <trkpt lat="45.68146" lon="4.31806">
        <ele>500.9</ele>
        <time>2023-02-19T10:11:36Z</time>
      </trkpt>
      <trkpt lat="45.68146" lon="4.31806">
        <ele>500.9</ele>
        <time>2023-02-19T10:11:37Z</time>
      </trkpt>
      <trkpt lat="45.68146" lon="4.31805">
        <ele>500.9</ele>
        <time>2023-02-19T10:11:38Z</time>
      </trkpt>
      <trkpt lat="45.68146" lon="4.31805">
        <ele>500.9</ele>
        <time>2023-02-19T10:11:39Z</time>
      </trkpt>
      <trkpt lat="45.68146" lon="4.31805">
        <ele>500.9</ele>
        <time>2023-02-19T10:11:40Z</time>
      </trkpt>
      <trkpt lat="45.68147" lon="4.31805">
        <ele>500.9</ele>
        <time>2023-02-19T10:11:41Z</time>
      </trkpt>
      <trkpt lat="45.68147" lon="4.31806">
        <ele>501</ele>
        <time>2023-02-19T10:11:42Z</time>
      </trkpt>
      <trkpt lat="45.68148" lon="4.31806">
        <ele>501</ele>
        <time>2023-02-19T10:11:43Z</time>
      </trkpt>
      <trkpt lat="45.68148" lon="4.31806">
        <ele>501</ele>
        <time>2023-02-19T10:11:44Z</time>
      </trkpt>
      <trkpt lat="45.68148" lon="4.31806">
        <ele>501</ele>
        <time>2023-02-19T10:11:45Z</time>
      </trkpt>
      <trkpt lat="45.68149" lon="4.31806">
        <ele>501</ele>
        <time>2023-02-19T10:11:46Z</time>
      </trkpt>
      <trkpt lat="45.68149" lon="4.31806">
        <ele>501</ele>
        <time>2023-02-19T10:11:47Z</time>
      </trkpt>
      <trkpt lat="45.68149" lon="4.31806">
        <ele>501</ele>
        <time>2023-02-19T10:11:48Z</time>
      </trkpt>
      <trkpt lat="45.68149" lon="4.31806">
        <ele>501</ele>
        <time>2023-02-19T10:11:49Z</time>
      </trkpt>
      <trkpt lat="45.68149" lon="4.31806">
        <ele>501</ele>
        <time>2023-02-19T10:11:50Z</time>
      </trkpt>
      <trkpt lat="45.68148" lon="4.31805">
        <ele>501</ele>
        <time>2023-02-19T10:11:51Z</time>
      </trkpt>
      <trkpt lat="45.68148" lon="4.31804">
        <ele>501</ele>
        <time>2023-02-19T10:11:52Z</time>
      </trkpt>
      <trkpt lat="45.68148" lon="4.31803">
        <ele>501</ele>
        <time>2023-02-19T10:11:53Z</time>
      </trkpt>
      <trkpt lat="45.68148" lon="4.31803">
        <ele>501.1</ele>
        <time>2023-02-19T10:11:54Z</time>
      </trkpt>
      <trkpt lat="45.68148" lon="4.31802">
        <ele>501.1</ele>
        <time>2023-02-19T10:11:55Z</time>
      </trkpt>
      <trkpt lat="45.68148" lon="4.31802">
        <ele>501.1</ele>
        <time>2023-02-19T10:11:56Z</time>
      </trkpt>
      <trkpt lat="45.68149" lon="4.31803">
        <ele>501.1</ele>
        <time>2023-02-19T10:11:58Z</time>
      </trkpt>
      <trkpt lat="45.68149" lon="4.31803">
        <ele>501.1</ele>
        <time>2023-02-19T10:11:59Z</time>
      </trkpt>
      <trkpt lat="45.68149" lon="4.31804">
        <ele>501.1</ele>
        <time>2023-02-19T10:12:00Z</time>
      </trkpt>
      <trkpt lat="45.68149" lon="4.31805">
        <ele>501.1</ele>
        <time>2023-02-19T10:12:02Z</time>
      </trkpt>
      <trkpt lat="45.68149" lon="4.31806">
        <ele>501.1</ele>
        <time>2023-02-19T10:12:03Z</time>
      </trkpt>
      <trkpt lat="45.68149" lon="4.31807">
        <ele>501.1</ele>
        <time>2023-02-19T10:12:04Z</time>
      </trkpt>
      <trkpt lat="45.68149" lon="4.31807">
        <ele>501.1</ele>
        <time>2023-02-19T10:12:05Z</time>
      </trkpt>
      <trkpt lat="45.68149" lon="4.31807">
        <ele>501.2</ele>
        <time>2023-02-19T10:12:06Z</time>
      </trkpt>
      <trkpt lat="45.68149" lon="4.31807">
        <ele>501.2</ele>
        <time>2023-02-19T10:12:07Z</time>
      </trkpt>
      <trkpt lat="45.68149" lon="4.31807">
        <ele>501.2</ele>
        <time>2023-02-19T10:12:08Z</time>
      </trkpt>
      <trkpt lat="45.6815" lon="4.31807">
        <ele>501.2</ele>
        <time>2023-02-19T10:12:10Z</time>
      </trkpt>
      <trkpt lat="45.6815" lon="4.31806">
        <ele>501.2</ele>
        <time>2023-02-19T10:12:11Z</time>
      </trkpt>
      <trkpt lat="45.6815" lon="4.31806">
        <ele>501.2</ele>
        <time>2023-02-19T10:12:13Z</time>
      </trkpt>
      <trkpt lat="45.6815" lon="4.31805">
        <ele>501.2</ele>
        <time>2023-02-19T10:12:14Z</time>
      </trkpt>
      <trkpt lat="45.6815" lon="4.31805">
        <ele>501.2</ele>
        <time>2023-02-19T10:12:15Z</time>
      </trkpt>
      <trkpt lat="45.6815" lon="4.31805">
        <ele>501.2</ele>
        <time>2023-02-19T10:12:17Z</time>
      </trkpt>
      <trkpt lat="45.6815" lon="4.31805">
        <ele>501.2</ele>
        <time>2023-02-19T10:12:18Z</time>
      </trkpt>
      <trkpt lat="45.6815" lon="4.31805">
        <ele>501.2</ele>
        <time>2023-02-19T10:12:19Z</time>
      </trkpt>
      <trkpt lat="45.6815" lon="4.31805">
        <ele>501.2</ele>
        <time>2023-02-19T10:12:20Z</time>
      </trkpt>
      <trkpt lat="45.6815" lon="4.31804">
        <ele>501.2</ele>
        <time>2023-02-19T10:12:21Z</time>
      </trkpt>
      <trkpt lat="45.6815" lon="4.31804">
        <ele>501.2</ele>
        <time>2023-02-19T10:12:23Z</time>
      </trkpt>
      <trkpt lat="45.68151" lon="4.31804">
        <ele>501.2</ele>
        <time>2023-02-19T10:12:24Z</time>
      </trkpt>
      <trkpt lat="45.68151" lon="4.31804">
        <ele>501.2</ele>
        <time>2023-02-19T10:12:25Z</time>
      </trkpt>
      <trkpt lat="45.68151" lon="4.31804">
        <ele>501.2</ele>
        <time>2023-02-19T10:12:26Z</time>
      </trkpt>
      <trkpt lat="45.68151" lon="4.31804">
        <ele>501.2</ele>
        <time>2023-02-19T10:12:28Z</time>
      </trkpt>
      <trkpt lat="45.68151" lon="4.31804">
        <ele>501.2</ele>
        <time>2023-02-19T10:12:29Z</time>
      </trkpt>
      <trkpt lat="45.68151" lon="4.31804">
        <ele>501.2</ele>
        <time>2023-02-19T10:12:30Z</time>
      </trkpt>
      <trkpt lat="45.6815" lon="4.31804">
        <ele>501.2</ele>
        <time>2023-02-19T10:12:31Z</time>
      </trkpt>
      <trkpt lat="45.6815" lon="4.31804">
        <ele>501.2</ele>
        <time>2023-02-19T10:12:32Z</time>
      </trkpt>
      <trkpt lat="45.6815" lon="4.31804">
        <ele>501.2</ele>
        <time>2023-02-19T10:12:33Z</time>
      </trkpt>
      <trkpt lat="45.6815" lon="4.31804">
        <ele>501.2</ele>
        <time>2023-02-19T10:12:34Z</time>
      </trkpt>
      <trkpt lat="45.68151" lon="4.31804">
        <ele>501.2</ele>
        <time>2023-02-19T10:12:35Z</time>
      </trkpt>
      <trkpt lat="45.68151" lon="4.31804">
        <ele>501.2</ele>
        <time>2023-02-19T10:12:36Z</time>
      </trkpt>
      <trkpt lat="45.68151" lon="4.31804">
        <ele>501.2</ele>
        <time>2023-02-19T10:12:37Z</time>
      </trkpt>
      <trkpt lat="45.68151" lon="4.31804">
        <ele>501.2</ele>
        <time>2023-02-19T10:12:38Z</time>
      </trkpt>
      <trkpt lat="45.68151" lon="4.31804">
        <ele>501.2</ele>
        <time>2023-02-19T10:12:39Z</time>
      </trkpt>
      <trkpt lat="45.68152" lon="4.31804">
        <ele>501.2</ele>
        <time>2023-02-19T10:12:40Z</time>
      </trkpt>
      <trkpt lat="45.68152" lon="4.31804">
        <ele>501.2</ele>
        <time>2023-02-19T10:12:41Z</time>
      </trkpt>
      <trkpt lat="45.68152" lon="4.31804">
        <ele>501.2</ele>
        <time>2023-02-19T10:12:42Z</time>
      </trkpt>
      <trkpt lat="45.68152" lon="4.31804">
        <ele>501.2</ele>
        <time>2023-02-19T10:12:43Z</time>
      </trkpt>
      <trkpt lat="45.68152" lon="4.31804">
        <ele>501.2</ele>
        <time>2023-02-19T10:12:44Z</time>
      </trkpt>
      <trkpt lat="45.68152" lon="4.31804">
        <ele>501.3</ele>
        <time>2023-02-19T10:12:45Z</time>
      </trkpt>
      <trkpt lat="45.68152" lon="4.31804">
        <ele>501.3</ele>
        <time>2023-02-19T10:12:46Z</time>
      </trkpt>
      <trkpt lat="45.68152" lon="4.31804">
        <ele>501.3</ele>
        <time>2023-02-19T10:12:47Z</time>
      </trkpt>
      <trkpt lat="45.68152" lon="4.31804">
        <ele>501.3</ele>
        <time>2023-02-19T10:12:48Z</time>
      </trkpt>
      <trkpt lat="45.68152" lon="4.31803">
        <ele>501.3</ele>
        <time>2023-02-19T10:12:49Z</time>
      </trkpt>
      <trkpt lat="45.68152" lon="4.31803">
        <ele>501.3</ele>
        <time>2023-02-19T10:12:50Z</time>
      </trkpt>
      <trkpt lat="45.68152" lon="4.31803">
        <ele>501.3</ele>
        <time>2023-02-19T10:12:51Z</time>
      </trkpt>
      <trkpt lat="45.68152" lon="4.31803">
        <ele>501.3</ele>
        <time>2023-02-19T10:12:52Z</time>
      </trkpt>
      <trkpt lat="45.68152" lon="4.31803">
        <ele>501.3</ele>
        <time>2023-02-19T10:12:53Z</time>
      </trkpt>
      <trkpt lat="45.68152" lon="4.31803">
        <ele>501.3</ele>
        <time>2023-02-19T10:12:54Z</time>
      </trkpt>
      <trkpt lat="45.68153" lon="4.31803">
        <ele>501.3</ele>
        <time>2023-02-19T10:12:55Z</time>
      </trkpt>
      <trkpt lat="45.68153" lon="4.31803">
        <ele>501.3</ele>
        <time>2023-02-19T10:12:56Z</time>
      </trkpt>
      <trkpt lat="45.68153" lon="4.31803">
        <ele>501.3</ele>
        <time>2023-02-19T10:12:57Z</time>
      </trkpt>
      <trkpt lat="45.68153" lon="4.31803">
        <ele>501.3</ele>
        <time>2023-02-19T10:12:58Z</time>
      </trkpt>
      <trkpt lat="45.68152" lon="4.31803">
        <ele>501.3</ele>
        <time>2023-02-19T10:12:59Z</time>
      </trkpt>
      <trkpt lat="45.68152" lon="4.31803">
        <ele>501.3</ele>
        <time>2023-02-19T10:13:00Z</time>
      </trkpt>
      <trkpt lat="45.68152" lon="4.31803">
        <ele>501.3</ele>
        <time>2023-02-19T10:13:01Z</time>
      </trkpt>
      <trkpt lat="45.68152" lon="4.31803">
        <ele>501.3</ele>
        <time>2023-02-19T10:13:02Z</time>
      </trkpt>
      <trkpt lat="45.68152" lon="4.31803">
        <ele>501.3</ele>
        <time>2023-02-19T10:13:03Z</time>
      </trkpt>
      <trkpt lat="45.68152" lon="4.31803">
        <ele>501.3</ele>
        <time>2023-02-19T10:13:04Z</time>
      </trkpt>
      <trkpt lat="45.68152" lon="4.31803">
        <ele>501.3</ele>
        <time>2023-02-19T10:13:05Z</time>
      </trkpt>
      <trkpt lat="45.68152" lon="4.31803">
        <ele>501.3</ele>
        <time>2023-02-19T10:13:06Z</time>
      </trkpt>
      <trkpt lat="45.68152" lon="4.31803">
        <ele>501.3</ele>
        <time>2023-02-19T10:13:07Z</time>
      </trkpt>
      <trkpt lat="45.68152" lon="4.31803">
        <ele>501.3</ele>
        <time>2023-02-19T10:13:08Z</time>
      </trkpt>
      <trkpt lat="45.68152" lon="4.31803">
        <ele>501.3</ele>
        <time>2023-02-19T10:13:09Z</time>
      </trkpt>
      <trkpt lat="45.68152" lon="4.31803">
        <ele>501.3</ele>
        <time>2023-02-19T10:13:10Z</time>
      </trkpt>
      <trkpt lat="45.68152" lon="4.31803">
        <ele>501.3</ele>
        <time>2023-02-19T10:13:11Z</time>
      </trkpt>
      <trkpt lat="45.68153" lon="4.31803">
        <ele>501.3</ele>
        <time>2023-02-19T10:13:12Z</time>
      </trkpt>
      <trkpt lat="45.68153" lon="4.31802">
        <ele>501.3</ele>
        <time>2023-02-19T10:13:13Z</time>
      </trkpt>
      <trkpt lat="45.68153" lon="4.31802">
        <ele>501.3</ele>
        <time>2023-02-19T10:13:14Z</time>
      </trkpt>
      <trkpt lat="45.68153" lon="4.31802">
        <ele>501.3</ele>
        <time>2023-02-19T10:13:15Z</time>
      </trkpt>
      <trkpt lat="45.68153" lon="4.31802">
        <ele>501.3</ele>
        <time>2023-02-19T10:13:16Z</time>
      </trkpt>
      <trkpt lat="45.68153" lon="4.31802">
        <ele>501.3</ele>
        <time>2023-02-19T10:13:17Z</time>
      </trkpt>
      <trkpt lat="45.68153" lon="4.31802">
        <ele>501.3</ele>
        <time>2023-02-19T10:13:18Z</time>
      </trkpt>
      <trkpt lat="45.68153" lon="4.31802">
        <ele>501.3</ele>
        <time>2023-02-19T10:13:19Z</time>
      </trkpt>
      <trkpt lat="45.68153" lon="4.31803">
        <ele>501.3</ele>
        <time>2023-02-19T10:13:20Z</time>
      </trkpt>
      <trkpt lat="45.68153" lon="4.31803">
        <ele>501.3</ele>
        <time>2023-02-19T10:13:21Z</time>
      </trkpt>
      <trkpt lat="45.68153" lon="4.31803">
        <ele>501.3</ele>
        <time>2023-02-19T10:13:22Z</time>
      </trkpt>
      <trkpt lat="45.68153" lon="4.31803">
        <ele>501.3</ele>
        <time>2023-02-19T10:13:23Z</time>
      </trkpt>
      <trkpt lat="45.68153" lon="4.31803">
        <ele>501.3</ele>
        <time>2023-02-19T10:13:24Z</time>
      </trkpt>
      <trkpt lat="45.68153" lon="4.31803">
        <ele>501.3</ele>
        <time>2023-02-19T10:13:25Z</time>
      </trkpt>
      <trkpt lat="45.68153" lon="4.31803">
        <ele>501.3</ele>
        <time>2023-02-19T10:13:26Z</time>
      </trkpt>
      <trkpt lat="45.68153" lon="4.31803">
        <ele>501.3</ele>
        <time>2023-02-19T10:13:27Z</time>
      </trkpt>
      <trkpt lat="45.68153" lon="4.31803">
        <ele>501.3</ele>
        <time>2023-02-19T10:13:28Z</time>
      </trkpt>
      <trkpt lat="45.68153" lon="4.31803">
        <ele>501.3</ele>
        <time>2023-02-19T10:13:29Z</time>
      </trkpt>
      <trkpt lat="45.68153" lon="4.31803">
        <ele>501.3</ele>
        <time>2023-02-19T10:13:30Z</time>
      </trkpt>
      <trkpt lat="45.68153" lon="4.31803">
        <ele>501.3</ele>
        <time>2023-02-19T10:13:31Z</time>
      </trkpt>
      <trkpt lat="45.68153" lon="4.31803">
        <ele>501.3</ele>
        <time>2023-02-19T10:13:32Z</time>
      </trkpt>
      <trkpt lat="45.68153" lon="4.31803">
        <ele>501.3</ele>
        <time>2023-02-19T10:13:33Z</time>
      </trkpt>
      <trkpt lat="45.68153" lon="4.31803">
        <ele>501.3</ele>
        <time>2023-02-19T10:13:34Z</time>
      </trkpt>
      <trkpt lat="45.68153" lon="4.31803">
        <ele>501.3</ele>
        <time>2023-02-19T10:13:35Z</time>
      </trkpt>
      <trkpt lat="45.68153" lon="4.31802">
        <ele>501.3</ele>
        <time>2023-02-19T10:13:36Z</time>
      </trkpt>
      <trkpt lat="45.68153" lon="4.31802">
        <ele>501.3</ele>
        <time>2023-02-19T10:13:37Z</time>
      </trkpt>
      <trkpt lat="45.68153" lon="4.31802">
        <ele>501.3</ele>
        <time>2023-02-19T10:13:38Z</time>
      </trkpt>
      <trkpt lat="45.68153" lon="4.31802">
        <ele>501.3</ele>
        <time>2023-02-19T10:13:39Z</time>
      </trkpt>
      <trkpt lat="45.68153" lon="4.31802">
        <ele>501.3</ele>
        <time>2023-02-19T10:13:40Z</time>
      </trkpt>
      <trkpt lat="45.68153" lon="4.31802">
        <ele>501.3</ele>
        <time>2023-02-19T10:13:41Z</time>
      </trkpt>
      <trkpt lat="45.68154" lon="4.31802">
        <ele>501.3</ele>
        <time>2023-02-19T10:13:42Z</time>
      </trkpt>
      <trkpt lat="45.68154" lon="4.31802">
        <ele>501.3</ele>
        <time>2023-02-19T10:13:43Z</time>
      </trkpt>
      <trkpt lat="45.68154" lon="4.31802">
        <ele>501.3</ele>
        <time>2023-02-19T10:13:44Z</time>
      </trkpt>
      <trkpt lat="45.68154" lon="4.31802">
        <ele>501.3</ele>
        <time>2023-02-19T10:13:45Z</time>
      </trkpt>
      <trkpt lat="45.68154" lon="4.31802">
        <ele>501.3</ele>
        <time>2023-02-19T10:13:46Z</time>
      </trkpt>
      <trkpt lat="45.68154" lon="4.31802">
        <ele>501.3</ele>
        <time>2023-02-19T10:13:47Z</time>
      </trkpt>
      <trkpt lat="45.68154" lon="4.31802">
        <ele>501.3</ele>
        <time>2023-02-19T10:13:48Z</time>
      </trkpt>
      <trkpt lat="45.68154" lon="4.31802">
        <ele>501.3</ele>
        <time>2023-02-19T10:13:49Z</time>
      </trkpt>
      <trkpt lat="45.68154" lon="4.31801">
        <ele>501.4</ele>
        <time>2023-02-19T10:13:50Z</time>
      </trkpt>
      <trkpt lat="45.68154" lon="4.31801">
        <ele>501.4</ele>
        <time>2023-02-19T10:13:51Z</time>
      </trkpt>
      <trkpt lat="45.68154" lon="4.31801">
        <ele>501.4</ele>
        <time>2023-02-19T10:13:52Z</time>
      </trkpt>
      <trkpt lat="45.68154" lon="4.31801">
        <ele>501.4</ele>
        <time>2023-02-19T10:13:53Z</time>
      </trkpt>
      <trkpt lat="45.68154" lon="4.31801">
        <ele>501.4</ele>
        <time>2023-02-19T10:13:54Z</time>
      </trkpt>
      <trkpt lat="45.68154" lon="4.31801">
        <ele>501.4</ele>
        <time>2023-02-19T10:13:55Z</time>
      </trkpt>
      <trkpt lat="45.68154" lon="4.31801">
        <ele>501.4</ele>
        <time>2023-02-19T10:13:56Z</time>
      </trkpt>
      <trkpt lat="45.68154" lon="4.31801">
        <ele>501.4</ele>
        <time>2023-02-19T10:13:57Z</time>
      </trkpt>
      <trkpt lat="45.68154" lon="4.31801">
        <ele>501.4</ele>
        <time>2023-02-19T10:13:58Z</time>
      </trkpt>
      <trkpt lat="45.68154" lon="4.31801">
        <ele>501.4</ele>
        <time>2023-02-19T10:13:59Z</time>
      </trkpt>
      <trkpt lat="45.68154" lon="4.31801">
        <ele>501.4</ele>
        <time>2023-02-19T10:14:00Z</time>
      </trkpt>
      <trkpt lat="45.68154" lon="4.31801">
        <ele>501.4</ele>
        <time>2023-02-19T10:14:01Z</time>
      </trkpt>
      <trkpt lat="45.68154" lon="4.31801">
        <ele>501.4</ele>
        <time>2023-02-19T10:14:02Z</time>
      </trkpt>
      <trkpt lat="45.68154" lon="4.31802">
        <ele>501.4</ele>
        <time>2023-02-19T10:14:03Z</time>
      </trkpt>
      <trkpt lat="45.68155" lon="4.31801">
        <ele>501.4</ele>
        <time>2023-02-19T10:14:04Z</time>
      </trkpt>
      <trkpt lat="45.68155" lon="4.31801">
        <ele>501.4</ele>
        <time>2023-02-19T10:14:05Z</time>
      </trkpt>
      <trkpt lat="45.68155" lon="4.31801">
        <ele>501.4</ele>
        <time>2023-02-19T10:14:06Z</time>
      </trkpt>
      <trkpt lat="45.68155" lon="4.31801">
        <ele>501.4</ele>
        <time>2023-02-19T10:14:07Z</time>
      </trkpt>
      <trkpt lat="45.68155" lon="4.31801">
        <ele>501.4</ele>
        <time>2023-02-19T10:14:08Z</time>
      </trkpt>
      <trkpt lat="45.68155" lon="4.31801">
        <ele>501.4</ele>
        <time>2023-02-19T10:14:09Z</time>
      </trkpt>
      <trkpt lat="45.68155" lon="4.31801">
        <ele>501.4</ele>
        <time>2023-02-19T10:14:10Z</time>
      </trkpt>
      <trkpt lat="45.68155" lon="4.31801">
        <ele>501.4</ele>
        <time>2023-02-19T10:14:11Z</time>
      </trkpt>
      <trkpt lat="45.68155" lon="4.31801">
        <ele>501.4</ele>
        <time>2023-02-19T10:14:12Z</time>
      </trkpt>
      <trkpt lat="45.68155" lon="4.31801">
        <ele>501.4</ele>
        <time>2023-02-19T10:14:13Z</time>
      </trkpt>
      <trkpt lat="45.68155" lon="4.31801">
        <ele>501.4</ele>
        <time>2023-02-19T10:14:14Z</time>
      </trkpt>
      <trkpt lat="45.68155" lon="4.31801">
        <ele>501.4</ele>
        <time>2023-02-19T10:14:15Z</time>
      </trkpt>
      <trkpt lat="45.68155" lon="4.31801">
        <ele>501.4</ele>
        <time>2023-02-19T10:14:16Z</time>
      </trkpt>
      <trkpt lat="45.68155" lon="4.31801">
        <ele>501.4</ele>
        <time>2023-02-19T10:14:17Z</time>
      </trkpt>
      <trkpt lat="45.68155" lon="4.31801">
        <ele>501.4</ele>
        <time>2023-02-19T10:14:18Z</time>
      </trkpt>
      <trkpt lat="45.68155" lon="4.31801">
        <ele>501.4</ele>
        <time>2023-02-19T10:14:19Z</time>
      </trkpt>
      <trkpt lat="45.68155" lon="4.31801">
        <ele>501.4</ele>
        <time>2023-02-19T10:14:20Z</time>
      </trkpt>
      <trkpt lat="45.68155" lon="4.31802">
        <ele>501.4</ele>
        <time>2023-02-19T10:14:21Z</time>
      </trkpt>
      <trkpt lat="45.68155" lon="4.31803">
        <ele>501.4</ele>
        <time>2023-02-19T10:14:22Z</time>
      </trkpt>
      <trkpt lat="45.68155" lon="4.31804">
        <ele>501.4</ele>
        <time>2023-02-19T10:14:23Z</time>
      </trkpt>
      <trkpt lat="45.68155" lon="4.31804">
        <ele>501.4</ele>
        <time>2023-02-19T10:14:24Z</time>
      </trkpt>
      <trkpt lat="45.68155" lon="4.31803">
        <ele>501.5</ele>
        <time>2023-02-19T10:14:25Z</time>
      </trkpt>
      <trkpt lat="45.68156" lon="4.31803">
        <ele>501.5</ele>
        <time>2023-02-19T10:14:26Z</time>
      </trkpt>
      <trkpt lat="45.68156" lon="4.31802">
        <ele>501.5</ele>
        <time>2023-02-19T10:14:27Z</time>
      </trkpt>
      <trkpt lat="45.68156" lon="4.31802">
        <ele>501.5</ele>
        <time>2023-02-19T10:14:28Z</time>
      </trkpt>
      <trkpt lat="45.68156" lon="4.31802">
        <ele>501.5</ele>
        <time>2023-02-19T10:14:29Z</time>
      </trkpt>
      <trkpt lat="45.68156" lon="4.31802">
        <ele>501.5</ele>
        <time>2023-02-19T10:14:30Z</time>
      </trkpt>
      <trkpt lat="45.68157" lon="4.31802">
        <ele>501.5</ele>
        <time>2023-02-19T10:14:31Z</time>
      </trkpt>
      <trkpt lat="45.68157" lon="4.31802">
        <ele>501.5</ele>
        <time>2023-02-19T10:14:32Z</time>
      </trkpt>
      <trkpt lat="45.68157" lon="4.31802">
        <ele>501.5</ele>
        <time>2023-02-19T10:14:33Z</time>
      </trkpt>
      <trkpt lat="45.68157" lon="4.31802">
        <ele>501.5</ele>
        <time>2023-02-19T10:14:34Z</time>
      </trkpt>
      <trkpt lat="45.68157" lon="4.31802">
        <ele>501.5</ele>
        <time>2023-02-19T10:14:35Z</time>
      </trkpt>
      <trkpt lat="45.68157" lon="4.31802">
        <ele>501.5</ele>
        <time>2023-02-19T10:14:36Z</time>
      </trkpt>
      <trkpt lat="45.68157" lon="4.31803">
        <ele>501.5</ele>
        <time>2023-02-19T10:14:37Z</time>
      </trkpt>
      <trkpt lat="45.68157" lon="4.31803">
        <ele>501.5</ele>
        <time>2023-02-19T10:14:38Z</time>
      </trkpt>
      <trkpt lat="45.68157" lon="4.31802">
        <ele>501.5</ele>
        <time>2023-02-19T10:14:39Z</time>
      </trkpt>
      <trkpt lat="45.68157" lon="4.31802">
        <ele>501.5</ele>
        <time>2023-02-19T10:14:40Z</time>
      </trkpt>
      <trkpt lat="45.68157" lon="4.31802">
        <ele>501.5</ele>
        <time>2023-02-19T10:14:41Z</time>
      </trkpt>
      <trkpt lat="45.68157" lon="4.31802">
        <ele>501.5</ele>
        <time>2023-02-19T10:14:42Z</time>
      </trkpt>
      <trkpt lat="45.68157" lon="4.31802">
        <ele>501.5</ele>
        <time>2023-02-19T10:14:43Z</time>
      </trkpt>
      <trkpt lat="45.68157" lon="4.31802">
        <ele>501.5</ele>
        <time>2023-02-19T10:14:44Z</time>
      </trkpt>
      <trkpt lat="45.68157" lon="4.31802">
        <ele>501.5</ele>
        <time>2023-02-19T10:14:45Z</time>
      </trkpt>
      <trkpt lat="45.68157" lon="4.31802">
        <ele>501.5</ele>
        <time>2023-02-19T10:14:46Z</time>
      </trkpt>
      <trkpt lat="45.68157" lon="4.31802">
        <ele>501.5</ele>
        <time>2023-02-19T10:14:47Z</time>
      </trkpt>
      <trkpt lat="45.68157" lon="4.31802">
        <ele>501.5</ele>
        <time>2023-02-19T10:14:48Z</time>
      </trkpt>
      <trkpt lat="45.68158" lon="4.31802">
        <ele>501.5</ele>
        <time>2023-02-19T10:14:49Z</time>
      </trkpt>
      <trkpt lat="45.68158" lon="4.31802">
        <ele>501.5</ele>
        <time>2023-02-19T10:14:50Z</time>
      </trkpt>
      <trkpt lat="45.68158" lon="4.31802">
        <ele>501.5</ele>
        <time>2023-02-19T10:14:51Z</time>
      </trkpt>
      <trkpt lat="45.68158" lon="4.31802">
        <ele>501.5</ele>
        <time>2023-02-19T10:14:52Z</time>
      </trkpt>
      <trkpt lat="45.68158" lon="4.31802">
        <ele>501.5</ele>
        <time>2023-02-19T10:14:53Z</time>
      </trkpt>
      <trkpt lat="45.68158" lon="4.31802">
        <ele>501.5</ele>
        <time>2023-02-19T10:14:54Z</time>
      </trkpt>
      <trkpt lat="45.68158" lon="4.31802">
        <ele>501.5</ele>
        <time>2023-02-19T10:14:55Z</time>
      </trkpt>
      <trkpt lat="45.68158" lon="4.31802">
        <ele>501.5</ele>
        <time>2023-02-19T10:14:56Z</time>
      </trkpt>
      <trkpt lat="45.68158" lon="4.31802">
        <ele>501.5</ele>
        <time>2023-02-19T10:14:57Z</time>
      </trkpt>
      <trkpt lat="45.68158" lon="4.31802">
        <ele>501.5</ele>
        <time>2023-02-19T10:14:58Z</time>
      </trkpt>
      <trkpt lat="45.68158" lon="4.31802">
        <ele>501.5</ele>
        <time>2023-02-19T10:14:59Z</time>
      </trkpt>
      <trkpt lat="45.68158" lon="4.31801">
        <ele>501.5</ele>
        <time>2023-02-19T10:15:00Z</time>
      </trkpt>
      <trkpt lat="45.68158" lon="4.31801">
        <ele>501.5</ele>
        <time>2023-02-19T10:15:01Z</time>
      </trkpt>
      <trkpt lat="45.68158" lon="4.31801">
        <ele>501.5</ele>
        <time>2023-02-19T10:15:02Z</time>
      </trkpt>
      <trkpt lat="45.68158" lon="4.31801">
        <ele>501.5</ele>
        <time>2023-02-19T10:15:03Z</time>
      </trkpt>
      <trkpt lat="45.68158" lon="4.31801">
        <ele>501.5</ele>
        <time>2023-02-19T10:15:04Z</time>
      </trkpt>
      <trkpt lat="45.68158" lon="4.31801">
        <ele>501.5</ele>
        <time>2023-02-19T10:15:05Z</time>
      </trkpt>
      <trkpt lat="45.68158" lon="4.31801">
        <ele>501.5</ele>
        <time>2023-02-19T10:15:06Z</time>
      </trkpt>
      <trkpt lat="45.68158" lon="4.31801">
        <ele>501.5</ele>
        <time>2023-02-19T10:15:07Z</time>
      </trkpt>
      <trkpt lat="45.68158" lon="4.31801">
        <ele>501.5</ele>
        <time>2023-02-19T10:15:08Z</time>
      </trkpt>
      <trkpt lat="45.68158" lon="4.31801">
        <ele>501.5</ele>
        <time>2023-02-19T10:15:09Z</time>
      </trkpt>
      <trkpt lat="45.68158" lon="4.31801">
        <ele>501.5</ele>
        <time>2023-02-19T10:15:10Z</time>
      </trkpt>
      <trkpt lat="45.68159" lon="4.31801">
        <ele>501.5</ele>
        <time>2023-02-19T10:15:11Z</time>
      </trkpt>
      <trkpt lat="45.68159" lon="4.31801">
        <ele>501.5</ele>
        <time>2023-02-19T10:15:12Z</time>
      </trkpt>
      <trkpt lat="45.68159" lon="4.31801">
        <ele>501.5</ele>
        <time>2023-02-19T10:15:13Z</time>
      </trkpt>
      <trkpt lat="45.68159" lon="4.31801">
        <ele>501.5</ele>
        <time>2023-02-19T10:15:14Z</time>
      </trkpt>
      <trkpt lat="45.68159" lon="4.31801">
        <ele>501.5</ele>
        <time>2023-02-19T10:15:15Z</time>
      </trkpt>
      <trkpt lat="45.68159" lon="4.31801">
        <ele>501.5</ele>
        <time>2023-02-19T10:15:16Z</time>
      </trkpt>
      <trkpt lat="45.6816" lon="4.31801">
        <ele>501.5</ele>
        <time>2023-02-19T10:15:17Z</time>
      </trkpt>
      <trkpt lat="45.68161" lon="4.31801">
        <ele>501.5</ele>
        <time>2023-02-19T10:15:18Z</time>
      </trkpt>
      <trkpt lat="45.68161" lon="4.31801">
        <ele>501.6</ele>
        <time>2023-02-19T10:15:19Z</time>
      </trkpt>
      <trkpt lat="45.68162" lon="4.31801">
        <ele>501.6</ele>
        <time>2023-02-19T10:15:20Z</time>
      </trkpt>
      <trkpt lat="45.68162" lon="4.31801">
        <ele>501.6</ele>
        <time>2023-02-19T10:15:21Z</time>
      </trkpt>
      <trkpt lat="45.68162" lon="4.31801">
        <ele>501.6</ele>
        <time>2023-02-19T10:15:22Z</time>
      </trkpt>
      <trkpt lat="45.68162" lon="4.31802">
        <ele>501.6</ele>
        <time>2023-02-19T10:15:23Z</time>
      </trkpt>
      <trkpt lat="45.68162" lon="4.31802">
        <ele>501.6</ele>
        <time>2023-02-19T10:15:24Z</time>
      </trkpt>
      <trkpt lat="45.68163" lon="4.31802">
        <ele>501.6</ele>
        <time>2023-02-19T10:15:25Z</time>
      </trkpt>
      <trkpt lat="45.68163" lon="4.31802">
        <ele>501.6</ele>
        <time>2023-02-19T10:15:26Z</time>
      </trkpt>
      <trkpt lat="45.68163" lon="4.31802">
        <ele>501.6</ele>
        <time>2023-02-19T10:15:27Z</time>
      </trkpt>
      <trkpt lat="45.68163" lon="4.31802">
        <ele>501.6</ele>
        <time>2023-02-19T10:15:28Z</time>
      </trkpt>
      <trkpt lat="45.68163" lon="4.31801">
        <ele>501.6</ele>
        <time>2023-02-19T10:15:29Z</time>
      </trkpt>
      <trkpt lat="45.68163" lon="4.31801">
        <ele>501.6</ele>
        <time>2023-02-19T10:15:30Z</time>
      </trkpt>
      <trkpt lat="45.68163" lon="4.31801">
        <ele>501.6</ele>
        <time>2023-02-19T10:15:31Z</time>
      </trkpt>
      <trkpt lat="45.68163" lon="4.31801">
        <ele>501.6</ele>
        <time>2023-02-19T10:15:32Z</time>
      </trkpt>
      <trkpt lat="45.68163" lon="4.31801">
        <ele>501.6</ele>
        <time>2023-02-19T10:15:33Z</time>
      </trkpt>
      <trkpt lat="45.68163" lon="4.31801">
        <ele>501.6</ele>
        <time>2023-02-19T10:15:34Z</time>
      </trkpt>
      <trkpt lat="45.68163" lon="4.31801">
        <ele>501.6</ele>
        <time>2023-02-19T10:15:35Z</time>
      </trkpt>
      <trkpt lat="45.68163" lon="4.31801">
        <ele>501.6</ele>
        <time>2023-02-19T10:15:36Z</time>
      </trkpt>
      <trkpt lat="45.68163" lon="4.31801">
        <ele>501.6</ele>
        <time>2023-02-19T10:15:37Z</time>
      </trkpt>
      <trkpt lat="45.68164" lon="4.31801">
        <ele>501.6</ele>
        <time>2023-02-19T10:15:38Z</time>
      </trkpt>
      <trkpt lat="45.68164" lon="4.31801">
        <ele>501.6</ele>
        <time>2023-02-19T10:15:39Z</time>
      </trkpt>
      <trkpt lat="45.68164" lon="4.31801">
        <ele>501.6</ele>
        <time>2023-02-19T10:15:40Z</time>
      </trkpt>
      <trkpt lat="45.68164" lon="4.31801">
        <ele>501.6</ele>
        <time>2023-02-19T10:15:41Z</time>
      </trkpt>
      <trkpt lat="45.68164" lon="4.31801">
        <ele>501.6</ele>
        <time>2023-02-19T10:15:42Z</time>
      </trkpt>
      <trkpt lat="45.68164" lon="4.31801">
        <ele>501.6</ele>
        <time>2023-02-19T10:15:43Z</time>
      </trkpt>
      <trkpt lat="45.68164" lon="4.31801">
        <ele>501.6</ele>
        <time>2023-02-19T10:15:44Z</time>
      </trkpt>
      <trkpt lat="45.68164" lon="4.318">
        <ele>501.6</ele>
        <time>2023-02-19T10:15:45Z</time>
      </trkpt>
      <trkpt lat="45.68164" lon="4.318">
        <ele>501.6</ele>
        <time>2023-02-19T10:15:46Z</time>
      </trkpt>
      <trkpt lat="45.68164" lon="4.318">
        <ele>501.6</ele>
        <time>2023-02-19T10:15:47Z</time>
      </trkpt>
      <trkpt lat="45.68165" lon="4.318">
        <ele>501.6</ele>
        <time>2023-02-19T10:15:48Z</time>
      </trkpt>
      <trkpt lat="45.68165" lon="4.318">
        <ele>501.6</ele>
        <time>2023-02-19T10:15:49Z</time>
      </trkpt>
      <trkpt lat="45.68166" lon="4.318">
        <ele>501.6</ele>
        <time>2023-02-19T10:15:50Z</time>
      </trkpt>
      <trkpt lat="45.68166" lon="4.318">
        <ele>501.6</ele>
        <time>2023-02-19T10:15:51Z</time>
      </trkpt>
      <trkpt lat="45.68167" lon="4.318">
        <ele>501.6</ele>
        <time>2023-02-19T10:15:52Z</time>
      </trkpt>
      <trkpt lat="45.68167" lon="4.318">
        <ele>501.6</ele>
        <time>2023-02-19T10:15:53Z</time>
      </trkpt>
      <trkpt lat="45.68167" lon="4.318">
        <ele>501.6</ele>
        <time>2023-02-19T10:15:54Z</time>
      </trkpt>
      <trkpt lat="45.68168" lon="4.318">
        <ele>501.6</ele>
        <time>2023-02-19T10:15:55Z</time>
      </trkpt>
      <trkpt lat="45.68168" lon="4.318">
        <ele>501.6</ele>
        <time>2023-02-19T10:15:56Z</time>
      </trkpt>
      <trkpt lat="45.68168" lon="4.31799">
        <ele>501.6</ele>
        <time>2023-02-19T10:15:57Z</time>
      </trkpt>
      <trkpt lat="45.68168" lon="4.31799">
        <ele>501.6</ele>
        <time>2023-02-19T10:15:58Z</time>
      </trkpt>
      <trkpt lat="45.68168" lon="4.31799">
        <ele>501.6</ele>
        <time>2023-02-19T10:15:59Z</time>
      </trkpt>
      <trkpt lat="45.68169" lon="4.31799">
        <ele>501.7</ele>
        <time>2023-02-19T10:16:00Z</time>
      </trkpt>
      <trkpt lat="45.68169" lon="4.31799">
        <ele>501.7</ele>
        <time>2023-02-19T10:16:01Z</time>
      </trkpt>
      <trkpt lat="45.68169" lon="4.31799">
        <ele>501.7</ele>
        <time>2023-02-19T10:16:02Z</time>
      </trkpt>
      <trkpt lat="45.68169" lon="4.31799">
        <ele>501.7</ele>
        <time>2023-02-19T10:16:03Z</time>
      </trkpt>
      <trkpt lat="45.68169" lon="4.31799">
        <ele>501.7</ele>
        <time>2023-02-19T10:16:04Z</time>
      </trkpt>
      <trkpt lat="45.68169" lon="4.31799">
        <ele>501.7</ele>
        <time>2023-02-19T10:16:05Z</time>
      </trkpt>
      <trkpt lat="45.68169" lon="4.31799">
        <ele>501.7</ele>
        <time>2023-02-19T10:16:06Z</time>
      </trkpt>
      <trkpt lat="45.68169" lon="4.31799">
        <ele>501.7</ele>
        <time>2023-02-19T10:16:07Z</time>
      </trkpt>
      <trkpt lat="45.68169" lon="4.31799">
        <ele>501.7</ele>
        <time>2023-02-19T10:16:08Z</time>
      </trkpt>
      <trkpt lat="45.68169" lon="4.31799">
        <ele>501.7</ele>
        <time>2023-02-19T10:16:09Z</time>
      </trkpt>
      <trkpt lat="45.68169" lon="4.31799">
        <ele>501.7</ele>
        <time>2023-02-19T10:16:10Z</time>
      </trkpt>
      <trkpt lat="45.68169" lon="4.31799">
        <ele>501.7</ele>
        <time>2023-02-19T10:16:11Z</time>
      </trkpt>
      <trkpt lat="45.68169" lon="4.31799">
        <ele>501.7</ele>
        <time>2023-02-19T10:16:12Z</time>
      </trkpt>
      <trkpt lat="45.68169" lon="4.31799">
        <ele>501.7</ele>
        <time>2023-02-19T10:16:13Z</time>
      </trkpt>
      <trkpt lat="45.68169" lon="4.31799">
        <ele>501.7</ele>
        <time>2023-02-19T10:16:14Z</time>
      </trkpt>
      <trkpt lat="45.68169" lon="4.31799">
        <ele>501.7</ele>
        <time>2023-02-19T10:16:15Z</time>
      </trkpt>
      <trkpt lat="45.68169" lon="4.31799">
        <ele>501.7</ele>
        <time>2023-02-19T10:16:16Z</time>
      </trkpt>
      <trkpt lat="45.68169" lon="4.318">
        <ele>501.7</ele>
        <time>2023-02-19T10:16:17Z</time>
      </trkpt>
      <trkpt lat="45.68168" lon="4.318">
        <ele>501.7</ele>
        <time>2023-02-19T10:16:18Z</time>
      </trkpt>
      <trkpt lat="45.68168" lon="4.318">
        <ele>501.7</ele>
        <time>2023-02-19T10:16:19Z</time>
      </trkpt>
      <trkpt lat="45.68168" lon="4.318">
        <ele>501.7</ele>
        <time>2023-02-19T10:16:20Z</time>
      </trkpt>
      <trkpt lat="45.68168" lon="4.318">
        <ele>501.7</ele>
        <time>2023-02-19T10:16:21Z</time>
      </trkpt>
      <trkpt lat="45.68168" lon="4.318">
        <ele>501.7</ele>
        <time>2023-02-19T10:16:22Z</time>
      </trkpt>
      <trkpt lat="45.68168" lon="4.318">
        <ele>501.7</ele>
        <time>2023-02-19T10:16:23Z</time>
      </trkpt>
      <trkpt lat="45.68168" lon="4.318">
        <ele>501.7</ele>
        <time>2023-02-19T10:16:24Z</time>
      </trkpt>
      <trkpt lat="45.68168" lon="4.318">
        <ele>501.7</ele>
        <time>2023-02-19T10:16:25Z</time>
      </trkpt>
      <trkpt lat="45.68168" lon="4.318">
        <ele>501.7</ele>
        <time>2023-02-19T10:16:26Z</time>
      </trkpt>
      <trkpt lat="45.68168" lon="4.318">
        <ele>501.7</ele>
        <time>2023-02-19T10:16:27Z</time>
      </trkpt>
      <trkpt lat="45.68168" lon="4.318">
        <ele>501.7</ele>
        <time>2023-02-19T10:16:28Z</time>
      </trkpt>
      <trkpt lat="45.68168" lon="4.318">
        <ele>501.7</ele>
        <time>2023-02-19T10:16:29Z</time>
      </trkpt>
      <trkpt lat="45.68168" lon="4.318">
        <ele>501.7</ele>
        <time>2023-02-19T10:16:30Z</time>
      </trkpt>
      <trkpt lat="45.68168" lon="4.318">
        <ele>501.7</ele>
        <time>2023-02-19T10:16:31Z</time>
      </trkpt>
      <trkpt lat="45.68168" lon="4.318">
        <ele>501.7</ele>
        <time>2023-02-19T10:16:32Z</time>
      </trkpt>
      <trkpt lat="45.68168" lon="4.31801">
        <ele>501.7</ele>
        <time>2023-02-19T10:16:33Z</time>
      </trkpt>
      <trkpt lat="45.68168" lon="4.31801">
        <ele>501.7</ele>
        <time>2023-02-19T10:16:34Z</time>
      </trkpt>
      <trkpt lat="45.68168" lon="4.31801">
        <ele>501.7</ele>
        <time>2023-02-19T10:16:35Z</time>
      </trkpt>
      <trkpt lat="45.68168" lon="4.31801">
        <ele>501.7</ele>
        <time>2023-02-19T10:16:36Z</time>
      </trkpt>
      <trkpt lat="45.68168" lon="4.31801">
        <ele>501.7</ele>
        <time>2023-02-19T10:16:37Z</time>
      </trkpt>
      <trkpt lat="45.68168" lon="4.31801">
        <ele>501.7</ele>
        <time>2023-02-19T10:16:38Z</time>
      </trkpt>
      <trkpt lat="45.68168" lon="4.31801">
        <ele>501.7</ele>
        <time>2023-02-19T10:16:39Z</time>
      </trkpt>
      <trkpt lat="45.68168" lon="4.31801">
        <ele>501.7</ele>
        <time>2023-02-19T10:16:40Z</time>
      </trkpt>
      <trkpt lat="45.68168" lon="4.31801">
        <ele>501.7</ele>
        <time>2023-02-19T10:16:41Z</time>
      </trkpt>
      <trkpt lat="45.68168" lon="4.31801">
        <ele>501.7</ele>
        <time>2023-02-19T10:16:42Z</time>
      </trkpt>
      <trkpt lat="45.68168" lon="4.31801">
        <ele>501.7</ele>
        <time>2023-02-19T10:16:43Z</time>
      </trkpt>
      <trkpt lat="45.68168" lon="4.31801">
        <ele>501.7</ele>
        <time>2023-02-19T10:16:44Z</time>
      </trkpt>
      <trkpt lat="45.68168" lon="4.31801">
        <ele>501.7</ele>
        <time>2023-02-19T10:16:45Z</time>
      </trkpt>
      <trkpt lat="45.68168" lon="4.31801">
        <ele>501.7</ele>
        <time>2023-02-19T10:16:46Z</time>
      </trkpt>
      <trkpt lat="45.68168" lon="4.31801">
        <ele>501.7</ele>
        <time>2023-02-19T10:16:47Z</time>
      </trkpt>
      <trkpt lat="45.68168" lon="4.31801">
        <ele>501.7</ele>
        <time>2023-02-19T10:16:48Z</time>
      </trkpt>
      <trkpt lat="45.68168" lon="4.31801">
        <ele>501.7</ele>
        <time>2023-02-19T10:16:49Z</time>
      </trkpt>
      <trkpt lat="45.68168" lon="4.31801">
        <ele>501.7</ele>
        <time>2023-02-19T10:16:50Z</time>
      </trkpt>
      <trkpt lat="45.68167" lon="4.31802">
        <ele>501.7</ele>
        <time>2023-02-19T10:16:51Z</time>
      </trkpt>
      <trkpt lat="45.68167" lon="4.31802">
        <ele>501.7</ele>
        <time>2023-02-19T10:16:52Z</time>
      </trkpt>
      <trkpt lat="45.68167" lon="4.31802">
        <ele>501.7</ele>
        <time>2023-02-19T10:16:53Z</time>
      </trkpt>
      <trkpt lat="45.68167" lon="4.31802">
        <ele>501.7</ele>
        <time>2023-02-19T10:16:54Z</time>
      </trkpt>
      <trkpt lat="45.68167" lon="4.31802">
        <ele>501.7</ele>
        <time>2023-02-19T10:16:55Z</time>
      </trkpt>
      <trkpt lat="45.68167" lon="4.31802">
        <ele>501.7</ele>
        <time>2023-02-19T10:16:56Z</time>
      </trkpt>
      <trkpt lat="45.68167" lon="4.31802">
        <ele>501.7</ele>
        <time>2023-02-19T10:16:57Z</time>
      </trkpt>
      <trkpt lat="45.68167" lon="4.31802">
        <ele>501.7</ele>
        <time>2023-02-19T10:16:58Z</time>
      </trkpt>
      <trkpt lat="45.68167" lon="4.31802">
        <ele>501.7</ele>
        <time>2023-02-19T10:16:59Z</time>
      </trkpt>
      <trkpt lat="45.68167" lon="4.31802">
        <ele>501.7</ele>
        <time>2023-02-19T10:17:00Z</time>
      </trkpt>
      <trkpt lat="45.68167" lon="4.31802">
        <ele>501.7</ele>
        <time>2023-02-19T10:17:01Z</time>
      </trkpt>
      <trkpt lat="45.68167" lon="4.31802">
        <ele>501.7</ele>
        <time>2023-02-19T10:17:02Z</time>
      </trkpt>
      <trkpt lat="45.68167" lon="4.31802">
        <ele>501.7</ele>
        <time>2023-02-19T10:17:03Z</time>
      </trkpt>
      <trkpt lat="45.68167" lon="4.31802">
        <ele>501.7</ele>
        <time>2023-02-19T10:17:04Z</time>
      </trkpt>
      <trkpt lat="45.68167" lon="4.31802">
        <ele>501.7</ele>
        <time>2023-02-19T10:17:05Z</time>
      </trkpt>
      <trkpt lat="45.68167" lon="4.31802">
        <ele>501.7</ele>
        <time>2023-02-19T10:17:06Z</time>
      </trkpt>
      <trkpt lat="45.68167" lon="4.31802">
        <ele>501.7</ele>
        <time>2023-02-19T10:17:07Z</time>
      </trkpt>
      <trkpt lat="45.68167" lon="4.31802">
        <ele>501.7</ele>
        <time>2023-02-19T10:17:08Z</time>
      </trkpt>
      <trkpt lat="45.68167" lon="4.31802">
        <ele>501.7</ele>
        <time>2023-02-19T10:17:09Z</time>
      </trkpt>
      <trkpt lat="45.68167" lon="4.31802">
        <ele>501.7</ele>
        <time>2023-02-19T10:17:10Z</time>
      </trkpt>
      <trkpt lat="45.68167" lon="4.31802">
        <ele>501.7</ele>
        <time>2023-02-19T10:17:11Z</time>
      </trkpt>
      <trkpt lat="45.68167" lon="4.31802">
        <ele>501.7</ele>
        <time>2023-02-19T10:17:12Z</time>
      </trkpt>
      <trkpt lat="45.68167" lon="4.31803">
        <ele>501.7</ele>
        <time>2023-02-19T10:17:13Z</time>
      </trkpt>
      <trkpt lat="45.68167" lon="4.31803">
        <ele>501.7</ele>
        <time>2023-02-19T10:17:14Z</time>
      </trkpt>
      <trkpt lat="45.68167" lon="4.31803">
        <ele>501.7</ele>
        <time>2023-02-19T10:17:15Z</time>
      </trkpt>
      <trkpt lat="45.68167" lon="4.31804">
        <ele>501.7</ele>
        <time>2023-02-19T10:17:16Z</time>
      </trkpt>
      <trkpt lat="45.68167" lon="4.31804">
        <ele>501.7</ele>
        <time>2023-02-19T10:17:17Z</time>
      </trkpt>
      <trkpt lat="45.68167" lon="4.31804">
        <ele>501.7</ele>
        <time>2023-02-19T10:17:18Z</time>
      </trkpt>
      <trkpt lat="45.68168" lon="4.31804">
        <ele>501.7</ele>
        <time>2023-02-19T10:17:19Z</time>
      </trkpt>
      <trkpt lat="45.6817" lon="4.31805">
        <ele>501.7</ele>
        <time>2023-02-19T10:17:20Z</time>
      </trkpt>
      <trkpt lat="45.68172" lon="4.31806">
        <ele>501.7</ele>
        <time>2023-02-19T10:17:21Z</time>
      </trkpt>
      <trkpt lat="45.68173" lon="4.31807">
        <ele>501.8</ele>
        <time>2023-02-19T10:17:22Z</time>
      </trkpt>
      <trkpt lat="45.68175" lon="4.31809">
        <ele>501.8</ele>
        <time>2023-02-19T10:17:23Z</time>
      </trkpt>
      <trkpt lat="45.68176" lon="4.31809">
        <ele>501.8</ele>
        <time>2023-02-19T10:17:24Z</time>
      </trkpt>
      <trkpt lat="45.68177" lon="4.31809">
        <ele>501.8</ele>
        <time>2023-02-19T10:17:25Z</time>
      </trkpt>
      <trkpt lat="45.68178" lon="4.3181">
        <ele>501.8</ele>
        <time>2023-02-19T10:17:26Z</time>
      </trkpt>
      <trkpt lat="45.68179" lon="4.31811">
        <ele>501.8</ele>
        <time>2023-02-19T10:17:27Z</time>
      </trkpt>
      <trkpt lat="45.6818" lon="4.31812">
        <ele>501.8</ele>
        <time>2023-02-19T10:17:28Z</time>
      </trkpt>
      <trkpt lat="45.68182" lon="4.31813">
        <ele>501.8</ele>
        <time>2023-02-19T10:17:30Z</time>
      </trkpt>
      <trkpt lat="45.68183" lon="4.31813">
        <ele>501.8</ele>
        <time>2023-02-19T10:17:31Z</time>
      </trkpt>
      <trkpt lat="45.68184" lon="4.31813">
        <ele>501.8</ele>
        <time>2023-02-19T10:17:32Z</time>
      </trkpt>
      <trkpt lat="45.68185" lon="4.31813">
        <ele>501.8</ele>
        <time>2023-02-19T10:17:33Z</time>
      </trkpt>
      <trkpt lat="45.68187" lon="4.31813">
        <ele>501.8</ele>
        <time>2023-02-19T10:17:34Z</time>
      </trkpt>
      <trkpt lat="45.68188" lon="4.31813">
        <ele>501.8</ele>
        <time>2023-02-19T10:17:35Z</time>
      </trkpt>
      <trkpt lat="45.68189" lon="4.31813">
        <ele>501.8</ele>
        <time>2023-02-19T10:17:36Z</time>
      </trkpt>
      <trkpt lat="45.6819" lon="4.31812">
        <ele>501.8</ele>
        <time>2023-02-19T10:17:38Z</time>
      </trkpt>
      <trkpt lat="45.68191" lon="4.31812">
        <ele>501.8</ele>
        <time>2023-02-19T10:17:39Z</time>
      </trkpt>
      <trkpt lat="45.68192" lon="4.31812">
        <ele>501.8</ele>
        <time>2023-02-19T10:17:40Z</time>
      </trkpt>
      <trkpt lat="45.68193" lon="4.31811">
        <ele>501.8</ele>
        <time>2023-02-19T10:17:41Z</time>
      </trkpt>
      <trkpt lat="45.68194" lon="4.3181">
        <ele>501.8</ele>
        <time>2023-02-19T10:17:42Z</time>
      </trkpt>
      <trkpt lat="45.68195" lon="4.3181">
        <ele>501.8</ele>
        <time>2023-02-19T10:17:43Z</time>
      </trkpt>
      <trkpt lat="45.68197" lon="4.31809">
        <ele>501.8</ele>
        <time>2023-02-19T10:17:44Z</time>
      </trkpt>
      <trkpt lat="45.68198" lon="4.31808">
        <ele>501.8</ele>
        <time>2023-02-19T10:17:46Z</time>
      </trkpt>
      <trkpt lat="45.682" lon="4.31808">
        <ele>501.8</ele>
        <time>2023-02-19T10:17:47Z</time>
      </trkpt>
      <trkpt lat="45.68201" lon="4.31807">
        <ele>501.8</ele>
        <time>2023-02-19T10:17:48Z</time>
      </trkpt>
      <trkpt lat="45.68202" lon="4.31807">
        <ele>501.8</ele>
        <time>2023-02-19T10:17:49Z</time>
      </trkpt>
      <trkpt lat="45.68204" lon="4.31807">
        <ele>501.8</ele>
        <time>2023-02-19T10:17:50Z</time>
      </trkpt>
      <trkpt lat="45.68206" lon="4.31806">
        <ele>501.8</ele>
        <time>2023-02-19T10:17:52Z</time>
      </trkpt>
      <trkpt lat="45.68207" lon="4.31806">
        <ele>501.8</ele>
        <time>2023-02-19T10:17:53Z</time>
      </trkpt>
      <trkpt lat="45.68208" lon="4.31806">
        <ele>501.8</ele>
        <time>2023-02-19T10:17:54Z</time>
      </trkpt>
      <trkpt lat="45.68209" lon="4.31805">
        <ele>501.8</ele>
        <time>2023-02-19T10:17:55Z</time>
      </trkpt>
      <trkpt lat="45.6821" lon="4.31805">
        <ele>501.8</ele>
        <time>2023-02-19T10:17:56Z</time>
      </trkpt>
      <trkpt lat="45.68212" lon="4.31804">
        <ele>501.7</ele>
        <time>2023-02-19T10:17:57Z</time>
      </trkpt>
      <trkpt lat="45.68214" lon="4.31804">
        <ele>501.7</ele>
        <time>2023-02-19T10:17:58Z</time>
      </trkpt>
      <trkpt lat="45.68215" lon="4.31803">
        <ele>501.7</ele>
        <time>2023-02-19T10:17:59Z</time>
      </trkpt>
      <trkpt lat="45.68217" lon="4.31803">
        <ele>501.7</ele>
        <time>2023-02-19T10:18:00Z</time>
      </trkpt>
      <trkpt lat="45.68218" lon="4.31803">
        <ele>501.7</ele>
        <time>2023-02-19T10:18:01Z</time>
      </trkpt>
      <trkpt lat="45.6822" lon="4.31802">
        <ele>501.7</ele>
        <time>2023-02-19T10:18:03Z</time>
      </trkpt>
      <trkpt lat="45.68221" lon="4.31802">
        <ele>501.6</ele>
        <time>2023-02-19T10:18:04Z</time>
      </trkpt>
      <trkpt lat="45.68223" lon="4.31802">
        <ele>501.6</ele>
        <time>2023-02-19T10:18:05Z</time>
      </trkpt>
      <trkpt lat="45.68224" lon="4.31801">
        <ele>501.6</ele>
        <time>2023-02-19T10:18:06Z</time>
      </trkpt>
      <trkpt lat="45.68225" lon="4.31801">
        <ele>501.6</ele>
        <time>2023-02-19T10:18:07Z</time>
      </trkpt>
      <trkpt lat="45.68226" lon="4.318">
        <ele>501.6</ele>
        <time>2023-02-19T10:18:08Z</time>
      </trkpt>
      <trkpt lat="45.68228" lon="4.318">
        <ele>501.6</ele>
        <time>2023-02-19T10:18:10Z</time>
      </trkpt>
      <trkpt lat="45.68229" lon="4.31799">
        <ele>501.5</ele>
        <time>2023-02-19T10:18:11Z</time>
      </trkpt>
      <trkpt lat="45.68229" lon="4.31799">
        <ele>501.5</ele>
        <time>2023-02-19T10:18:12Z</time>
      </trkpt>
      <trkpt lat="45.68229" lon="4.31798">
        <ele>501.5</ele>
        <time>2023-02-19T10:18:13Z</time>
      </trkpt>
      <trkpt lat="45.68229" lon="4.31798">
        <ele>501.5</ele>
        <time>2023-02-19T10:18:14Z</time>
      </trkpt>
      <trkpt lat="45.68228" lon="4.31798">
        <ele>501.5</ele>
        <time>2023-02-19T10:18:15Z</time>
      </trkpt>
      <trkpt lat="45.68228" lon="4.31797">
        <ele>501.5</ele>
        <time>2023-02-19T10:18:16Z</time>
      </trkpt>
      <trkpt lat="45.68228" lon="4.31796">
        <ele>501.5</ele>
        <time>2023-02-19T10:18:17Z</time>
      </trkpt>
      <trkpt lat="45.68228" lon="4.31797">
        <ele>501.5</ele>
        <time>2023-02-19T10:18:19Z</time>
      </trkpt>
      <trkpt lat="45.68229" lon="4.31797">
        <ele>501.5</ele>
        <time>2023-02-19T10:18:20Z</time>
      </trkpt>
      <trkpt lat="45.68229" lon="4.31797">
        <ele>501.5</ele>
        <time>2023-02-19T10:18:21Z</time>
      </trkpt>
      <trkpt lat="45.68229" lon="4.31797">
        <ele>501.5</ele>
        <time>2023-02-19T10:18:22Z</time>
      </trkpt>
      <trkpt lat="45.68229" lon="4.31796">
        <ele>501.5</ele>
        <time>2023-02-19T10:18:23Z</time>
      </trkpt>
      <trkpt lat="45.6823" lon="4.31794">
        <ele>501.5</ele>
        <time>2023-02-19T10:18:24Z</time>
      </trkpt>
      <trkpt lat="45.6823" lon="4.31792">
        <ele>501.4</ele>
        <time>2023-02-19T10:18:25Z</time>
      </trkpt>
      <trkpt lat="45.68231" lon="4.31791">
        <ele>501.4</ele>
        <time>2023-02-19T10:18:26Z</time>
      </trkpt>
      <trkpt lat="45.68231" lon="4.31789">
        <ele>501.4</ele>
        <time>2023-02-19T10:18:27Z</time>
      </trkpt>
      <trkpt lat="45.68232" lon="4.31787">
        <ele>499.5</ele>
        <time>2023-02-19T10:18:28Z</time>
      </trkpt>
      <trkpt lat="45.68233" lon="4.31785">
        <ele>499.4</ele>
        <time>2023-02-19T10:18:29Z</time>
      </trkpt>
      <trkpt lat="45.68233" lon="4.31783">
        <ele>499.2</ele>
        <time>2023-02-19T10:18:30Z</time>
      </trkpt>
      <trkpt lat="45.68233" lon="4.31782">
        <ele>499</ele>
        <time>2023-02-19T10:18:31Z</time>
      </trkpt>
      <trkpt lat="45.68234" lon="4.3178">
        <ele>498.8</ele>
        <time>2023-02-19T10:18:32Z</time>
      </trkpt>
      <trkpt lat="45.68234" lon="4.31778">
        <ele>498.6</ele>
        <time>2023-02-19T10:18:34Z</time>
      </trkpt>
      <trkpt lat="45.68234" lon="4.31776">
        <ele>498.4</ele>
        <time>2023-02-19T10:18:35Z</time>
      </trkpt>
      <trkpt lat="45.68234" lon="4.31774">
        <ele>498.2</ele>
        <time>2023-02-19T10:18:36Z</time>
      </trkpt>
      <trkpt lat="45.68234" lon="4.31772">
        <ele>498</ele>
        <time>2023-02-19T10:18:37Z</time>
      </trkpt>
      <trkpt lat="45.68234" lon="4.3177">
        <ele>497.8</ele>
        <time>2023-02-19T10:18:38Z</time>
      </trkpt>
      <trkpt lat="45.68233" lon="4.31767">
        <ele>497.5</ele>
        <time>2023-02-19T10:18:39Z</time>
      </trkpt>
      <trkpt lat="45.68233" lon="4.31765">
        <ele>497.4</ele>
        <time>2023-02-19T10:18:40Z</time>
      </trkpt>
      <trkpt lat="45.68233" lon="4.31764">
        <ele>497.3</ele>
        <time>2023-02-19T10:18:41Z</time>
      </trkpt>
      <trkpt lat="45.68233" lon="4.31761">
        <ele>497</ele>
        <time>2023-02-19T10:18:42Z</time>
      </trkpt>
      <trkpt lat="45.68233" lon="4.3176">
        <ele>496.8</ele>
        <time>2023-02-19T10:18:43Z</time>
      </trkpt>
      <trkpt lat="45.68233" lon="4.31758">
        <ele>496.7</ele>
        <time>2023-02-19T10:18:45Z</time>
      </trkpt>
      <trkpt lat="45.68233" lon="4.31756">
        <ele>496.5</ele>
        <time>2023-02-19T10:18:46Z</time>
      </trkpt>
      <trkpt lat="45.68233" lon="4.31755">
        <ele>496.3</ele>
        <time>2023-02-19T10:18:47Z</time>
      </trkpt>
      <trkpt lat="45.68233" lon="4.31753">
        <ele>496.2</ele>
        <time>2023-02-19T10:18:48Z</time>
      </trkpt>
      <trkpt lat="45.68233" lon="4.31751">
        <ele>495.9</ele>
        <time>2023-02-19T10:18:50Z</time>
      </trkpt>
      <trkpt lat="45.68233" lon="4.31748">
        <ele>495.7</ele>
        <time>2023-02-19T10:18:51Z</time>
      </trkpt>
      <trkpt lat="45.68233" lon="4.31744">
        <ele>495.2</ele>
        <time>2023-02-19T10:18:52Z</time>
      </trkpt>
      <trkpt lat="45.68233" lon="4.31743">
        <ele>495</ele>
        <time>2023-02-19T10:18:53Z</time>
      </trkpt>
      <trkpt lat="45.68234" lon="4.31738">
        <ele>494.6</ele>
        <time>2023-02-19T10:18:54Z</time>
      </trkpt>
      <trkpt lat="45.68234" lon="4.31737">
        <ele>494.4</ele>
        <time>2023-02-19T10:18:55Z</time>
      </trkpt>
      <trkpt lat="45.68234" lon="4.31732">
        <ele>494</ele>
        <time>2023-02-19T10:18:57Z</time>
      </trkpt>
      <trkpt lat="45.68234" lon="4.31731">
        <ele>493.8</ele>
        <time>2023-02-19T10:18:58Z</time>
      </trkpt>
      <trkpt lat="45.68234" lon="4.31727">
        <ele>493.4</ele>
        <time>2023-02-19T10:18:59Z</time>
      </trkpt>
      <trkpt lat="45.68233" lon="4.31726">
        <ele>493.2</ele>
        <time>2023-02-19T10:19:00Z</time>
      </trkpt>
      <trkpt lat="45.68233" lon="4.31721">
        <ele>492.7</ele>
        <time>2023-02-19T10:19:02Z</time>
      </trkpt>
      <trkpt lat="45.68233" lon="4.3172">
        <ele>492.6</ele>
        <time>2023-02-19T10:19:03Z</time>
      </trkpt>
      <trkpt lat="45.68232" lon="4.31716">
        <ele>492.2</ele>
        <time>2023-02-19T10:19:04Z</time>
      </trkpt>
      <trkpt lat="45.68231" lon="4.31715">
        <ele>492.1</ele>
        <time>2023-02-19T10:19:05Z</time>
      </trkpt>
      <trkpt lat="45.68231" lon="4.31712">
        <ele>491.8</ele>
        <time>2023-02-19T10:19:06Z</time>
      </trkpt>
      <trkpt lat="45.6823" lon="4.3171">
        <ele>491.6</ele>
        <time>2023-02-19T10:19:07Z</time>
      </trkpt>
      <trkpt lat="45.6823" lon="4.31708">
        <ele>491.4</ele>
        <time>2023-02-19T10:19:08Z</time>
      </trkpt>
      <trkpt lat="45.68229" lon="4.31705">
        <ele>491.1</ele>
        <time>2023-02-19T10:19:10Z</time>
      </trkpt>
      <trkpt lat="45.68228" lon="4.31701">
        <ele>490.7</ele>
        <time>2023-02-19T10:19:11Z</time>
      </trkpt>
      <trkpt lat="45.68228" lon="4.317">
        <ele>490.6</ele>
        <time>2023-02-19T10:19:12Z</time>
      </trkpt>
      <trkpt lat="45.68227" lon="4.31696">
        <ele>490.2</ele>
        <time>2023-02-19T10:19:13Z</time>
      </trkpt>
      <trkpt lat="45.68226" lon="4.31695">
        <ele>490</ele>
        <time>2023-02-19T10:19:14Z</time>
      </trkpt>
      <trkpt lat="45.68225" lon="4.31691">
        <ele>489.6</ele>
        <time>2023-02-19T10:19:16Z</time>
      </trkpt>
      <trkpt lat="45.68225" lon="4.3169">
        <ele>489.5</ele>
        <time>2023-02-19T10:19:17Z</time>
      </trkpt>
      <trkpt lat="45.68224" lon="4.31688">
        <ele>489.3</ele>
        <time>2023-02-19T10:19:18Z</time>
      </trkpt>
      <trkpt lat="45.68224" lon="4.31686">
        <ele>489</ele>
        <time>2023-02-19T10:19:19Z</time>
      </trkpt>
      <trkpt lat="45.68223" lon="4.31683">
        <ele>488.8</ele>
        <time>2023-02-19T10:19:20Z</time>
      </trkpt>
      <trkpt lat="45.68222" lon="4.31681">
        <ele>488.5</ele>
        <time>2023-02-19T10:19:21Z</time>
      </trkpt>
      <trkpt lat="45.68222" lon="4.31679">
        <ele>488.3</ele>
        <time>2023-02-19T10:19:22Z</time>
      </trkpt>
      <trkpt lat="45.68222" lon="4.31676">
        <ele>488.1</ele>
        <time>2023-02-19T10:19:23Z</time>
      </trkpt>
      <trkpt lat="45.68222" lon="4.31674">
        <ele>487.9</ele>
        <time>2023-02-19T10:19:24Z</time>
      </trkpt>
      <trkpt lat="45.68221" lon="4.31671">
        <ele>487.7</ele>
        <time>2023-02-19T10:19:25Z</time>
      </trkpt>
      <trkpt lat="45.68221" lon="4.31669">
        <ele>487.4</ele>
        <time>2023-02-19T10:19:26Z</time>
      </trkpt>
      <trkpt lat="45.68221" lon="4.31666">
        <ele>487.2</ele>
        <time>2023-02-19T10:19:27Z</time>
      </trkpt>
      <trkpt lat="45.68221" lon="4.31663">
        <ele>486.9</ele>
        <time>2023-02-19T10:19:29Z</time>
      </trkpt>
      <trkpt lat="45.68221" lon="4.31661">
        <ele>486.7</ele>
        <time>2023-02-19T10:19:30Z</time>
      </trkpt>
      <trkpt lat="45.68221" lon="4.3166">
        <ele>486.6</ele>
        <time>2023-02-19T10:19:31Z</time>
      </trkpt>
      <trkpt lat="45.68221" lon="4.31657">
        <ele>486.4</ele>
        <time>2023-02-19T10:19:32Z</time>
      </trkpt>
      <trkpt lat="45.68221" lon="4.31655">
        <ele>486.2</ele>
        <time>2023-02-19T10:19:33Z</time>
      </trkpt>
      <trkpt lat="45.6822" lon="4.31652">
        <ele>485.9</ele>
        <time>2023-02-19T10:19:34Z</time>
      </trkpt>
      <trkpt lat="45.6822" lon="4.3165">
        <ele>485.7</ele>
        <time>2023-02-19T10:19:35Z</time>
      </trkpt>
      <trkpt lat="45.68219" lon="4.31647">
        <ele>485.4</ele>
        <time>2023-02-19T10:19:37Z</time>
      </trkpt>
      <trkpt lat="45.68219" lon="4.31646">
        <ele>485.3</ele>
        <time>2023-02-19T10:19:38Z</time>
      </trkpt>
      <trkpt lat="45.68218" lon="4.31643">
        <ele>485</ele>
        <time>2023-02-19T10:19:39Z</time>
      </trkpt>
      <trkpt lat="45.68218" lon="4.31642">
        <ele>484.9</ele>
        <time>2023-02-19T10:19:41Z</time>
      </trkpt>
      <trkpt lat="45.68218" lon="4.31641">
        <ele>484.8</ele>
        <time>2023-02-19T10:19:42Z</time>
      </trkpt>
      <trkpt lat="45.68217" lon="4.3164">
        <ele>484.7</ele>
        <time>2023-02-19T10:19:43Z</time>
      </trkpt>
      <trkpt lat="45.68216" lon="4.31637">
        <ele>484.4</ele>
        <time>2023-02-19T10:19:45Z</time>
      </trkpt>
      <trkpt lat="45.68215" lon="4.31635">
        <ele>484.2</ele>
        <time>2023-02-19T10:19:46Z</time>
      </trkpt>
      <trkpt lat="45.68215" lon="4.31633">
        <ele>484</ele>
        <time>2023-02-19T10:19:47Z</time>
      </trkpt>
      <trkpt lat="45.68214" lon="4.31631">
        <ele>483.8</ele>
        <time>2023-02-19T10:19:48Z</time>
      </trkpt>
      <trkpt lat="45.68213" lon="4.3163">
        <ele>483.6</ele>
        <time>2023-02-19T10:19:49Z</time>
      </trkpt>
      <trkpt lat="45.68213" lon="4.31627">
        <ele>483.3</ele>
        <time>2023-02-19T10:19:50Z</time>
      </trkpt>
      <trkpt lat="45.68212" lon="4.31626">
        <ele>483.2</ele>
        <time>2023-02-19T10:19:51Z</time>
      </trkpt>
      <trkpt lat="45.68212" lon="4.31624">
        <ele>483</ele>
        <time>2023-02-19T10:19:52Z</time>
      </trkpt>
      <trkpt lat="45.68211" lon="4.31619">
        <ele>482.6</ele>
        <time>2023-02-19T10:19:54Z</time>
      </trkpt>
      <trkpt lat="45.68211" lon="4.31618">
        <ele>482.5</ele>
        <time>2023-02-19T10:19:55Z</time>
      </trkpt>
      <trkpt lat="45.6821" lon="4.31615">
        <ele>482.2</ele>
        <time>2023-02-19T10:19:56Z</time>
      </trkpt>
      <trkpt lat="45.6821" lon="4.31614">
        <ele>482.1</ele>
        <time>2023-02-19T10:19:57Z</time>
      </trkpt>
      <trkpt lat="45.68209" lon="4.31613">
        <ele>482</ele>
        <time>2023-02-19T10:19:58Z</time>
      </trkpt>
      <trkpt lat="45.68209" lon="4.3161">
        <ele>481.7</ele>
        <time>2023-02-19T10:20:00Z</time>
      </trkpt>
      <trkpt lat="45.68209" lon="4.31609">
        <ele>481.6</ele>
        <time>2023-02-19T10:20:01Z</time>
      </trkpt>
      <trkpt lat="45.68209" lon="4.31608">
        <ele>481.6</ele>
        <time>2023-02-19T10:20:02Z</time>
      </trkpt>
      <trkpt lat="45.68209" lon="4.31606">
        <ele>481.4</ele>
        <time>2023-02-19T10:20:03Z</time>
      </trkpt>
      <trkpt lat="45.68209" lon="4.31604">
        <ele>481.2</ele>
        <time>2023-02-19T10:20:04Z</time>
      </trkpt>
      <trkpt lat="45.68208" lon="4.316">
        <ele>481</ele>
        <time>2023-02-19T10:20:05Z</time>
      </trkpt>
      <trkpt lat="45.68208" lon="4.31599">
        <ele>480.9</ele>
        <time>2023-02-19T10:20:06Z</time>
      </trkpt>
      <trkpt lat="45.68208" lon="4.31597">
        <ele>480.8</ele>
        <time>2023-02-19T10:20:07Z</time>
      </trkpt>
      <trkpt lat="45.68208" lon="4.31595">
        <ele>480.6</ele>
        <time>2023-02-19T10:20:08Z</time>
      </trkpt>
      <trkpt lat="45.68208" lon="4.31592">
        <ele>480.5</ele>
        <time>2023-02-19T10:20:10Z</time>
      </trkpt>
      <trkpt lat="45.68207" lon="4.3159">
        <ele>480.4</ele>
        <time>2023-02-19T10:20:11Z</time>
      </trkpt>
      <trkpt lat="45.68207" lon="4.31588">
        <ele>480.3</ele>
        <time>2023-02-19T10:20:12Z</time>
      </trkpt>
      <trkpt lat="45.68206" lon="4.31584">
        <ele>480</ele>
        <time>2023-02-19T10:20:14Z</time>
      </trkpt>
      <trkpt lat="45.68206" lon="4.31583">
        <ele>480</ele>
        <time>2023-02-19T10:20:15Z</time>
      </trkpt>
      <trkpt lat="45.68206" lon="4.3158">
        <ele>479.9</ele>
        <time>2023-02-19T10:20:16Z</time>
      </trkpt>
      <trkpt lat="45.68206" lon="4.31578">
        <ele>479.8</ele>
        <time>2023-02-19T10:20:17Z</time>
      </trkpt>
      <trkpt lat="45.68205" lon="4.31576">
        <ele>479.7</ele>
        <time>2023-02-19T10:20:18Z</time>
      </trkpt>
      <trkpt lat="45.68204" lon="4.31573">
        <ele>479.5</ele>
        <time>2023-02-19T10:20:20Z</time>
      </trkpt>
      <trkpt lat="45.68204" lon="4.31571">
        <ele>479.4</ele>
        <time>2023-02-19T10:20:21Z</time>
      </trkpt>
      <trkpt lat="45.68203" lon="4.31569">
        <ele>479.3</ele>
        <time>2023-02-19T10:20:22Z</time>
      </trkpt>
      <trkpt lat="45.68203" lon="4.31566">
        <ele>479.2</ele>
        <time>2023-02-19T10:20:23Z</time>
      </trkpt>
      <trkpt lat="45.68202" lon="4.31565">
        <ele>479.2</ele>
        <time>2023-02-19T10:20:24Z</time>
      </trkpt>
      <trkpt lat="45.68202" lon="4.31563">
        <ele>479.1</ele>
        <time>2023-02-19T10:20:25Z</time>
      </trkpt>
      <trkpt lat="45.68202" lon="4.31561">
        <ele>479</ele>
        <time>2023-02-19T10:20:27Z</time>
      </trkpt>
      <trkpt lat="45.68202" lon="4.31559">
        <ele>478.9</ele>
        <time>2023-02-19T10:20:28Z</time>
      </trkpt>
      <trkpt lat="45.68201" lon="4.31556">
        <ele>478.8</ele>
        <time>2023-02-19T10:20:29Z</time>
      </trkpt>
      <trkpt lat="45.68201" lon="4.31555">
        <ele>478.8</ele>
        <time>2023-02-19T10:20:30Z</time>
      </trkpt>
      <trkpt lat="45.68201" lon="4.31554">
        <ele>478.7</ele>
        <time>2023-02-19T10:20:31Z</time>
      </trkpt>
      <trkpt lat="45.682" lon="4.31551">
        <ele>478.6</ele>
        <time>2023-02-19T10:20:32Z</time>
      </trkpt>
      <trkpt lat="45.682" lon="4.31549">
        <ele>478.5</ele>
        <time>2023-02-19T10:20:33Z</time>
      </trkpt>
      <trkpt lat="45.682" lon="4.31545">
        <ele>478.4</ele>
        <time>2023-02-19T10:20:35Z</time>
      </trkpt>
      <trkpt lat="45.68199" lon="4.31544">
        <ele>478.3</ele>
        <time>2023-02-19T10:20:36Z</time>
      </trkpt>
      <trkpt lat="45.68199" lon="4.31541">
        <ele>478.2</ele>
        <time>2023-02-19T10:20:37Z</time>
      </trkpt>
      <trkpt lat="45.68199" lon="4.31539">
        <ele>478.2</ele>
        <time>2023-02-19T10:20:38Z</time>
      </trkpt>
      <trkpt lat="45.68198" lon="4.31534">
        <ele>478</ele>
        <time>2023-02-19T10:20:40Z</time>
      </trkpt>
      <trkpt lat="45.68198" lon="4.31533">
        <ele>478</ele>
        <time>2023-02-19T10:20:41Z</time>
      </trkpt>
      <trkpt lat="45.68197" lon="4.31529">
        <ele>477.8</ele>
        <time>2023-02-19T10:20:42Z</time>
      </trkpt>
      <trkpt lat="45.68197" lon="4.31528">
        <ele>477.8</ele>
        <time>2023-02-19T10:20:43Z</time>
      </trkpt>
      <trkpt lat="45.68197" lon="4.31523">
        <ele>477.7</ele>
        <time>2023-02-19T10:20:44Z</time>
      </trkpt>
      <trkpt lat="45.68197" lon="4.31522">
        <ele>477.6</ele>
        <time>2023-02-19T10:20:45Z</time>
      </trkpt>
      <trkpt lat="45.68197" lon="4.31518">
        <ele>477.5</ele>
        <time>2023-02-19T10:20:47Z</time>
      </trkpt>
      <trkpt lat="45.68197" lon="4.31517">
        <ele>477.5</ele>
        <time>2023-02-19T10:20:48Z</time>
      </trkpt>
      <trkpt lat="45.68197" lon="4.31515">
        <ele>477.4</ele>
        <time>2023-02-19T10:20:49Z</time>
      </trkpt>
      <trkpt lat="45.68197" lon="4.31514">
        <ele>477.4</ele>
        <time>2023-02-19T10:20:50Z</time>
      </trkpt>
      <trkpt lat="45.68197" lon="4.31512">
        <ele>477.3</ele>
        <time>2023-02-19T10:20:51Z</time>
      </trkpt>
      <trkpt lat="45.68197" lon="4.31507">
        <ele>477.2</ele>
        <time>2023-02-19T10:20:53Z</time>
      </trkpt>
      <trkpt lat="45.68197" lon="4.31506">
        <ele>477.2</ele>
        <time>2023-02-19T10:20:54Z</time>
      </trkpt>
      <trkpt lat="45.68197" lon="4.31504">
        <ele>477.2</ele>
        <time>2023-02-19T10:20:55Z</time>
      </trkpt>
      <trkpt lat="45.68197" lon="4.31501">
        <ele>477.1</ele>
        <time>2023-02-19T10:20:56Z</time>
      </trkpt>
      <trkpt lat="45.68197" lon="4.31499">
        <ele>477</ele>
        <time>2023-02-19T10:20:58Z</time>
      </trkpt>
      <trkpt lat="45.68197" lon="4.31497">
        <ele>477</ele>
        <time>2023-02-19T10:20:59Z</time>
      </trkpt>
      <trkpt lat="45.68198" lon="4.31494">
        <ele>476.9</ele>
        <time>2023-02-19T10:21:00Z</time>
      </trkpt>
      <trkpt lat="45.68198" lon="4.31492">
        <ele>476.9</ele>
        <time>2023-02-19T10:21:01Z</time>
      </trkpt>
      <trkpt lat="45.68198" lon="4.3149">
        <ele>476.8</ele>
        <time>2023-02-19T10:21:02Z</time>
      </trkpt>
      <trkpt lat="45.68198" lon="4.31488">
        <ele>476.8</ele>
        <time>2023-02-19T10:21:03Z</time>
      </trkpt>
      <trkpt lat="45.68199" lon="4.31486">
        <ele>476.7</ele>
        <time>2023-02-19T10:21:04Z</time>
      </trkpt>
      <trkpt lat="45.68199" lon="4.31483">
        <ele>476.7</ele>
        <time>2023-02-19T10:21:06Z</time>
      </trkpt>
      <trkpt lat="45.68199" lon="4.31481">
        <ele>476.6</ele>
        <time>2023-02-19T10:21:07Z</time>
      </trkpt>
      <trkpt lat="45.68199" lon="4.31479">
        <ele>476.6</ele>
        <time>2023-02-19T10:21:08Z</time>
      </trkpt>
      <trkpt lat="45.68198" lon="4.31477">
        <ele>476.5</ele>
        <time>2023-02-19T10:21:09Z</time>
      </trkpt>
      <trkpt lat="45.68198" lon="4.31475">
        <ele>476.5</ele>
        <time>2023-02-19T10:21:10Z</time>
      </trkpt>
      <trkpt lat="45.68198" lon="4.31473">
        <ele>476.4</ele>
        <time>2023-02-19T10:21:11Z</time>
      </trkpt>
      <trkpt lat="45.68198" lon="4.31471">
        <ele>476.4</ele>
        <time>2023-02-19T10:21:12Z</time>
      </trkpt>
      <trkpt lat="45.68198" lon="4.31469">
        <ele>476.3</ele>
        <time>2023-02-19T10:21:14Z</time>
      </trkpt>
      <trkpt lat="45.68198" lon="4.31467">
        <ele>476.3</ele>
        <time>2023-02-19T10:21:15Z</time>
      </trkpt>
      <trkpt lat="45.68199" lon="4.31465">
        <ele>476.2</ele>
        <time>2023-02-19T10:21:16Z</time>
      </trkpt>
      <trkpt lat="45.68199" lon="4.31463">
        <ele>476.2</ele>
        <time>2023-02-19T10:21:17Z</time>
      </trkpt>
      <trkpt lat="45.68199" lon="4.31461">
        <ele>476.1</ele>
        <time>2023-02-19T10:21:18Z</time>
      </trkpt>
      <trkpt lat="45.682" lon="4.31458">
        <ele>476.1</ele>
        <time>2023-02-19T10:21:19Z</time>
      </trkpt>
      <trkpt lat="45.682" lon="4.31456">
        <ele>476</ele>
        <time>2023-02-19T10:21:20Z</time>
      </trkpt>
      <trkpt lat="45.682" lon="4.31452">
        <ele>475.9</ele>
        <time>2023-02-19T10:21:22Z</time>
      </trkpt>
      <trkpt lat="45.682" lon="4.3145">
        <ele>475.8</ele>
        <time>2023-02-19T10:21:23Z</time>
      </trkpt>
      <trkpt lat="45.682" lon="4.31448">
        <ele>475.8</ele>
        <time>2023-02-19T10:21:24Z</time>
      </trkpt>
      <trkpt lat="45.682" lon="4.31446">
        <ele>475.7</ele>
        <time>2023-02-19T10:21:25Z</time>
      </trkpt>
      <trkpt lat="45.682" lon="4.31443">
        <ele>475.6</ele>
        <time>2023-02-19T10:21:26Z</time>
      </trkpt>
      <trkpt lat="45.68198" lon="4.31439">
        <ele>475.5</ele>
        <time>2023-02-19T10:21:28Z</time>
      </trkpt>
      <trkpt lat="45.68198" lon="4.31437">
        <ele>475.4</ele>
        <time>2023-02-19T10:21:29Z</time>
      </trkpt>
      <trkpt lat="45.68196" lon="4.31435">
        <ele>475.3</ele>
        <time>2023-02-19T10:21:30Z</time>
      </trkpt>
      <trkpt lat="45.68195" lon="4.31434">
        <ele>475.3</ele>
        <time>2023-02-19T10:21:31Z</time>
      </trkpt>
      <trkpt lat="45.68193" lon="4.31431">
        <ele>475.1</ele>
        <time>2023-02-19T10:21:32Z</time>
      </trkpt>
      <trkpt lat="45.68192" lon="4.3143">
        <ele>475.1</ele>
        <time>2023-02-19T10:21:33Z</time>
      </trkpt>
      <trkpt lat="45.68191" lon="4.31428">
        <ele>475</ele>
        <time>2023-02-19T10:21:34Z</time>
      </trkpt>
      <trkpt lat="45.68191" lon="4.31426">
        <ele>474.9</ele>
        <time>2023-02-19T10:21:36Z</time>
      </trkpt>
      <trkpt lat="45.6819" lon="4.31423">
        <ele>474.8</ele>
        <time>2023-02-19T10:21:37Z</time>
      </trkpt>
      <trkpt lat="45.68189" lon="4.31421">
        <ele>474.7</ele>
        <time>2023-02-19T10:21:38Z</time>
      </trkpt>
      <trkpt lat="45.68189" lon="4.31418">
        <ele>474.6</ele>
        <time>2023-02-19T10:21:39Z</time>
      </trkpt>
      <trkpt lat="45.68188" lon="4.31416">
        <ele>474.5</ele>
        <time>2023-02-19T10:21:41Z</time>
      </trkpt>
      <trkpt lat="45.68186" lon="4.31415">
        <ele>474.4</ele>
        <time>2023-02-19T10:21:42Z</time>
      </trkpt>
      <trkpt lat="45.68186" lon="4.31413">
        <ele>474.3</ele>
        <time>2023-02-19T10:21:43Z</time>
      </trkpt>
      <trkpt lat="45.68185" lon="4.31412">
        <ele>474.3</ele>
        <time>2023-02-19T10:21:44Z</time>
      </trkpt>
      <trkpt lat="45.68184" lon="4.31409">
        <ele>474.2</ele>
        <time>2023-02-19T10:21:46Z</time>
      </trkpt>
      <trkpt lat="45.68183" lon="4.31408">
        <ele>474.1</ele>
        <time>2023-02-19T10:21:47Z</time>
      </trkpt>
      <trkpt lat="45.68182" lon="4.31406">
        <ele>474</ele>
        <time>2023-02-19T10:21:48Z</time>
      </trkpt>
      <trkpt lat="45.68181" lon="4.31405">
        <ele>473.9</ele>
        <time>2023-02-19T10:21:49Z</time>
      </trkpt>
      <trkpt lat="45.6818" lon="4.31403">
        <ele>473.9</ele>
        <time>2023-02-19T10:21:50Z</time>
      </trkpt>
      <trkpt lat="45.68179" lon="4.31401">
        <ele>473.7</ele>
        <time>2023-02-19T10:21:52Z</time>
      </trkpt>
      <trkpt lat="45.68177" lon="4.314">
        <ele>473.7</ele>
        <time>2023-02-19T10:21:53Z</time>
      </trkpt>
      <trkpt lat="45.68176" lon="4.31397">
        <ele>473.6</ele>
        <time>2023-02-19T10:21:54Z</time>
      </trkpt>
      <trkpt lat="45.68174" lon="4.31394">
        <ele>473.5</ele>
        <time>2023-02-19T10:21:56Z</time>
      </trkpt>
      <trkpt lat="45.68173" lon="4.31393">
        <ele>473.5</ele>
        <time>2023-02-19T10:21:57Z</time>
      </trkpt>
      <trkpt lat="45.68172" lon="4.31391">
        <ele>473.4</ele>
        <time>2023-02-19T10:21:58Z</time>
      </trkpt>
      <trkpt lat="45.68171" lon="4.3139">
        <ele>473.4</ele>
        <time>2023-02-19T10:21:59Z</time>
      </trkpt>
      <trkpt lat="45.68169" lon="4.31387">
        <ele>473.3</ele>
        <time>2023-02-19T10:22:01Z</time>
      </trkpt>
      <trkpt lat="45.68166" lon="4.31385">
        <ele>473.2</ele>
        <time>2023-02-19T10:22:02Z</time>
      </trkpt>
      <trkpt lat="45.68166" lon="4.31384">
        <ele>473.2</ele>
        <time>2023-02-19T10:22:03Z</time>
      </trkpt>
      <trkpt lat="45.68165" lon="4.31383">
        <ele>473.1</ele>
        <time>2023-02-19T10:22:04Z</time>
      </trkpt>
      <trkpt lat="45.68164" lon="4.31381">
        <ele>473.1</ele>
        <time>2023-02-19T10:22:05Z</time>
      </trkpt>
      <trkpt lat="45.68163" lon="4.3138">
        <ele>473</ele>
        <time>2023-02-19T10:22:06Z</time>
      </trkpt>
      <trkpt lat="45.68162" lon="4.31379">
        <ele>473</ele>
        <time>2023-02-19T10:22:07Z</time>
      </trkpt>
      <trkpt lat="45.68161" lon="4.31377">
        <ele>472.9</ele>
        <time>2023-02-19T10:22:09Z</time>
      </trkpt>
      <trkpt lat="45.6816" lon="4.31376">
        <ele>472.9</ele>
        <time>2023-02-19T10:22:10Z</time>
      </trkpt>
      <trkpt lat="45.68159" lon="4.31374">
        <ele>472.9</ele>
        <time>2023-02-19T10:22:11Z</time>
      </trkpt>
      <trkpt lat="45.68156" lon="4.31371">
        <ele>472.8</ele>
        <time>2023-02-19T10:22:13Z</time>
      </trkpt>
      <trkpt lat="45.68155" lon="4.3137">
        <ele>472.7</ele>
        <time>2023-02-19T10:22:14Z</time>
      </trkpt>
      <trkpt lat="45.68154" lon="4.31369">
        <ele>472.7</ele>
        <time>2023-02-19T10:22:15Z</time>
      </trkpt>
      <trkpt lat="45.68153" lon="4.31367">
        <ele>472.6</ele>
        <time>2023-02-19T10:22:16Z</time>
      </trkpt>
      <trkpt lat="45.68152" lon="4.31366">
        <ele>472.6</ele>
        <time>2023-02-19T10:22:17Z</time>
      </trkpt>
      <trkpt lat="45.6815" lon="4.31363">
        <ele>472.5</ele>
        <time>2023-02-19T10:22:19Z</time>
      </trkpt>
      <trkpt lat="45.68149" lon="4.31362">
        <ele>472.5</ele>
        <time>2023-02-19T10:22:20Z</time>
      </trkpt>
      <trkpt lat="45.68148" lon="4.3136">
        <ele>472.4</ele>
        <time>2023-02-19T10:22:21Z</time>
      </trkpt>
      <trkpt lat="45.68146" lon="4.31358">
        <ele>472.4</ele>
        <time>2023-02-19T10:22:22Z</time>
      </trkpt>
      <trkpt lat="45.68146" lon="4.31357">
        <ele>472.3</ele>
        <time>2023-02-19T10:22:23Z</time>
      </trkpt>
      <trkpt lat="45.68145" lon="4.31356">
        <ele>472.3</ele>
        <time>2023-02-19T10:22:24Z</time>
      </trkpt>
      <trkpt lat="45.68144" lon="4.31355">
        <ele>472.3</ele>
        <time>2023-02-19T10:22:25Z</time>
      </trkpt>
      <trkpt lat="45.68143" lon="4.31353">
        <ele>472.2</ele>
        <time>2023-02-19T10:22:26Z</time>
      </trkpt>
      <trkpt lat="45.68141" lon="4.31351">
        <ele>472.1</ele>
        <time>2023-02-19T10:22:28Z</time>
      </trkpt>
      <trkpt lat="45.6814" lon="4.3135">
        <ele>472.1</ele>
        <time>2023-02-19T10:22:29Z</time>
      </trkpt>
      <trkpt lat="45.68139" lon="4.31349">
        <ele>472</ele>
        <time>2023-02-19T10:22:30Z</time>
      </trkpt>
      <trkpt lat="45.68138" lon="4.31348">
        <ele>472</ele>
        <time>2023-02-19T10:22:31Z</time>
      </trkpt>
      <trkpt lat="45.68136" lon="4.31347">
        <ele>471.9</ele>
        <time>2023-02-19T10:22:32Z</time>
      </trkpt>
      <trkpt lat="45.68135" lon="4.31346">
        <ele>471.8</ele>
        <time>2023-02-19T10:22:33Z</time>
      </trkpt>
      <trkpt lat="45.68134" lon="4.31346">
        <ele>471.8</ele>
        <time>2023-02-19T10:22:34Z</time>
      </trkpt>
      <trkpt lat="45.68132" lon="4.31344">
        <ele>471.7</ele>
        <time>2023-02-19T10:22:36Z</time>
      </trkpt>
      <trkpt lat="45.68132" lon="4.31343">
        <ele>471.6</ele>
        <time>2023-02-19T10:22:37Z</time>
      </trkpt>
      <trkpt lat="45.68131" lon="4.31342">
        <ele>471.6</ele>
        <time>2023-02-19T10:22:38Z</time>
      </trkpt>
      <trkpt lat="45.6813" lon="4.31341">
        <ele>471.5</ele>
        <time>2023-02-19T10:22:39Z</time>
      </trkpt>
      <trkpt lat="45.6813" lon="4.31339">
        <ele>471.4</ele>
        <time>2023-02-19T10:22:40Z</time>
      </trkpt>
      <trkpt lat="45.68128" lon="4.31334">
        <ele>471.2</ele>
        <time>2023-02-19T10:22:42Z</time>
      </trkpt>
      <trkpt lat="45.68128" lon="4.31333">
        <ele>471.1</ele>
        <time>2023-02-19T10:22:43Z</time>
      </trkpt>
      <trkpt lat="45.68127" lon="4.31329">
        <ele>470.9</ele>
        <time>2023-02-19T10:22:44Z</time>
      </trkpt>
      <trkpt lat="45.68127" lon="4.31327">
        <ele>470.9</ele>
        <time>2023-02-19T10:22:45Z</time>
      </trkpt>
      <trkpt lat="45.68127" lon="4.31325">
        <ele>470.7</ele>
        <time>2023-02-19T10:22:46Z</time>
      </trkpt>
      <trkpt lat="45.68126" lon="4.31322">
        <ele>470.6</ele>
        <time>2023-02-19T10:22:48Z</time>
      </trkpt>
      <trkpt lat="45.68126" lon="4.3132">
        <ele>470.5</ele>
        <time>2023-02-19T10:22:49Z</time>
      </trkpt>
      <trkpt lat="45.68125" lon="4.31318">
        <ele>470.4</ele>
        <time>2023-02-19T10:22:50Z</time>
      </trkpt>
      <trkpt lat="45.68125" lon="4.31314">
        <ele>470.2</ele>
        <time>2023-02-19T10:22:51Z</time>
      </trkpt>
      <trkpt lat="45.68125" lon="4.31312">
        <ele>470.1</ele>
        <time>2023-02-19T10:22:52Z</time>
      </trkpt>
      <trkpt lat="45.68125" lon="4.31308">
        <ele>469.9</ele>
        <time>2023-02-19T10:22:54Z</time>
      </trkpt>
      <trkpt lat="45.68125" lon="4.31306">
        <ele>469.7</ele>
        <time>2023-02-19T10:22:55Z</time>
      </trkpt>
      <trkpt lat="45.68125" lon="4.31303">
        <ele>469.6</ele>
        <time>2023-02-19T10:22:56Z</time>
      </trkpt>
      <trkpt lat="45.68125" lon="4.31301">
        <ele>469.5</ele>
        <time>2023-02-19T10:22:57Z</time>
      </trkpt>
      <trkpt lat="45.68125" lon="4.31298">
        <ele>469.4</ele>
        <time>2023-02-19T10:22:58Z</time>
      </trkpt>
      <trkpt lat="45.68125" lon="4.31294">
        <ele>469.2</ele>
        <time>2023-02-19T10:23:00Z</time>
      </trkpt>
      <trkpt lat="45.68125" lon="4.31292">
        <ele>469.1</ele>
        <time>2023-02-19T10:23:01Z</time>
      </trkpt>
      <trkpt lat="45.68124" lon="4.31289">
        <ele>469</ele>
        <time>2023-02-19T10:23:02Z</time>
      </trkpt>
      <trkpt lat="45.68123" lon="4.31283">
        <ele>468.7</ele>
        <time>2023-02-19T10:23:04Z</time>
      </trkpt>
      <trkpt lat="45.68123" lon="4.31282">
        <ele>468.7</ele>
        <time>2023-02-19T10:23:05Z</time>
      </trkpt>
      <trkpt lat="45.68122" lon="4.3128">
        <ele>468.6</ele>
        <time>2023-02-19T10:23:06Z</time>
      </trkpt>
      <trkpt lat="45.68121" lon="4.31277">
        <ele>468.5</ele>
        <time>2023-02-19T10:23:07Z</time>
      </trkpt>
      <trkpt lat="45.6812" lon="4.31276">
        <ele>468.4</ele>
        <time>2023-02-19T10:23:08Z</time>
      </trkpt>
      <trkpt lat="45.68118" lon="4.31271">
        <ele>468.2</ele>
        <time>2023-02-19T10:23:10Z</time>
      </trkpt>
      <trkpt lat="45.68117" lon="4.3127">
        <ele>468.2</ele>
        <time>2023-02-19T10:23:11Z</time>
      </trkpt>
      <trkpt lat="45.68116" lon="4.31269">
        <ele>468.1</ele>
        <time>2023-02-19T10:23:12Z</time>
      </trkpt>
      <trkpt lat="45.68114" lon="4.31268">
        <ele>468.1</ele>
        <time>2023-02-19T10:23:13Z</time>
      </trkpt>
      <trkpt lat="45.68112" lon="4.31266">
        <ele>468</ele>
        <time>2023-02-19T10:23:15Z</time>
      </trkpt>
      <trkpt lat="45.68111" lon="4.31265">
        <ele>467.9</ele>
        <time>2023-02-19T10:23:16Z</time>
      </trkpt>
      <trkpt lat="45.6811" lon="4.31264">
        <ele>467.9</ele>
        <time>2023-02-19T10:23:17Z</time>
      </trkpt>
      <trkpt lat="45.68109" lon="4.31261">
        <ele>467.8</ele>
        <time>2023-02-19T10:23:18Z</time>
      </trkpt>
      <trkpt lat="45.68108" lon="4.3126">
        <ele>467.7</ele>
        <time>2023-02-19T10:23:19Z</time>
      </trkpt>
      <trkpt lat="45.68108" lon="4.31258">
        <ele>467.7</ele>
        <time>2023-02-19T10:23:20Z</time>
      </trkpt>
      <trkpt lat="45.68108" lon="4.31256">
        <ele>467.7</ele>
        <time>2023-02-19T10:23:21Z</time>
      </trkpt>
      <trkpt lat="45.68107" lon="4.31254">
        <ele>467.6</ele>
        <time>2023-02-19T10:23:23Z</time>
      </trkpt>
      <trkpt lat="45.68106" lon="4.31252">
        <ele>467.5</ele>
        <time>2023-02-19T10:23:24Z</time>
      </trkpt>
      <trkpt lat="45.68105" lon="4.3125">
        <ele>467.5</ele>
        <time>2023-02-19T10:23:25Z</time>
      </trkpt>
      <trkpt lat="45.68104" lon="4.31249">
        <ele>467.5</ele>
        <time>2023-02-19T10:23:26Z</time>
      </trkpt>
      <trkpt lat="45.68103" lon="4.31247">
        <ele>467.4</ele>
        <time>2023-02-19T10:23:27Z</time>
      </trkpt>
      <trkpt lat="45.68102" lon="4.31245">
        <ele>467.4</ele>
        <time>2023-02-19T10:23:29Z</time>
      </trkpt>
      <trkpt lat="45.68101" lon="4.31244">
        <ele>467.3</ele>
        <time>2023-02-19T10:23:30Z</time>
      </trkpt>
      <trkpt lat="45.681" lon="4.31242">
        <ele>467.3</ele>
        <time>2023-02-19T10:23:31Z</time>
      </trkpt>
      <trkpt lat="45.68099" lon="4.31241">
        <ele>467.3</ele>
        <time>2023-02-19T10:23:32Z</time>
      </trkpt>
      <trkpt lat="45.68098" lon="4.3124">
        <ele>467.3</ele>
        <time>2023-02-19T10:23:33Z</time>
      </trkpt>
      <trkpt lat="45.68096" lon="4.31238">
        <ele>467.2</ele>
        <time>2023-02-19T10:23:35Z</time>
      </trkpt>
      <trkpt lat="45.68095" lon="4.31237">
        <ele>467.2</ele>
        <time>2023-02-19T10:23:36Z</time>
      </trkpt>
      <trkpt lat="45.68093" lon="4.31237">
        <ele>467.2</ele>
        <time>2023-02-19T10:23:37Z</time>
      </trkpt>
      <trkpt lat="45.68091" lon="4.31235">
        <ele>467.2</ele>
        <time>2023-02-19T10:23:39Z</time>
      </trkpt>
      <trkpt lat="45.6809" lon="4.31234">
        <ele>467.1</ele>
        <time>2023-02-19T10:23:40Z</time>
      </trkpt>
      <trkpt lat="45.68089" lon="4.31233">
        <ele>467.1</ele>
        <time>2023-02-19T10:23:41Z</time>
      </trkpt>
      <trkpt lat="45.68088" lon="4.31231">
        <ele>467.1</ele>
        <time>2023-02-19T10:23:42Z</time>
      </trkpt>
      <trkpt lat="45.68087" lon="4.31228">
        <ele>467.1</ele>
        <time>2023-02-19T10:23:44Z</time>
      </trkpt>
      <trkpt lat="45.68087" lon="4.31226">
        <ele>467</ele>
        <time>2023-02-19T10:23:45Z</time>
      </trkpt>
      <trkpt lat="45.68086" lon="4.31224">
        <ele>467</ele>
        <time>2023-02-19T10:23:46Z</time>
      </trkpt>
      <trkpt lat="45.68085" lon="4.31222">
        <ele>467</ele>
        <time>2023-02-19T10:23:47Z</time>
      </trkpt>
      <trkpt lat="45.68084" lon="4.3122">
        <ele>467</ele>
        <time>2023-02-19T10:23:48Z</time>
      </trkpt>
      <trkpt lat="45.68083" lon="4.31218">
        <ele>467</ele>
        <time>2023-02-19T10:23:49Z</time>
      </trkpt>
      <trkpt lat="45.68082" lon="4.31216">
        <ele>466.9</ele>
        <time>2023-02-19T10:23:50Z</time>
      </trkpt>
      <trkpt lat="45.68081" lon="4.31214">
        <ele>466.9</ele>
        <time>2023-02-19T10:23:52Z</time>
      </trkpt>
      <trkpt lat="45.6808" lon="4.31212">
        <ele>466.9</ele>
        <time>2023-02-19T10:23:53Z</time>
      </trkpt>
      <trkpt lat="45.68079" lon="4.31211">
        <ele>466.9</ele>
        <time>2023-02-19T10:23:54Z</time>
      </trkpt>
      <trkpt lat="45.68077" lon="4.31209">
        <ele>466.8</ele>
        <time>2023-02-19T10:23:55Z</time>
      </trkpt>
      <trkpt lat="45.68076" lon="4.31208">
        <ele>466.8</ele>
        <time>2023-02-19T10:23:56Z</time>
      </trkpt>
      <trkpt lat="45.68074" lon="4.31206">
        <ele>466.8</ele>
        <time>2023-02-19T10:23:58Z</time>
      </trkpt>
      <trkpt lat="45.68072" lon="4.31205">
        <ele>466.8</ele>
        <time>2023-02-19T10:23:59Z</time>
      </trkpt>
      <trkpt lat="45.68071" lon="4.31204">
        <ele>466.7</ele>
        <time>2023-02-19T10:24:00Z</time>
      </trkpt>
      <trkpt lat="45.6807" lon="4.31202">
        <ele>466.7</ele>
        <time>2023-02-19T10:24:01Z</time>
      </trkpt>
      <trkpt lat="45.68068" lon="4.31201">
        <ele>466.7</ele>
        <time>2023-02-19T10:24:02Z</time>
      </trkpt>
      <trkpt lat="45.68067" lon="4.31199">
        <ele>466.7</ele>
        <time>2023-02-19T10:24:03Z</time>
      </trkpt>
      <trkpt lat="45.68065" lon="4.31197">
        <ele>466.7</ele>
        <time>2023-02-19T10:24:05Z</time>
      </trkpt>
      <trkpt lat="45.68064" lon="4.31195">
        <ele>466.7</ele>
        <time>2023-02-19T10:24:06Z</time>
      </trkpt>
      <trkpt lat="45.68063" lon="4.31194">
        <ele>466.6</ele>
        <time>2023-02-19T10:24:07Z</time>
      </trkpt>
      <trkpt lat="45.68062" lon="4.31192">
        <ele>466.6</ele>
        <time>2023-02-19T10:24:08Z</time>
      </trkpt>
      <trkpt lat="45.68061" lon="4.31191">
        <ele>466.6</ele>
        <time>2023-02-19T10:24:09Z</time>
      </trkpt>
      <trkpt lat="45.68059" lon="4.31189">
        <ele>466.6</ele>
        <time>2023-02-19T10:24:10Z</time>
      </trkpt>
      <trkpt lat="45.68059" lon="4.31188">
        <ele>466.6</ele>
        <time>2023-02-19T10:24:11Z</time>
      </trkpt>
      <trkpt lat="45.68058" lon="4.31187">
        <ele>466.6</ele>
        <time>2023-02-19T10:24:12Z</time>
      </trkpt>
      <trkpt lat="45.68056" lon="4.31186">
        <ele>466.6</ele>
        <time>2023-02-19T10:24:13Z</time>
      </trkpt>
      <trkpt lat="45.68055" lon="4.31185">
        <ele>466.6</ele>
        <time>2023-02-19T10:24:14Z</time>
      </trkpt>
      <trkpt lat="45.68055" lon="4.31184">
        <ele>466.6</ele>
        <time>2023-02-19T10:24:15Z</time>
      </trkpt>
      <trkpt lat="45.68054" lon="4.31183">
        <ele>466.6</ele>
        <time>2023-02-19T10:24:17Z</time>
      </trkpt>
      <trkpt lat="45.68053" lon="4.31182">
        <ele>466.6</ele>
        <time>2023-02-19T10:24:18Z</time>
      </trkpt>
      <trkpt lat="45.68052" lon="4.31181">
        <ele>466.6</ele>
        <time>2023-02-19T10:24:19Z</time>
      </trkpt>
      <trkpt lat="45.6805" lon="4.31179">
        <ele>466.6</ele>
        <time>2023-02-19T10:24:20Z</time>
      </trkpt>
      <trkpt lat="45.6805" lon="4.31179">
        <ele>466.6</ele>
        <time>2023-02-19T10:24:21Z</time>
      </trkpt>
      <trkpt lat="45.68049" lon="4.31178">
        <ele>466.6</ele>
        <time>2023-02-19T10:24:22Z</time>
      </trkpt>
      <trkpt lat="45.68047" lon="4.31177">
        <ele>466.6</ele>
        <time>2023-02-19T10:24:23Z</time>
      </trkpt>
      <trkpt lat="45.68046" lon="4.31176">
        <ele>466.6</ele>
        <time>2023-02-19T10:24:24Z</time>
      </trkpt>
      <trkpt lat="45.68045" lon="4.31176">
        <ele>466.6</ele>
        <time>2023-02-19T10:24:25Z</time>
      </trkpt>
      <trkpt lat="45.68044" lon="4.31175">
        <ele>466.6</ele>
        <time>2023-02-19T10:24:27Z</time>
      </trkpt>
      <trkpt lat="45.68043" lon="4.31174">
        <ele>466.6</ele>
        <time>2023-02-19T10:24:28Z</time>
      </trkpt>
      <trkpt lat="45.68042" lon="4.31173">
        <ele>466.6</ele>
        <time>2023-02-19T10:24:29Z</time>
      </trkpt>
      <trkpt lat="45.68041" lon="4.31172">
        <ele>466.6</ele>
        <time>2023-02-19T10:24:30Z</time>
      </trkpt>
      <trkpt lat="45.6804" lon="4.31171">
        <ele>466.6</ele>
        <time>2023-02-19T10:24:31Z</time>
      </trkpt>
      <trkpt lat="45.68039" lon="4.31169">
        <ele>466.6</ele>
        <time>2023-02-19T10:24:32Z</time>
      </trkpt>
      <trkpt lat="45.68038" lon="4.31166">
        <ele>466.6</ele>
        <time>2023-02-19T10:24:34Z</time>
      </trkpt>
      <trkpt lat="45.68036" lon="4.31162">
        <ele>466.6</ele>
        <time>2023-02-19T10:24:35Z</time>
      </trkpt>
      <trkpt lat="45.68036" lon="4.31161">
        <ele>466.6</ele>
        <time>2023-02-19T10:24:36Z</time>
      </trkpt>
      <trkpt lat="45.68034" lon="4.31156">
        <ele>466.5</ele>
        <time>2023-02-19T10:24:37Z</time>
      </trkpt>
      <trkpt lat="45.68033" lon="4.31154">
        <ele>466.5</ele>
        <time>2023-02-19T10:24:38Z</time>
      </trkpt>
      <trkpt lat="45.68032" lon="4.31152">
        <ele>466.5</ele>
        <time>2023-02-19T10:24:39Z</time>
      </trkpt>
      <trkpt lat="45.68031" lon="4.31149">
        <ele>466.5</ele>
        <time>2023-02-19T10:24:41Z</time>
      </trkpt>
      <trkpt lat="45.6803" lon="4.31145">
        <ele>466.5</ele>
        <time>2023-02-19T10:24:42Z</time>
      </trkpt>
      <trkpt lat="45.68029" lon="4.31143">
        <ele>466.5</ele>
        <time>2023-02-19T10:24:43Z</time>
      </trkpt>
      <trkpt lat="45.68028" lon="4.31139">
        <ele>466.5</ele>
        <time>2023-02-19T10:24:44Z</time>
      </trkpt>
      <trkpt lat="45.68027" lon="4.31138">
        <ele>466.5</ele>
        <time>2023-02-19T10:24:45Z</time>
      </trkpt>
      <trkpt lat="45.68026" lon="4.31136">
        <ele>466.5</ele>
        <time>2023-02-19T10:24:46Z</time>
      </trkpt>
      <trkpt lat="45.68025" lon="4.31136">
        <ele>466.5</ele>
        <time>2023-02-19T10:24:47Z</time>
      </trkpt>
      <trkpt lat="45.68024" lon="4.31135">
        <ele>466.5</ele>
        <time>2023-02-19T10:24:48Z</time>
      </trkpt>
      <trkpt lat="45.68023" lon="4.31135">
        <ele>466.5</ele>
        <time>2023-02-19T10:24:49Z</time>
      </trkpt>
      <trkpt lat="45.68021" lon="4.31135">
        <ele>466.5</ele>
        <time>2023-02-19T10:24:51Z</time>
      </trkpt>
      <trkpt lat="45.6802" lon="4.31135">
        <ele>466.5</ele>
        <time>2023-02-19T10:24:52Z</time>
      </trkpt>
      <trkpt lat="45.68018" lon="4.31135">
        <ele>466.5</ele>
        <time>2023-02-19T10:24:53Z</time>
      </trkpt>
      <trkpt lat="45.68017" lon="4.31136">
        <ele>466.5</ele>
        <time>2023-02-19T10:24:54Z</time>
      </trkpt>
      <trkpt lat="45.68016" lon="4.31137">
        <ele>466.5</ele>
        <time>2023-02-19T10:24:55Z</time>
      </trkpt>
      <trkpt lat="45.68013" lon="4.3114">
        <ele>466.4</ele>
        <time>2023-02-19T10:24:56Z</time>
      </trkpt>
      <trkpt lat="45.68013" lon="4.31141">
        <ele>466.4</ele>
        <time>2023-02-19T10:24:57Z</time>
      </trkpt>
      <trkpt lat="45.68011" lon="4.31147">
        <ele>466.4</ele>
        <time>2023-02-19T10:24:59Z</time>
      </trkpt>
      <trkpt lat="45.6801" lon="4.31149">
        <ele>466.4</ele>
        <time>2023-02-19T10:25:00Z</time>
      </trkpt>
      <trkpt lat="45.6801" lon="4.3115">
        <ele>466.4</ele>
        <time>2023-02-19T10:25:01Z</time>
      </trkpt>
      <trkpt lat="45.68009" lon="4.31153">
        <ele>466.3</ele>
        <time>2023-02-19T10:25:02Z</time>
      </trkpt>
      <trkpt lat="45.68008" lon="4.31157">
        <ele>466.3</ele>
        <time>2023-02-19T10:25:04Z</time>
      </trkpt>
      <trkpt lat="45.68007" lon="4.3116">
        <ele>466.3</ele>
        <time>2023-02-19T10:25:05Z</time>
      </trkpt>
      <trkpt lat="45.68007" lon="4.31162">
        <ele>466.3</ele>
        <time>2023-02-19T10:25:06Z</time>
      </trkpt>
      <trkpt lat="45.68006" lon="4.31164">
        <ele>466.3</ele>
        <time>2023-02-19T10:25:07Z</time>
      </trkpt>
      <trkpt lat="45.68005" lon="4.31166">
        <ele>466.3</ele>
        <time>2023-02-19T10:25:08Z</time>
      </trkpt>
      <trkpt lat="45.68005" lon="4.31168">
        <ele>466.3</ele>
        <time>2023-02-19T10:25:09Z</time>
      </trkpt>
      <trkpt lat="45.68004" lon="4.3117">
        <ele>466.3</ele>
        <time>2023-02-19T10:25:10Z</time>
      </trkpt>
      <trkpt lat="45.68003" lon="4.31174">
        <ele>466.3</ele>
        <time>2023-02-19T10:25:11Z</time>
      </trkpt>
      <trkpt lat="45.68002" lon="4.31175">
        <ele>466.3</ele>
        <time>2023-02-19T10:25:12Z</time>
      </trkpt>
      <trkpt lat="45.68001" lon="4.31178">
        <ele>466.3</ele>
        <time>2023-02-19T10:25:14Z</time>
      </trkpt>
      <trkpt lat="45.68" lon="4.3118">
        <ele>466.3</ele>
        <time>2023-02-19T10:25:15Z</time>
      </trkpt>
      <trkpt lat="45.67999" lon="4.31182">
        <ele>466.3</ele>
        <time>2023-02-19T10:25:16Z</time>
      </trkpt>
      <trkpt lat="45.67999" lon="4.31184">
        <ele>466.3</ele>
        <time>2023-02-19T10:25:17Z</time>
      </trkpt>
      <trkpt lat="45.67998" lon="4.31187">
        <ele>466.3</ele>
        <time>2023-02-19T10:25:18Z</time>
      </trkpt>
      <trkpt lat="45.67997" lon="4.31189">
        <ele>466.3</ele>
        <time>2023-02-19T10:25:19Z</time>
      </trkpt>
      <trkpt lat="45.67996" lon="4.31193">
        <ele>466.3</ele>
        <time>2023-02-19T10:25:20Z</time>
      </trkpt>
      <trkpt lat="45.67996" lon="4.31194">
        <ele>466.3</ele>
        <time>2023-02-19T10:25:21Z</time>
      </trkpt>
      <trkpt lat="45.67996" lon="4.31196">
        <ele>466.3</ele>
        <time>2023-02-19T10:25:22Z</time>
      </trkpt>
      <trkpt lat="45.67995" lon="4.31198">
        <ele>466.3</ele>
        <time>2023-02-19T10:25:23Z</time>
      </trkpt>
      <trkpt lat="45.67995" lon="4.31201">
        <ele>466.3</ele>
        <time>2023-02-19T10:25:25Z</time>
      </trkpt>
      <trkpt lat="45.67994" lon="4.31203">
        <ele>466.3</ele>
        <time>2023-02-19T10:25:26Z</time>
      </trkpt>
      <trkpt lat="45.67994" lon="4.31205">
        <ele>466.3</ele>
        <time>2023-02-19T10:25:27Z</time>
      </trkpt>
      <trkpt lat="45.67993" lon="4.31208">
        <ele>466.3</ele>
        <time>2023-02-19T10:25:28Z</time>
      </trkpt>
      <trkpt lat="45.67993" lon="4.3121">
        <ele>466.3</ele>
        <time>2023-02-19T10:25:29Z</time>
      </trkpt>
      <trkpt lat="45.67993" lon="4.31212">
        <ele>466.3</ele>
        <time>2023-02-19T10:25:30Z</time>
      </trkpt>
      <trkpt lat="45.67992" lon="4.31214">
        <ele>466.3</ele>
        <time>2023-02-19T10:25:31Z</time>
      </trkpt>
      <trkpt lat="45.67992" lon="4.31216">
        <ele>466.3</ele>
        <time>2023-02-19T10:25:32Z</time>
      </trkpt>
      <trkpt lat="45.67991" lon="4.31218">
        <ele>466.2</ele>
        <time>2023-02-19T10:25:33Z</time>
      </trkpt>
      <trkpt lat="45.67991" lon="4.3122">
        <ele>466.2</ele>
        <time>2023-02-19T10:25:34Z</time>
      </trkpt>
      <trkpt lat="45.67991" lon="4.31222">
        <ele>466.2</ele>
        <time>2023-02-19T10:25:36Z</time>
      </trkpt>
      <trkpt lat="45.6799" lon="4.31224">
        <ele>466.2</ele>
        <time>2023-02-19T10:25:37Z</time>
      </trkpt>
      <trkpt lat="45.6799" lon="4.31226">
        <ele>466.2</ele>
        <time>2023-02-19T10:25:38Z</time>
      </trkpt>
      <trkpt lat="45.67989" lon="4.3123">
        <ele>466.2</ele>
        <time>2023-02-19T10:25:40Z</time>
      </trkpt>
      <trkpt lat="45.67989" lon="4.31232">
        <ele>466.2</ele>
        <time>2023-02-19T10:25:41Z</time>
      </trkpt>
      <trkpt lat="45.67988" lon="4.31234">
        <ele>466.1</ele>
        <time>2023-02-19T10:25:42Z</time>
      </trkpt>
      <trkpt lat="45.67988" lon="4.31235">
        <ele>466.1</ele>
        <time>2023-02-19T10:25:43Z</time>
      </trkpt>
      <trkpt lat="45.67988" lon="4.31238">
        <ele>466.1</ele>
        <time>2023-02-19T10:25:44Z</time>
      </trkpt>
      <trkpt lat="45.67988" lon="4.3124">
        <ele>466.1</ele>
        <time>2023-02-19T10:25:45Z</time>
      </trkpt>
      <trkpt lat="45.67988" lon="4.31242">
        <ele>466.1</ele>
        <time>2023-02-19T10:25:46Z</time>
      </trkpt>
      <trkpt lat="45.67988" lon="4.31245">
        <ele>466.1</ele>
        <time>2023-02-19T10:25:48Z</time>
      </trkpt>
      <trkpt lat="45.67988" lon="4.31247">
        <ele>466.1</ele>
        <time>2023-02-19T10:25:49Z</time>
      </trkpt>
      <trkpt lat="45.67988" lon="4.3125">
        <ele>466</ele>
        <time>2023-02-19T10:25:50Z</time>
      </trkpt>
      <trkpt lat="45.67988" lon="4.31252">
        <ele>466</ele>
        <time>2023-02-19T10:25:51Z</time>
      </trkpt>
      <trkpt lat="45.67988" lon="4.31254">
        <ele>466</ele>
        <time>2023-02-19T10:25:52Z</time>
      </trkpt>
      <trkpt lat="45.67988" lon="4.31256">
        <ele>466</ele>
        <time>2023-02-19T10:25:53Z</time>
      </trkpt>
      <trkpt lat="45.67989" lon="4.31259">
        <ele>466</ele>
        <time>2023-02-19T10:25:54Z</time>
      </trkpt>
      <trkpt lat="45.67989" lon="4.31261">
        <ele>466</ele>
        <time>2023-02-19T10:25:55Z</time>
      </trkpt>
      <trkpt lat="45.67989" lon="4.31264">
        <ele>465.9</ele>
        <time>2023-02-19T10:25:56Z</time>
      </trkpt>
      <trkpt lat="45.67989" lon="4.31268">
        <ele>465.9</ele>
        <time>2023-02-19T10:25:57Z</time>
      </trkpt>
      <trkpt lat="45.67989" lon="4.31269">
        <ele>465.9</ele>
        <time>2023-02-19T10:25:58Z</time>
      </trkpt>
      <trkpt lat="45.67989" lon="4.31271">
        <ele>465.9</ele>
        <time>2023-02-19T10:26:00Z</time>
      </trkpt>
      <trkpt lat="45.67989" lon="4.31274">
        <ele>465.8</ele>
        <time>2023-02-19T10:26:01Z</time>
      </trkpt>
      <trkpt lat="45.67989" lon="4.31276">
        <ele>465.8</ele>
        <time>2023-02-19T10:26:02Z</time>
      </trkpt>
      <trkpt lat="45.67989" lon="4.31278">
        <ele>465.8</ele>
        <time>2023-02-19T10:26:03Z</time>
      </trkpt>
      <trkpt lat="45.67989" lon="4.3128">
        <ele>465.8</ele>
        <time>2023-02-19T10:26:04Z</time>
      </trkpt>
      <trkpt lat="45.6799" lon="4.31282">
        <ele>465.8</ele>
        <time>2023-02-19T10:26:05Z</time>
      </trkpt>
      <trkpt lat="45.6799" lon="4.31287">
        <ele>465.7</ele>
        <time>2023-02-19T10:26:07Z</time>
      </trkpt>
      <trkpt lat="45.6799" lon="4.31288">
        <ele>465.7</ele>
        <time>2023-02-19T10:26:08Z</time>
      </trkpt>
      <trkpt lat="45.6799" lon="4.31289">
        <ele>465.7</ele>
        <time>2023-02-19T10:26:09Z</time>
      </trkpt>
      <trkpt lat="45.6799" lon="4.31291">
        <ele>465.7</ele>
        <time>2023-02-19T10:26:10Z</time>
      </trkpt>
      <trkpt lat="45.6799" lon="4.31293">
        <ele>465.6</ele>
        <time>2023-02-19T10:26:12Z</time>
      </trkpt>
      <trkpt lat="45.67989" lon="4.31296">
        <ele>465.6</ele>
        <time>2023-02-19T10:26:13Z</time>
      </trkpt>
      <trkpt lat="45.67989" lon="4.31297">
        <ele>465.6</ele>
        <time>2023-02-19T10:26:14Z</time>
      </trkpt>
      <trkpt lat="45.67988" lon="4.31299">
        <ele>465.6</ele>
        <time>2023-02-19T10:26:15Z</time>
      </trkpt>
      <trkpt lat="45.67988" lon="4.31302">
        <ele>465.5</ele>
        <time>2023-02-19T10:26:16Z</time>
      </trkpt>
      <trkpt lat="45.67988" lon="4.31303">
        <ele>465.5</ele>
        <time>2023-02-19T10:26:17Z</time>
      </trkpt>
      <trkpt lat="45.67987" lon="4.31304">
        <ele>465.5</ele>
        <time>2023-02-19T10:26:18Z</time>
      </trkpt>
      <trkpt lat="45.67987" lon="4.31307">
        <ele>465.5</ele>
        <time>2023-02-19T10:26:19Z</time>
      </trkpt>
      <trkpt lat="45.67986" lon="4.31309">
        <ele>465.5</ele>
        <time>2023-02-19T10:26:20Z</time>
      </trkpt>
      <trkpt lat="45.67986" lon="4.31312">
        <ele>465.4</ele>
        <time>2023-02-19T10:26:21Z</time>
      </trkpt>
      <trkpt lat="45.67985" lon="4.31314">
        <ele>465.4</ele>
        <time>2023-02-19T10:26:23Z</time>
      </trkpt>
      <trkpt lat="45.67985" lon="4.31317">
        <ele>465.4</ele>
        <time>2023-02-19T10:26:24Z</time>
      </trkpt>
      <trkpt lat="45.67984" lon="4.31319">
        <ele>465.4</ele>
        <time>2023-02-19T10:26:25Z</time>
      </trkpt>
      <trkpt lat="45.67984" lon="4.31323">
        <ele>465.3</ele>
        <time>2023-02-19T10:26:26Z</time>
      </trkpt>
      <trkpt lat="45.67984" lon="4.31324">
        <ele>465.3</ele>
        <time>2023-02-19T10:26:27Z</time>
      </trkpt>
      <trkpt lat="45.67984" lon="4.31327">
        <ele>465.3</ele>
        <time>2023-02-19T10:26:28Z</time>
      </trkpt>
      <trkpt lat="45.67983" lon="4.31329">
        <ele>465.3</ele>
        <time>2023-02-19T10:26:29Z</time>
      </trkpt>
      <trkpt lat="45.67983" lon="4.31333">
        <ele>465.2</ele>
        <time>2023-02-19T10:26:30Z</time>
      </trkpt>
      <trkpt lat="45.67983" lon="4.31334">
        <ele>465.2</ele>
        <time>2023-02-19T10:26:31Z</time>
      </trkpt>
      <trkpt lat="45.67982" lon="4.31337">
        <ele>465.2</ele>
        <time>2023-02-19T10:26:32Z</time>
      </trkpt>
      <trkpt lat="45.67982" lon="4.31339">
        <ele>465.2</ele>
        <time>2023-02-19T10:26:34Z</time>
      </trkpt>
      <trkpt lat="45.67981" lon="4.31341">
        <ele>465.1</ele>
        <time>2023-02-19T10:26:35Z</time>
      </trkpt>
      <trkpt lat="45.67981" lon="4.31343">
        <ele>465.1</ele>
        <time>2023-02-19T10:26:36Z</time>
      </trkpt>
      <trkpt lat="45.6798" lon="4.31346">
        <ele>465.1</ele>
        <time>2023-02-19T10:26:37Z</time>
      </trkpt>
      <trkpt lat="45.6798" lon="4.31347">
        <ele>465</ele>
        <time>2023-02-19T10:26:38Z</time>
      </trkpt>
      <trkpt lat="45.67979" lon="4.3135">
        <ele>465</ele>
        <time>2023-02-19T10:26:39Z</time>
      </trkpt>
      <trkpt lat="45.67979" lon="4.31352">
        <ele>465</ele>
        <time>2023-02-19T10:26:40Z</time>
      </trkpt>
      <trkpt lat="45.67978" lon="4.31353">
        <ele>465</ele>
        <time>2023-02-19T10:26:41Z</time>
      </trkpt>
      <trkpt lat="45.67978" lon="4.31355">
        <ele>464.9</ele>
        <time>2023-02-19T10:26:42Z</time>
      </trkpt>
      <trkpt lat="45.67976" lon="4.31358">
        <ele>464.9</ele>
        <time>2023-02-19T10:26:44Z</time>
      </trkpt>
      <trkpt lat="45.67976" lon="4.31359">
        <ele>464.9</ele>
        <time>2023-02-19T10:26:45Z</time>
      </trkpt>
      <trkpt lat="45.67975" lon="4.3136">
        <ele>464.8</ele>
        <time>2023-02-19T10:26:46Z</time>
      </trkpt>
      <trkpt lat="45.67974" lon="4.31362">
        <ele>464.8</ele>
        <time>2023-02-19T10:26:47Z</time>
      </trkpt>
      <trkpt lat="45.67973" lon="4.31363">
        <ele>464.7</ele>
        <time>2023-02-19T10:26:48Z</time>
      </trkpt>
      <trkpt lat="45.67972" lon="4.31364">
        <ele>464.7</ele>
        <time>2023-02-19T10:26:49Z</time>
      </trkpt>
      <trkpt lat="45.67971" lon="4.31365">
        <ele>464.7</ele>
        <time>2023-02-19T10:26:50Z</time>
      </trkpt>
      <trkpt lat="45.6797" lon="4.31366">
        <ele>464.6</ele>
        <time>2023-02-19T10:26:51Z</time>
      </trkpt>
      <trkpt lat="45.67969" lon="4.31368">
        <ele>464.6</ele>
        <time>2023-02-19T10:26:52Z</time>
      </trkpt>
      <trkpt lat="45.67968" lon="4.31369">
        <ele>464.6</ele>
        <time>2023-02-19T10:26:53Z</time>
      </trkpt>
      <trkpt lat="45.67968" lon="4.3137">
        <ele>464.5</ele>
        <time>2023-02-19T10:26:55Z</time>
      </trkpt>
      <trkpt lat="45.67967" lon="4.31371">
        <ele>464.5</ele>
        <time>2023-02-19T10:26:56Z</time>
      </trkpt>
      <trkpt lat="45.67966" lon="4.31372">
        <ele>464.5</ele>
        <time>2023-02-19T10:26:57Z</time>
      </trkpt>
      <trkpt lat="45.67965" lon="4.31373">
        <ele>464.4</ele>
        <time>2023-02-19T10:26:58Z</time>
      </trkpt>
      <trkpt lat="45.67965" lon="4.31373">
        <ele>464.4</ele>
        <time>2023-02-19T10:26:59Z</time>
      </trkpt>
      <trkpt lat="45.67965" lon="4.31375">
        <ele>464.4</ele>
        <time>2023-02-19T10:27:00Z</time>
      </trkpt>
      <trkpt lat="45.67964" lon="4.31376">
        <ele>464.3</ele>
        <time>2023-02-19T10:27:01Z</time>
      </trkpt>
      <trkpt lat="45.67963" lon="4.31378">
        <ele>464.3</ele>
        <time>2023-02-19T10:27:02Z</time>
      </trkpt>
      <trkpt lat="45.67963" lon="4.3138">
        <ele>464.2</ele>
        <time>2023-02-19T10:27:03Z</time>
      </trkpt>
      <trkpt lat="45.67963" lon="4.31382">
        <ele>464.2</ele>
        <time>2023-02-19T10:27:05Z</time>
      </trkpt>
      <trkpt lat="45.67962" lon="4.31384">
        <ele>464.1</ele>
        <time>2023-02-19T10:27:06Z</time>
      </trkpt>
      <trkpt lat="45.67962" lon="4.31387">
        <ele>464.1</ele>
        <time>2023-02-19T10:27:07Z</time>
      </trkpt>
      <trkpt lat="45.67961" lon="4.31389">
        <ele>464</ele>
        <time>2023-02-19T10:27:08Z</time>
      </trkpt>
      <trkpt lat="45.6796" lon="4.31393">
        <ele>463.9</ele>
        <time>2023-02-19T10:27:09Z</time>
      </trkpt>
      <trkpt lat="45.6796" lon="4.31394">
        <ele>463.8</ele>
        <time>2023-02-19T10:27:10Z</time>
      </trkpt>
      <trkpt lat="45.67959" lon="4.31396">
        <ele>463.7</ele>
        <time>2023-02-19T10:27:11Z</time>
      </trkpt>
      <trkpt lat="45.67958" lon="4.31398">
        <ele>463.7</ele>
        <time>2023-02-19T10:27:12Z</time>
      </trkpt>
      <trkpt lat="45.67957" lon="4.314">
        <ele>463.6</ele>
        <time>2023-02-19T10:27:13Z</time>
      </trkpt>
      <trkpt lat="45.67957" lon="4.31402">
        <ele>463.5</ele>
        <time>2023-02-19T10:27:14Z</time>
      </trkpt>
      <trkpt lat="45.67956" lon="4.31404">
        <ele>463.4</ele>
        <time>2023-02-19T10:27:16Z</time>
      </trkpt>
      <trkpt lat="45.67956" lon="4.31405">
        <ele>463.3</ele>
        <time>2023-02-19T10:27:17Z</time>
      </trkpt>
      <trkpt lat="45.67955" lon="4.31407">
        <ele>463.3</ele>
        <time>2023-02-19T10:27:18Z</time>
      </trkpt>
      <trkpt lat="45.67954" lon="4.31409">
        <ele>463.2</ele>
        <time>2023-02-19T10:27:19Z</time>
      </trkpt>
      <trkpt lat="45.67952" lon="4.31412">
        <ele>463</ele>
        <time>2023-02-19T10:27:20Z</time>
      </trkpt>
      <trkpt lat="45.67952" lon="4.31413">
        <ele>463</ele>
        <time>2023-02-19T10:27:21Z</time>
      </trkpt>
      <trkpt lat="45.67951" lon="4.31414">
        <ele>462.9</ele>
        <time>2023-02-19T10:27:22Z</time>
      </trkpt>
      <trkpt lat="45.6795" lon="4.31416">
        <ele>462.8</ele>
        <time>2023-02-19T10:27:23Z</time>
      </trkpt>
      <trkpt lat="45.67949" lon="4.31419">
        <ele>462.7</ele>
        <time>2023-02-19T10:27:25Z</time>
      </trkpt>
      <trkpt lat="45.67948" lon="4.3142">
        <ele>462.6</ele>
        <time>2023-02-19T10:27:26Z</time>
      </trkpt>
      <trkpt lat="45.67948" lon="4.31422">
        <ele>462.5</ele>
        <time>2023-02-19T10:27:27Z</time>
      </trkpt>
      <trkpt lat="45.67947" lon="4.31424">
        <ele>462.4</ele>
        <time>2023-02-19T10:27:28Z</time>
      </trkpt>
      <trkpt lat="45.67947" lon="4.31426">
        <ele>462.3</ele>
        <time>2023-02-19T10:27:29Z</time>
      </trkpt>
      <trkpt lat="45.67946" lon="4.3143">
        <ele>462.1</ele>
        <time>2023-02-19T10:27:30Z</time>
      </trkpt>
      <trkpt lat="45.67946" lon="4.31431">
        <ele>462.1</ele>
        <time>2023-02-19T10:27:32Z</time>
      </trkpt>
      <trkpt lat="45.67946" lon="4.31433">
        <ele>462</ele>
        <time>2023-02-19T10:27:33Z</time>
      </trkpt>
      <trkpt lat="45.67945" lon="4.31434">
        <ele>461.9</ele>
        <time>2023-02-19T10:27:34Z</time>
      </trkpt>
      <trkpt lat="45.67945" lon="4.31436">
        <ele>461.9</ele>
        <time>2023-02-19T10:27:35Z</time>
      </trkpt>
      <trkpt lat="45.67945" lon="4.31437">
        <ele>461.8</ele>
        <time>2023-02-19T10:27:36Z</time>
      </trkpt>
      <trkpt lat="45.67944" lon="4.31441">
        <ele>461.7</ele>
        <time>2023-02-19T10:27:38Z</time>
      </trkpt>
      <trkpt lat="45.67944" lon="4.31443">
        <ele>461.7</ele>
        <time>2023-02-19T10:27:39Z</time>
      </trkpt>
      <trkpt lat="45.67943" lon="4.31445">
        <ele>461.6</ele>
        <time>2023-02-19T10:27:40Z</time>
      </trkpt>
      <trkpt lat="45.67943" lon="4.31449">
        <ele>461.5</ele>
        <time>2023-02-19T10:27:41Z</time>
      </trkpt>
      <trkpt lat="45.67943" lon="4.3145">
        <ele>461.4</ele>
        <time>2023-02-19T10:27:42Z</time>
      </trkpt>
      <trkpt lat="45.67943" lon="4.31452">
        <ele>461.3</ele>
        <time>2023-02-19T10:27:44Z</time>
      </trkpt>
      <trkpt lat="45.67943" lon="4.31455">
        <ele>461.3</ele>
        <time>2023-02-19T10:27:45Z</time>
      </trkpt>
      <trkpt lat="45.67943" lon="4.31457">
        <ele>461.2</ele>
        <time>2023-02-19T10:27:46Z</time>
      </trkpt>
      <trkpt lat="45.67943" lon="4.31459">
        <ele>461.1</ele>
        <time>2023-02-19T10:27:47Z</time>
      </trkpt>
      <trkpt lat="45.67944" lon="4.31461">
        <ele>461.1</ele>
        <time>2023-02-19T10:27:48Z</time>
      </trkpt>
      <trkpt lat="45.67944" lon="4.31463">
        <ele>461</ele>
        <time>2023-02-19T10:27:49Z</time>
      </trkpt>
      <trkpt lat="45.67944" lon="4.31465">
        <ele>460.9</ele>
        <time>2023-02-19T10:27:50Z</time>
      </trkpt>
      <trkpt lat="45.67944" lon="4.31467">
        <ele>460.9</ele>
        <time>2023-02-19T10:27:51Z</time>
      </trkpt>
      <trkpt lat="45.67944" lon="4.31469">
        <ele>460.8</ele>
        <time>2023-02-19T10:27:52Z</time>
      </trkpt>
      <trkpt lat="45.67945" lon="4.31471">
        <ele>460.8</ele>
        <time>2023-02-19T10:27:53Z</time>
      </trkpt>
      <trkpt lat="45.67946" lon="4.31473">
        <ele>460.7</ele>
        <time>2023-02-19T10:27:54Z</time>
      </trkpt>
      <trkpt lat="45.67946" lon="4.31475">
        <ele>460.6</ele>
        <time>2023-02-19T10:27:56Z</time>
      </trkpt>
      <trkpt lat="45.67947" lon="4.31477">
        <ele>460.6</ele>
        <time>2023-02-19T10:27:57Z</time>
      </trkpt>
      <trkpt lat="45.67947" lon="4.31479">
        <ele>460.5</ele>
        <time>2023-02-19T10:27:58Z</time>
      </trkpt>
      <trkpt lat="45.67948" lon="4.3148">
        <ele>460.4</ele>
        <time>2023-02-19T10:27:59Z</time>
      </trkpt>
      <trkpt lat="45.67949" lon="4.31482">
        <ele>460.4</ele>
        <time>2023-02-19T10:28:00Z</time>
      </trkpt>
      <trkpt lat="45.6795" lon="4.31484">
        <ele>460.3</ele>
        <time>2023-02-19T10:28:01Z</time>
      </trkpt>
      <trkpt lat="45.67951" lon="4.31486">
        <ele>460.3</ele>
        <time>2023-02-19T10:28:02Z</time>
      </trkpt>
      <trkpt lat="45.67952" lon="4.31488">
        <ele>460.2</ele>
        <time>2023-02-19T10:28:04Z</time>
      </trkpt>
      <trkpt lat="45.67953" lon="4.31491">
        <ele>460.1</ele>
        <time>2023-02-19T10:28:05Z</time>
      </trkpt>
      <trkpt lat="45.67955" lon="4.31495">
        <ele>460</ele>
        <time>2023-02-19T10:28:07Z</time>
      </trkpt>
      <trkpt lat="45.67956" lon="4.31496">
        <ele>459.9</ele>
        <time>2023-02-19T10:28:08Z</time>
      </trkpt>
      <trkpt lat="45.67956" lon="4.31498">
        <ele>459.9</ele>
        <time>2023-02-19T10:28:09Z</time>
      </trkpt>
      <trkpt lat="45.67959" lon="4.31501">
        <ele>459.8</ele>
        <time>2023-02-19T10:28:10Z</time>
      </trkpt>
      <trkpt lat="45.67959" lon="4.31502">
        <ele>459.7</ele>
        <time>2023-02-19T10:28:11Z</time>
      </trkpt>
      <trkpt lat="45.67961" lon="4.31504">
        <ele>459.7</ele>
        <time>2023-02-19T10:28:12Z</time>
      </trkpt>
      <trkpt lat="45.67962" lon="4.31505">
        <ele>459.6</ele>
        <time>2023-02-19T10:28:14Z</time>
      </trkpt>
      <trkpt lat="45.67965" lon="4.31508">
        <ele>459.4</ele>
        <time>2023-02-19T10:28:15Z</time>
      </trkpt>
      <trkpt lat="45.67966" lon="4.3151">
        <ele>459.4</ele>
        <time>2023-02-19T10:28:17Z</time>
      </trkpt>
      <trkpt lat="45.67966" lon="4.31512">
        <ele>459.3</ele>
        <time>2023-02-19T10:28:18Z</time>
      </trkpt>
      <trkpt lat="45.67967" lon="4.31515">
        <ele>459.2</ele>
        <time>2023-02-19T10:28:19Z</time>
      </trkpt>
      <trkpt lat="45.67968" lon="4.31516">
        <ele>459.2</ele>
        <time>2023-02-19T10:28:20Z</time>
      </trkpt>
      <trkpt lat="45.67968" lon="4.31517">
        <ele>459.1</ele>
        <time>2023-02-19T10:28:21Z</time>
      </trkpt>
      <trkpt lat="45.67969" lon="4.31518">
        <ele>459.1</ele>
        <time>2023-02-19T10:28:22Z</time>
      </trkpt>
      <trkpt lat="45.67969" lon="4.3152">
        <ele>459</ele>
        <time>2023-02-19T10:28:24Z</time>
      </trkpt>
      <trkpt lat="45.67969" lon="4.31521">
        <ele>459</ele>
        <time>2023-02-19T10:28:25Z</time>
      </trkpt>
      <trkpt lat="45.67969" lon="4.31524">
        <ele>458.9</ele>
        <time>2023-02-19T10:28:26Z</time>
      </trkpt>
      <trkpt lat="45.67969" lon="4.31525">
        <ele>458.8</ele>
        <time>2023-02-19T10:28:27Z</time>
      </trkpt>
      <trkpt lat="45.67969" lon="4.31526">
        <ele>458.8</ele>
        <time>2023-02-19T10:28:28Z</time>
      </trkpt>
      <trkpt lat="45.67969" lon="4.31527">
        <ele>458.8</ele>
        <time>2023-02-19T10:28:29Z</time>
      </trkpt>
      <trkpt lat="45.67968" lon="4.3153">
        <ele>458.7</ele>
        <time>2023-02-19T10:28:30Z</time>
      </trkpt>
      <trkpt lat="45.67968" lon="4.31531">
        <ele>458.6</ele>
        <time>2023-02-19T10:28:31Z</time>
      </trkpt>
      <trkpt lat="45.67968" lon="4.31532">
        <ele>458.6</ele>
        <time>2023-02-19T10:28:32Z</time>
      </trkpt>
      <trkpt lat="45.67968" lon="4.31534">
        <ele>458.5</ele>
        <time>2023-02-19T10:28:33Z</time>
      </trkpt>
      <trkpt lat="45.67968" lon="4.31536">
        <ele>458.4</ele>
        <time>2023-02-19T10:28:34Z</time>
      </trkpt>
      <trkpt lat="45.67968" lon="4.31538">
        <ele>458.3</ele>
        <time>2023-02-19T10:28:36Z</time>
      </trkpt>
      <trkpt lat="45.67969" lon="4.3154">
        <ele>458.2</ele>
        <time>2023-02-19T10:28:37Z</time>
      </trkpt>
      <trkpt lat="45.67969" lon="4.31542">
        <ele>458.2</ele>
        <time>2023-02-19T10:28:38Z</time>
      </trkpt>
      <trkpt lat="45.67969" lon="4.31544">
        <ele>458.1</ele>
        <time>2023-02-19T10:28:39Z</time>
      </trkpt>
      <trkpt lat="45.6797" lon="4.31546">
        <ele>458</ele>
        <time>2023-02-19T10:28:40Z</time>
      </trkpt>
      <trkpt lat="45.6797" lon="4.3155">
        <ele>457.9</ele>
        <time>2023-02-19T10:28:42Z</time>
      </trkpt>
      <trkpt lat="45.67971" lon="4.31552">
        <ele>457.8</ele>
        <time>2023-02-19T10:28:43Z</time>
      </trkpt>
      <trkpt lat="45.67971" lon="4.31555">
        <ele>457.7</ele>
        <time>2023-02-19T10:28:44Z</time>
      </trkpt>
      <trkpt lat="45.67971" lon="4.31557">
        <ele>457.6</ele>
        <time>2023-02-19T10:28:45Z</time>
      </trkpt>
      <trkpt lat="45.67971" lon="4.31559">
        <ele>457.6</ele>
        <time>2023-02-19T10:28:46Z</time>
      </trkpt>
      <trkpt lat="45.67971" lon="4.31561">
        <ele>457.5</ele>
        <time>2023-02-19T10:28:48Z</time>
      </trkpt>
      <trkpt lat="45.67972" lon="4.31562">
        <ele>457.5</ele>
        <time>2023-02-19T10:28:49Z</time>
      </trkpt>
      <trkpt lat="45.67972" lon="4.31563">
        <ele>457.5</ele>
        <time>2023-02-19T10:28:50Z</time>
      </trkpt>
      <trkpt lat="45.67972" lon="4.31563">
        <ele>457.4</ele>
        <time>2023-02-19T10:28:51Z</time>
      </trkpt>
      <trkpt lat="45.67972" lon="4.31564">
        <ele>457.4</ele>
        <time>2023-02-19T10:28:52Z</time>
      </trkpt>
      <trkpt lat="45.67972" lon="4.31565">
        <ele>457.4</ele>
        <time>2023-02-19T10:28:53Z</time>
      </trkpt>
      <trkpt lat="45.67972" lon="4.31566">
        <ele>457.3</ele>
        <time>2023-02-19T10:28:54Z</time>
      </trkpt>
      <trkpt lat="45.67972" lon="4.31568">
        <ele>457.3</ele>
        <time>2023-02-19T10:28:55Z</time>
      </trkpt>
      <trkpt lat="45.67973" lon="4.31571">
        <ele>457.2</ele>
        <time>2023-02-19T10:28:57Z</time>
      </trkpt>
      <trkpt lat="45.67973" lon="4.31572">
        <ele>457.2</ele>
        <time>2023-02-19T10:28:58Z</time>
      </trkpt>
      <trkpt lat="45.67974" lon="4.31573">
        <ele>457.1</ele>
        <time>2023-02-19T10:28:59Z</time>
      </trkpt>
      <trkpt lat="45.67975" lon="4.31575">
        <ele>457.1</ele>
        <time>2023-02-19T10:29:00Z</time>
      </trkpt>
      <trkpt lat="45.67976" lon="4.31577">
        <ele>457</ele>
        <time>2023-02-19T10:29:01Z</time>
      </trkpt>
      <trkpt lat="45.67977" lon="4.3158">
        <ele>456.9</ele>
        <time>2023-02-19T10:29:03Z</time>
      </trkpt>
      <trkpt lat="45.67978" lon="4.31582">
        <ele>456.8</ele>
        <time>2023-02-19T10:29:04Z</time>
      </trkpt>
      <trkpt lat="45.67979" lon="4.31585">
        <ele>456.7</ele>
        <time>2023-02-19T10:29:05Z</time>
      </trkpt>
      <trkpt lat="45.67981" lon="4.31589">
        <ele>456.6</ele>
        <time>2023-02-19T10:29:06Z</time>
      </trkpt>
      <trkpt lat="45.67981" lon="4.3159">
        <ele>456.6</ele>
        <time>2023-02-19T10:29:07Z</time>
      </trkpt>
      <trkpt lat="45.67983" lon="4.31594">
        <ele>456.4</ele>
        <time>2023-02-19T10:29:08Z</time>
      </trkpt>
      <trkpt lat="45.67983" lon="4.31596">
        <ele>456.4</ele>
        <time>2023-02-19T10:29:09Z</time>
      </trkpt>
      <trkpt lat="45.67985" lon="4.31598">
        <ele>456.3</ele>
        <time>2023-02-19T10:29:10Z</time>
      </trkpt>
      <trkpt lat="45.67986" lon="4.316">
        <ele>456.3</ele>
        <time>2023-02-19T10:29:12Z</time>
      </trkpt>
      <trkpt lat="45.67987" lon="4.31602">
        <ele>456.2</ele>
        <time>2023-02-19T10:29:13Z</time>
      </trkpt>
      <trkpt lat="45.67988" lon="4.31603">
        <ele>456.1</ele>
        <time>2023-02-19T10:29:14Z</time>
      </trkpt>
      <trkpt lat="45.6799" lon="4.31605">
        <ele>456.1</ele>
        <time>2023-02-19T10:29:15Z</time>
      </trkpt>
      <trkpt lat="45.67991" lon="4.31606">
        <ele>456</ele>
        <time>2023-02-19T10:29:16Z</time>
      </trkpt>
      <trkpt lat="45.67993" lon="4.31609">
        <ele>456</ele>
        <time>2023-02-19T10:29:17Z</time>
      </trkpt>
      <trkpt lat="45.67994" lon="4.3161">
        <ele>455.9</ele>
        <time>2023-02-19T10:29:18Z</time>
      </trkpt>
      <trkpt lat="45.67996" lon="4.31613">
        <ele>455.9</ele>
        <time>2023-02-19T10:29:19Z</time>
      </trkpt>
      <trkpt lat="45.67996" lon="4.31614">
        <ele>455.8</ele>
        <time>2023-02-19T10:29:20Z</time>
      </trkpt>
      <trkpt lat="45.67998" lon="4.31617">
        <ele>455.8</ele>
        <time>2023-02-19T10:29:22Z</time>
      </trkpt>
      <trkpt lat="45.67999" lon="4.31618">
        <ele>455.8</ele>
        <time>2023-02-19T10:29:23Z</time>
      </trkpt>
      <trkpt lat="45.68" lon="4.3162">
        <ele>455.8</ele>
        <time>2023-02-19T10:29:24Z</time>
      </trkpt>
      <trkpt lat="45.68001" lon="4.31622">
        <ele>455.7</ele>
        <time>2023-02-19T10:29:25Z</time>
      </trkpt>
      <trkpt lat="45.68002" lon="4.31625">
        <ele>455.7</ele>
        <time>2023-02-19T10:29:26Z</time>
      </trkpt>
      <trkpt lat="45.68002" lon="4.31627">
        <ele>455.7</ele>
        <time>2023-02-19T10:29:27Z</time>
      </trkpt>
      <trkpt lat="45.68002" lon="4.31629">
        <ele>455.7</ele>
        <time>2023-02-19T10:29:28Z</time>
      </trkpt>
      <trkpt lat="45.68001" lon="4.31632">
        <ele>455.7</ele>
        <time>2023-02-19T10:29:29Z</time>
      </trkpt>
      <trkpt lat="45.67998" lon="4.31636">
        <ele>455.6</ele>
        <time>2023-02-19T10:29:31Z</time>
      </trkpt>
      <trkpt lat="45.67997" lon="4.31637">
        <ele>455.6</ele>
        <time>2023-02-19T10:29:32Z</time>
      </trkpt>
      <trkpt lat="45.67996" lon="4.31639">
        <ele>455.6</ele>
        <time>2023-02-19T10:29:33Z</time>
      </trkpt>
      <trkpt lat="45.67995" lon="4.31641">
        <ele>455.6</ele>
        <time>2023-02-19T10:29:34Z</time>
      </trkpt>
      <trkpt lat="45.67994" lon="4.31643">
        <ele>455.6</ele>
        <time>2023-02-19T10:29:36Z</time>
      </trkpt>
      <trkpt lat="45.67993" lon="4.31644">
        <ele>455.6</ele>
        <time>2023-02-19T10:29:37Z</time>
      </trkpt>
      <trkpt lat="45.67992" lon="4.31645">
        <ele>455.6</ele>
        <time>2023-02-19T10:29:38Z</time>
      </trkpt>
      <trkpt lat="45.67991" lon="4.31646">
        <ele>455.6</ele>
        <time>2023-02-19T10:29:39Z</time>
      </trkpt>
      <trkpt lat="45.6799" lon="4.31647">
        <ele>455.6</ele>
        <time>2023-02-19T10:29:40Z</time>
      </trkpt>
      <trkpt lat="45.67989" lon="4.31648">
        <ele>455.5</ele>
        <time>2023-02-19T10:29:42Z</time>
      </trkpt>
      <trkpt lat="45.67988" lon="4.31648">
        <ele>455.5</ele>
        <time>2023-02-19T10:29:43Z</time>
      </trkpt>
      <trkpt lat="45.67986" lon="4.31649">
        <ele>455.5</ele>
        <time>2023-02-19T10:29:44Z</time>
      </trkpt>
      <trkpt lat="45.67985" lon="4.31649">
        <ele>455.5</ele>
        <time>2023-02-19T10:29:45Z</time>
      </trkpt>
      <trkpt lat="45.67984" lon="4.3165">
        <ele>455.5</ele>
        <time>2023-02-19T10:29:46Z</time>
      </trkpt>
      <trkpt lat="45.67983" lon="4.3165">
        <ele>455.4</ele>
        <time>2023-02-19T10:29:47Z</time>
      </trkpt>
      <trkpt lat="45.67983" lon="4.31651">
        <ele>455.4</ele>
        <time>2023-02-19T10:29:48Z</time>
      </trkpt>
      <trkpt lat="45.67982" lon="4.31651">
        <ele>455.4</ele>
        <time>2023-02-19T10:29:49Z</time>
      </trkpt>
      <trkpt lat="45.67982" lon="4.31651">
        <ele>455.4</ele>
        <time>2023-02-19T10:29:51Z</time>
      </trkpt>
      <trkpt lat="45.67981" lon="4.31651">
        <ele>455.4</ele>
        <time>2023-02-19T10:29:52Z</time>
      </trkpt>
      <trkpt lat="45.67981" lon="4.31651">
        <ele>455.4</ele>
        <time>2023-02-19T10:29:53Z</time>
      </trkpt>
      <trkpt lat="45.67981" lon="4.31652">
        <ele>455.4</ele>
        <time>2023-02-19T10:29:54Z</time>
      </trkpt>
      <trkpt lat="45.67981" lon="4.31652">
        <ele>455.4</ele>
        <time>2023-02-19T10:29:55Z</time>
      </trkpt>
      <trkpt lat="45.6798" lon="4.31653">
        <ele>455.3</ele>
        <time>2023-02-19T10:29:56Z</time>
      </trkpt>
      <trkpt lat="45.67979" lon="4.31654">
        <ele>455.3</ele>
        <time>2023-02-19T10:29:57Z</time>
      </trkpt>
      <trkpt lat="45.67978" lon="4.31654">
        <ele>455.3</ele>
        <time>2023-02-19T10:29:58Z</time>
      </trkpt>
      <trkpt lat="45.67978" lon="4.31655">
        <ele>455.3</ele>
        <time>2023-02-19T10:29:59Z</time>
      </trkpt>
      <trkpt lat="45.67977" lon="4.31656">
        <ele>455.2</ele>
        <time>2023-02-19T10:30:00Z</time>
      </trkpt>
      <trkpt lat="45.67976" lon="4.31657">
        <ele>455.2</ele>
        <time>2023-02-19T10:30:02Z</time>
      </trkpt>
      <trkpt lat="45.67975" lon="4.31657">
        <ele>455.2</ele>
        <time>2023-02-19T10:30:03Z</time>
      </trkpt>
      <trkpt lat="45.67974" lon="4.31658">
        <ele>455.1</ele>
        <time>2023-02-19T10:30:04Z</time>
      </trkpt>
      <trkpt lat="45.67974" lon="4.31659">
        <ele>455.1</ele>
        <time>2023-02-19T10:30:05Z</time>
      </trkpt>
      <trkpt lat="45.67973" lon="4.3166">
        <ele>455</ele>
        <time>2023-02-19T10:30:06Z</time>
      </trkpt>
      <trkpt lat="45.67971" lon="4.3166">
        <ele>455</ele>
        <time>2023-02-19T10:30:07Z</time>
      </trkpt>
      <trkpt lat="45.6797" lon="4.31661">
        <ele>454.9</ele>
        <time>2023-02-19T10:30:08Z</time>
      </trkpt>
      <trkpt lat="45.67969" lon="4.31662">
        <ele>454.9</ele>
        <time>2023-02-19T10:30:09Z</time>
      </trkpt>
      <trkpt lat="45.67968" lon="4.31663">
        <ele>454.8</ele>
        <time>2023-02-19T10:30:10Z</time>
      </trkpt>
      <trkpt lat="45.67967" lon="4.31664">
        <ele>454.8</ele>
        <time>2023-02-19T10:30:11Z</time>
      </trkpt>
      <trkpt lat="45.67965" lon="4.31665">
        <ele>454.7</ele>
        <time>2023-02-19T10:30:13Z</time>
      </trkpt>
      <trkpt lat="45.67964" lon="4.31665">
        <ele>454.6</ele>
        <time>2023-02-19T10:30:14Z</time>
      </trkpt>
      <trkpt lat="45.67963" lon="4.31665">
        <ele>454.6</ele>
        <time>2023-02-19T10:30:15Z</time>
      </trkpt>
      <trkpt lat="45.67962" lon="4.31665">
        <ele>454.6</ele>
        <time>2023-02-19T10:30:16Z</time>
      </trkpt>
      <trkpt lat="45.67961" lon="4.31665">
        <ele>454.5</ele>
        <time>2023-02-19T10:30:17Z</time>
      </trkpt>
      <trkpt lat="45.6796" lon="4.31665">
        <ele>454.5</ele>
        <time>2023-02-19T10:30:18Z</time>
      </trkpt>
      <trkpt lat="45.67959" lon="4.31665">
        <ele>454.4</ele>
        <time>2023-02-19T10:30:19Z</time>
      </trkpt>
      <trkpt lat="45.67957" lon="4.31665">
        <ele>454.4</ele>
        <time>2023-02-19T10:30:20Z</time>
      </trkpt>
      <trkpt lat="45.67955" lon="4.31665">
        <ele>454.3</ele>
        <time>2023-02-19T10:30:21Z</time>
      </trkpt>
      <trkpt lat="45.67954" lon="4.31665">
        <ele>454.2</ele>
        <time>2023-02-19T10:30:23Z</time>
      </trkpt>
      <trkpt lat="45.67953" lon="4.31665">
        <ele>454.1</ele>
        <time>2023-02-19T10:30:24Z</time>
      </trkpt>
      <trkpt lat="45.67951" lon="4.31664">
        <ele>454.1</ele>
        <time>2023-02-19T10:30:25Z</time>
      </trkpt>
      <trkpt lat="45.6795" lon="4.31664">
        <ele>454</ele>
        <time>2023-02-19T10:30:26Z</time>
      </trkpt>
      <trkpt lat="45.67949" lon="4.31663">
        <ele>454</ele>
        <time>2023-02-19T10:30:27Z</time>
      </trkpt>
      <trkpt lat="45.67949" lon="4.31663">
        <ele>453.9</ele>
        <time>2023-02-19T10:30:28Z</time>
      </trkpt>
      <trkpt lat="45.67947" lon="4.31663">
        <ele>453.8</ele>
        <time>2023-02-19T10:30:29Z</time>
      </trkpt>
      <trkpt lat="45.67946" lon="4.31663">
        <ele>453.8</ele>
        <time>2023-02-19T10:30:30Z</time>
      </trkpt>
      <trkpt lat="45.67945" lon="4.31663">
        <ele>453.7</ele>
        <time>2023-02-19T10:30:31Z</time>
      </trkpt>
      <trkpt lat="45.67943" lon="4.31663">
        <ele>453.6</ele>
        <time>2023-02-19T10:30:32Z</time>
      </trkpt>
      <trkpt lat="45.67941" lon="4.31663">
        <ele>453.5</ele>
        <time>2023-02-19T10:30:34Z</time>
      </trkpt>
      <trkpt lat="45.67939" lon="4.31663">
        <ele>453.4</ele>
        <time>2023-02-19T10:30:35Z</time>
      </trkpt>
      <trkpt lat="45.67938" lon="4.31663">
        <ele>453.3</ele>
        <time>2023-02-19T10:30:36Z</time>
      </trkpt>
      <trkpt lat="45.67936" lon="4.31664">
        <ele>453.2</ele>
        <time>2023-02-19T10:30:37Z</time>
      </trkpt>
      <trkpt lat="45.67934" lon="4.31664">
        <ele>453.1</ele>
        <time>2023-02-19T10:30:38Z</time>
      </trkpt>
      <trkpt lat="45.67933" lon="4.31665">
        <ele>453.1</ele>
        <time>2023-02-19T10:30:39Z</time>
      </trkpt>
      <trkpt lat="45.67932" lon="4.31665">
        <ele>453</ele>
        <time>2023-02-19T10:30:40Z</time>
      </trkpt>
      <trkpt lat="45.6793" lon="4.31666">
        <ele>452.9</ele>
        <time>2023-02-19T10:30:41Z</time>
      </trkpt>
      <trkpt lat="45.67928" lon="4.31666">
        <ele>452.8</ele>
        <time>2023-02-19T10:30:42Z</time>
      </trkpt>
      <trkpt lat="45.67926" lon="4.31667">
        <ele>452.7</ele>
        <time>2023-02-19T10:30:43Z</time>
      </trkpt>
      <trkpt lat="45.67925" lon="4.31667">
        <ele>452.6</ele>
        <time>2023-02-19T10:30:45Z</time>
      </trkpt>
      <trkpt lat="45.67923" lon="4.31668">
        <ele>452.6</ele>
        <time>2023-02-19T10:30:46Z</time>
      </trkpt>
      <trkpt lat="45.67921" lon="4.31669">
        <ele>452.5</ele>
        <time>2023-02-19T10:30:47Z</time>
      </trkpt>
      <trkpt lat="45.6792" lon="4.3167">
        <ele>452.4</ele>
        <time>2023-02-19T10:30:48Z</time>
      </trkpt>
      <trkpt lat="45.67919" lon="4.31671">
        <ele>452.3</ele>
        <time>2023-02-19T10:30:49Z</time>
      </trkpt>
      <trkpt lat="45.67917" lon="4.31672">
        <ele>452.2</ele>
        <time>2023-02-19T10:30:50Z</time>
      </trkpt>
      <trkpt lat="45.67915" lon="4.31673">
        <ele>452.1</ele>
        <time>2023-02-19T10:30:51Z</time>
      </trkpt>
      <trkpt lat="45.67914" lon="4.31673">
        <ele>452.1</ele>
        <time>2023-02-19T10:30:52Z</time>
      </trkpt>
      <trkpt lat="45.67913" lon="4.31674">
        <ele>452</ele>
        <time>2023-02-19T10:30:53Z</time>
      </trkpt>
      <trkpt lat="45.67911" lon="4.31674">
        <ele>451.9</ele>
        <time>2023-02-19T10:30:54Z</time>
      </trkpt>
      <trkpt lat="45.6791" lon="4.31674">
        <ele>451.8</ele>
        <time>2023-02-19T10:30:55Z</time>
      </trkpt>
      <trkpt lat="45.67908" lon="4.31674">
        <ele>451.7</ele>
        <time>2023-02-19T10:30:56Z</time>
      </trkpt>
      <trkpt lat="45.67906" lon="4.31674">
        <ele>451.6</ele>
        <time>2023-02-19T10:30:58Z</time>
      </trkpt>
      <trkpt lat="45.67905" lon="4.31674">
        <ele>451.4</ele>
        <time>2023-02-19T10:30:59Z</time>
      </trkpt>
      <trkpt lat="45.67903" lon="4.31674">
        <ele>451.3</ele>
        <time>2023-02-19T10:31:00Z</time>
      </trkpt>
      <trkpt lat="45.67901" lon="4.31673">
        <ele>451.2</ele>
        <time>2023-02-19T10:31:01Z</time>
      </trkpt>
      <trkpt lat="45.679" lon="4.31673">
        <ele>451.1</ele>
        <time>2023-02-19T10:31:02Z</time>
      </trkpt>
      <trkpt lat="45.67898" lon="4.31672">
        <ele>451</ele>
        <time>2023-02-19T10:31:03Z</time>
      </trkpt>
      <trkpt lat="45.67896" lon="4.31672">
        <ele>450.9</ele>
        <time>2023-02-19T10:31:04Z</time>
      </trkpt>
      <trkpt lat="45.67895" lon="4.31671">
        <ele>450.7</ele>
        <time>2023-02-19T10:31:06Z</time>
      </trkpt>
      <trkpt lat="45.67893" lon="4.3167">
        <ele>450.6</ele>
        <time>2023-02-19T10:31:07Z</time>
      </trkpt>
      <trkpt lat="45.67892" lon="4.3167">
        <ele>450.5</ele>
        <time>2023-02-19T10:31:08Z</time>
      </trkpt>
      <trkpt lat="45.6789" lon="4.31669">
        <ele>450.4</ele>
        <time>2023-02-19T10:31:09Z</time>
      </trkpt>
      <trkpt lat="45.67888" lon="4.31669">
        <ele>450.3</ele>
        <time>2023-02-19T10:31:10Z</time>
      </trkpt>
      <trkpt lat="45.67887" lon="4.31668">
        <ele>450.2</ele>
        <time>2023-02-19T10:31:11Z</time>
      </trkpt>
      <trkpt lat="45.67885" lon="4.31668">
        <ele>450</ele>
        <time>2023-02-19T10:31:12Z</time>
      </trkpt>
      <trkpt lat="45.67883" lon="4.31668">
        <ele>449.9</ele>
        <time>2023-02-19T10:31:14Z</time>
      </trkpt>
      <trkpt lat="45.67882" lon="4.31668">
        <ele>449.8</ele>
        <time>2023-02-19T10:31:15Z</time>
      </trkpt>
      <trkpt lat="45.6788" lon="4.31668">
        <ele>449.7</ele>
        <time>2023-02-19T10:31:16Z</time>
      </trkpt>
      <trkpt lat="45.67879" lon="4.31668">
        <ele>449.6</ele>
        <time>2023-02-19T10:31:17Z</time>
      </trkpt>
      <trkpt lat="45.67877" lon="4.31668">
        <ele>449.5</ele>
        <time>2023-02-19T10:31:18Z</time>
      </trkpt>
      <trkpt lat="45.67876" lon="4.31667">
        <ele>449.4</ele>
        <time>2023-02-19T10:31:19Z</time>
      </trkpt>
      <trkpt lat="45.67874" lon="4.31667">
        <ele>449.3</ele>
        <time>2023-02-19T10:31:20Z</time>
      </trkpt>
      <trkpt lat="45.67873" lon="4.31667">
        <ele>449.2</ele>
        <time>2023-02-19T10:31:21Z</time>
      </trkpt>
      <trkpt lat="45.67871" lon="4.31667">
        <ele>449.1</ele>
        <time>2023-02-19T10:31:22Z</time>
      </trkpt>
      <trkpt lat="45.67869" lon="4.31668">
        <ele>448.9</ele>
        <time>2023-02-19T10:31:24Z</time>
      </trkpt>
      <trkpt lat="45.67868" lon="4.31668">
        <ele>448.8</ele>
        <time>2023-02-19T10:31:25Z</time>
      </trkpt>
      <trkpt lat="45.67868" lon="4.31668">
        <ele>448.8</ele>
        <time>2023-02-19T10:31:26Z</time>
      </trkpt>
      <trkpt lat="45.67866" lon="4.31669">
        <ele>448.7</ele>
        <time>2023-02-19T10:31:27Z</time>
      </trkpt>
      <trkpt lat="45.67865" lon="4.31669">
        <ele>448.6</ele>
        <time>2023-02-19T10:31:28Z</time>
      </trkpt>
      <trkpt lat="45.67864" lon="4.3167">
        <ele>448.5</ele>
        <time>2023-02-19T10:31:29Z</time>
      </trkpt>
      <trkpt lat="45.67863" lon="4.3167">
        <ele>448.4</ele>
        <time>2023-02-19T10:31:30Z</time>
      </trkpt>
      <trkpt lat="45.67862" lon="4.31671">
        <ele>448.3</ele>
        <time>2023-02-19T10:31:31Z</time>
      </trkpt>
      <trkpt lat="45.67861" lon="4.31671">
        <ele>448.2</ele>
        <time>2023-02-19T10:31:32Z</time>
      </trkpt>
      <trkpt lat="45.67858" lon="4.31672">
        <ele>448</ele>
        <time>2023-02-19T10:31:33Z</time>
      </trkpt>
      <trkpt lat="45.67857" lon="4.31672">
        <ele>447.9</ele>
        <time>2023-02-19T10:31:35Z</time>
      </trkpt>
      <trkpt lat="45.67856" lon="4.31673">
        <ele>447.8</ele>
        <time>2023-02-19T10:31:36Z</time>
      </trkpt>
      <trkpt lat="45.67855" lon="4.31673">
        <ele>447.7</ele>
        <time>2023-02-19T10:31:37Z</time>
      </trkpt>
      <trkpt lat="45.67854" lon="4.31673">
        <ele>447.6</ele>
        <time>2023-02-19T10:31:38Z</time>
      </trkpt>
      <trkpt lat="45.67852" lon="4.31673">
        <ele>447.5</ele>
        <time>2023-02-19T10:31:39Z</time>
      </trkpt>
      <trkpt lat="45.67851" lon="4.31674">
        <ele>447.4</ele>
        <time>2023-02-19T10:31:40Z</time>
      </trkpt>
      <trkpt lat="45.6785" lon="4.31674">
        <ele>447.4</ele>
        <time>2023-02-19T10:31:41Z</time>
      </trkpt>
      <trkpt lat="45.67849" lon="4.31674">
        <ele>447.3</ele>
        <time>2023-02-19T10:31:42Z</time>
      </trkpt>
      <trkpt lat="45.67847" lon="4.31674">
        <ele>447.2</ele>
        <time>2023-02-19T10:31:44Z</time>
      </trkpt>
      <trkpt lat="45.67846" lon="4.31674">
        <ele>447.1</ele>
        <time>2023-02-19T10:31:45Z</time>
      </trkpt>
      <trkpt lat="45.67845" lon="4.31674">
        <ele>447</ele>
        <time>2023-02-19T10:31:46Z</time>
      </trkpt>
      <trkpt lat="45.67844" lon="4.31674">
        <ele>446.9</ele>
        <time>2023-02-19T10:31:47Z</time>
      </trkpt>
      <trkpt lat="45.67843" lon="4.31674">
        <ele>446.8</ele>
        <time>2023-02-19T10:31:48Z</time>
      </trkpt>
      <trkpt lat="45.67841" lon="4.31674">
        <ele>446.7</ele>
        <time>2023-02-19T10:31:49Z</time>
      </trkpt>
      <trkpt lat="45.67839" lon="4.31672">
        <ele>446.5</ele>
        <time>2023-02-19T10:31:50Z</time>
      </trkpt>
      <trkpt lat="45.67837" lon="4.31672">
        <ele>446.5</ele>
        <time>2023-02-19T10:31:51Z</time>
      </trkpt>
      <trkpt lat="45.67836" lon="4.31671">
        <ele>446.3</ele>
        <time>2023-02-19T10:31:52Z</time>
      </trkpt>
      <trkpt lat="45.67834" lon="4.3167">
        <ele>446.2</ele>
        <time>2023-02-19T10:31:54Z</time>
      </trkpt>
      <trkpt lat="45.67833" lon="4.3167">
        <ele>446.2</ele>
        <time>2023-02-19T10:31:55Z</time>
      </trkpt>
      <trkpt lat="45.67831" lon="4.31669">
        <ele>446.1</ele>
        <time>2023-02-19T10:31:56Z</time>
      </trkpt>
      <trkpt lat="45.67828" lon="4.31669">
        <ele>445.9</ele>
        <time>2023-02-19T10:31:58Z</time>
      </trkpt>
      <trkpt lat="45.67827" lon="4.31669">
        <ele>445.8</ele>
        <time>2023-02-19T10:31:59Z</time>
      </trkpt>
      <trkpt lat="45.67826" lon="4.31669">
        <ele>445.7</ele>
        <time>2023-02-19T10:32:00Z</time>
      </trkpt>
      <trkpt lat="45.67824" lon="4.31668">
        <ele>445.6</ele>
        <time>2023-02-19T10:32:01Z</time>
      </trkpt>
      <trkpt lat="45.67822" lon="4.31668">
        <ele>445.5</ele>
        <time>2023-02-19T10:32:02Z</time>
      </trkpt>
      <trkpt lat="45.67821" lon="4.31667">
        <ele>445.4</ele>
        <time>2023-02-19T10:32:03Z</time>
      </trkpt>
      <trkpt lat="45.67819" lon="4.31666">
        <ele>445.3</ele>
        <time>2023-02-19T10:32:04Z</time>
      </trkpt>
      <trkpt lat="45.67818" lon="4.31666">
        <ele>445.2</ele>
        <time>2023-02-19T10:32:05Z</time>
      </trkpt>
      <trkpt lat="45.67817" lon="4.31665">
        <ele>445.1</ele>
        <time>2023-02-19T10:32:06Z</time>
      </trkpt>
      <trkpt lat="45.67815" lon="4.31664">
        <ele>445.1</ele>
        <time>2023-02-19T10:32:07Z</time>
      </trkpt>
      <trkpt lat="45.67814" lon="4.31664">
        <ele>445</ele>
        <time>2023-02-19T10:32:09Z</time>
      </trkpt>
      <trkpt lat="45.67813" lon="4.31663">
        <ele>444.9</ele>
        <time>2023-02-19T10:32:10Z</time>
      </trkpt>
      <trkpt lat="45.67811" lon="4.31662">
        <ele>444.8</ele>
        <time>2023-02-19T10:32:11Z</time>
      </trkpt>
      <trkpt lat="45.6781" lon="4.31661">
        <ele>444.7</ele>
        <time>2023-02-19T10:32:12Z</time>
      </trkpt>
      <trkpt lat="45.67809" lon="4.3166">
        <ele>444.7</ele>
        <time>2023-02-19T10:32:13Z</time>
      </trkpt>
      <trkpt lat="45.67808" lon="4.31659">
        <ele>444.6</ele>
        <time>2023-02-19T10:32:14Z</time>
      </trkpt>
      <trkpt lat="45.67806" lon="4.31658">
        <ele>444.5</ele>
        <time>2023-02-19T10:32:15Z</time>
      </trkpt>
      <trkpt lat="45.67805" lon="4.31657">
        <ele>444.4</ele>
        <time>2023-02-19T10:32:17Z</time>
      </trkpt>
      <trkpt lat="45.67803" lon="4.31657">
        <ele>444.4</ele>
        <time>2023-02-19T10:32:18Z</time>
      </trkpt>
      <trkpt lat="45.67801" lon="4.31657">
        <ele>444.3</ele>
        <time>2023-02-19T10:32:19Z</time>
      </trkpt>
      <trkpt lat="45.678" lon="4.31657">
        <ele>444.2</ele>
        <time>2023-02-19T10:32:20Z</time>
      </trkpt>
      <trkpt lat="45.67798" lon="4.31656">
        <ele>444.1</ele>
        <time>2023-02-19T10:32:21Z</time>
      </trkpt>
      <trkpt lat="45.67795" lon="4.31656">
        <ele>443.9</ele>
        <time>2023-02-19T10:32:22Z</time>
      </trkpt>
      <trkpt lat="45.67794" lon="4.31655">
        <ele>443.9</ele>
        <time>2023-02-19T10:32:23Z</time>
      </trkpt>
      <trkpt lat="45.67792" lon="4.31654">
        <ele>443.8</ele>
        <time>2023-02-19T10:32:24Z</time>
      </trkpt>
      <trkpt lat="45.67791" lon="4.31654">
        <ele>443.7</ele>
        <time>2023-02-19T10:32:25Z</time>
      </trkpt>
      <trkpt lat="45.67788" lon="4.31653">
        <ele>443.6</ele>
        <time>2023-02-19T10:32:26Z</time>
      </trkpt>
      <trkpt lat="45.67787" lon="4.31653">
        <ele>443.5</ele>
        <time>2023-02-19T10:32:27Z</time>
      </trkpt>
      <trkpt lat="45.67786" lon="4.31652">
        <ele>443.5</ele>
        <time>2023-02-19T10:32:29Z</time>
      </trkpt>
      <trkpt lat="45.67784" lon="4.31652">
        <ele>443.4</ele>
        <time>2023-02-19T10:32:30Z</time>
      </trkpt>
      <trkpt lat="45.67783" lon="4.31651">
        <ele>443.3</ele>
        <time>2023-02-19T10:32:31Z</time>
      </trkpt>
      <trkpt lat="45.67781" lon="4.3165">
        <ele>443.2</ele>
        <time>2023-02-19T10:32:32Z</time>
      </trkpt>
      <trkpt lat="45.6778" lon="4.31649">
        <ele>443.2</ele>
        <time>2023-02-19T10:32:33Z</time>
      </trkpt>
      <trkpt lat="45.67778" lon="4.31648">
        <ele>443.1</ele>
        <time>2023-02-19T10:32:34Z</time>
      </trkpt>
      <trkpt lat="45.67777" lon="4.31648">
        <ele>443</ele>
        <time>2023-02-19T10:32:35Z</time>
      </trkpt>
      <trkpt lat="45.67775" lon="4.31647">
        <ele>443</ele>
        <time>2023-02-19T10:32:36Z</time>
      </trkpt>
      <trkpt lat="45.67774" lon="4.31646">
        <ele>442.9</ele>
        <time>2023-02-19T10:32:37Z</time>
      </trkpt>
      <trkpt lat="45.67772" lon="4.31645">
        <ele>442.8</ele>
        <time>2023-02-19T10:32:39Z</time>
      </trkpt>
      <trkpt lat="45.67771" lon="4.31644">
        <ele>442.8</ele>
        <time>2023-02-19T10:32:40Z</time>
      </trkpt>
      <trkpt lat="45.6777" lon="4.31643">
        <ele>442.7</ele>
        <time>2023-02-19T10:32:41Z</time>
      </trkpt>
      <trkpt lat="45.67769" lon="4.31642">
        <ele>442.6</ele>
        <time>2023-02-19T10:32:42Z</time>
      </trkpt>
      <trkpt lat="45.67768" lon="4.31641">
        <ele>442.6</ele>
        <time>2023-02-19T10:32:43Z</time>
      </trkpt>
      <trkpt lat="45.67766" lon="4.3164">
        <ele>442.4</ele>
        <time>2023-02-19T10:32:44Z</time>
      </trkpt>
      <trkpt lat="45.67765" lon="4.31639">
        <ele>442.4</ele>
        <time>2023-02-19T10:32:45Z</time>
      </trkpt>
      <trkpt lat="45.67764" lon="4.31638">
        <ele>442.4</ele>
        <time>2023-02-19T10:32:46Z</time>
      </trkpt>
      <trkpt lat="45.67763" lon="4.31637">
        <ele>442.2</ele>
        <time>2023-02-19T10:32:47Z</time>
      </trkpt>
      <trkpt lat="45.67762" lon="4.31636">
        <ele>442.2</ele>
        <time>2023-02-19T10:32:49Z</time>
      </trkpt>
      <trkpt lat="45.67761" lon="4.31635">
        <ele>442.1</ele>
        <time>2023-02-19T10:32:50Z</time>
      </trkpt>
      <trkpt lat="45.67759" lon="4.31634">
        <ele>442</ele>
        <time>2023-02-19T10:32:51Z</time>
      </trkpt>
      <trkpt lat="45.67758" lon="4.31633">
        <ele>442</ele>
        <time>2023-02-19T10:32:53Z</time>
      </trkpt>
      <trkpt lat="45.67757" lon="4.31632">
        <ele>441.9</ele>
        <time>2023-02-19T10:32:54Z</time>
      </trkpt>
      <trkpt lat="45.67756" lon="4.31631">
        <ele>441.8</ele>
        <time>2023-02-19T10:32:55Z</time>
      </trkpt>
      <trkpt lat="45.67755" lon="4.3163">
        <ele>441.7</ele>
        <time>2023-02-19T10:32:56Z</time>
      </trkpt>
      <trkpt lat="45.67753" lon="4.31628">
        <ele>441.6</ele>
        <time>2023-02-19T10:32:57Z</time>
      </trkpt>
      <trkpt lat="45.67753" lon="4.31628">
        <ele>441.5</ele>
        <time>2023-02-19T10:32:58Z</time>
      </trkpt>
      <trkpt lat="45.67752" lon="4.31627">
        <ele>441.5</ele>
        <time>2023-02-19T10:32:59Z</time>
      </trkpt>
      <trkpt lat="45.6775" lon="4.31627">
        <ele>441.4</ele>
        <time>2023-02-19T10:33:01Z</time>
      </trkpt>
      <trkpt lat="45.67749" lon="4.31626">
        <ele>441.3</ele>
        <time>2023-02-19T10:33:02Z</time>
      </trkpt>
      <trkpt lat="45.67747" lon="4.31626">
        <ele>441.1</ele>
        <time>2023-02-19T10:33:03Z</time>
      </trkpt>
      <trkpt lat="45.67746" lon="4.31627">
        <ele>441</ele>
        <time>2023-02-19T10:33:04Z</time>
      </trkpt>
      <trkpt lat="45.67743" lon="4.31627">
        <ele>440.8</ele>
        <time>2023-02-19T10:33:05Z</time>
      </trkpt>
      <trkpt lat="45.67742" lon="4.31627">
        <ele>440.7</ele>
        <time>2023-02-19T10:33:06Z</time>
      </trkpt>
      <trkpt lat="45.67739" lon="4.31627">
        <ele>440.4</ele>
        <time>2023-02-19T10:33:07Z</time>
      </trkpt>
      <trkpt lat="45.67738" lon="4.31627">
        <ele>440.3</ele>
        <time>2023-02-19T10:33:08Z</time>
      </trkpt>
      <trkpt lat="45.67736" lon="4.31627">
        <ele>440.2</ele>
        <time>2023-02-19T10:33:09Z</time>
      </trkpt>
      <trkpt lat="45.67734" lon="4.31627">
        <ele>440</ele>
        <time>2023-02-19T10:33:11Z</time>
      </trkpt>
      <trkpt lat="45.67732" lon="4.31627">
        <ele>439.8</ele>
        <time>2023-02-19T10:33:12Z</time>
      </trkpt>
      <trkpt lat="45.67731" lon="4.31627">
        <ele>439.7</ele>
        <time>2023-02-19T10:33:13Z</time>
      </trkpt>
      <trkpt lat="45.67729" lon="4.31627">
        <ele>439.6</ele>
        <time>2023-02-19T10:33:14Z</time>
      </trkpt>
      <trkpt lat="45.67728" lon="4.31627">
        <ele>439.4</ele>
        <time>2023-02-19T10:33:15Z</time>
      </trkpt>
      <trkpt lat="45.67726" lon="4.31628">
        <ele>439.3</ele>
        <time>2023-02-19T10:33:16Z</time>
      </trkpt>
      <trkpt lat="45.67724" lon="4.31628">
        <ele>439.1</ele>
        <time>2023-02-19T10:33:18Z</time>
      </trkpt>
      <trkpt lat="45.67723" lon="4.31629">
        <ele>439</ele>
        <time>2023-02-19T10:33:19Z</time>
      </trkpt>
      <trkpt lat="45.67721" lon="4.31629">
        <ele>438.8</ele>
        <time>2023-02-19T10:33:20Z</time>
      </trkpt>
      <trkpt lat="45.6772" lon="4.3163">
        <ele>438.7</ele>
        <time>2023-02-19T10:33:21Z</time>
      </trkpt>
      <trkpt lat="45.67719" lon="4.31632">
        <ele>438.6</ele>
        <time>2023-02-19T10:33:22Z</time>
      </trkpt>
      <trkpt lat="45.67717" lon="4.31633">
        <ele>438.4</ele>
        <time>2023-02-19T10:33:23Z</time>
      </trkpt>
      <trkpt lat="45.67716" lon="4.31635">
        <ele>438.3</ele>
        <time>2023-02-19T10:33:24Z</time>
      </trkpt>
      <trkpt lat="45.67712" lon="4.31639">
        <ele>437.9</ele>
        <time>2023-02-19T10:33:26Z</time>
      </trkpt>
      <trkpt lat="45.67711" lon="4.31641">
        <ele>437.8</ele>
        <time>2023-02-19T10:33:28Z</time>
      </trkpt>
      <trkpt lat="45.67709" lon="4.31643">
        <ele>437.7</ele>
        <time>2023-02-19T10:33:29Z</time>
      </trkpt>
      <trkpt lat="45.67708" lon="4.31644">
        <ele>437.5</ele>
        <time>2023-02-19T10:33:30Z</time>
      </trkpt>
      <trkpt lat="45.67705" lon="4.31648">
        <ele>437.3</ele>
        <time>2023-02-19T10:33:31Z</time>
      </trkpt>
      <trkpt lat="45.67704" lon="4.31649">
        <ele>437.2</ele>
        <time>2023-02-19T10:33:32Z</time>
      </trkpt>
      <trkpt lat="45.67702" lon="4.31652">
        <ele>437</ele>
        <time>2023-02-19T10:33:33Z</time>
      </trkpt>
      <trkpt lat="45.67701" lon="4.31653">
        <ele>436.9</ele>
        <time>2023-02-19T10:33:34Z</time>
      </trkpt>
      <trkpt lat="45.677" lon="4.31655">
        <ele>436.8</ele>
        <time>2023-02-19T10:33:35Z</time>
      </trkpt>
      <trkpt lat="45.67699" lon="4.31657">
        <ele>436.6</ele>
        <time>2023-02-19T10:33:37Z</time>
      </trkpt>
      <trkpt lat="45.67698" lon="4.31659">
        <ele>436.5</ele>
        <time>2023-02-19T10:33:38Z</time>
      </trkpt>
      <trkpt lat="45.67697" lon="4.31661">
        <ele>436.4</ele>
        <time>2023-02-19T10:33:39Z</time>
      </trkpt>
      <trkpt lat="45.67696" lon="4.31663">
        <ele>436.3</ele>
        <time>2023-02-19T10:33:40Z</time>
      </trkpt>
      <trkpt lat="45.67696" lon="4.31665">
        <ele>436.2</ele>
        <time>2023-02-19T10:33:41Z</time>
      </trkpt>
      <trkpt lat="45.67695" lon="4.31668">
        <ele>436</ele>
        <time>2023-02-19T10:33:42Z</time>
      </trkpt>
      <trkpt lat="45.67694" lon="4.3167">
        <ele>435.9</ele>
        <time>2023-02-19T10:33:43Z</time>
      </trkpt>
      <trkpt lat="45.67694" lon="4.31672">
        <ele>435.8</ele>
        <time>2023-02-19T10:33:44Z</time>
      </trkpt>
      <trkpt lat="45.67694" lon="4.31675">
        <ele>435.7</ele>
        <time>2023-02-19T10:33:45Z</time>
      </trkpt>
      <trkpt lat="45.67693" lon="4.31677">
        <ele>435.6</ele>
        <time>2023-02-19T10:33:46Z</time>
      </trkpt>
      <trkpt lat="45.67693" lon="4.31679">
        <ele>435.4</ele>
        <time>2023-02-19T10:33:47Z</time>
      </trkpt>
      <trkpt lat="45.67693" lon="4.31683">
        <ele>435.2</ele>
        <time>2023-02-19T10:33:48Z</time>
      </trkpt>
      <trkpt lat="45.67692" lon="4.31685">
        <ele>435.1</ele>
        <time>2023-02-19T10:33:50Z</time>
      </trkpt>
      <trkpt lat="45.67692" lon="4.31687">
        <ele>435</ele>
        <time>2023-02-19T10:33:51Z</time>
      </trkpt>
      <trkpt lat="45.67692" lon="4.31689">
        <ele>434.9</ele>
        <time>2023-02-19T10:33:53Z</time>
      </trkpt>
      <trkpt lat="45.67691" lon="4.31691">
        <ele>434.8</ele>
        <time>2023-02-19T10:33:54Z</time>
      </trkpt>
      <trkpt lat="45.67691" lon="4.31692">
        <ele>434.7</ele>
        <time>2023-02-19T10:33:55Z</time>
      </trkpt>
      <trkpt lat="45.67691" lon="4.31694">
        <ele>434.6</ele>
        <time>2023-02-19T10:33:56Z</time>
      </trkpt>
      <trkpt lat="45.6769" lon="4.31696">
        <ele>434.5</ele>
        <time>2023-02-19T10:33:57Z</time>
      </trkpt>
      <trkpt lat="45.67689" lon="4.31698">
        <ele>434.4</ele>
        <time>2023-02-19T10:33:58Z</time>
      </trkpt>
      <trkpt lat="45.67688" lon="4.31701">
        <ele>434.3</ele>
        <time>2023-02-19T10:33:59Z</time>
      </trkpt>
      <trkpt lat="45.67688" lon="4.31703">
        <ele>434.1</ele>
        <time>2023-02-19T10:34:00Z</time>
      </trkpt>
      <trkpt lat="45.67687" lon="4.31705">
        <ele>434</ele>
        <time>2023-02-19T10:34:01Z</time>
      </trkpt>
      <trkpt lat="45.67686" lon="4.31708">
        <ele>433.9</ele>
        <time>2023-02-19T10:34:02Z</time>
      </trkpt>
      <trkpt lat="45.67686" lon="4.3171">
        <ele>433.7</ele>
        <time>2023-02-19T10:34:03Z</time>
      </trkpt>
      <trkpt lat="45.67685" lon="4.31712">
        <ele>433.6</ele>
        <time>2023-02-19T10:34:05Z</time>
      </trkpt>
      <trkpt lat="45.67684" lon="4.31714">
        <ele>433.4</ele>
        <time>2023-02-19T10:34:06Z</time>
      </trkpt>
      <trkpt lat="45.67683" lon="4.31716">
        <ele>433.3</ele>
        <time>2023-02-19T10:34:07Z</time>
      </trkpt>
      <trkpt lat="45.67682" lon="4.31718">
        <ele>433.2</ele>
        <time>2023-02-19T10:34:08Z</time>
      </trkpt>
      <trkpt lat="45.67682" lon="4.3172">
        <ele>433</ele>
        <time>2023-02-19T10:34:09Z</time>
      </trkpt>
      <trkpt lat="45.67681" lon="4.31722">
        <ele>432.9</ele>
        <time>2023-02-19T10:34:10Z</time>
      </trkpt>
      <trkpt lat="45.6768" lon="4.31724">
        <ele>432.8</ele>
        <time>2023-02-19T10:34:11Z</time>
      </trkpt>
      <trkpt lat="45.6768" lon="4.31726">
        <ele>432.7</ele>
        <time>2023-02-19T10:34:12Z</time>
      </trkpt>
      <trkpt lat="45.67679" lon="4.31728">
        <ele>432.5</ele>
        <time>2023-02-19T10:34:13Z</time>
      </trkpt>
      <trkpt lat="45.67679" lon="4.3173">
        <ele>432.4</ele>
        <time>2023-02-19T10:34:14Z</time>
      </trkpt>
      <trkpt lat="45.67679" lon="4.31733">
        <ele>432.3</ele>
        <time>2023-02-19T10:34:15Z</time>
      </trkpt>
      <trkpt lat="45.67678" lon="4.31735">
        <ele>432.2</ele>
        <time>2023-02-19T10:34:16Z</time>
      </trkpt>
      <trkpt lat="45.67678" lon="4.31737">
        <ele>432</ele>
        <time>2023-02-19T10:34:18Z</time>
      </trkpt>
      <trkpt lat="45.67678" lon="4.31739">
        <ele>431.9</ele>
        <time>2023-02-19T10:34:19Z</time>
      </trkpt>
      <trkpt lat="45.67678" lon="4.31741">
        <ele>431.7</ele>
        <time>2023-02-19T10:34:20Z</time>
      </trkpt>
      <trkpt lat="45.67678" lon="4.31744">
        <ele>431.6</ele>
        <time>2023-02-19T10:34:21Z</time>
      </trkpt>
      <trkpt lat="45.67678" lon="4.31746">
        <ele>431.4</ele>
        <time>2023-02-19T10:34:22Z</time>
      </trkpt>
      <trkpt lat="45.67678" lon="4.31749">
        <ele>431.3</ele>
        <time>2023-02-19T10:34:23Z</time>
      </trkpt>
      <trkpt lat="45.67679" lon="4.31751">
        <ele>431.2</ele>
        <time>2023-02-19T10:34:24Z</time>
      </trkpt>
      <trkpt lat="45.67679" lon="4.31753">
        <ele>431</ele>
        <time>2023-02-19T10:34:25Z</time>
      </trkpt>
      <trkpt lat="45.6768" lon="4.31754">
        <ele>430.9</ele>
        <time>2023-02-19T10:34:26Z</time>
      </trkpt>
      <trkpt lat="45.6768" lon="4.31756">
        <ele>430.8</ele>
        <time>2023-02-19T10:34:28Z</time>
      </trkpt>
      <trkpt lat="45.67681" lon="4.31758">
        <ele>430.7</ele>
        <time>2023-02-19T10:34:29Z</time>
      </trkpt>
      <trkpt lat="45.67681" lon="4.31759">
        <ele>430.7</ele>
        <time>2023-02-19T10:34:30Z</time>
      </trkpt>
      <trkpt lat="45.67681" lon="4.3176">
        <ele>430.6</ele>
        <time>2023-02-19T10:34:31Z</time>
      </trkpt>
      <trkpt lat="45.67681" lon="4.31762">
        <ele>430.5</ele>
        <time>2023-02-19T10:34:32Z</time>
      </trkpt>
      <trkpt lat="45.67682" lon="4.31763">
        <ele>430.4</ele>
        <time>2023-02-19T10:34:33Z</time>
      </trkpt>
      <trkpt lat="45.67682" lon="4.31766">
        <ele>430.3</ele>
        <time>2023-02-19T10:34:34Z</time>
      </trkpt>
      <trkpt lat="45.67682" lon="4.31768">
        <ele>430.2</ele>
        <time>2023-02-19T10:34:35Z</time>
      </trkpt>
      <trkpt lat="45.67682" lon="4.31771">
        <ele>430.1</ele>
        <time>2023-02-19T10:34:36Z</time>
      </trkpt>
      <trkpt lat="45.67682" lon="4.31773">
        <ele>429.9</ele>
        <time>2023-02-19T10:34:38Z</time>
      </trkpt>
      <trkpt lat="45.67682" lon="4.31775">
        <ele>429.8</ele>
        <time>2023-02-19T10:34:39Z</time>
      </trkpt>
      <trkpt lat="45.67682" lon="4.31777">
        <ele>429.7</ele>
        <time>2023-02-19T10:34:40Z</time>
      </trkpt>
      <trkpt lat="45.67681" lon="4.31779">
        <ele>429.6</ele>
        <time>2023-02-19T10:34:41Z</time>
      </trkpt>
      <trkpt lat="45.67681" lon="4.31782">
        <ele>429.5</ele>
        <time>2023-02-19T10:34:42Z</time>
      </trkpt>
      <trkpt lat="45.6768" lon="4.31786">
        <ele>429.3</ele>
        <time>2023-02-19T10:34:43Z</time>
      </trkpt>
      <trkpt lat="45.6768" lon="4.31787">
        <ele>429.2</ele>
        <time>2023-02-19T10:34:44Z</time>
      </trkpt>
      <trkpt lat="45.67679" lon="4.31792">
        <ele>429</ele>
        <time>2023-02-19T10:34:45Z</time>
      </trkpt>
      <trkpt lat="45.67679" lon="4.31793">
        <ele>428.9</ele>
        <time>2023-02-19T10:34:46Z</time>
      </trkpt>
      <trkpt lat="45.67678" lon="4.31796">
        <ele>428.8</ele>
        <time>2023-02-19T10:34:47Z</time>
      </trkpt>
      <trkpt lat="45.67678" lon="4.31798">
        <ele>428.7</ele>
        <time>2023-02-19T10:34:49Z</time>
      </trkpt>
      <trkpt lat="45.67677" lon="4.318">
        <ele>428.6</ele>
        <time>2023-02-19T10:34:50Z</time>
      </trkpt>
      <trkpt lat="45.67677" lon="4.31803">
        <ele>428.5</ele>
        <time>2023-02-19T10:34:51Z</time>
      </trkpt>
      <trkpt lat="45.67677" lon="4.31805">
        <ele>428.5</ele>
        <time>2023-02-19T10:34:52Z</time>
      </trkpt>
      <trkpt lat="45.67676" lon="4.31807">
        <ele>428.4</ele>
        <time>2023-02-19T10:34:53Z</time>
      </trkpt>
      <trkpt lat="45.67675" lon="4.31811">
        <ele>428.3</ele>
        <time>2023-02-19T10:34:54Z</time>
      </trkpt>
      <trkpt lat="45.67675" lon="4.31812">
        <ele>428.3</ele>
        <time>2023-02-19T10:34:55Z</time>
      </trkpt>
      <trkpt lat="45.67675" lon="4.31814">
        <ele>428.2</ele>
        <time>2023-02-19T10:34:56Z</time>
      </trkpt>
      <trkpt lat="45.67674" lon="4.31817">
        <ele>428.2</ele>
        <time>2023-02-19T10:34:57Z</time>
      </trkpt>
      <trkpt lat="45.67673" lon="4.31821">
        <ele>428.2</ele>
        <time>2023-02-19T10:34:59Z</time>
      </trkpt>
      <trkpt lat="45.67672" lon="4.31823">
        <ele>428.1</ele>
        <time>2023-02-19T10:35:00Z</time>
      </trkpt>
      <trkpt lat="45.67672" lon="4.31826">
        <ele>428.1</ele>
        <time>2023-02-19T10:35:02Z</time>
      </trkpt>
      <trkpt lat="45.67672" lon="4.3183">
        <ele>428.2</ele>
        <time>2023-02-19T10:35:03Z</time>
      </trkpt>
      <trkpt lat="45.67672" lon="4.31831">
        <ele>428.2</ele>
        <time>2023-02-19T10:35:04Z</time>
      </trkpt>
      <trkpt lat="45.67672" lon="4.31836">
        <ele>428.2</ele>
        <time>2023-02-19T10:35:05Z</time>
      </trkpt>
      <trkpt lat="45.67672" lon="4.31838">
        <ele>428.2</ele>
        <time>2023-02-19T10:35:06Z</time>
      </trkpt>
      <trkpt lat="45.67673" lon="4.31841">
        <ele>428.2</ele>
        <time>2023-02-19T10:35:07Z</time>
      </trkpt>
      <trkpt lat="45.67673" lon="4.31843">
        <ele>428.3</ele>
        <time>2023-02-19T10:35:08Z</time>
      </trkpt>
      <trkpt lat="45.67674" lon="4.31847">
        <ele>428.3</ele>
        <time>2023-02-19T10:35:10Z</time>
      </trkpt>
      <trkpt lat="45.67674" lon="4.31848">
        <ele>428.3</ele>
        <time>2023-02-19T10:35:11Z</time>
      </trkpt>
      <trkpt lat="45.67675" lon="4.31852">
        <ele>428.3</ele>
        <time>2023-02-19T10:35:12Z</time>
      </trkpt>
      <trkpt lat="45.67676" lon="4.31853">
        <ele>428.3</ele>
        <time>2023-02-19T10:35:13Z</time>
      </trkpt>
      <trkpt lat="45.67676" lon="4.31856">
        <ele>428.4</ele>
        <time>2023-02-19T10:35:14Z</time>
      </trkpt>
      <trkpt lat="45.67676" lon="4.31857">
        <ele>428.4</ele>
        <time>2023-02-19T10:35:15Z</time>
      </trkpt>
      <trkpt lat="45.67677" lon="4.31862">
        <ele>428.4</ele>
        <time>2023-02-19T10:35:16Z</time>
      </trkpt>
      <trkpt lat="45.67677" lon="4.31863">
        <ele>428.4</ele>
        <time>2023-02-19T10:35:17Z</time>
      </trkpt>
      <trkpt lat="45.67678" lon="4.31867">
        <ele>428.4</ele>
        <time>2023-02-19T10:35:19Z</time>
      </trkpt>
      <trkpt lat="45.67678" lon="4.31868">
        <ele>428.4</ele>
        <time>2023-02-19T10:35:20Z</time>
      </trkpt>
      <trkpt lat="45.67679" lon="4.3187">
        <ele>428.5</ele>
        <time>2023-02-19T10:35:21Z</time>
      </trkpt>
      <trkpt lat="45.6768" lon="4.31872">
        <ele>428.5</ele>
        <time>2023-02-19T10:35:22Z</time>
      </trkpt>
      <trkpt lat="45.67681" lon="4.31876">
        <ele>428.5</ele>
        <time>2023-02-19T10:35:23Z</time>
      </trkpt>
      <trkpt lat="45.67682" lon="4.31877">
        <ele>428.5</ele>
        <time>2023-02-19T10:35:24Z</time>
      </trkpt>
      <trkpt lat="45.67683" lon="4.31881">
        <ele>428.5</ele>
        <time>2023-02-19T10:35:26Z</time>
      </trkpt>
      <trkpt lat="45.67683" lon="4.31883">
        <ele>428.5</ele>
        <time>2023-02-19T10:35:27Z</time>
      </trkpt>
      <trkpt lat="45.67684" lon="4.31885">
        <ele>428.6</ele>
        <time>2023-02-19T10:35:28Z</time>
      </trkpt>
      <trkpt lat="45.67685" lon="4.31888">
        <ele>428.6</ele>
        <time>2023-02-19T10:35:29Z</time>
      </trkpt>
      <trkpt lat="45.67686" lon="4.31889">
        <ele>428.6</ele>
        <time>2023-02-19T10:35:30Z</time>
      </trkpt>
      <trkpt lat="45.67687" lon="4.31893">
        <ele>428.6</ele>
        <time>2023-02-19T10:35:31Z</time>
      </trkpt>
      <trkpt lat="45.67688" lon="4.31894">
        <ele>428.6</ele>
        <time>2023-02-19T10:35:32Z</time>
      </trkpt>
      <trkpt lat="45.67689" lon="4.31896">
        <ele>428.6</ele>
        <time>2023-02-19T10:35:33Z</time>
      </trkpt>
      <trkpt lat="45.6769" lon="4.31898">
        <ele>428.7</ele>
        <time>2023-02-19T10:35:34Z</time>
      </trkpt>
      <trkpt lat="45.67691" lon="4.31899">
        <ele>428.7</ele>
        <time>2023-02-19T10:35:35Z</time>
      </trkpt>
      <trkpt lat="45.67691" lon="4.31901">
        <ele>428.7</ele>
        <time>2023-02-19T10:35:36Z</time>
      </trkpt>
      <trkpt lat="45.67692" lon="4.31902">
        <ele>428.7</ele>
        <time>2023-02-19T10:35:38Z</time>
      </trkpt>
      <trkpt lat="45.67693" lon="4.31903">
        <ele>428.7</ele>
        <time>2023-02-19T10:35:39Z</time>
      </trkpt>
      <trkpt lat="45.67693" lon="4.31904">
        <ele>428.7</ele>
        <time>2023-02-19T10:35:40Z</time>
      </trkpt>
      <trkpt lat="45.67694" lon="4.31907">
        <ele>428.7</ele>
        <time>2023-02-19T10:35:41Z</time>
      </trkpt>
      <trkpt lat="45.67695" lon="4.31908">
        <ele>428.7</ele>
        <time>2023-02-19T10:35:42Z</time>
      </trkpt>
      <trkpt lat="45.67695" lon="4.31909">
        <ele>428.7</ele>
        <time>2023-02-19T10:35:43Z</time>
      </trkpt>
      <trkpt lat="45.67696" lon="4.31912">
        <ele>428.8</ele>
        <time>2023-02-19T10:35:45Z</time>
      </trkpt>
      <trkpt lat="45.67697" lon="4.31914">
        <ele>428.8</ele>
        <time>2023-02-19T10:35:46Z</time>
      </trkpt>
      <trkpt lat="45.67697" lon="4.31917">
        <ele>428.8</ele>
        <time>2023-02-19T10:35:47Z</time>
      </trkpt>
      <trkpt lat="45.67698" lon="4.31918">
        <ele>428.8</ele>
        <time>2023-02-19T10:35:48Z</time>
      </trkpt>
      <trkpt lat="45.67698" lon="4.31919">
        <ele>428.8</ele>
        <time>2023-02-19T10:35:49Z</time>
      </trkpt>
      <trkpt lat="45.67699" lon="4.31922">
        <ele>428.8</ele>
        <time>2023-02-19T10:35:50Z</time>
      </trkpt>
      <trkpt lat="45.67699" lon="4.31923">
        <ele>428.8</ele>
        <time>2023-02-19T10:35:51Z</time>
      </trkpt>
      <trkpt lat="45.67699" lon="4.31924">
        <ele>428.8</ele>
        <time>2023-02-19T10:35:52Z</time>
      </trkpt>
      <trkpt lat="45.677" lon="4.31925">
        <ele>428.9</ele>
        <time>2023-02-19T10:35:53Z</time>
      </trkpt>
      <trkpt lat="45.677" lon="4.31927">
        <ele>428.9</ele>
        <time>2023-02-19T10:35:54Z</time>
      </trkpt>
      <trkpt lat="45.67701" lon="4.31929">
        <ele>428.1</ele>
        <time>2023-02-19T10:35:56Z</time>
      </trkpt>
      <trkpt lat="45.67701" lon="4.3193">
        <ele>428</ele>
        <time>2023-02-19T10:35:57Z</time>
      </trkpt>
      <trkpt lat="45.67702" lon="4.31932">
        <ele>427.9</ele>
        <time>2023-02-19T10:35:58Z</time>
      </trkpt>
      <trkpt lat="45.67702" lon="4.31933">
        <ele>427.8</ele>
        <time>2023-02-19T10:35:59Z</time>
      </trkpt>
      <trkpt lat="45.67702" lon="4.31935">
        <ele>427.7</ele>
        <time>2023-02-19T10:36:00Z</time>
      </trkpt>
      <trkpt lat="45.67702" lon="4.31937">
        <ele>427.6</ele>
        <time>2023-02-19T10:36:02Z</time>
      </trkpt>
      <trkpt lat="45.67702" lon="4.31938">
        <ele>427.6</ele>
        <time>2023-02-19T10:36:03Z</time>
      </trkpt>
      <trkpt lat="45.67701" lon="4.31939">
        <ele>427.6</ele>
        <time>2023-02-19T10:36:04Z</time>
      </trkpt>
      <trkpt lat="45.67701" lon="4.31939">
        <ele>427.6</ele>
        <time>2023-02-19T10:36:05Z</time>
      </trkpt>
      <trkpt lat="45.67702" lon="4.31938">
        <ele>427.5</ele>
        <time>2023-02-19T10:36:07Z</time>
      </trkpt>
      <trkpt lat="45.67702" lon="4.31937">
        <ele>427.5</ele>
        <time>2023-02-19T10:36:08Z</time>
      </trkpt>
      <trkpt lat="45.67702" lon="4.31936">
        <ele>427.5</ele>
        <time>2023-02-19T10:36:09Z</time>
      </trkpt>
      <trkpt lat="45.67703" lon="4.31937">
        <ele>427.5</ele>
        <time>2023-02-19T10:36:10Z</time>
      </trkpt>
      <trkpt lat="45.67703" lon="4.31937">
        <ele>427.5</ele>
        <time>2023-02-19T10:36:11Z</time>
      </trkpt>
      <trkpt lat="45.67704" lon="4.31937">
        <ele>427.4</ele>
        <time>2023-02-19T10:36:12Z</time>
      </trkpt>
      <trkpt lat="45.67704" lon="4.31938">
        <ele>427.4</ele>
        <time>2023-02-19T10:36:14Z</time>
      </trkpt>
      <trkpt lat="45.67705" lon="4.31939">
        <ele>427.4</ele>
        <time>2023-02-19T10:36:15Z</time>
      </trkpt>
      <trkpt lat="45.67705" lon="4.31941">
        <ele>427.4</ele>
        <time>2023-02-19T10:36:16Z</time>
      </trkpt>
      <trkpt lat="45.67704" lon="4.31942">
        <ele>427.4</ele>
        <time>2023-02-19T10:36:18Z</time>
      </trkpt>
      <trkpt lat="45.67704" lon="4.31943">
        <ele>427.4</ele>
        <time>2023-02-19T10:36:19Z</time>
      </trkpt>
      <trkpt lat="45.67704" lon="4.31944">
        <ele>427.4</ele>
        <time>2023-02-19T10:36:20Z</time>
      </trkpt>
      <trkpt lat="45.67704" lon="4.31946">
        <ele>427.4</ele>
        <time>2023-02-19T10:36:21Z</time>
      </trkpt>
      <trkpt lat="45.67704" lon="4.31949">
        <ele>427.4</ele>
        <time>2023-02-19T10:36:22Z</time>
      </trkpt>
      <trkpt lat="45.67704" lon="4.31952">
        <ele>427.5</ele>
        <time>2023-02-19T10:36:24Z</time>
      </trkpt>
      <trkpt lat="45.67704" lon="4.31953">
        <ele>427.5</ele>
        <time>2023-02-19T10:36:25Z</time>
      </trkpt>
      <trkpt lat="45.67704" lon="4.31955">
        <ele>427.6</ele>
        <time>2023-02-19T10:36:26Z</time>
      </trkpt>
      <trkpt lat="45.67704" lon="4.31956">
        <ele>427.6</ele>
        <time>2023-02-19T10:36:27Z</time>
      </trkpt>
      <trkpt lat="45.67704" lon="4.31958">
        <ele>427.7</ele>
        <time>2023-02-19T10:36:28Z</time>
      </trkpt>
      <trkpt lat="45.67703" lon="4.31959">
        <ele>427.7</ele>
        <time>2023-02-19T10:36:29Z</time>
      </trkpt>
      <trkpt lat="45.67703" lon="4.31961">
        <ele>427.8</ele>
        <time>2023-02-19T10:36:30Z</time>
      </trkpt>
      <trkpt lat="45.67703" lon="4.31962">
        <ele>427.9</ele>
        <time>2023-02-19T10:36:32Z</time>
      </trkpt>
      <trkpt lat="45.67702" lon="4.31963">
        <ele>427.9</ele>
        <time>2023-02-19T10:36:33Z</time>
      </trkpt>
      <trkpt lat="45.67702" lon="4.31964">
        <ele>428</ele>
        <time>2023-02-19T10:36:34Z</time>
      </trkpt>
      <trkpt lat="45.67701" lon="4.31965">
        <ele>428.1</ele>
        <time>2023-02-19T10:36:35Z</time>
      </trkpt>
      <trkpt lat="45.677" lon="4.31966">
        <ele>428.1</ele>
        <time>2023-02-19T10:36:36Z</time>
      </trkpt>
      <trkpt lat="45.67699" lon="4.31966">
        <ele>428.2</ele>
        <time>2023-02-19T10:36:37Z</time>
      </trkpt>
      <trkpt lat="45.67698" lon="4.31967">
        <ele>428.3</ele>
        <time>2023-02-19T10:36:38Z</time>
      </trkpt>
      <trkpt lat="45.67697" lon="4.31969">
        <ele>428.4</ele>
        <time>2023-02-19T10:36:39Z</time>
      </trkpt>
      <trkpt lat="45.67696" lon="4.31969">
        <ele>428.4</ele>
        <time>2023-02-19T10:36:41Z</time>
      </trkpt>
      <trkpt lat="45.67696" lon="4.3197">
        <ele>428.5</ele>
        <time>2023-02-19T10:36:42Z</time>
      </trkpt>
      <trkpt lat="45.67695" lon="4.31971">
        <ele>428.5</ele>
        <time>2023-02-19T10:36:43Z</time>
      </trkpt>
      <trkpt lat="45.67694" lon="4.31972">
        <ele>428.6</ele>
        <time>2023-02-19T10:36:44Z</time>
      </trkpt>
      <trkpt lat="45.67693" lon="4.31973">
        <ele>428.7</ele>
        <time>2023-02-19T10:36:45Z</time>
      </trkpt>
      <trkpt lat="45.67692" lon="4.31974">
        <ele>428.8</ele>
        <time>2023-02-19T10:36:47Z</time>
      </trkpt>
      <trkpt lat="45.67691" lon="4.31975">
        <ele>428.9</ele>
        <time>2023-02-19T10:36:48Z</time>
      </trkpt>
      <trkpt lat="45.6769" lon="4.31974">
        <ele>428.9</ele>
        <time>2023-02-19T10:36:49Z</time>
      </trkpt>
      <trkpt lat="45.67689" lon="4.31974">
        <ele>429</ele>
        <time>2023-02-19T10:36:50Z</time>
      </trkpt>
      <trkpt lat="45.67688" lon="4.31975">
        <ele>429</ele>
        <time>2023-02-19T10:36:52Z</time>
      </trkpt>
      <trkpt lat="45.67687" lon="4.31975">
        <ele>429.1</ele>
        <time>2023-02-19T10:36:53Z</time>
      </trkpt>
      <trkpt lat="45.67687" lon="4.31975">
        <ele>429.1</ele>
        <time>2023-02-19T10:36:54Z</time>
      </trkpt>
      <trkpt lat="45.67686" lon="4.31975">
        <ele>429.2</ele>
        <time>2023-02-19T10:36:55Z</time>
      </trkpt>
      <trkpt lat="45.67685" lon="4.31975">
        <ele>429.2</ele>
        <time>2023-02-19T10:36:56Z</time>
      </trkpt>
      <trkpt lat="45.67685" lon="4.31975">
        <ele>429.2</ele>
        <time>2023-02-19T10:36:57Z</time>
      </trkpt>
      <trkpt lat="45.67684" lon="4.31974">
        <ele>429.2</ele>
        <time>2023-02-19T10:36:59Z</time>
      </trkpt>
      <trkpt lat="45.67684" lon="4.31974">
        <ele>429.2</ele>
        <time>2023-02-19T10:37:00Z</time>
      </trkpt>
      <trkpt lat="45.67684" lon="4.31974">
        <ele>429.3</ele>
        <time>2023-02-19T10:37:01Z</time>
      </trkpt>
      <trkpt lat="45.67684" lon="4.31975">
        <ele>429.3</ele>
        <time>2023-02-19T10:37:02Z</time>
      </trkpt>
      <trkpt lat="45.67683" lon="4.31975">
        <ele>429.3</ele>
        <time>2023-02-19T10:37:03Z</time>
      </trkpt>
      <trkpt lat="45.67682" lon="4.31976">
        <ele>429.4</ele>
        <time>2023-02-19T10:37:05Z</time>
      </trkpt>
      <trkpt lat="45.67681" lon="4.31977">
        <ele>429.4</ele>
        <time>2023-02-19T10:37:06Z</time>
      </trkpt>
      <trkpt lat="45.6768" lon="4.31978">
        <ele>429.5</ele>
        <time>2023-02-19T10:37:07Z</time>
      </trkpt>
      <trkpt lat="45.67679" lon="4.31978">
        <ele>429.5</ele>
        <time>2023-02-19T10:37:08Z</time>
      </trkpt>
      <trkpt lat="45.67678" lon="4.31978">
        <ele>429.6</ele>
        <time>2023-02-19T10:37:09Z</time>
      </trkpt>
      <trkpt lat="45.67677" lon="4.31978">
        <ele>429.6</ele>
        <time>2023-02-19T10:37:11Z</time>
      </trkpt>
      <trkpt lat="45.67676" lon="4.31978">
        <ele>429.6</ele>
        <time>2023-02-19T10:37:12Z</time>
      </trkpt>
      <trkpt lat="45.67675" lon="4.31978">
        <ele>429.6</ele>
        <time>2023-02-19T10:37:13Z</time>
      </trkpt>
      <trkpt lat="45.67674" lon="4.31978">
        <ele>429.7</ele>
        <time>2023-02-19T10:37:14Z</time>
      </trkpt>
      <trkpt lat="45.67673" lon="4.31978">
        <ele>429.7</ele>
        <time>2023-02-19T10:37:16Z</time>
      </trkpt>
      <trkpt lat="45.67672" lon="4.31978">
        <ele>429.7</ele>
        <time>2023-02-19T10:37:17Z</time>
      </trkpt>
      <trkpt lat="45.67672" lon="4.31978">
        <ele>429.7</ele>
        <time>2023-02-19T10:37:19Z</time>
      </trkpt>
      <trkpt lat="45.67671" lon="4.31978">
        <ele>429.8</ele>
        <time>2023-02-19T10:37:20Z</time>
      </trkpt>
      <trkpt lat="45.6767" lon="4.31977">
        <ele>429.8</ele>
        <time>2023-02-19T10:37:21Z</time>
      </trkpt>
      <trkpt lat="45.67669" lon="4.31976">
        <ele>429.8</ele>
        <time>2023-02-19T10:37:22Z</time>
      </trkpt>
      <trkpt lat="45.67668" lon="4.31975">
        <ele>429.8</ele>
        <time>2023-02-19T10:37:24Z</time>
      </trkpt>
      <trkpt lat="45.67668" lon="4.31974">
        <ele>429.8</ele>
        <time>2023-02-19T10:37:25Z</time>
      </trkpt>
      <trkpt lat="45.67667" lon="4.31973">
        <ele>429.8</ele>
        <time>2023-02-19T10:37:26Z</time>
      </trkpt>
      <trkpt lat="45.67667" lon="4.31971">
        <ele>429.8</ele>
        <time>2023-02-19T10:37:27Z</time>
      </trkpt>
      <trkpt lat="45.67666" lon="4.3197">
        <ele>429.9</ele>
        <time>2023-02-19T10:37:29Z</time>
      </trkpt>
      <trkpt lat="45.67665" lon="4.31968">
        <ele>429.9</ele>
        <time>2023-02-19T10:37:30Z</time>
      </trkpt>
      <trkpt lat="45.67664" lon="4.31966">
        <ele>429.9</ele>
        <time>2023-02-19T10:37:31Z</time>
      </trkpt>
      <trkpt lat="45.67663" lon="4.31965">
        <ele>429.9</ele>
        <time>2023-02-19T10:37:32Z</time>
      </trkpt>
      <trkpt lat="45.67662" lon="4.31964">
        <ele>429.9</ele>
        <time>2023-02-19T10:37:33Z</time>
      </trkpt>
      <trkpt lat="45.6766" lon="4.31962">
        <ele>429.9</ele>
        <time>2023-02-19T10:37:34Z</time>
      </trkpt>
      <trkpt lat="45.67659" lon="4.31961">
        <ele>429.9</ele>
        <time>2023-02-19T10:37:35Z</time>
      </trkpt>
      <trkpt lat="45.67658" lon="4.31961">
        <ele>429.9</ele>
        <time>2023-02-19T10:37:36Z</time>
      </trkpt>
      <trkpt lat="45.67656" lon="4.31959">
        <ele>429.9</ele>
        <time>2023-02-19T10:37:38Z</time>
      </trkpt>
      <trkpt lat="45.67654" lon="4.31959">
        <ele>429.9</ele>
        <time>2023-02-19T10:37:39Z</time>
      </trkpt>
      <trkpt lat="45.67653" lon="4.31958">
        <ele>429.9</ele>
        <time>2023-02-19T10:37:40Z</time>
      </trkpt>
      <trkpt lat="45.67652" lon="4.31958">
        <ele>429.9</ele>
        <time>2023-02-19T10:37:42Z</time>
      </trkpt>
      <trkpt lat="45.6765" lon="4.31957">
        <ele>429.9</ele>
        <time>2023-02-19T10:37:43Z</time>
      </trkpt>
      <trkpt lat="45.67648" lon="4.31955">
        <ele>429.9</ele>
        <time>2023-02-19T10:37:44Z</time>
      </trkpt>
      <trkpt lat="45.67647" lon="4.31954">
        <ele>429.9</ele>
        <time>2023-02-19T10:37:45Z</time>
      </trkpt>
      <trkpt lat="45.67645" lon="4.31952">
        <ele>429.9</ele>
        <time>2023-02-19T10:37:46Z</time>
      </trkpt>
      <trkpt lat="45.67642" lon="4.31949">
        <ele>429.9</ele>
        <time>2023-02-19T10:37:48Z</time>
      </trkpt>
      <trkpt lat="45.67642" lon="4.31949">
        <ele>430</ele>
        <time>2023-02-19T10:37:49Z</time>
      </trkpt>
      <trkpt lat="45.67639" lon="4.31947">
        <ele>430</ele>
        <time>2023-02-19T10:37:50Z</time>
      </trkpt>
      <trkpt lat="45.67638" lon="4.31946">
        <ele>430</ele>
        <time>2023-02-19T10:37:51Z</time>
      </trkpt>
      <trkpt lat="45.67637" lon="4.31945">
        <ele>430</ele>
        <time>2023-02-19T10:37:52Z</time>
      </trkpt>
      <trkpt lat="45.67635" lon="4.31944">
        <ele>430</ele>
        <time>2023-02-19T10:37:53Z</time>
      </trkpt>
      <trkpt lat="45.67632" lon="4.31943">
        <ele>430.1</ele>
        <time>2023-02-19T10:37:54Z</time>
      </trkpt>
      <trkpt lat="45.67632" lon="4.31942">
        <ele>430.1</ele>
        <time>2023-02-19T10:37:55Z</time>
      </trkpt>
      <trkpt lat="45.6763" lon="4.31942">
        <ele>430.1</ele>
        <time>2023-02-19T10:37:56Z</time>
      </trkpt>
      <trkpt lat="45.67629" lon="4.31941">
        <ele>430.1</ele>
        <time>2023-02-19T10:37:58Z</time>
      </trkpt>
      <trkpt lat="45.67628" lon="4.31941">
        <ele>430.1</ele>
        <time>2023-02-19T10:37:59Z</time>
      </trkpt>
      <trkpt lat="45.67626" lon="4.31941">
        <ele>430.2</ele>
        <time>2023-02-19T10:38:00Z</time>
      </trkpt>
      <trkpt lat="45.67625" lon="4.3194">
        <ele>430.2</ele>
        <time>2023-02-19T10:38:01Z</time>
      </trkpt>
      <trkpt lat="45.67625" lon="4.3194">
        <ele>430.2</ele>
        <time>2023-02-19T10:38:02Z</time>
      </trkpt>
      <trkpt lat="45.67624" lon="4.31939">
        <ele>430.2</ele>
        <time>2023-02-19T10:38:03Z</time>
      </trkpt>
      <trkpt lat="45.67623" lon="4.31938">
        <ele>430.2</ele>
        <time>2023-02-19T10:38:04Z</time>
      </trkpt>
      <trkpt lat="45.67622" lon="4.31937">
        <ele>430.3</ele>
        <time>2023-02-19T10:38:05Z</time>
      </trkpt>
      <trkpt lat="45.67621" lon="4.31936">
        <ele>430.3</ele>
        <time>2023-02-19T10:38:07Z</time>
      </trkpt>
      <trkpt lat="45.6762" lon="4.31935">
        <ele>430.3</ele>
        <time>2023-02-19T10:38:08Z</time>
      </trkpt>
      <trkpt lat="45.67619" lon="4.31935">
        <ele>430.3</ele>
        <time>2023-02-19T10:38:09Z</time>
      </trkpt>
      <trkpt lat="45.67618" lon="4.31934">
        <ele>430.4</ele>
        <time>2023-02-19T10:38:10Z</time>
      </trkpt>
      <trkpt lat="45.67617" lon="4.31933">
        <ele>430.4</ele>
        <time>2023-02-19T10:38:11Z</time>
      </trkpt>
      <trkpt lat="45.67615" lon="4.31932">
        <ele>430.5</ele>
        <time>2023-02-19T10:38:12Z</time>
      </trkpt>
      <trkpt lat="45.67614" lon="4.31931">
        <ele>430.5</ele>
        <time>2023-02-19T10:38:13Z</time>
      </trkpt>
      <trkpt lat="45.67614" lon="4.31931">
        <ele>430.5</ele>
        <time>2023-02-19T10:38:14Z</time>
      </trkpt>
      <trkpt lat="45.67612" lon="4.3193">
        <ele>430.6</ele>
        <time>2023-02-19T10:38:16Z</time>
      </trkpt>
      <trkpt lat="45.67611" lon="4.3193">
        <ele>430.6</ele>
        <time>2023-02-19T10:38:17Z</time>
      </trkpt>
      <trkpt lat="45.6761" lon="4.3193">
        <ele>430.7</ele>
        <time>2023-02-19T10:38:18Z</time>
      </trkpt>
      <trkpt lat="45.67608" lon="4.31929">
        <ele>430.7</ele>
        <time>2023-02-19T10:38:19Z</time>
      </trkpt>
      <trkpt lat="45.67607" lon="4.31929">
        <ele>430.8</ele>
        <time>2023-02-19T10:38:20Z</time>
      </trkpt>
      <trkpt lat="45.67606" lon="4.31929">
        <ele>430.8</ele>
        <time>2023-02-19T10:38:22Z</time>
      </trkpt>
      <trkpt lat="45.67604" lon="4.31929">
        <ele>430.9</ele>
        <time>2023-02-19T10:38:23Z</time>
      </trkpt>
      <trkpt lat="45.67602" lon="4.31929">
        <ele>431</ele>
        <time>2023-02-19T10:38:25Z</time>
      </trkpt>
      <trkpt lat="45.67601" lon="4.31929">
        <ele>431</ele>
        <time>2023-02-19T10:38:26Z</time>
      </trkpt>
      <trkpt lat="45.676" lon="4.31929">
        <ele>431.1</ele>
        <time>2023-02-19T10:38:27Z</time>
      </trkpt>
      <trkpt lat="45.67598" lon="4.31929">
        <ele>431.2</ele>
        <time>2023-02-19T10:38:28Z</time>
      </trkpt>
      <trkpt lat="45.67596" lon="4.31929">
        <ele>431.3</ele>
        <time>2023-02-19T10:38:29Z</time>
      </trkpt>
      <trkpt lat="45.67595" lon="4.31929">
        <ele>431.4</ele>
        <time>2023-02-19T10:38:30Z</time>
      </trkpt>
      <trkpt lat="45.67594" lon="4.31929">
        <ele>431.4</ele>
        <time>2023-02-19T10:38:31Z</time>
      </trkpt>
      <trkpt lat="45.67592" lon="4.31928">
        <ele>431.5</ele>
        <time>2023-02-19T10:38:33Z</time>
      </trkpt>
      <trkpt lat="45.67591" lon="4.31928">
        <ele>431.6</ele>
        <time>2023-02-19T10:38:34Z</time>
      </trkpt>
      <trkpt lat="45.6759" lon="4.31928">
        <ele>431.6</ele>
        <time>2023-02-19T10:38:35Z</time>
      </trkpt>
      <trkpt lat="45.67588" lon="4.31929">
        <ele>431.7</ele>
        <time>2023-02-19T10:38:36Z</time>
      </trkpt>
      <trkpt lat="45.67585" lon="4.3193">
        <ele>431.9</ele>
        <time>2023-02-19T10:38:38Z</time>
      </trkpt>
      <trkpt lat="45.67584" lon="4.3193">
        <ele>432</ele>
        <time>2023-02-19T10:38:39Z</time>
      </trkpt>
      <trkpt lat="45.67582" lon="4.31931">
        <ele>432.1</ele>
        <time>2023-02-19T10:38:40Z</time>
      </trkpt>
      <trkpt lat="45.67582" lon="4.31931">
        <ele>432.2</ele>
        <time>2023-02-19T10:38:41Z</time>
      </trkpt>
      <trkpt lat="45.67581" lon="4.31931">
        <ele>432.2</ele>
        <time>2023-02-19T10:38:42Z</time>
      </trkpt>
      <trkpt lat="45.67579" lon="4.31932">
        <ele>432.4</ele>
        <time>2023-02-19T10:38:44Z</time>
      </trkpt>
      <trkpt lat="45.67578" lon="4.31932">
        <ele>432.4</ele>
        <time>2023-02-19T10:38:45Z</time>
      </trkpt>
      <trkpt lat="45.67576" lon="4.31933">
        <ele>432.6</ele>
        <time>2023-02-19T10:38:47Z</time>
      </trkpt>
      <trkpt lat="45.67575" lon="4.31933">
        <ele>432.6</ele>
        <time>2023-02-19T10:38:48Z</time>
      </trkpt>
      <trkpt lat="45.67574" lon="4.31934">
        <ele>432.7</ele>
        <time>2023-02-19T10:38:49Z</time>
      </trkpt>
      <trkpt lat="45.67573" lon="4.31934">
        <ele>432.8</ele>
        <time>2023-02-19T10:38:50Z</time>
      </trkpt>
      <trkpt lat="45.67573" lon="4.31933">
        <ele>432.8</ele>
        <time>2023-02-19T10:38:51Z</time>
      </trkpt>
      <trkpt lat="45.67572" lon="4.31933">
        <ele>432.9</ele>
        <time>2023-02-19T10:38:52Z</time>
      </trkpt>
      <trkpt lat="45.67571" lon="4.31933">
        <ele>432.9</ele>
        <time>2023-02-19T10:38:53Z</time>
      </trkpt>
      <trkpt lat="45.6757" lon="4.31934">
        <ele>433</ele>
        <time>2023-02-19T10:38:55Z</time>
      </trkpt>
      <trkpt lat="45.67568" lon="4.31935">
        <ele>433.1</ele>
        <time>2023-02-19T10:38:56Z</time>
      </trkpt>
      <trkpt lat="45.67566" lon="4.31936">
        <ele>433.3</ele>
        <time>2023-02-19T10:38:57Z</time>
      </trkpt>
      <trkpt lat="45.67566" lon="4.31936">
        <ele>433.4</ele>
        <time>2023-02-19T10:38:58Z</time>
      </trkpt>
      <trkpt lat="45.67565" lon="4.31936">
        <ele>433.4</ele>
        <time>2023-02-19T10:38:59Z</time>
      </trkpt>
      <trkpt lat="45.67564" lon="4.31937">
        <ele>433.5</ele>
        <time>2023-02-19T10:39:01Z</time>
      </trkpt>
      <trkpt lat="45.67563" lon="4.31938">
        <ele>433.6</ele>
        <time>2023-02-19T10:39:02Z</time>
      </trkpt>
      <trkpt lat="45.67562" lon="4.31939">
        <ele>433.7</ele>
        <time>2023-02-19T10:39:03Z</time>
      </trkpt>
      <trkpt lat="45.67561" lon="4.3194">
        <ele>433.8</ele>
        <time>2023-02-19T10:39:04Z</time>
      </trkpt>
      <trkpt lat="45.6756" lon="4.31941">
        <ele>433.9</ele>
        <time>2023-02-19T10:39:05Z</time>
      </trkpt>
      <trkpt lat="45.6756" lon="4.31942">
        <ele>433.9</ele>
        <time>2023-02-19T10:39:06Z</time>
      </trkpt>
      <trkpt lat="45.67559" lon="4.31942">
        <ele>434</ele>
        <time>2023-02-19T10:39:07Z</time>
      </trkpt>
      <trkpt lat="45.67559" lon="4.31943">
        <ele>434</ele>
        <time>2023-02-19T10:39:08Z</time>
      </trkpt>
      <trkpt lat="45.67558" lon="4.31944">
        <ele>434.1</ele>
        <time>2023-02-19T10:39:09Z</time>
      </trkpt>
      <trkpt lat="45.67558" lon="4.31945">
        <ele>434.1</ele>
        <time>2023-02-19T10:39:10Z</time>
      </trkpt>
      <trkpt lat="45.67558" lon="4.31946">
        <ele>434.2</ele>
        <time>2023-02-19T10:39:11Z</time>
      </trkpt>
      <trkpt lat="45.67558" lon="4.31947">
        <ele>434.2</ele>
        <time>2023-02-19T10:39:13Z</time>
      </trkpt>
      <trkpt lat="45.67558" lon="4.31947">
        <ele>434.3</ele>
        <time>2023-02-19T10:39:14Z</time>
      </trkpt>
      <trkpt lat="45.67557" lon="4.31948">
        <ele>434.3</ele>
        <time>2023-02-19T10:39:15Z</time>
      </trkpt>
      <trkpt lat="45.67557" lon="4.31949">
        <ele>434.3</ele>
        <time>2023-02-19T10:39:16Z</time>
      </trkpt>
      <trkpt lat="45.67557" lon="4.31949">
        <ele>434.4</ele>
        <time>2023-02-19T10:39:17Z</time>
      </trkpt>
      <trkpt lat="45.67557" lon="4.3195">
        <ele>434.4</ele>
        <time>2023-02-19T10:39:18Z</time>
      </trkpt>
      <trkpt lat="45.67557" lon="4.3195">
        <ele>434.4</ele>
        <time>2023-02-19T10:39:19Z</time>
      </trkpt>
      <trkpt lat="45.67557" lon="4.3195">
        <ele>434.4</ele>
        <time>2023-02-19T10:39:20Z</time>
      </trkpt>
      <trkpt lat="45.67557" lon="4.3195">
        <ele>434.5</ele>
        <time>2023-02-19T10:39:22Z</time>
      </trkpt>
      <trkpt lat="45.67556" lon="4.3195">
        <ele>434.5</ele>
        <time>2023-02-19T10:39:24Z</time>
      </trkpt>
      <trkpt lat="45.67556" lon="4.3195">
        <ele>434.5</ele>
        <time>2023-02-19T10:39:25Z</time>
      </trkpt>
      <trkpt lat="45.67556" lon="4.3195">
        <ele>434.5</ele>
        <time>2023-02-19T10:39:26Z</time>
      </trkpt>
      <trkpt lat="45.67556" lon="4.3195">
        <ele>434.6</ele>
        <time>2023-02-19T10:39:27Z</time>
      </trkpt>
      <trkpt lat="45.67555" lon="4.3195">
        <ele>434.6</ele>
        <time>2023-02-19T10:39:28Z</time>
      </trkpt>
      <trkpt lat="45.67554" lon="4.31951">
        <ele>434.7</ele>
        <time>2023-02-19T10:39:30Z</time>
      </trkpt>
      <trkpt lat="45.67554" lon="4.31951">
        <ele>434.7</ele>
        <time>2023-02-19T10:39:31Z</time>
      </trkpt>
      <trkpt lat="45.67553" lon="4.31951">
        <ele>434.8</ele>
        <time>2023-02-19T10:39:32Z</time>
      </trkpt>
      <trkpt lat="45.67552" lon="4.31952">
        <ele>434.9</ele>
        <time>2023-02-19T10:39:33Z</time>
      </trkpt>
      <trkpt lat="45.6755" lon="4.31953">
        <ele>435</ele>
        <time>2023-02-19T10:39:35Z</time>
      </trkpt>
      <trkpt lat="45.67549" lon="4.31953">
        <ele>435.1</ele>
        <time>2023-02-19T10:39:36Z</time>
      </trkpt>
      <trkpt lat="45.67546" lon="4.31954">
        <ele>435.3</ele>
        <time>2023-02-19T10:39:37Z</time>
      </trkpt>
      <trkpt lat="45.67545" lon="4.31954">
        <ele>435.4</ele>
        <time>2023-02-19T10:39:38Z</time>
      </trkpt>
      <trkpt lat="45.67542" lon="4.31955">
        <ele>435.7</ele>
        <time>2023-02-19T10:39:39Z</time>
      </trkpt>
      <trkpt lat="45.67541" lon="4.31955">
        <ele>435.8</ele>
        <time>2023-02-19T10:39:40Z</time>
      </trkpt>
      <trkpt lat="45.67539" lon="4.31955">
        <ele>436</ele>
        <time>2023-02-19T10:39:41Z</time>
      </trkpt>
      <trkpt lat="45.67538" lon="4.31956">
        <ele>436.1</ele>
        <time>2023-02-19T10:39:42Z</time>
      </trkpt>
      <trkpt lat="45.67537" lon="4.31957">
        <ele>436.2</ele>
        <time>2023-02-19T10:39:43Z</time>
      </trkpt>
      <trkpt lat="45.67535" lon="4.31958">
        <ele>436.4</ele>
        <time>2023-02-19T10:39:45Z</time>
      </trkpt>
      <trkpt lat="45.67533" lon="4.3196">
        <ele>436.6</ele>
        <time>2023-02-19T10:39:46Z</time>
      </trkpt>
      <trkpt lat="45.67532" lon="4.31961">
        <ele>436.8</ele>
        <time>2023-02-19T10:39:47Z</time>
      </trkpt>
      <trkpt lat="45.6753" lon="4.31963">
        <ele>437.1</ele>
        <time>2023-02-19T10:39:48Z</time>
      </trkpt>
      <trkpt lat="45.67529" lon="4.31964">
        <ele>437.2</ele>
        <time>2023-02-19T10:39:49Z</time>
      </trkpt>
      <trkpt lat="45.67528" lon="4.31965">
        <ele>437.4</ele>
        <time>2023-02-19T10:39:50Z</time>
      </trkpt>
      <trkpt lat="45.67526" lon="4.31966">
        <ele>437.5</ele>
        <time>2023-02-19T10:39:51Z</time>
      </trkpt>
      <trkpt lat="45.67525" lon="4.31968">
        <ele>437.7</ele>
        <time>2023-02-19T10:39:52Z</time>
      </trkpt>
      <trkpt lat="45.67523" lon="4.31969">
        <ele>437.9</ele>
        <time>2023-02-19T10:39:53Z</time>
      </trkpt>
      <trkpt lat="45.67521" lon="4.31971">
        <ele>438.1</ele>
        <time>2023-02-19T10:39:55Z</time>
      </trkpt>
      <trkpt lat="45.6752" lon="4.31972">
        <ele>438.3</ele>
        <time>2023-02-19T10:39:57Z</time>
      </trkpt>
      <trkpt lat="45.67519" lon="4.31973">
        <ele>438.4</ele>
        <time>2023-02-19T10:39:58Z</time>
      </trkpt>
      <trkpt lat="45.67519" lon="4.31974">
        <ele>438.5</ele>
        <time>2023-02-19T10:39:59Z</time>
      </trkpt>
      <trkpt lat="45.67518" lon="4.31976">
        <ele>438.7</ele>
        <time>2023-02-19T10:40:00Z</time>
      </trkpt>
      <trkpt lat="45.67516" lon="4.31978">
        <ele>438.9</ele>
        <time>2023-02-19T10:40:01Z</time>
      </trkpt>
      <trkpt lat="45.67515" lon="4.31979">
        <ele>439</ele>
        <time>2023-02-19T10:40:02Z</time>
      </trkpt>
      <trkpt lat="45.67514" lon="4.3198">
        <ele>439.2</ele>
        <time>2023-02-19T10:40:04Z</time>
      </trkpt>
      <trkpt lat="45.67513" lon="4.31981">
        <ele>439.3</ele>
        <time>2023-02-19T10:40:05Z</time>
      </trkpt>
      <trkpt lat="45.67512" lon="4.31982">
        <ele>439.4</ele>
        <time>2023-02-19T10:40:07Z</time>
      </trkpt>
      <trkpt lat="45.67511" lon="4.31982">
        <ele>439.5</ele>
        <time>2023-02-19T10:40:08Z</time>
      </trkpt>
      <trkpt lat="45.6751" lon="4.31983">
        <ele>439.6</ele>
        <time>2023-02-19T10:40:09Z</time>
      </trkpt>
      <trkpt lat="45.67509" lon="4.31984">
        <ele>439.7</ele>
        <time>2023-02-19T10:40:10Z</time>
      </trkpt>
      <trkpt lat="45.67508" lon="4.31986">
        <ele>439.9</ele>
        <time>2023-02-19T10:40:11Z</time>
      </trkpt>
      <trkpt lat="45.67507" lon="4.31986">
        <ele>440</ele>
        <time>2023-02-19T10:40:12Z</time>
      </trkpt>
      <trkpt lat="45.67506" lon="4.31987">
        <ele>440.1</ele>
        <time>2023-02-19T10:40:13Z</time>
      </trkpt>
      <trkpt lat="45.67504" lon="4.31988">
        <ele>440.3</ele>
        <time>2023-02-19T10:40:15Z</time>
      </trkpt>
      <trkpt lat="45.67503" lon="4.31989">
        <ele>440.4</ele>
        <time>2023-02-19T10:40:16Z</time>
      </trkpt>
      <trkpt lat="45.67501" lon="4.3199">
        <ele>440.6</ele>
        <time>2023-02-19T10:40:17Z</time>
      </trkpt>
      <trkpt lat="45.675" lon="4.31991">
        <ele>440.7</ele>
        <time>2023-02-19T10:40:18Z</time>
      </trkpt>
      <trkpt lat="45.675" lon="4.31991">
        <ele>440.7</ele>
        <time>2023-02-19T10:40:19Z</time>
      </trkpt>
      <trkpt lat="45.67498" lon="4.31992">
        <ele>440.9</ele>
        <time>2023-02-19T10:40:20Z</time>
      </trkpt>
      <trkpt lat="45.67496" lon="4.31993">
        <ele>441</ele>
        <time>2023-02-19T10:40:21Z</time>
      </trkpt>
      <trkpt lat="45.67495" lon="4.31994">
        <ele>441.1</ele>
        <time>2023-02-19T10:40:22Z</time>
      </trkpt>
      <trkpt lat="45.67493" lon="4.31996">
        <ele>441.3</ele>
        <time>2023-02-19T10:40:24Z</time>
      </trkpt>
      <trkpt lat="45.67492" lon="4.31997">
        <ele>441.4</ele>
        <time>2023-02-19T10:40:25Z</time>
      </trkpt>
      <trkpt lat="45.67491" lon="4.31998">
        <ele>441.5</ele>
        <time>2023-02-19T10:40:26Z</time>
      </trkpt>
      <trkpt lat="45.67489" lon="4.31999">
        <ele>441.6</ele>
        <time>2023-02-19T10:40:27Z</time>
      </trkpt>
      <trkpt lat="45.67487" lon="4.32">
        <ele>441.8</ele>
        <time>2023-02-19T10:40:28Z</time>
      </trkpt>
      <trkpt lat="45.67485" lon="4.32002">
        <ele>442</ele>
        <time>2023-02-19T10:40:29Z</time>
      </trkpt>
      <trkpt lat="45.67484" lon="4.32003">
        <ele>442</ele>
        <time>2023-02-19T10:40:30Z</time>
      </trkpt>
      <trkpt lat="45.67482" lon="4.32006">
        <ele>442.2</ele>
        <time>2023-02-19T10:40:32Z</time>
      </trkpt>
      <trkpt lat="45.67482" lon="4.32007">
        <ele>442.3</ele>
        <time>2023-02-19T10:40:33Z</time>
      </trkpt>
      <trkpt lat="45.6748" lon="4.32009">
        <ele>442.5</ele>
        <time>2023-02-19T10:40:34Z</time>
      </trkpt>
      <trkpt lat="45.67479" lon="4.3201">
        <ele>442.6</ele>
        <time>2023-02-19T10:40:35Z</time>
      </trkpt>
      <trkpt lat="45.67476" lon="4.32014">
        <ele>442.8</ele>
        <time>2023-02-19T10:40:36Z</time>
      </trkpt>
      <trkpt lat="45.67476" lon="4.32015">
        <ele>442.9</ele>
        <time>2023-02-19T10:40:37Z</time>
      </trkpt>
      <trkpt lat="45.67474" lon="4.32019">
        <ele>443.1</ele>
        <time>2023-02-19T10:40:39Z</time>
      </trkpt>
      <trkpt lat="45.67473" lon="4.3202">
        <ele>443.1</ele>
        <time>2023-02-19T10:40:40Z</time>
      </trkpt>
      <trkpt lat="45.67472" lon="4.32024">
        <ele>443.3</ele>
        <time>2023-02-19T10:40:41Z</time>
      </trkpt>
      <trkpt lat="45.67472" lon="4.32025">
        <ele>443.4</ele>
        <time>2023-02-19T10:40:42Z</time>
      </trkpt>
      <trkpt lat="45.6747" lon="4.32029">
        <ele>443.6</ele>
        <time>2023-02-19T10:40:43Z</time>
      </trkpt>
      <trkpt lat="45.6747" lon="4.3203">
        <ele>443.7</ele>
        <time>2023-02-19T10:40:44Z</time>
      </trkpt>
      <trkpt lat="45.67469" lon="4.32032">
        <ele>443.8</ele>
        <time>2023-02-19T10:40:45Z</time>
      </trkpt>
      <trkpt lat="45.67468" lon="4.32034">
        <ele>443.9</ele>
        <time>2023-02-19T10:40:46Z</time>
      </trkpt>
      <trkpt lat="45.67467" lon="4.32036">
        <ele>444</ele>
        <time>2023-02-19T10:40:47Z</time>
      </trkpt>
      <trkpt lat="45.67466" lon="4.32038">
        <ele>444.1</ele>
        <time>2023-02-19T10:40:48Z</time>
      </trkpt>
      <trkpt lat="45.67465" lon="4.32042">
        <ele>444.3</ele>
        <time>2023-02-19T10:40:50Z</time>
      </trkpt>
      <trkpt lat="45.67465" lon="4.32043">
        <ele>444.3</ele>
        <time>2023-02-19T10:40:51Z</time>
      </trkpt>
      <trkpt lat="45.67464" lon="4.32047">
        <ele>444.5</ele>
        <time>2023-02-19T10:40:52Z</time>
      </trkpt>
      <trkpt lat="45.67463" lon="4.32049">
        <ele>444.6</ele>
        <time>2023-02-19T10:40:53Z</time>
      </trkpt>
      <trkpt lat="45.67462" lon="4.32052">
        <ele>444.7</ele>
        <time>2023-02-19T10:40:55Z</time>
      </trkpt>
      <trkpt lat="45.67462" lon="4.32054">
        <ele>444.8</ele>
        <time>2023-02-19T10:40:56Z</time>
      </trkpt>
      <trkpt lat="45.67461" lon="4.32058">
        <ele>444.9</ele>
        <time>2023-02-19T10:40:57Z</time>
      </trkpt>
      <trkpt lat="45.67461" lon="4.32059">
        <ele>444.9</ele>
        <time>2023-02-19T10:40:58Z</time>
      </trkpt>
      <trkpt lat="45.6746" lon="4.32062">
        <ele>445</ele>
        <time>2023-02-19T10:40:59Z</time>
      </trkpt>
      <trkpt lat="45.6746" lon="4.32064">
        <ele>445.1</ele>
        <time>2023-02-19T10:41:01Z</time>
      </trkpt>
      <trkpt lat="45.6746" lon="4.32067">
        <ele>445.2</ele>
        <time>2023-02-19T10:41:02Z</time>
      </trkpt>
      <trkpt lat="45.6746" lon="4.32068">
        <ele>445.2</ele>
        <time>2023-02-19T10:41:03Z</time>
      </trkpt>
      <trkpt lat="45.6746" lon="4.3207">
        <ele>445.2</ele>
        <time>2023-02-19T10:41:04Z</time>
      </trkpt>
      <trkpt lat="45.6746" lon="4.32071">
        <ele>445.3</ele>
        <time>2023-02-19T10:41:05Z</time>
      </trkpt>
      <trkpt lat="45.6746" lon="4.32073">
        <ele>445.3</ele>
        <time>2023-02-19T10:41:06Z</time>
      </trkpt>
      <trkpt lat="45.6746" lon="4.32076">
        <ele>445.4</ele>
        <time>2023-02-19T10:41:07Z</time>
      </trkpt>
      <trkpt lat="45.6746" lon="4.32077">
        <ele>445.4</ele>
        <time>2023-02-19T10:41:08Z</time>
      </trkpt>
      <trkpt lat="45.6746" lon="4.32079">
        <ele>445.5</ele>
        <time>2023-02-19T10:41:09Z</time>
      </trkpt>
      <trkpt lat="45.6746" lon="4.32081">
        <ele>445.5</ele>
        <time>2023-02-19T10:41:10Z</time>
      </trkpt>
      <trkpt lat="45.6746" lon="4.32083">
        <ele>445.6</ele>
        <time>2023-02-19T10:41:11Z</time>
      </trkpt>
      <trkpt lat="45.6746" lon="4.32084">
        <ele>445.6</ele>
        <time>2023-02-19T10:41:12Z</time>
      </trkpt>
      <trkpt lat="45.6746" lon="4.32086">
        <ele>445.6</ele>
        <time>2023-02-19T10:41:13Z</time>
      </trkpt>
      <trkpt lat="45.67459" lon="4.32088">
        <ele>445.7</ele>
        <time>2023-02-19T10:41:15Z</time>
      </trkpt>
      <trkpt lat="45.67459" lon="4.32089">
        <ele>445.7</ele>
        <time>2023-02-19T10:41:16Z</time>
      </trkpt>
      <trkpt lat="45.67458" lon="4.32091">
        <ele>445.7</ele>
        <time>2023-02-19T10:41:18Z</time>
      </trkpt>
      <trkpt lat="45.67458" lon="4.32092">
        <ele>445.8</ele>
        <time>2023-02-19T10:41:19Z</time>
      </trkpt>
      <trkpt lat="45.67458" lon="4.32093">
        <ele>445.8</ele>
        <time>2023-02-19T10:41:20Z</time>
      </trkpt>
      <trkpt lat="45.67458" lon="4.32094">
        <ele>445.8</ele>
        <time>2023-02-19T10:41:21Z</time>
      </trkpt>
      <trkpt lat="45.67457" lon="4.32095">
        <ele>445.8</ele>
        <time>2023-02-19T10:41:22Z</time>
      </trkpt>
      <trkpt lat="45.67457" lon="4.32096">
        <ele>445.8</ele>
        <time>2023-02-19T10:41:23Z</time>
      </trkpt>
      <trkpt lat="45.67457" lon="4.32097">
        <ele>445.9</ele>
        <time>2023-02-19T10:41:25Z</time>
      </trkpt>
      <trkpt lat="45.67457" lon="4.32098">
        <ele>445.9</ele>
        <time>2023-02-19T10:41:26Z</time>
      </trkpt>
      <trkpt lat="45.67457" lon="4.32099">
        <ele>445.9</ele>
        <time>2023-02-19T10:41:27Z</time>
      </trkpt>
      <trkpt lat="45.67457" lon="4.32099">
        <ele>445.9</ele>
        <time>2023-02-19T10:41:28Z</time>
      </trkpt>
      <trkpt lat="45.67457" lon="4.32099">
        <ele>445.9</ele>
        <time>2023-02-19T10:41:29Z</time>
      </trkpt>
      <trkpt lat="45.67457" lon="4.321">
        <ele>445.9</ele>
        <time>2023-02-19T10:41:30Z</time>
      </trkpt>
      <trkpt lat="45.67457" lon="4.32101">
        <ele>446</ele>
        <time>2023-02-19T10:41:32Z</time>
      </trkpt>
      <trkpt lat="45.67458" lon="4.32102">
        <ele>446</ele>
        <time>2023-02-19T10:41:33Z</time>
      </trkpt>
      <trkpt lat="45.67458" lon="4.32103">
        <ele>446</ele>
        <time>2023-02-19T10:41:35Z</time>
      </trkpt>
      <trkpt lat="45.67457" lon="4.32105">
        <ele>446</ele>
        <time>2023-02-19T10:41:36Z</time>
      </trkpt>
      <trkpt lat="45.67457" lon="4.32107">
        <ele>446.1</ele>
        <time>2023-02-19T10:41:38Z</time>
      </trkpt>
      <trkpt lat="45.67456" lon="4.32109">
        <ele>446.1</ele>
        <time>2023-02-19T10:41:39Z</time>
      </trkpt>
      <trkpt lat="45.67455" lon="4.32111">
        <ele>446.2</ele>
        <time>2023-02-19T10:41:40Z</time>
      </trkpt>
      <trkpt lat="45.67455" lon="4.32112">
        <ele>446.2</ele>
        <time>2023-02-19T10:41:41Z</time>
      </trkpt>
      <trkpt lat="45.67453" lon="4.32115">
        <ele>446.3</ele>
        <time>2023-02-19T10:41:42Z</time>
      </trkpt>
      <trkpt lat="45.67452" lon="4.32116">
        <ele>446.3</ele>
        <time>2023-02-19T10:41:43Z</time>
      </trkpt>
      <trkpt lat="45.67451" lon="4.32119">
        <ele>446.4</ele>
        <time>2023-02-19T10:41:44Z</time>
      </trkpt>
      <trkpt lat="45.6745" lon="4.3212">
        <ele>446.5</ele>
        <time>2023-02-19T10:41:46Z</time>
      </trkpt>
      <trkpt lat="45.67449" lon="4.3212">
        <ele>446.5</ele>
        <time>2023-02-19T10:41:47Z</time>
      </trkpt>
      <trkpt lat="45.67448" lon="4.32123">
        <ele>446.6</ele>
        <time>2023-02-19T10:41:48Z</time>
      </trkpt>
      <trkpt lat="45.67447" lon="4.32124">
        <ele>446.6</ele>
        <time>2023-02-19T10:41:49Z</time>
      </trkpt>
      <trkpt lat="45.67447" lon="4.32125">
        <ele>446.7</ele>
        <time>2023-02-19T10:41:50Z</time>
      </trkpt>
      <trkpt lat="45.67444" lon="4.32127">
        <ele>446.8</ele>
        <time>2023-02-19T10:41:51Z</time>
      </trkpt>
      <trkpt lat="45.67444" lon="4.32128">
        <ele>446.9</ele>
        <time>2023-02-19T10:41:52Z</time>
      </trkpt>
      <trkpt lat="45.67442" lon="4.3213">
        <ele>447</ele>
        <time>2023-02-19T10:41:53Z</time>
      </trkpt>
      <trkpt lat="45.67441" lon="4.32132">
        <ele>447.1</ele>
        <time>2023-02-19T10:41:54Z</time>
      </trkpt>
      <trkpt lat="45.67439" lon="4.32135">
        <ele>447.3</ele>
        <time>2023-02-19T10:41:56Z</time>
      </trkpt>
      <trkpt lat="45.67438" lon="4.32136">
        <ele>447.3</ele>
        <time>2023-02-19T10:41:57Z</time>
      </trkpt>
      <trkpt lat="45.67435" lon="4.32139">
        <ele>447.5</ele>
        <time>2023-02-19T10:41:58Z</time>
      </trkpt>
      <trkpt lat="45.67435" lon="4.32139">
        <ele>447.6</ele>
        <time>2023-02-19T10:41:59Z</time>
      </trkpt>
      <trkpt lat="45.67433" lon="4.32141">
        <ele>447.7</ele>
        <time>2023-02-19T10:42:00Z</time>
      </trkpt>
      <trkpt lat="45.67431" lon="4.32142">
        <ele>447.8</ele>
        <time>2023-02-19T10:42:02Z</time>
      </trkpt>
      <trkpt lat="45.6743" lon="4.32143">
        <ele>447.9</ele>
        <time>2023-02-19T10:42:03Z</time>
      </trkpt>
      <trkpt lat="45.67429" lon="4.32145">
        <ele>448</ele>
        <time>2023-02-19T10:42:04Z</time>
      </trkpt>
      <trkpt lat="45.67428" lon="4.32146">
        <ele>448.1</ele>
        <time>2023-02-19T10:42:05Z</time>
      </trkpt>
      <trkpt lat="45.67426" lon="4.32147">
        <ele>448.2</ele>
        <time>2023-02-19T10:42:06Z</time>
      </trkpt>
      <trkpt lat="45.67425" lon="4.32148">
        <ele>448.3</ele>
        <time>2023-02-19T10:42:07Z</time>
      </trkpt>
      <trkpt lat="45.67423" lon="4.3215">
        <ele>448.4</ele>
        <time>2023-02-19T10:42:09Z</time>
      </trkpt>
      <trkpt lat="45.67422" lon="4.32151">
        <ele>448.5</ele>
        <time>2023-02-19T10:42:10Z</time>
      </trkpt>
      <trkpt lat="45.6742" lon="4.32153">
        <ele>448.6</ele>
        <time>2023-02-19T10:42:11Z</time>
      </trkpt>
      <trkpt lat="45.67419" lon="4.32155">
        <ele>448.7</ele>
        <time>2023-02-19T10:42:12Z</time>
      </trkpt>
      <trkpt lat="45.67417" lon="4.32157">
        <ele>448.9</ele>
        <time>2023-02-19T10:42:14Z</time>
      </trkpt>
      <trkpt lat="45.67415" lon="4.3216">
        <ele>449</ele>
        <time>2023-02-19T10:42:15Z</time>
      </trkpt>
      <trkpt lat="45.67415" lon="4.32161">
        <ele>449.1</ele>
        <time>2023-02-19T10:42:16Z</time>
      </trkpt>
      <trkpt lat="45.67413" lon="4.32164">
        <ele>449.2</ele>
        <time>2023-02-19T10:42:17Z</time>
      </trkpt>
      <trkpt lat="45.67412" lon="4.32165">
        <ele>449.3</ele>
        <time>2023-02-19T10:42:18Z</time>
      </trkpt>
      <trkpt lat="45.6741" lon="4.32169">
        <ele>449.5</ele>
        <time>2023-02-19T10:42:20Z</time>
      </trkpt>
      <trkpt lat="45.6741" lon="4.3217">
        <ele>449.5</ele>
        <time>2023-02-19T10:42:21Z</time>
      </trkpt>
      <trkpt lat="45.67409" lon="4.32175">
        <ele>449.7</ele>
        <time>2023-02-19T10:42:22Z</time>
      </trkpt>
      <trkpt lat="45.67408" lon="4.32176">
        <ele>449.8</ele>
        <time>2023-02-19T10:42:23Z</time>
      </trkpt>
      <trkpt lat="45.67407" lon="4.32179">
        <ele>449.9</ele>
        <time>2023-02-19T10:42:24Z</time>
      </trkpt>
      <trkpt lat="45.67406" lon="4.32182">
        <ele>450</ele>
        <time>2023-02-19T10:42:26Z</time>
      </trkpt>
      <trkpt lat="45.67405" lon="4.32183">
        <ele>450.1</ele>
        <time>2023-02-19T10:42:27Z</time>
      </trkpt>
      <trkpt lat="45.67404" lon="4.32185">
        <ele>450.2</ele>
        <time>2023-02-19T10:42:28Z</time>
      </trkpt>
      <trkpt lat="45.67402" lon="4.32188">
        <ele>450.4</ele>
        <time>2023-02-19T10:42:30Z</time>
      </trkpt>
      <trkpt lat="45.67401" lon="4.32189">
        <ele>450.4</ele>
        <time>2023-02-19T10:42:31Z</time>
      </trkpt>
      <trkpt lat="45.674" lon="4.32191">
        <ele>450.5</ele>
        <time>2023-02-19T10:42:32Z</time>
      </trkpt>
      <trkpt lat="45.674" lon="4.32192">
        <ele>450.6</ele>
        <time>2023-02-19T10:42:33Z</time>
      </trkpt>
      <trkpt lat="45.67399" lon="4.32193">
        <ele>450.6</ele>
        <time>2023-02-19T10:42:34Z</time>
      </trkpt>
      <trkpt lat="45.67397" lon="4.32195">
        <ele>450.8</ele>
        <time>2023-02-19T10:42:35Z</time>
      </trkpt>
      <trkpt lat="45.67397" lon="4.32196">
        <ele>450.9</ele>
        <time>2023-02-19T10:42:36Z</time>
      </trkpt>
      <trkpt lat="45.67396" lon="4.32197">
        <ele>450.9</ele>
        <time>2023-02-19T10:42:38Z</time>
      </trkpt>
      <trkpt lat="45.67396" lon="4.32197">
        <ele>451</ele>
        <time>2023-02-19T10:42:39Z</time>
      </trkpt>
      <trkpt lat="45.67395" lon="4.32198">
        <ele>451.1</ele>
        <time>2023-02-19T10:42:40Z</time>
      </trkpt>
      <trkpt lat="45.67394" lon="4.32199">
        <ele>451.1</ele>
        <time>2023-02-19T10:42:41Z</time>
      </trkpt>
      <trkpt lat="45.67394" lon="4.322">
        <ele>451.2</ele>
        <time>2023-02-19T10:42:42Z</time>
      </trkpt>
      <trkpt lat="45.67393" lon="4.32201">
        <ele>451.3</ele>
        <time>2023-02-19T10:42:44Z</time>
      </trkpt>
      <trkpt lat="45.67392" lon="4.32202">
        <ele>451.4</ele>
        <time>2023-02-19T10:42:45Z</time>
      </trkpt>
      <trkpt lat="45.67392" lon="4.32204">
        <ele>451.4</ele>
        <time>2023-02-19T10:42:46Z</time>
      </trkpt>
      <trkpt lat="45.67391" lon="4.32205">
        <ele>451.5</ele>
        <time>2023-02-19T10:42:47Z</time>
      </trkpt>
      <trkpt lat="45.67391" lon="4.32206">
        <ele>451.6</ele>
        <time>2023-02-19T10:42:48Z</time>
      </trkpt>
      <trkpt lat="45.67391" lon="4.32207">
        <ele>451.6</ele>
        <time>2023-02-19T10:42:49Z</time>
      </trkpt>
      <trkpt lat="45.6739" lon="4.3221">
        <ele>451.7</ele>
        <time>2023-02-19T10:42:50Z</time>
      </trkpt>
      <trkpt lat="45.67389" lon="4.32211">
        <ele>451.8</ele>
        <time>2023-02-19T10:42:52Z</time>
      </trkpt>
      <trkpt lat="45.67389" lon="4.32212">
        <ele>451.9</ele>
        <time>2023-02-19T10:42:53Z</time>
      </trkpt>
      <trkpt lat="45.67388" lon="4.32212">
        <ele>451.9</ele>
        <time>2023-02-19T10:42:54Z</time>
      </trkpt>
      <trkpt lat="45.67387" lon="4.32213">
        <ele>452</ele>
        <time>2023-02-19T10:42:55Z</time>
      </trkpt>
      <trkpt lat="45.67386" lon="4.32214">
        <ele>452.1</ele>
        <time>2023-02-19T10:42:56Z</time>
      </trkpt>
      <trkpt lat="45.67385" lon="4.32214">
        <ele>452.2</ele>
        <time>2023-02-19T10:42:57Z</time>
      </trkpt>
      <trkpt lat="45.67384" lon="4.32216">
        <ele>452.3</ele>
        <time>2023-02-19T10:42:59Z</time>
      </trkpt>
      <trkpt lat="45.67383" lon="4.32217">
        <ele>452.3</ele>
        <time>2023-02-19T10:43:01Z</time>
      </trkpt>
      <trkpt lat="45.67382" lon="4.32218">
        <ele>452.4</ele>
        <time>2023-02-19T10:43:02Z</time>
      </trkpt>
      <trkpt lat="45.67382" lon="4.32219">
        <ele>452.5</ele>
        <time>2023-02-19T10:43:03Z</time>
      </trkpt>
      <trkpt lat="45.67381" lon="4.3222">
        <ele>452.6</ele>
        <time>2023-02-19T10:43:04Z</time>
      </trkpt>
      <trkpt lat="45.6738" lon="4.32221">
        <ele>452.6</ele>
        <time>2023-02-19T10:43:05Z</time>
      </trkpt>
      <trkpt lat="45.67379" lon="4.32223">
        <ele>452.8</ele>
        <time>2023-02-19T10:43:06Z</time>
      </trkpt>
      <trkpt lat="45.67378" lon="4.32224">
        <ele>452.9</ele>
        <time>2023-02-19T10:43:08Z</time>
      </trkpt>
      <trkpt lat="45.67377" lon="4.32227">
        <ele>453.1</ele>
        <time>2023-02-19T10:43:09Z</time>
      </trkpt>
      <trkpt lat="45.67377" lon="4.32228">
        <ele>453.2</ele>
        <time>2023-02-19T10:43:10Z</time>
      </trkpt>
      <trkpt lat="45.67377" lon="4.32229">
        <ele>453.2</ele>
        <time>2023-02-19T10:43:11Z</time>
      </trkpt>
      <trkpt lat="45.67375" lon="4.32232">
        <ele>453.4</ele>
        <time>2023-02-19T10:43:13Z</time>
      </trkpt>
      <trkpt lat="45.67374" lon="4.32233">
        <ele>453.5</ele>
        <time>2023-02-19T10:43:14Z</time>
      </trkpt>
      <trkpt lat="45.67373" lon="4.32235">
        <ele>453.6</ele>
        <time>2023-02-19T10:43:15Z</time>
      </trkpt>
      <trkpt lat="45.67372" lon="4.32236">
        <ele>453.7</ele>
        <time>2023-02-19T10:43:16Z</time>
      </trkpt>
      <trkpt lat="45.6737" lon="4.32238">
        <ele>453.9</ele>
        <time>2023-02-19T10:43:17Z</time>
      </trkpt>
      <trkpt lat="45.67369" lon="4.32239">
        <ele>453.9</ele>
        <time>2023-02-19T10:43:19Z</time>
      </trkpt>
      <trkpt lat="45.67368" lon="4.3224">
        <ele>454</ele>
        <time>2023-02-19T10:43:20Z</time>
      </trkpt>
      <trkpt lat="45.67367" lon="4.32241">
        <ele>454.1</ele>
        <time>2023-02-19T10:43:21Z</time>
      </trkpt>
      <trkpt lat="45.67366" lon="4.32242">
        <ele>454.1</ele>
        <time>2023-02-19T10:43:22Z</time>
      </trkpt>
      <trkpt lat="45.67365" lon="4.32243">
        <ele>454.1</ele>
        <time>2023-02-19T10:43:23Z</time>
      </trkpt>
      <trkpt lat="45.67364" lon="4.32243">
        <ele>454.2</ele>
        <time>2023-02-19T10:43:24Z</time>
      </trkpt>
      <trkpt lat="45.67363" lon="4.32244">
        <ele>454.2</ele>
        <time>2023-02-19T10:43:25Z</time>
      </trkpt>
      <trkpt lat="45.67362" lon="4.32244">
        <ele>454.3</ele>
        <time>2023-02-19T10:43:26Z</time>
      </trkpt>
      <trkpt lat="45.67361" lon="4.32245">
        <ele>454.3</ele>
        <time>2023-02-19T10:43:27Z</time>
      </trkpt>
      <trkpt lat="45.67361" lon="4.32246">
        <ele>454.3</ele>
        <time>2023-02-19T10:43:28Z</time>
      </trkpt>
      <trkpt lat="45.6736" lon="4.32246">
        <ele>454.3</ele>
        <time>2023-02-19T10:43:30Z</time>
      </trkpt>
      <trkpt lat="45.67359" lon="4.32246">
        <ele>454.3</ele>
        <time>2023-02-19T10:43:31Z</time>
      </trkpt>
      <trkpt lat="45.67358" lon="4.32247">
        <ele>454.3</ele>
        <time>2023-02-19T10:43:33Z</time>
      </trkpt>
      <trkpt lat="45.67358" lon="4.32247">
        <ele>454.3</ele>
        <time>2023-02-19T10:43:34Z</time>
      </trkpt>
      <trkpt lat="45.67357" lon="4.32247">
        <ele>454.3</ele>
        <time>2023-02-19T10:43:35Z</time>
      </trkpt>
      <trkpt lat="45.67357" lon="4.32247">
        <ele>454.3</ele>
        <time>2023-02-19T10:43:36Z</time>
      </trkpt>
      <trkpt lat="45.67357" lon="4.32247">
        <ele>454.3</ele>
        <time>2023-02-19T10:43:37Z</time>
      </trkpt>
      <trkpt lat="45.67356" lon="4.32247">
        <ele>454.3</ele>
        <time>2023-02-19T10:43:38Z</time>
      </trkpt>
      <trkpt lat="45.67356" lon="4.32247">
        <ele>454.3</ele>
        <time>2023-02-19T10:43:39Z</time>
      </trkpt>
      <trkpt lat="45.67356" lon="4.32247">
        <ele>454.3</ele>
        <time>2023-02-19T10:43:40Z</time>
      </trkpt>
      <trkpt lat="45.67356" lon="4.32247">
        <ele>454.2</ele>
        <time>2023-02-19T10:43:41Z</time>
      </trkpt>
      <trkpt lat="45.67356" lon="4.32247">
        <ele>454.2</ele>
        <time>2023-02-19T10:43:42Z</time>
      </trkpt>
      <trkpt lat="45.67355" lon="4.32248">
        <ele>454.2</ele>
        <time>2023-02-19T10:43:43Z</time>
      </trkpt>
      <trkpt lat="45.67354" lon="4.32248">
        <ele>454.2</ele>
        <time>2023-02-19T10:43:45Z</time>
      </trkpt>
      <trkpt lat="45.67354" lon="4.32249">
        <ele>454.2</ele>
        <time>2023-02-19T10:43:46Z</time>
      </trkpt>
      <trkpt lat="45.67353" lon="4.3225">
        <ele>454.1</ele>
        <time>2023-02-19T10:43:47Z</time>
      </trkpt>
      <trkpt lat="45.67351" lon="4.32251">
        <ele>454</ele>
        <time>2023-02-19T10:43:48Z</time>
      </trkpt>
      <trkpt lat="45.6735" lon="4.32252">
        <ele>454</ele>
        <time>2023-02-19T10:43:49Z</time>
      </trkpt>
      <trkpt lat="45.67349" lon="4.32253">
        <ele>454</ele>
        <time>2023-02-19T10:43:50Z</time>
      </trkpt>
      <trkpt lat="45.67347" lon="4.32254">
        <ele>453.8</ele>
        <time>2023-02-19T10:43:51Z</time>
      </trkpt>
      <trkpt lat="45.67346" lon="4.32255">
        <ele>453.8</ele>
        <time>2023-02-19T10:43:52Z</time>
      </trkpt>
      <trkpt lat="45.67344" lon="4.32257">
        <ele>453.7</ele>
        <time>2023-02-19T10:43:53Z</time>
      </trkpt>
      <trkpt lat="45.67343" lon="4.32258">
        <ele>453.6</ele>
        <time>2023-02-19T10:43:55Z</time>
      </trkpt>
      <trkpt lat="45.67341" lon="4.32259">
        <ele>453.6</ele>
        <time>2023-02-19T10:43:56Z</time>
      </trkpt>
      <trkpt lat="45.6734" lon="4.32259">
        <ele>453.5</ele>
        <time>2023-02-19T10:43:57Z</time>
      </trkpt>
      <trkpt lat="45.67339" lon="4.3226">
        <ele>453.5</ele>
        <time>2023-02-19T10:43:58Z</time>
      </trkpt>
      <trkpt lat="45.67338" lon="4.3226">
        <ele>453.4</ele>
        <time>2023-02-19T10:43:59Z</time>
      </trkpt>
      <trkpt lat="45.67337" lon="4.32261">
        <ele>453.4</ele>
        <time>2023-02-19T10:44:00Z</time>
      </trkpt>
      <trkpt lat="45.67336" lon="4.32262">
        <ele>453.3</ele>
        <time>2023-02-19T10:44:01Z</time>
      </trkpt>
      <trkpt lat="45.67335" lon="4.32263">
        <ele>453.2</ele>
        <time>2023-02-19T10:44:02Z</time>
      </trkpt>
      <trkpt lat="45.67334" lon="4.32264">
        <ele>453.2</ele>
        <time>2023-02-19T10:44:03Z</time>
      </trkpt>
      <trkpt lat="45.67333" lon="4.32265">
        <ele>453.1</ele>
        <time>2023-02-19T10:44:04Z</time>
      </trkpt>
      <trkpt lat="45.67332" lon="4.32266">
        <ele>453.1</ele>
        <time>2023-02-19T10:44:05Z</time>
      </trkpt>
      <trkpt lat="45.67329" lon="4.32268">
        <ele>452.9</ele>
        <time>2023-02-19T10:44:07Z</time>
      </trkpt>
      <trkpt lat="45.67328" lon="4.32268">
        <ele>452.9</ele>
        <time>2023-02-19T10:44:08Z</time>
      </trkpt>
      <trkpt lat="45.67327" lon="4.3227">
        <ele>452.9</ele>
        <time>2023-02-19T10:44:09Z</time>
      </trkpt>
      <trkpt lat="45.67325" lon="4.32271">
        <ele>452.8</ele>
        <time>2023-02-19T10:44:10Z</time>
      </trkpt>
      <trkpt lat="45.67324" lon="4.32273">
        <ele>452.7</ele>
        <time>2023-02-19T10:44:11Z</time>
      </trkpt>
      <trkpt lat="45.67322" lon="4.32276">
        <ele>452.7</ele>
        <time>2023-02-19T10:44:13Z</time>
      </trkpt>
      <trkpt lat="45.6732" lon="4.32279">
        <ele>452.7</ele>
        <time>2023-02-19T10:44:14Z</time>
      </trkpt>
      <trkpt lat="45.67319" lon="4.3228">
        <ele>452.7</ele>
        <time>2023-02-19T10:44:15Z</time>
      </trkpt>
      <trkpt lat="45.67318" lon="4.32282">
        <ele>452.7</ele>
        <time>2023-02-19T10:44:16Z</time>
      </trkpt>
      <trkpt lat="45.67317" lon="4.32283">
        <ele>452.7</ele>
        <time>2023-02-19T10:44:17Z</time>
      </trkpt>
      <trkpt lat="45.67317" lon="4.32285">
        <ele>452.7</ele>
        <time>2023-02-19T10:44:18Z</time>
      </trkpt>
      <trkpt lat="45.67317" lon="4.32286">
        <ele>452.7</ele>
        <time>2023-02-19T10:44:19Z</time>
      </trkpt>
      <trkpt lat="45.67316" lon="4.32287">
        <ele>452.7</ele>
        <time>2023-02-19T10:44:20Z</time>
      </trkpt>
      <trkpt lat="45.67316" lon="4.32288">
        <ele>452.7</ele>
        <time>2023-02-19T10:44:21Z</time>
      </trkpt>
      <trkpt lat="45.67316" lon="4.32289">
        <ele>452.7</ele>
        <time>2023-02-19T10:44:22Z</time>
      </trkpt>
      <trkpt lat="45.67317" lon="4.3229">
        <ele>452.7</ele>
        <time>2023-02-19T10:44:24Z</time>
      </trkpt>
      <trkpt lat="45.67317" lon="4.32291">
        <ele>452.7</ele>
        <time>2023-02-19T10:44:25Z</time>
      </trkpt>
      <trkpt lat="45.67318" lon="4.32291">
        <ele>452.7</ele>
        <time>2023-02-19T10:44:26Z</time>
      </trkpt>
      <trkpt lat="45.67318" lon="4.32292">
        <ele>452.7</ele>
        <time>2023-02-19T10:44:27Z</time>
      </trkpt>
      <trkpt lat="45.67319" lon="4.32293">
        <ele>452.7</ele>
        <time>2023-02-19T10:44:28Z</time>
      </trkpt>
      <trkpt lat="45.67319" lon="4.32294">
        <ele>452.7</ele>
        <time>2023-02-19T10:44:29Z</time>
      </trkpt>
      <trkpt lat="45.6732" lon="4.32295">
        <ele>452.7</ele>
        <time>2023-02-19T10:44:30Z</time>
      </trkpt>
      <trkpt lat="45.6732" lon="4.32296">
        <ele>452.8</ele>
        <time>2023-02-19T10:44:31Z</time>
      </trkpt>
      <trkpt lat="45.67321" lon="4.32298">
        <ele>452.8</ele>
        <time>2023-02-19T10:44:33Z</time>
      </trkpt>
      <trkpt lat="45.67321" lon="4.323">
        <ele>452.8</ele>
        <time>2023-02-19T10:44:34Z</time>
      </trkpt>
      <trkpt lat="45.67321" lon="4.32301">
        <ele>452.8</ele>
        <time>2023-02-19T10:44:35Z</time>
      </trkpt>
      <trkpt lat="45.67322" lon="4.32302">
        <ele>452.9</ele>
        <time>2023-02-19T10:44:36Z</time>
      </trkpt>
      <trkpt lat="45.67322" lon="4.32303">
        <ele>452.9</ele>
        <time>2023-02-19T10:44:37Z</time>
      </trkpt>
      <trkpt lat="45.67323" lon="4.32304">
        <ele>452.9</ele>
        <time>2023-02-19T10:44:38Z</time>
      </trkpt>
      <trkpt lat="45.67324" lon="4.32306">
        <ele>453</ele>
        <time>2023-02-19T10:44:40Z</time>
      </trkpt>
      <trkpt lat="45.67324" lon="4.32308">
        <ele>453</ele>
        <time>2023-02-19T10:44:42Z</time>
      </trkpt>
      <trkpt lat="45.67325" lon="4.32308">
        <ele>453</ele>
        <time>2023-02-19T10:44:43Z</time>
      </trkpt>
      <trkpt lat="45.67325" lon="4.32308">
        <ele>453</ele>
        <time>2023-02-19T10:44:44Z</time>
      </trkpt>
      <trkpt lat="45.67325" lon="4.32308">
        <ele>453</ele>
        <time>2023-02-19T10:44:45Z</time>
      </trkpt>
      <trkpt lat="45.67325" lon="4.32309">
        <ele>453</ele>
        <time>2023-02-19T10:44:46Z</time>
      </trkpt>
      <trkpt lat="45.67326" lon="4.32309">
        <ele>453.1</ele>
        <time>2023-02-19T10:44:47Z</time>
      </trkpt>
      <trkpt lat="45.67326" lon="4.32309">
        <ele>453.1</ele>
        <time>2023-02-19T10:44:49Z</time>
      </trkpt>
      <trkpt lat="45.67326" lon="4.32309">
        <ele>453.1</ele>
        <time>2023-02-19T10:44:50Z</time>
      </trkpt>
      <trkpt lat="45.67326" lon="4.32309">
        <ele>453.1</ele>
        <time>2023-02-19T10:44:51Z</time>
      </trkpt>
      <trkpt lat="45.67327" lon="4.3231">
        <ele>453.1</ele>
        <time>2023-02-19T10:44:52Z</time>
      </trkpt>
      <trkpt lat="45.67327" lon="4.3231">
        <ele>453.1</ele>
        <time>2023-02-19T10:44:53Z</time>
      </trkpt>
      <trkpt lat="45.67327" lon="4.32312">
        <ele>453.2</ele>
        <time>2023-02-19T10:44:55Z</time>
      </trkpt>
      <trkpt lat="45.67327" lon="4.32314">
        <ele>453.2</ele>
        <time>2023-02-19T10:44:57Z</time>
      </trkpt>
      <trkpt lat="45.67328" lon="4.32315">
        <ele>453.3</ele>
        <time>2023-02-19T10:44:58Z</time>
      </trkpt>
      <trkpt lat="45.67328" lon="4.32317">
        <ele>453.3</ele>
        <time>2023-02-19T10:45:00Z</time>
      </trkpt>
      <trkpt lat="45.67328" lon="4.32318">
        <ele>453.4</ele>
        <time>2023-02-19T10:45:01Z</time>
      </trkpt>
      <trkpt lat="45.67329" lon="4.32319">
        <ele>453.4</ele>
        <time>2023-02-19T10:45:02Z</time>
      </trkpt>
      <trkpt lat="45.67329" lon="4.3232">
        <ele>453.5</ele>
        <time>2023-02-19T10:45:03Z</time>
      </trkpt>
      <trkpt lat="45.67329" lon="4.32321">
        <ele>453.5</ele>
        <time>2023-02-19T10:45:04Z</time>
      </trkpt>
      <trkpt lat="45.67329" lon="4.32321">
        <ele>453.5</ele>
        <time>2023-02-19T10:45:05Z</time>
      </trkpt>
      <trkpt lat="45.67329" lon="4.32322">
        <ele>453.5</ele>
        <time>2023-02-19T10:45:06Z</time>
      </trkpt>
      <trkpt lat="45.67329" lon="4.32322">
        <ele>453.5</ele>
        <time>2023-02-19T10:45:08Z</time>
      </trkpt>
      <trkpt lat="45.67329" lon="4.32322">
        <ele>453.5</ele>
        <time>2023-02-19T10:45:09Z</time>
      </trkpt>
      <trkpt lat="45.67329" lon="4.32322">
        <ele>453.5</ele>
        <time>2023-02-19T10:45:10Z</time>
      </trkpt>
      <trkpt lat="45.67328" lon="4.32323">
        <ele>453.6</ele>
        <time>2023-02-19T10:45:11Z</time>
      </trkpt>
      <trkpt lat="45.67328" lon="4.32324">
        <ele>453.6</ele>
        <time>2023-02-19T10:45:12Z</time>
      </trkpt>
      <trkpt lat="45.67328" lon="4.32326">
        <ele>453.7</ele>
        <time>2023-02-19T10:45:13Z</time>
      </trkpt>
      <trkpt lat="45.67326" lon="4.32329">
        <ele>453.8</ele>
        <time>2023-02-19T10:45:14Z</time>
      </trkpt>
      <trkpt lat="45.67325" lon="4.3233">
        <ele>453.9</ele>
        <time>2023-02-19T10:45:16Z</time>
      </trkpt>
      <trkpt lat="45.67324" lon="4.32331">
        <ele>454</ele>
        <time>2023-02-19T10:45:17Z</time>
      </trkpt>
      <trkpt lat="45.67323" lon="4.32333">
        <ele>454</ele>
        <time>2023-02-19T10:45:18Z</time>
      </trkpt>
      <trkpt lat="45.6732" lon="4.32335">
        <ele>454.2</ele>
        <time>2023-02-19T10:45:19Z</time>
      </trkpt>
      <trkpt lat="45.67319" lon="4.32337">
        <ele>454.3</ele>
        <time>2023-02-19T10:45:20Z</time>
      </trkpt>
      <trkpt lat="45.67317" lon="4.32339">
        <ele>454.4</ele>
        <time>2023-02-19T10:45:22Z</time>
      </trkpt>
      <trkpt lat="45.67313" lon="4.32341">
        <ele>454.6</ele>
        <time>2023-02-19T10:45:23Z</time>
      </trkpt>
      <trkpt lat="45.67311" lon="4.32342">
        <ele>454.7</ele>
        <time>2023-02-19T10:45:24Z</time>
      </trkpt>
      <trkpt lat="45.67308" lon="4.32342">
        <ele>454.8</ele>
        <time>2023-02-19T10:45:25Z</time>
      </trkpt>
      <trkpt lat="45.67305" lon="4.32344">
        <ele>454.9</ele>
        <time>2023-02-19T10:45:26Z</time>
      </trkpt>
      <trkpt lat="45.67303" lon="4.32344">
        <ele>454.9</ele>
        <time>2023-02-19T10:45:27Z</time>
      </trkpt>
      <trkpt lat="45.673" lon="4.32346">
        <ele>455</ele>
        <time>2023-02-19T10:45:28Z</time>
      </trkpt>
      <trkpt lat="45.67297" lon="4.32348">
        <ele>455.1</ele>
        <time>2023-02-19T10:45:30Z</time>
      </trkpt>
      <trkpt lat="45.67293" lon="4.3235">
        <ele>455.2</ele>
        <time>2023-02-19T10:45:31Z</time>
      </trkpt>
      <trkpt lat="45.67289" lon="4.32353">
        <ele>455.3</ele>
        <time>2023-02-19T10:45:32Z</time>
      </trkpt>
      <trkpt lat="45.67284" lon="4.32356">
        <ele>455.4</ele>
        <time>2023-02-19T10:45:33Z</time>
      </trkpt>
      <trkpt lat="45.67281" lon="4.32358">
        <ele>455.5</ele>
        <time>2023-02-19T10:45:34Z</time>
      </trkpt>
      <trkpt lat="45.67277" lon="4.3236">
        <ele>455.6</ele>
        <time>2023-02-19T10:45:36Z</time>
      </trkpt>
      <trkpt lat="45.67276" lon="4.3236">
        <ele>455.7</ele>
        <time>2023-02-19T10:45:37Z</time>
      </trkpt>
      <trkpt lat="45.67273" lon="4.32363">
        <ele>455.8</ele>
        <time>2023-02-19T10:45:38Z</time>
      </trkpt>
      <trkpt lat="45.67272" lon="4.32363">
        <ele>455.8</ele>
        <time>2023-02-19T10:45:39Z</time>
      </trkpt>
      <trkpt lat="45.6727" lon="4.32366">
        <ele>455.9</ele>
        <time>2023-02-19T10:45:40Z</time>
      </trkpt>
      <trkpt lat="45.67266" lon="4.32369">
        <ele>456</ele>
        <time>2023-02-19T10:45:41Z</time>
      </trkpt>
      <trkpt lat="45.67265" lon="4.3237">
        <ele>456.1</ele>
        <time>2023-02-19T10:45:42Z</time>
      </trkpt>
      <trkpt lat="45.67262" lon="4.32373">
        <ele>456.2</ele>
        <time>2023-02-19T10:45:44Z</time>
      </trkpt>
      <trkpt lat="45.67261" lon="4.32374">
        <ele>456.3</ele>
        <time>2023-02-19T10:45:45Z</time>
      </trkpt>
      <trkpt lat="45.67258" lon="4.32377">
        <ele>456.4</ele>
        <time>2023-02-19T10:45:46Z</time>
      </trkpt>
      <trkpt lat="45.67258" lon="4.32378">
        <ele>456.4</ele>
        <time>2023-02-19T10:45:47Z</time>
      </trkpt>
      <trkpt lat="45.67255" lon="4.32381">
        <ele>456.6</ele>
        <time>2023-02-19T10:45:48Z</time>
      </trkpt>
      <trkpt lat="45.67254" lon="4.32382">
        <ele>456.6</ele>
        <time>2023-02-19T10:45:49Z</time>
      </trkpt>
      <trkpt lat="45.67251" lon="4.32385">
        <ele>456.8</ele>
        <time>2023-02-19T10:45:50Z</time>
      </trkpt>
      <trkpt lat="45.6725" lon="4.32386">
        <ele>456.9</ele>
        <time>2023-02-19T10:45:51Z</time>
      </trkpt>
      <trkpt lat="45.67247" lon="4.32389">
        <ele>457</ele>
        <time>2023-02-19T10:45:53Z</time>
      </trkpt>
      <trkpt lat="45.67247" lon="4.3239">
        <ele>457.1</ele>
        <time>2023-02-19T10:45:54Z</time>
      </trkpt>
      <trkpt lat="45.67244" lon="4.32393">
        <ele>457.2</ele>
        <time>2023-02-19T10:45:55Z</time>
      </trkpt>
      <trkpt lat="45.67242" lon="4.32394">
        <ele>457.3</ele>
        <time>2023-02-19T10:45:56Z</time>
      </trkpt>
      <trkpt lat="45.6724" lon="4.32396">
        <ele>457.4</ele>
        <time>2023-02-19T10:45:57Z</time>
      </trkpt>
      <trkpt lat="45.67239" lon="4.32397">
        <ele>457.5</ele>
        <time>2023-02-19T10:45:58Z</time>
      </trkpt>
      <trkpt lat="45.67237" lon="4.32399">
        <ele>457.7</ele>
        <time>2023-02-19T10:46:00Z</time>
      </trkpt>
      <trkpt lat="45.67236" lon="4.32399">
        <ele>457.7</ele>
        <time>2023-02-19T10:46:01Z</time>
      </trkpt>
      <trkpt lat="45.67233" lon="4.32401">
        <ele>457.9</ele>
        <time>2023-02-19T10:46:02Z</time>
      </trkpt>
      <trkpt lat="45.67232" lon="4.32402">
        <ele>457.9</ele>
        <time>2023-02-19T10:46:03Z</time>
      </trkpt>
      <trkpt lat="45.67229" lon="4.32404">
        <ele>458.1</ele>
        <time>2023-02-19T10:46:04Z</time>
      </trkpt>
      <trkpt lat="45.67228" lon="4.32405">
        <ele>458.2</ele>
        <time>2023-02-19T10:46:05Z</time>
      </trkpt>
      <trkpt lat="45.67226" lon="4.32408">
        <ele>458.3</ele>
        <time>2023-02-19T10:46:06Z</time>
      </trkpt>
      <trkpt lat="45.67224" lon="4.3241">
        <ele>458.5</ele>
        <time>2023-02-19T10:46:07Z</time>
      </trkpt>
      <trkpt lat="45.6722" lon="4.32414">
        <ele>458.7</ele>
        <time>2023-02-19T10:46:09Z</time>
      </trkpt>
      <trkpt lat="45.67219" lon="4.32415">
        <ele>458.8</ele>
        <time>2023-02-19T10:46:10Z</time>
      </trkpt>
      <trkpt lat="45.67217" lon="4.32416">
        <ele>458.9</ele>
        <time>2023-02-19T10:46:11Z</time>
      </trkpt>
      <trkpt lat="45.67214" lon="4.32418">
        <ele>459.1</ele>
        <time>2023-02-19T10:46:13Z</time>
      </trkpt>
      <trkpt lat="45.67214" lon="4.32419">
        <ele>459.1</ele>
        <time>2023-02-19T10:46:14Z</time>
      </trkpt>
      <trkpt lat="45.67212" lon="4.3242">
        <ele>459.2</ele>
        <time>2023-02-19T10:46:15Z</time>
      </trkpt>
      <trkpt lat="45.6721" lon="4.32421">
        <ele>459.3</ele>
        <time>2023-02-19T10:46:16Z</time>
      </trkpt>
      <trkpt lat="45.67208" lon="4.32423">
        <ele>459.4</ele>
        <time>2023-02-19T10:46:17Z</time>
      </trkpt>
      <trkpt lat="45.67207" lon="4.32424">
        <ele>459.5</ele>
        <time>2023-02-19T10:46:18Z</time>
      </trkpt>
      <trkpt lat="45.67204" lon="4.32425">
        <ele>459.6</ele>
        <time>2023-02-19T10:46:19Z</time>
      </trkpt>
      <trkpt lat="45.67203" lon="4.32426">
        <ele>459.6</ele>
        <time>2023-02-19T10:46:20Z</time>
      </trkpt>
      <trkpt lat="45.67201" lon="4.32427">
        <ele>459.7</ele>
        <time>2023-02-19T10:46:22Z</time>
      </trkpt>
      <trkpt lat="45.672" lon="4.32428">
        <ele>459.8</ele>
        <time>2023-02-19T10:46:23Z</time>
      </trkpt>
      <trkpt lat="45.67198" lon="4.32429">
        <ele>459.8</ele>
        <time>2023-02-19T10:46:24Z</time>
      </trkpt>
      <trkpt lat="45.67197" lon="4.3243">
        <ele>459.9</ele>
        <time>2023-02-19T10:46:25Z</time>
      </trkpt>
      <trkpt lat="45.67195" lon="4.32432">
        <ele>460</ele>
        <time>2023-02-19T10:46:26Z</time>
      </trkpt>
      <trkpt lat="45.67195" lon="4.32433">
        <ele>460</ele>
        <time>2023-02-19T10:46:27Z</time>
      </trkpt>
      <trkpt lat="45.67193" lon="4.32434">
        <ele>460.1</ele>
        <time>2023-02-19T10:46:28Z</time>
      </trkpt>
      <trkpt lat="45.67192" lon="4.32436">
        <ele>460.2</ele>
        <time>2023-02-19T10:46:29Z</time>
      </trkpt>
      <trkpt lat="45.6719" lon="4.32437">
        <ele>460.2</ele>
        <time>2023-02-19T10:46:30Z</time>
      </trkpt>
      <trkpt lat="45.67189" lon="4.32439">
        <ele>460.3</ele>
        <time>2023-02-19T10:46:32Z</time>
      </trkpt>
      <trkpt lat="45.67187" lon="4.32441">
        <ele>460.4</ele>
        <time>2023-02-19T10:46:33Z</time>
      </trkpt>
      <trkpt lat="45.67186" lon="4.32444">
        <ele>460.5</ele>
        <time>2023-02-19T10:46:34Z</time>
      </trkpt>
      <trkpt lat="45.67184" lon="4.32447">
        <ele>460.6</ele>
        <time>2023-02-19T10:46:36Z</time>
      </trkpt>
      <trkpt lat="45.67183" lon="4.32448">
        <ele>460.6</ele>
        <time>2023-02-19T10:46:37Z</time>
      </trkpt>
      <trkpt lat="45.67182" lon="4.32449">
        <ele>460.6</ele>
        <time>2023-02-19T10:46:38Z</time>
      </trkpt>
      <trkpt lat="45.67181" lon="4.32451">
        <ele>460.7</ele>
        <time>2023-02-19T10:46:39Z</time>
      </trkpt>
      <trkpt lat="45.6718" lon="4.32453">
        <ele>460.8</ele>
        <time>2023-02-19T10:46:40Z</time>
      </trkpt>
      <trkpt lat="45.67179" lon="4.32454">
        <ele>460.8</ele>
        <time>2023-02-19T10:46:41Z</time>
      </trkpt>
      <trkpt lat="45.67178" lon="4.32456">
        <ele>460.8</ele>
        <time>2023-02-19T10:46:42Z</time>
      </trkpt>
      <trkpt lat="45.67176" lon="4.32459">
        <ele>460.9</ele>
        <time>2023-02-19T10:46:44Z</time>
      </trkpt>
      <trkpt lat="45.67176" lon="4.32461">
        <ele>461</ele>
        <time>2023-02-19T10:46:45Z</time>
      </trkpt>
      <trkpt lat="45.67174" lon="4.32465">
        <ele>461.1</ele>
        <time>2023-02-19T10:46:46Z</time>
      </trkpt>
      <trkpt lat="45.67173" lon="4.32466">
        <ele>461.1</ele>
        <time>2023-02-19T10:46:47Z</time>
      </trkpt>
      <trkpt lat="45.67172" lon="4.32467">
        <ele>461.1</ele>
        <time>2023-02-19T10:46:48Z</time>
      </trkpt>
      <trkpt lat="45.6717" lon="4.32469">
        <ele>461.2</ele>
        <time>2023-02-19T10:46:49Z</time>
      </trkpt>
      <trkpt lat="45.67169" lon="4.32471">
        <ele>461.2</ele>
        <time>2023-02-19T10:46:50Z</time>
      </trkpt>
      <trkpt lat="45.67168" lon="4.32472">
        <ele>461.3</ele>
        <time>2023-02-19T10:46:52Z</time>
      </trkpt>
      <trkpt lat="45.67167" lon="4.32473">
        <ele>461.3</ele>
        <time>2023-02-19T10:46:53Z</time>
      </trkpt>
      <trkpt lat="45.67166" lon="4.32474">
        <ele>461.3</ele>
        <time>2023-02-19T10:46:54Z</time>
      </trkpt>
      <trkpt lat="45.67164" lon="4.32475">
        <ele>461.4</ele>
        <time>2023-02-19T10:46:55Z</time>
      </trkpt>
      <trkpt lat="45.67162" lon="4.32477">
        <ele>461.5</ele>
        <time>2023-02-19T10:46:56Z</time>
      </trkpt>
      <trkpt lat="45.67161" lon="4.32477">
        <ele>461.5</ele>
        <time>2023-02-19T10:46:57Z</time>
      </trkpt>
      <trkpt lat="45.67159" lon="4.32479">
        <ele>461.5</ele>
        <time>2023-02-19T10:46:59Z</time>
      </trkpt>
      <trkpt lat="45.67158" lon="4.3248">
        <ele>461.6</ele>
        <time>2023-02-19T10:47:00Z</time>
      </trkpt>
      <trkpt lat="45.67157" lon="4.32481">
        <ele>461.7</ele>
        <time>2023-02-19T10:47:01Z</time>
      </trkpt>
      <trkpt lat="45.67156" lon="4.32483">
        <ele>461.7</ele>
        <time>2023-02-19T10:47:02Z</time>
      </trkpt>
      <trkpt lat="45.67154" lon="4.32485">
        <ele>461.8</ele>
        <time>2023-02-19T10:47:03Z</time>
      </trkpt>
      <trkpt lat="45.67153" lon="4.32486">
        <ele>461.8</ele>
        <time>2023-02-19T10:47:04Z</time>
      </trkpt>
      <trkpt lat="45.67152" lon="4.32487">
        <ele>461.9</ele>
        <time>2023-02-19T10:47:05Z</time>
      </trkpt>
      <trkpt lat="45.67151" lon="4.32488">
        <ele>461.9</ele>
        <time>2023-02-19T10:47:06Z</time>
      </trkpt>
      <trkpt lat="45.6715" lon="4.3249">
        <ele>462</ele>
        <time>2023-02-19T10:47:07Z</time>
      </trkpt>
      <trkpt lat="45.67148" lon="4.32492">
        <ele>462.1</ele>
        <time>2023-02-19T10:47:08Z</time>
      </trkpt>
      <trkpt lat="45.67147" lon="4.32493">
        <ele>462.2</ele>
        <time>2023-02-19T10:47:09Z</time>
      </trkpt>
      <trkpt lat="45.67146" lon="4.32495">
        <ele>462.3</ele>
        <time>2023-02-19T10:47:11Z</time>
      </trkpt>
      <trkpt lat="45.67145" lon="4.32497">
        <ele>462.3</ele>
        <time>2023-02-19T10:47:12Z</time>
      </trkpt>
      <trkpt lat="45.67144" lon="4.32499">
        <ele>462.4</ele>
        <time>2023-02-19T10:47:13Z</time>
      </trkpt>
      <trkpt lat="45.67143" lon="4.32501">
        <ele>462.5</ele>
        <time>2023-02-19T10:47:14Z</time>
      </trkpt>
      <trkpt lat="45.67142" lon="4.32502">
        <ele>462.6</ele>
        <time>2023-02-19T10:47:15Z</time>
      </trkpt>
      <trkpt lat="45.67141" lon="4.32504">
        <ele>462.6</ele>
        <time>2023-02-19T10:47:16Z</time>
      </trkpt>
      <trkpt lat="45.6714" lon="4.32507">
        <ele>462.8</ele>
        <time>2023-02-19T10:47:19Z</time>
      </trkpt>
      <trkpt lat="45.6714" lon="4.32509">
        <ele>462.8</ele>
        <time>2023-02-19T10:47:20Z</time>
      </trkpt>
      <trkpt lat="45.6714" lon="4.32512">
        <ele>463</ele>
        <time>2023-02-19T10:47:21Z</time>
      </trkpt>
      <trkpt lat="45.6714" lon="4.32513">
        <ele>463.1</ele>
        <time>2023-02-19T10:47:22Z</time>
      </trkpt>
      <trkpt lat="45.6714" lon="4.32515">
        <ele>463.1</ele>
        <time>2023-02-19T10:47:23Z</time>
      </trkpt>
      <trkpt lat="45.6714" lon="4.32519">
        <ele>463.3</ele>
        <time>2023-02-19T10:47:24Z</time>
      </trkpt>
      <trkpt lat="45.6714" lon="4.3252">
        <ele>463.4</ele>
        <time>2023-02-19T10:47:25Z</time>
      </trkpt>
      <trkpt lat="45.67139" lon="4.32523">
        <ele>463.5</ele>
        <time>2023-02-19T10:47:26Z</time>
      </trkpt>
      <trkpt lat="45.67139" lon="4.32526">
        <ele>463.6</ele>
        <time>2023-02-19T10:47:28Z</time>
      </trkpt>
      <trkpt lat="45.67139" lon="4.3253">
        <ele>463.9</ele>
        <time>2023-02-19T10:47:29Z</time>
      </trkpt>
      <trkpt lat="45.67139" lon="4.32531">
        <ele>463.9</ele>
        <time>2023-02-19T10:47:30Z</time>
      </trkpt>
      <trkpt lat="45.67138" lon="4.32536">
        <ele>464.1</ele>
        <time>2023-02-19T10:47:31Z</time>
      </trkpt>
      <trkpt lat="45.67138" lon="4.32537">
        <ele>464.2</ele>
        <time>2023-02-19T10:47:32Z</time>
      </trkpt>
      <trkpt lat="45.67137" lon="4.32542">
        <ele>464.4</ele>
        <time>2023-02-19T10:47:34Z</time>
      </trkpt>
      <trkpt lat="45.67137" lon="4.32544">
        <ele>464.5</ele>
        <time>2023-02-19T10:47:35Z</time>
      </trkpt>
      <trkpt lat="45.67136" lon="4.32548">
        <ele>464.7</ele>
        <time>2023-02-19T10:47:36Z</time>
      </trkpt>
      <trkpt lat="45.67135" lon="4.32554">
        <ele>465</ele>
        <time>2023-02-19T10:47:38Z</time>
      </trkpt>
      <trkpt lat="45.67135" lon="4.32556">
        <ele>465.1</ele>
        <time>2023-02-19T10:47:39Z</time>
      </trkpt>
      <trkpt lat="45.67134" lon="4.32557">
        <ele>465.2</ele>
        <time>2023-02-19T10:47:40Z</time>
      </trkpt>
      <trkpt lat="45.67133" lon="4.32561">
        <ele>465.5</ele>
        <time>2023-02-19T10:47:42Z</time>
      </trkpt>
      <trkpt lat="45.67133" lon="4.32564">
        <ele>465.6</ele>
        <time>2023-02-19T10:47:43Z</time>
      </trkpt>
      <trkpt lat="45.67132" lon="4.32565">
        <ele>465.7</ele>
        <time>2023-02-19T10:47:44Z</time>
      </trkpt>
      <trkpt lat="45.67131" lon="4.32567">
        <ele>465.8</ele>
        <time>2023-02-19T10:47:45Z</time>
      </trkpt>
      <trkpt lat="45.6713" lon="4.32569">
        <ele>465.9</ele>
        <time>2023-02-19T10:47:46Z</time>
      </trkpt>
      <trkpt lat="45.67129" lon="4.32572">
        <ele>466.1</ele>
        <time>2023-02-19T10:47:47Z</time>
      </trkpt>
      <trkpt lat="45.67128" lon="4.32573">
        <ele>466.2</ele>
        <time>2023-02-19T10:47:48Z</time>
      </trkpt>
      <trkpt lat="45.67128" lon="4.32574">
        <ele>466.3</ele>
        <time>2023-02-19T10:47:49Z</time>
      </trkpt>
      <trkpt lat="45.67127" lon="4.32576">
        <ele>466.4</ele>
        <time>2023-02-19T10:47:51Z</time>
      </trkpt>
      <trkpt lat="45.67126" lon="4.32577">
        <ele>466.4</ele>
        <time>2023-02-19T10:47:52Z</time>
      </trkpt>
      <trkpt lat="45.67125" lon="4.32578">
        <ele>466.5</ele>
        <time>2023-02-19T10:47:53Z</time>
      </trkpt>
      <trkpt lat="45.67124" lon="4.3258">
        <ele>466.6</ele>
        <time>2023-02-19T10:47:54Z</time>
      </trkpt>
      <trkpt lat="45.67124" lon="4.32581">
        <ele>466.7</ele>
        <time>2023-02-19T10:47:55Z</time>
      </trkpt>
      <trkpt lat="45.67123" lon="4.32582">
        <ele>466.8</ele>
        <time>2023-02-19T10:47:56Z</time>
      </trkpt>
      <trkpt lat="45.67123" lon="4.32584">
        <ele>466.8</ele>
        <time>2023-02-19T10:47:58Z</time>
      </trkpt>
      <trkpt lat="45.67122" lon="4.32585">
        <ele>466.9</ele>
        <time>2023-02-19T10:47:59Z</time>
      </trkpt>
      <trkpt lat="45.67122" lon="4.32585">
        <ele>466.9</ele>
        <time>2023-02-19T10:48:00Z</time>
      </trkpt>
      <trkpt lat="45.67121" lon="4.32586">
        <ele>467</ele>
        <time>2023-02-19T10:48:01Z</time>
      </trkpt>
      <trkpt lat="45.6712" lon="4.32588">
        <ele>467.1</ele>
        <time>2023-02-19T10:48:02Z</time>
      </trkpt>
      <trkpt lat="45.67119" lon="4.3259">
        <ele>467.2</ele>
        <time>2023-02-19T10:48:03Z</time>
      </trkpt>
      <trkpt lat="45.67119" lon="4.32591">
        <ele>467.2</ele>
        <time>2023-02-19T10:48:04Z</time>
      </trkpt>
      <trkpt lat="45.67118" lon="4.32592">
        <ele>467.3</ele>
        <time>2023-02-19T10:48:05Z</time>
      </trkpt>
      <trkpt lat="45.67117" lon="4.32593">
        <ele>467.3</ele>
        <time>2023-02-19T10:48:06Z</time>
      </trkpt>
      <trkpt lat="45.67116" lon="4.32595">
        <ele>467.4</ele>
        <time>2023-02-19T10:48:08Z</time>
      </trkpt>
      <trkpt lat="45.67115" lon="4.32597">
        <ele>467.5</ele>
        <time>2023-02-19T10:48:09Z</time>
      </trkpt>
      <trkpt lat="45.67115" lon="4.32598">
        <ele>467.6</ele>
        <time>2023-02-19T10:48:10Z</time>
      </trkpt>
      <trkpt lat="45.67114" lon="4.32601">
        <ele>467.6</ele>
        <time>2023-02-19T10:48:11Z</time>
      </trkpt>
      <trkpt lat="45.67113" lon="4.32603">
        <ele>467.7</ele>
        <time>2023-02-19T10:48:13Z</time>
      </trkpt>
      <trkpt lat="45.67113" lon="4.32605">
        <ele>467.7</ele>
        <time>2023-02-19T10:48:14Z</time>
      </trkpt>
      <trkpt lat="45.67113" lon="4.32607">
        <ele>467.8</ele>
        <time>2023-02-19T10:48:15Z</time>
      </trkpt>
      <trkpt lat="45.67112" lon="4.3261">
        <ele>467.8</ele>
        <time>2023-02-19T10:48:16Z</time>
      </trkpt>
      <trkpt lat="45.67112" lon="4.32611">
        <ele>467.9</ele>
        <time>2023-02-19T10:48:17Z</time>
      </trkpt>
      <trkpt lat="45.67112" lon="4.32612">
        <ele>467.9</ele>
        <time>2023-02-19T10:48:18Z</time>
      </trkpt>
      <trkpt lat="45.67112" lon="4.32613">
        <ele>467.9</ele>
        <time>2023-02-19T10:48:19Z</time>
      </trkpt>
      <trkpt lat="45.67112" lon="4.32615">
        <ele>467.9</ele>
        <time>2023-02-19T10:48:21Z</time>
      </trkpt>
      <trkpt lat="45.67112" lon="4.32616">
        <ele>468</ele>
        <time>2023-02-19T10:48:22Z</time>
      </trkpt>
      <trkpt lat="45.67112" lon="4.32617">
        <ele>468</ele>
        <time>2023-02-19T10:48:23Z</time>
      </trkpt>
      <trkpt lat="45.67112" lon="4.32618">
        <ele>468</ele>
        <time>2023-02-19T10:48:24Z</time>
      </trkpt>
      <trkpt lat="45.67112" lon="4.3262">
        <ele>468</ele>
        <time>2023-02-19T10:48:25Z</time>
      </trkpt>
      <trkpt lat="45.67112" lon="4.32622">
        <ele>468</ele>
        <time>2023-02-19T10:48:26Z</time>
      </trkpt>
      <trkpt lat="45.67112" lon="4.32623">
        <ele>468.1</ele>
        <time>2023-02-19T10:48:28Z</time>
      </trkpt>
      <trkpt lat="45.67112" lon="4.32624">
        <ele>468.1</ele>
        <time>2023-02-19T10:48:29Z</time>
      </trkpt>
      <trkpt lat="45.67112" lon="4.32626">
        <ele>468.1</ele>
        <time>2023-02-19T10:48:30Z</time>
      </trkpt>
      <trkpt lat="45.67112" lon="4.32627">
        <ele>468.1</ele>
        <time>2023-02-19T10:48:31Z</time>
      </trkpt>
      <trkpt lat="45.67112" lon="4.32629">
        <ele>468.1</ele>
        <time>2023-02-19T10:48:32Z</time>
      </trkpt>
      <trkpt lat="45.67111" lon="4.32631">
        <ele>468.2</ele>
        <time>2023-02-19T10:48:33Z</time>
      </trkpt>
      <trkpt lat="45.67111" lon="4.32633">
        <ele>468.2</ele>
        <time>2023-02-19T10:48:34Z</time>
      </trkpt>
      <trkpt lat="45.6711" lon="4.32634">
        <ele>468.2</ele>
        <time>2023-02-19T10:48:35Z</time>
      </trkpt>
      <trkpt lat="45.6711" lon="4.32636">
        <ele>468.2</ele>
        <time>2023-02-19T10:48:36Z</time>
      </trkpt>
      <trkpt lat="45.67109" lon="4.32637">
        <ele>468.3</ele>
        <time>2023-02-19T10:48:37Z</time>
      </trkpt>
      <trkpt lat="45.67109" lon="4.32639">
        <ele>468.3</ele>
        <time>2023-02-19T10:48:39Z</time>
      </trkpt>
      <trkpt lat="45.67109" lon="4.3264">
        <ele>468.3</ele>
        <time>2023-02-19T10:48:40Z</time>
      </trkpt>
      <trkpt lat="45.67109" lon="4.3264">
        <ele>468.3</ele>
        <time>2023-02-19T10:48:41Z</time>
      </trkpt>
      <trkpt lat="45.67109" lon="4.32641">
        <ele>468.3</ele>
        <time>2023-02-19T10:48:42Z</time>
      </trkpt>
      <trkpt lat="45.67109" lon="4.32642">
        <ele>468.4</ele>
        <time>2023-02-19T10:48:43Z</time>
      </trkpt>
      <trkpt lat="45.67108" lon="4.32643">
        <ele>468.4</ele>
        <time>2023-02-19T10:48:44Z</time>
      </trkpt>
      <trkpt lat="45.67108" lon="4.32644">
        <ele>468.4</ele>
        <time>2023-02-19T10:48:45Z</time>
      </trkpt>
      <trkpt lat="45.67107" lon="4.32645">
        <ele>468.4</ele>
        <time>2023-02-19T10:48:47Z</time>
      </trkpt>
      <trkpt lat="45.67107" lon="4.32646">
        <ele>468.4</ele>
        <time>2023-02-19T10:48:48Z</time>
      </trkpt>
      <trkpt lat="45.67107" lon="4.32647">
        <ele>468.5</ele>
        <time>2023-02-19T10:48:49Z</time>
      </trkpt>
      <trkpt lat="45.67106" lon="4.32648">
        <ele>468.5</ele>
        <time>2023-02-19T10:48:50Z</time>
      </trkpt>
      <trkpt lat="45.67106" lon="4.32649">
        <ele>468.5</ele>
        <time>2023-02-19T10:48:51Z</time>
      </trkpt>
      <trkpt lat="45.67105" lon="4.32651">
        <ele>468.6</ele>
        <time>2023-02-19T10:48:52Z</time>
      </trkpt>
      <trkpt lat="45.67104" lon="4.32652">
        <ele>468.6</ele>
        <time>2023-02-19T10:48:53Z</time>
      </trkpt>
      <trkpt lat="45.67102" lon="4.32656">
        <ele>468.8</ele>
        <time>2023-02-19T10:48:55Z</time>
      </trkpt>
      <trkpt lat="45.67101" lon="4.32658">
        <ele>468.9</ele>
        <time>2023-02-19T10:48:56Z</time>
      </trkpt>
      <trkpt lat="45.67099" lon="4.3266">
        <ele>469</ele>
        <time>2023-02-19T10:48:57Z</time>
      </trkpt>
      <trkpt lat="45.67098" lon="4.32662">
        <ele>469.1</ele>
        <time>2023-02-19T10:48:59Z</time>
      </trkpt>
      <trkpt lat="45.67097" lon="4.32664">
        <ele>469.2</ele>
        <time>2023-02-19T10:49:00Z</time>
      </trkpt>
      <trkpt lat="45.67095" lon="4.32665">
        <ele>469.3</ele>
        <time>2023-02-19T10:49:01Z</time>
      </trkpt>
      <trkpt lat="45.67094" lon="4.32666">
        <ele>469.4</ele>
        <time>2023-02-19T10:49:02Z</time>
      </trkpt>
      <trkpt lat="45.67093" lon="4.32666">
        <ele>469.5</ele>
        <time>2023-02-19T10:49:03Z</time>
      </trkpt>
      <trkpt lat="45.67092" lon="4.32668">
        <ele>469.6</ele>
        <time>2023-02-19T10:49:04Z</time>
      </trkpt>
      <trkpt lat="45.6709" lon="4.32669">
        <ele>469.8</ele>
        <time>2023-02-19T10:49:05Z</time>
      </trkpt>
      <trkpt lat="45.67089" lon="4.3267">
        <ele>469.9</ele>
        <time>2023-02-19T10:49:06Z</time>
      </trkpt>
      <trkpt lat="45.67088" lon="4.32671">
        <ele>470</ele>
        <time>2023-02-19T10:49:08Z</time>
      </trkpt>
      <trkpt lat="45.67087" lon="4.32672">
        <ele>470.1</ele>
        <time>2023-02-19T10:49:09Z</time>
      </trkpt>
      <trkpt lat="45.67086" lon="4.32673">
        <ele>470.2</ele>
        <time>2023-02-19T10:49:10Z</time>
      </trkpt>
      <trkpt lat="45.67086" lon="4.32674">
        <ele>470.3</ele>
        <time>2023-02-19T10:49:11Z</time>
      </trkpt>
      <trkpt lat="45.67085" lon="4.32676">
        <ele>470.5</ele>
        <time>2023-02-19T10:49:12Z</time>
      </trkpt>
      <trkpt lat="45.67085" lon="4.32677">
        <ele>470.6</ele>
        <time>2023-02-19T10:49:13Z</time>
      </trkpt>
      <trkpt lat="45.67084" lon="4.32679">
        <ele>470.7</ele>
        <time>2023-02-19T10:49:14Z</time>
      </trkpt>
      <trkpt lat="45.67084" lon="4.3268">
        <ele>470.8</ele>
        <time>2023-02-19T10:49:15Z</time>
      </trkpt>
      <trkpt lat="45.67083" lon="4.32682">
        <ele>471</ele>
        <time>2023-02-19T10:49:16Z</time>
      </trkpt>
      <trkpt lat="45.67082" lon="4.32684">
        <ele>471.1</ele>
        <time>2023-02-19T10:49:18Z</time>
      </trkpt>
      <trkpt lat="45.67081" lon="4.32686">
        <ele>471.3</ele>
        <time>2023-02-19T10:49:19Z</time>
      </trkpt>
      <trkpt lat="45.67079" lon="4.32689">
        <ele>471.6</ele>
        <time>2023-02-19T10:49:20Z</time>
      </trkpt>
      <trkpt lat="45.67077" lon="4.32692">
        <ele>471.9</ele>
        <time>2023-02-19T10:49:22Z</time>
      </trkpt>
      <trkpt lat="45.67076" lon="4.32694">
        <ele>472.1</ele>
        <time>2023-02-19T10:49:23Z</time>
      </trkpt>
      <trkpt lat="45.67075" lon="4.32695">
        <ele>472.2</ele>
        <time>2023-02-19T10:49:24Z</time>
      </trkpt>
      <trkpt lat="45.67073" lon="4.32698">
        <ele>472.5</ele>
        <time>2023-02-19T10:49:25Z</time>
      </trkpt>
      <trkpt lat="45.67073" lon="4.32699">
        <ele>472.6</ele>
        <time>2023-02-19T10:49:26Z</time>
      </trkpt>
      <trkpt lat="45.67071" lon="4.32702">
        <ele>472.8</ele>
        <time>2023-02-19T10:49:27Z</time>
      </trkpt>
      <trkpt lat="45.6707" lon="4.32704">
        <ele>473.1</ele>
        <time>2023-02-19T10:49:29Z</time>
      </trkpt>
      <trkpt lat="45.67069" lon="4.32705">
        <ele>473.2</ele>
        <time>2023-02-19T10:49:30Z</time>
      </trkpt>
      <trkpt lat="45.67067" lon="4.32707">
        <ele>473.4</ele>
        <time>2023-02-19T10:49:31Z</time>
      </trkpt>
      <trkpt lat="45.67066" lon="4.32709">
        <ele>473.5</ele>
        <time>2023-02-19T10:49:32Z</time>
      </trkpt>
      <trkpt lat="45.67065" lon="4.3271">
        <ele>473.7</ele>
        <time>2023-02-19T10:49:33Z</time>
      </trkpt>
      <trkpt lat="45.67065" lon="4.32712">
        <ele>473.8</ele>
        <time>2023-02-19T10:49:34Z</time>
      </trkpt>
      <trkpt lat="45.67064" lon="4.32714">
        <ele>473.9</ele>
        <time>2023-02-19T10:49:35Z</time>
      </trkpt>
      <trkpt lat="45.67063" lon="4.32715">
        <ele>474</ele>
        <time>2023-02-19T10:49:36Z</time>
      </trkpt>
      <trkpt lat="45.67063" lon="4.32717">
        <ele>474.1</ele>
        <time>2023-02-19T10:49:38Z</time>
      </trkpt>
      <trkpt lat="45.67063" lon="4.32718">
        <ele>474.2</ele>
        <time>2023-02-19T10:49:39Z</time>
      </trkpt>
      <trkpt lat="45.67063" lon="4.32718">
        <ele>474.2</ele>
        <time>2023-02-19T10:49:40Z</time>
      </trkpt>
      <trkpt lat="45.67063" lon="4.32719">
        <ele>474.3</ele>
        <time>2023-02-19T10:49:41Z</time>
      </trkpt>
      <trkpt lat="45.67062" lon="4.32719">
        <ele>474.3</ele>
        <time>2023-02-19T10:49:42Z</time>
      </trkpt>
      <trkpt lat="45.67062" lon="4.3272">
        <ele>474.3</ele>
        <time>2023-02-19T10:49:43Z</time>
      </trkpt>
      <trkpt lat="45.67062" lon="4.32721">
        <ele>474.4</ele>
        <time>2023-02-19T10:49:44Z</time>
      </trkpt>
      <trkpt lat="45.67062" lon="4.32722">
        <ele>474.5</ele>
        <time>2023-02-19T10:49:46Z</time>
      </trkpt>
      <trkpt lat="45.67061" lon="4.32723">
        <ele>474.5</ele>
        <time>2023-02-19T10:49:47Z</time>
      </trkpt>
      <trkpt lat="45.67061" lon="4.32724">
        <ele>474.6</ele>
        <time>2023-02-19T10:49:48Z</time>
      </trkpt>
      <trkpt lat="45.6706" lon="4.32725">
        <ele>474.7</ele>
        <time>2023-02-19T10:49:49Z</time>
      </trkpt>
      <trkpt lat="45.67059" lon="4.32726">
        <ele>474.8</ele>
        <time>2023-02-19T10:49:50Z</time>
      </trkpt>
      <trkpt lat="45.67058" lon="4.32727">
        <ele>474.9</ele>
        <time>2023-02-19T10:49:51Z</time>
      </trkpt>
      <trkpt lat="45.67057" lon="4.32728">
        <ele>475</ele>
        <time>2023-02-19T10:49:53Z</time>
      </trkpt>
      <trkpt lat="45.67056" lon="4.32729">
        <ele>475.1</ele>
        <time>2023-02-19T10:49:54Z</time>
      </trkpt>
      <trkpt lat="45.67056" lon="4.3273">
        <ele>475.1</ele>
        <time>2023-02-19T10:49:55Z</time>
      </trkpt>
      <trkpt lat="45.67055" lon="4.32731">
        <ele>475.2</ele>
        <time>2023-02-19T10:49:56Z</time>
      </trkpt>
      <trkpt lat="45.67054" lon="4.32732">
        <ele>475.2</ele>
        <time>2023-02-19T10:49:57Z</time>
      </trkpt>
      <trkpt lat="45.67054" lon="4.32733">
        <ele>475.3</ele>
        <time>2023-02-19T10:49:58Z</time>
      </trkpt>
      <trkpt lat="45.67053" lon="4.32733">
        <ele>475.3</ele>
        <time>2023-02-19T10:49:59Z</time>
      </trkpt>
      <trkpt lat="45.67053" lon="4.32734">
        <ele>475.4</ele>
        <time>2023-02-19T10:50:00Z</time>
      </trkpt>
      <trkpt lat="45.67053" lon="4.32735">
        <ele>475.5</ele>
        <time>2023-02-19T10:50:02Z</time>
      </trkpt>
      <trkpt lat="45.67052" lon="4.32736">
        <ele>475.5</ele>
        <time>2023-02-19T10:50:03Z</time>
      </trkpt>
      <trkpt lat="45.67051" lon="4.32738">
        <ele>475.6</ele>
        <time>2023-02-19T10:50:04Z</time>
      </trkpt>
      <trkpt lat="45.6705" lon="4.32739">
        <ele>475.7</ele>
        <time>2023-02-19T10:50:05Z</time>
      </trkpt>
      <trkpt lat="45.67049" lon="4.3274">
        <ele>475.8</ele>
        <time>2023-02-19T10:50:06Z</time>
      </trkpt>
      <trkpt lat="45.67047" lon="4.32742">
        <ele>475.9</ele>
        <time>2023-02-19T10:50:08Z</time>
      </trkpt>
      <trkpt lat="45.67046" lon="4.32743">
        <ele>476</ele>
        <time>2023-02-19T10:50:09Z</time>
      </trkpt>
      <trkpt lat="45.67045" lon="4.32744">
        <ele>476.1</ele>
        <time>2023-02-19T10:50:10Z</time>
      </trkpt>
      <trkpt lat="45.67044" lon="4.32745">
        <ele>476.2</ele>
        <time>2023-02-19T10:50:11Z</time>
      </trkpt>
      <trkpt lat="45.67043" lon="4.32746">
        <ele>476.2</ele>
        <time>2023-02-19T10:50:12Z</time>
      </trkpt>
      <trkpt lat="45.67042" lon="4.32747">
        <ele>476.3</ele>
        <time>2023-02-19T10:50:13Z</time>
      </trkpt>
      <trkpt lat="45.67041" lon="4.32748">
        <ele>476.4</ele>
        <time>2023-02-19T10:50:15Z</time>
      </trkpt>
      <trkpt lat="45.6704" lon="4.32749">
        <ele>476.4</ele>
        <time>2023-02-19T10:50:16Z</time>
      </trkpt>
      <trkpt lat="45.67039" lon="4.3275">
        <ele>476.5</ele>
        <time>2023-02-19T10:50:17Z</time>
      </trkpt>
      <trkpt lat="45.67039" lon="4.32751">
        <ele>476.6</ele>
        <time>2023-02-19T10:50:18Z</time>
      </trkpt>
      <trkpt lat="45.67038" lon="4.32753">
        <ele>476.6</ele>
        <time>2023-02-19T10:50:19Z</time>
      </trkpt>
      <trkpt lat="45.67037" lon="4.32754">
        <ele>476.7</ele>
        <time>2023-02-19T10:50:20Z</time>
      </trkpt>
      <trkpt lat="45.67036" lon="4.32755">
        <ele>476.8</ele>
        <time>2023-02-19T10:50:21Z</time>
      </trkpt>
      <trkpt lat="45.67034" lon="4.32756">
        <ele>476.9</ele>
        <time>2023-02-19T10:50:23Z</time>
      </trkpt>
      <trkpt lat="45.67034" lon="4.32757">
        <ele>476.9</ele>
        <time>2023-02-19T10:50:24Z</time>
      </trkpt>
      <trkpt lat="45.67033" lon="4.32758">
        <ele>477</ele>
        <time>2023-02-19T10:50:25Z</time>
      </trkpt>
      <trkpt lat="45.67031" lon="4.32761">
        <ele>477.1</ele>
        <time>2023-02-19T10:50:26Z</time>
      </trkpt>
      <trkpt lat="45.6703" lon="4.32762">
        <ele>477.2</ele>
        <time>2023-02-19T10:50:27Z</time>
      </trkpt>
      <trkpt lat="45.67029" lon="4.32764">
        <ele>477.3</ele>
        <time>2023-02-19T10:50:28Z</time>
      </trkpt>
      <trkpt lat="45.67028" lon="4.32765">
        <ele>477.3</ele>
        <time>2023-02-19T10:50:29Z</time>
      </trkpt>
      <trkpt lat="45.67026" lon="4.32767">
        <ele>477.5</ele>
        <time>2023-02-19T10:50:31Z</time>
      </trkpt>
      <trkpt lat="45.67025" lon="4.32768">
        <ele>477.5</ele>
        <time>2023-02-19T10:50:32Z</time>
      </trkpt>
      <trkpt lat="45.67024" lon="4.32769">
        <ele>477.5</ele>
        <time>2023-02-19T10:50:33Z</time>
      </trkpt>
      <trkpt lat="45.67022" lon="4.32771">
        <ele>477.7</ele>
        <time>2023-02-19T10:50:34Z</time>
      </trkpt>
      <trkpt lat="45.67021" lon="4.32772">
        <ele>477.7</ele>
        <time>2023-02-19T10:50:35Z</time>
      </trkpt>
      <trkpt lat="45.6702" lon="4.32773">
        <ele>477.8</ele>
        <time>2023-02-19T10:50:37Z</time>
      </trkpt>
      <trkpt lat="45.67019" lon="4.32775">
        <ele>477.9</ele>
        <time>2023-02-19T10:50:38Z</time>
      </trkpt>
      <trkpt lat="45.67018" lon="4.32776">
        <ele>477.9</ele>
        <time>2023-02-19T10:50:39Z</time>
      </trkpt>
      <trkpt lat="45.67017" lon="4.32778">
        <ele>478</ele>
        <time>2023-02-19T10:50:40Z</time>
      </trkpt>
      <trkpt lat="45.67016" lon="4.3278">
        <ele>478.1</ele>
        <time>2023-02-19T10:50:41Z</time>
      </trkpt>
      <trkpt lat="45.67015" lon="4.32782">
        <ele>478.2</ele>
        <time>2023-02-19T10:50:42Z</time>
      </trkpt>
      <trkpt lat="45.67015" lon="4.32783">
        <ele>478.2</ele>
        <time>2023-02-19T10:50:43Z</time>
      </trkpt>
      <trkpt lat="45.67014" lon="4.32787">
        <ele>478.4</ele>
        <time>2023-02-19T10:50:44Z</time>
      </trkpt>
      <trkpt lat="45.67013" lon="4.32788">
        <ele>478.4</ele>
        <time>2023-02-19T10:50:45Z</time>
      </trkpt>
      <trkpt lat="45.67013" lon="4.32791">
        <ele>478.5</ele>
        <time>2023-02-19T10:50:47Z</time>
      </trkpt>
      <trkpt lat="45.67012" lon="4.32793">
        <ele>478.6</ele>
        <time>2023-02-19T10:50:48Z</time>
      </trkpt>
      <trkpt lat="45.67011" lon="4.32795">
        <ele>478.7</ele>
        <time>2023-02-19T10:50:49Z</time>
      </trkpt>
      <trkpt lat="45.6701" lon="4.32796">
        <ele>478.8</ele>
        <time>2023-02-19T10:50:50Z</time>
      </trkpt>
      <trkpt lat="45.6701" lon="4.32797">
        <ele>478.8</ele>
        <time>2023-02-19T10:50:51Z</time>
      </trkpt>
      <trkpt lat="45.67009" lon="4.32799">
        <ele>478.9</ele>
        <time>2023-02-19T10:50:52Z</time>
      </trkpt>
      <trkpt lat="45.67008" lon="4.328">
        <ele>479</ele>
        <time>2023-02-19T10:50:53Z</time>
      </trkpt>
      <trkpt lat="45.67007" lon="4.32801">
        <ele>479</ele>
        <time>2023-02-19T10:50:54Z</time>
      </trkpt>
      <trkpt lat="45.67006" lon="4.32802">
        <ele>479.1</ele>
        <time>2023-02-19T10:50:55Z</time>
      </trkpt>
      <trkpt lat="45.67005" lon="4.32803">
        <ele>479.2</ele>
        <time>2023-02-19T10:50:56Z</time>
      </trkpt>
      <trkpt lat="45.67002" lon="4.32805">
        <ele>479.3</ele>
        <time>2023-02-19T10:50:58Z</time>
      </trkpt>
      <trkpt lat="45.67001" lon="4.32806">
        <ele>479.4</ele>
        <time>2023-02-19T10:50:59Z</time>
      </trkpt>
      <trkpt lat="45.67" lon="4.32807">
        <ele>479.5</ele>
        <time>2023-02-19T10:51:00Z</time>
      </trkpt>
      <trkpt lat="45.66998" lon="4.32807">
        <ele>479.6</ele>
        <time>2023-02-19T10:51:01Z</time>
      </trkpt>
      <trkpt lat="45.66997" lon="4.32808">
        <ele>479.6</ele>
        <time>2023-02-19T10:51:02Z</time>
      </trkpt>
      <trkpt lat="45.66994" lon="4.32809">
        <ele>479.8</ele>
        <time>2023-02-19T10:51:04Z</time>
      </trkpt>
      <trkpt lat="45.66992" lon="4.3281">
        <ele>479.9</ele>
        <time>2023-02-19T10:51:06Z</time>
      </trkpt>
      <trkpt lat="45.66991" lon="4.3281">
        <ele>479.9</ele>
        <time>2023-02-19T10:51:07Z</time>
      </trkpt>
      <trkpt lat="45.66989" lon="4.32811">
        <ele>480</ele>
        <time>2023-02-19T10:51:08Z</time>
      </trkpt>
      <trkpt lat="45.66988" lon="4.32812">
        <ele>480.1</ele>
        <time>2023-02-19T10:51:09Z</time>
      </trkpt>
      <trkpt lat="45.66986" lon="4.32814">
        <ele>480.2</ele>
        <time>2023-02-19T10:51:10Z</time>
      </trkpt>
      <trkpt lat="45.66985" lon="4.32815">
        <ele>480.2</ele>
        <time>2023-02-19T10:51:12Z</time>
      </trkpt>
      <trkpt lat="45.66984" lon="4.32816">
        <ele>480.3</ele>
        <time>2023-02-19T10:51:13Z</time>
      </trkpt>
      <trkpt lat="45.66983" lon="4.32818">
        <ele>480.3</ele>
        <time>2023-02-19T10:51:14Z</time>
      </trkpt>
      <trkpt lat="45.66982" lon="4.32819">
        <ele>480.4</ele>
        <time>2023-02-19T10:51:15Z</time>
      </trkpt>
      <trkpt lat="45.66981" lon="4.32821">
        <ele>480.4</ele>
        <time>2023-02-19T10:51:16Z</time>
      </trkpt>
      <trkpt lat="45.6698" lon="4.32822">
        <ele>480.5</ele>
        <time>2023-02-19T10:51:17Z</time>
      </trkpt>
      <trkpt lat="45.66979" lon="4.32824">
        <ele>480.6</ele>
        <time>2023-02-19T10:51:19Z</time>
      </trkpt>
      <trkpt lat="45.66978" lon="4.32826">
        <ele>480.6</ele>
        <time>2023-02-19T10:51:20Z</time>
      </trkpt>
      <trkpt lat="45.66976" lon="4.32828">
        <ele>480.7</ele>
        <time>2023-02-19T10:51:21Z</time>
      </trkpt>
      <trkpt lat="45.66976" lon="4.32829">
        <ele>480.7</ele>
        <time>2023-02-19T10:51:22Z</time>
      </trkpt>
      <trkpt lat="45.66975" lon="4.3283">
        <ele>480.8</ele>
        <time>2023-02-19T10:51:23Z</time>
      </trkpt>
      <trkpt lat="45.66974" lon="4.32832">
        <ele>480.8</ele>
        <time>2023-02-19T10:51:24Z</time>
      </trkpt>
      <trkpt lat="45.66973" lon="4.32833">
        <ele>480.9</ele>
        <time>2023-02-19T10:51:25Z</time>
      </trkpt>
      <trkpt lat="45.66973" lon="4.32834">
        <ele>480.9</ele>
        <time>2023-02-19T10:51:26Z</time>
      </trkpt>
      <trkpt lat="45.66971" lon="4.32835">
        <ele>481</ele>
        <time>2023-02-19T10:51:27Z</time>
      </trkpt>
      <trkpt lat="45.6697" lon="4.32836">
        <ele>481.1</ele>
        <time>2023-02-19T10:51:29Z</time>
      </trkpt>
      <trkpt lat="45.6697" lon="4.32837">
        <ele>481.1</ele>
        <time>2023-02-19T10:51:30Z</time>
      </trkpt>
      <trkpt lat="45.66969" lon="4.32838">
        <ele>481.2</ele>
        <time>2023-02-19T10:51:31Z</time>
      </trkpt>
      <trkpt lat="45.66967" lon="4.32839">
        <ele>481.2</ele>
        <time>2023-02-19T10:51:32Z</time>
      </trkpt>
      <trkpt lat="45.66966" lon="4.3284">
        <ele>481.3</ele>
        <time>2023-02-19T10:51:33Z</time>
      </trkpt>
      <trkpt lat="45.66965" lon="4.32841">
        <ele>481.4</ele>
        <time>2023-02-19T10:51:34Z</time>
      </trkpt>
      <trkpt lat="45.66964" lon="4.32842">
        <ele>481.4</ele>
        <time>2023-02-19T10:51:36Z</time>
      </trkpt>
      <trkpt lat="45.66963" lon="4.32843">
        <ele>481.5</ele>
        <time>2023-02-19T10:51:37Z</time>
      </trkpt>
      <trkpt lat="45.66962" lon="4.32843">
        <ele>481.5</ele>
        <time>2023-02-19T10:51:38Z</time>
      </trkpt>
      <trkpt lat="45.66961" lon="4.32844">
        <ele>481.6</ele>
        <time>2023-02-19T10:51:39Z</time>
      </trkpt>
      <trkpt lat="45.66959" lon="4.32846">
        <ele>481.7</ele>
        <time>2023-02-19T10:51:40Z</time>
      </trkpt>
      <trkpt lat="45.66959" lon="4.32847">
        <ele>481.8</ele>
        <time>2023-02-19T10:51:41Z</time>
      </trkpt>
      <trkpt lat="45.66958" lon="4.32847">
        <ele>481.8</ele>
        <time>2023-02-19T10:51:42Z</time>
      </trkpt>
      <trkpt lat="45.66957" lon="4.32849">
        <ele>481.9</ele>
        <time>2023-02-19T10:51:43Z</time>
      </trkpt>
      <trkpt lat="45.66956" lon="4.3285">
        <ele>482</ele>
        <time>2023-02-19T10:51:44Z</time>
      </trkpt>
      <trkpt lat="45.66955" lon="4.32851">
        <ele>482.1</ele>
        <time>2023-02-19T10:51:45Z</time>
      </trkpt>
      <trkpt lat="45.66954" lon="4.32853">
        <ele>482.1</ele>
        <time>2023-02-19T10:51:47Z</time>
      </trkpt>
      <trkpt lat="45.66953" lon="4.32854">
        <ele>482.2</ele>
        <time>2023-02-19T10:51:48Z</time>
      </trkpt>
      <trkpt lat="45.66952" lon="4.32855">
        <ele>482.3</ele>
        <time>2023-02-19T10:51:49Z</time>
      </trkpt>
      <trkpt lat="45.66951" lon="4.32857">
        <ele>482.4</ele>
        <time>2023-02-19T10:51:50Z</time>
      </trkpt>
      <trkpt lat="45.6695" lon="4.32859">
        <ele>482.5</ele>
        <time>2023-02-19T10:51:51Z</time>
      </trkpt>
      <trkpt lat="45.66949" lon="4.3286">
        <ele>482.6</ele>
        <time>2023-02-19T10:51:53Z</time>
      </trkpt>
      <trkpt lat="45.66948" lon="4.32862">
        <ele>482.7</ele>
        <time>2023-02-19T10:51:54Z</time>
      </trkpt>
      <trkpt lat="45.66946" lon="4.32864">
        <ele>482.8</ele>
        <time>2023-02-19T10:51:55Z</time>
      </trkpt>
      <trkpt lat="45.66945" lon="4.32865">
        <ele>482.9</ele>
        <time>2023-02-19T10:51:57Z</time>
      </trkpt>
      <trkpt lat="45.66944" lon="4.32867">
        <ele>483</ele>
        <time>2023-02-19T10:51:58Z</time>
      </trkpt>
      <trkpt lat="45.66943" lon="4.32869">
        <ele>483.1</ele>
        <time>2023-02-19T10:51:59Z</time>
      </trkpt>
      <trkpt lat="45.66942" lon="4.32871">
        <ele>483.2</ele>
        <time>2023-02-19T10:52:00Z</time>
      </trkpt>
      <trkpt lat="45.66941" lon="4.32873">
        <ele>483.4</ele>
        <time>2023-02-19T10:52:01Z</time>
      </trkpt>
      <trkpt lat="45.6694" lon="4.32874">
        <ele>483.5</ele>
        <time>2023-02-19T10:52:02Z</time>
      </trkpt>
      <trkpt lat="45.66939" lon="4.32876">
        <ele>483.6</ele>
        <time>2023-02-19T10:52:03Z</time>
      </trkpt>
      <trkpt lat="45.66938" lon="4.32877">
        <ele>483.7</ele>
        <time>2023-02-19T10:52:04Z</time>
      </trkpt>
      <trkpt lat="45.66937" lon="4.3288">
        <ele>483.8</ele>
        <time>2023-02-19T10:52:06Z</time>
      </trkpt>
      <trkpt lat="45.66936" lon="4.32881">
        <ele>483.9</ele>
        <time>2023-02-19T10:52:07Z</time>
      </trkpt>
      <trkpt lat="45.66935" lon="4.32884">
        <ele>484.1</ele>
        <time>2023-02-19T10:52:08Z</time>
      </trkpt>
      <trkpt lat="45.66935" lon="4.32885">
        <ele>484.2</ele>
        <time>2023-02-19T10:52:09Z</time>
      </trkpt>
      <trkpt lat="45.66934" lon="4.32887">
        <ele>484.3</ele>
        <time>2023-02-19T10:52:11Z</time>
      </trkpt>
      <trkpt lat="45.66934" lon="4.32888">
        <ele>484.3</ele>
        <time>2023-02-19T10:52:12Z</time>
      </trkpt>
      <trkpt lat="45.66933" lon="4.32889">
        <ele>484.4</ele>
        <time>2023-02-19T10:52:13Z</time>
      </trkpt>
      <trkpt lat="45.66933" lon="4.32891">
        <ele>484.5</ele>
        <time>2023-02-19T10:52:14Z</time>
      </trkpt>
      <trkpt lat="45.66933" lon="4.32894">
        <ele>484.7</ele>
        <time>2023-02-19T10:52:16Z</time>
      </trkpt>
      <trkpt lat="45.66933" lon="4.32896">
        <ele>484.8</ele>
        <time>2023-02-19T10:52:17Z</time>
      </trkpt>
      <trkpt lat="45.66932" lon="4.32898">
        <ele>484.9</ele>
        <time>2023-02-19T10:52:18Z</time>
      </trkpt>
      <trkpt lat="45.66932" lon="4.329">
        <ele>485</ele>
        <time>2023-02-19T10:52:19Z</time>
      </trkpt>
      <trkpt lat="45.66931" lon="4.32903">
        <ele>485.2</ele>
        <time>2023-02-19T10:52:20Z</time>
      </trkpt>
      <trkpt lat="45.6693" lon="4.32905">
        <ele>485.3</ele>
        <time>2023-02-19T10:52:21Z</time>
      </trkpt>
      <trkpt lat="45.6693" lon="4.32906">
        <ele>485.4</ele>
        <time>2023-02-19T10:52:22Z</time>
      </trkpt>
      <trkpt lat="45.66929" lon="4.32908">
        <ele>485.5</ele>
        <time>2023-02-19T10:52:23Z</time>
      </trkpt>
      <trkpt lat="45.66929" lon="4.3291">
        <ele>485.6</ele>
        <time>2023-02-19T10:52:24Z</time>
      </trkpt>
      <trkpt lat="45.66929" lon="4.32912">
        <ele>485.7</ele>
        <time>2023-02-19T10:52:26Z</time>
      </trkpt>
      <trkpt lat="45.66928" lon="4.32914">
        <ele>485.8</ele>
        <time>2023-02-19T10:52:27Z</time>
      </trkpt>
      <trkpt lat="45.66928" lon="4.32916">
        <ele>485.9</ele>
        <time>2023-02-19T10:52:28Z</time>
      </trkpt>
      <trkpt lat="45.66927" lon="4.32919">
        <ele>486</ele>
        <time>2023-02-19T10:52:29Z</time>
      </trkpt>
      <trkpt lat="45.66926" lon="4.32921">
        <ele>486.1</ele>
        <time>2023-02-19T10:52:30Z</time>
      </trkpt>
      <trkpt lat="45.66925" lon="4.32924">
        <ele>486.3</ele>
        <time>2023-02-19T10:52:32Z</time>
      </trkpt>
      <trkpt lat="45.66924" lon="4.32925">
        <ele>486.3</ele>
        <time>2023-02-19T10:52:33Z</time>
      </trkpt>
      <trkpt lat="45.66923" lon="4.32927">
        <ele>486.4</ele>
        <time>2023-02-19T10:52:34Z</time>
      </trkpt>
      <trkpt lat="45.66922" lon="4.3293">
        <ele>486.5</ele>
        <time>2023-02-19T10:52:35Z</time>
      </trkpt>
      <trkpt lat="45.66922" lon="4.32932">
        <ele>486.6</ele>
        <time>2023-02-19T10:52:36Z</time>
      </trkpt>
      <trkpt lat="45.66921" lon="4.32934">
        <ele>486.7</ele>
        <time>2023-02-19T10:52:37Z</time>
      </trkpt>
      <trkpt lat="45.6692" lon="4.32936">
        <ele>486.8</ele>
        <time>2023-02-19T10:52:38Z</time>
      </trkpt>
      <trkpt lat="45.66919" lon="4.32938">
        <ele>486.9</ele>
        <time>2023-02-19T10:52:39Z</time>
      </trkpt>
      <trkpt lat="45.66919" lon="4.32941">
        <ele>487</ele>
        <time>2023-02-19T10:52:41Z</time>
      </trkpt>
      <trkpt lat="45.66918" lon="4.32942">
        <ele>487.1</ele>
        <time>2023-02-19T10:52:42Z</time>
      </trkpt>
      <trkpt lat="45.66918" lon="4.32943">
        <ele>487.1</ele>
        <time>2023-02-19T10:52:43Z</time>
      </trkpt>
      <trkpt lat="45.66918" lon="4.32945">
        <ele>487.2</ele>
        <time>2023-02-19T10:52:44Z</time>
      </trkpt>
      <trkpt lat="45.66917" lon="4.32946">
        <ele>487.2</ele>
        <time>2023-02-19T10:52:45Z</time>
      </trkpt>
      <trkpt lat="45.66917" lon="4.32947">
        <ele>487.3</ele>
        <time>2023-02-19T10:52:46Z</time>
      </trkpt>
      <trkpt lat="45.66916" lon="4.32949">
        <ele>487.4</ele>
        <time>2023-02-19T10:52:47Z</time>
      </trkpt>
      <trkpt lat="45.66916" lon="4.3295">
        <ele>487.4</ele>
        <time>2023-02-19T10:52:48Z</time>
      </trkpt>
      <trkpt lat="45.66915" lon="4.32951">
        <ele>487.4</ele>
        <time>2023-02-19T10:52:49Z</time>
      </trkpt>
      <trkpt lat="45.66914" lon="4.32954">
        <ele>487.6</ele>
        <time>2023-02-19T10:52:51Z</time>
      </trkpt>
      <trkpt lat="45.66914" lon="4.32955">
        <ele>487.6</ele>
        <time>2023-02-19T10:52:52Z</time>
      </trkpt>
      <trkpt lat="45.66914" lon="4.32956">
        <ele>487.6</ele>
        <time>2023-02-19T10:52:53Z</time>
      </trkpt>
      <trkpt lat="45.66913" lon="4.32957">
        <ele>487.7</ele>
        <time>2023-02-19T10:52:54Z</time>
      </trkpt>
      <trkpt lat="45.66913" lon="4.32957">
        <ele>487.7</ele>
        <time>2023-02-19T10:52:55Z</time>
      </trkpt>
      <trkpt lat="45.66913" lon="4.32958">
        <ele>487.8</ele>
        <time>2023-02-19T10:52:57Z</time>
      </trkpt>
      <trkpt lat="45.66913" lon="4.32958">
        <ele>487.8</ele>
        <time>2023-02-19T10:52:58Z</time>
      </trkpt>
      <trkpt lat="45.66912" lon="4.32959">
        <ele>487.8</ele>
        <time>2023-02-19T10:52:59Z</time>
      </trkpt>
      <trkpt lat="45.66912" lon="4.32961">
        <ele>487.9</ele>
        <time>2023-02-19T10:53:00Z</time>
      </trkpt>
      <trkpt lat="45.66912" lon="4.32963">
        <ele>488</ele>
        <time>2023-02-19T10:53:01Z</time>
      </trkpt>
      <trkpt lat="45.66912" lon="4.32964">
        <ele>488</ele>
        <time>2023-02-19T10:53:02Z</time>
      </trkpt>
      <trkpt lat="45.66911" lon="4.32965">
        <ele>488.1</ele>
        <time>2023-02-19T10:53:03Z</time>
      </trkpt>
      <trkpt lat="45.66911" lon="4.32967">
        <ele>488.2</ele>
        <time>2023-02-19T10:53:04Z</time>
      </trkpt>
      <trkpt lat="45.6691" lon="4.32968">
        <ele>488.2</ele>
        <time>2023-02-19T10:53:05Z</time>
      </trkpt>
      <trkpt lat="45.6691" lon="4.3297">
        <ele>488.3</ele>
        <time>2023-02-19T10:53:06Z</time>
      </trkpt>
      <trkpt lat="45.66909" lon="4.32972">
        <ele>488.4</ele>
        <time>2023-02-19T10:53:07Z</time>
      </trkpt>
      <trkpt lat="45.66907" lon="4.32974">
        <ele>488.5</ele>
        <time>2023-02-19T10:53:09Z</time>
      </trkpt>
      <trkpt lat="45.66907" lon="4.32976">
        <ele>488.6</ele>
        <time>2023-02-19T10:53:10Z</time>
      </trkpt>
      <trkpt lat="45.66906" lon="4.32978">
        <ele>488.7</ele>
        <time>2023-02-19T10:53:11Z</time>
      </trkpt>
      <trkpt lat="45.66905" lon="4.3298">
        <ele>488.8</ele>
        <time>2023-02-19T10:53:12Z</time>
      </trkpt>
      <trkpt lat="45.66904" lon="4.32982">
        <ele>488.9</ele>
        <time>2023-02-19T10:53:13Z</time>
      </trkpt>
      <trkpt lat="45.66904" lon="4.32983">
        <ele>489</ele>
        <time>2023-02-19T10:53:14Z</time>
      </trkpt>
      <trkpt lat="45.66903" lon="4.32986">
        <ele>489.2</ele>
        <time>2023-02-19T10:53:15Z</time>
      </trkpt>
      <trkpt lat="45.66903" lon="4.32987">
        <ele>489.3</ele>
        <time>2023-02-19T10:53:16Z</time>
      </trkpt>
      <trkpt lat="45.66902" lon="4.32989">
        <ele>489.4</ele>
        <time>2023-02-19T10:53:18Z</time>
      </trkpt>
      <trkpt lat="45.66901" lon="4.32991">
        <ele>489.5</ele>
        <time>2023-02-19T10:53:19Z</time>
      </trkpt>
      <trkpt lat="45.66901" lon="4.32992">
        <ele>489.6</ele>
        <time>2023-02-19T10:53:20Z</time>
      </trkpt>
      <trkpt lat="45.66901" lon="4.32993">
        <ele>489.6</ele>
        <time>2023-02-19T10:53:21Z</time>
      </trkpt>
      <trkpt lat="45.66901" lon="4.32994">
        <ele>489.7</ele>
        <time>2023-02-19T10:53:22Z</time>
      </trkpt>
      <trkpt lat="45.66901" lon="4.32995">
        <ele>489.7</ele>
        <time>2023-02-19T10:53:23Z</time>
      </trkpt>
      <trkpt lat="45.66901" lon="4.32996">
        <ele>489.8</ele>
        <time>2023-02-19T10:53:24Z</time>
      </trkpt>
      <trkpt lat="45.66901" lon="4.32997">
        <ele>489.9</ele>
        <time>2023-02-19T10:53:25Z</time>
      </trkpt>
      <trkpt lat="45.66901" lon="4.32999">
        <ele>490</ele>
        <time>2023-02-19T10:53:26Z</time>
      </trkpt>
      <trkpt lat="45.66901" lon="4.33">
        <ele>490.1</ele>
        <time>2023-02-19T10:53:28Z</time>
      </trkpt>
      <trkpt lat="45.66901" lon="4.33002">
        <ele>490.2</ele>
        <time>2023-02-19T10:53:29Z</time>
      </trkpt>
      <trkpt lat="45.66901" lon="4.33005">
        <ele>490.4</ele>
        <time>2023-02-19T10:53:30Z</time>
      </trkpt>
      <trkpt lat="45.66901" lon="4.33006">
        <ele>490.5</ele>
        <time>2023-02-19T10:53:31Z</time>
      </trkpt>
      <trkpt lat="45.66901" lon="4.33008">
        <ele>490.5</ele>
        <time>2023-02-19T10:53:32Z</time>
      </trkpt>
      <trkpt lat="45.66902" lon="4.33011">
        <ele>490.7</ele>
        <time>2023-02-19T10:53:33Z</time>
      </trkpt>
      <trkpt lat="45.66902" lon="4.33012">
        <ele>490.8</ele>
        <time>2023-02-19T10:53:34Z</time>
      </trkpt>
      <trkpt lat="45.66902" lon="4.33013">
        <ele>490.9</ele>
        <time>2023-02-19T10:53:35Z</time>
      </trkpt>
      <trkpt lat="45.66902" lon="4.33015">
        <ele>491</ele>
        <time>2023-02-19T10:53:36Z</time>
      </trkpt>
      <trkpt lat="45.66902" lon="4.33017">
        <ele>491.1</ele>
        <time>2023-02-19T10:53:38Z</time>
      </trkpt>
      <trkpt lat="45.66902" lon="4.33018">
        <ele>491.2</ele>
        <time>2023-02-19T10:53:39Z</time>
      </trkpt>
      <trkpt lat="45.66902" lon="4.3302">
        <ele>491.3</ele>
        <time>2023-02-19T10:53:40Z</time>
      </trkpt>
      <trkpt lat="45.66902" lon="4.33021">
        <ele>491.4</ele>
        <time>2023-02-19T10:53:41Z</time>
      </trkpt>
      <trkpt lat="45.66902" lon="4.33023">
        <ele>491.4</ele>
        <time>2023-02-19T10:53:42Z</time>
      </trkpt>
      <trkpt lat="45.66901" lon="4.33024">
        <ele>491.5</ele>
        <time>2023-02-19T10:53:43Z</time>
      </trkpt>
      <trkpt lat="45.66901" lon="4.33026">
        <ele>491.6</ele>
        <time>2023-02-19T10:53:45Z</time>
      </trkpt>
      <trkpt lat="45.66901" lon="4.33027">
        <ele>491.6</ele>
        <time>2023-02-19T10:53:46Z</time>
      </trkpt>
      <trkpt lat="45.66901" lon="4.33029">
        <ele>491.7</ele>
        <time>2023-02-19T10:53:47Z</time>
      </trkpt>
      <trkpt lat="45.669" lon="4.33031">
        <ele>491.8</ele>
        <time>2023-02-19T10:53:48Z</time>
      </trkpt>
      <trkpt lat="45.669" lon="4.33034">
        <ele>491.9</ele>
        <time>2023-02-19T10:53:49Z</time>
      </trkpt>
      <trkpt lat="45.669" lon="4.33036">
        <ele>492</ele>
        <time>2023-02-19T10:53:51Z</time>
      </trkpt>
      <trkpt lat="45.66901" lon="4.33038">
        <ele>492.1</ele>
        <time>2023-02-19T10:53:52Z</time>
      </trkpt>
      <trkpt lat="45.66901" lon="4.33041">
        <ele>492.1</ele>
        <time>2023-02-19T10:53:53Z</time>
      </trkpt>
      <trkpt lat="45.66901" lon="4.33043">
        <ele>492.2</ele>
        <time>2023-02-19T10:53:54Z</time>
      </trkpt>
      <trkpt lat="45.66901" lon="4.33046">
        <ele>492.3</ele>
        <time>2023-02-19T10:53:55Z</time>
      </trkpt>
      <trkpt lat="45.66901" lon="4.33048">
        <ele>492.4</ele>
        <time>2023-02-19T10:53:56Z</time>
      </trkpt>
      <trkpt lat="45.66902" lon="4.3305">
        <ele>492.5</ele>
        <time>2023-02-19T10:53:57Z</time>
      </trkpt>
      <trkpt lat="45.66902" lon="4.33053">
        <ele>492.6</ele>
        <time>2023-02-19T10:53:58Z</time>
      </trkpt>
      <trkpt lat="45.66902" lon="4.33054">
        <ele>492.6</ele>
        <time>2023-02-19T10:53:59Z</time>
      </trkpt>
      <trkpt lat="45.66902" lon="4.33056">
        <ele>492.7</ele>
        <time>2023-02-19T10:54:00Z</time>
      </trkpt>
      <trkpt lat="45.66903" lon="4.33057">
        <ele>492.7</ele>
        <time>2023-02-19T10:54:01Z</time>
      </trkpt>
      <trkpt lat="45.66903" lon="4.33058">
        <ele>492.8</ele>
        <time>2023-02-19T10:54:03Z</time>
      </trkpt>
      <trkpt lat="45.66903" lon="4.3306">
        <ele>492.8</ele>
        <time>2023-02-19T10:54:04Z</time>
      </trkpt>
      <trkpt lat="45.66903" lon="4.33062">
        <ele>492.9</ele>
        <time>2023-02-19T10:54:05Z</time>
      </trkpt>
      <trkpt lat="45.66904" lon="4.33064">
        <ele>493</ele>
        <time>2023-02-19T10:54:06Z</time>
      </trkpt>
      <trkpt lat="45.66904" lon="4.33065">
        <ele>493</ele>
        <time>2023-02-19T10:54:07Z</time>
      </trkpt>
      <trkpt lat="45.66904" lon="4.33067">
        <ele>493.1</ele>
        <time>2023-02-19T10:54:08Z</time>
      </trkpt>
      <trkpt lat="45.66904" lon="4.33068">
        <ele>493.2</ele>
        <time>2023-02-19T10:54:09Z</time>
      </trkpt>
      <trkpt lat="45.66905" lon="4.3307">
        <ele>493.2</ele>
        <time>2023-02-19T10:54:10Z</time>
      </trkpt>
      <trkpt lat="45.66906" lon="4.33073">
        <ele>493.4</ele>
        <time>2023-02-19T10:54:11Z</time>
      </trkpt>
      <trkpt lat="45.66906" lon="4.33074">
        <ele>493.4</ele>
        <time>2023-02-19T10:54:13Z</time>
      </trkpt>
      <trkpt lat="45.66906" lon="4.33075">
        <ele>493.5</ele>
        <time>2023-02-19T10:54:14Z</time>
      </trkpt>
      <trkpt lat="45.66907" lon="4.33076">
        <ele>493.5</ele>
        <time>2023-02-19T10:54:15Z</time>
      </trkpt>
      <trkpt lat="45.66907" lon="4.33077">
        <ele>493.6</ele>
        <time>2023-02-19T10:54:16Z</time>
      </trkpt>
      <trkpt lat="45.66908" lon="4.33079">
        <ele>493.7</ele>
        <time>2023-02-19T10:54:17Z</time>
      </trkpt>
      <trkpt lat="45.66909" lon="4.33081">
        <ele>493.8</ele>
        <time>2023-02-19T10:54:18Z</time>
      </trkpt>
      <trkpt lat="45.66909" lon="4.33082">
        <ele>493.9</ele>
        <time>2023-02-19T10:54:19Z</time>
      </trkpt>
      <trkpt lat="45.6691" lon="4.33083">
        <ele>494</ele>
        <time>2023-02-19T10:54:20Z</time>
      </trkpt>
      <trkpt lat="45.66911" lon="4.33083">
        <ele>494</ele>
        <time>2023-02-19T10:54:21Z</time>
      </trkpt>
      <trkpt lat="45.66911" lon="4.33084">
        <ele>494.1</ele>
        <time>2023-02-19T10:54:23Z</time>
      </trkpt>
      <trkpt lat="45.66912" lon="4.33085">
        <ele>494.1</ele>
        <time>2023-02-19T10:54:24Z</time>
      </trkpt>
      <trkpt lat="45.66912" lon="4.33085">
        <ele>494.1</ele>
        <time>2023-02-19T10:54:25Z</time>
      </trkpt>
      <trkpt lat="45.66912" lon="4.33085">
        <ele>494.2</ele>
        <time>2023-02-19T10:54:26Z</time>
      </trkpt>
      <trkpt lat="45.66911" lon="4.33086">
        <ele>494.2</ele>
        <time>2023-02-19T10:54:28Z</time>
      </trkpt>
      <trkpt lat="45.66911" lon="4.33087">
        <ele>494.3</ele>
        <time>2023-02-19T10:54:29Z</time>
      </trkpt>
      <trkpt lat="45.66911" lon="4.33088">
        <ele>494.3</ele>
        <time>2023-02-19T10:54:30Z</time>
      </trkpt>
      <trkpt lat="45.66911" lon="4.3309">
        <ele>494.4</ele>
        <time>2023-02-19T10:54:31Z</time>
      </trkpt>
      <trkpt lat="45.66911" lon="4.33092">
        <ele>494.5</ele>
        <time>2023-02-19T10:54:32Z</time>
      </trkpt>
      <trkpt lat="45.66911" lon="4.33093">
        <ele>494.6</ele>
        <time>2023-02-19T10:54:33Z</time>
      </trkpt>
      <trkpt lat="45.6691" lon="4.33095">
        <ele>494.6</ele>
        <time>2023-02-19T10:54:34Z</time>
      </trkpt>
      <trkpt lat="45.6691" lon="4.33096">
        <ele>494.7</ele>
        <time>2023-02-19T10:54:35Z</time>
      </trkpt>
      <trkpt lat="45.6691" lon="4.33098">
        <ele>494.8</ele>
        <time>2023-02-19T10:54:37Z</time>
      </trkpt>
      <trkpt lat="45.6691" lon="4.331">
        <ele>494.9</ele>
        <time>2023-02-19T10:54:38Z</time>
      </trkpt>
      <trkpt lat="45.6691" lon="4.33103">
        <ele>495.1</ele>
        <time>2023-02-19T10:54:39Z</time>
      </trkpt>
      <trkpt lat="45.6691" lon="4.33104">
        <ele>495.1</ele>
        <time>2023-02-19T10:54:40Z</time>
      </trkpt>
      <trkpt lat="45.6691" lon="4.33105">
        <ele>495.2</ele>
        <time>2023-02-19T10:54:41Z</time>
      </trkpt>
      <trkpt lat="45.6691" lon="4.33107">
        <ele>495.3</ele>
        <time>2023-02-19T10:54:42Z</time>
      </trkpt>
      <trkpt lat="45.6691" lon="4.33109">
        <ele>495.3</ele>
        <time>2023-02-19T10:54:43Z</time>
      </trkpt>
      <trkpt lat="45.6691" lon="4.33111">
        <ele>495.4</ele>
        <time>2023-02-19T10:54:45Z</time>
      </trkpt>
      <trkpt lat="45.6691" lon="4.33113">
        <ele>495.5</ele>
        <time>2023-02-19T10:54:46Z</time>
      </trkpt>
      <trkpt lat="45.6691" lon="4.33116">
        <ele>495.6</ele>
        <time>2023-02-19T10:54:47Z</time>
      </trkpt>
      <trkpt lat="45.6691" lon="4.3312">
        <ele>495.7</ele>
        <time>2023-02-19T10:54:48Z</time>
      </trkpt>
      <trkpt lat="45.6691" lon="4.33121">
        <ele>495.8</ele>
        <time>2023-02-19T10:54:49Z</time>
      </trkpt>
      <trkpt lat="45.66911" lon="4.33124">
        <ele>495.9</ele>
        <time>2023-02-19T10:54:50Z</time>
      </trkpt>
      <trkpt lat="45.66911" lon="4.33126">
        <ele>495.9</ele>
        <time>2023-02-19T10:54:51Z</time>
      </trkpt>
      <trkpt lat="45.66911" lon="4.33128">
        <ele>496</ele>
        <time>2023-02-19T10:54:52Z</time>
      </trkpt>
      <trkpt lat="45.66912" lon="4.3313">
        <ele>496</ele>
        <time>2023-02-19T10:54:53Z</time>
      </trkpt>
      <trkpt lat="45.66912" lon="4.33132">
        <ele>496.1</ele>
        <time>2023-02-19T10:54:54Z</time>
      </trkpt>
      <trkpt lat="45.66913" lon="4.33136">
        <ele>496.2</ele>
        <time>2023-02-19T10:54:56Z</time>
      </trkpt>
      <trkpt lat="45.66913" lon="4.33137">
        <ele>496.2</ele>
        <time>2023-02-19T10:54:57Z</time>
      </trkpt>
      <trkpt lat="45.66914" lon="4.3314">
        <ele>496.3</ele>
        <time>2023-02-19T10:54:58Z</time>
      </trkpt>
      <trkpt lat="45.66915" lon="4.33143">
        <ele>496.3</ele>
        <time>2023-02-19T10:54:59Z</time>
      </trkpt>
      <trkpt lat="45.66916" lon="4.33145">
        <ele>496.4</ele>
        <time>2023-02-19T10:55:01Z</time>
      </trkpt>
      <trkpt lat="45.66916" lon="4.33146">
        <ele>496.4</ele>
        <time>2023-02-19T10:55:02Z</time>
      </trkpt>
      <trkpt lat="45.66916" lon="4.33148">
        <ele>496.4</ele>
        <time>2023-02-19T10:55:03Z</time>
      </trkpt>
      <trkpt lat="45.66917" lon="4.33149">
        <ele>496.5</ele>
        <time>2023-02-19T10:55:04Z</time>
      </trkpt>
      <trkpt lat="45.66917" lon="4.33151">
        <ele>496.5</ele>
        <time>2023-02-19T10:55:05Z</time>
      </trkpt>
      <trkpt lat="45.66918" lon="4.33152">
        <ele>496.5</ele>
        <time>2023-02-19T10:55:06Z</time>
      </trkpt>
      <trkpt lat="45.66918" lon="4.33153">
        <ele>496.6</ele>
        <time>2023-02-19T10:55:07Z</time>
      </trkpt>
      <trkpt lat="45.66919" lon="4.33155">
        <ele>496.6</ele>
        <time>2023-02-19T10:55:09Z</time>
      </trkpt>
      <trkpt lat="45.66919" lon="4.33157">
        <ele>496.6</ele>
        <time>2023-02-19T10:55:10Z</time>
      </trkpt>
      <trkpt lat="45.6692" lon="4.33159">
        <ele>496.7</ele>
        <time>2023-02-19T10:55:11Z</time>
      </trkpt>
      <trkpt lat="45.6692" lon="4.33161">
        <ele>496.7</ele>
        <time>2023-02-19T10:55:12Z</time>
      </trkpt>
      <trkpt lat="45.6692" lon="4.33163">
        <ele>496.8</ele>
        <time>2023-02-19T10:55:13Z</time>
      </trkpt>
      <trkpt lat="45.66921" lon="4.33166">
        <ele>496.8</ele>
        <time>2023-02-19T10:55:14Z</time>
      </trkpt>
      <trkpt lat="45.66921" lon="4.33168">
        <ele>496.8</ele>
        <time>2023-02-19T10:55:15Z</time>
      </trkpt>
      <trkpt lat="45.66921" lon="4.3317">
        <ele>496.9</ele>
        <time>2023-02-19T10:55:16Z</time>
      </trkpt>
      <trkpt lat="45.66921" lon="4.33172">
        <ele>496.9</ele>
        <time>2023-02-19T10:55:17Z</time>
      </trkpt>
      <trkpt lat="45.66922" lon="4.33174">
        <ele>497</ele>
        <time>2023-02-19T10:55:19Z</time>
      </trkpt>
      <trkpt lat="45.66922" lon="4.33177">
        <ele>497</ele>
        <time>2023-02-19T10:55:20Z</time>
      </trkpt>
      <trkpt lat="45.66922" lon="4.33178">
        <ele>497</ele>
        <time>2023-02-19T10:55:21Z</time>
      </trkpt>
      <trkpt lat="45.66922" lon="4.3318">
        <ele>497.1</ele>
        <time>2023-02-19T10:55:22Z</time>
      </trkpt>
      <trkpt lat="45.66922" lon="4.33181">
        <ele>497.1</ele>
        <time>2023-02-19T10:55:24Z</time>
      </trkpt>
      <trkpt lat="45.66922" lon="4.33182">
        <ele>497.1</ele>
        <time>2023-02-19T10:55:25Z</time>
      </trkpt>
      <trkpt lat="45.66923" lon="4.33184">
        <ele>497.2</ele>
        <time>2023-02-19T10:55:26Z</time>
      </trkpt>
      <trkpt lat="45.66923" lon="4.33186">
        <ele>497.2</ele>
        <time>2023-02-19T10:55:27Z</time>
      </trkpt>
      <trkpt lat="45.66923" lon="4.33187">
        <ele>497.3</ele>
        <time>2023-02-19T10:55:28Z</time>
      </trkpt>
      <trkpt lat="45.66922" lon="4.33191">
        <ele>497.3</ele>
        <time>2023-02-19T10:55:29Z</time>
      </trkpt>
      <trkpt lat="45.66922" lon="4.33192">
        <ele>497.4</ele>
        <time>2023-02-19T10:55:30Z</time>
      </trkpt>
      <trkpt lat="45.66922" lon="4.33194">
        <ele>497.4</ele>
        <time>2023-02-19T10:55:31Z</time>
      </trkpt>
      <trkpt lat="45.66922" lon="4.33196">
        <ele>497.5</ele>
        <time>2023-02-19T10:55:32Z</time>
      </trkpt>
      <trkpt lat="45.66922" lon="4.33199">
        <ele>497.6</ele>
        <time>2023-02-19T10:55:34Z</time>
      </trkpt>
      <trkpt lat="45.66921" lon="4.33203">
        <ele>497.7</ele>
        <time>2023-02-19T10:55:35Z</time>
      </trkpt>
      <trkpt lat="45.66921" lon="4.33205">
        <ele>497.7</ele>
        <time>2023-02-19T10:55:36Z</time>
      </trkpt>
      <trkpt lat="45.6692" lon="4.33209">
        <ele>497.8</ele>
        <time>2023-02-19T10:55:37Z</time>
      </trkpt>
      <trkpt lat="45.6692" lon="4.3321">
        <ele>497.9</ele>
        <time>2023-02-19T10:55:38Z</time>
      </trkpt>
      <trkpt lat="45.6692" lon="4.33215">
        <ele>498</ele>
        <time>2023-02-19T10:55:39Z</time>
      </trkpt>
      <trkpt lat="45.6692" lon="4.33216">
        <ele>498</ele>
        <time>2023-02-19T10:55:40Z</time>
      </trkpt>
      <trkpt lat="45.6692" lon="4.33219">
        <ele>498.1</ele>
        <time>2023-02-19T10:55:41Z</time>
      </trkpt>
      <trkpt lat="45.6692" lon="4.33222">
        <ele>498.1</ele>
        <time>2023-02-19T10:55:43Z</time>
      </trkpt>
      <trkpt lat="45.6692" lon="4.33224">
        <ele>498.1</ele>
        <time>2023-02-19T10:55:44Z</time>
      </trkpt>
      <trkpt lat="45.6692" lon="4.33226">
        <ele>498.2</ele>
        <time>2023-02-19T10:55:45Z</time>
      </trkpt>
      <trkpt lat="45.66919" lon="4.3323">
        <ele>498.2</ele>
        <time>2023-02-19T10:55:46Z</time>
      </trkpt>
      <trkpt lat="45.66919" lon="4.33232">
        <ele>498.3</ele>
        <time>2023-02-19T10:55:48Z</time>
      </trkpt>
      <trkpt lat="45.66918" lon="4.33234">
        <ele>498.3</ele>
        <time>2023-02-19T10:55:49Z</time>
      </trkpt>
      <trkpt lat="45.66918" lon="4.33236">
        <ele>498.3</ele>
        <time>2023-02-19T10:55:50Z</time>
      </trkpt>
      <trkpt lat="45.66917" lon="4.33239">
        <ele>498.3</ele>
        <time>2023-02-19T10:55:51Z</time>
      </trkpt>
      <trkpt lat="45.66917" lon="4.33241">
        <ele>498.3</ele>
        <time>2023-02-19T10:55:52Z</time>
      </trkpt>
      <trkpt lat="45.66917" lon="4.33243">
        <ele>498.4</ele>
        <time>2023-02-19T10:55:53Z</time>
      </trkpt>
      <trkpt lat="45.66917" lon="4.33245">
        <ele>498.4</ele>
        <time>2023-02-19T10:55:54Z</time>
      </trkpt>
      <trkpt lat="45.66917" lon="4.33247">
        <ele>498.4</ele>
        <time>2023-02-19T10:55:56Z</time>
      </trkpt>
      <trkpt lat="45.66917" lon="4.33249">
        <ele>498.4</ele>
        <time>2023-02-19T10:55:57Z</time>
      </trkpt>
      <trkpt lat="45.66917" lon="4.33251">
        <ele>498.4</ele>
        <time>2023-02-19T10:55:58Z</time>
      </trkpt>
      <trkpt lat="45.66917" lon="4.33253">
        <ele>498.4</ele>
        <time>2023-02-19T10:55:59Z</time>
      </trkpt>
      <trkpt lat="45.66917" lon="4.33254">
        <ele>498.4</ele>
        <time>2023-02-19T10:56:00Z</time>
      </trkpt>
      <trkpt lat="45.66918" lon="4.33257">
        <ele>498.5</ele>
        <time>2023-02-19T10:56:01Z</time>
      </trkpt>
      <trkpt lat="45.66918" lon="4.33259">
        <ele>498.5</ele>
        <time>2023-02-19T10:56:02Z</time>
      </trkpt>
      <trkpt lat="45.66918" lon="4.3326">
        <ele>498.5</ele>
        <time>2023-02-19T10:56:03Z</time>
      </trkpt>
      <trkpt lat="45.66918" lon="4.33262">
        <ele>498.5</ele>
        <time>2023-02-19T10:56:04Z</time>
      </trkpt>
      <trkpt lat="45.66918" lon="4.33264">
        <ele>498.5</ele>
        <time>2023-02-19T10:56:05Z</time>
      </trkpt>
      <trkpt lat="45.66919" lon="4.33269">
        <ele>498.5</ele>
        <time>2023-02-19T10:56:07Z</time>
      </trkpt>
      <trkpt lat="45.66919" lon="4.3327">
        <ele>498.5</ele>
        <time>2023-02-19T10:56:08Z</time>
      </trkpt>
      <trkpt lat="45.66919" lon="4.33272">
        <ele>498.5</ele>
        <time>2023-02-19T10:56:09Z</time>
      </trkpt>
      <trkpt lat="45.66919" lon="4.33274">
        <ele>498.5</ele>
        <time>2023-02-19T10:56:10Z</time>
      </trkpt>
      <trkpt lat="45.66919" lon="4.33276">
        <ele>498.5</ele>
        <time>2023-02-19T10:56:12Z</time>
      </trkpt>
      <trkpt lat="45.66919" lon="4.33278">
        <ele>498.5</ele>
        <time>2023-02-19T10:56:13Z</time>
      </trkpt>
      <trkpt lat="45.66919" lon="4.33281">
        <ele>498.5</ele>
        <time>2023-02-19T10:56:14Z</time>
      </trkpt>
      <trkpt lat="45.66919" lon="4.33283">
        <ele>498.5</ele>
        <time>2023-02-19T10:56:15Z</time>
      </trkpt>
      <trkpt lat="45.66919" lon="4.33284">
        <ele>498.5</ele>
        <time>2023-02-19T10:56:16Z</time>
      </trkpt>
      <trkpt lat="45.66919" lon="4.33286">
        <ele>498.5</ele>
        <time>2023-02-19T10:56:17Z</time>
      </trkpt>
      <trkpt lat="45.66919" lon="4.33287">
        <ele>498.5</ele>
        <time>2023-02-19T10:56:18Z</time>
      </trkpt>
      <trkpt lat="45.66918" lon="4.33289">
        <ele>498.5</ele>
        <time>2023-02-19T10:56:19Z</time>
      </trkpt>
      <trkpt lat="45.66918" lon="4.3329">
        <ele>498.5</ele>
        <time>2023-02-19T10:56:20Z</time>
      </trkpt>
      <trkpt lat="45.66918" lon="4.33292">
        <ele>498.5</ele>
        <time>2023-02-19T10:56:21Z</time>
      </trkpt>
      <trkpt lat="45.66917" lon="4.33293">
        <ele>498.4</ele>
        <time>2023-02-19T10:56:23Z</time>
      </trkpt>
      <trkpt lat="45.66917" lon="4.33295">
        <ele>498.4</ele>
        <time>2023-02-19T10:56:24Z</time>
      </trkpt>
      <trkpt lat="45.66916" lon="4.33297">
        <ele>498.4</ele>
        <time>2023-02-19T10:56:25Z</time>
      </trkpt>
      <trkpt lat="45.66915" lon="4.33299">
        <ele>498.4</ele>
        <time>2023-02-19T10:56:26Z</time>
      </trkpt>
      <trkpt lat="45.66915" lon="4.333">
        <ele>498.4</ele>
        <time>2023-02-19T10:56:27Z</time>
      </trkpt>
      <trkpt lat="45.66913" lon="4.33303">
        <ele>498.3</ele>
        <time>2023-02-19T10:56:29Z</time>
      </trkpt>
      <trkpt lat="45.66913" lon="4.33304">
        <ele>498.3</ele>
        <time>2023-02-19T10:56:30Z</time>
      </trkpt>
      <trkpt lat="45.66911" lon="4.33306">
        <ele>498.3</ele>
        <time>2023-02-19T10:56:31Z</time>
      </trkpt>
      <trkpt lat="45.6691" lon="4.33307">
        <ele>498.3</ele>
        <time>2023-02-19T10:56:32Z</time>
      </trkpt>
      <trkpt lat="45.6691" lon="4.33308">
        <ele>498.3</ele>
        <time>2023-02-19T10:56:33Z</time>
      </trkpt>
      <trkpt lat="45.66909" lon="4.33309">
        <ele>498.2</ele>
        <time>2023-02-19T10:56:35Z</time>
      </trkpt>
      <trkpt lat="45.66908" lon="4.3331">
        <ele>498.2</ele>
        <time>2023-02-19T10:56:36Z</time>
      </trkpt>
      <trkpt lat="45.66907" lon="4.33312">
        <ele>498.2</ele>
        <time>2023-02-19T10:56:37Z</time>
      </trkpt>
      <trkpt lat="45.66906" lon="4.33313">
        <ele>498.2</ele>
        <time>2023-02-19T10:56:38Z</time>
      </trkpt>
      <trkpt lat="45.66904" lon="4.33315">
        <ele>498.2</ele>
        <time>2023-02-19T10:56:39Z</time>
      </trkpt>
      <trkpt lat="45.66904" lon="4.33316">
        <ele>498.2</ele>
        <time>2023-02-19T10:56:40Z</time>
      </trkpt>
      <trkpt lat="45.66903" lon="4.33317">
        <ele>498.2</ele>
        <time>2023-02-19T10:56:41Z</time>
      </trkpt>
      <trkpt lat="45.66902" lon="4.33319">
        <ele>498.2</ele>
        <time>2023-02-19T10:56:42Z</time>
      </trkpt>
      <trkpt lat="45.66901" lon="4.3332">
        <ele>498.2</ele>
        <time>2023-02-19T10:56:44Z</time>
      </trkpt>
      <trkpt lat="45.66901" lon="4.33321">
        <ele>498.2</ele>
        <time>2023-02-19T10:56:45Z</time>
      </trkpt>
      <trkpt lat="45.669" lon="4.33323">
        <ele>498.2</ele>
        <time>2023-02-19T10:56:46Z</time>
      </trkpt>
      <trkpt lat="45.66899" lon="4.33325">
        <ele>498.3</ele>
        <time>2023-02-19T10:56:47Z</time>
      </trkpt>
      <trkpt lat="45.66898" lon="4.33328">
        <ele>498.4</ele>
        <time>2023-02-19T10:56:48Z</time>
      </trkpt>
      <trkpt lat="45.66898" lon="4.33329">
        <ele>498.4</ele>
        <time>2023-02-19T10:56:49Z</time>
      </trkpt>
      <trkpt lat="45.66897" lon="4.33331">
        <ele>498.4</ele>
        <time>2023-02-19T10:56:50Z</time>
      </trkpt>
      <trkpt lat="45.66897" lon="4.33335">
        <ele>498.6</ele>
        <time>2023-02-19T10:56:51Z</time>
      </trkpt>
      <trkpt lat="45.66897" lon="4.33337">
        <ele>498.7</ele>
        <time>2023-02-19T10:56:52Z</time>
      </trkpt>
      <trkpt lat="45.66898" lon="4.3334">
        <ele>498.9</ele>
        <time>2023-02-19T10:56:53Z</time>
      </trkpt>
      <trkpt lat="45.66898" lon="4.33343">
        <ele>499</ele>
        <time>2023-02-19T10:56:55Z</time>
      </trkpt>
      <trkpt lat="45.66897" lon="4.33347">
        <ele>499.4</ele>
        <time>2023-02-19T10:56:56Z</time>
      </trkpt>
      <trkpt lat="45.66897" lon="4.33348">
        <ele>499.5</ele>
        <time>2023-02-19T10:56:57Z</time>
      </trkpt>
      <trkpt lat="45.66897" lon="4.3335">
        <ele>499.7</ele>
        <time>2023-02-19T10:56:58Z</time>
      </trkpt>
      <trkpt lat="45.66896" lon="4.33352">
        <ele>499.9</ele>
        <time>2023-02-19T10:56:59Z</time>
      </trkpt>
      <trkpt lat="45.66896" lon="4.33355">
        <ele>500.2</ele>
        <time>2023-02-19T10:57:01Z</time>
      </trkpt>
      <trkpt lat="45.66896" lon="4.33356">
        <ele>500.4</ele>
        <time>2023-02-19T10:57:02Z</time>
      </trkpt>
      <trkpt lat="45.66896" lon="4.33358">
        <ele>500.6</ele>
        <time>2023-02-19T10:57:03Z</time>
      </trkpt>
      <trkpt lat="45.66895" lon="4.3336">
        <ele>500.9</ele>
        <time>2023-02-19T10:57:04Z</time>
      </trkpt>
      <trkpt lat="45.66895" lon="4.33362">
        <ele>501.1</ele>
        <time>2023-02-19T10:57:06Z</time>
      </trkpt>
      <trkpt lat="45.66895" lon="4.33363">
        <ele>501.4</ele>
        <time>2023-02-19T10:57:07Z</time>
      </trkpt>
      <trkpt lat="45.66895" lon="4.33364">
        <ele>501.5</ele>
        <time>2023-02-19T10:57:08Z</time>
      </trkpt>
      <trkpt lat="45.66895" lon="4.33365">
        <ele>501.6</ele>
        <time>2023-02-19T10:57:09Z</time>
      </trkpt>
      <trkpt lat="45.66895" lon="4.33365">
        <ele>501.6</ele>
        <time>2023-02-19T10:57:10Z</time>
      </trkpt>
      <trkpt lat="45.66895" lon="4.33367">
        <ele>501.9</ele>
        <time>2023-02-19T10:57:12Z</time>
      </trkpt>
      <trkpt lat="45.66895" lon="4.33368">
        <ele>502.1</ele>
        <time>2023-02-19T10:57:13Z</time>
      </trkpt>
      <trkpt lat="45.66894" lon="4.33369">
        <ele>502.2</ele>
        <time>2023-02-19T10:57:15Z</time>
      </trkpt>
      <trkpt lat="45.66894" lon="4.3337">
        <ele>502.4</ele>
        <time>2023-02-19T10:57:16Z</time>
      </trkpt>
      <trkpt lat="45.66894" lon="4.3337">
        <ele>502.5</ele>
        <time>2023-02-19T10:57:17Z</time>
      </trkpt>
      <trkpt lat="45.66894" lon="4.33372">
        <ele>502.9</ele>
        <time>2023-02-19T10:57:18Z</time>
      </trkpt>
      <trkpt lat="45.66894" lon="4.33374">
        <ele>503.1</ele>
        <time>2023-02-19T10:57:19Z</time>
      </trkpt>
      <trkpt lat="45.66894" lon="4.33375">
        <ele>503.3</ele>
        <time>2023-02-19T10:57:20Z</time>
      </trkpt>
      <trkpt lat="45.66894" lon="4.33376">
        <ele>503.4</ele>
        <time>2023-02-19T10:57:21Z</time>
      </trkpt>
      <trkpt lat="45.66894" lon="4.33378">
        <ele>503.8</ele>
        <time>2023-02-19T10:57:23Z</time>
      </trkpt>
      <trkpt lat="45.66894" lon="4.3338">
        <ele>504.2</ele>
        <time>2023-02-19T10:57:24Z</time>
      </trkpt>
      <trkpt lat="45.66893" lon="4.33381">
        <ele>504.5</ele>
        <time>2023-02-19T10:57:25Z</time>
      </trkpt>
      <trkpt lat="45.66893" lon="4.33383">
        <ele>504.8</ele>
        <time>2023-02-19T10:57:26Z</time>
      </trkpt>
      <trkpt lat="45.66893" lon="4.33385">
        <ele>505.3</ele>
        <time>2023-02-19T10:57:28Z</time>
      </trkpt>
      <trkpt lat="45.66892" lon="4.33387">
        <ele>505.6</ele>
        <time>2023-02-19T10:57:29Z</time>
      </trkpt>
      <trkpt lat="45.66892" lon="4.33389">
        <ele>506</ele>
        <time>2023-02-19T10:57:30Z</time>
      </trkpt>
      <trkpt lat="45.66892" lon="4.33391">
        <ele>506.3</ele>
        <time>2023-02-19T10:57:32Z</time>
      </trkpt>
      <trkpt lat="45.66891" lon="4.33392">
        <ele>506.6</ele>
        <time>2023-02-19T10:57:33Z</time>
      </trkpt>
      <trkpt lat="45.6689" lon="4.33393">
        <ele>506.9</ele>
        <time>2023-02-19T10:57:34Z</time>
      </trkpt>
      <trkpt lat="45.6689" lon="4.33394">
        <ele>507.2</ele>
        <time>2023-02-19T10:57:35Z</time>
      </trkpt>
      <trkpt lat="45.66889" lon="4.33395">
        <ele>507.4</ele>
        <time>2023-02-19T10:57:36Z</time>
      </trkpt>
      <trkpt lat="45.66889" lon="4.33396">
        <ele>507.5</ele>
        <time>2023-02-19T10:57:38Z</time>
      </trkpt>
      <trkpt lat="45.66889" lon="4.33396">
        <ele>507.7</ele>
        <time>2023-02-19T10:57:39Z</time>
      </trkpt>
      <trkpt lat="45.66889" lon="4.33398">
        <ele>507.9</ele>
        <time>2023-02-19T10:57:40Z</time>
      </trkpt>
      <trkpt lat="45.66888" lon="4.33398">
        <ele>508.1</ele>
        <time>2023-02-19T10:57:42Z</time>
      </trkpt>
      <trkpt lat="45.66888" lon="4.33399">
        <ele>508.2</ele>
        <time>2023-02-19T10:57:43Z</time>
      </trkpt>
      <trkpt lat="45.66888" lon="4.334">
        <ele>508.3</ele>
        <time>2023-02-19T10:57:44Z</time>
      </trkpt>
      <trkpt lat="45.66888" lon="4.334">
        <ele>508.5</ele>
        <time>2023-02-19T10:57:45Z</time>
      </trkpt>
      <trkpt lat="45.66888" lon="4.33401">
        <ele>508.5</ele>
        <time>2023-02-19T10:57:46Z</time>
      </trkpt>
      <trkpt lat="45.66888" lon="4.33401">
        <ele>508.6</ele>
        <time>2023-02-19T10:57:48Z</time>
      </trkpt>
      <trkpt lat="45.66888" lon="4.33402">
        <ele>508.8</ele>
        <time>2023-02-19T10:57:49Z</time>
      </trkpt>
      <trkpt lat="45.66887" lon="4.33403">
        <ele>508.9</ele>
        <time>2023-02-19T10:57:50Z</time>
      </trkpt>
      <trkpt lat="45.66887" lon="4.33403">
        <ele>509</ele>
        <time>2023-02-19T10:57:51Z</time>
      </trkpt>
      <trkpt lat="45.66887" lon="4.33403">
        <ele>509.1</ele>
        <time>2023-02-19T10:57:53Z</time>
      </trkpt>
      <trkpt lat="45.66886" lon="4.33403">
        <ele>509.2</ele>
        <time>2023-02-19T10:57:54Z</time>
      </trkpt>
      <trkpt lat="45.66886" lon="4.33403">
        <ele>509.3</ele>
        <time>2023-02-19T10:57:55Z</time>
      </trkpt>
      <trkpt lat="45.66886" lon="4.33404">
        <ele>509.4</ele>
        <time>2023-02-19T10:57:56Z</time>
      </trkpt>
      <trkpt lat="45.66886" lon="4.33404">
        <ele>509.5</ele>
        <time>2023-02-19T10:57:57Z</time>
      </trkpt>
      <trkpt lat="45.66886" lon="4.33404">
        <ele>509.5</ele>
        <time>2023-02-19T10:57:59Z</time>
      </trkpt>
      <trkpt lat="45.66886" lon="4.33404">
        <ele>509.6</ele>
        <time>2023-02-19T10:58:00Z</time>
      </trkpt>
      <trkpt lat="45.66885" lon="4.33405">
        <ele>509.7</ele>
        <time>2023-02-19T10:58:01Z</time>
      </trkpt>
      <trkpt lat="45.66885" lon="4.33405">
        <ele>509.8</ele>
        <time>2023-02-19T10:58:02Z</time>
      </trkpt>
      <trkpt lat="45.66885" lon="4.33406">
        <ele>509.9</ele>
        <time>2023-02-19T10:58:03Z</time>
      </trkpt>
      <trkpt lat="45.66884" lon="4.33407">
        <ele>510.1</ele>
        <time>2023-02-19T10:58:05Z</time>
      </trkpt>
      <trkpt lat="45.66884" lon="4.33408">
        <ele>510.3</ele>
        <time>2023-02-19T10:58:06Z</time>
      </trkpt>
      <trkpt lat="45.66883" lon="4.33408">
        <ele>510.5</ele>
        <time>2023-02-19T10:58:07Z</time>
      </trkpt>
      <trkpt lat="45.66883" lon="4.33409">
        <ele>510.7</ele>
        <time>2023-02-19T10:58:08Z</time>
      </trkpt>
      <trkpt lat="45.66882" lon="4.3341">
        <ele>510.9</ele>
        <time>2023-02-19T10:58:09Z</time>
      </trkpt>
      <trkpt lat="45.66882" lon="4.33411">
        <ele>511</ele>
        <time>2023-02-19T10:58:11Z</time>
      </trkpt>
      <trkpt lat="45.66881" lon="4.33412">
        <ele>511.2</ele>
        <time>2023-02-19T10:58:12Z</time>
      </trkpt>
      <trkpt lat="45.66881" lon="4.33414">
        <ele>511.5</ele>
        <time>2023-02-19T10:58:13Z</time>
      </trkpt>
      <trkpt lat="45.6688" lon="4.33415">
        <ele>511.7</ele>
        <time>2023-02-19T10:58:14Z</time>
      </trkpt>
      <trkpt lat="45.6688" lon="4.33417">
        <ele>512</ele>
        <time>2023-02-19T10:58:15Z</time>
      </trkpt>
      <trkpt lat="45.6688" lon="4.33419">
        <ele>512.3</ele>
        <time>2023-02-19T10:58:17Z</time>
      </trkpt>
      <trkpt lat="45.66879" lon="4.33421">
        <ele>512.7</ele>
        <time>2023-02-19T10:58:18Z</time>
      </trkpt>
      <trkpt lat="45.66879" lon="4.33423">
        <ele>513</ele>
        <time>2023-02-19T10:58:19Z</time>
      </trkpt>
      <trkpt lat="45.66878" lon="4.33425">
        <ele>513.3</ele>
        <time>2023-02-19T10:58:21Z</time>
      </trkpt>
      <trkpt lat="45.66878" lon="4.33427">
        <ele>513.6</ele>
        <time>2023-02-19T10:58:22Z</time>
      </trkpt>
      <trkpt lat="45.66878" lon="4.3343">
        <ele>514</ele>
        <time>2023-02-19T10:58:24Z</time>
      </trkpt>
      <trkpt lat="45.66878" lon="4.33431">
        <ele>514.2</ele>
        <time>2023-02-19T10:58:25Z</time>
      </trkpt>
      <trkpt lat="45.66877" lon="4.33433">
        <ele>514.5</ele>
        <time>2023-02-19T10:58:26Z</time>
      </trkpt>
      <trkpt lat="45.66877" lon="4.33435">
        <ele>514.7</ele>
        <time>2023-02-19T10:58:27Z</time>
      </trkpt>
      <trkpt lat="45.66877" lon="4.33437">
        <ele>515.1</ele>
        <time>2023-02-19T10:58:28Z</time>
      </trkpt>
      <trkpt lat="45.66877" lon="4.33439">
        <ele>515.2</ele>
        <time>2023-02-19T10:58:30Z</time>
      </trkpt>
      <trkpt lat="45.66877" lon="4.3344">
        <ele>515.4</ele>
        <time>2023-02-19T10:58:31Z</time>
      </trkpt>
      <trkpt lat="45.66877" lon="4.33442">
        <ele>515.7</ele>
        <time>2023-02-19T10:58:33Z</time>
      </trkpt>
      <trkpt lat="45.66877" lon="4.33444">
        <ele>515.9</ele>
        <time>2023-02-19T10:58:34Z</time>
      </trkpt>
      <trkpt lat="45.66877" lon="4.33445">
        <ele>516.1</ele>
        <time>2023-02-19T10:58:35Z</time>
      </trkpt>
      <trkpt lat="45.66877" lon="4.33446">
        <ele>516.2</ele>
        <time>2023-02-19T10:58:36Z</time>
      </trkpt>
      <trkpt lat="45.66876" lon="4.33447">
        <ele>516.4</ele>
        <time>2023-02-19T10:58:38Z</time>
      </trkpt>
      <trkpt lat="45.66876" lon="4.33449">
        <ele>516.6</ele>
        <time>2023-02-19T10:58:39Z</time>
      </trkpt>
      <trkpt lat="45.66876" lon="4.3345">
        <ele>516.8</ele>
        <time>2023-02-19T10:58:40Z</time>
      </trkpt>
      <trkpt lat="45.66876" lon="4.33451">
        <ele>516.9</ele>
        <time>2023-02-19T10:58:41Z</time>
      </trkpt>
      <trkpt lat="45.66876" lon="4.33452">
        <ele>517</ele>
        <time>2023-02-19T10:58:43Z</time>
      </trkpt>
      <trkpt lat="45.66875" lon="4.33454">
        <ele>517.3</ele>
        <time>2023-02-19T10:58:44Z</time>
      </trkpt>
      <trkpt lat="45.66875" lon="4.33455">
        <ele>517.4</ele>
        <time>2023-02-19T10:58:45Z</time>
      </trkpt>
      <trkpt lat="45.66875" lon="4.33455">
        <ele>517.5</ele>
        <time>2023-02-19T10:58:46Z</time>
      </trkpt>
      <trkpt lat="45.66875" lon="4.33457">
        <ele>517.7</ele>
        <time>2023-02-19T10:58:47Z</time>
      </trkpt>
      <trkpt lat="45.66874" lon="4.33458">
        <ele>517.9</ele>
        <time>2023-02-19T10:58:49Z</time>
      </trkpt>
      <trkpt lat="45.66873" lon="4.33459">
        <ele>518.1</ele>
        <time>2023-02-19T10:58:50Z</time>
      </trkpt>
      <trkpt lat="45.66872" lon="4.3346">
        <ele>518.2</ele>
        <time>2023-02-19T10:58:51Z</time>
      </trkpt>
      <trkpt lat="45.66872" lon="4.33461">
        <ele>518.3</ele>
        <time>2023-02-19T10:58:52Z</time>
      </trkpt>
      <trkpt lat="45.66871" lon="4.33462">
        <ele>518.5</ele>
        <time>2023-02-19T10:58:54Z</time>
      </trkpt>
      <trkpt lat="45.66871" lon="4.33463">
        <ele>518.7</ele>
        <time>2023-02-19T10:58:55Z</time>
      </trkpt>
      <trkpt lat="45.66871" lon="4.33465">
        <ele>518.8</ele>
        <time>2023-02-19T10:58:56Z</time>
      </trkpt>
      <trkpt lat="45.6687" lon="4.33466">
        <ele>519</ele>
        <time>2023-02-19T10:58:57Z</time>
      </trkpt>
      <trkpt lat="45.6687" lon="4.33467">
        <ele>519.1</ele>
        <time>2023-02-19T10:58:59Z</time>
      </trkpt>
      <trkpt lat="45.66869" lon="4.33468">
        <ele>519.3</ele>
        <time>2023-02-19T10:59:00Z</time>
      </trkpt>
      <trkpt lat="45.66869" lon="4.33468">
        <ele>519.4</ele>
        <time>2023-02-19T10:59:01Z</time>
      </trkpt>
      <trkpt lat="45.66869" lon="4.33468">
        <ele>519.4</ele>
        <time>2023-02-19T10:59:02Z</time>
      </trkpt>
      <trkpt lat="45.66868" lon="4.33468">
        <ele>519.5</ele>
        <time>2023-02-19T10:59:03Z</time>
      </trkpt>
      <trkpt lat="45.66868" lon="4.33469">
        <ele>519.6</ele>
        <time>2023-02-19T10:59:05Z</time>
      </trkpt>
      <trkpt lat="45.66868" lon="4.33469">
        <ele>519.6</ele>
        <time>2023-02-19T10:59:06Z</time>
      </trkpt>
      <trkpt lat="45.66868" lon="4.33468">
        <ele>519.7</ele>
        <time>2023-02-19T10:59:07Z</time>
      </trkpt>
      <trkpt lat="45.66868" lon="4.33468">
        <ele>519.7</ele>
        <time>2023-02-19T10:59:08Z</time>
      </trkpt>
      <trkpt lat="45.66868" lon="4.33468">
        <ele>519.7</ele>
        <time>2023-02-19T10:59:10Z</time>
      </trkpt>
      <trkpt lat="45.66868" lon="4.33468">
        <ele>519.8</ele>
        <time>2023-02-19T10:59:11Z</time>
      </trkpt>
      <trkpt lat="45.66868" lon="4.33468">
        <ele>519.8</ele>
        <time>2023-02-19T10:59:12Z</time>
      </trkpt>
      <trkpt lat="45.66868" lon="4.33468">
        <ele>519.8</ele>
        <time>2023-02-19T10:59:13Z</time>
      </trkpt>
      <trkpt lat="45.66868" lon="4.33469">
        <ele>519.9</ele>
        <time>2023-02-19T10:59:14Z</time>
      </trkpt>
      <trkpt lat="45.66868" lon="4.33469">
        <ele>520</ele>
        <time>2023-02-19T10:59:15Z</time>
      </trkpt>
      <trkpt lat="45.66868" lon="4.33471">
        <ele>520.2</ele>
        <time>2023-02-19T10:59:17Z</time>
      </trkpt>
      <trkpt lat="45.66868" lon="4.33472">
        <ele>520.3</ele>
        <time>2023-02-19T10:59:18Z</time>
      </trkpt>
      <trkpt lat="45.66868" lon="4.33473">
        <ele>520.5</ele>
        <time>2023-02-19T10:59:19Z</time>
      </trkpt>
      <trkpt lat="45.66868" lon="4.33475">
        <ele>520.7</ele>
        <time>2023-02-19T10:59:20Z</time>
      </trkpt>
      <trkpt lat="45.66868" lon="4.33477">
        <ele>520.9</ele>
        <time>2023-02-19T10:59:22Z</time>
      </trkpt>
      <trkpt lat="45.66869" lon="4.33479">
        <ele>521.2</ele>
        <time>2023-02-19T10:59:23Z</time>
      </trkpt>
      <trkpt lat="45.66869" lon="4.3348">
        <ele>521.3</ele>
        <time>2023-02-19T10:59:24Z</time>
      </trkpt>
      <trkpt lat="45.66869" lon="4.33481">
        <ele>521.5</ele>
        <time>2023-02-19T10:59:25Z</time>
      </trkpt>
      <trkpt lat="45.66869" lon="4.33482">
        <ele>521.6</ele>
        <time>2023-02-19T10:59:26Z</time>
      </trkpt>
      <trkpt lat="45.6687" lon="4.33484">
        <ele>522</ele>
        <time>2023-02-19T10:59:28Z</time>
      </trkpt>
      <trkpt lat="45.6687" lon="4.33486">
        <ele>522.2</ele>
        <time>2023-02-19T10:59:29Z</time>
      </trkpt>
      <trkpt lat="45.6687" lon="4.33488">
        <ele>522.4</ele>
        <time>2023-02-19T10:59:30Z</time>
      </trkpt>
      <trkpt lat="45.6687" lon="4.33489">
        <ele>522.6</ele>
        <time>2023-02-19T10:59:31Z</time>
      </trkpt>
      <trkpt lat="45.6687" lon="4.33491">
        <ele>522.8</ele>
        <time>2023-02-19T10:59:33Z</time>
      </trkpt>
      <trkpt lat="45.6687" lon="4.33493">
        <ele>523</ele>
        <time>2023-02-19T10:59:34Z</time>
      </trkpt>
      <trkpt lat="45.6687" lon="4.33494">
        <ele>523.2</ele>
        <time>2023-02-19T10:59:35Z</time>
      </trkpt>
      <trkpt lat="45.6687" lon="4.33495">
        <ele>523.4</ele>
        <time>2023-02-19T10:59:36Z</time>
      </trkpt>
      <trkpt lat="45.6687" lon="4.33497">
        <ele>523.6</ele>
        <time>2023-02-19T10:59:37Z</time>
      </trkpt>
      <trkpt lat="45.6687" lon="4.33498">
        <ele>523.8</ele>
        <time>2023-02-19T10:59:39Z</time>
      </trkpt>
      <trkpt lat="45.6687" lon="4.335">
        <ele>524</ele>
        <time>2023-02-19T10:59:40Z</time>
      </trkpt>
      <trkpt lat="45.66871" lon="4.33501">
        <ele>524.1</ele>
        <time>2023-02-19T10:59:41Z</time>
      </trkpt>
      <trkpt lat="45.66871" lon="4.33502">
        <ele>524.2</ele>
        <time>2023-02-19T10:59:42Z</time>
      </trkpt>
      <trkpt lat="45.66871" lon="4.33503">
        <ele>524.3</ele>
        <time>2023-02-19T10:59:44Z</time>
      </trkpt>
      <trkpt lat="45.66871" lon="4.33504">
        <ele>524.5</ele>
        <time>2023-02-19T10:59:45Z</time>
      </trkpt>
      <trkpt lat="45.66871" lon="4.33505">
        <ele>524.6</ele>
        <time>2023-02-19T10:59:46Z</time>
      </trkpt>
      <trkpt lat="45.66871" lon="4.33506">
        <ele>524.7</ele>
        <time>2023-02-19T10:59:47Z</time>
      </trkpt>
      <trkpt lat="45.66872" lon="4.33507">
        <ele>524.8</ele>
        <time>2023-02-19T10:59:49Z</time>
      </trkpt>
      <trkpt lat="45.66872" lon="4.33508">
        <ele>525.1</ele>
        <time>2023-02-19T10:59:50Z</time>
      </trkpt>
      <trkpt lat="45.66873" lon="4.33509">
        <ele>525.2</ele>
        <time>2023-02-19T10:59:51Z</time>
      </trkpt>
      <trkpt lat="45.66873" lon="4.3351">
        <ele>525.3</ele>
        <time>2023-02-19T10:59:52Z</time>
      </trkpt>
      <trkpt lat="45.66873" lon="4.33511">
        <ele>525.5</ele>
        <time>2023-02-19T10:59:54Z</time>
      </trkpt>
      <trkpt lat="45.66874" lon="4.33513">
        <ele>525.7</ele>
        <time>2023-02-19T10:59:55Z</time>
      </trkpt>
      <trkpt lat="45.66874" lon="4.33514">
        <ele>525.8</ele>
        <time>2023-02-19T10:59:56Z</time>
      </trkpt>
      <trkpt lat="45.66874" lon="4.33515">
        <ele>526.1</ele>
        <time>2023-02-19T10:59:57Z</time>
      </trkpt>
      <trkpt lat="45.66874" lon="4.33517">
        <ele>526.3</ele>
        <time>2023-02-19T10:59:59Z</time>
      </trkpt>
      <trkpt lat="45.66875" lon="4.33518">
        <ele>526.5</ele>
        <time>2023-02-19T11:00:00Z</time>
      </trkpt>
      <trkpt lat="45.66875" lon="4.33519">
        <ele>526.6</ele>
        <time>2023-02-19T11:00:01Z</time>
      </trkpt>
      <trkpt lat="45.66875" lon="4.3352">
        <ele>526.7</ele>
        <time>2023-02-19T11:00:03Z</time>
      </trkpt>
      <trkpt lat="45.66875" lon="4.33522">
        <ele>526.9</ele>
        <time>2023-02-19T11:00:04Z</time>
      </trkpt>
      <trkpt lat="45.66875" lon="4.33523">
        <ele>527.1</ele>
        <time>2023-02-19T11:00:05Z</time>
      </trkpt>
      <trkpt lat="45.66875" lon="4.33525">
        <ele>527.4</ele>
        <time>2023-02-19T11:00:07Z</time>
      </trkpt>
      <trkpt lat="45.66875" lon="4.33527">
        <ele>527.6</ele>
        <time>2023-02-19T11:00:08Z</time>
      </trkpt>
      <trkpt lat="45.66876" lon="4.33528">
        <ele>527.8</ele>
        <time>2023-02-19T11:00:10Z</time>
      </trkpt>
      <trkpt lat="45.66876" lon="4.3353">
        <ele>528.1</ele>
        <time>2023-02-19T11:00:11Z</time>
      </trkpt>
      <trkpt lat="45.66876" lon="4.33531">
        <ele>528.2</ele>
        <time>2023-02-19T11:00:12Z</time>
      </trkpt>
      <trkpt lat="45.66876" lon="4.33533">
        <ele>528.4</ele>
        <time>2023-02-19T11:00:13Z</time>
      </trkpt>
      <trkpt lat="45.66876" lon="4.33534">
        <ele>528.6</ele>
        <time>2023-02-19T11:00:14Z</time>
      </trkpt>
      <trkpt lat="45.66876" lon="4.33535">
        <ele>528.8</ele>
        <time>2023-02-19T11:00:16Z</time>
      </trkpt>
      <trkpt lat="45.66876" lon="4.33537">
        <ele>529</ele>
        <time>2023-02-19T11:00:17Z</time>
      </trkpt>
      <trkpt lat="45.66876" lon="4.33539">
        <ele>529.3</ele>
        <time>2023-02-19T11:00:18Z</time>
      </trkpt>
      <trkpt lat="45.66877" lon="4.33541">
        <ele>529.5</ele>
        <time>2023-02-19T11:00:20Z</time>
      </trkpt>
      <trkpt lat="45.66877" lon="4.33542">
        <ele>529.7</ele>
        <time>2023-02-19T11:00:21Z</time>
      </trkpt>
      <trkpt lat="45.66877" lon="4.33545">
        <ele>530.1</ele>
        <time>2023-02-19T11:00:22Z</time>
      </trkpt>
      <trkpt lat="45.66878" lon="4.33547">
        <ele>530.4</ele>
        <time>2023-02-19T11:00:23Z</time>
      </trkpt>
      <trkpt lat="45.66878" lon="4.33549">
        <ele>530.6</ele>
        <time>2023-02-19T11:00:24Z</time>
      </trkpt>
      <trkpt lat="45.66879" lon="4.33551">
        <ele>530.8</ele>
        <time>2023-02-19T11:00:25Z</time>
      </trkpt>
      <trkpt lat="45.66879" lon="4.33552">
        <ele>531</ele>
        <time>2023-02-19T11:00:26Z</time>
      </trkpt>
      <trkpt lat="45.66879" lon="4.33553">
        <ele>531.1</ele>
        <time>2023-02-19T11:00:27Z</time>
      </trkpt>
      <trkpt lat="45.66879" lon="4.33554">
        <ele>531.3</ele>
        <time>2023-02-19T11:00:28Z</time>
      </trkpt>
      <trkpt lat="45.66879" lon="4.33555">
        <ele>531.4</ele>
        <time>2023-02-19T11:00:29Z</time>
      </trkpt>
      <trkpt lat="45.66879" lon="4.33556">
        <ele>531.5</ele>
        <time>2023-02-19T11:00:30Z</time>
      </trkpt>
      <trkpt lat="45.66879" lon="4.33557">
        <ele>531.6</ele>
        <time>2023-02-19T11:00:31Z</time>
      </trkpt>
      <trkpt lat="45.6688" lon="4.33558">
        <ele>531.8</ele>
        <time>2023-02-19T11:00:33Z</time>
      </trkpt>
      <trkpt lat="45.6688" lon="4.33559">
        <ele>532</ele>
        <time>2023-02-19T11:00:34Z</time>
      </trkpt>
      <trkpt lat="45.6688" lon="4.3356">
        <ele>532.1</ele>
        <time>2023-02-19T11:00:35Z</time>
      </trkpt>
      <trkpt lat="45.6688" lon="4.33561">
        <ele>532.2</ele>
        <time>2023-02-19T11:00:36Z</time>
      </trkpt>
      <trkpt lat="45.6688" lon="4.33563">
        <ele>532.4</ele>
        <time>2023-02-19T11:00:38Z</time>
      </trkpt>
      <trkpt lat="45.6688" lon="4.33565">
        <ele>532.6</ele>
        <time>2023-02-19T11:00:39Z</time>
      </trkpt>
      <trkpt lat="45.6688" lon="4.33566">
        <ele>532.7</ele>
        <time>2023-02-19T11:00:40Z</time>
      </trkpt>
      <trkpt lat="45.66881" lon="4.33566">
        <ele>532.8</ele>
        <time>2023-02-19T11:00:41Z</time>
      </trkpt>
      <trkpt lat="45.66881" lon="4.33567">
        <ele>532.9</ele>
        <time>2023-02-19T11:00:43Z</time>
      </trkpt>
      <trkpt lat="45.66881" lon="4.33568">
        <ele>533.1</ele>
        <time>2023-02-19T11:00:44Z</time>
      </trkpt>
      <trkpt lat="45.66881" lon="4.33569">
        <ele>533.2</ele>
        <time>2023-02-19T11:00:45Z</time>
      </trkpt>
      <trkpt lat="45.66882" lon="4.3357">
        <ele>533.3</ele>
        <time>2023-02-19T11:00:47Z</time>
      </trkpt>
      <trkpt lat="45.66882" lon="4.3357">
        <ele>533.4</ele>
        <time>2023-02-19T11:00:48Z</time>
      </trkpt>
      <trkpt lat="45.66882" lon="4.33572">
        <ele>533.5</ele>
        <time>2023-02-19T11:00:49Z</time>
      </trkpt>
      <trkpt lat="45.66882" lon="4.33573">
        <ele>533.7</ele>
        <time>2023-02-19T11:00:50Z</time>
      </trkpt>
      <trkpt lat="45.66883" lon="4.33576">
        <ele>533.9</ele>
        <time>2023-02-19T11:00:52Z</time>
      </trkpt>
      <trkpt lat="45.66883" lon="4.33576">
        <ele>534</ele>
        <time>2023-02-19T11:00:53Z</time>
      </trkpt>
      <trkpt lat="45.66883" lon="4.33577">
        <ele>534.1</ele>
        <time>2023-02-19T11:00:54Z</time>
      </trkpt>
      <trkpt lat="45.66883" lon="4.33577">
        <ele>534.1</ele>
        <time>2023-02-19T11:00:55Z</time>
      </trkpt>
      <trkpt lat="45.66883" lon="4.33578">
        <ele>534.2</ele>
        <time>2023-02-19T11:00:57Z</time>
      </trkpt>
      <trkpt lat="45.66884" lon="4.33579">
        <ele>534.4</ele>
        <time>2023-02-19T11:00:58Z</time>
      </trkpt>
      <trkpt lat="45.66884" lon="4.33581">
        <ele>534.5</ele>
        <time>2023-02-19T11:00:59Z</time>
      </trkpt>
      <trkpt lat="45.66884" lon="4.33583">
        <ele>534.8</ele>
        <time>2023-02-19T11:01:00Z</time>
      </trkpt>
      <trkpt lat="45.66884" lon="4.33584">
        <ele>534.9</ele>
        <time>2023-02-19T11:01:01Z</time>
      </trkpt>
      <trkpt lat="45.66884" lon="4.33585">
        <ele>535</ele>
        <time>2023-02-19T11:01:03Z</time>
      </trkpt>
      <trkpt lat="45.66883" lon="4.33586">
        <ele>535</ele>
        <time>2023-02-19T11:01:04Z</time>
      </trkpt>
      <trkpt lat="45.66883" lon="4.33586">
        <ele>535.1</ele>
        <time>2023-02-19T11:01:05Z</time>
      </trkpt>
      <trkpt lat="45.66883" lon="4.33587">
        <ele>535.2</ele>
        <time>2023-02-19T11:01:06Z</time>
      </trkpt>
      <trkpt lat="45.66883" lon="4.33589">
        <ele>535.4</ele>
        <time>2023-02-19T11:01:07Z</time>
      </trkpt>
      <trkpt lat="45.66882" lon="4.33591">
        <ele>535.6</ele>
        <time>2023-02-19T11:01:09Z</time>
      </trkpt>
      <trkpt lat="45.66882" lon="4.33593">
        <ele>535.8</ele>
        <time>2023-02-19T11:01:10Z</time>
      </trkpt>
      <trkpt lat="45.66882" lon="4.33596">
        <ele>536.2</ele>
        <time>2023-02-19T11:01:11Z</time>
      </trkpt>
      <trkpt lat="45.66881" lon="4.33598">
        <ele>536.3</ele>
        <time>2023-02-19T11:01:13Z</time>
      </trkpt>
      <trkpt lat="45.66881" lon="4.336">
        <ele>536.5</ele>
        <time>2023-02-19T11:01:14Z</time>
      </trkpt>
      <trkpt lat="45.66881" lon="4.33601">
        <ele>536.6</ele>
        <time>2023-02-19T11:01:15Z</time>
      </trkpt>
      <trkpt lat="45.66881" lon="4.33603">
        <ele>536.8</ele>
        <time>2023-02-19T11:01:16Z</time>
      </trkpt>
      <trkpt lat="45.66881" lon="4.33605">
        <ele>537</ele>
        <time>2023-02-19T11:01:18Z</time>
      </trkpt>
      <trkpt lat="45.66881" lon="4.33607">
        <ele>537.2</ele>
        <time>2023-02-19T11:01:19Z</time>
      </trkpt>
      <trkpt lat="45.66881" lon="4.33609">
        <ele>537.4</ele>
        <time>2023-02-19T11:01:20Z</time>
      </trkpt>
      <trkpt lat="45.66881" lon="4.33611">
        <ele>537.6</ele>
        <time>2023-02-19T11:01:22Z</time>
      </trkpt>
      <trkpt lat="45.66881" lon="4.33612">
        <ele>537.6</ele>
        <time>2023-02-19T11:01:23Z</time>
      </trkpt>
      <trkpt lat="45.66881" lon="4.33613">
        <ele>537.8</ele>
        <time>2023-02-19T11:01:24Z</time>
      </trkpt>
      <trkpt lat="45.66881" lon="4.33615">
        <ele>538</ele>
        <time>2023-02-19T11:01:25Z</time>
      </trkpt>
      <trkpt lat="45.66881" lon="4.33616">
        <ele>538.1</ele>
        <time>2023-02-19T11:01:26Z</time>
      </trkpt>
      <trkpt lat="45.6688" lon="4.33617">
        <ele>538.2</ele>
        <time>2023-02-19T11:01:27Z</time>
      </trkpt>
      <trkpt lat="45.6688" lon="4.33618">
        <ele>538.3</ele>
        <time>2023-02-19T11:01:28Z</time>
      </trkpt>
      <trkpt lat="45.6688" lon="4.33619">
        <ele>538.4</ele>
        <time>2023-02-19T11:01:29Z</time>
      </trkpt>
      <trkpt lat="45.6688" lon="4.3362">
        <ele>538.5</ele>
        <time>2023-02-19T11:01:31Z</time>
      </trkpt>
      <trkpt lat="45.6688" lon="4.33621">
        <ele>538.6</ele>
        <time>2023-02-19T11:01:32Z</time>
      </trkpt>
      <trkpt lat="45.6688" lon="4.33622">
        <ele>538.7</ele>
        <time>2023-02-19T11:01:33Z</time>
      </trkpt>
      <trkpt lat="45.6688" lon="4.33623">
        <ele>538.8</ele>
        <time>2023-02-19T11:01:34Z</time>
      </trkpt>
      <trkpt lat="45.66879" lon="4.33625">
        <ele>539</ele>
        <time>2023-02-19T11:01:36Z</time>
      </trkpt>
      <trkpt lat="45.66879" lon="4.33626">
        <ele>539.2</ele>
        <time>2023-02-19T11:01:37Z</time>
      </trkpt>
      <trkpt lat="45.66879" lon="4.33627">
        <ele>539.3</ele>
        <time>2023-02-19T11:01:38Z</time>
      </trkpt>
      <trkpt lat="45.66878" lon="4.33629">
        <ele>539.5</ele>
        <time>2023-02-19T11:01:39Z</time>
      </trkpt>
      <trkpt lat="45.66878" lon="4.33632">
        <ele>539.8</ele>
        <time>2023-02-19T11:01:41Z</time>
      </trkpt>
      <trkpt lat="45.66877" lon="4.33634">
        <ele>540</ele>
        <time>2023-02-19T11:01:42Z</time>
      </trkpt>
      <trkpt lat="45.66877" lon="4.33636">
        <ele>540.3</ele>
        <time>2023-02-19T11:01:43Z</time>
      </trkpt>
      <trkpt lat="45.66876" lon="4.33639">
        <ele>540.5</ele>
        <time>2023-02-19T11:01:44Z</time>
      </trkpt>
      <trkpt lat="45.66876" lon="4.33642">
        <ele>540.8</ele>
        <time>2023-02-19T11:01:45Z</time>
      </trkpt>
      <trkpt lat="45.66876" lon="4.33643">
        <ele>540.9</ele>
        <time>2023-02-19T11:01:47Z</time>
      </trkpt>
      <trkpt lat="45.66875" lon="4.33644">
        <ele>541.1</ele>
        <time>2023-02-19T11:01:48Z</time>
      </trkpt>
      <trkpt lat="45.66875" lon="4.33646">
        <ele>541.2</ele>
        <time>2023-02-19T11:01:49Z</time>
      </trkpt>
      <trkpt lat="45.66875" lon="4.33647">
        <ele>541.4</ele>
        <time>2023-02-19T11:01:50Z</time>
      </trkpt>
      <trkpt lat="45.66874" lon="4.33649">
        <ele>541.5</ele>
        <time>2023-02-19T11:01:51Z</time>
      </trkpt>
      <trkpt lat="45.66874" lon="4.33652">
        <ele>541.8</ele>
        <time>2023-02-19T11:01:53Z</time>
      </trkpt>
      <trkpt lat="45.66873" lon="4.33653">
        <ele>542</ele>
        <time>2023-02-19T11:01:54Z</time>
      </trkpt>
      <trkpt lat="45.66871" lon="4.33656">
        <ele>542.4</ele>
        <time>2023-02-19T11:01:56Z</time>
      </trkpt>
      <trkpt lat="45.6687" lon="4.33657">
        <ele>542.5</ele>
        <time>2023-02-19T11:01:57Z</time>
      </trkpt>
      <trkpt lat="45.66869" lon="4.33659">
        <ele>542.8</ele>
        <time>2023-02-19T11:01:58Z</time>
      </trkpt>
      <trkpt lat="45.66867" lon="4.33661">
        <ele>543</ele>
        <time>2023-02-19T11:02:00Z</time>
      </trkpt>
      <trkpt lat="45.66866" lon="4.33661">
        <ele>543.2</ele>
        <time>2023-02-19T11:02:01Z</time>
      </trkpt>
      <trkpt lat="45.66865" lon="4.33662">
        <ele>543.3</ele>
        <time>2023-02-19T11:02:02Z</time>
      </trkpt>
      <trkpt lat="45.66864" lon="4.33663">
        <ele>543.5</ele>
        <time>2023-02-19T11:02:03Z</time>
      </trkpt>
      <trkpt lat="45.66863" lon="4.33664">
        <ele>543.6</ele>
        <time>2023-02-19T11:02:05Z</time>
      </trkpt>
      <trkpt lat="45.66862" lon="4.33665">
        <ele>543.7</ele>
        <time>2023-02-19T11:02:06Z</time>
      </trkpt>
      <trkpt lat="45.66862" lon="4.33666">
        <ele>543.8</ele>
        <time>2023-02-19T11:02:07Z</time>
      </trkpt>
      <trkpt lat="45.66861" lon="4.33667">
        <ele>544</ele>
        <time>2023-02-19T11:02:08Z</time>
      </trkpt>
      <trkpt lat="45.66861" lon="4.33668">
        <ele>544</ele>
        <time>2023-02-19T11:02:09Z</time>
      </trkpt>
      <trkpt lat="45.66861" lon="4.33669">
        <ele>544.1</ele>
        <time>2023-02-19T11:02:10Z</time>
      </trkpt>
      <trkpt lat="45.6686" lon="4.3367">
        <ele>544.3</ele>
        <time>2023-02-19T11:02:12Z</time>
      </trkpt>
      <trkpt lat="45.6686" lon="4.33671">
        <ele>544.4</ele>
        <time>2023-02-19T11:02:13Z</time>
      </trkpt>
      <trkpt lat="45.6686" lon="4.33673">
        <ele>544.5</ele>
        <time>2023-02-19T11:02:14Z</time>
      </trkpt>
      <trkpt lat="45.66859" lon="4.33674">
        <ele>544.7</ele>
        <time>2023-02-19T11:02:15Z</time>
      </trkpt>
      <trkpt lat="45.66859" lon="4.33676">
        <ele>544.9</ele>
        <time>2023-02-19T11:02:17Z</time>
      </trkpt>
      <trkpt lat="45.66859" lon="4.33677">
        <ele>545</ele>
        <time>2023-02-19T11:02:18Z</time>
      </trkpt>
      <trkpt lat="45.66859" lon="4.33679">
        <ele>545.2</ele>
        <time>2023-02-19T11:02:19Z</time>
      </trkpt>
      <trkpt lat="45.66859" lon="4.33681">
        <ele>545.4</ele>
        <time>2023-02-19T11:02:21Z</time>
      </trkpt>
      <trkpt lat="45.66859" lon="4.33683">
        <ele>545.6</ele>
        <time>2023-02-19T11:02:22Z</time>
      </trkpt>
      <trkpt lat="45.66859" lon="4.33686">
        <ele>545.9</ele>
        <time>2023-02-19T11:02:23Z</time>
      </trkpt>
      <trkpt lat="45.66859" lon="4.33688">
        <ele>546.2</ele>
        <time>2023-02-19T11:02:25Z</time>
      </trkpt>
      <trkpt lat="45.66859" lon="4.33691">
        <ele>546.5</ele>
        <time>2023-02-19T11:02:26Z</time>
      </trkpt>
      <trkpt lat="45.66859" lon="4.33693">
        <ele>546.7</ele>
        <time>2023-02-19T11:02:27Z</time>
      </trkpt>
      <trkpt lat="45.66859" lon="4.33694">
        <ele>546.9</ele>
        <time>2023-02-19T11:02:29Z</time>
      </trkpt>
      <trkpt lat="45.66859" lon="4.33696">
        <ele>547</ele>
        <time>2023-02-19T11:02:30Z</time>
      </trkpt>
      <trkpt lat="45.6686" lon="4.33697">
        <ele>547.2</ele>
        <time>2023-02-19T11:02:31Z</time>
      </trkpt>
      <trkpt lat="45.6686" lon="4.33699">
        <ele>547.4</ele>
        <time>2023-02-19T11:02:32Z</time>
      </trkpt>
      <trkpt lat="45.6686" lon="4.33701">
        <ele>547.7</ele>
        <time>2023-02-19T11:02:34Z</time>
      </trkpt>
      <trkpt lat="45.6686" lon="4.33703">
        <ele>547.8</ele>
        <time>2023-02-19T11:02:35Z</time>
      </trkpt>
      <trkpt lat="45.66861" lon="4.33704">
        <ele>547.9</ele>
        <time>2023-02-19T11:02:36Z</time>
      </trkpt>
      <trkpt lat="45.6686" lon="4.33705">
        <ele>548.1</ele>
        <time>2023-02-19T11:02:37Z</time>
      </trkpt>
      <trkpt lat="45.6686" lon="4.33707">
        <ele>548.3</ele>
        <time>2023-02-19T11:02:39Z</time>
      </trkpt>
      <trkpt lat="45.6686" lon="4.33709">
        <ele>548.6</ele>
        <time>2023-02-19T11:02:40Z</time>
      </trkpt>
      <trkpt lat="45.6686" lon="4.3371">
        <ele>548.7</ele>
        <time>2023-02-19T11:02:41Z</time>
      </trkpt>
      <trkpt lat="45.6686" lon="4.33711">
        <ele>548.8</ele>
        <time>2023-02-19T11:02:42Z</time>
      </trkpt>
      <trkpt lat="45.6686" lon="4.33712">
        <ele>548.9</ele>
        <time>2023-02-19T11:02:43Z</time>
      </trkpt>
      <trkpt lat="45.6686" lon="4.33714">
        <ele>549.1</ele>
        <time>2023-02-19T11:02:45Z</time>
      </trkpt>
      <trkpt lat="45.6686" lon="4.33715">
        <ele>549.2</ele>
        <time>2023-02-19T11:02:46Z</time>
      </trkpt>
      <trkpt lat="45.6686" lon="4.33717">
        <ele>549.5</ele>
        <time>2023-02-19T11:02:47Z</time>
      </trkpt>
      <trkpt lat="45.6686" lon="4.33718">
        <ele>549.6</ele>
        <time>2023-02-19T11:02:48Z</time>
      </trkpt>
      <trkpt lat="45.6686" lon="4.33719">
        <ele>549.8</ele>
        <time>2023-02-19T11:02:50Z</time>
      </trkpt>
      <trkpt lat="45.6686" lon="4.33719">
        <ele>549.8</ele>
        <time>2023-02-19T11:02:51Z</time>
      </trkpt>
      <trkpt lat="45.66861" lon="4.3372">
        <ele>549.9</ele>
        <time>2023-02-19T11:02:52Z</time>
      </trkpt>
      <trkpt lat="45.66861" lon="4.3372">
        <ele>550</ele>
        <time>2023-02-19T11:02:53Z</time>
      </trkpt>
      <trkpt lat="45.66862" lon="4.33721">
        <ele>550.2</ele>
        <time>2023-02-19T11:02:54Z</time>
      </trkpt>
      <trkpt lat="45.66862" lon="4.33725">
        <ele>550.6</ele>
        <time>2023-02-19T11:02:56Z</time>
      </trkpt>
      <trkpt lat="45.66861" lon="4.33726">
        <ele>550.8</ele>
        <time>2023-02-19T11:02:57Z</time>
      </trkpt>
      <trkpt lat="45.66861" lon="4.33728">
        <ele>551</ele>
        <time>2023-02-19T11:02:58Z</time>
      </trkpt>
      <trkpt lat="45.66861" lon="4.3373">
        <ele>551.1</ele>
        <time>2023-02-19T11:02:59Z</time>
      </trkpt>
      <trkpt lat="45.66861" lon="4.33732">
        <ele>551.2</ele>
        <time>2023-02-19T11:03:01Z</time>
      </trkpt>
      <trkpt lat="45.66861" lon="4.33733">
        <ele>551.3</ele>
        <time>2023-02-19T11:03:02Z</time>
      </trkpt>
      <trkpt lat="45.66861" lon="4.33734">
        <ele>551.3</ele>
        <time>2023-02-19T11:03:03Z</time>
      </trkpt>
      <trkpt lat="45.66862" lon="4.33734">
        <ele>551.3</ele>
        <time>2023-02-19T11:03:04Z</time>
      </trkpt>
      <trkpt lat="45.66862" lon="4.33737">
        <ele>551.5</ele>
        <time>2023-02-19T11:03:05Z</time>
      </trkpt>
      <trkpt lat="45.66862" lon="4.33738">
        <ele>551.6</ele>
        <time>2023-02-19T11:03:06Z</time>
      </trkpt>
      <trkpt lat="45.66863" lon="4.33739">
        <ele>551.6</ele>
        <time>2023-02-19T11:03:07Z</time>
      </trkpt>
      <trkpt lat="45.66863" lon="4.33739">
        <ele>551.6</ele>
        <time>2023-02-19T11:03:08Z</time>
      </trkpt>
      <trkpt lat="45.66863" lon="4.33739">
        <ele>551.6</ele>
        <time>2023-02-19T11:03:09Z</time>
      </trkpt>
      <trkpt lat="45.66863" lon="4.33739">
        <ele>551.6</ele>
        <time>2023-02-19T11:03:10Z</time>
      </trkpt>
      <trkpt lat="45.66863" lon="4.33739">
        <ele>551.6</ele>
        <time>2023-02-19T11:03:11Z</time>
      </trkpt>
      <trkpt lat="45.66863" lon="4.33739">
        <ele>551.6</ele>
        <time>2023-02-19T11:03:12Z</time>
      </trkpt>
      <trkpt lat="45.66863" lon="4.33739">
        <ele>551.6</ele>
        <time>2023-02-19T11:03:13Z</time>
      </trkpt>
      <trkpt lat="45.66863" lon="4.33739">
        <ele>551.6</ele>
        <time>2023-02-19T11:03:14Z</time>
      </trkpt>
      <trkpt lat="45.66863" lon="4.33739">
        <ele>551.6</ele>
        <time>2023-02-19T11:03:15Z</time>
      </trkpt>
      <trkpt lat="45.66863" lon="4.33739">
        <ele>551.6</ele>
        <time>2023-02-19T11:03:16Z</time>
      </trkpt>
      <trkpt lat="45.66863" lon="4.33739">
        <ele>551.6</ele>
        <time>2023-02-19T11:03:17Z</time>
      </trkpt>
      <trkpt lat="45.66863" lon="4.33739">
        <ele>551.6</ele>
        <time>2023-02-19T11:03:18Z</time>
      </trkpt>
      <trkpt lat="45.66862" lon="4.33739">
        <ele>551.7</ele>
        <time>2023-02-19T11:03:19Z</time>
      </trkpt>
      <trkpt lat="45.66862" lon="4.3374">
        <ele>551.7</ele>
        <time>2023-02-19T11:03:20Z</time>
      </trkpt>
      <trkpt lat="45.66862" lon="4.3374">
        <ele>551.7</ele>
        <time>2023-02-19T11:03:21Z</time>
      </trkpt>
      <trkpt lat="45.66861" lon="4.3374">
        <ele>551.7</ele>
        <time>2023-02-19T11:03:22Z</time>
      </trkpt>
      <trkpt lat="45.66861" lon="4.3374">
        <ele>551.7</ele>
        <time>2023-02-19T11:03:23Z</time>
      </trkpt>
      <trkpt lat="45.66861" lon="4.3374">
        <ele>551.8</ele>
        <time>2023-02-19T11:03:24Z</time>
      </trkpt>
      <trkpt lat="45.66861" lon="4.3374">
        <ele>551.8</ele>
        <time>2023-02-19T11:03:25Z</time>
      </trkpt>
      <trkpt lat="45.66861" lon="4.33739">
        <ele>551.8</ele>
        <time>2023-02-19T11:03:26Z</time>
      </trkpt>
      <trkpt lat="45.66861" lon="4.33739">
        <ele>551.8</ele>
        <time>2023-02-19T11:03:27Z</time>
      </trkpt>
      <trkpt lat="45.66861" lon="4.33739">
        <ele>551.8</ele>
        <time>2023-02-19T11:03:28Z</time>
      </trkpt>
      <trkpt lat="45.66861" lon="4.33739">
        <ele>551.8</ele>
        <time>2023-02-19T11:03:29Z</time>
      </trkpt>
      <trkpt lat="45.66861" lon="4.33739">
        <ele>551.8</ele>
        <time>2023-02-19T11:03:30Z</time>
      </trkpt>
      <trkpt lat="45.66861" lon="4.3374">
        <ele>551.8</ele>
        <time>2023-02-19T11:03:31Z</time>
      </trkpt>
      <trkpt lat="45.66861" lon="4.3374">
        <ele>551.8</ele>
        <time>2023-02-19T11:03:32Z</time>
      </trkpt>
      <trkpt lat="45.66861" lon="4.33741">
        <ele>551.9</ele>
        <time>2023-02-19T11:03:34Z</time>
      </trkpt>
      <trkpt lat="45.6686" lon="4.33742">
        <ele>551.9</ele>
        <time>2023-02-19T11:03:35Z</time>
      </trkpt>
      <trkpt lat="45.6686" lon="4.33743">
        <ele>552</ele>
        <time>2023-02-19T11:03:36Z</time>
      </trkpt>
      <trkpt lat="45.6686" lon="4.33745">
        <ele>552.1</ele>
        <time>2023-02-19T11:03:38Z</time>
      </trkpt>
      <trkpt lat="45.6686" lon="4.33747">
        <ele>552.1</ele>
        <time>2023-02-19T11:03:39Z</time>
      </trkpt>
      <trkpt lat="45.6686" lon="4.33749">
        <ele>552.2</ele>
        <time>2023-02-19T11:03:40Z</time>
      </trkpt>
      <trkpt lat="45.66862" lon="4.33754">
        <ele>552.4</ele>
        <time>2023-02-19T11:03:42Z</time>
      </trkpt>
      <trkpt lat="45.66863" lon="4.33755">
        <ele>552.4</ele>
        <time>2023-02-19T11:03:43Z</time>
      </trkpt>
      <trkpt lat="45.66863" lon="4.33756">
        <ele>552.5</ele>
        <time>2023-02-19T11:03:45Z</time>
      </trkpt>
      <trkpt lat="45.66863" lon="4.33758">
        <ele>552.5</ele>
        <time>2023-02-19T11:03:46Z</time>
      </trkpt>
      <trkpt lat="45.66864" lon="4.33759">
        <ele>552.6</ele>
        <time>2023-02-19T11:03:47Z</time>
      </trkpt>
      <trkpt lat="45.66865" lon="4.33761">
        <ele>552.6</ele>
        <time>2023-02-19T11:03:49Z</time>
      </trkpt>
      <trkpt lat="45.66865" lon="4.33762">
        <ele>552.6</ele>
        <time>2023-02-19T11:03:50Z</time>
      </trkpt>
      <trkpt lat="45.66866" lon="4.33765">
        <ele>552.7</ele>
        <time>2023-02-19T11:03:51Z</time>
      </trkpt>
      <trkpt lat="45.66866" lon="4.33766">
        <ele>552.7</ele>
        <time>2023-02-19T11:03:52Z</time>
      </trkpt>
      <trkpt lat="45.66866" lon="4.33767">
        <ele>552.7</ele>
        <time>2023-02-19T11:03:53Z</time>
      </trkpt>
      <trkpt lat="45.66867" lon="4.3377">
        <ele>552.8</ele>
        <time>2023-02-19T11:03:54Z</time>
      </trkpt>
      <trkpt lat="45.66867" lon="4.33771">
        <ele>552.8</ele>
        <time>2023-02-19T11:03:55Z</time>
      </trkpt>
      <trkpt lat="45.66867" lon="4.33772">
        <ele>552.8</ele>
        <time>2023-02-19T11:03:56Z</time>
      </trkpt>
      <trkpt lat="45.66868" lon="4.33774">
        <ele>552.9</ele>
        <time>2023-02-19T11:03:57Z</time>
      </trkpt>
      <trkpt lat="45.66868" lon="4.33777">
        <ele>552.9</ele>
        <time>2023-02-19T11:03:59Z</time>
      </trkpt>
      <trkpt lat="45.66868" lon="4.33779">
        <ele>553</ele>
        <time>2023-02-19T11:04:00Z</time>
      </trkpt>
      <trkpt lat="45.66869" lon="4.33781">
        <ele>553.1</ele>
        <time>2023-02-19T11:04:01Z</time>
      </trkpt>
      <trkpt lat="45.66869" lon="4.33784">
        <ele>553.1</ele>
        <time>2023-02-19T11:04:02Z</time>
      </trkpt>
      <trkpt lat="45.6687" lon="4.33786">
        <ele>553.2</ele>
        <time>2023-02-19T11:04:03Z</time>
      </trkpt>
      <trkpt lat="45.66871" lon="4.33788">
        <ele>553.3</ele>
        <time>2023-02-19T11:04:04Z</time>
      </trkpt>
      <trkpt lat="45.66871" lon="4.3379">
        <ele>553.3</ele>
        <time>2023-02-19T11:04:05Z</time>
      </trkpt>
      <trkpt lat="45.66871" lon="4.33791">
        <ele>553.3</ele>
        <time>2023-02-19T11:04:06Z</time>
      </trkpt>
      <trkpt lat="45.66872" lon="4.33792">
        <ele>553.4</ele>
        <time>2023-02-19T11:04:08Z</time>
      </trkpt>
      <trkpt lat="45.66872" lon="4.33794">
        <ele>553.4</ele>
        <time>2023-02-19T11:04:09Z</time>
      </trkpt>
      <trkpt lat="45.66873" lon="4.33796">
        <ele>553.5</ele>
        <time>2023-02-19T11:04:10Z</time>
      </trkpt>
      <trkpt lat="45.66874" lon="4.33798">
        <ele>553.6</ele>
        <time>2023-02-19T11:04:11Z</time>
      </trkpt>
      <trkpt lat="45.66874" lon="4.338">
        <ele>553.6</ele>
        <time>2023-02-19T11:04:12Z</time>
      </trkpt>
      <trkpt lat="45.66874" lon="4.33802">
        <ele>553.7</ele>
        <time>2023-02-19T11:04:13Z</time>
      </trkpt>
      <trkpt lat="45.66875" lon="4.33803">
        <ele>553.7</ele>
        <time>2023-02-19T11:04:14Z</time>
      </trkpt>
      <trkpt lat="45.66875" lon="4.33805">
        <ele>553.8</ele>
        <time>2023-02-19T11:04:15Z</time>
      </trkpt>
      <trkpt lat="45.66875" lon="4.33806">
        <ele>553.8</ele>
        <time>2023-02-19T11:04:16Z</time>
      </trkpt>
      <trkpt lat="45.66876" lon="4.33807">
        <ele>553.8</ele>
        <time>2023-02-19T11:04:18Z</time>
      </trkpt>
      <trkpt lat="45.66876" lon="4.33809">
        <ele>553.9</ele>
        <time>2023-02-19T11:04:19Z</time>
      </trkpt>
      <trkpt lat="45.66877" lon="4.3381">
        <ele>553.9</ele>
        <time>2023-02-19T11:04:20Z</time>
      </trkpt>
      <trkpt lat="45.66877" lon="4.33811">
        <ele>554</ele>
        <time>2023-02-19T11:04:21Z</time>
      </trkpt>
      <trkpt lat="45.66878" lon="4.33813">
        <ele>554</ele>
        <time>2023-02-19T11:04:22Z</time>
      </trkpt>
      <trkpt lat="45.66878" lon="4.33815">
        <ele>554.1</ele>
        <time>2023-02-19T11:04:23Z</time>
      </trkpt>
      <trkpt lat="45.66879" lon="4.33818">
        <ele>554.1</ele>
        <time>2023-02-19T11:04:24Z</time>
      </trkpt>
      <trkpt lat="45.66879" lon="4.33819">
        <ele>554.2</ele>
        <time>2023-02-19T11:04:25Z</time>
      </trkpt>
      <trkpt lat="45.6688" lon="4.3382">
        <ele>554.2</ele>
        <time>2023-02-19T11:04:26Z</time>
      </trkpt>
      <trkpt lat="45.6688" lon="4.33822">
        <ele>554.3</ele>
        <time>2023-02-19T11:04:28Z</time>
      </trkpt>
      <trkpt lat="45.66881" lon="4.33824">
        <ele>554.3</ele>
        <time>2023-02-19T11:04:29Z</time>
      </trkpt>
      <trkpt lat="45.66881" lon="4.33827">
        <ele>554.4</ele>
        <time>2023-02-19T11:04:30Z</time>
      </trkpt>
      <trkpt lat="45.66881" lon="4.33829">
        <ele>554.4</ele>
        <time>2023-02-19T11:04:31Z</time>
      </trkpt>
      <trkpt lat="45.66882" lon="4.33831">
        <ele>554.5</ele>
        <time>2023-02-19T11:04:32Z</time>
      </trkpt>
      <trkpt lat="45.66882" lon="4.33833">
        <ele>554.6</ele>
        <time>2023-02-19T11:04:33Z</time>
      </trkpt>
      <trkpt lat="45.66883" lon="4.33835">
        <ele>554.6</ele>
        <time>2023-02-19T11:04:34Z</time>
      </trkpt>
      <trkpt lat="45.66883" lon="4.33837">
        <ele>554.7</ele>
        <time>2023-02-19T11:04:35Z</time>
      </trkpt>
      <trkpt lat="45.66884" lon="4.3384">
        <ele>554.7</ele>
        <time>2023-02-19T11:04:36Z</time>
      </trkpt>
      <trkpt lat="45.66884" lon="4.33842">
        <ele>554.8</ele>
        <time>2023-02-19T11:04:38Z</time>
      </trkpt>
      <trkpt lat="45.66884" lon="4.33844">
        <ele>554.9</ele>
        <time>2023-02-19T11:04:39Z</time>
      </trkpt>
      <trkpt lat="45.66884" lon="4.33846">
        <ele>554.9</ele>
        <time>2023-02-19T11:04:40Z</time>
      </trkpt>
      <trkpt lat="45.66884" lon="4.33848">
        <ele>555</ele>
        <time>2023-02-19T11:04:41Z</time>
      </trkpt>
      <trkpt lat="45.66885" lon="4.3385">
        <ele>555</ele>
        <time>2023-02-19T11:04:42Z</time>
      </trkpt>
      <trkpt lat="45.66885" lon="4.33853">
        <ele>555.1</ele>
        <time>2023-02-19T11:04:43Z</time>
      </trkpt>
      <trkpt lat="45.66885" lon="4.33854">
        <ele>555.2</ele>
        <time>2023-02-19T11:04:44Z</time>
      </trkpt>
      <trkpt lat="45.66885" lon="4.33855">
        <ele>555.2</ele>
        <time>2023-02-19T11:04:45Z</time>
      </trkpt>
      <trkpt lat="45.66885" lon="4.33857">
        <ele>555.2</ele>
        <time>2023-02-19T11:04:46Z</time>
      </trkpt>
      <trkpt lat="45.66886" lon="4.3386">
        <ele>555.3</ele>
        <time>2023-02-19T11:04:48Z</time>
      </trkpt>
      <trkpt lat="45.66886" lon="4.33862">
        <ele>555.4</ele>
        <time>2023-02-19T11:04:49Z</time>
      </trkpt>
      <trkpt lat="45.66887" lon="4.33864">
        <ele>555.4</ele>
        <time>2023-02-19T11:04:50Z</time>
      </trkpt>
      <trkpt lat="45.66887" lon="4.33866">
        <ele>555.5</ele>
        <time>2023-02-19T11:04:51Z</time>
      </trkpt>
      <trkpt lat="45.66888" lon="4.33868">
        <ele>555.6</ele>
        <time>2023-02-19T11:04:52Z</time>
      </trkpt>
      <trkpt lat="45.66889" lon="4.3387">
        <ele>555.7</ele>
        <time>2023-02-19T11:04:53Z</time>
      </trkpt>
      <trkpt lat="45.66889" lon="4.33871">
        <ele>555.7</ele>
        <time>2023-02-19T11:04:54Z</time>
      </trkpt>
      <trkpt lat="45.6689" lon="4.33872">
        <ele>555.7</ele>
        <time>2023-02-19T11:04:55Z</time>
      </trkpt>
      <trkpt lat="45.66891" lon="4.33874">
        <ele>555.8</ele>
        <time>2023-02-19T11:04:57Z</time>
      </trkpt>
      <trkpt lat="45.66891" lon="4.33876">
        <ele>555.9</ele>
        <time>2023-02-19T11:04:58Z</time>
      </trkpt>
      <trkpt lat="45.66892" lon="4.33878">
        <ele>555.9</ele>
        <time>2023-02-19T11:04:59Z</time>
      </trkpt>
      <trkpt lat="45.66892" lon="4.3388">
        <ele>556</ele>
        <time>2023-02-19T11:05:00Z</time>
      </trkpt>
      <trkpt lat="45.66892" lon="4.33882">
        <ele>556</ele>
        <time>2023-02-19T11:05:01Z</time>
      </trkpt>
      <trkpt lat="45.66893" lon="4.33884">
        <ele>556.1</ele>
        <time>2023-02-19T11:05:02Z</time>
      </trkpt>
      <trkpt lat="45.66894" lon="4.33887">
        <ele>556.2</ele>
        <time>2023-02-19T11:05:03Z</time>
      </trkpt>
      <trkpt lat="45.66894" lon="4.33888">
        <ele>556.2</ele>
        <time>2023-02-19T11:05:04Z</time>
      </trkpt>
      <trkpt lat="45.66895" lon="4.33889">
        <ele>556.3</ele>
        <time>2023-02-19T11:05:05Z</time>
      </trkpt>
      <trkpt lat="45.66896" lon="4.33892">
        <ele>556.3</ele>
        <time>2023-02-19T11:05:07Z</time>
      </trkpt>
      <trkpt lat="45.66896" lon="4.33893">
        <ele>556.4</ele>
        <time>2023-02-19T11:05:08Z</time>
      </trkpt>
      <trkpt lat="45.66897" lon="4.33894">
        <ele>556.4</ele>
        <time>2023-02-19T11:05:09Z</time>
      </trkpt>
      <trkpt lat="45.66898" lon="4.33896">
        <ele>556.5</ele>
        <time>2023-02-19T11:05:10Z</time>
      </trkpt>
      <trkpt lat="45.66898" lon="4.33897">
        <ele>556.5</ele>
        <time>2023-02-19T11:05:11Z</time>
      </trkpt>
      <trkpt lat="45.66899" lon="4.33898">
        <ele>556.6</ele>
        <time>2023-02-19T11:05:12Z</time>
      </trkpt>
      <trkpt lat="45.669" lon="4.339">
        <ele>556.6</ele>
        <time>2023-02-19T11:05:13Z</time>
      </trkpt>
      <trkpt lat="45.66901" lon="4.33901">
        <ele>556.7</ele>
        <time>2023-02-19T11:05:14Z</time>
      </trkpt>
      <trkpt lat="45.66902" lon="4.33903">
        <ele>556.8</ele>
        <time>2023-02-19T11:05:16Z</time>
      </trkpt>
      <trkpt lat="45.66903" lon="4.33904">
        <ele>556.8</ele>
        <time>2023-02-19T11:05:17Z</time>
      </trkpt>
      <trkpt lat="45.66903" lon="4.33905">
        <ele>556.8</ele>
        <time>2023-02-19T11:05:18Z</time>
      </trkpt>
      <trkpt lat="45.66904" lon="4.33907">
        <ele>556.9</ele>
        <time>2023-02-19T11:05:19Z</time>
      </trkpt>
      <trkpt lat="45.66904" lon="4.33908">
        <ele>556.9</ele>
        <time>2023-02-19T11:05:20Z</time>
      </trkpt>
      <trkpt lat="45.66905" lon="4.33909">
        <ele>557</ele>
        <time>2023-02-19T11:05:21Z</time>
      </trkpt>
      <trkpt lat="45.66906" lon="4.3391">
        <ele>557</ele>
        <time>2023-02-19T11:05:22Z</time>
      </trkpt>
      <trkpt lat="45.66907" lon="4.33912">
        <ele>557.1</ele>
        <time>2023-02-19T11:05:24Z</time>
      </trkpt>
      <trkpt lat="45.66908" lon="4.33913">
        <ele>557.1</ele>
        <time>2023-02-19T11:05:25Z</time>
      </trkpt>
      <trkpt lat="45.66908" lon="4.33914">
        <ele>557.1</ele>
        <time>2023-02-19T11:05:26Z</time>
      </trkpt>
      <trkpt lat="45.6691" lon="4.33916">
        <ele>557.2</ele>
        <time>2023-02-19T11:05:27Z</time>
      </trkpt>
      <trkpt lat="45.6691" lon="4.33917">
        <ele>557.2</ele>
        <time>2023-02-19T11:05:28Z</time>
      </trkpt>
      <trkpt lat="45.66911" lon="4.33918">
        <ele>557.3</ele>
        <time>2023-02-19T11:05:29Z</time>
      </trkpt>
      <trkpt lat="45.66912" lon="4.33921">
        <ele>557.3</ele>
        <time>2023-02-19T11:05:30Z</time>
      </trkpt>
      <trkpt lat="45.66912" lon="4.33922">
        <ele>557.4</ele>
        <time>2023-02-19T11:05:31Z</time>
      </trkpt>
      <trkpt lat="45.66912" lon="4.33923">
        <ele>557.4</ele>
        <time>2023-02-19T11:05:32Z</time>
      </trkpt>
      <trkpt lat="45.66913" lon="4.33926">
        <ele>557.5</ele>
        <time>2023-02-19T11:05:34Z</time>
      </trkpt>
      <trkpt lat="45.66913" lon="4.33927">
        <ele>557.5</ele>
        <time>2023-02-19T11:05:35Z</time>
      </trkpt>
      <trkpt lat="45.66914" lon="4.33929">
        <ele>557.6</ele>
        <time>2023-02-19T11:05:36Z</time>
      </trkpt>
      <trkpt lat="45.66914" lon="4.33931">
        <ele>557.6</ele>
        <time>2023-02-19T11:05:37Z</time>
      </trkpt>
      <trkpt lat="45.66914" lon="4.33933">
        <ele>557.7</ele>
        <time>2023-02-19T11:05:38Z</time>
      </trkpt>
      <trkpt lat="45.66915" lon="4.33935">
        <ele>557.7</ele>
        <time>2023-02-19T11:05:39Z</time>
      </trkpt>
      <trkpt lat="45.66915" lon="4.33937">
        <ele>557.8</ele>
        <time>2023-02-19T11:05:40Z</time>
      </trkpt>
      <trkpt lat="45.66915" lon="4.33939">
        <ele>557.9</ele>
        <time>2023-02-19T11:05:41Z</time>
      </trkpt>
      <trkpt lat="45.66915" lon="4.33942">
        <ele>558</ele>
        <time>2023-02-19T11:05:43Z</time>
      </trkpt>
      <trkpt lat="45.66914" lon="4.33944">
        <ele>558.1</ele>
        <time>2023-02-19T11:05:44Z</time>
      </trkpt>
      <trkpt lat="45.66914" lon="4.33947">
        <ele>558.2</ele>
        <time>2023-02-19T11:05:45Z</time>
      </trkpt>
      <trkpt lat="45.66914" lon="4.33949">
        <ele>558.3</ele>
        <time>2023-02-19T11:05:46Z</time>
      </trkpt>
      <trkpt lat="45.66914" lon="4.33951">
        <ele>558.4</ele>
        <time>2023-02-19T11:05:47Z</time>
      </trkpt>
      <trkpt lat="45.66914" lon="4.33954">
        <ele>558.5</ele>
        <time>2023-02-19T11:05:48Z</time>
      </trkpt>
      <trkpt lat="45.66914" lon="4.33955">
        <ele>558.5</ele>
        <time>2023-02-19T11:05:49Z</time>
      </trkpt>
      <trkpt lat="45.66914" lon="4.33957">
        <ele>558.6</ele>
        <time>2023-02-19T11:05:50Z</time>
      </trkpt>
      <trkpt lat="45.66914" lon="4.3396">
        <ele>558.7</ele>
        <time>2023-02-19T11:05:51Z</time>
      </trkpt>
      <trkpt lat="45.66914" lon="4.33962">
        <ele>558.8</ele>
        <time>2023-02-19T11:05:52Z</time>
      </trkpt>
      <trkpt lat="45.66914" lon="4.33963">
        <ele>558.8</ele>
        <time>2023-02-19T11:05:53Z</time>
      </trkpt>
      <trkpt lat="45.66913" lon="4.33968">
        <ele>559</ele>
        <time>2023-02-19T11:05:55Z</time>
      </trkpt>
      <trkpt lat="45.66913" lon="4.33969">
        <ele>559.1</ele>
        <time>2023-02-19T11:05:56Z</time>
      </trkpt>
      <trkpt lat="45.66913" lon="4.33971">
        <ele>559.1</ele>
        <time>2023-02-19T11:05:57Z</time>
      </trkpt>
      <trkpt lat="45.66912" lon="4.33973">
        <ele>559.2</ele>
        <time>2023-02-19T11:05:58Z</time>
      </trkpt>
      <trkpt lat="45.66912" lon="4.33975">
        <ele>559.3</ele>
        <time>2023-02-19T11:05:59Z</time>
      </trkpt>
      <trkpt lat="45.66911" lon="4.33976">
        <ele>559.4</ele>
        <time>2023-02-19T11:06:01Z</time>
      </trkpt>
      <trkpt lat="45.66911" lon="4.33978">
        <ele>559.4</ele>
        <time>2023-02-19T11:06:02Z</time>
      </trkpt>
      <trkpt lat="45.66911" lon="4.3398">
        <ele>559.5</ele>
        <time>2023-02-19T11:06:03Z</time>
      </trkpt>
      <trkpt lat="45.66911" lon="4.33981">
        <ele>559.6</ele>
        <time>2023-02-19T11:06:04Z</time>
      </trkpt>
      <trkpt lat="45.66911" lon="4.33984">
        <ele>559.7</ele>
        <time>2023-02-19T11:06:05Z</time>
      </trkpt>
      <trkpt lat="45.66911" lon="4.33986">
        <ele>559.7</ele>
        <time>2023-02-19T11:06:06Z</time>
      </trkpt>
      <trkpt lat="45.6691" lon="4.33987">
        <ele>559.8</ele>
        <time>2023-02-19T11:06:07Z</time>
      </trkpt>
      <trkpt lat="45.6691" lon="4.33989">
        <ele>559.9</ele>
        <time>2023-02-19T11:06:08Z</time>
      </trkpt>
      <trkpt lat="45.6691" lon="4.33992">
        <ele>560</ele>
        <time>2023-02-19T11:06:09Z</time>
      </trkpt>
      <trkpt lat="45.6691" lon="4.33994">
        <ele>560.1</ele>
        <time>2023-02-19T11:06:10Z</time>
      </trkpt>
      <trkpt lat="45.6691" lon="4.33998">
        <ele>560.2</ele>
        <time>2023-02-19T11:06:12Z</time>
      </trkpt>
      <trkpt lat="45.6691" lon="4.34">
        <ele>560.3</ele>
        <time>2023-02-19T11:06:13Z</time>
      </trkpt>
      <trkpt lat="45.66909" lon="4.34003">
        <ele>560.4</ele>
        <time>2023-02-19T11:06:14Z</time>
      </trkpt>
      <trkpt lat="45.66908" lon="4.34006">
        <ele>560.6</ele>
        <time>2023-02-19T11:06:16Z</time>
      </trkpt>
      <trkpt lat="45.66907" lon="4.34008">
        <ele>560.7</ele>
        <time>2023-02-19T11:06:17Z</time>
      </trkpt>
      <trkpt lat="45.66907" lon="4.34011">
        <ele>560.8</ele>
        <time>2023-02-19T11:06:18Z</time>
      </trkpt>
      <trkpt lat="45.66907" lon="4.34014">
        <ele>561</ele>
        <time>2023-02-19T11:06:20Z</time>
      </trkpt>
      <trkpt lat="45.66906" lon="4.34016">
        <ele>561.1</ele>
        <time>2023-02-19T11:06:21Z</time>
      </trkpt>
      <trkpt lat="45.66906" lon="4.34019">
        <ele>561.2</ele>
        <time>2023-02-19T11:06:22Z</time>
      </trkpt>
      <trkpt lat="45.66906" lon="4.3402">
        <ele>561.3</ele>
        <time>2023-02-19T11:06:23Z</time>
      </trkpt>
      <trkpt lat="45.66906" lon="4.34022">
        <ele>561.4</ele>
        <time>2023-02-19T11:06:24Z</time>
      </trkpt>
      <trkpt lat="45.66906" lon="4.34024">
        <ele>561.5</ele>
        <time>2023-02-19T11:06:25Z</time>
      </trkpt>
      <trkpt lat="45.66906" lon="4.34026">
        <ele>561.6</ele>
        <time>2023-02-19T11:06:26Z</time>
      </trkpt>
      <trkpt lat="45.66906" lon="4.34028">
        <ele>561.8</ele>
        <time>2023-02-19T11:06:28Z</time>
      </trkpt>
      <trkpt lat="45.66907" lon="4.34031">
        <ele>562</ele>
        <time>2023-02-19T11:06:29Z</time>
      </trkpt>
      <trkpt lat="45.66907" lon="4.34032">
        <ele>562.1</ele>
        <time>2023-02-19T11:06:30Z</time>
      </trkpt>
      <trkpt lat="45.66906" lon="4.34033">
        <ele>562.2</ele>
        <time>2023-02-19T11:06:31Z</time>
      </trkpt>
      <trkpt lat="45.66905" lon="4.34037">
        <ele>562.5</ele>
        <time>2023-02-19T11:06:32Z</time>
      </trkpt>
      <trkpt lat="45.66905" lon="4.34038">
        <ele>562.6</ele>
        <time>2023-02-19T11:06:33Z</time>
      </trkpt>
      <trkpt lat="45.66904" lon="4.34042">
        <ele>562.9</ele>
        <time>2023-02-19T11:06:35Z</time>
      </trkpt>
      <trkpt lat="45.66904" lon="4.34043">
        <ele>562.9</ele>
        <time>2023-02-19T11:06:36Z</time>
      </trkpt>
      <trkpt lat="45.66903" lon="4.34045">
        <ele>563.1</ele>
        <time>2023-02-19T11:06:37Z</time>
      </trkpt>
      <trkpt lat="45.66902" lon="4.34047">
        <ele>563.3</ele>
        <time>2023-02-19T11:06:38Z</time>
      </trkpt>
      <trkpt lat="45.66901" lon="4.34049">
        <ele>563.5</ele>
        <time>2023-02-19T11:06:39Z</time>
      </trkpt>
      <trkpt lat="45.669" lon="4.34051">
        <ele>563.7</ele>
        <time>2023-02-19T11:06:41Z</time>
      </trkpt>
      <trkpt lat="45.66898" lon="4.34052">
        <ele>563.9</ele>
        <time>2023-02-19T11:06:42Z</time>
      </trkpt>
      <trkpt lat="45.66897" lon="4.34053">
        <ele>564</ele>
        <time>2023-02-19T11:06:43Z</time>
      </trkpt>
      <trkpt lat="45.66896" lon="4.34055">
        <ele>564.3</ele>
        <time>2023-02-19T11:06:45Z</time>
      </trkpt>
      <trkpt lat="45.66895" lon="4.34056">
        <ele>564.4</ele>
        <time>2023-02-19T11:06:46Z</time>
      </trkpt>
      <trkpt lat="45.66895" lon="4.34056">
        <ele>564.4</ele>
        <time>2023-02-19T11:06:47Z</time>
      </trkpt>
      <trkpt lat="45.66894" lon="4.34056">
        <ele>564.5</ele>
        <time>2023-02-19T11:06:49Z</time>
      </trkpt>
      <trkpt lat="45.66894" lon="4.34056">
        <ele>564.5</ele>
        <time>2023-02-19T11:06:50Z</time>
      </trkpt>
      <trkpt lat="45.66894" lon="4.34056">
        <ele>564.5</ele>
        <time>2023-02-19T11:06:51Z</time>
      </trkpt>
      <trkpt lat="45.66894" lon="4.34056">
        <ele>564.5</ele>
        <time>2023-02-19T11:06:52Z</time>
      </trkpt>
      <trkpt lat="45.66894" lon="4.34056">
        <ele>564.5</ele>
        <time>2023-02-19T11:06:54Z</time>
      </trkpt>
      <trkpt lat="45.66894" lon="4.34056">
        <ele>564.5</ele>
        <time>2023-02-19T11:06:55Z</time>
      </trkpt>
      <trkpt lat="45.66894" lon="4.34056">
        <ele>564.5</ele>
        <time>2023-02-19T11:06:56Z</time>
      </trkpt>
      <trkpt lat="45.66894" lon="4.34057">
        <ele>564.5</ele>
        <time>2023-02-19T11:06:57Z</time>
      </trkpt>
      <trkpt lat="45.66895" lon="4.34057">
        <ele>564.6</ele>
        <time>2023-02-19T11:06:59Z</time>
      </trkpt>
      <trkpt lat="45.66895" lon="4.34057">
        <ele>564.6</ele>
        <time>2023-02-19T11:07:00Z</time>
      </trkpt>
      <trkpt lat="45.66895" lon="4.34057">
        <ele>564.6</ele>
        <time>2023-02-19T11:07:02Z</time>
      </trkpt>
      <trkpt lat="45.66895" lon="4.34057">
        <ele>564.6</ele>
        <time>2023-02-19T11:07:03Z</time>
      </trkpt>
      <trkpt lat="45.66895" lon="4.34057">
        <ele>564.6</ele>
        <time>2023-02-19T11:07:04Z</time>
      </trkpt>
      <trkpt lat="45.66895" lon="4.34057">
        <ele>564.7</ele>
        <time>2023-02-19T11:07:05Z</time>
      </trkpt>
      <trkpt lat="45.66895" lon="4.34057">
        <ele>564.7</ele>
        <time>2023-02-19T11:07:06Z</time>
      </trkpt>
      <trkpt lat="45.66895" lon="4.34057">
        <ele>564.7</ele>
        <time>2023-02-19T11:07:07Z</time>
      </trkpt>
      <trkpt lat="45.66895" lon="4.34057">
        <ele>564.7</ele>
        <time>2023-02-19T11:07:08Z</time>
      </trkpt>
      <trkpt lat="45.66895" lon="4.34058">
        <ele>564.7</ele>
        <time>2023-02-19T11:07:09Z</time>
      </trkpt>
      <trkpt lat="45.66895" lon="4.34058">
        <ele>564.7</ele>
        <time>2023-02-19T11:07:10Z</time>
      </trkpt>
      <trkpt lat="45.66895" lon="4.34058">
        <ele>564.7</ele>
        <time>2023-02-19T11:07:11Z</time>
      </trkpt>
      <trkpt lat="45.66895" lon="4.34058">
        <ele>564.7</ele>
        <time>2023-02-19T11:07:12Z</time>
      </trkpt>
      <trkpt lat="45.66895" lon="4.34058">
        <ele>564.7</ele>
        <time>2023-02-19T11:07:13Z</time>
      </trkpt>
      <trkpt lat="45.66895" lon="4.34058">
        <ele>564.7</ele>
        <time>2023-02-19T11:07:14Z</time>
      </trkpt>
      <trkpt lat="45.66895" lon="4.34058">
        <ele>564.7</ele>
        <time>2023-02-19T11:07:15Z</time>
      </trkpt>
      <trkpt lat="45.66895" lon="4.34058">
        <ele>564.8</ele>
        <time>2023-02-19T11:07:16Z</time>
      </trkpt>
      <trkpt lat="45.66895" lon="4.34058">
        <ele>564.8</ele>
        <time>2023-02-19T11:07:17Z</time>
      </trkpt>
      <trkpt lat="45.66895" lon="4.34058">
        <ele>564.8</ele>
        <time>2023-02-19T11:07:18Z</time>
      </trkpt>
      <trkpt lat="45.66895" lon="4.34058">
        <ele>564.8</ele>
        <time>2023-02-19T11:07:19Z</time>
      </trkpt>
      <trkpt lat="45.66895" lon="4.34059">
        <ele>564.8</ele>
        <time>2023-02-19T11:07:20Z</time>
      </trkpt>
      <trkpt lat="45.66895" lon="4.34059">
        <ele>564.8</ele>
        <time>2023-02-19T11:07:21Z</time>
      </trkpt>
      <trkpt lat="45.66895" lon="4.34059">
        <ele>564.8</ele>
        <time>2023-02-19T11:07:23Z</time>
      </trkpt>
      <trkpt lat="45.66895" lon="4.34059">
        <ele>564.8</ele>
        <time>2023-02-19T11:07:24Z</time>
      </trkpt>
      <trkpt lat="45.66895" lon="4.34059">
        <ele>565.6</ele>
        <time>2023-02-19T11:07:25Z</time>
      </trkpt>
      <trkpt lat="45.66895" lon="4.34059">
        <ele>565.6</ele>
        <time>2023-02-19T11:07:26Z</time>
      </trkpt>
      <trkpt lat="45.66895" lon="4.34059">
        <ele>565.6</ele>
        <time>2023-02-19T11:07:27Z</time>
      </trkpt>
      <trkpt lat="45.66895" lon="4.34059">
        <ele>565.6</ele>
        <time>2023-02-19T11:07:28Z</time>
      </trkpt>
      <trkpt lat="45.66895" lon="4.34059">
        <ele>565.6</ele>
        <time>2023-02-19T11:07:29Z</time>
      </trkpt>
      <trkpt lat="45.66895" lon="4.34059">
        <ele>565.6</ele>
        <time>2023-02-19T11:07:30Z</time>
      </trkpt>
      <trkpt lat="45.66895" lon="4.34059">
        <ele>565.6</ele>
        <time>2023-02-19T11:07:31Z</time>
      </trkpt>
      <trkpt lat="45.66895" lon="4.3406">
        <ele>565.6</ele>
        <time>2023-02-19T11:07:32Z</time>
      </trkpt>
      <trkpt lat="45.66895" lon="4.3406">
        <ele>565.6</ele>
        <time>2023-02-19T11:07:33Z</time>
      </trkpt>
      <trkpt lat="45.66895" lon="4.3406">
        <ele>565.6</ele>
        <time>2023-02-19T11:07:34Z</time>
      </trkpt>
      <trkpt lat="45.66895" lon="4.3406">
        <ele>565.6</ele>
        <time>2023-02-19T11:07:35Z</time>
      </trkpt>
      <trkpt lat="45.66895" lon="4.3406">
        <ele>565.6</ele>
        <time>2023-02-19T11:07:36Z</time>
      </trkpt>
      <trkpt lat="45.66895" lon="4.3406">
        <ele>565.6</ele>
        <time>2023-02-19T11:07:37Z</time>
      </trkpt>
      <trkpt lat="45.66895" lon="4.3406">
        <ele>565.6</ele>
        <time>2023-02-19T11:07:38Z</time>
      </trkpt>
      <trkpt lat="45.66895" lon="4.3406">
        <ele>565.6</ele>
        <time>2023-02-19T11:07:39Z</time>
      </trkpt>
      <trkpt lat="45.66895" lon="4.3406">
        <ele>565.6</ele>
        <time>2023-02-19T11:07:40Z</time>
      </trkpt>
      <trkpt lat="45.66895" lon="4.3406">
        <ele>565.6</ele>
        <time>2023-02-19T11:07:41Z</time>
      </trkpt>
      <trkpt lat="45.66895" lon="4.34061">
        <ele>565.6</ele>
        <time>2023-02-19T11:07:43Z</time>
      </trkpt>
      <trkpt lat="45.66895" lon="4.34061">
        <ele>565.6</ele>
        <time>2023-02-19T11:07:44Z</time>
      </trkpt>
      <trkpt lat="45.66895" lon="4.34061">
        <ele>565.6</ele>
        <time>2023-02-19T11:07:45Z</time>
      </trkpt>
      <trkpt lat="45.66895" lon="4.34061">
        <ele>565.6</ele>
        <time>2023-02-19T11:07:46Z</time>
      </trkpt>
      <trkpt lat="45.66895" lon="4.34061">
        <ele>565.6</ele>
        <time>2023-02-19T11:07:47Z</time>
      </trkpt>
      <trkpt lat="45.66895" lon="4.34061">
        <ele>565.6</ele>
        <time>2023-02-19T11:07:48Z</time>
      </trkpt>
      <trkpt lat="45.66895" lon="4.34061">
        <ele>565.6</ele>
        <time>2023-02-19T11:07:49Z</time>
      </trkpt>
      <trkpt lat="45.66895" lon="4.34061">
        <ele>565.6</ele>
        <time>2023-02-19T11:07:50Z</time>
      </trkpt>
      <trkpt lat="45.66895" lon="4.34061">
        <ele>565.6</ele>
        <time>2023-02-19T11:07:51Z</time>
      </trkpt>
      <trkpt lat="45.66895" lon="4.34061">
        <ele>565.6</ele>
        <time>2023-02-19T11:07:52Z</time>
      </trkpt>
      <trkpt lat="45.66895" lon="4.34061">
        <ele>565.6</ele>
        <time>2023-02-19T11:07:53Z</time>
      </trkpt>
      <trkpt lat="45.66895" lon="4.34062">
        <ele>565.6</ele>
        <time>2023-02-19T11:07:54Z</time>
      </trkpt>
      <trkpt lat="45.66895" lon="4.34062">
        <ele>565.6</ele>
        <time>2023-02-19T11:07:55Z</time>
      </trkpt>
      <trkpt lat="45.66895" lon="4.34062">
        <ele>565.6</ele>
        <time>2023-02-19T11:07:56Z</time>
      </trkpt>
      <trkpt lat="45.66895" lon="4.34062">
        <ele>565.6</ele>
        <time>2023-02-19T11:07:57Z</time>
      </trkpt>
      <trkpt lat="45.66895" lon="4.34062">
        <ele>565.6</ele>
        <time>2023-02-19T11:07:58Z</time>
      </trkpt>
      <trkpt lat="45.66895" lon="4.34062">
        <ele>565.6</ele>
        <time>2023-02-19T11:07:59Z</time>
      </trkpt>
      <trkpt lat="45.66896" lon="4.34062">
        <ele>565.6</ele>
        <time>2023-02-19T11:08:01Z</time>
      </trkpt>
      <trkpt lat="45.66896" lon="4.34062">
        <ele>565.6</ele>
        <time>2023-02-19T11:08:02Z</time>
      </trkpt>
      <trkpt lat="45.66896" lon="4.34062">
        <ele>565.6</ele>
        <time>2023-02-19T11:08:03Z</time>
      </trkpt>
      <trkpt lat="45.66896" lon="4.34062">
        <ele>565.6</ele>
        <time>2023-02-19T11:08:04Z</time>
      </trkpt>
      <trkpt lat="45.66896" lon="4.34062">
        <ele>565.7</ele>
        <time>2023-02-19T11:08:05Z</time>
      </trkpt>
      <trkpt lat="45.66896" lon="4.34063">
        <ele>565.7</ele>
        <time>2023-02-19T11:08:06Z</time>
      </trkpt>
      <trkpt lat="45.66896" lon="4.34063">
        <ele>565.7</ele>
        <time>2023-02-19T11:08:07Z</time>
      </trkpt>
      <trkpt lat="45.66896" lon="4.34065">
        <ele>565.7</ele>
        <time>2023-02-19T11:08:08Z</time>
      </trkpt>
      <trkpt lat="45.66897" lon="4.34066">
        <ele>565.8</ele>
        <time>2023-02-19T11:08:09Z</time>
      </trkpt>
      <trkpt lat="45.66897" lon="4.34068">
        <ele>565.8</ele>
        <time>2023-02-19T11:08:10Z</time>
      </trkpt>
      <trkpt lat="45.66898" lon="4.34069">
        <ele>565.8</ele>
        <time>2023-02-19T11:08:11Z</time>
      </trkpt>
      <trkpt lat="45.66898" lon="4.3407">
        <ele>565.8</ele>
        <time>2023-02-19T11:08:12Z</time>
      </trkpt>
      <trkpt lat="45.66898" lon="4.34071">
        <ele>565.9</ele>
        <time>2023-02-19T11:08:13Z</time>
      </trkpt>
      <trkpt lat="45.66899" lon="4.34072">
        <ele>565.9</ele>
        <time>2023-02-19T11:08:14Z</time>
      </trkpt>
      <trkpt lat="45.66899" lon="4.34073">
        <ele>565.9</ele>
        <time>2023-02-19T11:08:15Z</time>
      </trkpt>
      <trkpt lat="45.66899" lon="4.34074">
        <ele>566</ele>
        <time>2023-02-19T11:08:16Z</time>
      </trkpt>
      <trkpt lat="45.66899" lon="4.34075">
        <ele>566</ele>
        <time>2023-02-19T11:08:17Z</time>
      </trkpt>
      <trkpt lat="45.66899" lon="4.34075">
        <ele>566</ele>
        <time>2023-02-19T11:08:18Z</time>
      </trkpt>
      <trkpt lat="45.66899" lon="4.34075">
        <ele>566</ele>
        <time>2023-02-19T11:08:19Z</time>
      </trkpt>
      <trkpt lat="45.66899" lon="4.34075">
        <ele>566</ele>
        <time>2023-02-19T11:08:20Z</time>
      </trkpt>
      <trkpt lat="45.66899" lon="4.34075">
        <ele>566</ele>
        <time>2023-02-19T11:08:21Z</time>
      </trkpt>
      <trkpt lat="45.669" lon="4.34075">
        <ele>566</ele>
        <time>2023-02-19T11:08:22Z</time>
      </trkpt>
      <trkpt lat="45.669" lon="4.34075">
        <ele>566</ele>
        <time>2023-02-19T11:08:23Z</time>
      </trkpt>
      <trkpt lat="45.669" lon="4.34075">
        <ele>566</ele>
        <time>2023-02-19T11:08:24Z</time>
      </trkpt>
      <trkpt lat="45.669" lon="4.34075">
        <ele>566</ele>
        <time>2023-02-19T11:08:25Z</time>
      </trkpt>
      <trkpt lat="45.669" lon="4.34075">
        <ele>566</ele>
        <time>2023-02-19T11:08:26Z</time>
      </trkpt>
      <trkpt lat="45.669" lon="4.34075">
        <ele>566</ele>
        <time>2023-02-19T11:08:28Z</time>
      </trkpt>
      <trkpt lat="45.669" lon="4.34075">
        <ele>566</ele>
        <time>2023-02-19T11:08:29Z</time>
      </trkpt>
      <trkpt lat="45.669" lon="4.34075">
        <ele>566</ele>
        <time>2023-02-19T11:08:30Z</time>
      </trkpt>
      <trkpt lat="45.66901" lon="4.34075">
        <ele>566.1</ele>
        <time>2023-02-19T11:08:31Z</time>
      </trkpt>
      <trkpt lat="45.66901" lon="4.34075">
        <ele>566.1</ele>
        <time>2023-02-19T11:08:32Z</time>
      </trkpt>
      <trkpt lat="45.669" lon="4.34075">
        <ele>566.1</ele>
        <time>2023-02-19T11:08:33Z</time>
      </trkpt>
      <trkpt lat="45.669" lon="4.34075">
        <ele>566.1</ele>
        <time>2023-02-19T11:08:34Z</time>
      </trkpt>
      <trkpt lat="45.669" lon="4.34075">
        <ele>566.1</ele>
        <time>2023-02-19T11:08:35Z</time>
      </trkpt>
      <trkpt lat="45.669" lon="4.34075">
        <ele>566.1</ele>
        <time>2023-02-19T11:08:36Z</time>
      </trkpt>
      <trkpt lat="45.669" lon="4.34075">
        <ele>566.1</ele>
        <time>2023-02-19T11:08:37Z</time>
      </trkpt>
      <trkpt lat="45.669" lon="4.34075">
        <ele>566.1</ele>
        <time>2023-02-19T11:08:38Z</time>
      </trkpt>
      <trkpt lat="45.669" lon="4.34075">
        <ele>566.1</ele>
        <time>2023-02-19T11:08:39Z</time>
      </trkpt>
      <trkpt lat="45.669" lon="4.34075">
        <ele>566.1</ele>
        <time>2023-02-19T11:08:40Z</time>
      </trkpt>
      <trkpt lat="45.669" lon="4.34075">
        <ele>566.1</ele>
        <time>2023-02-19T11:08:41Z</time>
      </trkpt>
      <trkpt lat="45.669" lon="4.34075">
        <ele>566.1</ele>
        <time>2023-02-19T11:08:42Z</time>
      </trkpt>
      <trkpt lat="45.669" lon="4.34075">
        <ele>566.1</ele>
        <time>2023-02-19T11:08:43Z</time>
      </trkpt>
      <trkpt lat="45.669" lon="4.34075">
        <ele>566.1</ele>
        <time>2023-02-19T11:08:44Z</time>
      </trkpt>
      <trkpt lat="45.669" lon="4.34075">
        <ele>566.1</ele>
        <time>2023-02-19T11:08:45Z</time>
      </trkpt>
      <trkpt lat="45.669" lon="4.34075">
        <ele>566.1</ele>
        <time>2023-02-19T11:08:46Z</time>
      </trkpt>
      <trkpt lat="45.669" lon="4.34075">
        <ele>566.1</ele>
        <time>2023-02-19T11:08:47Z</time>
      </trkpt>
      <trkpt lat="45.669" lon="4.34075">
        <ele>566.1</ele>
        <time>2023-02-19T11:08:48Z</time>
      </trkpt>
      <trkpt lat="45.669" lon="4.34075">
        <ele>566.1</ele>
        <time>2023-02-19T11:08:49Z</time>
      </trkpt>
      <trkpt lat="45.669" lon="4.34075">
        <ele>566.1</ele>
        <time>2023-02-19T11:08:50Z</time>
      </trkpt>
      <trkpt lat="45.669" lon="4.34075">
        <ele>566.1</ele>
        <time>2023-02-19T11:08:51Z</time>
      </trkpt>
      <trkpt lat="45.669" lon="4.34075">
        <ele>566.1</ele>
        <time>2023-02-19T11:08:52Z</time>
      </trkpt>
      <trkpt lat="45.669" lon="4.34075">
        <ele>566.1</ele>
        <time>2023-02-19T11:08:53Z</time>
      </trkpt>
      <trkpt lat="45.669" lon="4.34075">
        <ele>566.1</ele>
        <time>2023-02-19T11:08:54Z</time>
      </trkpt>
      <trkpt lat="45.669" lon="4.34075">
        <ele>566.1</ele>
        <time>2023-02-19T11:08:55Z</time>
      </trkpt>
      <trkpt lat="45.669" lon="4.34075">
        <ele>566.1</ele>
        <time>2023-02-19T11:08:56Z</time>
      </trkpt>
      <trkpt lat="45.669" lon="4.34075">
        <ele>566.1</ele>
        <time>2023-02-19T11:08:57Z</time>
      </trkpt>
      <trkpt lat="45.669" lon="4.34074">
        <ele>566.1</ele>
        <time>2023-02-19T11:08:58Z</time>
      </trkpt>
      <trkpt lat="45.669" lon="4.34074">
        <ele>566.1</ele>
        <time>2023-02-19T11:08:59Z</time>
      </trkpt>
      <trkpt lat="45.669" lon="4.34072">
        <ele>566.2</ele>
        <time>2023-02-19T11:09:00Z</time>
      </trkpt>
      <trkpt lat="45.669" lon="4.34072">
        <ele>566.2</ele>
        <time>2023-02-19T11:09:01Z</time>
      </trkpt>
      <trkpt lat="45.669" lon="4.34072">
        <ele>566.2</ele>
        <time>2023-02-19T11:09:02Z</time>
      </trkpt>
      <trkpt lat="45.669" lon="4.34071">
        <ele>566.2</ele>
        <time>2023-02-19T11:09:03Z</time>
      </trkpt>
      <trkpt lat="45.669" lon="4.34071">
        <ele>566.2</ele>
        <time>2023-02-19T11:09:04Z</time>
      </trkpt>
      <trkpt lat="45.669" lon="4.34071">
        <ele>566.2</ele>
        <time>2023-02-19T11:09:05Z</time>
      </trkpt>
      <trkpt lat="45.669" lon="4.34071">
        <ele>566.2</ele>
        <time>2023-02-19T11:09:06Z</time>
      </trkpt>
      <trkpt lat="45.669" lon="4.34069">
        <ele>566.3</ele>
        <time>2023-02-19T11:09:07Z</time>
      </trkpt>
      <trkpt lat="45.66899" lon="4.34068">
        <ele>566.3</ele>
        <time>2023-02-19T11:09:08Z</time>
      </trkpt>
      <trkpt lat="45.66899" lon="4.34067">
        <ele>566.4</ele>
        <time>2023-02-19T11:09:09Z</time>
      </trkpt>
      <trkpt lat="45.66899" lon="4.34066">
        <ele>566.4</ele>
        <time>2023-02-19T11:09:10Z</time>
      </trkpt>
      <trkpt lat="45.66899" lon="4.34064">
        <ele>566.4</ele>
        <time>2023-02-19T11:09:11Z</time>
      </trkpt>
      <trkpt lat="45.66898" lon="4.34064">
        <ele>566.5</ele>
        <time>2023-02-19T11:09:12Z</time>
      </trkpt>
      <trkpt lat="45.66898" lon="4.34064">
        <ele>566.5</ele>
        <time>2023-02-19T11:09:13Z</time>
      </trkpt>
      <trkpt lat="45.66898" lon="4.34064">
        <ele>566.5</ele>
        <time>2023-02-19T11:09:14Z</time>
      </trkpt>
      <trkpt lat="45.66898" lon="4.34064">
        <ele>566.5</ele>
        <time>2023-02-19T11:09:15Z</time>
      </trkpt>
      <trkpt lat="45.66898" lon="4.34065">
        <ele>566.5</ele>
        <time>2023-02-19T11:09:16Z</time>
      </trkpt>
      <trkpt lat="45.66897" lon="4.34065">
        <ele>566.5</ele>
        <time>2023-02-19T11:09:17Z</time>
      </trkpt>
      <trkpt lat="45.66897" lon="4.34065">
        <ele>566.5</ele>
        <time>2023-02-19T11:09:18Z</time>
      </trkpt>
      <trkpt lat="45.66897" lon="4.34065">
        <ele>566.5</ele>
        <time>2023-02-19T11:09:19Z</time>
      </trkpt>
      <trkpt lat="45.66898" lon="4.34065">
        <ele>566.6</ele>
        <time>2023-02-19T11:09:20Z</time>
      </trkpt>
      <trkpt lat="45.66898" lon="4.34065">
        <ele>566.6</ele>
        <time>2023-02-19T11:09:21Z</time>
      </trkpt>
      <trkpt lat="45.66898" lon="4.34065">
        <ele>566.6</ele>
        <time>2023-02-19T11:09:22Z</time>
      </trkpt>
      <trkpt lat="45.66898" lon="4.34065">
        <ele>566.6</ele>
        <time>2023-02-19T11:09:23Z</time>
      </trkpt>
      <trkpt lat="45.66898" lon="4.34064">
        <ele>566.6</ele>
        <time>2023-02-19T11:09:24Z</time>
      </trkpt>
      <trkpt lat="45.66898" lon="4.34063">
        <ele>566.6</ele>
        <time>2023-02-19T11:09:25Z</time>
      </trkpt>
      <trkpt lat="45.66898" lon="4.34062">
        <ele>566.7</ele>
        <time>2023-02-19T11:09:26Z</time>
      </trkpt>
      <trkpt lat="45.66898" lon="4.34062">
        <ele>566.7</ele>
        <time>2023-02-19T11:09:27Z</time>
      </trkpt>
      <trkpt lat="45.66898" lon="4.34062">
        <ele>566.7</ele>
        <time>2023-02-19T11:09:28Z</time>
      </trkpt>
      <trkpt lat="45.66898" lon="4.34062">
        <ele>566.7</ele>
        <time>2023-02-19T11:09:29Z</time>
      </trkpt>
      <trkpt lat="45.66898" lon="4.34062">
        <ele>566.7</ele>
        <time>2023-02-19T11:09:30Z</time>
      </trkpt>
      <trkpt lat="45.66897" lon="4.34062">
        <ele>566.7</ele>
        <time>2023-02-19T11:09:31Z</time>
      </trkpt>
      <trkpt lat="45.66897" lon="4.34062">
        <ele>566.7</ele>
        <time>2023-02-19T11:09:32Z</time>
      </trkpt>
      <trkpt lat="45.66897" lon="4.34063">
        <ele>566.8</ele>
        <time>2023-02-19T11:09:33Z</time>
      </trkpt>
      <trkpt lat="45.66896" lon="4.34064">
        <ele>566.8</ele>
        <time>2023-02-19T11:09:34Z</time>
      </trkpt>
      <trkpt lat="45.66896" lon="4.34064">
        <ele>566.8</ele>
        <time>2023-02-19T11:09:35Z</time>
      </trkpt>
      <trkpt lat="45.66895" lon="4.34064">
        <ele>566.8</ele>
        <time>2023-02-19T11:09:36Z</time>
      </trkpt>
      <trkpt lat="45.66895" lon="4.34064">
        <ele>566.8</ele>
        <time>2023-02-19T11:09:37Z</time>
      </trkpt>
      <trkpt lat="45.66895" lon="4.34064">
        <ele>566.8</ele>
        <time>2023-02-19T11:09:38Z</time>
      </trkpt>
      <trkpt lat="45.66895" lon="4.34065">
        <ele>566.9</ele>
        <time>2023-02-19T11:09:39Z</time>
      </trkpt>
      <trkpt lat="45.66895" lon="4.34065">
        <ele>566.9</ele>
        <time>2023-02-19T11:09:40Z</time>
      </trkpt>
      <trkpt lat="45.66896" lon="4.34065">
        <ele>566.9</ele>
        <time>2023-02-19T11:09:41Z</time>
      </trkpt>
      <trkpt lat="45.66896" lon="4.34065">
        <ele>566.9</ele>
        <time>2023-02-19T11:09:42Z</time>
      </trkpt>
      <trkpt lat="45.66896" lon="4.34065">
        <ele>566.9</ele>
        <time>2023-02-19T11:09:43Z</time>
      </trkpt>
      <trkpt lat="45.66896" lon="4.34065">
        <ele>566.9</ele>
        <time>2023-02-19T11:09:44Z</time>
      </trkpt>
      <trkpt lat="45.66896" lon="4.34065">
        <ele>566.9</ele>
        <time>2023-02-19T11:09:45Z</time>
      </trkpt>
      <trkpt lat="45.66896" lon="4.34065">
        <ele>566.9</ele>
        <time>2023-02-19T11:09:46Z</time>
      </trkpt>
      <trkpt lat="45.66896" lon="4.34065">
        <ele>566.9</ele>
        <time>2023-02-19T11:09:47Z</time>
      </trkpt>
      <trkpt lat="45.66896" lon="4.34066">
        <ele>566.9</ele>
        <time>2023-02-19T11:09:48Z</time>
      </trkpt>
      <trkpt lat="45.66896" lon="4.34066">
        <ele>566.9</ele>
        <time>2023-02-19T11:09:49Z</time>
      </trkpt>
      <trkpt lat="45.66896" lon="4.34066">
        <ele>566.9</ele>
        <time>2023-02-19T11:09:50Z</time>
      </trkpt>
      <trkpt lat="45.66896" lon="4.34066">
        <ele>566.9</ele>
        <time>2023-02-19T11:09:51Z</time>
      </trkpt>
      <trkpt lat="45.66896" lon="4.34066">
        <ele>566.9</ele>
        <time>2023-02-19T11:09:52Z</time>
      </trkpt>
      <trkpt lat="45.66896" lon="4.34066">
        <ele>566.9</ele>
        <time>2023-02-19T11:09:53Z</time>
      </trkpt>
      <trkpt lat="45.66896" lon="4.34066">
        <ele>566.9</ele>
        <time>2023-02-19T11:09:54Z</time>
      </trkpt>
      <trkpt lat="45.66896" lon="4.34066">
        <ele>566.9</ele>
        <time>2023-02-19T11:09:55Z</time>
      </trkpt>
      <trkpt lat="45.66896" lon="4.34066">
        <ele>566.9</ele>
        <time>2023-02-19T11:09:56Z</time>
      </trkpt>
      <trkpt lat="45.66896" lon="4.34066">
        <ele>566.9</ele>
        <time>2023-02-19T11:09:57Z</time>
      </trkpt>
      <trkpt lat="45.66896" lon="4.34067">
        <ele>566.9</ele>
        <time>2023-02-19T11:09:59Z</time>
      </trkpt>
      <trkpt lat="45.66896" lon="4.34067">
        <ele>566.9</ele>
        <time>2023-02-19T11:10:00Z</time>
      </trkpt>
      <trkpt lat="45.66896" lon="4.34067">
        <ele>566.9</ele>
        <time>2023-02-19T11:10:01Z</time>
      </trkpt>
      <trkpt lat="45.66896" lon="4.34067">
        <ele>566.9</ele>
        <time>2023-02-19T11:10:02Z</time>
      </trkpt>
      <trkpt lat="45.66896" lon="4.34067">
        <ele>566.9</ele>
        <time>2023-02-19T11:10:03Z</time>
      </trkpt>
      <trkpt lat="45.66896" lon="4.34067">
        <ele>567</ele>
        <time>2023-02-19T11:10:04Z</time>
      </trkpt>
      <trkpt lat="45.66896" lon="4.34067">
        <ele>567</ele>
        <time>2023-02-19T11:10:05Z</time>
      </trkpt>
      <trkpt lat="45.66896" lon="4.34067">
        <ele>567</ele>
        <time>2023-02-19T11:10:06Z</time>
      </trkpt>
      <trkpt lat="45.66896" lon="4.34067">
        <ele>567</ele>
        <time>2023-02-19T11:10:07Z</time>
      </trkpt>
      <trkpt lat="45.66896" lon="4.34068">
        <ele>567</ele>
        <time>2023-02-19T11:10:08Z</time>
      </trkpt>
      <trkpt lat="45.66897" lon="4.34068">
        <ele>567</ele>
        <time>2023-02-19T11:10:09Z</time>
      </trkpt>
      <trkpt lat="45.66897" lon="4.34068">
        <ele>567</ele>
        <time>2023-02-19T11:10:10Z</time>
      </trkpt>
      <trkpt lat="45.66897" lon="4.34068">
        <ele>567</ele>
        <time>2023-02-19T11:10:11Z</time>
      </trkpt>
      <trkpt lat="45.66897" lon="4.34068">
        <ele>567</ele>
        <time>2023-02-19T11:10:12Z</time>
      </trkpt>
      <trkpt lat="45.66897" lon="4.34068">
        <ele>567</ele>
        <time>2023-02-19T11:10:13Z</time>
      </trkpt>
      <trkpt lat="45.66897" lon="4.34068">
        <ele>567</ele>
        <time>2023-02-19T11:10:14Z</time>
      </trkpt>
      <trkpt lat="45.66897" lon="4.34068">
        <ele>567</ele>
        <time>2023-02-19T11:10:15Z</time>
      </trkpt>
      <trkpt lat="45.66897" lon="4.34068">
        <ele>567</ele>
        <time>2023-02-19T11:10:16Z</time>
      </trkpt>
      <trkpt lat="45.66897" lon="4.34068">
        <ele>567</ele>
        <time>2023-02-19T11:10:17Z</time>
      </trkpt>
      <trkpt lat="45.66897" lon="4.34069">
        <ele>567</ele>
        <time>2023-02-19T11:10:18Z</time>
      </trkpt>
      <trkpt lat="45.66897" lon="4.34069">
        <ele>567</ele>
        <time>2023-02-19T11:10:19Z</time>
      </trkpt>
      <trkpt lat="45.66897" lon="4.34069">
        <ele>567</ele>
        <time>2023-02-19T11:10:20Z</time>
      </trkpt>
      <trkpt lat="45.66897" lon="4.34069">
        <ele>567</ele>
        <time>2023-02-19T11:10:21Z</time>
      </trkpt>
      <trkpt lat="45.66896" lon="4.34072">
        <ele>567.1</ele>
        <time>2023-02-19T11:10:22Z</time>
      </trkpt>
      <trkpt lat="45.66896" lon="4.34073">
        <ele>567.2</ele>
        <time>2023-02-19T11:10:23Z</time>
      </trkpt>
      <trkpt lat="45.66896" lon="4.34074">
        <ele>567.2</ele>
        <time>2023-02-19T11:10:24Z</time>
      </trkpt>
      <trkpt lat="45.66895" lon="4.34075">
        <ele>567.2</ele>
        <time>2023-02-19T11:10:25Z</time>
      </trkpt>
      <trkpt lat="45.66895" lon="4.34075">
        <ele>567.2</ele>
        <time>2023-02-19T11:10:26Z</time>
      </trkpt>
      <trkpt lat="45.66896" lon="4.34075">
        <ele>567.2</ele>
        <time>2023-02-19T11:10:27Z</time>
      </trkpt>
      <trkpt lat="45.66896" lon="4.34075">
        <ele>567.2</ele>
        <time>2023-02-19T11:10:28Z</time>
      </trkpt>
      <trkpt lat="45.66896" lon="4.34075">
        <ele>567.3</ele>
        <time>2023-02-19T11:10:29Z</time>
      </trkpt>
      <trkpt lat="45.66896" lon="4.34075">
        <ele>567.3</ele>
        <time>2023-02-19T11:10:30Z</time>
      </trkpt>
      <trkpt lat="45.66896" lon="4.34075">
        <ele>567.3</ele>
        <time>2023-02-19T11:10:31Z</time>
      </trkpt>
      <trkpt lat="45.66896" lon="4.34075">
        <ele>567.3</ele>
        <time>2023-02-19T11:10:32Z</time>
      </trkpt>
      <trkpt lat="45.66896" lon="4.34075">
        <ele>567.3</ele>
        <time>2023-02-19T11:10:33Z</time>
      </trkpt>
      <trkpt lat="45.66896" lon="4.34075">
        <ele>567.3</ele>
        <time>2023-02-19T11:10:34Z</time>
      </trkpt>
      <trkpt lat="45.66896" lon="4.34075">
        <ele>567.3</ele>
        <time>2023-02-19T11:10:35Z</time>
      </trkpt>
      <trkpt lat="45.66896" lon="4.34075">
        <ele>567.3</ele>
        <time>2023-02-19T11:10:36Z</time>
      </trkpt>
      <trkpt lat="45.66896" lon="4.34075">
        <ele>567.3</ele>
        <time>2023-02-19T11:10:37Z</time>
      </trkpt>
      <trkpt lat="45.66896" lon="4.34075">
        <ele>567.3</ele>
        <time>2023-02-19T11:10:38Z</time>
      </trkpt>
      <trkpt lat="45.66896" lon="4.34074">
        <ele>567.3</ele>
        <time>2023-02-19T11:10:39Z</time>
      </trkpt>
      <trkpt lat="45.66896" lon="4.34074">
        <ele>567.3</ele>
        <time>2023-02-19T11:10:40Z</time>
      </trkpt>
      <trkpt lat="45.66896" lon="4.34074">
        <ele>567.3</ele>
        <time>2023-02-19T11:10:41Z</time>
      </trkpt>
      <trkpt lat="45.66896" lon="4.34074">
        <ele>567.3</ele>
        <time>2023-02-19T11:10:42Z</time>
      </trkpt>
      <trkpt lat="45.66896" lon="4.34074">
        <ele>567.3</ele>
        <time>2023-02-19T11:10:43Z</time>
      </trkpt>
      <trkpt lat="45.66896" lon="4.34074">
        <ele>567.3</ele>
        <time>2023-02-19T11:10:44Z</time>
      </trkpt>
      <trkpt lat="45.66896" lon="4.34074">
        <ele>567.3</ele>
        <time>2023-02-19T11:10:45Z</time>
      </trkpt>
      <trkpt lat="45.66896" lon="4.34074">
        <ele>567.3</ele>
        <time>2023-02-19T11:10:46Z</time>
      </trkpt>
      <trkpt lat="45.66896" lon="4.34074">
        <ele>567.3</ele>
        <time>2023-02-19T11:10:47Z</time>
      </trkpt>
      <trkpt lat="45.66896" lon="4.34073">
        <ele>567.4</ele>
        <time>2023-02-19T11:10:48Z</time>
      </trkpt>
      <trkpt lat="45.66895" lon="4.34071">
        <ele>567.4</ele>
        <time>2023-02-19T11:10:49Z</time>
      </trkpt>
      <trkpt lat="45.66895" lon="4.34069">
        <ele>567.4</ele>
        <time>2023-02-19T11:10:50Z</time>
      </trkpt>
      <trkpt lat="45.66895" lon="4.34069">
        <ele>567.5</ele>
        <time>2023-02-19T11:10:51Z</time>
      </trkpt>
      <trkpt lat="45.66896" lon="4.34068">
        <ele>567.5</ele>
        <time>2023-02-19T11:10:52Z</time>
      </trkpt>
      <trkpt lat="45.66896" lon="4.34068">
        <ele>567.5</ele>
        <time>2023-02-19T11:10:53Z</time>
      </trkpt>
      <trkpt lat="45.66896" lon="4.34067">
        <ele>567.5</ele>
        <time>2023-02-19T11:10:54Z</time>
      </trkpt>
      <trkpt lat="45.66896" lon="4.34067">
        <ele>567.5</ele>
        <time>2023-02-19T11:10:55Z</time>
      </trkpt>
      <trkpt lat="45.66896" lon="4.34067">
        <ele>567.5</ele>
        <time>2023-02-19T11:10:56Z</time>
      </trkpt>
      <trkpt lat="45.66896" lon="4.34067">
        <ele>567.5</ele>
        <time>2023-02-19T11:10:57Z</time>
      </trkpt>
      <trkpt lat="45.66896" lon="4.34067">
        <ele>567.5</ele>
        <time>2023-02-19T11:10:58Z</time>
      </trkpt>
      <trkpt lat="45.66896" lon="4.34067">
        <ele>567.5</ele>
        <time>2023-02-19T11:10:59Z</time>
      </trkpt>
      <trkpt lat="45.66896" lon="4.34067">
        <ele>567.5</ele>
        <time>2023-02-19T11:11:00Z</time>
      </trkpt>
      <trkpt lat="45.66896" lon="4.34067">
        <ele>567.5</ele>
        <time>2023-02-19T11:11:01Z</time>
      </trkpt>
      <trkpt lat="45.66896" lon="4.34067">
        <ele>567.5</ele>
        <time>2023-02-19T11:11:02Z</time>
      </trkpt>
      <trkpt lat="45.66896" lon="4.34067">
        <ele>567.5</ele>
        <time>2023-02-19T11:11:03Z</time>
      </trkpt>
      <trkpt lat="45.66896" lon="4.34067">
        <ele>567.5</ele>
        <time>2023-02-19T11:11:04Z</time>
      </trkpt>
      <trkpt lat="45.66896" lon="4.34066">
        <ele>567.5</ele>
        <time>2023-02-19T11:11:05Z</time>
      </trkpt>
      <trkpt lat="45.66896" lon="4.34066">
        <ele>567.5</ele>
        <time>2023-02-19T11:11:06Z</time>
      </trkpt>
      <trkpt lat="45.66896" lon="4.34066">
        <ele>567.5</ele>
        <time>2023-02-19T11:11:07Z</time>
      </trkpt>
      <trkpt lat="45.66896" lon="4.34066">
        <ele>567.5</ele>
        <time>2023-02-19T11:11:08Z</time>
      </trkpt>
      <trkpt lat="45.66896" lon="4.34066">
        <ele>567.5</ele>
        <time>2023-02-19T11:11:09Z</time>
      </trkpt>
      <trkpt lat="45.66896" lon="4.34066">
        <ele>567.6</ele>
        <time>2023-02-19T11:11:10Z</time>
      </trkpt>
      <trkpt lat="45.66896" lon="4.34066">
        <ele>567.6</ele>
        <time>2023-02-19T11:11:11Z</time>
      </trkpt>
      <trkpt lat="45.66896" lon="4.34066">
        <ele>567.6</ele>
        <time>2023-02-19T11:11:12Z</time>
      </trkpt>
      <trkpt lat="45.66896" lon="4.34066">
        <ele>567.6</ele>
        <time>2023-02-19T11:11:13Z</time>
      </trkpt>
      <trkpt lat="45.66896" lon="4.34066">
        <ele>567.6</ele>
        <time>2023-02-19T11:11:14Z</time>
      </trkpt>
      <trkpt lat="45.66896" lon="4.34066">
        <ele>567.6</ele>
        <time>2023-02-19T11:11:15Z</time>
      </trkpt>
      <trkpt lat="45.66896" lon="4.34066">
        <ele>567.6</ele>
        <time>2023-02-19T11:11:16Z</time>
      </trkpt>
      <trkpt lat="45.66896" lon="4.34066">
        <ele>567.6</ele>
        <time>2023-02-19T11:11:17Z</time>
      </trkpt>
      <trkpt lat="45.66896" lon="4.34066">
        <ele>567.6</ele>
        <time>2023-02-19T11:11:18Z</time>
      </trkpt>
      <trkpt lat="45.66896" lon="4.34066">
        <ele>567.6</ele>
        <time>2023-02-19T11:11:19Z</time>
      </trkpt>
      <trkpt lat="45.66896" lon="4.34066">
        <ele>567.6</ele>
        <time>2023-02-19T11:11:20Z</time>
      </trkpt>
      <trkpt lat="45.66896" lon="4.34066">
        <ele>567.6</ele>
        <time>2023-02-19T11:11:21Z</time>
      </trkpt>
      <trkpt lat="45.66896" lon="4.34066">
        <ele>567.6</ele>
        <time>2023-02-19T11:11:22Z</time>
      </trkpt>
      <trkpt lat="45.66896" lon="4.34066">
        <ele>567.6</ele>
        <time>2023-02-19T11:11:23Z</time>
      </trkpt>
      <trkpt lat="45.66896" lon="4.34066">
        <ele>567.6</ele>
        <time>2023-02-19T11:11:24Z</time>
      </trkpt>
      <trkpt lat="45.66896" lon="4.34066">
        <ele>567.6</ele>
        <time>2023-02-19T11:11:25Z</time>
      </trkpt>
      <trkpt lat="45.66896" lon="4.34066">
        <ele>567.6</ele>
        <time>2023-02-19T11:11:26Z</time>
      </trkpt>
      <trkpt lat="45.66896" lon="4.34066">
        <ele>567.6</ele>
        <time>2023-02-19T11:11:27Z</time>
      </trkpt>
      <trkpt lat="45.66896" lon="4.34065">
        <ele>567.6</ele>
        <time>2023-02-19T11:11:28Z</time>
      </trkpt>
      <trkpt lat="45.66896" lon="4.34065">
        <ele>567.6</ele>
        <time>2023-02-19T11:11:29Z</time>
      </trkpt>
      <trkpt lat="45.66896" lon="4.34065">
        <ele>567.6</ele>
        <time>2023-02-19T11:11:30Z</time>
      </trkpt>
      <trkpt lat="45.66896" lon="4.34065">
        <ele>567.6</ele>
        <time>2023-02-19T11:11:31Z</time>
      </trkpt>
      <trkpt lat="45.66896" lon="4.34065">
        <ele>567.6</ele>
        <time>2023-02-19T11:11:32Z</time>
      </trkpt>
      <trkpt lat="45.66896" lon="4.34066">
        <ele>567.6</ele>
        <time>2023-02-19T11:11:33Z</time>
      </trkpt>
      <trkpt lat="45.66896" lon="4.34066">
        <ele>567.6</ele>
        <time>2023-02-19T11:11:34Z</time>
      </trkpt>
      <trkpt lat="45.66896" lon="4.34066">
        <ele>567.6</ele>
        <time>2023-02-19T11:11:35Z</time>
      </trkpt>
      <trkpt lat="45.66896" lon="4.34066">
        <ele>567.6</ele>
        <time>2023-02-19T11:11:36Z</time>
      </trkpt>
      <trkpt lat="45.66896" lon="4.34067">
        <ele>567.6</ele>
        <time>2023-02-19T11:11:37Z</time>
      </trkpt>
      <trkpt lat="45.66896" lon="4.34067">
        <ele>567.6</ele>
        <time>2023-02-19T11:11:38Z</time>
      </trkpt>
      <trkpt lat="45.66896" lon="4.34067">
        <ele>567.6</ele>
        <time>2023-02-19T11:11:39Z</time>
      </trkpt>
      <trkpt lat="45.66896" lon="4.34067">
        <ele>567.6</ele>
        <time>2023-02-19T11:11:40Z</time>
      </trkpt>
      <trkpt lat="45.66896" lon="4.34067">
        <ele>567.6</ele>
        <time>2023-02-19T11:11:41Z</time>
      </trkpt>
      <trkpt lat="45.66896" lon="4.34067">
        <ele>567.6</ele>
        <time>2023-02-19T11:11:42Z</time>
      </trkpt>
      <trkpt lat="45.66896" lon="4.34067">
        <ele>567.6</ele>
        <time>2023-02-19T11:11:43Z</time>
      </trkpt>
      <trkpt lat="45.66896" lon="4.34067">
        <ele>567.6</ele>
        <time>2023-02-19T11:11:44Z</time>
      </trkpt>
      <trkpt lat="45.66896" lon="4.34067">
        <ele>567.6</ele>
        <time>2023-02-19T11:11:45Z</time>
      </trkpt>
      <trkpt lat="45.66896" lon="4.34067">
        <ele>567.6</ele>
        <time>2023-02-19T11:11:46Z</time>
      </trkpt>
      <trkpt lat="45.66896" lon="4.34067">
        <ele>567.7</ele>
        <time>2023-02-19T11:11:47Z</time>
      </trkpt>
      <trkpt lat="45.66896" lon="4.34066">
        <ele>567.7</ele>
        <time>2023-02-19T11:11:48Z</time>
      </trkpt>
      <trkpt lat="45.66896" lon="4.34066">
        <ele>567.7</ele>
        <time>2023-02-19T11:11:49Z</time>
      </trkpt>
      <trkpt lat="45.66896" lon="4.34066">
        <ele>567.7</ele>
        <time>2023-02-19T11:11:50Z</time>
      </trkpt>
      <trkpt lat="45.66896" lon="4.34066">
        <ele>567.7</ele>
        <time>2023-02-19T11:11:51Z</time>
      </trkpt>
      <trkpt lat="45.66896" lon="4.34065">
        <ele>567.7</ele>
        <time>2023-02-19T11:11:52Z</time>
      </trkpt>
      <trkpt lat="45.66896" lon="4.34066">
        <ele>567.7</ele>
        <time>2023-02-19T11:11:53Z</time>
      </trkpt>
      <trkpt lat="45.66896" lon="4.34066">
        <ele>567.7</ele>
        <time>2023-02-19T11:11:54Z</time>
      </trkpt>
      <trkpt lat="45.66897" lon="4.34066">
        <ele>567.7</ele>
        <time>2023-02-19T11:11:55Z</time>
      </trkpt>
      <trkpt lat="45.66897" lon="4.34066">
        <ele>567.7</ele>
        <time>2023-02-19T11:11:56Z</time>
      </trkpt>
      <trkpt lat="45.66897" lon="4.34066">
        <ele>567.7</ele>
        <time>2023-02-19T11:11:57Z</time>
      </trkpt>
      <trkpt lat="45.66896" lon="4.34066">
        <ele>567.7</ele>
        <time>2023-02-19T11:11:58Z</time>
      </trkpt>
      <trkpt lat="45.66896" lon="4.34067">
        <ele>567.7</ele>
        <time>2023-02-19T11:11:59Z</time>
      </trkpt>
      <trkpt lat="45.66896" lon="4.34067">
        <ele>567.7</ele>
        <time>2023-02-19T11:12:00Z</time>
      </trkpt>
      <trkpt lat="45.66896" lon="4.34067">
        <ele>567.7</ele>
        <time>2023-02-19T11:12:01Z</time>
      </trkpt>
      <trkpt lat="45.66896" lon="4.34067">
        <ele>567.7</ele>
        <time>2023-02-19T11:12:02Z</time>
      </trkpt>
      <trkpt lat="45.66896" lon="4.34067">
        <ele>567.7</ele>
        <time>2023-02-19T11:12:03Z</time>
      </trkpt>
      <trkpt lat="45.66896" lon="4.34067">
        <ele>567.7</ele>
        <time>2023-02-19T11:12:04Z</time>
      </trkpt>
      <trkpt lat="45.66896" lon="4.34067">
        <ele>567.7</ele>
        <time>2023-02-19T11:12:05Z</time>
      </trkpt>
      <trkpt lat="45.66896" lon="4.34067">
        <ele>567.7</ele>
        <time>2023-02-19T11:12:06Z</time>
      </trkpt>
      <trkpt lat="45.66896" lon="4.34067">
        <ele>567.7</ele>
        <time>2023-02-19T11:12:07Z</time>
      </trkpt>
      <trkpt lat="45.66896" lon="4.34067">
        <ele>567.7</ele>
        <time>2023-02-19T11:12:08Z</time>
      </trkpt>
      <trkpt lat="45.66896" lon="4.34066">
        <ele>567.7</ele>
        <time>2023-02-19T11:12:09Z</time>
      </trkpt>
      <trkpt lat="45.66896" lon="4.34066">
        <ele>567.8</ele>
        <time>2023-02-19T11:12:10Z</time>
      </trkpt>
      <trkpt lat="45.66896" lon="4.34066">
        <ele>567.8</ele>
        <time>2023-02-19T11:12:11Z</time>
      </trkpt>
      <trkpt lat="45.66896" lon="4.34066">
        <ele>567.8</ele>
        <time>2023-02-19T11:12:12Z</time>
      </trkpt>
      <trkpt lat="45.66896" lon="4.34066">
        <ele>567.8</ele>
        <time>2023-02-19T11:12:13Z</time>
      </trkpt>
      <trkpt lat="45.66896" lon="4.34066">
        <ele>567.8</ele>
        <time>2023-02-19T11:12:14Z</time>
      </trkpt>
      <trkpt lat="45.66896" lon="4.34067">
        <ele>567.8</ele>
        <time>2023-02-19T11:12:15Z</time>
      </trkpt>
      <trkpt lat="45.66896" lon="4.34068">
        <ele>567.8</ele>
        <time>2023-02-19T11:12:16Z</time>
      </trkpt>
      <trkpt lat="45.66896" lon="4.34068">
        <ele>567.8</ele>
        <time>2023-02-19T11:12:17Z</time>
      </trkpt>
      <trkpt lat="45.66896" lon="4.34068">
        <ele>567.8</ele>
        <time>2023-02-19T11:12:18Z</time>
      </trkpt>
      <trkpt lat="45.66896" lon="4.34068">
        <ele>567.8</ele>
        <time>2023-02-19T11:12:19Z</time>
      </trkpt>
      <trkpt lat="45.66896" lon="4.34068">
        <ele>567.8</ele>
        <time>2023-02-19T11:12:20Z</time>
      </trkpt>
      <trkpt lat="45.66896" lon="4.34068">
        <ele>567.8</ele>
        <time>2023-02-19T11:12:21Z</time>
      </trkpt>
      <trkpt lat="45.66896" lon="4.34068">
        <ele>567.8</ele>
        <time>2023-02-19T11:12:22Z</time>
      </trkpt>
      <trkpt lat="45.66896" lon="4.34068">
        <ele>567.8</ele>
        <time>2023-02-19T11:12:23Z</time>
      </trkpt>
      <trkpt lat="45.66896" lon="4.34068">
        <ele>567.8</ele>
        <time>2023-02-19T11:12:24Z</time>
      </trkpt>
      <trkpt lat="45.66896" lon="4.34067">
        <ele>567.8</ele>
        <time>2023-02-19T11:12:25Z</time>
      </trkpt>
      <trkpt lat="45.66896" lon="4.34067">
        <ele>567.8</ele>
        <time>2023-02-19T11:12:26Z</time>
      </trkpt>
      <trkpt lat="45.66896" lon="4.34068">
        <ele>567.8</ele>
        <time>2023-02-19T11:12:27Z</time>
      </trkpt>
      <trkpt lat="45.66895" lon="4.34069">
        <ele>567.8</ele>
        <time>2023-02-19T11:12:28Z</time>
      </trkpt>
      <trkpt lat="45.66895" lon="4.34069">
        <ele>567.9</ele>
        <time>2023-02-19T11:12:29Z</time>
      </trkpt>
      <trkpt lat="45.66895" lon="4.3407">
        <ele>567.9</ele>
        <time>2023-02-19T11:12:30Z</time>
      </trkpt>
      <trkpt lat="45.66895" lon="4.34071">
        <ele>567.9</ele>
        <time>2023-02-19T11:12:31Z</time>
      </trkpt>
      <trkpt lat="45.66895" lon="4.34071">
        <ele>567.9</ele>
        <time>2023-02-19T11:12:32Z</time>
      </trkpt>
      <trkpt lat="45.66895" lon="4.34072">
        <ele>567.9</ele>
        <time>2023-02-19T11:12:33Z</time>
      </trkpt>
      <trkpt lat="45.66895" lon="4.34072">
        <ele>567.9</ele>
        <time>2023-02-19T11:12:34Z</time>
      </trkpt>
      <trkpt lat="45.66895" lon="4.34072">
        <ele>567.9</ele>
        <time>2023-02-19T11:12:35Z</time>
      </trkpt>
      <trkpt lat="45.66895" lon="4.34072">
        <ele>567.9</ele>
        <time>2023-02-19T11:12:36Z</time>
      </trkpt>
      <trkpt lat="45.66896" lon="4.34072">
        <ele>567.9</ele>
        <time>2023-02-19T11:12:37Z</time>
      </trkpt>
      <trkpt lat="45.66896" lon="4.34073">
        <ele>567.9</ele>
        <time>2023-02-19T11:12:38Z</time>
      </trkpt>
      <trkpt lat="45.66896" lon="4.34074">
        <ele>567.9</ele>
        <time>2023-02-19T11:12:39Z</time>
      </trkpt>
      <trkpt lat="45.66896" lon="4.34074">
        <ele>567.9</ele>
        <time>2023-02-19T11:12:40Z</time>
      </trkpt>
      <trkpt lat="45.66896" lon="4.34074">
        <ele>567.9</ele>
        <time>2023-02-19T11:12:41Z</time>
      </trkpt>
      <trkpt lat="45.66896" lon="4.34074">
        <ele>567.9</ele>
        <time>2023-02-19T11:12:42Z</time>
      </trkpt>
      <trkpt lat="45.66896" lon="4.34074">
        <ele>567.9</ele>
        <time>2023-02-19T11:12:43Z</time>
      </trkpt>
      <trkpt lat="45.66896" lon="4.34074">
        <ele>567.9</ele>
        <time>2023-02-19T11:12:44Z</time>
      </trkpt>
      <trkpt lat="45.66896" lon="4.34074">
        <ele>567.9</ele>
        <time>2023-02-19T11:12:45Z</time>
      </trkpt>
      <trkpt lat="45.66896" lon="4.34074">
        <ele>567.9</ele>
        <time>2023-02-19T11:12:46Z</time>
      </trkpt>
      <trkpt lat="45.66896" lon="4.34074">
        <ele>567.9</ele>
        <time>2023-02-19T11:12:47Z</time>
      </trkpt>
      <trkpt lat="45.66896" lon="4.34074">
        <ele>567.9</ele>
        <time>2023-02-19T11:12:48Z</time>
      </trkpt>
      <trkpt lat="45.66896" lon="4.34074">
        <ele>567.9</ele>
        <time>2023-02-19T11:12:50Z</time>
      </trkpt>
      <trkpt lat="45.66896" lon="4.34074">
        <ele>567.9</ele>
        <time>2023-02-19T11:12:51Z</time>
      </trkpt>
      <trkpt lat="45.66897" lon="4.34074">
        <ele>568</ele>
        <time>2023-02-19T11:12:52Z</time>
      </trkpt>
      <trkpt lat="45.66897" lon="4.34075">
        <ele>568</ele>
        <time>2023-02-19T11:12:53Z</time>
      </trkpt>
      <trkpt lat="45.66897" lon="4.34074">
        <ele>568</ele>
        <time>2023-02-19T11:12:54Z</time>
      </trkpt>
      <trkpt lat="45.66898" lon="4.34074">
        <ele>568</ele>
        <time>2023-02-19T11:12:55Z</time>
      </trkpt>
      <trkpt lat="45.66898" lon="4.34074">
        <ele>568</ele>
        <time>2023-02-19T11:12:56Z</time>
      </trkpt>
      <trkpt lat="45.66898" lon="4.34074">
        <ele>568</ele>
        <time>2023-02-19T11:12:57Z</time>
      </trkpt>
      <trkpt lat="45.66898" lon="4.34074">
        <ele>568</ele>
        <time>2023-02-19T11:12:59Z</time>
      </trkpt>
      <trkpt lat="45.66897" lon="4.34074">
        <ele>568</ele>
        <time>2023-02-19T11:13:00Z</time>
      </trkpt>
      <trkpt lat="45.66897" lon="4.34074">
        <ele>568</ele>
        <time>2023-02-19T11:13:01Z</time>
      </trkpt>
      <trkpt lat="45.66897" lon="4.34074">
        <ele>568</ele>
        <time>2023-02-19T11:13:03Z</time>
      </trkpt>
      <trkpt lat="45.66897" lon="4.34074">
        <ele>568</ele>
        <time>2023-02-19T11:13:04Z</time>
      </trkpt>
      <trkpt lat="45.66897" lon="4.34074">
        <ele>568</ele>
        <time>2023-02-19T11:13:05Z</time>
      </trkpt>
      <trkpt lat="45.66897" lon="4.34074">
        <ele>568</ele>
        <time>2023-02-19T11:13:06Z</time>
      </trkpt>
      <trkpt lat="45.66897" lon="4.34074">
        <ele>568</ele>
        <time>2023-02-19T11:13:08Z</time>
      </trkpt>
      <trkpt lat="45.66897" lon="4.34074">
        <ele>568</ele>
        <time>2023-02-19T11:13:09Z</time>
      </trkpt>
      <trkpt lat="45.66897" lon="4.34074">
        <ele>568</ele>
        <time>2023-02-19T11:13:11Z</time>
      </trkpt>
      <trkpt lat="45.66897" lon="4.34074">
        <ele>568</ele>
        <time>2023-02-19T11:13:12Z</time>
      </trkpt>
      <trkpt lat="45.66897" lon="4.34074">
        <ele>568</ele>
        <time>2023-02-19T11:13:13Z</time>
      </trkpt>
      <trkpt lat="45.66897" lon="4.34074">
        <ele>568</ele>
        <time>2023-02-19T11:13:14Z</time>
      </trkpt>
      <trkpt lat="45.66897" lon="4.34073">
        <ele>568</ele>
        <time>2023-02-19T11:13:15Z</time>
      </trkpt>
      <trkpt lat="45.66897" lon="4.34073">
        <ele>568</ele>
        <time>2023-02-19T11:13:16Z</time>
      </trkpt>
      <trkpt lat="45.66897" lon="4.34073">
        <ele>568</ele>
        <time>2023-02-19T11:13:17Z</time>
      </trkpt>
      <trkpt lat="45.66897" lon="4.34073">
        <ele>568</ele>
        <time>2023-02-19T11:13:18Z</time>
      </trkpt>
      <trkpt lat="45.66896" lon="4.34073">
        <ele>568</ele>
        <time>2023-02-19T11:13:19Z</time>
      </trkpt>
      <trkpt lat="45.66896" lon="4.34072">
        <ele>568</ele>
        <time>2023-02-19T11:13:20Z</time>
      </trkpt>
      <trkpt lat="45.66896" lon="4.34072">
        <ele>568</ele>
        <time>2023-02-19T11:13:21Z</time>
      </trkpt>
      <trkpt lat="45.66896" lon="4.34072">
        <ele>568</ele>
        <time>2023-02-19T11:13:22Z</time>
      </trkpt>
      <trkpt lat="45.66896" lon="4.34072">
        <ele>568</ele>
        <time>2023-02-19T11:13:23Z</time>
      </trkpt>
      <trkpt lat="45.66896" lon="4.34072">
        <ele>568</ele>
        <time>2023-02-19T11:13:24Z</time>
      </trkpt>
      <trkpt lat="45.66895" lon="4.34072">
        <ele>568</ele>
        <time>2023-02-19T11:13:25Z</time>
      </trkpt>
      <trkpt lat="45.66895" lon="4.34072">
        <ele>568</ele>
        <time>2023-02-19T11:13:26Z</time>
      </trkpt>
      <trkpt lat="45.66895" lon="4.34072">
        <ele>568</ele>
        <time>2023-02-19T11:13:27Z</time>
      </trkpt>
      <trkpt lat="45.66895" lon="4.34072">
        <ele>568</ele>
        <time>2023-02-19T11:13:28Z</time>
      </trkpt>
      <trkpt lat="45.66896" lon="4.34073">
        <ele>568</ele>
        <time>2023-02-19T11:13:29Z</time>
      </trkpt>
      <trkpt lat="45.66896" lon="4.34073">
        <ele>568</ele>
        <time>2023-02-19T11:13:30Z</time>
      </trkpt>
      <trkpt lat="45.66896" lon="4.34073">
        <ele>568.1</ele>
        <time>2023-02-19T11:13:32Z</time>
      </trkpt>
      <trkpt lat="45.66896" lon="4.34074">
        <ele>568.1</ele>
        <time>2023-02-19T11:13:33Z</time>
      </trkpt>
      <trkpt lat="45.66896" lon="4.34074">
        <ele>568.1</ele>
        <time>2023-02-19T11:13:34Z</time>
      </trkpt>
      <trkpt lat="45.66896" lon="4.34074">
        <ele>568.1</ele>
        <time>2023-02-19T11:13:35Z</time>
      </trkpt>
      <trkpt lat="45.66896" lon="4.34075">
        <ele>568.1</ele>
        <time>2023-02-19T11:13:36Z</time>
      </trkpt>
      <trkpt lat="45.66896" lon="4.34075">
        <ele>568.1</ele>
        <time>2023-02-19T11:13:37Z</time>
      </trkpt>
      <trkpt lat="45.66896" lon="4.34075">
        <ele>568.1</ele>
        <time>2023-02-19T11:13:38Z</time>
      </trkpt>
      <trkpt lat="45.66896" lon="4.34075">
        <ele>568.1</ele>
        <time>2023-02-19T11:13:39Z</time>
      </trkpt>
      <trkpt lat="45.66896" lon="4.34076">
        <ele>568.1</ele>
        <time>2023-02-19T11:13:40Z</time>
      </trkpt>
      <trkpt lat="45.66896" lon="4.34076">
        <ele>568.1</ele>
        <time>2023-02-19T11:13:42Z</time>
      </trkpt>
      <trkpt lat="45.66896" lon="4.34077">
        <ele>568.1</ele>
        <time>2023-02-19T11:13:44Z</time>
      </trkpt>
      <trkpt lat="45.66896" lon="4.34077">
        <ele>568.1</ele>
        <time>2023-02-19T11:13:45Z</time>
      </trkpt>
      <trkpt lat="45.66896" lon="4.34077">
        <ele>568.1</ele>
        <time>2023-02-19T11:13:46Z</time>
      </trkpt>
      <trkpt lat="45.66896" lon="4.34077">
        <ele>568.1</ele>
        <time>2023-02-19T11:13:47Z</time>
      </trkpt>
      <trkpt lat="45.66896" lon="4.34078">
        <ele>568.1</ele>
        <time>2023-02-19T11:13:48Z</time>
      </trkpt>
      <trkpt lat="45.66897" lon="4.34078">
        <ele>568.1</ele>
        <time>2023-02-19T11:13:50Z</time>
      </trkpt>
      <trkpt lat="45.66897" lon="4.34078">
        <ele>568.1</ele>
        <time>2023-02-19T11:13:51Z</time>
      </trkpt>
      <trkpt lat="45.66897" lon="4.34078">
        <ele>568.1</ele>
        <time>2023-02-19T11:13:52Z</time>
      </trkpt>
      <trkpt lat="45.66897" lon="4.34078">
        <ele>568.1</ele>
        <time>2023-02-19T11:13:53Z</time>
      </trkpt>
      <trkpt lat="45.66897" lon="4.34078">
        <ele>568.1</ele>
        <time>2023-02-19T11:13:54Z</time>
      </trkpt>
      <trkpt lat="45.66897" lon="4.34078">
        <ele>568.1</ele>
        <time>2023-02-19T11:13:55Z</time>
      </trkpt>
      <trkpt lat="45.66897" lon="4.34078">
        <ele>568.1</ele>
        <time>2023-02-19T11:13:56Z</time>
      </trkpt>
      <trkpt lat="45.66897" lon="4.34078">
        <ele>568.1</ele>
        <time>2023-02-19T11:13:57Z</time>
      </trkpt>
      <trkpt lat="45.66897" lon="4.34078">
        <ele>568.1</ele>
        <time>2023-02-19T11:13:58Z</time>
      </trkpt>
      <trkpt lat="45.66897" lon="4.34078">
        <ele>568.1</ele>
        <time>2023-02-19T11:13:59Z</time>
      </trkpt>
      <trkpt lat="45.66897" lon="4.34078">
        <ele>568.1</ele>
        <time>2023-02-19T11:14:00Z</time>
      </trkpt>
      <trkpt lat="45.66897" lon="4.34078">
        <ele>568.1</ele>
        <time>2023-02-19T11:14:01Z</time>
      </trkpt>
      <trkpt lat="45.66898" lon="4.34078">
        <ele>568.1</ele>
        <time>2023-02-19T11:14:02Z</time>
      </trkpt>
      <trkpt lat="45.66898" lon="4.34078">
        <ele>568.1</ele>
        <time>2023-02-19T11:14:03Z</time>
      </trkpt>
      <trkpt lat="45.66898" lon="4.34078">
        <ele>568.1</ele>
        <time>2023-02-19T11:14:04Z</time>
      </trkpt>
      <trkpt lat="45.66898" lon="4.34078">
        <ele>568.1</ele>
        <time>2023-02-19T11:14:05Z</time>
      </trkpt>
      <trkpt lat="45.66898" lon="4.34078">
        <ele>568.1</ele>
        <time>2023-02-19T11:14:06Z</time>
      </trkpt>
      <trkpt lat="45.66898" lon="4.34078">
        <ele>568.1</ele>
        <time>2023-02-19T11:14:07Z</time>
      </trkpt>
      <trkpt lat="45.66898" lon="4.34078">
        <ele>568.2</ele>
        <time>2023-02-19T11:14:08Z</time>
      </trkpt>
      <trkpt lat="45.66898" lon="4.34078">
        <ele>568.2</ele>
        <time>2023-02-19T11:14:09Z</time>
      </trkpt>
      <trkpt lat="45.66898" lon="4.34078">
        <ele>568.2</ele>
        <time>2023-02-19T11:14:10Z</time>
      </trkpt>
      <trkpt lat="45.66899" lon="4.34077">
        <ele>568.2</ele>
        <time>2023-02-19T11:14:11Z</time>
      </trkpt>
      <trkpt lat="45.66899" lon="4.34077">
        <ele>568.2</ele>
        <time>2023-02-19T11:14:12Z</time>
      </trkpt>
      <trkpt lat="45.66899" lon="4.34076">
        <ele>568.2</ele>
        <time>2023-02-19T11:14:13Z</time>
      </trkpt>
      <trkpt lat="45.66899" lon="4.34076">
        <ele>568.2</ele>
        <time>2023-02-19T11:14:14Z</time>
      </trkpt>
      <trkpt lat="45.66899" lon="4.34075">
        <ele>568.2</ele>
        <time>2023-02-19T11:14:15Z</time>
      </trkpt>
      <trkpt lat="45.669" lon="4.34075">
        <ele>568.2</ele>
        <time>2023-02-19T11:14:16Z</time>
      </trkpt>
      <trkpt lat="45.669" lon="4.34075">
        <ele>568.2</ele>
        <time>2023-02-19T11:14:17Z</time>
      </trkpt>
      <trkpt lat="45.669" lon="4.34075">
        <ele>568.2</ele>
        <time>2023-02-19T11:14:18Z</time>
      </trkpt>
      <trkpt lat="45.669" lon="4.34075">
        <ele>568.2</ele>
        <time>2023-02-19T11:14:19Z</time>
      </trkpt>
      <trkpt lat="45.66899" lon="4.34075">
        <ele>568.2</ele>
        <time>2023-02-19T11:14:20Z</time>
      </trkpt>
      <trkpt lat="45.669" lon="4.34074">
        <ele>568.3</ele>
        <time>2023-02-19T11:14:21Z</time>
      </trkpt>
      <trkpt lat="45.669" lon="4.34074">
        <ele>568.3</ele>
        <time>2023-02-19T11:14:22Z</time>
      </trkpt>
      <trkpt lat="45.66901" lon="4.34073">
        <ele>568.3</ele>
        <time>2023-02-19T11:14:23Z</time>
      </trkpt>
      <trkpt lat="45.66901" lon="4.34073">
        <ele>568.3</ele>
        <time>2023-02-19T11:14:24Z</time>
      </trkpt>
      <trkpt lat="45.66902" lon="4.34073">
        <ele>568.3</ele>
        <time>2023-02-19T11:14:25Z</time>
      </trkpt>
      <trkpt lat="45.66902" lon="4.34073">
        <ele>568.3</ele>
        <time>2023-02-19T11:14:26Z</time>
      </trkpt>
      <trkpt lat="45.66902" lon="4.34073">
        <ele>568.3</ele>
        <time>2023-02-19T11:14:27Z</time>
      </trkpt>
      <trkpt lat="45.66902" lon="4.34074">
        <ele>568.3</ele>
        <time>2023-02-19T11:14:28Z</time>
      </trkpt>
      <trkpt lat="45.66902" lon="4.34074">
        <ele>568.3</ele>
        <time>2023-02-19T11:14:29Z</time>
      </trkpt>
      <trkpt lat="45.66902" lon="4.34074">
        <ele>568.4</ele>
        <time>2023-02-19T11:14:30Z</time>
      </trkpt>
      <trkpt lat="45.66902" lon="4.34074">
        <ele>568.4</ele>
        <time>2023-02-19T11:14:31Z</time>
      </trkpt>
      <trkpt lat="45.66902" lon="4.34074">
        <ele>568.4</ele>
        <time>2023-02-19T11:14:32Z</time>
      </trkpt>
      <trkpt lat="45.66902" lon="4.34074">
        <ele>568.4</ele>
        <time>2023-02-19T11:14:33Z</time>
      </trkpt>
      <trkpt lat="45.66902" lon="4.34074">
        <ele>568.4</ele>
        <time>2023-02-19T11:14:34Z</time>
      </trkpt>
      <trkpt lat="45.66902" lon="4.34074">
        <ele>568.4</ele>
        <time>2023-02-19T11:14:35Z</time>
      </trkpt>
      <trkpt lat="45.66902" lon="4.34074">
        <ele>568.4</ele>
        <time>2023-02-19T11:14:36Z</time>
      </trkpt>
      <trkpt lat="45.66902" lon="4.34074">
        <ele>568.4</ele>
        <time>2023-02-19T11:14:37Z</time>
      </trkpt>
      <trkpt lat="45.66902" lon="4.34074">
        <ele>568.4</ele>
        <time>2023-02-19T11:14:38Z</time>
      </trkpt>
      <trkpt lat="45.66902" lon="4.34074">
        <ele>568.4</ele>
        <time>2023-02-19T11:14:39Z</time>
      </trkpt>
      <trkpt lat="45.66902" lon="4.34074">
        <ele>568.4</ele>
        <time>2023-02-19T11:14:40Z</time>
      </trkpt>
      <trkpt lat="45.66902" lon="4.34074">
        <ele>568.4</ele>
        <time>2023-02-19T11:14:41Z</time>
      </trkpt>
      <trkpt lat="45.66902" lon="4.34074">
        <ele>568.4</ele>
        <time>2023-02-19T11:14:42Z</time>
      </trkpt>
      <trkpt lat="45.66902" lon="4.34074">
        <ele>568.4</ele>
        <time>2023-02-19T11:14:43Z</time>
      </trkpt>
      <trkpt lat="45.66902" lon="4.34074">
        <ele>568.4</ele>
        <time>2023-02-19T11:14:44Z</time>
      </trkpt>
      <trkpt lat="45.66902" lon="4.34074">
        <ele>568.4</ele>
        <time>2023-02-19T11:14:45Z</time>
      </trkpt>
      <trkpt lat="45.66902" lon="4.34074">
        <ele>568.4</ele>
        <time>2023-02-19T11:14:46Z</time>
      </trkpt>
      <trkpt lat="45.66902" lon="4.34074">
        <ele>568.4</ele>
        <time>2023-02-19T11:14:47Z</time>
      </trkpt>
      <trkpt lat="45.66902" lon="4.34074">
        <ele>568.4</ele>
        <time>2023-02-19T11:14:48Z</time>
      </trkpt>
      <trkpt lat="45.66902" lon="4.34074">
        <ele>568.4</ele>
        <time>2023-02-19T11:14:49Z</time>
      </trkpt>
      <trkpt lat="45.66902" lon="4.34074">
        <ele>568.4</ele>
        <time>2023-02-19T11:14:50Z</time>
      </trkpt>
      <trkpt lat="45.66902" lon="4.34074">
        <ele>568.4</ele>
        <time>2023-02-19T11:14:51Z</time>
      </trkpt>
      <trkpt lat="45.66901" lon="4.34075">
        <ele>568.4</ele>
        <time>2023-02-19T11:14:52Z</time>
      </trkpt>
      <trkpt lat="45.66901" lon="4.34075">
        <ele>568.4</ele>
        <time>2023-02-19T11:14:53Z</time>
      </trkpt>
      <trkpt lat="45.66901" lon="4.34075">
        <ele>568.4</ele>
        <time>2023-02-19T11:14:54Z</time>
      </trkpt>
      <trkpt lat="45.66901" lon="4.34075">
        <ele>568.4</ele>
        <time>2023-02-19T11:14:55Z</time>
      </trkpt>
      <trkpt lat="45.66901" lon="4.34075">
        <ele>568.4</ele>
        <time>2023-02-19T11:14:56Z</time>
      </trkpt>
      <trkpt lat="45.66901" lon="4.34075">
        <ele>568.4</ele>
        <time>2023-02-19T11:14:57Z</time>
      </trkpt>
      <trkpt lat="45.66901" lon="4.34075">
        <ele>568.4</ele>
        <time>2023-02-19T11:14:58Z</time>
      </trkpt>
      <trkpt lat="45.66901" lon="4.34075">
        <ele>568.4</ele>
        <time>2023-02-19T11:14:59Z</time>
      </trkpt>
      <trkpt lat="45.66901" lon="4.34075">
        <ele>568.4</ele>
        <time>2023-02-19T11:15:00Z</time>
      </trkpt>
      <trkpt lat="45.66901" lon="4.34075">
        <ele>568.4</ele>
        <time>2023-02-19T11:15:01Z</time>
      </trkpt>
      <trkpt lat="45.66901" lon="4.34075">
        <ele>568.4</ele>
        <time>2023-02-19T11:15:02Z</time>
      </trkpt>
      <trkpt lat="45.66901" lon="4.34074">
        <ele>568.4</ele>
        <time>2023-02-19T11:15:03Z</time>
      </trkpt>
      <trkpt lat="45.66901" lon="4.34074">
        <ele>568.4</ele>
        <time>2023-02-19T11:15:04Z</time>
      </trkpt>
      <trkpt lat="45.66901" lon="4.34074">
        <ele>568.4</ele>
        <time>2023-02-19T11:15:05Z</time>
      </trkpt>
      <trkpt lat="45.66901" lon="4.34074">
        <ele>568.4</ele>
        <time>2023-02-19T11:15:06Z</time>
      </trkpt>
      <trkpt lat="45.66901" lon="4.34074">
        <ele>568.5</ele>
        <time>2023-02-19T11:15:07Z</time>
      </trkpt>
      <trkpt lat="45.66901" lon="4.34074">
        <ele>568.5</ele>
        <time>2023-02-19T11:15:08Z</time>
      </trkpt>
      <trkpt lat="45.66901" lon="4.34073">
        <ele>568.5</ele>
        <time>2023-02-19T11:15:09Z</time>
      </trkpt>
      <trkpt lat="45.66901" lon="4.34073">
        <ele>568.5</ele>
        <time>2023-02-19T11:15:10Z</time>
      </trkpt>
      <trkpt lat="45.66901" lon="4.34073">
        <ele>568.5</ele>
        <time>2023-02-19T11:15:11Z</time>
      </trkpt>
      <trkpt lat="45.66901" lon="4.34073">
        <ele>568.5</ele>
        <time>2023-02-19T11:15:12Z</time>
      </trkpt>
      <trkpt lat="45.66901" lon="4.34073">
        <ele>568.5</ele>
        <time>2023-02-19T11:15:13Z</time>
      </trkpt>
      <trkpt lat="45.66901" lon="4.34073">
        <ele>568.5</ele>
        <time>2023-02-19T11:15:14Z</time>
      </trkpt>
      <trkpt lat="45.66901" lon="4.34073">
        <ele>568.5</ele>
        <time>2023-02-19T11:15:15Z</time>
      </trkpt>
      <trkpt lat="45.66902" lon="4.34073">
        <ele>568.5</ele>
        <time>2023-02-19T11:15:16Z</time>
      </trkpt>
      <trkpt lat="45.66902" lon="4.34073">
        <ele>568.5</ele>
        <time>2023-02-19T11:15:17Z</time>
      </trkpt>
      <trkpt lat="45.66901" lon="4.34072">
        <ele>568.5</ele>
        <time>2023-02-19T11:15:18Z</time>
      </trkpt>
      <trkpt lat="45.66901" lon="4.34072">
        <ele>568.5</ele>
        <time>2023-02-19T11:15:19Z</time>
      </trkpt>
      <trkpt lat="45.66901" lon="4.34072">
        <ele>568.5</ele>
        <time>2023-02-19T11:15:20Z</time>
      </trkpt>
      <trkpt lat="45.66901" lon="4.34072">
        <ele>568.5</ele>
        <time>2023-02-19T11:15:21Z</time>
      </trkpt>
      <trkpt lat="45.66901" lon="4.34072">
        <ele>568.5</ele>
        <time>2023-02-19T11:15:22Z</time>
      </trkpt>
      <trkpt lat="45.66901" lon="4.34072">
        <ele>568.5</ele>
        <time>2023-02-19T11:15:23Z</time>
      </trkpt>
      <trkpt lat="45.66901" lon="4.34072">
        <ele>568.5</ele>
        <time>2023-02-19T11:15:24Z</time>
      </trkpt>
      <trkpt lat="45.66901" lon="4.34072">
        <ele>568.5</ele>
        <time>2023-02-19T11:15:25Z</time>
      </trkpt>
      <trkpt lat="45.66901" lon="4.34072">
        <ele>568.5</ele>
        <time>2023-02-19T11:15:26Z</time>
      </trkpt>
      <trkpt lat="45.66901" lon="4.34071">
        <ele>568.5</ele>
        <time>2023-02-19T11:15:27Z</time>
      </trkpt>
      <trkpt lat="45.66901" lon="4.34071">
        <ele>568.5</ele>
        <time>2023-02-19T11:15:28Z</time>
      </trkpt>
      <trkpt lat="45.66901" lon="4.34071">
        <ele>568.5</ele>
        <time>2023-02-19T11:15:29Z</time>
      </trkpt>
      <trkpt lat="45.66901" lon="4.34071">
        <ele>568.5</ele>
        <time>2023-02-19T11:15:30Z</time>
      </trkpt>
      <trkpt lat="45.66901" lon="4.34071">
        <ele>568.5</ele>
        <time>2023-02-19T11:15:31Z</time>
      </trkpt>
      <trkpt lat="45.66901" lon="4.34071">
        <ele>568.5</ele>
        <time>2023-02-19T11:15:32Z</time>
      </trkpt>
      <trkpt lat="45.66901" lon="4.34071">
        <ele>568.5</ele>
        <time>2023-02-19T11:15:33Z</time>
      </trkpt>
      <trkpt lat="45.66901" lon="4.34071">
        <ele>568.5</ele>
        <time>2023-02-19T11:15:34Z</time>
      </trkpt>
      <trkpt lat="45.66901" lon="4.34071">
        <ele>568.5</ele>
        <time>2023-02-19T11:15:35Z</time>
      </trkpt>
      <trkpt lat="45.669" lon="4.3407">
        <ele>568.5</ele>
        <time>2023-02-19T11:15:36Z</time>
      </trkpt>
      <trkpt lat="45.669" lon="4.3407">
        <ele>568.5</ele>
        <time>2023-02-19T11:15:37Z</time>
      </trkpt>
      <trkpt lat="45.669" lon="4.3407">
        <ele>568.6</ele>
        <time>2023-02-19T11:15:38Z</time>
      </trkpt>
      <trkpt lat="45.669" lon="4.34069">
        <ele>568.6</ele>
        <time>2023-02-19T11:15:39Z</time>
      </trkpt>
      <trkpt lat="45.66901" lon="4.34069">
        <ele>568.6</ele>
        <time>2023-02-19T11:15:40Z</time>
      </trkpt>
      <trkpt lat="45.669" lon="4.34069">
        <ele>568.6</ele>
        <time>2023-02-19T11:15:42Z</time>
      </trkpt>
      <trkpt lat="45.669" lon="4.3407">
        <ele>568.6</ele>
        <time>2023-02-19T11:15:43Z</time>
      </trkpt>
      <trkpt lat="45.66899" lon="4.34071">
        <ele>568.7</ele>
        <time>2023-02-19T11:15:44Z</time>
      </trkpt>
      <trkpt lat="45.66899" lon="4.34072">
        <ele>568.7</ele>
        <time>2023-02-19T11:15:45Z</time>
      </trkpt>
      <trkpt lat="45.66898" lon="4.34073">
        <ele>568.7</ele>
        <time>2023-02-19T11:15:46Z</time>
      </trkpt>
      <trkpt lat="45.66898" lon="4.34077">
        <ele>568.8</ele>
        <time>2023-02-19T11:15:47Z</time>
      </trkpt>
      <trkpt lat="45.66897" lon="4.3408">
        <ele>568.9</ele>
        <time>2023-02-19T11:15:49Z</time>
      </trkpt>
      <trkpt lat="45.66897" lon="4.34083">
        <ele>569</ele>
        <time>2023-02-19T11:15:50Z</time>
      </trkpt>
      <trkpt lat="45.66898" lon="4.34085">
        <ele>569</ele>
        <time>2023-02-19T11:15:51Z</time>
      </trkpt>
      <trkpt lat="45.66898" lon="4.34087">
        <ele>569.1</ele>
        <time>2023-02-19T11:15:52Z</time>
      </trkpt>
      <trkpt lat="45.66898" lon="4.34089">
        <ele>569.1</ele>
        <time>2023-02-19T11:15:53Z</time>
      </trkpt>
      <trkpt lat="45.66899" lon="4.3409">
        <ele>569.2</ele>
        <time>2023-02-19T11:15:54Z</time>
      </trkpt>
      <trkpt lat="45.669" lon="4.34093">
        <ele>569.3</ele>
        <time>2023-02-19T11:15:55Z</time>
      </trkpt>
      <trkpt lat="45.669" lon="4.34095">
        <ele>569.3</ele>
        <time>2023-02-19T11:15:56Z</time>
      </trkpt>
      <trkpt lat="45.66901" lon="4.34096">
        <ele>569.4</ele>
        <time>2023-02-19T11:15:57Z</time>
      </trkpt>
      <trkpt lat="45.66902" lon="4.34099">
        <ele>569.5</ele>
        <time>2023-02-19T11:15:58Z</time>
      </trkpt>
      <trkpt lat="45.66902" lon="4.341">
        <ele>569.5</ele>
        <time>2023-02-19T11:16:00Z</time>
      </trkpt>
      <trkpt lat="45.66903" lon="4.34101">
        <ele>569.5</ele>
        <time>2023-02-19T11:16:01Z</time>
      </trkpt>
      <trkpt lat="45.66903" lon="4.34102">
        <ele>569.6</ele>
        <time>2023-02-19T11:16:02Z</time>
      </trkpt>
      <trkpt lat="45.66904" lon="4.34104">
        <ele>569.7</ele>
        <time>2023-02-19T11:16:03Z</time>
      </trkpt>
      <trkpt lat="45.66904" lon="4.34107">
        <ele>569.7</ele>
        <time>2023-02-19T11:16:05Z</time>
      </trkpt>
      <trkpt lat="45.66905" lon="4.34109">
        <ele>569.8</ele>
        <time>2023-02-19T11:16:06Z</time>
      </trkpt>
      <trkpt lat="45.66904" lon="4.34113">
        <ele>569.9</ele>
        <time>2023-02-19T11:16:07Z</time>
      </trkpt>
      <trkpt lat="45.66904" lon="4.34114">
        <ele>569.9</ele>
        <time>2023-02-19T11:16:08Z</time>
      </trkpt>
      <trkpt lat="45.66904" lon="4.34116">
        <ele>570</ele>
        <time>2023-02-19T11:16:09Z</time>
      </trkpt>
      <trkpt lat="45.66904" lon="4.34118">
        <ele>570</ele>
        <time>2023-02-19T11:16:10Z</time>
      </trkpt>
      <trkpt lat="45.66904" lon="4.34121">
        <ele>570</ele>
        <time>2023-02-19T11:16:11Z</time>
      </trkpt>
      <trkpt lat="45.66904" lon="4.34123">
        <ele>570</ele>
        <time>2023-02-19T11:16:12Z</time>
      </trkpt>
      <trkpt lat="45.66904" lon="4.34128">
        <ele>570.1</ele>
        <time>2023-02-19T11:16:13Z</time>
      </trkpt>
      <trkpt lat="45.66904" lon="4.34132">
        <ele>570</ele>
        <time>2023-02-19T11:16:15Z</time>
      </trkpt>
      <trkpt lat="45.66904" lon="4.34133">
        <ele>570</ele>
        <time>2023-02-19T11:16:16Z</time>
      </trkpt>
      <trkpt lat="45.66904" lon="4.34135">
        <ele>570</ele>
        <time>2023-02-19T11:16:17Z</time>
      </trkpt>
      <trkpt lat="45.66904" lon="4.34138">
        <ele>570</ele>
        <time>2023-02-19T11:16:18Z</time>
      </trkpt>
      <trkpt lat="45.66904" lon="4.34141">
        <ele>569.9</ele>
        <time>2023-02-19T11:16:19Z</time>
      </trkpt>
      <trkpt lat="45.66904" lon="4.34144">
        <ele>569.9</ele>
        <time>2023-02-19T11:16:21Z</time>
      </trkpt>
      <trkpt lat="45.66904" lon="4.34146">
        <ele>569.8</ele>
        <time>2023-02-19T11:16:22Z</time>
      </trkpt>
      <trkpt lat="45.66905" lon="4.34148">
        <ele>569.8</ele>
        <time>2023-02-19T11:16:23Z</time>
      </trkpt>
      <trkpt lat="45.66905" lon="4.34152">
        <ele>569.6</ele>
        <time>2023-02-19T11:16:24Z</time>
      </trkpt>
      <trkpt lat="45.66905" lon="4.34153">
        <ele>569.6</ele>
        <time>2023-02-19T11:16:26Z</time>
      </trkpt>
      <trkpt lat="45.66905" lon="4.34155">
        <ele>569.5</ele>
        <time>2023-02-19T11:16:27Z</time>
      </trkpt>
      <trkpt lat="45.66905" lon="4.34156">
        <ele>569.4</ele>
        <time>2023-02-19T11:16:28Z</time>
      </trkpt>
      <trkpt lat="45.66905" lon="4.34158">
        <ele>569.4</ele>
        <time>2023-02-19T11:16:29Z</time>
      </trkpt>
      <trkpt lat="45.66905" lon="4.3416">
        <ele>569.3</ele>
        <time>2023-02-19T11:16:30Z</time>
      </trkpt>
      <trkpt lat="45.66905" lon="4.34162">
        <ele>569.2</ele>
        <time>2023-02-19T11:16:31Z</time>
      </trkpt>
      <trkpt lat="45.66905" lon="4.34164">
        <ele>569.1</ele>
        <time>2023-02-19T11:16:32Z</time>
      </trkpt>
      <trkpt lat="45.66905" lon="4.34166">
        <ele>569</ele>
        <time>2023-02-19T11:16:33Z</time>
      </trkpt>
      <trkpt lat="45.66905" lon="4.3417">
        <ele>568.8</ele>
        <time>2023-02-19T11:16:35Z</time>
      </trkpt>
      <trkpt lat="45.66905" lon="4.34171">
        <ele>568.7</ele>
        <time>2023-02-19T11:16:36Z</time>
      </trkpt>
      <trkpt lat="45.66905" lon="4.34173">
        <ele>568.6</ele>
        <time>2023-02-19T11:16:37Z</time>
      </trkpt>
      <trkpt lat="45.66906" lon="4.34175">
        <ele>568.5</ele>
        <time>2023-02-19T11:16:38Z</time>
      </trkpt>
      <trkpt lat="45.66906" lon="4.34178">
        <ele>568.4</ele>
        <time>2023-02-19T11:16:39Z</time>
      </trkpt>
      <trkpt lat="45.66906" lon="4.34181">
        <ele>568.2</ele>
        <time>2023-02-19T11:16:41Z</time>
      </trkpt>
      <trkpt lat="45.66907" lon="4.34183">
        <ele>568.1</ele>
        <time>2023-02-19T11:16:42Z</time>
      </trkpt>
      <trkpt lat="45.66907" lon="4.34184">
        <ele>568</ele>
        <time>2023-02-19T11:16:43Z</time>
      </trkpt>
      <trkpt lat="45.66907" lon="4.34187">
        <ele>567.8</ele>
        <time>2023-02-19T11:16:44Z</time>
      </trkpt>
      <trkpt lat="45.66907" lon="4.34188">
        <ele>567.8</ele>
        <time>2023-02-19T11:16:45Z</time>
      </trkpt>
      <trkpt lat="45.66907" lon="4.3419">
        <ele>567.7</ele>
        <time>2023-02-19T11:16:46Z</time>
      </trkpt>
      <trkpt lat="45.66908" lon="4.34191">
        <ele>567.6</ele>
        <time>2023-02-19T11:16:47Z</time>
      </trkpt>
      <trkpt lat="45.66908" lon="4.34193">
        <ele>567.5</ele>
        <time>2023-02-19T11:16:48Z</time>
      </trkpt>
      <trkpt lat="45.66908" lon="4.34194">
        <ele>567.4</ele>
        <time>2023-02-19T11:16:49Z</time>
      </trkpt>
      <trkpt lat="45.66908" lon="4.34196">
        <ele>567.4</ele>
        <time>2023-02-19T11:16:50Z</time>
      </trkpt>
      <trkpt lat="45.66908" lon="4.34197">
        <ele>567.3</ele>
        <time>2023-02-19T11:16:51Z</time>
      </trkpt>
      <trkpt lat="45.66908" lon="4.34198">
        <ele>567.2</ele>
        <time>2023-02-19T11:16:53Z</time>
      </trkpt>
      <trkpt lat="45.66907" lon="4.34199">
        <ele>567.2</ele>
        <time>2023-02-19T11:16:54Z</time>
      </trkpt>
      <trkpt lat="45.66907" lon="4.34202">
        <ele>567</ele>
        <time>2023-02-19T11:16:55Z</time>
      </trkpt>
      <trkpt lat="45.66906" lon="4.34203">
        <ele>566.9</ele>
        <time>2023-02-19T11:16:56Z</time>
      </trkpt>
      <trkpt lat="45.66906" lon="4.34205">
        <ele>566.8</ele>
        <time>2023-02-19T11:16:57Z</time>
      </trkpt>
      <trkpt lat="45.66906" lon="4.34207">
        <ele>566.7</ele>
        <time>2023-02-19T11:16:58Z</time>
      </trkpt>
      <trkpt lat="45.66906" lon="4.3421">
        <ele>566.5</ele>
        <time>2023-02-19T11:16:59Z</time>
      </trkpt>
      <trkpt lat="45.66906" lon="4.34212">
        <ele>566.4</ele>
        <time>2023-02-19T11:17:00Z</time>
      </trkpt>
      <trkpt lat="45.66906" lon="4.34214">
        <ele>566.2</ele>
        <time>2023-02-19T11:17:01Z</time>
      </trkpt>
      <trkpt lat="45.66906" lon="4.34216">
        <ele>566</ele>
        <time>2023-02-19T11:17:02Z</time>
      </trkpt>
      <trkpt lat="45.66906" lon="4.34221">
        <ele>565.7</ele>
        <time>2023-02-19T11:17:04Z</time>
      </trkpt>
      <trkpt lat="45.66906" lon="4.34222">
        <ele>565.6</ele>
        <time>2023-02-19T11:17:05Z</time>
      </trkpt>
      <trkpt lat="45.66906" lon="4.34224">
        <ele>565.5</ele>
        <time>2023-02-19T11:17:06Z</time>
      </trkpt>
      <trkpt lat="45.66905" lon="4.34226">
        <ele>565.3</ele>
        <time>2023-02-19T11:17:07Z</time>
      </trkpt>
      <trkpt lat="45.66905" lon="4.34229">
        <ele>565</ele>
        <time>2023-02-19T11:17:08Z</time>
      </trkpt>
      <trkpt lat="45.66905" lon="4.34231">
        <ele>564.9</ele>
        <time>2023-02-19T11:17:10Z</time>
      </trkpt>
      <trkpt lat="45.66905" lon="4.34233">
        <ele>564.8</ele>
        <time>2023-02-19T11:17:11Z</time>
      </trkpt>
      <trkpt lat="45.66904" lon="4.34235">
        <ele>564.5</ele>
        <time>2023-02-19T11:17:12Z</time>
      </trkpt>
      <trkpt lat="45.66904" lon="4.34239">
        <ele>564.2</ele>
        <time>2023-02-19T11:17:14Z</time>
      </trkpt>
      <trkpt lat="45.66904" lon="4.34241">
        <ele>564.1</ele>
        <time>2023-02-19T11:17:15Z</time>
      </trkpt>
      <trkpt lat="45.66903" lon="4.34243">
        <ele>563.9</ele>
        <time>2023-02-19T11:17:16Z</time>
      </trkpt>
      <trkpt lat="45.66902" lon="4.34245">
        <ele>563.7</ele>
        <time>2023-02-19T11:17:17Z</time>
      </trkpt>
      <trkpt lat="45.66901" lon="4.34247">
        <ele>563.5</ele>
        <time>2023-02-19T11:17:18Z</time>
      </trkpt>
      <trkpt lat="45.669" lon="4.34248">
        <ele>563.3</ele>
        <time>2023-02-19T11:17:19Z</time>
      </trkpt>
      <trkpt lat="45.66899" lon="4.34251">
        <ele>563</ele>
        <time>2023-02-19T11:17:21Z</time>
      </trkpt>
      <trkpt lat="45.66898" lon="4.34252">
        <ele>562.9</ele>
        <time>2023-02-19T11:17:22Z</time>
      </trkpt>
      <trkpt lat="45.66898" lon="4.34254">
        <ele>562.8</ele>
        <time>2023-02-19T11:17:23Z</time>
      </trkpt>
      <trkpt lat="45.66897" lon="4.34255">
        <ele>562.6</ele>
        <time>2023-02-19T11:17:24Z</time>
      </trkpt>
      <trkpt lat="45.66896" lon="4.34257">
        <ele>562.4</ele>
        <time>2023-02-19T11:17:25Z</time>
      </trkpt>
      <trkpt lat="45.66895" lon="4.34258">
        <ele>562.3</ele>
        <time>2023-02-19T11:17:26Z</time>
      </trkpt>
      <trkpt lat="45.66894" lon="4.34258">
        <ele>562.3</ele>
        <time>2023-02-19T11:17:27Z</time>
      </trkpt>
      <trkpt lat="45.66893" lon="4.3426">
        <ele>562.1</ele>
        <time>2023-02-19T11:17:28Z</time>
      </trkpt>
      <trkpt lat="45.66892" lon="4.34262">
        <ele>561.9</ele>
        <time>2023-02-19T11:17:29Z</time>
      </trkpt>
      <trkpt lat="45.6689" lon="4.34263">
        <ele>561.8</ele>
        <time>2023-02-19T11:17:30Z</time>
      </trkpt>
      <trkpt lat="45.66888" lon="4.34265">
        <ele>561.6</ele>
        <time>2023-02-19T11:17:32Z</time>
      </trkpt>
      <trkpt lat="45.66887" lon="4.34267">
        <ele>561.4</ele>
        <time>2023-02-19T11:17:33Z</time>
      </trkpt>
      <trkpt lat="45.66886" lon="4.34269">
        <ele>561.3</ele>
        <time>2023-02-19T11:17:34Z</time>
      </trkpt>
      <trkpt lat="45.66884" lon="4.34272">
        <ele>561.1</ele>
        <time>2023-02-19T11:17:35Z</time>
      </trkpt>
      <trkpt lat="45.66883" lon="4.34273">
        <ele>561</ele>
        <time>2023-02-19T11:17:36Z</time>
      </trkpt>
      <trkpt lat="45.66881" lon="4.34276">
        <ele>560.9</ele>
        <time>2023-02-19T11:17:37Z</time>
      </trkpt>
      <trkpt lat="45.66881" lon="4.34277">
        <ele>560.8</ele>
        <time>2023-02-19T11:17:38Z</time>
      </trkpt>
      <trkpt lat="45.6688" lon="4.34279">
        <ele>560.7</ele>
        <time>2023-02-19T11:17:39Z</time>
      </trkpt>
      <trkpt lat="45.66879" lon="4.34281">
        <ele>560.6</ele>
        <time>2023-02-19T11:17:40Z</time>
      </trkpt>
      <trkpt lat="45.66877" lon="4.34285">
        <ele>560.4</ele>
        <time>2023-02-19T11:17:41Z</time>
      </trkpt>
      <trkpt lat="45.66876" lon="4.34286">
        <ele>560.3</ele>
        <time>2023-02-19T11:17:42Z</time>
      </trkpt>
      <trkpt lat="45.66875" lon="4.34287">
        <ele>560.2</ele>
        <time>2023-02-19T11:17:43Z</time>
      </trkpt>
      <trkpt lat="45.66874" lon="4.34288">
        <ele>560.2</ele>
        <time>2023-02-19T11:17:44Z</time>
      </trkpt>
      <trkpt lat="45.66873" lon="4.3429">
        <ele>560.1</ele>
        <time>2023-02-19T11:17:45Z</time>
      </trkpt>
      <trkpt lat="45.66872" lon="4.34291">
        <ele>560</ele>
        <time>2023-02-19T11:17:47Z</time>
      </trkpt>
      <trkpt lat="45.66872" lon="4.34292">
        <ele>559.9</ele>
        <time>2023-02-19T11:17:48Z</time>
      </trkpt>
      <trkpt lat="45.66871" lon="4.34293">
        <ele>559.8</ele>
        <time>2023-02-19T11:17:49Z</time>
      </trkpt>
      <trkpt lat="45.6687" lon="4.34295">
        <ele>559.7</ele>
        <time>2023-02-19T11:17:50Z</time>
      </trkpt>
      <trkpt lat="45.66869" lon="4.34296">
        <ele>559.6</ele>
        <time>2023-02-19T11:17:51Z</time>
      </trkpt>
      <trkpt lat="45.66868" lon="4.34297">
        <ele>559.5</ele>
        <time>2023-02-19T11:17:52Z</time>
      </trkpt>
      <trkpt lat="45.66866" lon="4.34299">
        <ele>559.4</ele>
        <time>2023-02-19T11:17:54Z</time>
      </trkpt>
      <trkpt lat="45.66865" lon="4.34299">
        <ele>559.3</ele>
        <time>2023-02-19T11:17:56Z</time>
      </trkpt>
      <trkpt lat="45.66865" lon="4.343">
        <ele>559.2</ele>
        <time>2023-02-19T11:17:57Z</time>
      </trkpt>
      <trkpt lat="45.66864" lon="4.34301">
        <ele>559.2</ele>
        <time>2023-02-19T11:17:58Z</time>
      </trkpt>
      <trkpt lat="45.66863" lon="4.34302">
        <ele>559.1</ele>
        <time>2023-02-19T11:17:59Z</time>
      </trkpt>
      <trkpt lat="45.66861" lon="4.34303">
        <ele>558.9</ele>
        <time>2023-02-19T11:18:01Z</time>
      </trkpt>
      <trkpt lat="45.6686" lon="4.34304">
        <ele>558.8</ele>
        <time>2023-02-19T11:18:02Z</time>
      </trkpt>
      <trkpt lat="45.66859" lon="4.34306">
        <ele>558.6</ele>
        <time>2023-02-19T11:18:03Z</time>
      </trkpt>
      <trkpt lat="45.66856" lon="4.34309">
        <ele>558.4</ele>
        <time>2023-02-19T11:18:04Z</time>
      </trkpt>
      <trkpt lat="45.66856" lon="4.34309">
        <ele>558.3</ele>
        <time>2023-02-19T11:18:05Z</time>
      </trkpt>
      <trkpt lat="45.66854" lon="4.34311">
        <ele>558.2</ele>
        <time>2023-02-19T11:18:06Z</time>
      </trkpt>
      <trkpt lat="45.66853" lon="4.34313">
        <ele>558</ele>
        <time>2023-02-19T11:18:07Z</time>
      </trkpt>
      <trkpt lat="45.66852" lon="4.34314">
        <ele>557.9</ele>
        <time>2023-02-19T11:18:08Z</time>
      </trkpt>
      <trkpt lat="45.6685" lon="4.34317">
        <ele>557.6</ele>
        <time>2023-02-19T11:18:10Z</time>
      </trkpt>
      <trkpt lat="45.66849" lon="4.34319">
        <ele>557.5</ele>
        <time>2023-02-19T11:18:11Z</time>
      </trkpt>
      <trkpt lat="45.66848" lon="4.34321">
        <ele>557.4</ele>
        <time>2023-02-19T11:18:12Z</time>
      </trkpt>
      <trkpt lat="45.66846" lon="4.34322">
        <ele>557.2</ele>
        <time>2023-02-19T11:18:13Z</time>
      </trkpt>
      <trkpt lat="45.66845" lon="4.34323">
        <ele>557.2</ele>
        <time>2023-02-19T11:18:14Z</time>
      </trkpt>
      <trkpt lat="45.66845" lon="4.34323">
        <ele>557.1</ele>
        <time>2023-02-19T11:18:15Z</time>
      </trkpt>
      <trkpt lat="45.66843" lon="4.34324">
        <ele>557</ele>
        <time>2023-02-19T11:18:16Z</time>
      </trkpt>
      <trkpt lat="45.66842" lon="4.34325">
        <ele>556.9</ele>
        <time>2023-02-19T11:18:17Z</time>
      </trkpt>
      <trkpt lat="45.6684" lon="4.34327">
        <ele>556.8</ele>
        <time>2023-02-19T11:18:18Z</time>
      </trkpt>
      <trkpt lat="45.66839" lon="4.34328">
        <ele>556.7</ele>
        <time>2023-02-19T11:18:20Z</time>
      </trkpt>
      <trkpt lat="45.66837" lon="4.34329">
        <ele>556.7</ele>
        <time>2023-02-19T11:18:21Z</time>
      </trkpt>
      <trkpt lat="45.66836" lon="4.34331">
        <ele>556.6</ele>
        <time>2023-02-19T11:18:22Z</time>
      </trkpt>
      <trkpt lat="45.66835" lon="4.34333">
        <ele>556.5</ele>
        <time>2023-02-19T11:18:23Z</time>
      </trkpt>
      <trkpt lat="45.66834" lon="4.34334">
        <ele>556.5</ele>
        <time>2023-02-19T11:18:24Z</time>
      </trkpt>
      <trkpt lat="45.66833" lon="4.34335">
        <ele>556.5</ele>
        <time>2023-02-19T11:18:25Z</time>
      </trkpt>
      <trkpt lat="45.66832" lon="4.34338">
        <ele>556.4</ele>
        <time>2023-02-19T11:18:26Z</time>
      </trkpt>
      <trkpt lat="45.66831" lon="4.34341">
        <ele>556.4</ele>
        <time>2023-02-19T11:18:28Z</time>
      </trkpt>
      <trkpt lat="45.66831" lon="4.34342">
        <ele>556.4</ele>
        <time>2023-02-19T11:18:29Z</time>
      </trkpt>
      <trkpt lat="45.66831" lon="4.34343">
        <ele>556.4</ele>
        <time>2023-02-19T11:18:30Z</time>
      </trkpt>
      <trkpt lat="45.6683" lon="4.34344">
        <ele>556.3</ele>
        <time>2023-02-19T11:18:31Z</time>
      </trkpt>
      <trkpt lat="45.6683" lon="4.34346">
        <ele>556.3</ele>
        <time>2023-02-19T11:18:32Z</time>
      </trkpt>
      <trkpt lat="45.66829" lon="4.34349">
        <ele>556.3</ele>
        <time>2023-02-19T11:18:34Z</time>
      </trkpt>
      <trkpt lat="45.6683" lon="4.34351">
        <ele>556.3</ele>
        <time>2023-02-19T11:18:35Z</time>
      </trkpt>
      <trkpt lat="45.6683" lon="4.34353">
        <ele>556.2</ele>
        <time>2023-02-19T11:18:36Z</time>
      </trkpt>
      <trkpt lat="45.6683" lon="4.34356">
        <ele>556.2</ele>
        <time>2023-02-19T11:18:37Z</time>
      </trkpt>
      <trkpt lat="45.66831" lon="4.34358">
        <ele>556.2</ele>
        <time>2023-02-19T11:18:38Z</time>
      </trkpt>
      <trkpt lat="45.66832" lon="4.34359">
        <ele>556.2</ele>
        <time>2023-02-19T11:18:39Z</time>
      </trkpt>
      <trkpt lat="45.66832" lon="4.34361">
        <ele>556.2</ele>
        <time>2023-02-19T11:18:40Z</time>
      </trkpt>
      <trkpt lat="45.66833" lon="4.34363">
        <ele>556.2</ele>
        <time>2023-02-19T11:18:41Z</time>
      </trkpt>
      <trkpt lat="45.66834" lon="4.34365">
        <ele>556.2</ele>
        <time>2023-02-19T11:18:43Z</time>
      </trkpt>
      <trkpt lat="45.66836" lon="4.34367">
        <ele>556.2</ele>
        <time>2023-02-19T11:18:44Z</time>
      </trkpt>
      <trkpt lat="45.66837" lon="4.34369">
        <ele>556.2</ele>
        <time>2023-02-19T11:18:45Z</time>
      </trkpt>
      <trkpt lat="45.66838" lon="4.34371">
        <ele>556.2</ele>
        <time>2023-02-19T11:18:47Z</time>
      </trkpt>
      <trkpt lat="45.66839" lon="4.34372">
        <ele>556.2</ele>
        <time>2023-02-19T11:18:48Z</time>
      </trkpt>
      <trkpt lat="45.6684" lon="4.34374">
        <ele>556.2</ele>
        <time>2023-02-19T11:18:49Z</time>
      </trkpt>
      <trkpt lat="45.66841" lon="4.34375">
        <ele>556.2</ele>
        <time>2023-02-19T11:18:50Z</time>
      </trkpt>
      <trkpt lat="45.66843" lon="4.34377">
        <ele>556.2</ele>
        <time>2023-02-19T11:18:51Z</time>
      </trkpt>
      <trkpt lat="45.66845" lon="4.34379">
        <ele>556.2</ele>
        <time>2023-02-19T11:18:53Z</time>
      </trkpt>
      <trkpt lat="45.66847" lon="4.3438">
        <ele>556.2</ele>
        <time>2023-02-19T11:18:54Z</time>
      </trkpt>
      <trkpt lat="45.66848" lon="4.3438">
        <ele>556.1</ele>
        <time>2023-02-19T11:18:55Z</time>
      </trkpt>
      <trkpt lat="45.66851" lon="4.34381">
        <ele>556.1</ele>
        <time>2023-02-19T11:18:56Z</time>
      </trkpt>
      <trkpt lat="45.66852" lon="4.34382">
        <ele>556.1</ele>
        <time>2023-02-19T11:18:57Z</time>
      </trkpt>
      <trkpt lat="45.66853" lon="4.34382">
        <ele>556.1</ele>
        <time>2023-02-19T11:18:58Z</time>
      </trkpt>
      <trkpt lat="45.66854" lon="4.34382">
        <ele>556.1</ele>
        <time>2023-02-19T11:18:59Z</time>
      </trkpt>
      <trkpt lat="45.66856" lon="4.34383">
        <ele>556.1</ele>
        <time>2023-02-19T11:19:01Z</time>
      </trkpt>
      <trkpt lat="45.66857" lon="4.34384">
        <ele>556.1</ele>
        <time>2023-02-19T11:19:02Z</time>
      </trkpt>
      <trkpt lat="45.66858" lon="4.34385">
        <ele>556.1</ele>
        <time>2023-02-19T11:19:03Z</time>
      </trkpt>
      <trkpt lat="45.6686" lon="4.34385">
        <ele>556.1</ele>
        <time>2023-02-19T11:19:04Z</time>
      </trkpt>
      <trkpt lat="45.66861" lon="4.34385">
        <ele>556.1</ele>
        <time>2023-02-19T11:19:05Z</time>
      </trkpt>
      <trkpt lat="45.66863" lon="4.34386">
        <ele>556.1</ele>
        <time>2023-02-19T11:19:06Z</time>
      </trkpt>
      <trkpt lat="45.66865" lon="4.34387">
        <ele>556.1</ele>
        <time>2023-02-19T11:19:08Z</time>
      </trkpt>
      <trkpt lat="45.66867" lon="4.34388">
        <ele>556.1</ele>
        <time>2023-02-19T11:19:09Z</time>
      </trkpt>
      <trkpt lat="45.66868" lon="4.34389">
        <ele>556.2</ele>
        <time>2023-02-19T11:19:10Z</time>
      </trkpt>
      <trkpt lat="45.66868" lon="4.34389">
        <ele>556.2</ele>
        <time>2023-02-19T11:19:11Z</time>
      </trkpt>
      <trkpt lat="45.66871" lon="4.3439">
        <ele>556.2</ele>
        <time>2023-02-19T11:19:12Z</time>
      </trkpt>
      <trkpt lat="45.66871" lon="4.3439">
        <ele>556.2</ele>
        <time>2023-02-19T11:19:13Z</time>
      </trkpt>
      <trkpt lat="45.66872" lon="4.3439">
        <ele>556.2</ele>
        <time>2023-02-19T11:19:14Z</time>
      </trkpt>
      <trkpt lat="45.66874" lon="4.34391">
        <ele>556.2</ele>
        <time>2023-02-19T11:19:16Z</time>
      </trkpt>
      <trkpt lat="45.66876" lon="4.34391">
        <ele>556.2</ele>
        <time>2023-02-19T11:19:18Z</time>
      </trkpt>
      <trkpt lat="45.66877" lon="4.34391">
        <ele>556.3</ele>
        <time>2023-02-19T11:19:19Z</time>
      </trkpt>
      <trkpt lat="45.66878" lon="4.34391">
        <ele>556.3</ele>
        <time>2023-02-19T11:19:20Z</time>
      </trkpt>
      <trkpt lat="45.66879" lon="4.34391">
        <ele>556.3</ele>
        <time>2023-02-19T11:19:21Z</time>
      </trkpt>
      <trkpt lat="45.66881" lon="4.34391">
        <ele>556.3</ele>
        <time>2023-02-19T11:19:23Z</time>
      </trkpt>
      <trkpt lat="45.66882" lon="4.34392">
        <ele>556.3</ele>
        <time>2023-02-19T11:19:24Z</time>
      </trkpt>
      <trkpt lat="45.66884" lon="4.34392">
        <ele>556.3</ele>
        <time>2023-02-19T11:19:25Z</time>
      </trkpt>
      <trkpt lat="45.66885" lon="4.34392">
        <ele>556.4</ele>
        <time>2023-02-19T11:19:26Z</time>
      </trkpt>
      <trkpt lat="45.66887" lon="4.34393">
        <ele>556.4</ele>
        <time>2023-02-19T11:19:28Z</time>
      </trkpt>
      <trkpt lat="45.66889" lon="4.34393">
        <ele>556.4</ele>
        <time>2023-02-19T11:19:29Z</time>
      </trkpt>
      <trkpt lat="45.6689" lon="4.34393">
        <ele>556.4</ele>
        <time>2023-02-19T11:19:30Z</time>
      </trkpt>
      <trkpt lat="45.66891" lon="4.34393">
        <ele>556.4</ele>
        <time>2023-02-19T11:19:31Z</time>
      </trkpt>
      <trkpt lat="45.66892" lon="4.34392">
        <ele>556.4</ele>
        <time>2023-02-19T11:19:32Z</time>
      </trkpt>
      <trkpt lat="45.66894" lon="4.34392">
        <ele>556.4</ele>
        <time>2023-02-19T11:19:33Z</time>
      </trkpt>
      <trkpt lat="45.66896" lon="4.34391">
        <ele>556.5</ele>
        <time>2023-02-19T11:19:34Z</time>
      </trkpt>
      <trkpt lat="45.66897" lon="4.34391">
        <ele>556.5</ele>
        <time>2023-02-19T11:19:35Z</time>
      </trkpt>
      <trkpt lat="45.669" lon="4.3439">
        <ele>556.5</ele>
        <time>2023-02-19T11:19:36Z</time>
      </trkpt>
      <trkpt lat="45.66901" lon="4.3439">
        <ele>556.5</ele>
        <time>2023-02-19T11:19:38Z</time>
      </trkpt>
      <trkpt lat="45.66902" lon="4.3439">
        <ele>556.5</ele>
        <time>2023-02-19T11:19:39Z</time>
      </trkpt>
      <trkpt lat="45.66903" lon="4.3439">
        <ele>556.5</ele>
        <time>2023-02-19T11:19:40Z</time>
      </trkpt>
      <trkpt lat="45.66904" lon="4.3439">
        <ele>556.5</ele>
        <time>2023-02-19T11:19:41Z</time>
      </trkpt>
      <trkpt lat="45.66905" lon="4.34389">
        <ele>556.5</ele>
        <time>2023-02-19T11:19:42Z</time>
      </trkpt>
      <trkpt lat="45.66907" lon="4.34389">
        <ele>556.5</ele>
        <time>2023-02-19T11:19:43Z</time>
      </trkpt>
      <trkpt lat="45.66909" lon="4.34389">
        <ele>556.6</ele>
        <time>2023-02-19T11:19:45Z</time>
      </trkpt>
      <trkpt lat="45.6691" lon="4.34389">
        <ele>556.6</ele>
        <time>2023-02-19T11:19:46Z</time>
      </trkpt>
      <trkpt lat="45.66912" lon="4.3439">
        <ele>556.6</ele>
        <time>2023-02-19T11:19:47Z</time>
      </trkpt>
      <trkpt lat="45.66914" lon="4.3439">
        <ele>556.6</ele>
        <time>2023-02-19T11:19:48Z</time>
      </trkpt>
      <trkpt lat="45.66915" lon="4.3439">
        <ele>556.6</ele>
        <time>2023-02-19T11:19:49Z</time>
      </trkpt>
      <trkpt lat="45.66917" lon="4.3439">
        <ele>556.6</ele>
        <time>2023-02-19T11:19:50Z</time>
      </trkpt>
      <trkpt lat="45.66919" lon="4.3439">
        <ele>556.7</ele>
        <time>2023-02-19T11:19:51Z</time>
      </trkpt>
      <trkpt lat="45.6692" lon="4.3439">
        <ele>556.7</ele>
        <time>2023-02-19T11:19:52Z</time>
      </trkpt>
      <trkpt lat="45.66921" lon="4.3439">
        <ele>556.7</ele>
        <time>2023-02-19T11:19:53Z</time>
      </trkpt>
      <trkpt lat="45.66923" lon="4.3439">
        <ele>556.7</ele>
        <time>2023-02-19T11:19:54Z</time>
      </trkpt>
      <trkpt lat="45.66925" lon="4.34391">
        <ele>556.8</ele>
        <time>2023-02-19T11:19:55Z</time>
      </trkpt>
      <trkpt lat="45.66928" lon="4.3439">
        <ele>556.9</ele>
        <time>2023-02-19T11:19:57Z</time>
      </trkpt>
      <trkpt lat="45.66929" lon="4.3439">
        <ele>556.9</ele>
        <time>2023-02-19T11:19:58Z</time>
      </trkpt>
      <trkpt lat="45.6693" lon="4.3439">
        <ele>556.9</ele>
        <time>2023-02-19T11:19:59Z</time>
      </trkpt>
      <trkpt lat="45.66932" lon="4.3439">
        <ele>557</ele>
        <time>2023-02-19T11:20:00Z</time>
      </trkpt>
      <trkpt lat="45.66934" lon="4.3439">
        <ele>557.1</ele>
        <time>2023-02-19T11:20:01Z</time>
      </trkpt>
      <trkpt lat="45.66935" lon="4.34391">
        <ele>557.1</ele>
        <time>2023-02-19T11:20:02Z</time>
      </trkpt>
      <trkpt lat="45.66937" lon="4.34392">
        <ele>557.2</ele>
        <time>2023-02-19T11:20:03Z</time>
      </trkpt>
      <trkpt lat="45.66938" lon="4.34392">
        <ele>557.3</ele>
        <time>2023-02-19T11:20:04Z</time>
      </trkpt>
      <trkpt lat="45.66939" lon="4.34393">
        <ele>557.3</ele>
        <time>2023-02-19T11:20:06Z</time>
      </trkpt>
      <trkpt lat="45.66941" lon="4.34394">
        <ele>557.4</ele>
        <time>2023-02-19T11:20:07Z</time>
      </trkpt>
      <trkpt lat="45.66942" lon="4.34394">
        <ele>557.4</ele>
        <time>2023-02-19T11:20:09Z</time>
      </trkpt>
      <trkpt lat="45.66943" lon="4.34395">
        <ele>557.5</ele>
        <time>2023-02-19T11:20:10Z</time>
      </trkpt>
      <trkpt lat="45.66944" lon="4.34395">
        <ele>557.5</ele>
        <time>2023-02-19T11:20:11Z</time>
      </trkpt>
      <trkpt lat="45.66945" lon="4.34396">
        <ele>557.6</ele>
        <time>2023-02-19T11:20:12Z</time>
      </trkpt>
      <trkpt lat="45.66947" lon="4.34397">
        <ele>557.6</ele>
        <time>2023-02-19T11:20:13Z</time>
      </trkpt>
      <trkpt lat="45.66948" lon="4.34398">
        <ele>557.7</ele>
        <time>2023-02-19T11:20:14Z</time>
      </trkpt>
      <trkpt lat="45.6695" lon="4.344">
        <ele>557.8</ele>
        <time>2023-02-19T11:20:15Z</time>
      </trkpt>
      <trkpt lat="45.66952" lon="4.34401">
        <ele>557.9</ele>
        <time>2023-02-19T11:20:17Z</time>
      </trkpt>
      <trkpt lat="45.66955" lon="4.34402">
        <ele>558</ele>
        <time>2023-02-19T11:20:18Z</time>
      </trkpt>
      <trkpt lat="45.66956" lon="4.34403">
        <ele>558.1</ele>
        <time>2023-02-19T11:20:19Z</time>
      </trkpt>
      <trkpt lat="45.66959" lon="4.34404">
        <ele>558.2</ele>
        <time>2023-02-19T11:20:20Z</time>
      </trkpt>
      <trkpt lat="45.6696" lon="4.34404">
        <ele>558.3</ele>
        <time>2023-02-19T11:20:21Z</time>
      </trkpt>
      <trkpt lat="45.66962" lon="4.34405">
        <ele>558.4</ele>
        <time>2023-02-19T11:20:22Z</time>
      </trkpt>
      <trkpt lat="45.66964" lon="4.34407">
        <ele>558.5</ele>
        <time>2023-02-19T11:20:24Z</time>
      </trkpt>
      <trkpt lat="45.66965" lon="4.34409">
        <ele>558.6</ele>
        <time>2023-02-19T11:20:25Z</time>
      </trkpt>
      <trkpt lat="45.66966" lon="4.3441">
        <ele>558.7</ele>
        <time>2023-02-19T11:20:26Z</time>
      </trkpt>
      <trkpt lat="45.66967" lon="4.34411">
        <ele>558.8</ele>
        <time>2023-02-19T11:20:27Z</time>
      </trkpt>
      <trkpt lat="45.66969" lon="4.34412">
        <ele>558.9</ele>
        <time>2023-02-19T11:20:28Z</time>
      </trkpt>
      <trkpt lat="45.6697" lon="4.34413">
        <ele>559</ele>
        <time>2023-02-19T11:20:29Z</time>
      </trkpt>
      <trkpt lat="45.66971" lon="4.34414">
        <ele>559.1</ele>
        <time>2023-02-19T11:20:30Z</time>
      </trkpt>
      <trkpt lat="45.66972" lon="4.34414">
        <ele>559.2</ele>
        <time>2023-02-19T11:20:31Z</time>
      </trkpt>
      <trkpt lat="45.66973" lon="4.34416">
        <ele>559.3</ele>
        <time>2023-02-19T11:20:32Z</time>
      </trkpt>
      <trkpt lat="45.66974" lon="4.34417">
        <ele>559.4</ele>
        <time>2023-02-19T11:20:34Z</time>
      </trkpt>
      <trkpt lat="45.66975" lon="4.34418">
        <ele>559.5</ele>
        <time>2023-02-19T11:20:35Z</time>
      </trkpt>
      <trkpt lat="45.66976" lon="4.34419">
        <ele>559.6</ele>
        <time>2023-02-19T11:20:36Z</time>
      </trkpt>
      <trkpt lat="45.66977" lon="4.3442">
        <ele>559.6</ele>
        <time>2023-02-19T11:20:37Z</time>
      </trkpt>
      <trkpt lat="45.66978" lon="4.34421">
        <ele>559.7</ele>
        <time>2023-02-19T11:20:38Z</time>
      </trkpt>
      <trkpt lat="45.66979" lon="4.34422">
        <ele>559.8</ele>
        <time>2023-02-19T11:20:39Z</time>
      </trkpt>
      <trkpt lat="45.6698" lon="4.34423">
        <ele>559.9</ele>
        <time>2023-02-19T11:20:40Z</time>
      </trkpt>
      <trkpt lat="45.66981" lon="4.34425">
        <ele>560.1</ele>
        <time>2023-02-19T11:20:42Z</time>
      </trkpt>
      <trkpt lat="45.66982" lon="4.34426">
        <ele>560.2</ele>
        <time>2023-02-19T11:20:43Z</time>
      </trkpt>
      <trkpt lat="45.66984" lon="4.34427">
        <ele>560.5</ele>
        <time>2023-02-19T11:20:44Z</time>
      </trkpt>
      <trkpt lat="45.66985" lon="4.34428">
        <ele>560.6</ele>
        <time>2023-02-19T11:20:45Z</time>
      </trkpt>
      <trkpt lat="45.66986" lon="4.34428">
        <ele>560.7</ele>
        <time>2023-02-19T11:20:46Z</time>
      </trkpt>
      <trkpt lat="45.66987" lon="4.34429">
        <ele>561</ele>
        <time>2023-02-19T11:20:47Z</time>
      </trkpt>
      <trkpt lat="45.66988" lon="4.3443">
        <ele>561.2</ele>
        <time>2023-02-19T11:20:49Z</time>
      </trkpt>
      <trkpt lat="45.6699" lon="4.34431">
        <ele>561.4</ele>
        <time>2023-02-19T11:20:50Z</time>
      </trkpt>
      <trkpt lat="45.66991" lon="4.34433">
        <ele>561.6</ele>
        <time>2023-02-19T11:20:51Z</time>
      </trkpt>
      <trkpt lat="45.66993" lon="4.34434">
        <ele>561.9</ele>
        <time>2023-02-19T11:20:52Z</time>
      </trkpt>
      <trkpt lat="45.66994" lon="4.34435">
        <ele>562.2</ele>
        <time>2023-02-19T11:20:53Z</time>
      </trkpt>
      <trkpt lat="45.66995" lon="4.34437">
        <ele>562.4</ele>
        <time>2023-02-19T11:20:54Z</time>
      </trkpt>
      <trkpt lat="45.66997" lon="4.34438">
        <ele>562.6</ele>
        <time>2023-02-19T11:20:55Z</time>
      </trkpt>
      <trkpt lat="45.66998" lon="4.3444">
        <ele>562.9</ele>
        <time>2023-02-19T11:20:57Z</time>
      </trkpt>
      <trkpt lat="45.66999" lon="4.34441">
        <ele>563.1</ele>
        <time>2023-02-19T11:20:58Z</time>
      </trkpt>
      <trkpt lat="45.67001" lon="4.34442">
        <ele>563.4</ele>
        <time>2023-02-19T11:20:59Z</time>
      </trkpt>
      <trkpt lat="45.67002" lon="4.34443">
        <ele>563.6</ele>
        <time>2023-02-19T11:21:01Z</time>
      </trkpt>
      <trkpt lat="45.67003" lon="4.34444">
        <ele>563.8</ele>
        <time>2023-02-19T11:21:02Z</time>
      </trkpt>
      <trkpt lat="45.67004" lon="4.34444">
        <ele>563.9</ele>
        <time>2023-02-19T11:21:03Z</time>
      </trkpt>
      <trkpt lat="45.67005" lon="4.34445">
        <ele>564.1</ele>
        <time>2023-02-19T11:21:04Z</time>
      </trkpt>
      <trkpt lat="45.67007" lon="4.34446">
        <ele>564.3</ele>
        <time>2023-02-19T11:21:05Z</time>
      </trkpt>
      <trkpt lat="45.67008" lon="4.34448">
        <ele>564.5</ele>
        <time>2023-02-19T11:21:06Z</time>
      </trkpt>
      <trkpt lat="45.6701" lon="4.34449">
        <ele>564.8</ele>
        <time>2023-02-19T11:21:08Z</time>
      </trkpt>
      <trkpt lat="45.67011" lon="4.3445">
        <ele>565</ele>
        <time>2023-02-19T11:21:09Z</time>
      </trkpt>
      <trkpt lat="45.67012" lon="4.34451">
        <ele>565.2</ele>
        <time>2023-02-19T11:21:10Z</time>
      </trkpt>
      <trkpt lat="45.67014" lon="4.34452">
        <ele>565.4</ele>
        <time>2023-02-19T11:21:11Z</time>
      </trkpt>
      <trkpt lat="45.67015" lon="4.34452">
        <ele>565.6</ele>
        <time>2023-02-19T11:21:12Z</time>
      </trkpt>
      <trkpt lat="45.67016" lon="4.34453">
        <ele>565.7</ele>
        <time>2023-02-19T11:21:13Z</time>
      </trkpt>
      <trkpt lat="45.67017" lon="4.34454">
        <ele>565.9</ele>
        <time>2023-02-19T11:21:15Z</time>
      </trkpt>
      <trkpt lat="45.67019" lon="4.34455">
        <ele>566.2</ele>
        <time>2023-02-19T11:21:16Z</time>
      </trkpt>
      <trkpt lat="45.6702" lon="4.34456">
        <ele>566.3</ele>
        <time>2023-02-19T11:21:17Z</time>
      </trkpt>
      <trkpt lat="45.67021" lon="4.34456">
        <ele>566.4</ele>
        <time>2023-02-19T11:21:18Z</time>
      </trkpt>
      <trkpt lat="45.67022" lon="4.34457">
        <ele>566.6</ele>
        <time>2023-02-19T11:21:19Z</time>
      </trkpt>
      <trkpt lat="45.67023" lon="4.34457">
        <ele>566.7</ele>
        <time>2023-02-19T11:21:20Z</time>
      </trkpt>
      <trkpt lat="45.67024" lon="4.34458">
        <ele>566.9</ele>
        <time>2023-02-19T11:21:21Z</time>
      </trkpt>
      <trkpt lat="45.67025" lon="4.34459">
        <ele>567.1</ele>
        <time>2023-02-19T11:21:22Z</time>
      </trkpt>
      <trkpt lat="45.67027" lon="4.3446">
        <ele>567.3</ele>
        <time>2023-02-19T11:21:24Z</time>
      </trkpt>
      <trkpt lat="45.67028" lon="4.34461">
        <ele>567.5</ele>
        <time>2023-02-19T11:21:25Z</time>
      </trkpt>
      <trkpt lat="45.6703" lon="4.34463">
        <ele>567.7</ele>
        <time>2023-02-19T11:21:26Z</time>
      </trkpt>
      <trkpt lat="45.6703" lon="4.34463">
        <ele>567.8</ele>
        <time>2023-02-19T11:21:27Z</time>
      </trkpt>
      <trkpt lat="45.67031" lon="4.34464">
        <ele>568</ele>
        <time>2023-02-19T11:21:28Z</time>
      </trkpt>
      <trkpt lat="45.67032" lon="4.34465">
        <ele>568.1</ele>
        <time>2023-02-19T11:21:30Z</time>
      </trkpt>
      <trkpt lat="45.67033" lon="4.34466">
        <ele>568.3</ele>
        <time>2023-02-19T11:21:31Z</time>
      </trkpt>
      <trkpt lat="45.67034" lon="4.34467">
        <ele>568.5</ele>
        <time>2023-02-19T11:21:32Z</time>
      </trkpt>
      <trkpt lat="45.67035" lon="4.34467">
        <ele>568.6</ele>
        <time>2023-02-19T11:21:33Z</time>
      </trkpt>
      <trkpt lat="45.67036" lon="4.34468">
        <ele>568.8</ele>
        <time>2023-02-19T11:21:35Z</time>
      </trkpt>
      <trkpt lat="45.67037" lon="4.34469">
        <ele>568.9</ele>
        <time>2023-02-19T11:21:36Z</time>
      </trkpt>
      <trkpt lat="45.67038" lon="4.3447">
        <ele>569.1</ele>
        <time>2023-02-19T11:21:37Z</time>
      </trkpt>
      <trkpt lat="45.67039" lon="4.34471">
        <ele>569.2</ele>
        <time>2023-02-19T11:21:38Z</time>
      </trkpt>
      <trkpt lat="45.6704" lon="4.34472">
        <ele>569.3</ele>
        <time>2023-02-19T11:21:39Z</time>
      </trkpt>
      <trkpt lat="45.6704" lon="4.34473">
        <ele>569.4</ele>
        <time>2023-02-19T11:21:40Z</time>
      </trkpt>
      <trkpt lat="45.67041" lon="4.34475">
        <ele>569.6</ele>
        <time>2023-02-19T11:21:41Z</time>
      </trkpt>
      <trkpt lat="45.67041" lon="4.34475">
        <ele>569.7</ele>
        <time>2023-02-19T11:21:42Z</time>
      </trkpt>
      <trkpt lat="45.67042" lon="4.34477">
        <ele>569.9</ele>
        <time>2023-02-19T11:21:44Z</time>
      </trkpt>
      <trkpt lat="45.67042" lon="4.34478">
        <ele>570</ele>
        <time>2023-02-19T11:21:45Z</time>
      </trkpt>
      <trkpt lat="45.67043" lon="4.3448">
        <ele>570.2</ele>
        <time>2023-02-19T11:21:46Z</time>
      </trkpt>
      <trkpt lat="45.67044" lon="4.34481">
        <ele>570.3</ele>
        <time>2023-02-19T11:21:47Z</time>
      </trkpt>
      <trkpt lat="45.67044" lon="4.34483">
        <ele>570.5</ele>
        <time>2023-02-19T11:21:48Z</time>
      </trkpt>
      <trkpt lat="45.67045" lon="4.34484">
        <ele>570.6</ele>
        <time>2023-02-19T11:21:49Z</time>
      </trkpt>
      <trkpt lat="45.67047" lon="4.34485">
        <ele>570.9</ele>
        <time>2023-02-19T11:21:50Z</time>
      </trkpt>
      <trkpt lat="45.67049" lon="4.34486">
        <ele>571.1</ele>
        <time>2023-02-19T11:21:52Z</time>
      </trkpt>
      <trkpt lat="45.6705" lon="4.34487">
        <ele>571.2</ele>
        <time>2023-02-19T11:21:53Z</time>
      </trkpt>
      <trkpt lat="45.67051" lon="4.34487">
        <ele>571.3</ele>
        <time>2023-02-19T11:21:54Z</time>
      </trkpt>
      <trkpt lat="45.67053" lon="4.34488">
        <ele>571.5</ele>
        <time>2023-02-19T11:21:56Z</time>
      </trkpt>
      <trkpt lat="45.67054" lon="4.34489">
        <ele>571.6</ele>
        <time>2023-02-19T11:21:57Z</time>
      </trkpt>
      <trkpt lat="45.67055" lon="4.34489">
        <ele>571.7</ele>
        <time>2023-02-19T11:21:58Z</time>
      </trkpt>
      <trkpt lat="45.67056" lon="4.34491">
        <ele>571.8</ele>
        <time>2023-02-19T11:21:59Z</time>
      </trkpt>
      <trkpt lat="45.67057" lon="4.34493">
        <ele>572</ele>
        <time>2023-02-19T11:22:00Z</time>
      </trkpt>
      <trkpt lat="45.67058" lon="4.34494">
        <ele>572</ele>
        <time>2023-02-19T11:22:01Z</time>
      </trkpt>
      <trkpt lat="45.67058" lon="4.34495">
        <ele>572.1</ele>
        <time>2023-02-19T11:22:02Z</time>
      </trkpt>
      <trkpt lat="45.67059" lon="4.34497">
        <ele>572.2</ele>
        <time>2023-02-19T11:22:03Z</time>
      </trkpt>
      <trkpt lat="45.6706" lon="4.34499">
        <ele>572.3</ele>
        <time>2023-02-19T11:22:04Z</time>
      </trkpt>
      <trkpt lat="45.6706" lon="4.34501">
        <ele>572.3</ele>
        <time>2023-02-19T11:22:05Z</time>
      </trkpt>
      <trkpt lat="45.67061" lon="4.34505">
        <ele>572.4</ele>
        <time>2023-02-19T11:22:07Z</time>
      </trkpt>
      <trkpt lat="45.67061" lon="4.34507">
        <ele>572.4</ele>
        <time>2023-02-19T11:22:08Z</time>
      </trkpt>
      <trkpt lat="45.67062" lon="4.34509">
        <ele>572.5</ele>
        <time>2023-02-19T11:22:09Z</time>
      </trkpt>
      <trkpt lat="45.67063" lon="4.34513">
        <ele>572.5</ele>
        <time>2023-02-19T11:22:10Z</time>
      </trkpt>
      <trkpt lat="45.67064" lon="4.34514">
        <ele>572.6</ele>
        <time>2023-02-19T11:22:11Z</time>
      </trkpt>
      <trkpt lat="45.67065" lon="4.34517">
        <ele>572.6</ele>
        <time>2023-02-19T11:22:12Z</time>
      </trkpt>
      <trkpt lat="45.67066" lon="4.34519">
        <ele>572.6</ele>
        <time>2023-02-19T11:22:14Z</time>
      </trkpt>
      <trkpt lat="45.67067" lon="4.34521">
        <ele>572.6</ele>
        <time>2023-02-19T11:22:15Z</time>
      </trkpt>
      <trkpt lat="45.67068" lon="4.34523">
        <ele>572.6</ele>
        <time>2023-02-19T11:22:17Z</time>
      </trkpt>
      <trkpt lat="45.67069" lon="4.34525">
        <ele>572.5</ele>
        <time>2023-02-19T11:22:18Z</time>
      </trkpt>
      <trkpt lat="45.6707" lon="4.34526">
        <ele>572.5</ele>
        <time>2023-02-19T11:22:19Z</time>
      </trkpt>
      <trkpt lat="45.6707" lon="4.34527">
        <ele>572.5</ele>
        <time>2023-02-19T11:22:20Z</time>
      </trkpt>
      <trkpt lat="45.67071" lon="4.34529">
        <ele>572.4</ele>
        <time>2023-02-19T11:22:21Z</time>
      </trkpt>
      <trkpt lat="45.67072" lon="4.3453">
        <ele>572.4</ele>
        <time>2023-02-19T11:22:22Z</time>
      </trkpt>
      <trkpt lat="45.67073" lon="4.34532">
        <ele>572.4</ele>
        <time>2023-02-19T11:22:23Z</time>
      </trkpt>
      <trkpt lat="45.67073" lon="4.34533">
        <ele>572.3</ele>
        <time>2023-02-19T11:22:24Z</time>
      </trkpt>
      <trkpt lat="45.67073" lon="4.34534">
        <ele>572.3</ele>
        <time>2023-02-19T11:22:26Z</time>
      </trkpt>
      <trkpt lat="45.67072" lon="4.34534">
        <ele>572.3</ele>
        <time>2023-02-19T11:22:27Z</time>
      </trkpt>
      <trkpt lat="45.67072" lon="4.34535">
        <ele>572.3</ele>
        <time>2023-02-19T11:22:28Z</time>
      </trkpt>
      <trkpt lat="45.67072" lon="4.34535">
        <ele>572.3</ele>
        <time>2023-02-19T11:22:29Z</time>
      </trkpt>
      <trkpt lat="45.67071" lon="4.34536">
        <ele>572.2</ele>
        <time>2023-02-19T11:22:30Z</time>
      </trkpt>
      <trkpt lat="45.67071" lon="4.34537">
        <ele>572.2</ele>
        <time>2023-02-19T11:22:31Z</time>
      </trkpt>
      <trkpt lat="45.67071" lon="4.34538">
        <ele>572.2</ele>
        <time>2023-02-19T11:22:33Z</time>
      </trkpt>
      <trkpt lat="45.67071" lon="4.34538">
        <ele>572.2</ele>
        <time>2023-02-19T11:22:34Z</time>
      </trkpt>
      <trkpt lat="45.67072" lon="4.34539">
        <ele>572.2</ele>
        <time>2023-02-19T11:22:35Z</time>
      </trkpt>
      <trkpt lat="45.67072" lon="4.34539">
        <ele>572.1</ele>
        <time>2023-02-19T11:22:36Z</time>
      </trkpt>
      <trkpt lat="45.67073" lon="4.3454">
        <ele>572.1</ele>
        <time>2023-02-19T11:22:38Z</time>
      </trkpt>
      <trkpt lat="45.67073" lon="4.3454">
        <ele>572.1</ele>
        <time>2023-02-19T11:22:39Z</time>
      </trkpt>
      <trkpt lat="45.67073" lon="4.3454">
        <ele>572.1</ele>
        <time>2023-02-19T11:22:41Z</time>
      </trkpt>
      <trkpt lat="45.67073" lon="4.3454">
        <ele>572.1</ele>
        <time>2023-02-19T11:22:42Z</time>
      </trkpt>
      <trkpt lat="45.67073" lon="4.3454">
        <ele>572.1</ele>
        <time>2023-02-19T11:22:43Z</time>
      </trkpt>
      <trkpt lat="45.67073" lon="4.34541">
        <ele>572.1</ele>
        <time>2023-02-19T11:22:44Z</time>
      </trkpt>
      <trkpt lat="45.67073" lon="4.34541">
        <ele>572.1</ele>
        <time>2023-02-19T11:22:45Z</time>
      </trkpt>
      <trkpt lat="45.67073" lon="4.34541">
        <ele>572.1</ele>
        <time>2023-02-19T11:22:47Z</time>
      </trkpt>
      <trkpt lat="45.67073" lon="4.34541">
        <ele>572.1</ele>
        <time>2023-02-19T11:22:48Z</time>
      </trkpt>
      <trkpt lat="45.67073" lon="4.34541">
        <ele>572.1</ele>
        <time>2023-02-19T11:22:49Z</time>
      </trkpt>
      <trkpt lat="45.67074" lon="4.34541">
        <ele>572</ele>
        <time>2023-02-19T11:22:50Z</time>
      </trkpt>
      <trkpt lat="45.67074" lon="4.34541">
        <ele>572</ele>
        <time>2023-02-19T11:22:51Z</time>
      </trkpt>
      <trkpt lat="45.67075" lon="4.3454">
        <ele>572</ele>
        <time>2023-02-19T11:22:52Z</time>
      </trkpt>
      <trkpt lat="45.67075" lon="4.3454">
        <ele>572</ele>
        <time>2023-02-19T11:22:53Z</time>
      </trkpt>
      <trkpt lat="45.67075" lon="4.34539">
        <ele>572</ele>
        <time>2023-02-19T11:22:54Z</time>
      </trkpt>
      <trkpt lat="45.67075" lon="4.34538">
        <ele>572</ele>
        <time>2023-02-19T11:22:55Z</time>
      </trkpt>
      <trkpt lat="45.67075" lon="4.34538">
        <ele>572</ele>
        <time>2023-02-19T11:22:56Z</time>
      </trkpt>
      <trkpt lat="45.67076" lon="4.34537">
        <ele>571.9</ele>
        <time>2023-02-19T11:22:57Z</time>
      </trkpt>
      <trkpt lat="45.67076" lon="4.34537">
        <ele>571.9</ele>
        <time>2023-02-19T11:22:58Z</time>
      </trkpt>
      <trkpt lat="45.67076" lon="4.34537">
        <ele>571.9</ele>
        <time>2023-02-19T11:22:59Z</time>
      </trkpt>
      <trkpt lat="45.67077" lon="4.34537">
        <ele>571.9</ele>
        <time>2023-02-19T11:23:00Z</time>
      </trkpt>
      <trkpt lat="45.67077" lon="4.34537">
        <ele>571.9</ele>
        <time>2023-02-19T11:23:01Z</time>
      </trkpt>
      <trkpt lat="45.67077" lon="4.34538">
        <ele>571.9</ele>
        <time>2023-02-19T11:23:02Z</time>
      </trkpt>
      <trkpt lat="45.67077" lon="4.34538">
        <ele>571.9</ele>
        <time>2023-02-19T11:23:03Z</time>
      </trkpt>
      <trkpt lat="45.67078" lon="4.34538">
        <ele>571.9</ele>
        <time>2023-02-19T11:23:04Z</time>
      </trkpt>
      <trkpt lat="45.67078" lon="4.34538">
        <ele>571.9</ele>
        <time>2023-02-19T11:23:05Z</time>
      </trkpt>
      <trkpt lat="45.67078" lon="4.34538">
        <ele>571.9</ele>
        <time>2023-02-19T11:23:06Z</time>
      </trkpt>
      <trkpt lat="45.67078" lon="4.34538">
        <ele>571.9</ele>
        <time>2023-02-19T11:23:07Z</time>
      </trkpt>
      <trkpt lat="45.67079" lon="4.34538">
        <ele>571.9</ele>
        <time>2023-02-19T11:23:08Z</time>
      </trkpt>
      <trkpt lat="45.67079" lon="4.34538">
        <ele>571.8</ele>
        <time>2023-02-19T11:23:09Z</time>
      </trkpt>
      <trkpt lat="45.67079" lon="4.34538">
        <ele>571.8</ele>
        <time>2023-02-19T11:23:10Z</time>
      </trkpt>
      <trkpt lat="45.6708" lon="4.34539">
        <ele>571.8</ele>
        <time>2023-02-19T11:23:11Z</time>
      </trkpt>
      <trkpt lat="45.67082" lon="4.34544">
        <ele>571.7</ele>
        <time>2023-02-19T11:23:13Z</time>
      </trkpt>
      <trkpt lat="45.67082" lon="4.34547">
        <ele>571.6</ele>
        <time>2023-02-19T11:23:15Z</time>
      </trkpt>
      <trkpt lat="45.67082" lon="4.34549">
        <ele>571.6</ele>
        <time>2023-02-19T11:23:16Z</time>
      </trkpt>
      <trkpt lat="45.67082" lon="4.34551">
        <ele>571.5</ele>
        <time>2023-02-19T11:23:17Z</time>
      </trkpt>
      <trkpt lat="45.67083" lon="4.34554">
        <ele>571.4</ele>
        <time>2023-02-19T11:23:18Z</time>
      </trkpt>
      <trkpt lat="45.67083" lon="4.34555">
        <ele>571.4</ele>
        <time>2023-02-19T11:23:19Z</time>
      </trkpt>
      <trkpt lat="45.67084" lon="4.34556">
        <ele>571.4</ele>
        <time>2023-02-19T11:23:20Z</time>
      </trkpt>
      <trkpt lat="45.67085" lon="4.34559">
        <ele>571.3</ele>
        <time>2023-02-19T11:23:22Z</time>
      </trkpt>
      <trkpt lat="45.67086" lon="4.34561">
        <ele>571.2</ele>
        <time>2023-02-19T11:23:24Z</time>
      </trkpt>
      <trkpt lat="45.67087" lon="4.34562">
        <ele>571.2</ele>
        <time>2023-02-19T11:23:25Z</time>
      </trkpt>
      <trkpt lat="45.67088" lon="4.34563">
        <ele>571.1</ele>
        <time>2023-02-19T11:23:26Z</time>
      </trkpt>
      <trkpt lat="45.67088" lon="4.34564">
        <ele>571.1</ele>
        <time>2023-02-19T11:23:27Z</time>
      </trkpt>
      <trkpt lat="45.67089" lon="4.34565">
        <ele>571.1</ele>
        <time>2023-02-19T11:23:28Z</time>
      </trkpt>
      <trkpt lat="45.67091" lon="4.34566">
        <ele>571.1</ele>
        <time>2023-02-19T11:23:29Z</time>
      </trkpt>
      <trkpt lat="45.67093" lon="4.34568">
        <ele>571</ele>
        <time>2023-02-19T11:23:31Z</time>
      </trkpt>
      <trkpt lat="45.67094" lon="4.34569">
        <ele>571</ele>
        <time>2023-02-19T11:23:32Z</time>
      </trkpt>
      <trkpt lat="45.67096" lon="4.3457">
        <ele>570.9</ele>
        <time>2023-02-19T11:23:33Z</time>
      </trkpt>
      <trkpt lat="45.67097" lon="4.34569">
        <ele>570.9</ele>
        <time>2023-02-19T11:23:34Z</time>
      </trkpt>
      <trkpt lat="45.67099" lon="4.34569">
        <ele>570.9</ele>
        <time>2023-02-19T11:23:35Z</time>
      </trkpt>
      <trkpt lat="45.671" lon="4.34569">
        <ele>570.8</ele>
        <time>2023-02-19T11:23:36Z</time>
      </trkpt>
      <trkpt lat="45.67101" lon="4.34569">
        <ele>570.8</ele>
        <time>2023-02-19T11:23:38Z</time>
      </trkpt>
      <trkpt lat="45.67102" lon="4.34569">
        <ele>570.8</ele>
        <time>2023-02-19T11:23:39Z</time>
      </trkpt>
      <trkpt lat="45.67103" lon="4.34569">
        <ele>570.8</ele>
        <time>2023-02-19T11:23:40Z</time>
      </trkpt>
      <trkpt lat="45.67105" lon="4.3457">
        <ele>570.7</ele>
        <time>2023-02-19T11:23:41Z</time>
      </trkpt>
      <trkpt lat="45.67107" lon="4.3457">
        <ele>570.7</ele>
        <time>2023-02-19T11:23:42Z</time>
      </trkpt>
      <trkpt lat="45.67108" lon="4.3457">
        <ele>570.7</ele>
        <time>2023-02-19T11:23:43Z</time>
      </trkpt>
      <trkpt lat="45.67108" lon="4.3457">
        <ele>570.6</ele>
        <time>2023-02-19T11:23:44Z</time>
      </trkpt>
      <trkpt lat="45.6711" lon="4.3457">
        <ele>570.6</ele>
        <time>2023-02-19T11:23:45Z</time>
      </trkpt>
      <trkpt lat="45.67111" lon="4.3457">
        <ele>570.6</ele>
        <time>2023-02-19T11:23:46Z</time>
      </trkpt>
      <trkpt lat="45.67113" lon="4.34569">
        <ele>570.5</ele>
        <time>2023-02-19T11:23:47Z</time>
      </trkpt>
      <trkpt lat="45.67114" lon="4.34569">
        <ele>570.5</ele>
        <time>2023-02-19T11:23:48Z</time>
      </trkpt>
      <trkpt lat="45.67116" lon="4.34568">
        <ele>570.5</ele>
        <time>2023-02-19T11:23:50Z</time>
      </trkpt>
      <trkpt lat="45.67118" lon="4.34567">
        <ele>570.4</ele>
        <time>2023-02-19T11:23:51Z</time>
      </trkpt>
      <trkpt lat="45.67121" lon="4.34566">
        <ele>570.4</ele>
        <time>2023-02-19T11:23:52Z</time>
      </trkpt>
      <trkpt lat="45.67121" lon="4.34566">
        <ele>570.4</ele>
        <time>2023-02-19T11:23:53Z</time>
      </trkpt>
      <trkpt lat="45.67122" lon="4.34565">
        <ele>570.3</ele>
        <time>2023-02-19T11:23:54Z</time>
      </trkpt>
      <trkpt lat="45.67125" lon="4.34564">
        <ele>570.3</ele>
        <time>2023-02-19T11:23:56Z</time>
      </trkpt>
      <trkpt lat="45.67126" lon="4.34563">
        <ele>570.3</ele>
        <time>2023-02-19T11:23:58Z</time>
      </trkpt>
      <trkpt lat="45.67128" lon="4.34562">
        <ele>570.3</ele>
        <time>2023-02-19T11:23:59Z</time>
      </trkpt>
      <trkpt lat="45.67129" lon="4.34562">
        <ele>570.3</ele>
        <time>2023-02-19T11:24:00Z</time>
      </trkpt>
      <trkpt lat="45.6713" lon="4.34561">
        <ele>570.3</ele>
        <time>2023-02-19T11:24:01Z</time>
      </trkpt>
      <trkpt lat="45.67133" lon="4.3456">
        <ele>570.3</ele>
        <time>2023-02-19T11:24:03Z</time>
      </trkpt>
      <trkpt lat="45.67134" lon="4.3456">
        <ele>570.3</ele>
        <time>2023-02-19T11:24:04Z</time>
      </trkpt>
      <trkpt lat="45.67135" lon="4.3456">
        <ele>570.3</ele>
        <time>2023-02-19T11:24:05Z</time>
      </trkpt>
      <trkpt lat="45.67136" lon="4.34559">
        <ele>570.4</ele>
        <time>2023-02-19T11:24:06Z</time>
      </trkpt>
      <trkpt lat="45.67138" lon="4.34559">
        <ele>570.4</ele>
        <time>2023-02-19T11:24:07Z</time>
      </trkpt>
      <trkpt lat="45.67139" lon="4.34559">
        <ele>570.4</ele>
        <time>2023-02-19T11:24:08Z</time>
      </trkpt>
      <trkpt lat="45.6714" lon="4.34559">
        <ele>570.4</ele>
        <time>2023-02-19T11:24:09Z</time>
      </trkpt>
      <trkpt lat="45.67143" lon="4.34559">
        <ele>570.5</ele>
        <time>2023-02-19T11:24:11Z</time>
      </trkpt>
      <trkpt lat="45.67144" lon="4.34559">
        <ele>570.6</ele>
        <time>2023-02-19T11:24:12Z</time>
      </trkpt>
      <trkpt lat="45.67145" lon="4.34558">
        <ele>570.6</ele>
        <time>2023-02-19T11:24:13Z</time>
      </trkpt>
      <trkpt lat="45.67147" lon="4.34559">
        <ele>570.7</ele>
        <time>2023-02-19T11:24:14Z</time>
      </trkpt>
      <trkpt lat="45.6715" lon="4.3456">
        <ele>570.9</ele>
        <time>2023-02-19T11:24:16Z</time>
      </trkpt>
      <trkpt lat="45.67151" lon="4.3456">
        <ele>570.9</ele>
        <time>2023-02-19T11:24:17Z</time>
      </trkpt>
      <trkpt lat="45.67152" lon="4.34561">
        <ele>571</ele>
        <time>2023-02-19T11:24:18Z</time>
      </trkpt>
      <trkpt lat="45.67154" lon="4.34561">
        <ele>571.2</ele>
        <time>2023-02-19T11:24:19Z</time>
      </trkpt>
      <trkpt lat="45.67155" lon="4.34562">
        <ele>571.3</ele>
        <time>2023-02-19T11:24:20Z</time>
      </trkpt>
      <trkpt lat="45.67156" lon="4.34562">
        <ele>571.4</ele>
        <time>2023-02-19T11:24:21Z</time>
      </trkpt>
      <trkpt lat="45.67158" lon="4.34563">
        <ele>571.6</ele>
        <time>2023-02-19T11:24:23Z</time>
      </trkpt>
      <trkpt lat="45.67159" lon="4.34563">
        <ele>571.7</ele>
        <time>2023-02-19T11:24:24Z</time>
      </trkpt>
      <trkpt lat="45.6716" lon="4.34564">
        <ele>571.9</ele>
        <time>2023-02-19T11:24:25Z</time>
      </trkpt>
      <trkpt lat="45.67161" lon="4.34565">
        <ele>572.1</ele>
        <time>2023-02-19T11:24:26Z</time>
      </trkpt>
      <trkpt lat="45.67163" lon="4.34565">
        <ele>572.2</ele>
        <time>2023-02-19T11:24:27Z</time>
      </trkpt>
      <trkpt lat="45.67164" lon="4.34566">
        <ele>572.4</ele>
        <time>2023-02-19T11:24:28Z</time>
      </trkpt>
      <trkpt lat="45.67165" lon="4.34566">
        <ele>572.6</ele>
        <time>2023-02-19T11:24:29Z</time>
      </trkpt>
      <trkpt lat="45.67165" lon="4.34566">
        <ele>572.7</ele>
        <time>2023-02-19T11:24:30Z</time>
      </trkpt>
      <trkpt lat="45.67167" lon="4.34567">
        <ele>573</ele>
        <time>2023-02-19T11:24:32Z</time>
      </trkpt>
      <trkpt lat="45.67167" lon="4.34568">
        <ele>573.1</ele>
        <time>2023-02-19T11:24:33Z</time>
      </trkpt>
      <trkpt lat="45.67168" lon="4.34569">
        <ele>573.3</ele>
        <time>2023-02-19T11:24:34Z</time>
      </trkpt>
      <trkpt lat="45.67169" lon="4.3457">
        <ele>573.6</ele>
        <time>2023-02-19T11:24:36Z</time>
      </trkpt>
      <trkpt lat="45.67169" lon="4.34571">
        <ele>573.8</ele>
        <time>2023-02-19T11:24:37Z</time>
      </trkpt>
      <trkpt lat="45.6717" lon="4.34572">
        <ele>573.9</ele>
        <time>2023-02-19T11:24:39Z</time>
      </trkpt>
      <trkpt lat="45.6717" lon="4.34572">
        <ele>574</ele>
        <time>2023-02-19T11:24:40Z</time>
      </trkpt>
      <trkpt lat="45.67171" lon="4.34573">
        <ele>574.1</ele>
        <time>2023-02-19T11:24:41Z</time>
      </trkpt>
      <trkpt lat="45.67171" lon="4.34573">
        <ele>574.2</ele>
        <time>2023-02-19T11:24:42Z</time>
      </trkpt>
      <trkpt lat="45.67171" lon="4.34573">
        <ele>574.3</ele>
        <time>2023-02-19T11:24:43Z</time>
      </trkpt>
      <trkpt lat="45.67172" lon="4.34573">
        <ele>574.5</ele>
        <time>2023-02-19T11:24:44Z</time>
      </trkpt>
      <trkpt lat="45.67173" lon="4.34572">
        <ele>574.8</ele>
        <time>2023-02-19T11:24:46Z</time>
      </trkpt>
      <trkpt lat="45.67174" lon="4.34572">
        <ele>575</ele>
        <time>2023-02-19T11:24:48Z</time>
      </trkpt>
      <trkpt lat="45.67175" lon="4.34573">
        <ele>575.2</ele>
        <time>2023-02-19T11:24:49Z</time>
      </trkpt>
      <trkpt lat="45.67176" lon="4.34572">
        <ele>575.4</ele>
        <time>2023-02-19T11:24:50Z</time>
      </trkpt>
      <trkpt lat="45.67177" lon="4.34572">
        <ele>575.6</ele>
        <time>2023-02-19T11:24:51Z</time>
      </trkpt>
      <trkpt lat="45.67177" lon="4.34573">
        <ele>575.8</ele>
        <time>2023-02-19T11:24:52Z</time>
      </trkpt>
      <trkpt lat="45.67178" lon="4.34573">
        <ele>576</ele>
        <time>2023-02-19T11:24:53Z</time>
      </trkpt>
      <trkpt lat="45.67179" lon="4.34573">
        <ele>576.3</ele>
        <time>2023-02-19T11:24:54Z</time>
      </trkpt>
      <trkpt lat="45.6718" lon="4.34574">
        <ele>576.5</ele>
        <time>2023-02-19T11:24:55Z</time>
      </trkpt>
      <trkpt lat="45.67181" lon="4.34575">
        <ele>576.9</ele>
        <time>2023-02-19T11:24:57Z</time>
      </trkpt>
      <trkpt lat="45.67182" lon="4.34575">
        <ele>577.1</ele>
        <time>2023-02-19T11:24:58Z</time>
      </trkpt>
      <trkpt lat="45.67183" lon="4.34576">
        <ele>577.4</ele>
        <time>2023-02-19T11:24:59Z</time>
      </trkpt>
      <trkpt lat="45.67184" lon="4.34577">
        <ele>577.6</ele>
        <time>2023-02-19T11:25:00Z</time>
      </trkpt>
      <trkpt lat="45.67184" lon="4.34578">
        <ele>577.8</ele>
        <time>2023-02-19T11:25:01Z</time>
      </trkpt>
      <trkpt lat="45.67185" lon="4.34579">
        <ele>578.1</ele>
        <time>2023-02-19T11:25:02Z</time>
      </trkpt>
      <trkpt lat="45.67187" lon="4.3458">
        <ele>578.7</ele>
        <time>2023-02-19T11:25:04Z</time>
      </trkpt>
      <trkpt lat="45.67188" lon="4.34581">
        <ele>579</ele>
        <time>2023-02-19T11:25:06Z</time>
      </trkpt>
      <trkpt lat="45.67189" lon="4.34582">
        <ele>579.3</ele>
        <time>2023-02-19T11:25:07Z</time>
      </trkpt>
      <trkpt lat="45.6719" lon="4.34582">
        <ele>579.5</ele>
        <time>2023-02-19T11:25:08Z</time>
      </trkpt>
      <trkpt lat="45.67191" lon="4.34583">
        <ele>579.7</ele>
        <time>2023-02-19T11:25:09Z</time>
      </trkpt>
      <trkpt lat="45.67192" lon="4.34585">
        <ele>580.2</ele>
        <time>2023-02-19T11:25:11Z</time>
      </trkpt>
      <trkpt lat="45.67193" lon="4.34586">
        <ele>580.4</ele>
        <time>2023-02-19T11:25:12Z</time>
      </trkpt>
      <trkpt lat="45.67193" lon="4.34587">
        <ele>580.6</ele>
        <time>2023-02-19T11:25:13Z</time>
      </trkpt>
      <trkpt lat="45.67194" lon="4.34588">
        <ele>580.9</ele>
        <time>2023-02-19T11:25:14Z</time>
      </trkpt>
      <trkpt lat="45.67196" lon="4.34589">
        <ele>581.2</ele>
        <time>2023-02-19T11:25:16Z</time>
      </trkpt>
      <trkpt lat="45.67197" lon="4.3459">
        <ele>581.5</ele>
        <time>2023-02-19T11:25:17Z</time>
      </trkpt>
      <trkpt lat="45.67198" lon="4.34591">
        <ele>581.6</ele>
        <time>2023-02-19T11:25:18Z</time>
      </trkpt>
      <trkpt lat="45.67199" lon="4.34591">
        <ele>581.7</ele>
        <time>2023-02-19T11:25:19Z</time>
      </trkpt>
      <trkpt lat="45.672" lon="4.34592">
        <ele>581.8</ele>
        <time>2023-02-19T11:25:20Z</time>
      </trkpt>
      <trkpt lat="45.67202" lon="4.34592">
        <ele>582</ele>
        <time>2023-02-19T11:25:21Z</time>
      </trkpt>
      <trkpt lat="45.67203" lon="4.34593">
        <ele>582.1</ele>
        <time>2023-02-19T11:25:22Z</time>
      </trkpt>
      <trkpt lat="45.67204" lon="4.34594">
        <ele>582.3</ele>
        <time>2023-02-19T11:25:23Z</time>
      </trkpt>
      <trkpt lat="45.67205" lon="4.34594">
        <ele>582.5</ele>
        <time>2023-02-19T11:25:25Z</time>
      </trkpt>
      <trkpt lat="45.67207" lon="4.34595">
        <ele>582.8</ele>
        <time>2023-02-19T11:25:26Z</time>
      </trkpt>
      <trkpt lat="45.67208" lon="4.34596">
        <ele>582.9</ele>
        <time>2023-02-19T11:25:28Z</time>
      </trkpt>
      <trkpt lat="45.67209" lon="4.34596">
        <ele>583</ele>
        <time>2023-02-19T11:25:29Z</time>
      </trkpt>
      <trkpt lat="45.6721" lon="4.34596">
        <ele>583.1</ele>
        <time>2023-02-19T11:25:30Z</time>
      </trkpt>
      <trkpt lat="45.67211" lon="4.34597">
        <ele>583.2</ele>
        <time>2023-02-19T11:25:31Z</time>
      </trkpt>
      <trkpt lat="45.67212" lon="4.34597">
        <ele>583.3</ele>
        <time>2023-02-19T11:25:32Z</time>
      </trkpt>
      <trkpt lat="45.67213" lon="4.34598">
        <ele>583.4</ele>
        <time>2023-02-19T11:25:34Z</time>
      </trkpt>
      <trkpt lat="45.67214" lon="4.34598">
        <ele>583.5</ele>
        <time>2023-02-19T11:25:35Z</time>
      </trkpt>
      <trkpt lat="45.67214" lon="4.34598">
        <ele>583.5</ele>
        <time>2023-02-19T11:25:36Z</time>
      </trkpt>
      <trkpt lat="45.67214" lon="4.34599">
        <ele>583.5</ele>
        <time>2023-02-19T11:25:37Z</time>
      </trkpt>
      <trkpt lat="45.67214" lon="4.34599">
        <ele>583.6</ele>
        <time>2023-02-19T11:25:39Z</time>
      </trkpt>
      <trkpt lat="45.67214" lon="4.34599">
        <ele>583.6</ele>
        <time>2023-02-19T11:25:40Z</time>
      </trkpt>
      <trkpt lat="45.67215" lon="4.34599">
        <ele>583.7</ele>
        <time>2023-02-19T11:25:41Z</time>
      </trkpt>
      <trkpt lat="45.67216" lon="4.346">
        <ele>583.8</ele>
        <time>2023-02-19T11:25:42Z</time>
      </trkpt>
      <trkpt lat="45.67217" lon="4.346">
        <ele>583.9</ele>
        <time>2023-02-19T11:25:43Z</time>
      </trkpt>
      <trkpt lat="45.67218" lon="4.34601">
        <ele>584</ele>
        <time>2023-02-19T11:25:44Z</time>
      </trkpt>
      <trkpt lat="45.67219" lon="4.34601">
        <ele>584.1</ele>
        <time>2023-02-19T11:25:45Z</time>
      </trkpt>
      <trkpt lat="45.67221" lon="4.34602">
        <ele>584.2</ele>
        <time>2023-02-19T11:25:46Z</time>
      </trkpt>
      <trkpt lat="45.67223" lon="4.34604">
        <ele>584.4</ele>
        <time>2023-02-19T11:25:47Z</time>
      </trkpt>
      <trkpt lat="45.67224" lon="4.34605">
        <ele>584.6</ele>
        <time>2023-02-19T11:25:49Z</time>
      </trkpt>
      <trkpt lat="45.67225" lon="4.34607">
        <ele>584.6</ele>
        <time>2023-02-19T11:25:50Z</time>
      </trkpt>
      <trkpt lat="45.67225" lon="4.34608">
        <ele>584.7</ele>
        <time>2023-02-19T11:25:51Z</time>
      </trkpt>
      <trkpt lat="45.67226" lon="4.34611">
        <ele>584.9</ele>
        <time>2023-02-19T11:25:53Z</time>
      </trkpt>
      <trkpt lat="45.67226" lon="4.34612">
        <ele>585</ele>
        <time>2023-02-19T11:25:54Z</time>
      </trkpt>
      <trkpt lat="45.67226" lon="4.34613">
        <ele>585.1</ele>
        <time>2023-02-19T11:25:55Z</time>
      </trkpt>
      <trkpt lat="45.67224" lon="4.34615">
        <ele>585.3</ele>
        <time>2023-02-19T11:25:56Z</time>
      </trkpt>
      <trkpt lat="45.67224" lon="4.34616">
        <ele>585.3</ele>
        <time>2023-02-19T11:25:57Z</time>
      </trkpt>
      <trkpt lat="45.67223" lon="4.34617">
        <ele>585.4</ele>
        <time>2023-02-19T11:25:58Z</time>
      </trkpt>
      <trkpt lat="45.67222" lon="4.34619">
        <ele>585.6</ele>
        <time>2023-02-19T11:26:00Z</time>
      </trkpt>
      <trkpt lat="45.67221" lon="4.3462">
        <ele>585.8</ele>
        <time>2023-02-19T11:26:02Z</time>
      </trkpt>
      <trkpt lat="45.6722" lon="4.34622">
        <ele>585.9</ele>
        <time>2023-02-19T11:26:03Z</time>
      </trkpt>
      <trkpt lat="45.67219" lon="4.34623">
        <ele>586</ele>
        <time>2023-02-19T11:26:04Z</time>
      </trkpt>
      <trkpt lat="45.67219" lon="4.34624">
        <ele>586.1</ele>
        <time>2023-02-19T11:26:05Z</time>
      </trkpt>
      <trkpt lat="45.67218" lon="4.34625">
        <ele>586.2</ele>
        <time>2023-02-19T11:26:06Z</time>
      </trkpt>
      <trkpt lat="45.67218" lon="4.34627">
        <ele>586.3</ele>
        <time>2023-02-19T11:26:07Z</time>
      </trkpt>
      <trkpt lat="45.67217" lon="4.34629">
        <ele>586.4</ele>
        <time>2023-02-19T11:26:09Z</time>
      </trkpt>
      <trkpt lat="45.67216" lon="4.3463">
        <ele>586.5</ele>
        <time>2023-02-19T11:26:10Z</time>
      </trkpt>
      <trkpt lat="45.67216" lon="4.34631">
        <ele>586.6</ele>
        <time>2023-02-19T11:26:11Z</time>
      </trkpt>
      <trkpt lat="45.67215" lon="4.34632">
        <ele>586.7</ele>
        <time>2023-02-19T11:26:12Z</time>
      </trkpt>
      <trkpt lat="45.67214" lon="4.34634">
        <ele>586.8</ele>
        <time>2023-02-19T11:26:13Z</time>
      </trkpt>
      <trkpt lat="45.67214" lon="4.34635">
        <ele>586.9</ele>
        <time>2023-02-19T11:26:14Z</time>
      </trkpt>
      <trkpt lat="45.67213" lon="4.34636">
        <ele>587</ele>
        <time>2023-02-19T11:26:16Z</time>
      </trkpt>
      <trkpt lat="45.67212" lon="4.34637">
        <ele>587.2</ele>
        <time>2023-02-19T11:26:17Z</time>
      </trkpt>
      <trkpt lat="45.67211" lon="4.34639">
        <ele>587.3</ele>
        <time>2023-02-19T11:26:18Z</time>
      </trkpt>
      <trkpt lat="45.6721" lon="4.3464">
        <ele>587.4</ele>
        <time>2023-02-19T11:26:19Z</time>
      </trkpt>
      <trkpt lat="45.6721" lon="4.34642">
        <ele>587.5</ele>
        <time>2023-02-19T11:26:20Z</time>
      </trkpt>
      <trkpt lat="45.67209" lon="4.34643">
        <ele>587.5</ele>
        <time>2023-02-19T11:26:21Z</time>
      </trkpt>
      <trkpt lat="45.67207" lon="4.34644">
        <ele>587.7</ele>
        <time>2023-02-19T11:26:22Z</time>
      </trkpt>
      <trkpt lat="45.67206" lon="4.34645">
        <ele>587.7</ele>
        <time>2023-02-19T11:26:23Z</time>
      </trkpt>
      <trkpt lat="45.67205" lon="4.34645">
        <ele>587.8</ele>
        <time>2023-02-19T11:26:24Z</time>
      </trkpt>
      <trkpt lat="45.67204" lon="4.34646">
        <ele>587.9</ele>
        <time>2023-02-19T11:26:25Z</time>
      </trkpt>
      <trkpt lat="45.67203" lon="4.34648">
        <ele>588.1</ele>
        <time>2023-02-19T11:26:26Z</time>
      </trkpt>
      <trkpt lat="45.67202" lon="4.34648">
        <ele>588.1</ele>
        <time>2023-02-19T11:26:27Z</time>
      </trkpt>
      <trkpt lat="45.67201" lon="4.34649">
        <ele>588.2</ele>
        <time>2023-02-19T11:26:29Z</time>
      </trkpt>
      <trkpt lat="45.672" lon="4.3465">
        <ele>588.2</ele>
        <time>2023-02-19T11:26:30Z</time>
      </trkpt>
      <trkpt lat="45.67199" lon="4.34651">
        <ele>588.3</ele>
        <time>2023-02-19T11:26:31Z</time>
      </trkpt>
      <trkpt lat="45.67198" lon="4.34652">
        <ele>588.3</ele>
        <time>2023-02-19T11:26:32Z</time>
      </trkpt>
      <trkpt lat="45.67196" lon="4.34654">
        <ele>588.4</ele>
        <time>2023-02-19T11:26:33Z</time>
      </trkpt>
      <trkpt lat="45.67196" lon="4.34654">
        <ele>588.4</ele>
        <time>2023-02-19T11:26:34Z</time>
      </trkpt>
      <trkpt lat="45.67195" lon="4.34655">
        <ele>588.5</ele>
        <time>2023-02-19T11:26:35Z</time>
      </trkpt>
      <trkpt lat="45.67194" lon="4.34656">
        <ele>588.5</ele>
        <time>2023-02-19T11:26:36Z</time>
      </trkpt>
      <trkpt lat="45.67193" lon="4.34658">
        <ele>588.6</ele>
        <time>2023-02-19T11:26:38Z</time>
      </trkpt>
      <trkpt lat="45.67191" lon="4.34659">
        <ele>588.7</ele>
        <time>2023-02-19T11:26:39Z</time>
      </trkpt>
      <trkpt lat="45.6719" lon="4.34661">
        <ele>588.8</ele>
        <time>2023-02-19T11:26:40Z</time>
      </trkpt>
      <trkpt lat="45.67189" lon="4.34662">
        <ele>588.8</ele>
        <time>2023-02-19T11:26:41Z</time>
      </trkpt>
      <trkpt lat="45.67188" lon="4.34663">
        <ele>588.9</ele>
        <time>2023-02-19T11:26:42Z</time>
      </trkpt>
      <trkpt lat="45.67185" lon="4.34667">
        <ele>589.2</ele>
        <time>2023-02-19T11:26:44Z</time>
      </trkpt>
      <trkpt lat="45.67184" lon="4.34668">
        <ele>589.3</ele>
        <time>2023-02-19T11:26:45Z</time>
      </trkpt>
      <trkpt lat="45.67183" lon="4.34669">
        <ele>589.3</ele>
        <time>2023-02-19T11:26:46Z</time>
      </trkpt>
      <trkpt lat="45.67182" lon="4.3467">
        <ele>589.4</ele>
        <time>2023-02-19T11:26:47Z</time>
      </trkpt>
      <trkpt lat="45.67181" lon="4.34672">
        <ele>589.6</ele>
        <time>2023-02-19T11:26:49Z</time>
      </trkpt>
      <trkpt lat="45.6718" lon="4.34673">
        <ele>589.7</ele>
        <time>2023-02-19T11:26:50Z</time>
      </trkpt>
      <trkpt lat="45.6718" lon="4.34675">
        <ele>589.8</ele>
        <time>2023-02-19T11:26:51Z</time>
      </trkpt>
      <trkpt lat="45.67179" lon="4.34676">
        <ele>589.8</ele>
        <time>2023-02-19T11:26:52Z</time>
      </trkpt>
      <trkpt lat="45.67178" lon="4.34678">
        <ele>590</ele>
        <time>2023-02-19T11:26:54Z</time>
      </trkpt>
      <trkpt lat="45.67178" lon="4.34679">
        <ele>590.1</ele>
        <time>2023-02-19T11:26:55Z</time>
      </trkpt>
      <trkpt lat="45.67177" lon="4.3468">
        <ele>590.2</ele>
        <time>2023-02-19T11:26:56Z</time>
      </trkpt>
      <trkpt lat="45.67176" lon="4.34681">
        <ele>590.2</ele>
        <time>2023-02-19T11:26:57Z</time>
      </trkpt>
      <trkpt lat="45.67176" lon="4.34681">
        <ele>590.3</ele>
        <time>2023-02-19T11:26:58Z</time>
      </trkpt>
      <trkpt lat="45.67175" lon="4.34683">
        <ele>590.5</ele>
        <time>2023-02-19T11:26:59Z</time>
      </trkpt>
      <trkpt lat="45.67174" lon="4.34684">
        <ele>590.5</ele>
        <time>2023-02-19T11:27:01Z</time>
      </trkpt>
      <trkpt lat="45.67174" lon="4.34685">
        <ele>590.6</ele>
        <time>2023-02-19T11:27:02Z</time>
      </trkpt>
      <trkpt lat="45.67173" lon="4.34686">
        <ele>590.7</ele>
        <time>2023-02-19T11:27:03Z</time>
      </trkpt>
      <trkpt lat="45.67173" lon="4.34688">
        <ele>590.8</ele>
        <time>2023-02-19T11:27:04Z</time>
      </trkpt>
      <trkpt lat="45.67173" lon="4.34689">
        <ele>590.9</ele>
        <time>2023-02-19T11:27:05Z</time>
      </trkpt>
      <trkpt lat="45.67172" lon="4.34691">
        <ele>591</ele>
        <time>2023-02-19T11:27:06Z</time>
      </trkpt>
      <trkpt lat="45.67172" lon="4.34692">
        <ele>591.1</ele>
        <time>2023-02-19T11:27:07Z</time>
      </trkpt>
      <trkpt lat="45.67171" lon="4.34695">
        <ele>591.3</ele>
        <time>2023-02-19T11:27:08Z</time>
      </trkpt>
      <trkpt lat="45.67171" lon="4.34696">
        <ele>591.4</ele>
        <time>2023-02-19T11:27:09Z</time>
      </trkpt>
      <trkpt lat="45.67171" lon="4.34698">
        <ele>591.5</ele>
        <time>2023-02-19T11:27:11Z</time>
      </trkpt>
      <trkpt lat="45.6717" lon="4.34699">
        <ele>591.6</ele>
        <time>2023-02-19T11:27:12Z</time>
      </trkpt>
      <trkpt lat="45.6717" lon="4.34702">
        <ele>591.7</ele>
        <time>2023-02-19T11:27:13Z</time>
      </trkpt>
      <trkpt lat="45.67169" lon="4.34704">
        <ele>591.9</ele>
        <time>2023-02-19T11:27:15Z</time>
      </trkpt>
      <trkpt lat="45.67169" lon="4.34705">
        <ele>591.9</ele>
        <time>2023-02-19T11:27:16Z</time>
      </trkpt>
      <trkpt lat="45.67169" lon="4.34707">
        <ele>592</ele>
        <time>2023-02-19T11:27:17Z</time>
      </trkpt>
      <trkpt lat="45.67168" lon="4.34709">
        <ele>592.1</ele>
        <time>2023-02-19T11:27:18Z</time>
      </trkpt>
      <trkpt lat="45.67168" lon="4.34711">
        <ele>592.2</ele>
        <time>2023-02-19T11:27:19Z</time>
      </trkpt>
      <trkpt lat="45.67167" lon="4.34713">
        <ele>592.3</ele>
        <time>2023-02-19T11:27:20Z</time>
      </trkpt>
      <trkpt lat="45.67167" lon="4.34714">
        <ele>592.4</ele>
        <time>2023-02-19T11:27:21Z</time>
      </trkpt>
      <trkpt lat="45.67167" lon="4.34716">
        <ele>592.5</ele>
        <time>2023-02-19T11:27:22Z</time>
      </trkpt>
      <trkpt lat="45.67166" lon="4.34719">
        <ele>592.6</ele>
        <time>2023-02-19T11:27:24Z</time>
      </trkpt>
      <trkpt lat="45.67166" lon="4.34721">
        <ele>592.6</ele>
        <time>2023-02-19T11:27:25Z</time>
      </trkpt>
      <trkpt lat="45.67166" lon="4.34723">
        <ele>592.7</ele>
        <time>2023-02-19T11:27:26Z</time>
      </trkpt>
      <trkpt lat="45.67165" lon="4.34725">
        <ele>592.8</ele>
        <time>2023-02-19T11:27:27Z</time>
      </trkpt>
      <trkpt lat="45.67164" lon="4.34728">
        <ele>592.9</ele>
        <time>2023-02-19T11:27:29Z</time>
      </trkpt>
      <trkpt lat="45.67164" lon="4.3473">
        <ele>592.9</ele>
        <time>2023-02-19T11:27:30Z</time>
      </trkpt>
      <trkpt lat="45.67163" lon="4.34732">
        <ele>593</ele>
        <time>2023-02-19T11:27:31Z</time>
      </trkpt>
      <trkpt lat="45.67163" lon="4.34734">
        <ele>593.1</ele>
        <time>2023-02-19T11:27:33Z</time>
      </trkpt>
      <trkpt lat="45.67163" lon="4.34735">
        <ele>593.1</ele>
        <time>2023-02-19T11:27:34Z</time>
      </trkpt>
      <trkpt lat="45.67163" lon="4.34737">
        <ele>593.2</ele>
        <time>2023-02-19T11:27:35Z</time>
      </trkpt>
      <trkpt lat="45.67163" lon="4.34739">
        <ele>593.2</ele>
        <time>2023-02-19T11:27:36Z</time>
      </trkpt>
      <trkpt lat="45.67163" lon="4.3474">
        <ele>593.3</ele>
        <time>2023-02-19T11:27:37Z</time>
      </trkpt>
      <trkpt lat="45.67163" lon="4.34742">
        <ele>593.3</ele>
        <time>2023-02-19T11:27:38Z</time>
      </trkpt>
      <trkpt lat="45.67163" lon="4.34745">
        <ele>593.4</ele>
        <time>2023-02-19T11:27:40Z</time>
      </trkpt>
      <trkpt lat="45.67163" lon="4.34748">
        <ele>593.5</ele>
        <time>2023-02-19T11:27:41Z</time>
      </trkpt>
      <trkpt lat="45.67163" lon="4.3475">
        <ele>593.6</ele>
        <time>2023-02-19T11:27:42Z</time>
      </trkpt>
      <trkpt lat="45.67163" lon="4.34752">
        <ele>593.7</ele>
        <time>2023-02-19T11:27:43Z</time>
      </trkpt>
      <trkpt lat="45.67163" lon="4.34755">
        <ele>593.8</ele>
        <time>2023-02-19T11:27:44Z</time>
      </trkpt>
      <trkpt lat="45.67162" lon="4.34757">
        <ele>593.9</ele>
        <time>2023-02-19T11:27:45Z</time>
      </trkpt>
      <trkpt lat="45.67162" lon="4.3476">
        <ele>594</ele>
        <time>2023-02-19T11:27:47Z</time>
      </trkpt>
      <trkpt lat="45.67162" lon="4.34762">
        <ele>594.1</ele>
        <time>2023-02-19T11:27:48Z</time>
      </trkpt>
      <trkpt lat="45.67162" lon="4.34764">
        <ele>594.2</ele>
        <time>2023-02-19T11:27:49Z</time>
      </trkpt>
      <trkpt lat="45.67162" lon="4.34768">
        <ele>594.3</ele>
        <time>2023-02-19T11:27:50Z</time>
      </trkpt>
      <trkpt lat="45.67162" lon="4.34769">
        <ele>594.3</ele>
        <time>2023-02-19T11:27:51Z</time>
      </trkpt>
      <trkpt lat="45.67161" lon="4.3477">
        <ele>594.4</ele>
        <time>2023-02-19T11:27:52Z</time>
      </trkpt>
      <trkpt lat="45.67161" lon="4.34773">
        <ele>594.5</ele>
        <time>2023-02-19T11:27:53Z</time>
      </trkpt>
      <trkpt lat="45.6716" lon="4.34774">
        <ele>594.6</ele>
        <time>2023-02-19T11:27:54Z</time>
      </trkpt>
      <trkpt lat="45.6716" lon="4.34775">
        <ele>594.6</ele>
        <time>2023-02-19T11:27:55Z</time>
      </trkpt>
      <trkpt lat="45.67159" lon="4.34777">
        <ele>594.7</ele>
        <time>2023-02-19T11:27:56Z</time>
      </trkpt>
      <trkpt lat="45.67158" lon="4.34779">
        <ele>594.8</ele>
        <time>2023-02-19T11:27:58Z</time>
      </trkpt>
      <trkpt lat="45.67157" lon="4.34781">
        <ele>594.9</ele>
        <time>2023-02-19T11:27:59Z</time>
      </trkpt>
      <trkpt lat="45.67156" lon="4.34783">
        <ele>595</ele>
        <time>2023-02-19T11:28:00Z</time>
      </trkpt>
      <trkpt lat="45.67155" lon="4.34785">
        <ele>595.1</ele>
        <time>2023-02-19T11:28:01Z</time>
      </trkpt>
      <trkpt lat="45.67154" lon="4.34786">
        <ele>595.2</ele>
        <time>2023-02-19T11:28:02Z</time>
      </trkpt>
      <trkpt lat="45.67153" lon="4.34788">
        <ele>595.3</ele>
        <time>2023-02-19T11:28:03Z</time>
      </trkpt>
      <trkpt lat="45.67151" lon="4.3479">
        <ele>595.4</ele>
        <time>2023-02-19T11:28:05Z</time>
      </trkpt>
      <trkpt lat="45.6715" lon="4.34792">
        <ele>595.5</ele>
        <time>2023-02-19T11:28:06Z</time>
      </trkpt>
      <trkpt lat="45.67148" lon="4.34794">
        <ele>595.6</ele>
        <time>2023-02-19T11:28:07Z</time>
      </trkpt>
      <trkpt lat="45.67147" lon="4.34795">
        <ele>595.7</ele>
        <time>2023-02-19T11:28:09Z</time>
      </trkpt>
      <trkpt lat="45.67146" lon="4.34797">
        <ele>595.7</ele>
        <time>2023-02-19T11:28:10Z</time>
      </trkpt>
      <trkpt lat="45.67145" lon="4.34799">
        <ele>595.8</ele>
        <time>2023-02-19T11:28:12Z</time>
      </trkpt>
      <trkpt lat="45.67144" lon="4.348">
        <ele>595.9</ele>
        <time>2023-02-19T11:28:13Z</time>
      </trkpt>
      <trkpt lat="45.67143" lon="4.34802">
        <ele>595.9</ele>
        <time>2023-02-19T11:28:14Z</time>
      </trkpt>
      <trkpt lat="45.67143" lon="4.34803">
        <ele>596</ele>
        <time>2023-02-19T11:28:15Z</time>
      </trkpt>
      <trkpt lat="45.67142" lon="4.34804">
        <ele>596</ele>
        <time>2023-02-19T11:28:16Z</time>
      </trkpt>
      <trkpt lat="45.67141" lon="4.34805">
        <ele>596.1</ele>
        <time>2023-02-19T11:28:17Z</time>
      </trkpt>
      <trkpt lat="45.6714" lon="4.34807">
        <ele>596.1</ele>
        <time>2023-02-19T11:28:18Z</time>
      </trkpt>
      <trkpt lat="45.67139" lon="4.34808">
        <ele>596.2</ele>
        <time>2023-02-19T11:28:19Z</time>
      </trkpt>
      <trkpt lat="45.67138" lon="4.34809">
        <ele>596.2</ele>
        <time>2023-02-19T11:28:21Z</time>
      </trkpt>
      <trkpt lat="45.67137" lon="4.34811">
        <ele>596.3</ele>
        <time>2023-02-19T11:28:22Z</time>
      </trkpt>
      <trkpt lat="45.67136" lon="4.34812">
        <ele>596.3</ele>
        <time>2023-02-19T11:28:23Z</time>
      </trkpt>
      <trkpt lat="45.67135" lon="4.34814">
        <ele>596.4</ele>
        <time>2023-02-19T11:28:24Z</time>
      </trkpt>
      <trkpt lat="45.67134" lon="4.34814">
        <ele>596.4</ele>
        <time>2023-02-19T11:28:25Z</time>
      </trkpt>
      <trkpt lat="45.67132" lon="4.34816">
        <ele>596.5</ele>
        <time>2023-02-19T11:28:27Z</time>
      </trkpt>
      <trkpt lat="45.67132" lon="4.34817">
        <ele>596.6</ele>
        <time>2023-02-19T11:28:28Z</time>
      </trkpt>
      <trkpt lat="45.6713" lon="4.34818">
        <ele>596.6</ele>
        <time>2023-02-19T11:28:29Z</time>
      </trkpt>
      <trkpt lat="45.67129" lon="4.34819">
        <ele>596.7</ele>
        <time>2023-02-19T11:28:30Z</time>
      </trkpt>
      <trkpt lat="45.67128" lon="4.3482">
        <ele>596.8</ele>
        <time>2023-02-19T11:28:31Z</time>
      </trkpt>
      <trkpt lat="45.67126" lon="4.34821">
        <ele>596.9</ele>
        <time>2023-02-19T11:28:33Z</time>
      </trkpt>
      <trkpt lat="45.67125" lon="4.34823">
        <ele>597</ele>
        <time>2023-02-19T11:28:34Z</time>
      </trkpt>
      <trkpt lat="45.67123" lon="4.34824">
        <ele>597.1</ele>
        <time>2023-02-19T11:28:36Z</time>
      </trkpt>
      <trkpt lat="45.67122" lon="4.34825">
        <ele>597.2</ele>
        <time>2023-02-19T11:28:37Z</time>
      </trkpt>
      <trkpt lat="45.6712" lon="4.34826">
        <ele>597.3</ele>
        <time>2023-02-19T11:28:38Z</time>
      </trkpt>
      <trkpt lat="45.67119" lon="4.34827">
        <ele>597.5</ele>
        <time>2023-02-19T11:28:39Z</time>
      </trkpt>
      <trkpt lat="45.67118" lon="4.34828">
        <ele>597.6</ele>
        <time>2023-02-19T11:28:40Z</time>
      </trkpt>
      <trkpt lat="45.67117" lon="4.3483">
        <ele>597.7</ele>
        <time>2023-02-19T11:28:41Z</time>
      </trkpt>
      <trkpt lat="45.67115" lon="4.34831">
        <ele>597.8</ele>
        <time>2023-02-19T11:28:42Z</time>
      </trkpt>
      <trkpt lat="45.67115" lon="4.34832">
        <ele>597.9</ele>
        <time>2023-02-19T11:28:43Z</time>
      </trkpt>
      <trkpt lat="45.67113" lon="4.34834">
        <ele>598.1</ele>
        <time>2023-02-19T11:28:45Z</time>
      </trkpt>
      <trkpt lat="45.67112" lon="4.34835">
        <ele>598.2</ele>
        <time>2023-02-19T11:28:46Z</time>
      </trkpt>
      <trkpt lat="45.67111" lon="4.34837">
        <ele>598.3</ele>
        <time>2023-02-19T11:28:47Z</time>
      </trkpt>
      <trkpt lat="45.67108" lon="4.34839">
        <ele>598.6</ele>
        <time>2023-02-19T11:28:48Z</time>
      </trkpt>
      <trkpt lat="45.67107" lon="4.3484">
        <ele>598.7</ele>
        <time>2023-02-19T11:28:49Z</time>
      </trkpt>
      <trkpt lat="45.67106" lon="4.34842">
        <ele>598.9</ele>
        <time>2023-02-19T11:28:51Z</time>
      </trkpt>
      <trkpt lat="45.67105" lon="4.34843">
        <ele>599</ele>
        <time>2023-02-19T11:28:52Z</time>
      </trkpt>
      <trkpt lat="45.67103" lon="4.34845">
        <ele>599.3</ele>
        <time>2023-02-19T11:28:53Z</time>
      </trkpt>
      <trkpt lat="45.67103" lon="4.34845">
        <ele>599.4</ele>
        <time>2023-02-19T11:28:54Z</time>
      </trkpt>
      <trkpt lat="45.67102" lon="4.34846">
        <ele>599.5</ele>
        <time>2023-02-19T11:28:55Z</time>
      </trkpt>
      <trkpt lat="45.671" lon="4.34847">
        <ele>599.7</ele>
        <time>2023-02-19T11:28:56Z</time>
      </trkpt>
      <trkpt lat="45.67099" lon="4.34848">
        <ele>599.8</ele>
        <time>2023-02-19T11:28:57Z</time>
      </trkpt>
      <trkpt lat="45.67099" lon="4.34848">
        <ele>599.9</ele>
        <time>2023-02-19T11:28:58Z</time>
      </trkpt>
      <trkpt lat="45.67097" lon="4.3485">
        <ele>600.2</ele>
        <time>2023-02-19T11:29:00Z</time>
      </trkpt>
      <trkpt lat="45.67096" lon="4.3485">
        <ele>600.3</ele>
        <time>2023-02-19T11:29:01Z</time>
      </trkpt>
      <trkpt lat="45.67095" lon="4.34851">
        <ele>600.4</ele>
        <time>2023-02-19T11:29:02Z</time>
      </trkpt>
      <trkpt lat="45.67094" lon="4.34852">
        <ele>600.6</ele>
        <time>2023-02-19T11:29:03Z</time>
      </trkpt>
      <trkpt lat="45.67091" lon="4.34853">
        <ele>600.9</ele>
        <time>2023-02-19T11:29:04Z</time>
      </trkpt>
      <trkpt lat="45.67091" lon="4.34854">
        <ele>600.9</ele>
        <time>2023-02-19T11:29:05Z</time>
      </trkpt>
      <trkpt lat="45.67091" lon="4.34855">
        <ele>601</ele>
        <time>2023-02-19T11:29:06Z</time>
      </trkpt>
      <trkpt lat="45.67089" lon="4.34858">
        <ele>601.3</ele>
        <time>2023-02-19T11:29:08Z</time>
      </trkpt>
      <trkpt lat="45.67088" lon="4.34859">
        <ele>601.4</ele>
        <time>2023-02-19T11:29:09Z</time>
      </trkpt>
      <trkpt lat="45.67088" lon="4.3486">
        <ele>601.5</ele>
        <time>2023-02-19T11:29:10Z</time>
      </trkpt>
      <trkpt lat="45.67087" lon="4.34861">
        <ele>601.6</ele>
        <time>2023-02-19T11:29:11Z</time>
      </trkpt>
      <trkpt lat="45.67086" lon="4.34862">
        <ele>601.8</ele>
        <time>2023-02-19T11:29:12Z</time>
      </trkpt>
      <trkpt lat="45.67086" lon="4.34863">
        <ele>601.9</ele>
        <time>2023-02-19T11:29:14Z</time>
      </trkpt>
      <trkpt lat="45.67084" lon="4.34865">
        <ele>602.1</ele>
        <time>2023-02-19T11:29:15Z</time>
      </trkpt>
      <trkpt lat="45.67084" lon="4.34866">
        <ele>602.2</ele>
        <time>2023-02-19T11:29:16Z</time>
      </trkpt>
      <trkpt lat="45.67083" lon="4.34867">
        <ele>602.3</ele>
        <time>2023-02-19T11:29:17Z</time>
      </trkpt>
      <trkpt lat="45.67082" lon="4.34867">
        <ele>602.4</ele>
        <time>2023-02-19T11:29:18Z</time>
      </trkpt>
      <trkpt lat="45.67081" lon="4.34869">
        <ele>602.6</ele>
        <time>2023-02-19T11:29:19Z</time>
      </trkpt>
      <trkpt lat="45.67081" lon="4.34869">
        <ele>602.7</ele>
        <time>2023-02-19T11:29:20Z</time>
      </trkpt>
      <trkpt lat="45.6708" lon="4.3487">
        <ele>602.8</ele>
        <time>2023-02-19T11:29:21Z</time>
      </trkpt>
      <trkpt lat="45.67079" lon="4.34871">
        <ele>603</ele>
        <time>2023-02-19T11:29:22Z</time>
      </trkpt>
      <trkpt lat="45.67078" lon="4.34872">
        <ele>603.2</ele>
        <time>2023-02-19T11:29:24Z</time>
      </trkpt>
      <trkpt lat="45.67077" lon="4.34873">
        <ele>603.3</ele>
        <time>2023-02-19T11:29:25Z</time>
      </trkpt>
      <trkpt lat="45.67074" lon="4.34874">
        <ele>603.6</ele>
        <time>2023-02-19T11:29:26Z</time>
      </trkpt>
      <trkpt lat="45.67073" lon="4.34875">
        <ele>603.7</ele>
        <time>2023-02-19T11:29:27Z</time>
      </trkpt>
      <trkpt lat="45.67073" lon="4.34875">
        <ele>603.9</ele>
        <time>2023-02-19T11:29:28Z</time>
      </trkpt>
      <trkpt lat="45.67071" lon="4.34876">
        <ele>604.1</ele>
        <time>2023-02-19T11:29:29Z</time>
      </trkpt>
      <trkpt lat="45.6707" lon="4.34877">
        <ele>604.2</ele>
        <time>2023-02-19T11:29:30Z</time>
      </trkpt>
      <trkpt lat="45.67069" lon="4.34877">
        <ele>604.4</ele>
        <time>2023-02-19T11:29:31Z</time>
      </trkpt>
      <trkpt lat="45.67068" lon="4.34878">
        <ele>604.5</ele>
        <time>2023-02-19T11:29:32Z</time>
      </trkpt>
      <trkpt lat="45.67067" lon="4.34878">
        <ele>604.7</ele>
        <time>2023-02-19T11:29:34Z</time>
      </trkpt>
      <trkpt lat="45.67065" lon="4.34879">
        <ele>604.9</ele>
        <time>2023-02-19T11:29:35Z</time>
      </trkpt>
      <trkpt lat="45.67064" lon="4.3488">
        <ele>605</ele>
        <time>2023-02-19T11:29:36Z</time>
      </trkpt>
      <trkpt lat="45.67064" lon="4.34881">
        <ele>605.1</ele>
        <time>2023-02-19T11:29:37Z</time>
      </trkpt>
      <trkpt lat="45.67063" lon="4.34882">
        <ele>605.3</ele>
        <time>2023-02-19T11:29:38Z</time>
      </trkpt>
      <trkpt lat="45.67062" lon="4.34882">
        <ele>605.4</ele>
        <time>2023-02-19T11:29:39Z</time>
      </trkpt>
      <trkpt lat="45.67061" lon="4.34884">
        <ele>605.6</ele>
        <time>2023-02-19T11:29:40Z</time>
      </trkpt>
      <trkpt lat="45.6706" lon="4.34884">
        <ele>605.7</ele>
        <time>2023-02-19T11:29:42Z</time>
      </trkpt>
      <trkpt lat="45.67059" lon="4.34885">
        <ele>605.9</ele>
        <time>2023-02-19T11:29:43Z</time>
      </trkpt>
      <trkpt lat="45.67058" lon="4.34886">
        <ele>606.1</ele>
        <time>2023-02-19T11:29:44Z</time>
      </trkpt>
      <trkpt lat="45.67056" lon="4.34887">
        <ele>606.4</ele>
        <time>2023-02-19T11:29:45Z</time>
      </trkpt>
      <trkpt lat="45.67055" lon="4.34887">
        <ele>606.4</ele>
        <time>2023-02-19T11:29:46Z</time>
      </trkpt>
      <trkpt lat="45.67054" lon="4.34888">
        <ele>606.6</ele>
        <time>2023-02-19T11:29:47Z</time>
      </trkpt>
      <trkpt lat="45.67053" lon="4.34888">
        <ele>606.7</ele>
        <time>2023-02-19T11:29:49Z</time>
      </trkpt>
      <trkpt lat="45.67052" lon="4.34889">
        <ele>606.9</ele>
        <time>2023-02-19T11:29:50Z</time>
      </trkpt>
      <trkpt lat="45.67051" lon="4.34889">
        <ele>607.1</ele>
        <time>2023-02-19T11:29:51Z</time>
      </trkpt>
      <trkpt lat="45.6705" lon="4.3489">
        <ele>607.2</ele>
        <time>2023-02-19T11:29:52Z</time>
      </trkpt>
      <trkpt lat="45.67048" lon="4.3489">
        <ele>607.4</ele>
        <time>2023-02-19T11:29:53Z</time>
      </trkpt>
      <trkpt lat="45.67047" lon="4.34891">
        <ele>607.6</ele>
        <time>2023-02-19T11:29:54Z</time>
      </trkpt>
      <trkpt lat="45.67046" lon="4.34891">
        <ele>607.7</ele>
        <time>2023-02-19T11:29:55Z</time>
      </trkpt>
      <trkpt lat="45.67044" lon="4.34892">
        <ele>607.9</ele>
        <time>2023-02-19T11:29:57Z</time>
      </trkpt>
      <trkpt lat="45.67043" lon="4.34892">
        <ele>608</ele>
        <time>2023-02-19T11:29:58Z</time>
      </trkpt>
      <trkpt lat="45.67042" lon="4.34893">
        <ele>608.1</ele>
        <time>2023-02-19T11:29:59Z</time>
      </trkpt>
      <trkpt lat="45.67041" lon="4.34894">
        <ele>608.3</ele>
        <time>2023-02-19T11:30:00Z</time>
      </trkpt>
      <trkpt lat="45.6704" lon="4.34894">
        <ele>608.5</ele>
        <time>2023-02-19T11:30:01Z</time>
      </trkpt>
      <trkpt lat="45.67038" lon="4.34895">
        <ele>608.7</ele>
        <time>2023-02-19T11:30:02Z</time>
      </trkpt>
      <trkpt lat="45.67037" lon="4.34895">
        <ele>608.8</ele>
        <time>2023-02-19T11:30:04Z</time>
      </trkpt>
      <trkpt lat="45.67036" lon="4.34896">
        <ele>608.9</ele>
        <time>2023-02-19T11:30:05Z</time>
      </trkpt>
      <trkpt lat="45.67035" lon="4.34896">
        <ele>609</ele>
        <time>2023-02-19T11:30:06Z</time>
      </trkpt>
      <trkpt lat="45.67033" lon="4.34897">
        <ele>609.2</ele>
        <time>2023-02-19T11:30:07Z</time>
      </trkpt>
      <trkpt lat="45.67032" lon="4.34897">
        <ele>609.3</ele>
        <time>2023-02-19T11:30:08Z</time>
      </trkpt>
      <trkpt lat="45.6703" lon="4.34898">
        <ele>609.5</ele>
        <time>2023-02-19T11:30:10Z</time>
      </trkpt>
      <trkpt lat="45.67029" lon="4.34898">
        <ele>609.6</ele>
        <time>2023-02-19T11:30:11Z</time>
      </trkpt>
      <trkpt lat="45.67028" lon="4.34899">
        <ele>609.7</ele>
        <time>2023-02-19T11:30:12Z</time>
      </trkpt>
      <trkpt lat="45.67027" lon="4.34899">
        <ele>609.9</ele>
        <time>2023-02-19T11:30:13Z</time>
      </trkpt>
      <trkpt lat="45.67026" lon="4.34899">
        <ele>610</ele>
        <time>2023-02-19T11:30:14Z</time>
      </trkpt>
      <trkpt lat="45.67024" lon="4.349">
        <ele>610.2</ele>
        <time>2023-02-19T11:30:15Z</time>
      </trkpt>
      <trkpt lat="45.67023" lon="4.349">
        <ele>610.3</ele>
        <time>2023-02-19T11:30:17Z</time>
      </trkpt>
      <trkpt lat="45.67021" lon="4.34901">
        <ele>610.5</ele>
        <time>2023-02-19T11:30:18Z</time>
      </trkpt>
      <trkpt lat="45.6702" lon="4.34901">
        <ele>610.6</ele>
        <time>2023-02-19T11:30:19Z</time>
      </trkpt>
      <trkpt lat="45.67018" lon="4.34902">
        <ele>610.8</ele>
        <time>2023-02-19T11:30:20Z</time>
      </trkpt>
      <trkpt lat="45.67017" lon="4.34902">
        <ele>610.9</ele>
        <time>2023-02-19T11:30:21Z</time>
      </trkpt>
      <trkpt lat="45.67016" lon="4.34903">
        <ele>611</ele>
        <time>2023-02-19T11:30:22Z</time>
      </trkpt>
      <trkpt lat="45.67014" lon="4.34904">
        <ele>611.3</ele>
        <time>2023-02-19T11:30:24Z</time>
      </trkpt>
      <trkpt lat="45.67012" lon="4.34905">
        <ele>611.5</ele>
        <time>2023-02-19T11:30:25Z</time>
      </trkpt>
      <trkpt lat="45.67011" lon="4.34906">
        <ele>611.6</ele>
        <time>2023-02-19T11:30:26Z</time>
      </trkpt>
      <trkpt lat="45.6701" lon="4.34906">
        <ele>611.7</ele>
        <time>2023-02-19T11:30:27Z</time>
      </trkpt>
      <trkpt lat="45.67009" lon="4.34908">
        <ele>611.9</ele>
        <time>2023-02-19T11:30:28Z</time>
      </trkpt>
      <trkpt lat="45.67007" lon="4.34908">
        <ele>612</ele>
        <time>2023-02-19T11:30:29Z</time>
      </trkpt>
      <trkpt lat="45.67005" lon="4.3491">
        <ele>612.2</ele>
        <time>2023-02-19T11:30:30Z</time>
      </trkpt>
      <trkpt lat="45.67004" lon="4.34911">
        <ele>612.3</ele>
        <time>2023-02-19T11:30:31Z</time>
      </trkpt>
      <trkpt lat="45.67003" lon="4.34912">
        <ele>612.5</ele>
        <time>2023-02-19T11:30:33Z</time>
      </trkpt>
      <trkpt lat="45.67002" lon="4.34913">
        <ele>612.6</ele>
        <time>2023-02-19T11:30:34Z</time>
      </trkpt>
      <trkpt lat="45.67001" lon="4.34914">
        <ele>612.8</ele>
        <time>2023-02-19T11:30:35Z</time>
      </trkpt>
      <trkpt lat="45.67" lon="4.34915">
        <ele>612.9</ele>
        <time>2023-02-19T11:30:36Z</time>
      </trkpt>
      <trkpt lat="45.66999" lon="4.34916">
        <ele>613</ele>
        <time>2023-02-19T11:30:37Z</time>
      </trkpt>
      <trkpt lat="45.66998" lon="4.34917">
        <ele>613</ele>
        <time>2023-02-19T11:30:38Z</time>
      </trkpt>
      <trkpt lat="45.66998" lon="4.34917">
        <ele>613.1</ele>
        <time>2023-02-19T11:30:39Z</time>
      </trkpt>
      <trkpt lat="45.66996" lon="4.34918">
        <ele>613.3</ele>
        <time>2023-02-19T11:30:40Z</time>
      </trkpt>
      <trkpt lat="45.66996" lon="4.34919">
        <ele>613.3</ele>
        <time>2023-02-19T11:30:41Z</time>
      </trkpt>
      <trkpt lat="45.66995" lon="4.3492">
        <ele>613.5</ele>
        <time>2023-02-19T11:30:42Z</time>
      </trkpt>
      <trkpt lat="45.66994" lon="4.34921">
        <ele>613.5</ele>
        <time>2023-02-19T11:30:43Z</time>
      </trkpt>
      <trkpt lat="45.66993" lon="4.34921">
        <ele>613.6</ele>
        <time>2023-02-19T11:30:44Z</time>
      </trkpt>
      <trkpt lat="45.66992" lon="4.34923">
        <ele>613.7</ele>
        <time>2023-02-19T11:30:45Z</time>
      </trkpt>
      <trkpt lat="45.66991" lon="4.34923">
        <ele>613.8</ele>
        <time>2023-02-19T11:30:46Z</time>
      </trkpt>
      <trkpt lat="45.6699" lon="4.34924">
        <ele>613.9</ele>
        <time>2023-02-19T11:30:47Z</time>
      </trkpt>
      <trkpt lat="45.66989" lon="4.34924">
        <ele>614</ele>
        <time>2023-02-19T11:30:49Z</time>
      </trkpt>
      <trkpt lat="45.66988" lon="4.34925">
        <ele>614.1</ele>
        <time>2023-02-19T11:30:50Z</time>
      </trkpt>
      <trkpt lat="45.66988" lon="4.34926">
        <ele>614.2</ele>
        <time>2023-02-19T11:30:51Z</time>
      </trkpt>
      <trkpt lat="45.66987" lon="4.34926">
        <ele>614.2</ele>
        <time>2023-02-19T11:30:52Z</time>
      </trkpt>
      <trkpt lat="45.66986" lon="4.34927">
        <ele>614.3</ele>
        <time>2023-02-19T11:30:53Z</time>
      </trkpt>
      <trkpt lat="45.66985" lon="4.34928">
        <ele>614.4</ele>
        <time>2023-02-19T11:30:54Z</time>
      </trkpt>
      <trkpt lat="45.66984" lon="4.34929">
        <ele>614.5</ele>
        <time>2023-02-19T11:30:55Z</time>
      </trkpt>
      <trkpt lat="45.66983" lon="4.34929">
        <ele>614.7</ele>
        <time>2023-02-19T11:30:57Z</time>
      </trkpt>
      <trkpt lat="45.66981" lon="4.3493">
        <ele>614.8</ele>
        <time>2023-02-19T11:30:58Z</time>
      </trkpt>
      <trkpt lat="45.6698" lon="4.3493">
        <ele>614.9</ele>
        <time>2023-02-19T11:30:59Z</time>
      </trkpt>
      <trkpt lat="45.66978" lon="4.34931">
        <ele>615.1</ele>
        <time>2023-02-19T11:31:01Z</time>
      </trkpt>
      <trkpt lat="45.66976" lon="4.34933">
        <ele>615.3</ele>
        <time>2023-02-19T11:31:02Z</time>
      </trkpt>
      <trkpt lat="45.66975" lon="4.34933">
        <ele>615.3</ele>
        <time>2023-02-19T11:31:03Z</time>
      </trkpt>
      <trkpt lat="45.66974" lon="4.34934">
        <ele>615.4</ele>
        <time>2023-02-19T11:31:04Z</time>
      </trkpt>
      <trkpt lat="45.66973" lon="4.34936">
        <ele>615.6</ele>
        <time>2023-02-19T11:31:05Z</time>
      </trkpt>
      <trkpt lat="45.66972" lon="4.34937">
        <ele>615.7</ele>
        <time>2023-02-19T11:31:06Z</time>
      </trkpt>
      <trkpt lat="45.66972" lon="4.34937">
        <ele>615.7</ele>
        <time>2023-02-19T11:31:07Z</time>
      </trkpt>
      <trkpt lat="45.66971" lon="4.34938">
        <ele>615.8</ele>
        <time>2023-02-19T11:31:09Z</time>
      </trkpt>
      <trkpt lat="45.66969" lon="4.34939">
        <ele>615.9</ele>
        <time>2023-02-19T11:31:10Z</time>
      </trkpt>
      <trkpt lat="45.66969" lon="4.3494">
        <ele>616</ele>
        <time>2023-02-19T11:31:11Z</time>
      </trkpt>
      <trkpt lat="45.66968" lon="4.34943">
        <ele>616.2</ele>
        <time>2023-02-19T11:31:12Z</time>
      </trkpt>
      <trkpt lat="45.66968" lon="4.34944">
        <ele>616.2</ele>
        <time>2023-02-19T11:31:13Z</time>
      </trkpt>
      <trkpt lat="45.66967" lon="4.34945">
        <ele>616.3</ele>
        <time>2023-02-19T11:31:14Z</time>
      </trkpt>
      <trkpt lat="45.66966" lon="4.34946">
        <ele>616.4</ele>
        <time>2023-02-19T11:31:15Z</time>
      </trkpt>
      <trkpt lat="45.66966" lon="4.34947">
        <ele>616.5</ele>
        <time>2023-02-19T11:31:16Z</time>
      </trkpt>
      <trkpt lat="45.66965" lon="4.34948">
        <ele>616.6</ele>
        <time>2023-02-19T11:31:17Z</time>
      </trkpt>
      <trkpt lat="45.66964" lon="4.34949">
        <ele>616.7</ele>
        <time>2023-02-19T11:31:19Z</time>
      </trkpt>
      <trkpt lat="45.66963" lon="4.34951">
        <ele>616.8</ele>
        <time>2023-02-19T11:31:21Z</time>
      </trkpt>
      <trkpt lat="45.66962" lon="4.34952">
        <ele>616.9</ele>
        <time>2023-02-19T11:31:22Z</time>
      </trkpt>
      <trkpt lat="45.66961" lon="4.34953">
        <ele>617</ele>
        <time>2023-02-19T11:31:23Z</time>
      </trkpt>
      <trkpt lat="45.6696" lon="4.34954">
        <ele>617.1</ele>
        <time>2023-02-19T11:31:24Z</time>
      </trkpt>
      <trkpt lat="45.66959" lon="4.34956">
        <ele>617.3</ele>
        <time>2023-02-19T11:31:25Z</time>
      </trkpt>
      <trkpt lat="45.66958" lon="4.34956">
        <ele>617.3</ele>
        <time>2023-02-19T11:31:26Z</time>
      </trkpt>
      <trkpt lat="45.66958" lon="4.34957">
        <ele>617.4</ele>
        <time>2023-02-19T11:31:27Z</time>
      </trkpt>
      <trkpt lat="45.66956" lon="4.34959">
        <ele>617.6</ele>
        <time>2023-02-19T11:31:29Z</time>
      </trkpt>
      <trkpt lat="45.66955" lon="4.3496">
        <ele>617.7</ele>
        <time>2023-02-19T11:31:30Z</time>
      </trkpt>
      <trkpt lat="45.66954" lon="4.34961">
        <ele>617.8</ele>
        <time>2023-02-19T11:31:31Z</time>
      </trkpt>
      <trkpt lat="45.66953" lon="4.34962">
        <ele>617.9</ele>
        <time>2023-02-19T11:31:32Z</time>
      </trkpt>
      <trkpt lat="45.66951" lon="4.34963">
        <ele>618.1</ele>
        <time>2023-02-19T11:31:34Z</time>
      </trkpt>
      <trkpt lat="45.6695" lon="4.34964">
        <ele>618.2</ele>
        <time>2023-02-19T11:31:35Z</time>
      </trkpt>
      <trkpt lat="45.66949" lon="4.34965">
        <ele>618.3</ele>
        <time>2023-02-19T11:31:36Z</time>
      </trkpt>
      <trkpt lat="45.66949" lon="4.34965">
        <ele>618.4</ele>
        <time>2023-02-19T11:31:37Z</time>
      </trkpt>
      <trkpt lat="45.66948" lon="4.34966">
        <ele>618.5</ele>
        <time>2023-02-19T11:31:38Z</time>
      </trkpt>
      <trkpt lat="45.66946" lon="4.34967">
        <ele>618.6</ele>
        <time>2023-02-19T11:31:39Z</time>
      </trkpt>
      <trkpt lat="45.66946" lon="4.34968">
        <ele>618.7</ele>
        <time>2023-02-19T11:31:40Z</time>
      </trkpt>
      <trkpt lat="45.66944" lon="4.34969">
        <ele>618.9</ele>
        <time>2023-02-19T11:31:41Z</time>
      </trkpt>
      <trkpt lat="45.66942" lon="4.34971">
        <ele>619.1</ele>
        <time>2023-02-19T11:31:43Z</time>
      </trkpt>
      <trkpt lat="45.66942" lon="4.34972">
        <ele>619.2</ele>
        <time>2023-02-19T11:31:44Z</time>
      </trkpt>
      <trkpt lat="45.66941" lon="4.34972">
        <ele>619.3</ele>
        <time>2023-02-19T11:31:45Z</time>
      </trkpt>
      <trkpt lat="45.66939" lon="4.34974">
        <ele>619.5</ele>
        <time>2023-02-19T11:31:46Z</time>
      </trkpt>
      <trkpt lat="45.66939" lon="4.34974">
        <ele>619.6</ele>
        <time>2023-02-19T11:31:47Z</time>
      </trkpt>
      <trkpt lat="45.66938" lon="4.34975">
        <ele>619.7</ele>
        <time>2023-02-19T11:31:48Z</time>
      </trkpt>
      <trkpt lat="45.66937" lon="4.34976">
        <ele>619.8</ele>
        <time>2023-02-19T11:31:49Z</time>
      </trkpt>
      <trkpt lat="45.66935" lon="4.34977">
        <ele>620</ele>
        <time>2023-02-19T11:31:51Z</time>
      </trkpt>
      <trkpt lat="45.66935" lon="4.34978">
        <ele>620</ele>
        <time>2023-02-19T11:31:52Z</time>
      </trkpt>
      <trkpt lat="45.66934" lon="4.34979">
        <ele>620.2</ele>
        <time>2023-02-19T11:31:53Z</time>
      </trkpt>
      <trkpt lat="45.66933" lon="4.34982">
        <ele>620.4</ele>
        <time>2023-02-19T11:31:55Z</time>
      </trkpt>
      <trkpt lat="45.66932" lon="4.34983">
        <ele>620.5</ele>
        <time>2023-02-19T11:31:56Z</time>
      </trkpt>
      <trkpt lat="45.66931" lon="4.34985">
        <ele>620.6</ele>
        <time>2023-02-19T11:31:57Z</time>
      </trkpt>
      <trkpt lat="45.6693" lon="4.34986">
        <ele>620.8</ele>
        <time>2023-02-19T11:31:58Z</time>
      </trkpt>
      <trkpt lat="45.66929" lon="4.34988">
        <ele>620.9</ele>
        <time>2023-02-19T11:31:59Z</time>
      </trkpt>
      <trkpt lat="45.66927" lon="4.3499">
        <ele>621.1</ele>
        <time>2023-02-19T11:32:00Z</time>
      </trkpt>
      <trkpt lat="45.66926" lon="4.34991">
        <ele>621.2</ele>
        <time>2023-02-19T11:32:02Z</time>
      </trkpt>
      <trkpt lat="45.66925" lon="4.34992">
        <ele>621.3</ele>
        <time>2023-02-19T11:32:03Z</time>
      </trkpt>
      <trkpt lat="45.66924" lon="4.34994">
        <ele>621.4</ele>
        <time>2023-02-19T11:32:04Z</time>
      </trkpt>
      <trkpt lat="45.66922" lon="4.34995">
        <ele>621.5</ele>
        <time>2023-02-19T11:32:05Z</time>
      </trkpt>
      <trkpt lat="45.66921" lon="4.34996">
        <ele>621.9</ele>
        <time>2023-02-19T11:32:06Z</time>
      </trkpt>
      <trkpt lat="45.6692" lon="4.34998">
        <ele>622</ele>
        <time>2023-02-19T11:32:07Z</time>
      </trkpt>
      <trkpt lat="45.66919" lon="4.34999">
        <ele>622</ele>
        <time>2023-02-19T11:32:08Z</time>
      </trkpt>
      <trkpt lat="45.66918" lon="4.35">
        <ele>622</ele>
        <time>2023-02-19T11:32:10Z</time>
      </trkpt>
      <trkpt lat="45.66916" lon="4.35002">
        <ele>622</ele>
        <time>2023-02-19T11:32:11Z</time>
      </trkpt>
      <trkpt lat="45.66916" lon="4.35002">
        <ele>622</ele>
        <time>2023-02-19T11:32:12Z</time>
      </trkpt>
      <trkpt lat="45.66915" lon="4.35003">
        <ele>622.1</ele>
        <time>2023-02-19T11:32:13Z</time>
      </trkpt>
      <trkpt lat="45.66914" lon="4.35004">
        <ele>622.1</ele>
        <time>2023-02-19T11:32:14Z</time>
      </trkpt>
      <trkpt lat="45.66913" lon="4.35005">
        <ele>622.1</ele>
        <time>2023-02-19T11:32:15Z</time>
      </trkpt>
      <trkpt lat="45.6691" lon="4.35007">
        <ele>622.2</ele>
        <time>2023-02-19T11:32:16Z</time>
      </trkpt>
      <trkpt lat="45.66909" lon="4.35007">
        <ele>622.2</ele>
        <time>2023-02-19T11:32:17Z</time>
      </trkpt>
      <trkpt lat="45.66908" lon="4.35008">
        <ele>622.2</ele>
        <time>2023-02-19T11:32:18Z</time>
      </trkpt>
      <trkpt lat="45.66906" lon="4.35009">
        <ele>622.2</ele>
        <time>2023-02-19T11:32:20Z</time>
      </trkpt>
      <trkpt lat="45.66904" lon="4.35009">
        <ele>622.3</ele>
        <time>2023-02-19T11:32:21Z</time>
      </trkpt>
      <trkpt lat="45.66903" lon="4.3501">
        <ele>622.3</ele>
        <time>2023-02-19T11:32:22Z</time>
      </trkpt>
      <trkpt lat="45.66901" lon="4.3501">
        <ele>622.3</ele>
        <time>2023-02-19T11:32:23Z</time>
      </trkpt>
      <trkpt lat="45.66898" lon="4.35011">
        <ele>622.4</ele>
        <time>2023-02-19T11:32:25Z</time>
      </trkpt>
      <trkpt lat="45.66897" lon="4.35011">
        <ele>622.4</ele>
        <time>2023-02-19T11:32:26Z</time>
      </trkpt>
      <trkpt lat="45.66895" lon="4.35011">
        <ele>622.4</ele>
        <time>2023-02-19T11:32:27Z</time>
      </trkpt>
      <trkpt lat="45.66894" lon="4.35011">
        <ele>622.4</ele>
        <time>2023-02-19T11:32:28Z</time>
      </trkpt>
      <trkpt lat="45.66893" lon="4.35011">
        <ele>622.5</ele>
        <time>2023-02-19T11:32:29Z</time>
      </trkpt>
      <trkpt lat="45.66891" lon="4.35011">
        <ele>622.5</ele>
        <time>2023-02-19T11:32:30Z</time>
      </trkpt>
      <trkpt lat="45.66889" lon="4.35011">
        <ele>622.5</ele>
        <time>2023-02-19T11:32:32Z</time>
      </trkpt>
      <trkpt lat="45.66887" lon="4.35011">
        <ele>622.6</ele>
        <time>2023-02-19T11:32:33Z</time>
      </trkpt>
      <trkpt lat="45.66886" lon="4.35011">
        <ele>622.6</ele>
        <time>2023-02-19T11:32:34Z</time>
      </trkpt>
      <trkpt lat="45.66885" lon="4.35011">
        <ele>622.6</ele>
        <time>2023-02-19T11:32:35Z</time>
      </trkpt>
      <trkpt lat="45.66884" lon="4.35011">
        <ele>622.6</ele>
        <time>2023-02-19T11:32:36Z</time>
      </trkpt>
      <trkpt lat="45.66883" lon="4.35011">
        <ele>622.6</ele>
        <time>2023-02-19T11:32:37Z</time>
      </trkpt>
      <trkpt lat="45.66881" lon="4.35011">
        <ele>622.7</ele>
        <time>2023-02-19T11:32:39Z</time>
      </trkpt>
      <trkpt lat="45.66879" lon="4.35012">
        <ele>622.7</ele>
        <time>2023-02-19T11:32:40Z</time>
      </trkpt>
      <trkpt lat="45.66878" lon="4.35013">
        <ele>622.7</ele>
        <time>2023-02-19T11:32:42Z</time>
      </trkpt>
      <trkpt lat="45.66877" lon="4.35013">
        <ele>622.7</ele>
        <time>2023-02-19T11:32:43Z</time>
      </trkpt>
      <trkpt lat="45.66875" lon="4.35014">
        <ele>622.8</ele>
        <time>2023-02-19T11:32:44Z</time>
      </trkpt>
      <trkpt lat="45.66874" lon="4.35015">
        <ele>622.8</ele>
        <time>2023-02-19T11:32:45Z</time>
      </trkpt>
      <trkpt lat="45.66873" lon="4.35016">
        <ele>622.8</ele>
        <time>2023-02-19T11:32:46Z</time>
      </trkpt>
      <trkpt lat="45.66871" lon="4.35017">
        <ele>622.8</ele>
        <time>2023-02-19T11:32:47Z</time>
      </trkpt>
      <trkpt lat="45.6687" lon="4.35018">
        <ele>622.9</ele>
        <time>2023-02-19T11:32:48Z</time>
      </trkpt>
      <trkpt lat="45.66869" lon="4.35019">
        <ele>622.9</ele>
        <time>2023-02-19T11:32:49Z</time>
      </trkpt>
      <trkpt lat="45.66867" lon="4.3502">
        <ele>622.9</ele>
        <time>2023-02-19T11:32:51Z</time>
      </trkpt>
      <trkpt lat="45.66866" lon="4.35021">
        <ele>622.9</ele>
        <time>2023-02-19T11:32:52Z</time>
      </trkpt>
      <trkpt lat="45.66865" lon="4.35022">
        <ele>622.9</ele>
        <time>2023-02-19T11:32:53Z</time>
      </trkpt>
      <trkpt lat="45.66863" lon="4.35022">
        <ele>623</ele>
        <time>2023-02-19T11:32:54Z</time>
      </trkpt>
      <trkpt lat="45.66862" lon="4.35023">
        <ele>623</ele>
        <time>2023-02-19T11:32:55Z</time>
      </trkpt>
      <trkpt lat="45.6686" lon="4.35023">
        <ele>623</ele>
        <time>2023-02-19T11:32:56Z</time>
      </trkpt>
      <trkpt lat="45.66859" lon="4.35023">
        <ele>623.1</ele>
        <time>2023-02-19T11:32:57Z</time>
      </trkpt>
      <trkpt lat="45.66857" lon="4.35024">
        <ele>623.1</ele>
        <time>2023-02-19T11:32:58Z</time>
      </trkpt>
      <trkpt lat="45.66854" lon="4.35024">
        <ele>623.1</ele>
        <time>2023-02-19T11:32:59Z</time>
      </trkpt>
      <trkpt lat="45.66853" lon="4.35024">
        <ele>623.2</ele>
        <time>2023-02-19T11:33:00Z</time>
      </trkpt>
      <trkpt lat="45.66852" lon="4.35024">
        <ele>623.2</ele>
        <time>2023-02-19T11:33:01Z</time>
      </trkpt>
      <trkpt lat="45.66851" lon="4.35024">
        <ele>623.2</ele>
        <time>2023-02-19T11:33:03Z</time>
      </trkpt>
      <trkpt lat="45.6685" lon="4.35024">
        <ele>623.2</ele>
        <time>2023-02-19T11:33:04Z</time>
      </trkpt>
      <trkpt lat="45.66848" lon="4.35023">
        <ele>623.2</ele>
        <time>2023-02-19T11:33:05Z</time>
      </trkpt>
      <trkpt lat="45.66847" lon="4.35023">
        <ele>623.3</ele>
        <time>2023-02-19T11:33:06Z</time>
      </trkpt>
      <trkpt lat="45.66845" lon="4.35022">
        <ele>623.3</ele>
        <time>2023-02-19T11:33:07Z</time>
      </trkpt>
      <trkpt lat="45.66844" lon="4.35021">
        <ele>623.3</ele>
        <time>2023-02-19T11:33:08Z</time>
      </trkpt>
      <trkpt lat="45.66844" lon="4.35021">
        <ele>623.3</ele>
        <time>2023-02-19T11:33:09Z</time>
      </trkpt>
      <trkpt lat="45.66843" lon="4.35019">
        <ele>623.4</ele>
        <time>2023-02-19T11:33:10Z</time>
      </trkpt>
      <trkpt lat="45.66842" lon="4.35017">
        <ele>623.4</ele>
        <time>2023-02-19T11:33:12Z</time>
      </trkpt>
      <trkpt lat="45.66841" lon="4.35015">
        <ele>623.4</ele>
        <time>2023-02-19T11:33:13Z</time>
      </trkpt>
      <trkpt lat="45.6684" lon="4.35015">
        <ele>623.4</ele>
        <time>2023-02-19T11:33:15Z</time>
      </trkpt>
      <trkpt lat="45.66839" lon="4.35015">
        <ele>623.5</ele>
        <time>2023-02-19T11:33:16Z</time>
      </trkpt>
      <trkpt lat="45.66837" lon="4.35015">
        <ele>623.5</ele>
        <time>2023-02-19T11:33:18Z</time>
      </trkpt>
      <trkpt lat="45.66837" lon="4.35015">
        <ele>623.5</ele>
        <time>2023-02-19T11:33:19Z</time>
      </trkpt>
      <trkpt lat="45.66837" lon="4.35015">
        <ele>623.5</ele>
        <time>2023-02-19T11:33:20Z</time>
      </trkpt>
      <trkpt lat="45.66837" lon="4.35015">
        <ele>623.5</ele>
        <time>2023-02-19T11:33:22Z</time>
      </trkpt>
      <trkpt lat="45.66837" lon="4.35015">
        <ele>623.5</ele>
        <time>2023-02-19T11:33:23Z</time>
      </trkpt>
      <trkpt lat="45.66837" lon="4.35015">
        <ele>623.5</ele>
        <time>2023-02-19T11:33:24Z</time>
      </trkpt>
      <trkpt lat="45.66837" lon="4.35016">
        <ele>623.5</ele>
        <time>2023-02-19T11:33:25Z</time>
      </trkpt>
      <trkpt lat="45.66837" lon="4.35016">
        <ele>623.5</ele>
        <time>2023-02-19T11:33:27Z</time>
      </trkpt>
      <trkpt lat="45.66837" lon="4.35016">
        <ele>623.5</ele>
        <time>2023-02-19T11:33:28Z</time>
      </trkpt>
      <trkpt lat="45.66837" lon="4.35016">
        <ele>623.5</ele>
        <time>2023-02-19T11:33:29Z</time>
      </trkpt>
      <trkpt lat="45.66837" lon="4.35016">
        <ele>623.5</ele>
        <time>2023-02-19T11:33:30Z</time>
      </trkpt>
      <trkpt lat="45.66837" lon="4.35016">
        <ele>623.5</ele>
        <time>2023-02-19T11:33:31Z</time>
      </trkpt>
      <trkpt lat="45.66837" lon="4.35016">
        <ele>623.5</ele>
        <time>2023-02-19T11:33:33Z</time>
      </trkpt>
      <trkpt lat="45.66837" lon="4.35016">
        <ele>623.5</ele>
        <time>2023-02-19T11:33:34Z</time>
      </trkpt>
      <trkpt lat="45.66837" lon="4.35017">
        <ele>623.5</ele>
        <time>2023-02-19T11:33:35Z</time>
      </trkpt>
      <trkpt lat="45.66837" lon="4.35017">
        <ele>623.5</ele>
        <time>2023-02-19T11:33:37Z</time>
      </trkpt>
      <trkpt lat="45.66837" lon="4.35017">
        <ele>623.5</ele>
        <time>2023-02-19T11:33:38Z</time>
      </trkpt>
      <trkpt lat="45.66837" lon="4.35017">
        <ele>623.5</ele>
        <time>2023-02-19T11:33:39Z</time>
      </trkpt>
      <trkpt lat="45.66837" lon="4.35017">
        <ele>623.5</ele>
        <time>2023-02-19T11:33:40Z</time>
      </trkpt>
      <trkpt lat="45.66837" lon="4.35017">
        <ele>623.5</ele>
        <time>2023-02-19T11:33:41Z</time>
      </trkpt>
      <trkpt lat="45.66838" lon="4.35018">
        <ele>623.6</ele>
        <time>2023-02-19T11:33:42Z</time>
      </trkpt>
      <trkpt lat="45.66838" lon="4.35019">
        <ele>623.6</ele>
        <time>2023-02-19T11:33:43Z</time>
      </trkpt>
      <trkpt lat="45.66838" lon="4.35019">
        <ele>623.6</ele>
        <time>2023-02-19T11:33:44Z</time>
      </trkpt>
      <trkpt lat="45.66838" lon="4.3502">
        <ele>623.6</ele>
        <time>2023-02-19T11:33:45Z</time>
      </trkpt>
      <trkpt lat="45.66838" lon="4.3502">
        <ele>623.6</ele>
        <time>2023-02-19T11:33:46Z</time>
      </trkpt>
      <trkpt lat="45.66838" lon="4.3502">
        <ele>623.6</ele>
        <time>2023-02-19T11:33:47Z</time>
      </trkpt>
      <trkpt lat="45.66838" lon="4.35021">
        <ele>623.6</ele>
        <time>2023-02-19T11:33:48Z</time>
      </trkpt>
      <trkpt lat="45.66838" lon="4.35018">
        <ele>623.6</ele>
        <time>2023-02-19T11:33:49Z</time>
      </trkpt>
      <trkpt lat="45.66838" lon="4.35017">
        <ele>623.6</ele>
        <time>2023-02-19T11:33:50Z</time>
      </trkpt>
      <trkpt lat="45.66838" lon="4.35016">
        <ele>623.7</ele>
        <time>2023-02-19T11:33:52Z</time>
      </trkpt>
      <trkpt lat="45.66838" lon="4.35015">
        <ele>623.7</ele>
        <time>2023-02-19T11:33:53Z</time>
      </trkpt>
      <trkpt lat="45.66838" lon="4.35015">
        <ele>623.7</ele>
        <time>2023-02-19T11:33:54Z</time>
      </trkpt>
      <trkpt lat="45.66838" lon="4.35014">
        <ele>623.7</ele>
        <time>2023-02-19T11:33:55Z</time>
      </trkpt>
      <trkpt lat="45.66839" lon="4.35013">
        <ele>623.7</ele>
        <time>2023-02-19T11:33:57Z</time>
      </trkpt>
      <trkpt lat="45.6684" lon="4.35012">
        <ele>623.7</ele>
        <time>2023-02-19T11:33:58Z</time>
      </trkpt>
      <trkpt lat="45.66841" lon="4.35012">
        <ele>623.8</ele>
        <time>2023-02-19T11:33:59Z</time>
      </trkpt>
      <trkpt lat="45.66842" lon="4.35011">
        <ele>623.8</ele>
        <time>2023-02-19T11:34:00Z</time>
      </trkpt>
      <trkpt lat="45.66844" lon="4.35011">
        <ele>623.8</ele>
        <time>2023-02-19T11:34:02Z</time>
      </trkpt>
      <trkpt lat="45.66844" lon="4.35011">
        <ele>623.8</ele>
        <time>2023-02-19T11:34:03Z</time>
      </trkpt>
      <trkpt lat="45.66845" lon="4.35011">
        <ele>623.8</ele>
        <time>2023-02-19T11:34:04Z</time>
      </trkpt>
      <trkpt lat="45.66846" lon="4.35011">
        <ele>623.9</ele>
        <time>2023-02-19T11:34:06Z</time>
      </trkpt>
      <trkpt lat="45.66846" lon="4.35011">
        <ele>623.9</ele>
        <time>2023-02-19T11:34:07Z</time>
      </trkpt>
      <trkpt lat="45.66846" lon="4.3501">
        <ele>623.9</ele>
        <time>2023-02-19T11:34:08Z</time>
      </trkpt>
      <trkpt lat="45.66846" lon="4.3501">
        <ele>623.9</ele>
        <time>2023-02-19T11:34:09Z</time>
      </trkpt>
      <trkpt lat="45.66846" lon="4.35009">
        <ele>623.9</ele>
        <time>2023-02-19T11:34:11Z</time>
      </trkpt>
      <trkpt lat="45.66846" lon="4.35009">
        <ele>623.9</ele>
        <time>2023-02-19T11:34:12Z</time>
      </trkpt>
      <trkpt lat="45.66845" lon="4.35009">
        <ele>623.9</ele>
        <time>2023-02-19T11:34:13Z</time>
      </trkpt>
      <trkpt lat="45.66845" lon="4.35008">
        <ele>623.9</ele>
        <time>2023-02-19T11:34:14Z</time>
      </trkpt>
      <trkpt lat="45.66844" lon="4.35007">
        <ele>623.9</ele>
        <time>2023-02-19T11:34:16Z</time>
      </trkpt>
      <trkpt lat="45.66844" lon="4.35007">
        <ele>624</ele>
        <time>2023-02-19T11:34:17Z</time>
      </trkpt>
      <trkpt lat="45.66844" lon="4.35007">
        <ele>624</ele>
        <time>2023-02-19T11:34:18Z</time>
      </trkpt>
      <trkpt lat="45.66842" lon="4.35004">
        <ele>624</ele>
        <time>2023-02-19T11:34:19Z</time>
      </trkpt>
      <trkpt lat="45.66841" lon="4.35002">
        <ele>624.1</ele>
        <time>2023-02-19T11:34:20Z</time>
      </trkpt>
      <trkpt lat="45.6684" lon="4.34998">
        <ele>624.1</ele>
        <time>2023-02-19T11:34:21Z</time>
      </trkpt>
      <trkpt lat="45.6684" lon="4.34996">
        <ele>624.2</ele>
        <time>2023-02-19T11:34:22Z</time>
      </trkpt>
      <trkpt lat="45.6684" lon="4.34995">
        <ele>624.2</ele>
        <time>2023-02-19T11:34:23Z</time>
      </trkpt>
      <trkpt lat="45.66841" lon="4.34996">
        <ele>624.2</ele>
        <time>2023-02-19T11:34:24Z</time>
      </trkpt>
      <trkpt lat="45.66841" lon="4.34996">
        <ele>624.2</ele>
        <time>2023-02-19T11:34:25Z</time>
      </trkpt>
      <trkpt lat="45.66842" lon="4.34997">
        <ele>624.2</ele>
        <time>2023-02-19T11:34:26Z</time>
      </trkpt>
      <trkpt lat="45.66842" lon="4.34997">
        <ele>624.2</ele>
        <time>2023-02-19T11:34:27Z</time>
      </trkpt>
      <trkpt lat="45.66843" lon="4.34998">
        <ele>624.2</ele>
        <time>2023-02-19T11:34:28Z</time>
      </trkpt>
      <trkpt lat="45.66843" lon="4.34998">
        <ele>624.2</ele>
        <time>2023-02-19T11:34:29Z</time>
      </trkpt>
      <trkpt lat="45.66843" lon="4.35002">
        <ele>624.3</ele>
        <time>2023-02-19T11:34:30Z</time>
      </trkpt>
      <trkpt lat="45.66844" lon="4.35003">
        <ele>624.3</ele>
        <time>2023-02-19T11:34:32Z</time>
      </trkpt>
      <trkpt lat="45.66845" lon="4.35004">
        <ele>624.4</ele>
        <time>2023-02-19T11:34:33Z</time>
      </trkpt>
      <trkpt lat="45.66845" lon="4.35005">
        <ele>624.4</ele>
        <time>2023-02-19T11:34:34Z</time>
      </trkpt>
      <trkpt lat="45.66846" lon="4.35007">
        <ele>624.4</ele>
        <time>2023-02-19T11:34:35Z</time>
      </trkpt>
      <trkpt lat="45.66844" lon="4.35009">
        <ele>624.5</ele>
        <time>2023-02-19T11:34:37Z</time>
      </trkpt>
      <trkpt lat="45.66844" lon="4.3501">
        <ele>624.5</ele>
        <time>2023-02-19T11:34:38Z</time>
      </trkpt>
      <trkpt lat="45.66843" lon="4.3501">
        <ele>624.5</ele>
        <time>2023-02-19T11:34:39Z</time>
      </trkpt>
      <trkpt lat="45.66843" lon="4.35011">
        <ele>624.5</ele>
        <time>2023-02-19T11:34:40Z</time>
      </trkpt>
      <trkpt lat="45.66842" lon="4.3501">
        <ele>624.5</ele>
        <time>2023-02-19T11:34:41Z</time>
      </trkpt>
      <trkpt lat="45.66843" lon="4.35011">
        <ele>624.5</ele>
        <time>2023-02-19T11:34:43Z</time>
      </trkpt>
      <trkpt lat="45.66843" lon="4.35011">
        <ele>624.5</ele>
        <time>2023-02-19T11:34:44Z</time>
      </trkpt>
      <trkpt lat="45.66842" lon="4.35012">
        <ele>624.5</ele>
        <time>2023-02-19T11:34:46Z</time>
      </trkpt>
      <trkpt lat="45.66843" lon="4.35012">
        <ele>624.5</ele>
        <time>2023-02-19T11:34:47Z</time>
      </trkpt>
      <trkpt lat="45.66843" lon="4.35012">
        <ele>624.5</ele>
        <time>2023-02-19T11:34:48Z</time>
      </trkpt>
      <trkpt lat="45.66842" lon="4.35012">
        <ele>624.5</ele>
        <time>2023-02-19T11:34:49Z</time>
      </trkpt>
      <trkpt lat="45.66842" lon="4.35013">
        <ele>624.5</ele>
        <time>2023-02-19T11:34:51Z</time>
      </trkpt>
      <trkpt lat="45.66842" lon="4.35013">
        <ele>624.5</ele>
        <time>2023-02-19T11:34:52Z</time>
      </trkpt>
      <trkpt lat="45.66842" lon="4.35013">
        <ele>624.5</ele>
        <time>2023-02-19T11:34:53Z</time>
      </trkpt>
      <trkpt lat="45.66842" lon="4.35013">
        <ele>624.6</ele>
        <time>2023-02-19T11:34:55Z</time>
      </trkpt>
      <trkpt lat="45.66842" lon="4.35014">
        <ele>624.6</ele>
        <time>2023-02-19T11:34:56Z</time>
      </trkpt>
      <trkpt lat="45.6684" lon="4.35017">
        <ele>624.6</ele>
        <time>2023-02-19T11:34:59Z</time>
      </trkpt>
      <trkpt lat="45.6684" lon="4.35019">
        <ele>624.7</ele>
        <time>2023-02-19T11:35:00Z</time>
      </trkpt>
      <trkpt lat="45.66839" lon="4.35021">
        <ele>624.7</ele>
        <time>2023-02-19T11:35:01Z</time>
      </trkpt>
      <trkpt lat="45.66839" lon="4.35023">
        <ele>624.7</ele>
        <time>2023-02-19T11:35:02Z</time>
      </trkpt>
      <trkpt lat="45.66838" lon="4.35024">
        <ele>624.7</ele>
        <time>2023-02-19T11:35:03Z</time>
      </trkpt>
      <trkpt lat="45.66838" lon="4.35024">
        <ele>624.7</ele>
        <time>2023-02-19T11:35:04Z</time>
      </trkpt>
      <trkpt lat="45.66838" lon="4.35025">
        <ele>624.7</ele>
        <time>2023-02-19T11:35:05Z</time>
      </trkpt>
      <trkpt lat="45.66838" lon="4.35025">
        <ele>624.8</ele>
        <time>2023-02-19T11:35:06Z</time>
      </trkpt>
      <trkpt lat="45.66838" lon="4.35025">
        <ele>624.8</ele>
        <time>2023-02-19T11:35:07Z</time>
      </trkpt>
      <trkpt lat="45.66837" lon="4.35025">
        <ele>624.8</ele>
        <time>2023-02-19T11:35:08Z</time>
      </trkpt>
      <trkpt lat="45.66837" lon="4.35025">
        <ele>624.8</ele>
        <time>2023-02-19T11:35:09Z</time>
      </trkpt>
      <trkpt lat="45.66837" lon="4.35025">
        <ele>624.8</ele>
        <time>2023-02-19T11:35:10Z</time>
      </trkpt>
      <trkpt lat="45.66837" lon="4.35025">
        <ele>624.8</ele>
        <time>2023-02-19T11:35:11Z</time>
      </trkpt>
      <trkpt lat="45.66837" lon="4.35025">
        <ele>624.8</ele>
        <time>2023-02-19T11:35:12Z</time>
      </trkpt>
      <trkpt lat="45.66837" lon="4.35025">
        <ele>624.8</ele>
        <time>2023-02-19T11:35:13Z</time>
      </trkpt>
      <trkpt lat="45.66837" lon="4.35025">
        <ele>624.8</ele>
        <time>2023-02-19T11:35:14Z</time>
      </trkpt>
      <trkpt lat="45.66837" lon="4.35025">
        <ele>624.8</ele>
        <time>2023-02-19T11:35:15Z</time>
      </trkpt>
      <trkpt lat="45.66837" lon="4.35025">
        <ele>624.8</ele>
        <time>2023-02-19T11:35:16Z</time>
      </trkpt>
      <trkpt lat="45.66837" lon="4.35025">
        <ele>624.8</ele>
        <time>2023-02-19T11:35:17Z</time>
      </trkpt>
      <trkpt lat="45.66838" lon="4.35025">
        <ele>624.8</ele>
        <time>2023-02-19T11:35:18Z</time>
      </trkpt>
      <trkpt lat="45.66837" lon="4.35025">
        <ele>624.8</ele>
        <time>2023-02-19T11:35:19Z</time>
      </trkpt>
      <trkpt lat="45.66837" lon="4.35026">
        <ele>624.8</ele>
        <time>2023-02-19T11:35:20Z</time>
      </trkpt>
      <trkpt lat="45.66837" lon="4.35028">
        <ele>624.8</ele>
        <time>2023-02-19T11:35:21Z</time>
      </trkpt>
      <trkpt lat="45.66837" lon="4.35029">
        <ele>624.9</ele>
        <time>2023-02-19T11:35:22Z</time>
      </trkpt>
      <trkpt lat="45.66838" lon="4.3503">
        <ele>624.9</ele>
        <time>2023-02-19T11:35:23Z</time>
      </trkpt>
      <trkpt lat="45.66838" lon="4.3503">
        <ele>624.9</ele>
        <time>2023-02-19T11:35:25Z</time>
      </trkpt>
      <trkpt lat="45.66838" lon="4.3503">
        <ele>624.9</ele>
        <time>2023-02-19T11:35:26Z</time>
      </trkpt>
      <trkpt lat="45.66837" lon="4.35031">
        <ele>624.9</ele>
        <time>2023-02-19T11:35:27Z</time>
      </trkpt>
      <trkpt lat="45.66837" lon="4.35032">
        <ele>624.9</ele>
        <time>2023-02-19T11:35:28Z</time>
      </trkpt>
      <trkpt lat="45.66836" lon="4.35032">
        <ele>624.9</ele>
        <time>2023-02-19T11:35:29Z</time>
      </trkpt>
      <trkpt lat="45.66836" lon="4.35033">
        <ele>624.9</ele>
        <time>2023-02-19T11:35:30Z</time>
      </trkpt>
      <trkpt lat="45.66836" lon="4.35032">
        <ele>624.9</ele>
        <time>2023-02-19T11:35:31Z</time>
      </trkpt>
      <trkpt lat="45.66837" lon="4.35031">
        <ele>625</ele>
        <time>2023-02-19T11:35:32Z</time>
      </trkpt>
      <trkpt lat="45.66838" lon="4.3503">
        <ele>625</ele>
        <time>2023-02-19T11:35:33Z</time>
      </trkpt>
      <trkpt lat="45.66839" lon="4.35029">
        <ele>625</ele>
        <time>2023-02-19T11:35:34Z</time>
      </trkpt>
      <trkpt lat="45.66841" lon="4.35023">
        <ele>625.1</ele>
        <time>2023-02-19T11:35:35Z</time>
      </trkpt>
      <trkpt lat="45.66841" lon="4.35021">
        <ele>625.1</ele>
        <time>2023-02-19T11:35:36Z</time>
      </trkpt>
      <trkpt lat="45.66842" lon="4.3502">
        <ele>625.2</ele>
        <time>2023-02-19T11:35:37Z</time>
      </trkpt>
      <trkpt lat="45.66842" lon="4.3502">
        <ele>625.2</ele>
        <time>2023-02-19T11:35:39Z</time>
      </trkpt>
      <trkpt lat="45.66842" lon="4.3502">
        <ele>625.2</ele>
        <time>2023-02-19T11:35:40Z</time>
      </trkpt>
      <trkpt lat="45.66842" lon="4.3502">
        <ele>625.2</ele>
        <time>2023-02-19T11:35:41Z</time>
      </trkpt>
      <trkpt lat="45.66843" lon="4.35021">
        <ele>625.2</ele>
        <time>2023-02-19T11:35:42Z</time>
      </trkpt>
      <trkpt lat="45.66843" lon="4.35021">
        <ele>625.2</ele>
        <time>2023-02-19T11:35:43Z</time>
      </trkpt>
      <trkpt lat="45.66845" lon="4.35021">
        <ele>625.2</ele>
        <time>2023-02-19T11:35:45Z</time>
      </trkpt>
      <trkpt lat="45.66846" lon="4.3502">
        <ele>625.3</ele>
        <time>2023-02-19T11:35:46Z</time>
      </trkpt>
      <trkpt lat="45.66847" lon="4.35019">
        <ele>625.3</ele>
        <time>2023-02-19T11:35:47Z</time>
      </trkpt>
      <trkpt lat="45.66848" lon="4.35018">
        <ele>625.3</ele>
        <time>2023-02-19T11:35:48Z</time>
      </trkpt>
      <trkpt lat="45.66849" lon="4.35017">
        <ele>625.3</ele>
        <time>2023-02-19T11:35:50Z</time>
      </trkpt>
      <trkpt lat="45.66849" lon="4.35017">
        <ele>625.3</ele>
        <time>2023-02-19T11:35:51Z</time>
      </trkpt>
      <trkpt lat="45.6685" lon="4.35016">
        <ele>625.4</ele>
        <time>2023-02-19T11:35:52Z</time>
      </trkpt>
      <trkpt lat="45.66851" lon="4.35015">
        <ele>625.4</ele>
        <time>2023-02-19T11:35:53Z</time>
      </trkpt>
      <trkpt lat="45.66852" lon="4.35015">
        <ele>625.4</ele>
        <time>2023-02-19T11:35:55Z</time>
      </trkpt>
      <trkpt lat="45.66852" lon="4.35015">
        <ele>625.4</ele>
        <time>2023-02-19T11:35:56Z</time>
      </trkpt>
      <trkpt lat="45.66853" lon="4.35015">
        <ele>625.4</ele>
        <time>2023-02-19T11:35:57Z</time>
      </trkpt>
      <trkpt lat="45.66854" lon="4.35015">
        <ele>625.5</ele>
        <time>2023-02-19T11:35:59Z</time>
      </trkpt>
      <trkpt lat="45.66854" lon="4.35016">
        <ele>625.5</ele>
        <time>2023-02-19T11:36:00Z</time>
      </trkpt>
      <trkpt lat="45.66854" lon="4.3501">
        <ele>625.5</ele>
        <time>2023-02-19T11:36:02Z</time>
      </trkpt>
      <trkpt lat="45.66853" lon="4.35004">
        <ele>625.6</ele>
        <time>2023-02-19T11:36:03Z</time>
      </trkpt>
      <trkpt lat="45.66852" lon="4.35">
        <ele>625.7</ele>
        <time>2023-02-19T11:36:04Z</time>
      </trkpt>
      <trkpt lat="45.66851" lon="4.34999">
        <ele>625.7</ele>
        <time>2023-02-19T11:36:05Z</time>
      </trkpt>
      <trkpt lat="45.6685" lon="4.34998">
        <ele>625.7</ele>
        <time>2023-02-19T11:36:06Z</time>
      </trkpt>
      <trkpt lat="45.66849" lon="4.34997">
        <ele>625.8</ele>
        <time>2023-02-19T11:36:07Z</time>
      </trkpt>
      <trkpt lat="45.66849" lon="4.34996">
        <ele>625.8</ele>
        <time>2023-02-19T11:36:08Z</time>
      </trkpt>
      <trkpt lat="45.66849" lon="4.34995">
        <ele>625.8</ele>
        <time>2023-02-19T11:36:09Z</time>
      </trkpt>
      <trkpt lat="45.66848" lon="4.34995">
        <ele>625.8</ele>
        <time>2023-02-19T11:36:10Z</time>
      </trkpt>
      <trkpt lat="45.66848" lon="4.34994">
        <ele>625.8</ele>
        <time>2023-02-19T11:36:11Z</time>
      </trkpt>
      <trkpt lat="45.66848" lon="4.34994">
        <ele>625.8</ele>
        <time>2023-02-19T11:36:12Z</time>
      </trkpt>
      <trkpt lat="45.66848" lon="4.34994">
        <ele>625.8</ele>
        <time>2023-02-19T11:36:13Z</time>
      </trkpt>
      <trkpt lat="45.66848" lon="4.34994">
        <ele>625.8</ele>
        <time>2023-02-19T11:36:14Z</time>
      </trkpt>
      <trkpt lat="45.66848" lon="4.34994">
        <ele>625.8</ele>
        <time>2023-02-19T11:36:15Z</time>
      </trkpt>
      <trkpt lat="45.66848" lon="4.34994">
        <ele>625.8</ele>
        <time>2023-02-19T11:36:16Z</time>
      </trkpt>
      <trkpt lat="45.66847" lon="4.34994">
        <ele>625.8</ele>
        <time>2023-02-19T11:36:17Z</time>
      </trkpt>
      <trkpt lat="45.66847" lon="4.34994">
        <ele>625.8</ele>
        <time>2023-02-19T11:36:18Z</time>
      </trkpt>
      <trkpt lat="45.66847" lon="4.34994">
        <ele>625.8</ele>
        <time>2023-02-19T11:36:19Z</time>
      </trkpt>
      <trkpt lat="45.66847" lon="4.34994">
        <ele>625.8</ele>
        <time>2023-02-19T11:36:20Z</time>
      </trkpt>
      <trkpt lat="45.66847" lon="4.34994">
        <ele>625.8</ele>
        <time>2023-02-19T11:36:21Z</time>
      </trkpt>
      <trkpt lat="45.66847" lon="4.34994">
        <ele>625.8</ele>
        <time>2023-02-19T11:36:22Z</time>
      </trkpt>
      <trkpt lat="45.66847" lon="4.34994">
        <ele>625.8</ele>
        <time>2023-02-19T11:36:23Z</time>
      </trkpt>
      <trkpt lat="45.66847" lon="4.34994">
        <ele>625.8</ele>
        <time>2023-02-19T11:36:24Z</time>
      </trkpt>
      <trkpt lat="45.66847" lon="4.34994">
        <ele>625.8</ele>
        <time>2023-02-19T11:36:25Z</time>
      </trkpt>
      <trkpt lat="45.66847" lon="4.34995">
        <ele>625.8</ele>
        <time>2023-02-19T11:36:26Z</time>
      </trkpt>
      <trkpt lat="45.66847" lon="4.34997">
        <ele>625.9</ele>
        <time>2023-02-19T11:36:27Z</time>
      </trkpt>
      <trkpt lat="45.66846" lon="4.34998">
        <ele>625.9</ele>
        <time>2023-02-19T11:36:28Z</time>
      </trkpt>
      <trkpt lat="45.66846" lon="4.34998">
        <ele>625.9</ele>
        <time>2023-02-19T11:36:29Z</time>
      </trkpt>
      <trkpt lat="45.66845" lon="4.34999">
        <ele>625.9</ele>
        <time>2023-02-19T11:36:30Z</time>
      </trkpt>
      <trkpt lat="45.66845" lon="4.34999">
        <ele>625.9</ele>
        <time>2023-02-19T11:36:31Z</time>
      </trkpt>
      <trkpt lat="45.66845" lon="4.34998">
        <ele>625.9</ele>
        <time>2023-02-19T11:36:32Z</time>
      </trkpt>
      <trkpt lat="45.66844" lon="4.34998">
        <ele>625.9</ele>
        <time>2023-02-19T11:36:33Z</time>
      </trkpt>
      <trkpt lat="45.66844" lon="4.34998">
        <ele>625.9</ele>
        <time>2023-02-19T11:36:34Z</time>
      </trkpt>
      <trkpt lat="45.66844" lon="4.34998">
        <ele>625.9</ele>
        <time>2023-02-19T11:36:35Z</time>
      </trkpt>
      <trkpt lat="45.66844" lon="4.34998">
        <ele>625.9</ele>
        <time>2023-02-19T11:36:36Z</time>
      </trkpt>
      <trkpt lat="45.66844" lon="4.34998">
        <ele>625.9</ele>
        <time>2023-02-19T11:36:37Z</time>
      </trkpt>
      <trkpt lat="45.66844" lon="4.34998">
        <ele>626</ele>
        <time>2023-02-19T11:36:38Z</time>
      </trkpt>
      <trkpt lat="45.66844" lon="4.34998">
        <ele>626</ele>
        <time>2023-02-19T11:36:39Z</time>
      </trkpt>
      <trkpt lat="45.66844" lon="4.34998">
        <ele>626</ele>
        <time>2023-02-19T11:36:40Z</time>
      </trkpt>
      <trkpt lat="45.66844" lon="4.34998">
        <ele>626</ele>
        <time>2023-02-19T11:36:41Z</time>
      </trkpt>
      <trkpt lat="45.66844" lon="4.34998">
        <ele>626</ele>
        <time>2023-02-19T11:36:42Z</time>
      </trkpt>
      <trkpt lat="45.66844" lon="4.34999">
        <ele>626</ele>
        <time>2023-02-19T11:36:43Z</time>
      </trkpt>
      <trkpt lat="45.66844" lon="4.34999">
        <ele>626</ele>
        <time>2023-02-19T11:36:44Z</time>
      </trkpt>
      <trkpt lat="45.66844" lon="4.34999">
        <ele>626</ele>
        <time>2023-02-19T11:36:45Z</time>
      </trkpt>
      <trkpt lat="45.66844" lon="4.34999">
        <ele>626</ele>
        <time>2023-02-19T11:36:46Z</time>
      </trkpt>
      <trkpt lat="45.66844" lon="4.34999">
        <ele>626</ele>
        <time>2023-02-19T11:36:47Z</time>
      </trkpt>
      <trkpt lat="45.66844" lon="4.34999">
        <ele>626</ele>
        <time>2023-02-19T11:36:48Z</time>
      </trkpt>
      <trkpt lat="45.66844" lon="4.34999">
        <ele>626</ele>
        <time>2023-02-19T11:36:49Z</time>
      </trkpt>
      <trkpt lat="45.66844" lon="4.34999">
        <ele>626</ele>
        <time>2023-02-19T11:36:50Z</time>
      </trkpt>
      <trkpt lat="45.66844" lon="4.34999">
        <ele>626</ele>
        <time>2023-02-19T11:36:51Z</time>
      </trkpt>
      <trkpt lat="45.66844" lon="4.34999">
        <ele>626</ele>
        <time>2023-02-19T11:36:52Z</time>
      </trkpt>
      <trkpt lat="45.66844" lon="4.34999">
        <ele>626</ele>
        <time>2023-02-19T11:36:53Z</time>
      </trkpt>
      <trkpt lat="45.66844" lon="4.34999">
        <ele>626</ele>
        <time>2023-02-19T11:36:54Z</time>
      </trkpt>
      <trkpt lat="45.66844" lon="4.34999">
        <ele>626</ele>
        <time>2023-02-19T11:36:55Z</time>
      </trkpt>
      <trkpt lat="45.66844" lon="4.34999">
        <ele>626</ele>
        <time>2023-02-19T11:36:56Z</time>
      </trkpt>
      <trkpt lat="45.66844" lon="4.34999">
        <ele>626</ele>
        <time>2023-02-19T11:36:57Z</time>
      </trkpt>
      <trkpt lat="45.66844" lon="4.34999">
        <ele>626</ele>
        <time>2023-02-19T11:36:58Z</time>
      </trkpt>
      <trkpt lat="45.66844" lon="4.34999">
        <ele>626</ele>
        <time>2023-02-19T11:36:59Z</time>
      </trkpt>
      <trkpt lat="45.66844" lon="4.34999">
        <ele>626</ele>
        <time>2023-02-19T11:37:00Z</time>
      </trkpt>
      <trkpt lat="45.66844" lon="4.34999">
        <ele>626</ele>
        <time>2023-02-19T11:37:01Z</time>
      </trkpt>
      <trkpt lat="45.66844" lon="4.34999">
        <ele>626</ele>
        <time>2023-02-19T11:37:02Z</time>
      </trkpt>
      <trkpt lat="45.66844" lon="4.35">
        <ele>626</ele>
        <time>2023-02-19T11:37:03Z</time>
      </trkpt>
      <trkpt lat="45.66844" lon="4.35">
        <ele>626</ele>
        <time>2023-02-19T11:37:04Z</time>
      </trkpt>
      <trkpt lat="45.66845" lon="4.35">
        <ele>626</ele>
        <time>2023-02-19T11:37:05Z</time>
      </trkpt>
      <trkpt lat="45.66845" lon="4.35">
        <ele>626</ele>
        <time>2023-02-19T11:37:06Z</time>
      </trkpt>
      <trkpt lat="45.66845" lon="4.35">
        <ele>626</ele>
        <time>2023-02-19T11:37:07Z</time>
      </trkpt>
      <trkpt lat="45.66845" lon="4.35">
        <ele>626</ele>
        <time>2023-02-19T11:37:08Z</time>
      </trkpt>
      <trkpt lat="45.66845" lon="4.34999">
        <ele>626</ele>
        <time>2023-02-19T11:37:09Z</time>
      </trkpt>
      <trkpt lat="45.66844" lon="4.34999">
        <ele>626</ele>
        <time>2023-02-19T11:37:10Z</time>
      </trkpt>
      <trkpt lat="45.66844" lon="4.34999">
        <ele>626</ele>
        <time>2023-02-19T11:37:11Z</time>
      </trkpt>
      <trkpt lat="45.66844" lon="4.34999">
        <ele>626</ele>
        <time>2023-02-19T11:37:12Z</time>
      </trkpt>
      <trkpt lat="45.66844" lon="4.34999">
        <ele>626</ele>
        <time>2023-02-19T11:37:13Z</time>
      </trkpt>
      <trkpt lat="45.66844" lon="4.34999">
        <ele>626</ele>
        <time>2023-02-19T11:37:14Z</time>
      </trkpt>
      <trkpt lat="45.66844" lon="4.34999">
        <ele>626</ele>
        <time>2023-02-19T11:37:15Z</time>
      </trkpt>
      <trkpt lat="45.66844" lon="4.34999">
        <ele>626</ele>
        <time>2023-02-19T11:37:16Z</time>
      </trkpt>
      <trkpt lat="45.66844" lon="4.35">
        <ele>626</ele>
        <time>2023-02-19T11:37:17Z</time>
      </trkpt>
      <trkpt lat="45.66844" lon="4.34999">
        <ele>626</ele>
        <time>2023-02-19T11:37:18Z</time>
      </trkpt>
      <trkpt lat="45.66844" lon="4.34999">
        <ele>626</ele>
        <time>2023-02-19T11:37:19Z</time>
      </trkpt>
      <trkpt lat="45.66844" lon="4.34998">
        <ele>626</ele>
        <time>2023-02-19T11:37:20Z</time>
      </trkpt>
      <trkpt lat="45.66845" lon="4.34997">
        <ele>626</ele>
        <time>2023-02-19T11:37:21Z</time>
      </trkpt>
      <trkpt lat="45.66845" lon="4.34997">
        <ele>626</ele>
        <time>2023-02-19T11:37:22Z</time>
      </trkpt>
      <trkpt lat="45.66845" lon="4.34996">
        <ele>626</ele>
        <time>2023-02-19T11:37:23Z</time>
      </trkpt>
      <trkpt lat="45.66845" lon="4.34996">
        <ele>626</ele>
        <time>2023-02-19T11:37:24Z</time>
      </trkpt>
      <trkpt lat="45.66845" lon="4.34997">
        <ele>626.1</ele>
        <time>2023-02-19T11:37:25Z</time>
      </trkpt>
      <trkpt lat="45.66845" lon="4.34996">
        <ele>626.1</ele>
        <time>2023-02-19T11:37:26Z</time>
      </trkpt>
      <trkpt lat="45.66844" lon="4.34996">
        <ele>626.1</ele>
        <time>2023-02-19T11:37:27Z</time>
      </trkpt>
      <trkpt lat="45.66844" lon="4.34995">
        <ele>626.1</ele>
        <time>2023-02-19T11:37:28Z</time>
      </trkpt>
      <trkpt lat="45.66844" lon="4.34995">
        <ele>626.1</ele>
        <time>2023-02-19T11:37:29Z</time>
      </trkpt>
      <trkpt lat="45.66844" lon="4.34995">
        <ele>626.1</ele>
        <time>2023-02-19T11:37:30Z</time>
      </trkpt>
      <trkpt lat="45.66844" lon="4.34995">
        <ele>626.1</ele>
        <time>2023-02-19T11:37:31Z</time>
      </trkpt>
      <trkpt lat="45.66844" lon="4.34995">
        <ele>626.1</ele>
        <time>2023-02-19T11:37:32Z</time>
      </trkpt>
      <trkpt lat="45.66844" lon="4.34995">
        <ele>626.1</ele>
        <time>2023-02-19T11:37:33Z</time>
      </trkpt>
      <trkpt lat="45.66844" lon="4.34995">
        <ele>626.1</ele>
        <time>2023-02-19T11:37:34Z</time>
      </trkpt>
      <trkpt lat="45.66844" lon="4.34994">
        <ele>626.1</ele>
        <time>2023-02-19T11:37:35Z</time>
      </trkpt>
      <trkpt lat="45.66844" lon="4.34994">
        <ele>626.1</ele>
        <time>2023-02-19T11:37:36Z</time>
      </trkpt>
      <trkpt lat="45.66844" lon="4.34994">
        <ele>626.1</ele>
        <time>2023-02-19T11:37:37Z</time>
      </trkpt>
      <trkpt lat="45.66844" lon="4.34994">
        <ele>626.1</ele>
        <time>2023-02-19T11:37:38Z</time>
      </trkpt>
      <trkpt lat="45.66844" lon="4.34994">
        <ele>626.1</ele>
        <time>2023-02-19T11:37:39Z</time>
      </trkpt>
      <trkpt lat="45.66844" lon="4.34994">
        <ele>626.1</ele>
        <time>2023-02-19T11:37:40Z</time>
      </trkpt>
      <trkpt lat="45.66844" lon="4.34994">
        <ele>626.1</ele>
        <time>2023-02-19T11:37:41Z</time>
      </trkpt>
      <trkpt lat="45.66844" lon="4.34994">
        <ele>626.1</ele>
        <time>2023-02-19T11:37:42Z</time>
      </trkpt>
      <trkpt lat="45.66844" lon="4.34994">
        <ele>626.1</ele>
        <time>2023-02-19T11:37:43Z</time>
      </trkpt>
      <trkpt lat="45.66844" lon="4.34994">
        <ele>626.1</ele>
        <time>2023-02-19T11:37:44Z</time>
      </trkpt>
      <trkpt lat="45.66844" lon="4.34994">
        <ele>626.1</ele>
        <time>2023-02-19T11:37:45Z</time>
      </trkpt>
      <trkpt lat="45.66844" lon="4.34993">
        <ele>626.1</ele>
        <time>2023-02-19T11:37:46Z</time>
      </trkpt>
      <trkpt lat="45.66844" lon="4.34993">
        <ele>626.1</ele>
        <time>2023-02-19T11:37:47Z</time>
      </trkpt>
      <trkpt lat="45.66844" lon="4.34992">
        <ele>626.1</ele>
        <time>2023-02-19T11:37:48Z</time>
      </trkpt>
      <trkpt lat="45.66844" lon="4.34991">
        <ele>626.1</ele>
        <time>2023-02-19T11:37:49Z</time>
      </trkpt>
      <trkpt lat="45.66843" lon="4.3499">
        <ele>626.2</ele>
        <time>2023-02-19T11:37:50Z</time>
      </trkpt>
      <trkpt lat="45.66843" lon="4.3499">
        <ele>626.2</ele>
        <time>2023-02-19T11:37:51Z</time>
      </trkpt>
      <trkpt lat="45.66843" lon="4.3499">
        <ele>626.2</ele>
        <time>2023-02-19T11:37:52Z</time>
      </trkpt>
      <trkpt lat="45.66843" lon="4.3499">
        <ele>626.2</ele>
        <time>2023-02-19T11:37:53Z</time>
      </trkpt>
      <trkpt lat="45.66843" lon="4.3499">
        <ele>626.2</ele>
        <time>2023-02-19T11:37:54Z</time>
      </trkpt>
      <trkpt lat="45.66843" lon="4.3499">
        <ele>626.2</ele>
        <time>2023-02-19T11:37:55Z</time>
      </trkpt>
      <trkpt lat="45.66843" lon="4.3499">
        <ele>626.2</ele>
        <time>2023-02-19T11:37:56Z</time>
      </trkpt>
      <trkpt lat="45.66843" lon="4.3499">
        <ele>626.2</ele>
        <time>2023-02-19T11:37:57Z</time>
      </trkpt>
      <trkpt lat="45.66843" lon="4.3499">
        <ele>626.2</ele>
        <time>2023-02-19T11:37:58Z</time>
      </trkpt>
      <trkpt lat="45.66843" lon="4.3499">
        <ele>626.2</ele>
        <time>2023-02-19T11:37:59Z</time>
      </trkpt>
      <trkpt lat="45.66843" lon="4.3499">
        <ele>626.2</ele>
        <time>2023-02-19T11:38:00Z</time>
      </trkpt>
      <trkpt lat="45.66843" lon="4.3499">
        <ele>626.2</ele>
        <time>2023-02-19T11:38:01Z</time>
      </trkpt>
      <trkpt lat="45.66843" lon="4.3499">
        <ele>626.2</ele>
        <time>2023-02-19T11:38:02Z</time>
      </trkpt>
      <trkpt lat="45.66843" lon="4.3499">
        <ele>626.2</ele>
        <time>2023-02-19T11:38:03Z</time>
      </trkpt>
      <trkpt lat="45.66843" lon="4.3499">
        <ele>626.2</ele>
        <time>2023-02-19T11:38:04Z</time>
      </trkpt>
      <trkpt lat="45.66843" lon="4.3499">
        <ele>626.2</ele>
        <time>2023-02-19T11:38:05Z</time>
      </trkpt>
      <trkpt lat="45.66843" lon="4.3499">
        <ele>626.2</ele>
        <time>2023-02-19T11:38:06Z</time>
      </trkpt>
      <trkpt lat="45.66843" lon="4.3499">
        <ele>626.2</ele>
        <time>2023-02-19T11:38:07Z</time>
      </trkpt>
      <trkpt lat="45.66843" lon="4.3499">
        <ele>626.2</ele>
        <time>2023-02-19T11:38:08Z</time>
      </trkpt>
      <trkpt lat="45.66843" lon="4.3499">
        <ele>626.2</ele>
        <time>2023-02-19T11:38:09Z</time>
      </trkpt>
      <trkpt lat="45.66843" lon="4.3499">
        <ele>626.2</ele>
        <time>2023-02-19T11:38:10Z</time>
      </trkpt>
      <trkpt lat="45.66843" lon="4.3499">
        <ele>626.2</ele>
        <time>2023-02-19T11:38:11Z</time>
      </trkpt>
      <trkpt lat="45.66843" lon="4.3499">
        <ele>626.2</ele>
        <time>2023-02-19T11:38:12Z</time>
      </trkpt>
      <trkpt lat="45.66843" lon="4.3499">
        <ele>626.2</ele>
        <time>2023-02-19T11:38:13Z</time>
      </trkpt>
      <trkpt lat="45.66843" lon="4.3499">
        <ele>626.2</ele>
        <time>2023-02-19T11:38:14Z</time>
      </trkpt>
      <trkpt lat="45.66843" lon="4.3499">
        <ele>626.2</ele>
        <time>2023-02-19T11:38:15Z</time>
      </trkpt>
      <trkpt lat="45.66843" lon="4.3499">
        <ele>626.2</ele>
        <time>2023-02-19T11:38:16Z</time>
      </trkpt>
      <trkpt lat="45.66843" lon="4.3499">
        <ele>626.2</ele>
        <time>2023-02-19T11:38:17Z</time>
      </trkpt>
      <trkpt lat="45.66843" lon="4.3499">
        <ele>626.2</ele>
        <time>2023-02-19T11:38:18Z</time>
      </trkpt>
      <trkpt lat="45.66843" lon="4.3499">
        <ele>626.2</ele>
        <time>2023-02-19T11:38:19Z</time>
      </trkpt>
      <trkpt lat="45.66843" lon="4.3499">
        <ele>626.2</ele>
        <time>2023-02-19T11:38:20Z</time>
      </trkpt>
      <trkpt lat="45.66843" lon="4.3499">
        <ele>626.2</ele>
        <time>2023-02-19T11:38:21Z</time>
      </trkpt>
      <trkpt lat="45.66843" lon="4.3499">
        <ele>626.2</ele>
        <time>2023-02-19T11:38:22Z</time>
      </trkpt>
      <trkpt lat="45.66843" lon="4.34989">
        <ele>626.2</ele>
        <time>2023-02-19T11:38:23Z</time>
      </trkpt>
      <trkpt lat="45.66843" lon="4.34989">
        <ele>626.2</ele>
        <time>2023-02-19T11:38:24Z</time>
      </trkpt>
      <trkpt lat="45.66843" lon="4.34989">
        <ele>626.2</ele>
        <time>2023-02-19T11:38:25Z</time>
      </trkpt>
      <trkpt lat="45.66843" lon="4.34989">
        <ele>626.2</ele>
        <time>2023-02-19T11:38:26Z</time>
      </trkpt>
      <trkpt lat="45.66843" lon="4.34989">
        <ele>626.2</ele>
        <time>2023-02-19T11:38:27Z</time>
      </trkpt>
      <trkpt lat="45.66843" lon="4.34989">
        <ele>626.2</ele>
        <time>2023-02-19T11:38:28Z</time>
      </trkpt>
      <trkpt lat="45.66843" lon="4.34989">
        <ele>626.2</ele>
        <time>2023-02-19T11:38:29Z</time>
      </trkpt>
      <trkpt lat="45.66843" lon="4.34989">
        <ele>626.2</ele>
        <time>2023-02-19T11:38:30Z</time>
      </trkpt>
      <trkpt lat="45.66843" lon="4.34989">
        <ele>626.2</ele>
        <time>2023-02-19T11:38:31Z</time>
      </trkpt>
      <trkpt lat="45.66843" lon="4.34989">
        <ele>626.2</ele>
        <time>2023-02-19T11:38:32Z</time>
      </trkpt>
      <trkpt lat="45.66843" lon="4.34989">
        <ele>626.2</ele>
        <time>2023-02-19T11:38:33Z</time>
      </trkpt>
      <trkpt lat="45.66843" lon="4.34989">
        <ele>626.2</ele>
        <time>2023-02-19T11:38:34Z</time>
      </trkpt>
      <trkpt lat="45.66843" lon="4.34989">
        <ele>626.2</ele>
        <time>2023-02-19T11:38:35Z</time>
      </trkpt>
      <trkpt lat="45.66843" lon="4.34989">
        <ele>626.2</ele>
        <time>2023-02-19T11:38:36Z</time>
      </trkpt>
      <trkpt lat="45.66843" lon="4.34989">
        <ele>626.2</ele>
        <time>2023-02-19T11:38:37Z</time>
      </trkpt>
      <trkpt lat="45.66843" lon="4.34989">
        <ele>626.2</ele>
        <time>2023-02-19T11:38:38Z</time>
      </trkpt>
      <trkpt lat="45.66843" lon="4.34989">
        <ele>626.2</ele>
        <time>2023-02-19T11:38:39Z</time>
      </trkpt>
      <trkpt lat="45.66843" lon="4.34989">
        <ele>626.2</ele>
        <time>2023-02-19T11:38:40Z</time>
      </trkpt>
      <trkpt lat="45.66843" lon="4.34989">
        <ele>626.2</ele>
        <time>2023-02-19T11:38:41Z</time>
      </trkpt>
      <trkpt lat="45.66843" lon="4.34989">
        <ele>626.2</ele>
        <time>2023-02-19T11:38:42Z</time>
      </trkpt>
      <trkpt lat="45.66843" lon="4.34989">
        <ele>626.2</ele>
        <time>2023-02-19T11:38:43Z</time>
      </trkpt>
      <trkpt lat="45.66843" lon="4.34989">
        <ele>626.2</ele>
        <time>2023-02-19T11:38:44Z</time>
      </trkpt>
      <trkpt lat="45.66843" lon="4.34989">
        <ele>626.2</ele>
        <time>2023-02-19T11:38:45Z</time>
      </trkpt>
      <trkpt lat="45.66843" lon="4.34989">
        <ele>626.2</ele>
        <time>2023-02-19T11:38:46Z</time>
      </trkpt>
      <trkpt lat="45.66843" lon="4.34989">
        <ele>626.2</ele>
        <time>2023-02-19T11:38:47Z</time>
      </trkpt>
      <trkpt lat="45.66843" lon="4.34989">
        <ele>626.2</ele>
        <time>2023-02-19T11:38:48Z</time>
      </trkpt>
      <trkpt lat="45.66843" lon="4.34989">
        <ele>626.2</ele>
        <time>2023-02-19T11:38:49Z</time>
      </trkpt>
      <trkpt lat="45.66843" lon="4.34989">
        <ele>626.2</ele>
        <time>2023-02-19T11:38:50Z</time>
      </trkpt>
      <trkpt lat="45.66843" lon="4.34989">
        <ele>626.2</ele>
        <time>2023-02-19T11:38:51Z</time>
      </trkpt>
      <trkpt lat="45.66843" lon="4.34989">
        <ele>626.2</ele>
        <time>2023-02-19T11:38:52Z</time>
      </trkpt>
      <trkpt lat="45.66843" lon="4.34989">
        <ele>626.2</ele>
        <time>2023-02-19T11:38:53Z</time>
      </trkpt>
      <trkpt lat="45.66843" lon="4.34989">
        <ele>626.2</ele>
        <time>2023-02-19T11:38:54Z</time>
      </trkpt>
      <trkpt lat="45.66843" lon="4.34989">
        <ele>626.2</ele>
        <time>2023-02-19T11:38:55Z</time>
      </trkpt>
      <trkpt lat="45.66843" lon="4.34989">
        <ele>626.2</ele>
        <time>2023-02-19T11:38:56Z</time>
      </trkpt>
      <trkpt lat="45.66843" lon="4.34989">
        <ele>626.2</ele>
        <time>2023-02-19T11:38:57Z</time>
      </trkpt>
      <trkpt lat="45.66843" lon="4.34989">
        <ele>626.2</ele>
        <time>2023-02-19T11:38:58Z</time>
      </trkpt>
      <trkpt lat="45.66843" lon="4.34989">
        <ele>626.2</ele>
        <time>2023-02-19T11:38:59Z</time>
      </trkpt>
      <trkpt lat="45.66843" lon="4.34988">
        <ele>626.2</ele>
        <time>2023-02-19T11:39:00Z</time>
      </trkpt>
      <trkpt lat="45.66843" lon="4.34988">
        <ele>626.2</ele>
        <time>2023-02-19T11:39:01Z</time>
      </trkpt>
      <trkpt lat="45.66843" lon="4.34988">
        <ele>626.2</ele>
        <time>2023-02-19T11:39:02Z</time>
      </trkpt>
      <trkpt lat="45.66843" lon="4.34988">
        <ele>626.2</ele>
        <time>2023-02-19T11:39:03Z</time>
      </trkpt>
      <trkpt lat="45.66843" lon="4.34988">
        <ele>626.2</ele>
        <time>2023-02-19T11:39:04Z</time>
      </trkpt>
      <trkpt lat="45.66843" lon="4.34988">
        <ele>626.2</ele>
        <time>2023-02-19T11:39:05Z</time>
      </trkpt>
      <trkpt lat="45.66843" lon="4.34988">
        <ele>626.2</ele>
        <time>2023-02-19T11:39:06Z</time>
      </trkpt>
      <trkpt lat="45.66843" lon="4.34988">
        <ele>626.2</ele>
        <time>2023-02-19T11:39:07Z</time>
      </trkpt>
      <trkpt lat="45.66843" lon="4.34988">
        <ele>626.2</ele>
        <time>2023-02-19T11:39:08Z</time>
      </trkpt>
      <trkpt lat="45.66843" lon="4.34988">
        <ele>626.2</ele>
        <time>2023-02-19T11:39:09Z</time>
      </trkpt>
      <trkpt lat="45.66843" lon="4.34988">
        <ele>626.2</ele>
        <time>2023-02-19T11:39:10Z</time>
      </trkpt>
      <trkpt lat="45.66843" lon="4.34988">
        <ele>626.2</ele>
        <time>2023-02-19T11:39:11Z</time>
      </trkpt>
      <trkpt lat="45.66843" lon="4.34988">
        <ele>626.2</ele>
        <time>2023-02-19T11:39:12Z</time>
      </trkpt>
      <trkpt lat="45.66843" lon="4.34988">
        <ele>626.2</ele>
        <time>2023-02-19T11:39:13Z</time>
      </trkpt>
      <trkpt lat="45.66843" lon="4.34988">
        <ele>626.2</ele>
        <time>2023-02-19T11:39:14Z</time>
      </trkpt>
      <trkpt lat="45.66843" lon="4.34988">
        <ele>626.2</ele>
        <time>2023-02-19T11:39:15Z</time>
      </trkpt>
      <trkpt lat="45.66843" lon="4.34988">
        <ele>626.2</ele>
        <time>2023-02-19T11:39:16Z</time>
      </trkpt>
      <trkpt lat="45.66843" lon="4.34988">
        <ele>626.2</ele>
        <time>2023-02-19T11:39:17Z</time>
      </trkpt>
      <trkpt lat="45.66843" lon="4.34988">
        <ele>626.2</ele>
        <time>2023-02-19T11:39:18Z</time>
      </trkpt>
      <trkpt lat="45.66843" lon="4.34988">
        <ele>626.2</ele>
        <time>2023-02-19T11:39:19Z</time>
      </trkpt>
      <trkpt lat="45.66843" lon="4.34988">
        <ele>626.2</ele>
        <time>2023-02-19T11:39:20Z</time>
      </trkpt>
      <trkpt lat="45.66843" lon="4.34988">
        <ele>626.2</ele>
        <time>2023-02-19T11:39:21Z</time>
      </trkpt>
      <trkpt lat="45.66843" lon="4.34988">
        <ele>626.2</ele>
        <time>2023-02-19T11:39:22Z</time>
      </trkpt>
      <trkpt lat="45.66843" lon="4.34988">
        <ele>626.2</ele>
        <time>2023-02-19T11:39:23Z</time>
      </trkpt>
      <trkpt lat="45.66843" lon="4.34988">
        <ele>626.2</ele>
        <time>2023-02-19T11:39:24Z</time>
      </trkpt>
      <trkpt lat="45.66843" lon="4.34988">
        <ele>626.2</ele>
        <time>2023-02-19T11:39:25Z</time>
      </trkpt>
      <trkpt lat="45.66843" lon="4.34988">
        <ele>626.2</ele>
        <time>2023-02-19T11:39:26Z</time>
      </trkpt>
      <trkpt lat="45.66843" lon="4.34988">
        <ele>626.2</ele>
        <time>2023-02-19T11:39:27Z</time>
      </trkpt>
      <trkpt lat="45.66843" lon="4.34988">
        <ele>626.2</ele>
        <time>2023-02-19T11:39:28Z</time>
      </trkpt>
      <trkpt lat="45.66843" lon="4.34988">
        <ele>626.2</ele>
        <time>2023-02-19T11:39:29Z</time>
      </trkpt>
      <trkpt lat="45.66843" lon="4.34988">
        <ele>626.2</ele>
        <time>2023-02-19T11:39:30Z</time>
      </trkpt>
      <trkpt lat="45.66843" lon="4.34988">
        <ele>626.2</ele>
        <time>2023-02-19T11:39:31Z</time>
      </trkpt>
      <trkpt lat="45.66843" lon="4.34988">
        <ele>626.2</ele>
        <time>2023-02-19T11:39:32Z</time>
      </trkpt>
      <trkpt lat="45.66843" lon="4.34988">
        <ele>626.2</ele>
        <time>2023-02-19T11:39:33Z</time>
      </trkpt>
      <trkpt lat="45.66843" lon="4.34988">
        <ele>626.2</ele>
        <time>2023-02-19T11:39:34Z</time>
      </trkpt>
      <trkpt lat="45.66843" lon="4.34988">
        <ele>626.2</ele>
        <time>2023-02-19T11:39:35Z</time>
      </trkpt>
      <trkpt lat="45.66843" lon="4.34987">
        <ele>626.2</ele>
        <time>2023-02-19T11:39:36Z</time>
      </trkpt>
      <trkpt lat="45.66843" lon="4.34987">
        <ele>626.2</ele>
        <time>2023-02-19T11:39:37Z</time>
      </trkpt>
      <trkpt lat="45.66843" lon="4.34987">
        <ele>626.2</ele>
        <time>2023-02-19T11:39:38Z</time>
      </trkpt>
      <trkpt lat="45.66843" lon="4.34987">
        <ele>626.2</ele>
        <time>2023-02-19T11:39:39Z</time>
      </trkpt>
      <trkpt lat="45.66843" lon="4.34987">
        <ele>626.2</ele>
        <time>2023-02-19T11:39:40Z</time>
      </trkpt>
      <trkpt lat="45.66843" lon="4.34987">
        <ele>626.2</ele>
        <time>2023-02-19T11:39:41Z</time>
      </trkpt>
      <trkpt lat="45.66843" lon="4.34987">
        <ele>626.2</ele>
        <time>2023-02-19T11:39:42Z</time>
      </trkpt>
      <trkpt lat="45.66843" lon="4.34987">
        <ele>626.2</ele>
        <time>2023-02-19T11:39:43Z</time>
      </trkpt>
      <trkpt lat="45.66843" lon="4.34987">
        <ele>626.2</ele>
        <time>2023-02-19T11:39:44Z</time>
      </trkpt>
      <trkpt lat="45.66843" lon="4.34987">
        <ele>626.2</ele>
        <time>2023-02-19T11:39:45Z</time>
      </trkpt>
      <trkpt lat="45.66843" lon="4.34987">
        <ele>626.2</ele>
        <time>2023-02-19T11:39:46Z</time>
      </trkpt>
      <trkpt lat="45.66843" lon="4.34987">
        <ele>626.2</ele>
        <time>2023-02-19T11:39:47Z</time>
      </trkpt>
      <trkpt lat="45.66843" lon="4.34987">
        <ele>626.2</ele>
        <time>2023-02-19T11:39:48Z</time>
      </trkpt>
      <trkpt lat="45.66843" lon="4.34987">
        <ele>626.2</ele>
        <time>2023-02-19T11:39:49Z</time>
      </trkpt>
      <trkpt lat="45.66843" lon="4.34987">
        <ele>626.2</ele>
        <time>2023-02-19T11:39:50Z</time>
      </trkpt>
      <trkpt lat="45.66843" lon="4.34987">
        <ele>626.2</ele>
        <time>2023-02-19T11:39:51Z</time>
      </trkpt>
      <trkpt lat="45.66843" lon="4.34987">
        <ele>626.2</ele>
        <time>2023-02-19T11:39:52Z</time>
      </trkpt>
      <trkpt lat="45.66843" lon="4.34987">
        <ele>626.2</ele>
        <time>2023-02-19T11:39:53Z</time>
      </trkpt>
      <trkpt lat="45.66843" lon="4.34987">
        <ele>626.2</ele>
        <time>2023-02-19T11:39:54Z</time>
      </trkpt>
      <trkpt lat="45.66843" lon="4.34987">
        <ele>626.2</ele>
        <time>2023-02-19T11:39:55Z</time>
      </trkpt>
      <trkpt lat="45.66843" lon="4.34987">
        <ele>626.2</ele>
        <time>2023-02-19T11:39:56Z</time>
      </trkpt>
      <trkpt lat="45.66843" lon="4.34987">
        <ele>626.2</ele>
        <time>2023-02-19T11:39:57Z</time>
      </trkpt>
      <trkpt lat="45.66843" lon="4.34987">
        <ele>626.2</ele>
        <time>2023-02-19T11:39:58Z</time>
      </trkpt>
      <trkpt lat="45.66843" lon="4.34987">
        <ele>626.2</ele>
        <time>2023-02-19T11:39:59Z</time>
      </trkpt>
      <trkpt lat="45.66843" lon="4.34987">
        <ele>626.2</ele>
        <time>2023-02-19T11:40:00Z</time>
      </trkpt>
      <trkpt lat="45.66843" lon="4.34987">
        <ele>626.2</ele>
        <time>2023-02-19T11:40:01Z</time>
      </trkpt>
      <trkpt lat="45.66843" lon="4.34987">
        <ele>626.2</ele>
        <time>2023-02-19T11:40:02Z</time>
      </trkpt>
      <trkpt lat="45.66843" lon="4.34987">
        <ele>626.2</ele>
        <time>2023-02-19T11:40:03Z</time>
      </trkpt>
      <trkpt lat="45.66843" lon="4.34987">
        <ele>626.2</ele>
        <time>2023-02-19T11:40:04Z</time>
      </trkpt>
      <trkpt lat="45.66843" lon="4.34987">
        <ele>626.2</ele>
        <time>2023-02-19T11:40:06Z</time>
      </trkpt>
      <trkpt lat="45.66843" lon="4.34987">
        <ele>626.2</ele>
        <time>2023-02-19T11:40:07Z</time>
      </trkpt>
      <trkpt lat="45.66843" lon="4.34987">
        <ele>626.2</ele>
        <time>2023-02-19T11:40:08Z</time>
      </trkpt>
      <trkpt lat="45.66843" lon="4.34987">
        <ele>626.2</ele>
        <time>2023-02-19T11:40:09Z</time>
      </trkpt>
      <trkpt lat="45.66843" lon="4.34987">
        <ele>626.2</ele>
        <time>2023-02-19T11:40:10Z</time>
      </trkpt>
      <trkpt lat="45.66843" lon="4.34987">
        <ele>626.2</ele>
        <time>2023-02-19T11:40:11Z</time>
      </trkpt>
      <trkpt lat="45.66843" lon="4.34987">
        <ele>626.2</ele>
        <time>2023-02-19T11:40:12Z</time>
      </trkpt>
      <trkpt lat="45.66843" lon="4.34986">
        <ele>626.2</ele>
        <time>2023-02-19T11:40:13Z</time>
      </trkpt>
      <trkpt lat="45.66843" lon="4.34986">
        <ele>626.2</ele>
        <time>2023-02-19T11:40:14Z</time>
      </trkpt>
      <trkpt lat="45.66843" lon="4.34986">
        <ele>626.2</ele>
        <time>2023-02-19T11:40:15Z</time>
      </trkpt>
      <trkpt lat="45.66843" lon="4.34986">
        <ele>626.2</ele>
        <time>2023-02-19T11:40:16Z</time>
      </trkpt>
      <trkpt lat="45.66843" lon="4.34986">
        <ele>626.2</ele>
        <time>2023-02-19T11:40:17Z</time>
      </trkpt>
      <trkpt lat="45.66843" lon="4.34986">
        <ele>626.2</ele>
        <time>2023-02-19T11:40:18Z</time>
      </trkpt>
      <trkpt lat="45.66843" lon="4.34986">
        <ele>626.2</ele>
        <time>2023-02-19T11:40:19Z</time>
      </trkpt>
      <trkpt lat="45.66843" lon="4.34986">
        <ele>626.2</ele>
        <time>2023-02-19T11:40:20Z</time>
      </trkpt>
      <trkpt lat="45.66843" lon="4.34986">
        <ele>626.2</ele>
        <time>2023-02-19T11:40:21Z</time>
      </trkpt>
      <trkpt lat="45.66843" lon="4.34986">
        <ele>626.2</ele>
        <time>2023-02-19T11:40:22Z</time>
      </trkpt>
      <trkpt lat="45.66843" lon="4.34986">
        <ele>626.2</ele>
        <time>2023-02-19T11:40:23Z</time>
      </trkpt>
      <trkpt lat="45.66843" lon="4.34986">
        <ele>626.2</ele>
        <time>2023-02-19T11:40:24Z</time>
      </trkpt>
      <trkpt lat="45.66843" lon="4.34986">
        <ele>626.2</ele>
        <time>2023-02-19T11:40:25Z</time>
      </trkpt>
      <trkpt lat="45.66843" lon="4.34986">
        <ele>626.2</ele>
        <time>2023-02-19T11:40:26Z</time>
      </trkpt>
      <trkpt lat="45.66843" lon="4.34986">
        <ele>626.2</ele>
        <time>2023-02-19T11:40:27Z</time>
      </trkpt>
      <trkpt lat="45.66843" lon="4.34986">
        <ele>626.2</ele>
        <time>2023-02-19T11:40:28Z</time>
      </trkpt>
      <trkpt lat="45.66843" lon="4.34986">
        <ele>626.2</ele>
        <time>2023-02-19T11:40:29Z</time>
      </trkpt>
      <trkpt lat="45.66843" lon="4.34986">
        <ele>626.2</ele>
        <time>2023-02-19T11:40:30Z</time>
      </trkpt>
      <trkpt lat="45.66843" lon="4.34986">
        <ele>626.2</ele>
        <time>2023-02-19T11:40:31Z</time>
      </trkpt>
      <trkpt lat="45.66843" lon="4.34986">
        <ele>626.2</ele>
        <time>2023-02-19T11:40:32Z</time>
      </trkpt>
      <trkpt lat="45.66843" lon="4.34986">
        <ele>626.2</ele>
        <time>2023-02-19T11:40:33Z</time>
      </trkpt>
      <trkpt lat="45.66843" lon="4.34986">
        <ele>626.2</ele>
        <time>2023-02-19T11:40:34Z</time>
      </trkpt>
      <trkpt lat="45.66843" lon="4.34986">
        <ele>626.2</ele>
        <time>2023-02-19T11:40:35Z</time>
      </trkpt>
      <trkpt lat="45.66843" lon="4.34986">
        <ele>626.2</ele>
        <time>2023-02-19T11:40:36Z</time>
      </trkpt>
      <trkpt lat="45.66843" lon="4.34986">
        <ele>626.2</ele>
        <time>2023-02-19T11:40:37Z</time>
      </trkpt>
      <trkpt lat="45.66843" lon="4.34986">
        <ele>626.2</ele>
        <time>2023-02-19T11:40:38Z</time>
      </trkpt>
      <trkpt lat="45.66843" lon="4.34986">
        <ele>626.2</ele>
        <time>2023-02-19T11:40:39Z</time>
      </trkpt>
      <trkpt lat="45.66843" lon="4.34986">
        <ele>626.2</ele>
        <time>2023-02-19T11:40:40Z</time>
      </trkpt>
      <trkpt lat="45.66843" lon="4.34986">
        <ele>626.2</ele>
        <time>2023-02-19T11:40:41Z</time>
      </trkpt>
      <trkpt lat="45.66843" lon="4.34986">
        <ele>626.2</ele>
        <time>2023-02-19T11:40:42Z</time>
      </trkpt>
      <trkpt lat="45.66843" lon="4.34986">
        <ele>626.2</ele>
        <time>2023-02-19T11:40:43Z</time>
      </trkpt>
      <trkpt lat="45.66843" lon="4.34986">
        <ele>626.2</ele>
        <time>2023-02-19T11:40:44Z</time>
      </trkpt>
      <trkpt lat="45.66843" lon="4.34986">
        <ele>626.2</ele>
        <time>2023-02-19T11:40:45Z</time>
      </trkpt>
      <trkpt lat="45.66843" lon="4.34986">
        <ele>626.2</ele>
        <time>2023-02-19T11:40:46Z</time>
      </trkpt>
      <trkpt lat="45.66843" lon="4.34986">
        <ele>626.2</ele>
        <time>2023-02-19T11:40:47Z</time>
      </trkpt>
      <trkpt lat="45.66843" lon="4.34986">
        <ele>626.2</ele>
        <time>2023-02-19T11:40:48Z</time>
      </trkpt>
      <trkpt lat="45.66843" lon="4.34986">
        <ele>626.2</ele>
        <time>2023-02-19T11:40:49Z</time>
      </trkpt>
      <trkpt lat="45.66843" lon="4.34985">
        <ele>626.2</ele>
        <time>2023-02-19T11:40:50Z</time>
      </trkpt>
      <trkpt lat="45.66843" lon="4.34985">
        <ele>626.2</ele>
        <time>2023-02-19T11:40:51Z</time>
      </trkpt>
      <trkpt lat="45.66843" lon="4.34984">
        <ele>626.2</ele>
        <time>2023-02-19T11:40:52Z</time>
      </trkpt>
      <trkpt lat="45.66843" lon="4.34983">
        <ele>626.2</ele>
        <time>2023-02-19T11:40:53Z</time>
      </trkpt>
      <trkpt lat="45.66843" lon="4.34982">
        <ele>626.3</ele>
        <time>2023-02-19T11:40:54Z</time>
      </trkpt>
      <trkpt lat="45.66843" lon="4.34982">
        <ele>626.3</ele>
        <time>2023-02-19T11:40:55Z</time>
      </trkpt>
      <trkpt lat="45.66843" lon="4.34983">
        <ele>626.3</ele>
        <time>2023-02-19T11:40:56Z</time>
      </trkpt>
      <trkpt lat="45.66843" lon="4.34983">
        <ele>626.3</ele>
        <time>2023-02-19T11:40:57Z</time>
      </trkpt>
      <trkpt lat="45.66843" lon="4.34983">
        <ele>626.3</ele>
        <time>2023-02-19T11:40:58Z</time>
      </trkpt>
      <trkpt lat="45.66843" lon="4.34983">
        <ele>626.3</ele>
        <time>2023-02-19T11:40:59Z</time>
      </trkpt>
      <trkpt lat="45.66843" lon="4.34982">
        <ele>626.3</ele>
        <time>2023-02-19T11:41:00Z</time>
      </trkpt>
      <trkpt lat="45.66843" lon="4.34982">
        <ele>626.3</ele>
        <time>2023-02-19T11:41:01Z</time>
      </trkpt>
      <trkpt lat="45.66843" lon="4.34983">
        <ele>626.3</ele>
        <time>2023-02-19T11:41:02Z</time>
      </trkpt>
      <trkpt lat="45.66843" lon="4.34983">
        <ele>626.3</ele>
        <time>2023-02-19T11:41:03Z</time>
      </trkpt>
      <trkpt lat="45.66843" lon="4.34983">
        <ele>626.3</ele>
        <time>2023-02-19T11:41:04Z</time>
      </trkpt>
      <trkpt lat="45.66843" lon="4.34983">
        <ele>626.3</ele>
        <time>2023-02-19T11:41:05Z</time>
      </trkpt>
      <trkpt lat="45.66843" lon="4.34983">
        <ele>626.3</ele>
        <time>2023-02-19T11:41:06Z</time>
      </trkpt>
      <trkpt lat="45.66843" lon="4.34982">
        <ele>626.3</ele>
        <time>2023-02-19T11:41:07Z</time>
      </trkpt>
      <trkpt lat="45.66843" lon="4.34982">
        <ele>626.3</ele>
        <time>2023-02-19T11:41:08Z</time>
      </trkpt>
      <trkpt lat="45.66843" lon="4.34982">
        <ele>626.3</ele>
        <time>2023-02-19T11:41:09Z</time>
      </trkpt>
      <trkpt lat="45.66843" lon="4.34982">
        <ele>626.3</ele>
        <time>2023-02-19T11:41:10Z</time>
      </trkpt>
      <trkpt lat="45.66843" lon="4.34982">
        <ele>626.3</ele>
        <time>2023-02-19T11:41:11Z</time>
      </trkpt>
      <trkpt lat="45.66843" lon="4.34983">
        <ele>626.3</ele>
        <time>2023-02-19T11:41:12Z</time>
      </trkpt>
      <trkpt lat="45.66843" lon="4.34983">
        <ele>626.3</ele>
        <time>2023-02-19T11:41:13Z</time>
      </trkpt>
      <trkpt lat="45.66843" lon="4.34983">
        <ele>626.3</ele>
        <time>2023-02-19T11:41:14Z</time>
      </trkpt>
      <trkpt lat="45.66843" lon="4.34983">
        <ele>626.3</ele>
        <time>2023-02-19T11:41:15Z</time>
      </trkpt>
      <trkpt lat="45.66843" lon="4.34983">
        <ele>626.3</ele>
        <time>2023-02-19T11:41:16Z</time>
      </trkpt>
      <trkpt lat="45.66843" lon="4.34984">
        <ele>626.3</ele>
        <time>2023-02-19T11:41:17Z</time>
      </trkpt>
      <trkpt lat="45.66843" lon="4.34984">
        <ele>626.3</ele>
        <time>2023-02-19T11:41:18Z</time>
      </trkpt>
      <trkpt lat="45.66843" lon="4.34984">
        <ele>626.3</ele>
        <time>2023-02-19T11:41:19Z</time>
      </trkpt>
      <trkpt lat="45.66843" lon="4.34984">
        <ele>626.3</ele>
        <time>2023-02-19T11:41:20Z</time>
      </trkpt>
      <trkpt lat="45.66843" lon="4.34984">
        <ele>626.3</ele>
        <time>2023-02-19T11:41:22Z</time>
      </trkpt>
      <trkpt lat="45.66843" lon="4.34984">
        <ele>626.3</ele>
        <time>2023-02-19T11:41:23Z</time>
      </trkpt>
      <trkpt lat="45.66843" lon="4.34984">
        <ele>626.3</ele>
        <time>2023-02-19T11:41:24Z</time>
      </trkpt>
      <trkpt lat="45.66843" lon="4.34984">
        <ele>626.3</ele>
        <time>2023-02-19T11:41:25Z</time>
      </trkpt>
      <trkpt lat="45.66843" lon="4.34984">
        <ele>626.3</ele>
        <time>2023-02-19T11:41:26Z</time>
      </trkpt>
      <trkpt lat="45.66843" lon="4.34985">
        <ele>626.3</ele>
        <time>2023-02-19T11:41:27Z</time>
      </trkpt>
      <trkpt lat="45.66843" lon="4.34985">
        <ele>626.3</ele>
        <time>2023-02-19T11:41:28Z</time>
      </trkpt>
      <trkpt lat="45.66843" lon="4.34985">
        <ele>626.3</ele>
        <time>2023-02-19T11:41:29Z</time>
      </trkpt>
      <trkpt lat="45.66843" lon="4.34985">
        <ele>626.3</ele>
        <time>2023-02-19T11:41:30Z</time>
      </trkpt>
      <trkpt lat="45.66843" lon="4.34985">
        <ele>626.3</ele>
        <time>2023-02-19T11:41:31Z</time>
      </trkpt>
      <trkpt lat="45.66843" lon="4.34985">
        <ele>626.3</ele>
        <time>2023-02-19T11:41:32Z</time>
      </trkpt>
      <trkpt lat="45.66843" lon="4.34985">
        <ele>626.3</ele>
        <time>2023-02-19T11:41:33Z</time>
      </trkpt>
      <trkpt lat="45.66843" lon="4.34985">
        <ele>626.3</ele>
        <time>2023-02-19T11:41:34Z</time>
      </trkpt>
      <trkpt lat="45.66843" lon="4.34985">
        <ele>626.3</ele>
        <time>2023-02-19T11:41:35Z</time>
      </trkpt>
      <trkpt lat="45.66843" lon="4.34985">
        <ele>626.3</ele>
        <time>2023-02-19T11:41:36Z</time>
      </trkpt>
      <trkpt lat="45.66843" lon="4.34986">
        <ele>626.3</ele>
        <time>2023-02-19T11:41:37Z</time>
      </trkpt>
      <trkpt lat="45.66843" lon="4.34987">
        <ele>626.4</ele>
        <time>2023-02-19T11:41:38Z</time>
      </trkpt>
      <trkpt lat="45.66843" lon="4.34987">
        <ele>626.4</ele>
        <time>2023-02-19T11:41:39Z</time>
      </trkpt>
      <trkpt lat="45.66843" lon="4.34987">
        <ele>626.4</ele>
        <time>2023-02-19T11:41:40Z</time>
      </trkpt>
      <trkpt lat="45.66843" lon="4.34988">
        <ele>626.4</ele>
        <time>2023-02-19T11:41:41Z</time>
      </trkpt>
      <trkpt lat="45.66843" lon="4.34988">
        <ele>626.4</ele>
        <time>2023-02-19T11:41:42Z</time>
      </trkpt>
      <trkpt lat="45.66843" lon="4.34988">
        <ele>626.4</ele>
        <time>2023-02-19T11:41:43Z</time>
      </trkpt>
      <trkpt lat="45.66843" lon="4.34987">
        <ele>626.4</ele>
        <time>2023-02-19T11:41:44Z</time>
      </trkpt>
      <trkpt lat="45.66842" lon="4.34987">
        <ele>626.4</ele>
        <time>2023-02-19T11:41:45Z</time>
      </trkpt>
      <trkpt lat="45.66842" lon="4.34986">
        <ele>626.4</ele>
        <time>2023-02-19T11:41:46Z</time>
      </trkpt>
      <trkpt lat="45.66842" lon="4.34986">
        <ele>626.4</ele>
        <time>2023-02-19T11:41:47Z</time>
      </trkpt>
      <trkpt lat="45.66842" lon="4.34986">
        <ele>626.4</ele>
        <time>2023-02-19T11:41:48Z</time>
      </trkpt>
      <trkpt lat="45.66842" lon="4.34986">
        <ele>626.4</ele>
        <time>2023-02-19T11:41:49Z</time>
      </trkpt>
      <trkpt lat="45.66842" lon="4.34987">
        <ele>626.4</ele>
        <time>2023-02-19T11:41:50Z</time>
      </trkpt>
      <trkpt lat="45.66843" lon="4.34988">
        <ele>626.4</ele>
        <time>2023-02-19T11:41:51Z</time>
      </trkpt>
      <trkpt lat="45.66844" lon="4.34989">
        <ele>626.5</ele>
        <time>2023-02-19T11:41:52Z</time>
      </trkpt>
      <trkpt lat="45.66844" lon="4.34989">
        <ele>626.5</ele>
        <time>2023-02-19T11:41:53Z</time>
      </trkpt>
      <trkpt lat="45.66844" lon="4.3499">
        <ele>626.5</ele>
        <time>2023-02-19T11:41:54Z</time>
      </trkpt>
      <trkpt lat="45.66844" lon="4.3499">
        <ele>626.5</ele>
        <time>2023-02-19T11:41:55Z</time>
      </trkpt>
      <trkpt lat="45.66843" lon="4.3499">
        <ele>626.5</ele>
        <time>2023-02-19T11:41:56Z</time>
      </trkpt>
      <trkpt lat="45.66842" lon="4.3499">
        <ele>626.5</ele>
        <time>2023-02-19T11:41:57Z</time>
      </trkpt>
      <trkpt lat="45.66841" lon="4.34991">
        <ele>626.5</ele>
        <time>2023-02-19T11:41:58Z</time>
      </trkpt>
      <trkpt lat="45.6684" lon="4.34991">
        <ele>626.5</ele>
        <time>2023-02-19T11:41:59Z</time>
      </trkpt>
      <trkpt lat="45.6684" lon="4.34991">
        <ele>626.5</ele>
        <time>2023-02-19T11:42:00Z</time>
      </trkpt>
      <trkpt lat="45.6684" lon="4.34992">
        <ele>626.5</ele>
        <time>2023-02-19T11:42:01Z</time>
      </trkpt>
      <trkpt lat="45.66839" lon="4.34992">
        <ele>626.6</ele>
        <time>2023-02-19T11:42:02Z</time>
      </trkpt>
      <trkpt lat="45.66839" lon="4.34993">
        <ele>626.6</ele>
        <time>2023-02-19T11:42:03Z</time>
      </trkpt>
      <trkpt lat="45.66838" lon="4.34993">
        <ele>626.6</ele>
        <time>2023-02-19T11:42:04Z</time>
      </trkpt>
      <trkpt lat="45.66839" lon="4.34993">
        <ele>626.6</ele>
        <time>2023-02-19T11:42:05Z</time>
      </trkpt>
      <trkpt lat="45.66839" lon="4.34993">
        <ele>626.6</ele>
        <time>2023-02-19T11:42:06Z</time>
      </trkpt>
      <trkpt lat="45.6684" lon="4.34993">
        <ele>626.6</ele>
        <time>2023-02-19T11:42:07Z</time>
      </trkpt>
      <trkpt lat="45.6684" lon="4.34993">
        <ele>626.6</ele>
        <time>2023-02-19T11:42:08Z</time>
      </trkpt>
      <trkpt lat="45.6684" lon="4.34993">
        <ele>626.6</ele>
        <time>2023-02-19T11:42:09Z</time>
      </trkpt>
      <trkpt lat="45.6684" lon="4.34993">
        <ele>626.6</ele>
        <time>2023-02-19T11:42:10Z</time>
      </trkpt>
      <trkpt lat="45.6684" lon="4.34993">
        <ele>626.6</ele>
        <time>2023-02-19T11:42:11Z</time>
      </trkpt>
      <trkpt lat="45.6684" lon="4.34993">
        <ele>626.6</ele>
        <time>2023-02-19T11:42:12Z</time>
      </trkpt>
      <trkpt lat="45.6684" lon="4.34992">
        <ele>626.6</ele>
        <time>2023-02-19T11:42:13Z</time>
      </trkpt>
      <trkpt lat="45.6684" lon="4.34993">
        <ele>626.6</ele>
        <time>2023-02-19T11:42:14Z</time>
      </trkpt>
      <trkpt lat="45.6684" lon="4.34992">
        <ele>626.6</ele>
        <time>2023-02-19T11:42:15Z</time>
      </trkpt>
      <trkpt lat="45.6684" lon="4.34992">
        <ele>626.6</ele>
        <time>2023-02-19T11:42:16Z</time>
      </trkpt>
      <trkpt lat="45.6684" lon="4.34992">
        <ele>626.6</ele>
        <time>2023-02-19T11:42:17Z</time>
      </trkpt>
      <trkpt lat="45.66841" lon="4.34993">
        <ele>626.6</ele>
        <time>2023-02-19T11:42:18Z</time>
      </trkpt>
      <trkpt lat="45.6684" lon="4.34994">
        <ele>626.6</ele>
        <time>2023-02-19T11:42:19Z</time>
      </trkpt>
      <trkpt lat="45.6684" lon="4.34995">
        <ele>626.6</ele>
        <time>2023-02-19T11:42:20Z</time>
      </trkpt>
      <trkpt lat="45.6684" lon="4.34996">
        <ele>626.6</ele>
        <time>2023-02-19T11:42:21Z</time>
      </trkpt>
      <trkpt lat="45.6684" lon="4.34996">
        <ele>626.7</ele>
        <time>2023-02-19T11:42:22Z</time>
      </trkpt>
      <trkpt lat="45.6684" lon="4.34996">
        <ele>626.7</ele>
        <time>2023-02-19T11:42:23Z</time>
      </trkpt>
      <trkpt lat="45.6684" lon="4.34996">
        <ele>626.7</ele>
        <time>2023-02-19T11:42:24Z</time>
      </trkpt>
      <trkpt lat="45.6684" lon="4.34996">
        <ele>626.7</ele>
        <time>2023-02-19T11:42:25Z</time>
      </trkpt>
      <trkpt lat="45.6684" lon="4.34996">
        <ele>626.7</ele>
        <time>2023-02-19T11:42:26Z</time>
      </trkpt>
      <trkpt lat="45.6684" lon="4.34996">
        <ele>626.7</ele>
        <time>2023-02-19T11:42:27Z</time>
      </trkpt>
      <trkpt lat="45.6684" lon="4.34996">
        <ele>626.7</ele>
        <time>2023-02-19T11:42:28Z</time>
      </trkpt>
      <trkpt lat="45.66839" lon="4.34995">
        <ele>626.7</ele>
        <time>2023-02-19T11:42:29Z</time>
      </trkpt>
      <trkpt lat="45.66839" lon="4.34995">
        <ele>626.7</ele>
        <time>2023-02-19T11:42:30Z</time>
      </trkpt>
      <trkpt lat="45.66839" lon="4.34995">
        <ele>626.7</ele>
        <time>2023-02-19T11:42:31Z</time>
      </trkpt>
      <trkpt lat="45.66839" lon="4.34995">
        <ele>626.7</ele>
        <time>2023-02-19T11:42:32Z</time>
      </trkpt>
      <trkpt lat="45.6684" lon="4.34995">
        <ele>626.7</ele>
        <time>2023-02-19T11:42:33Z</time>
      </trkpt>
      <trkpt lat="45.6684" lon="4.34995">
        <ele>626.7</ele>
        <time>2023-02-19T11:42:34Z</time>
      </trkpt>
      <trkpt lat="45.6684" lon="4.34996">
        <ele>626.7</ele>
        <time>2023-02-19T11:42:35Z</time>
      </trkpt>
      <trkpt lat="45.6684" lon="4.34996">
        <ele>626.7</ele>
        <time>2023-02-19T11:42:36Z</time>
      </trkpt>
      <trkpt lat="45.6684" lon="4.34996">
        <ele>626.7</ele>
        <time>2023-02-19T11:42:37Z</time>
      </trkpt>
      <trkpt lat="45.66839" lon="4.34996">
        <ele>626.7</ele>
        <time>2023-02-19T11:42:38Z</time>
      </trkpt>
      <trkpt lat="45.66839" lon="4.34996">
        <ele>626.7</ele>
        <time>2023-02-19T11:42:39Z</time>
      </trkpt>
      <trkpt lat="45.66839" lon="4.34997">
        <ele>626.7</ele>
        <time>2023-02-19T11:42:40Z</time>
      </trkpt>
      <trkpt lat="45.66839" lon="4.34997">
        <ele>626.7</ele>
        <time>2023-02-19T11:42:41Z</time>
      </trkpt>
      <trkpt lat="45.66838" lon="4.34997">
        <ele>626.7</ele>
        <time>2023-02-19T11:42:42Z</time>
      </trkpt>
      <trkpt lat="45.66838" lon="4.34997">
        <ele>626.7</ele>
        <time>2023-02-19T11:42:43Z</time>
      </trkpt>
      <trkpt lat="45.66838" lon="4.34998">
        <ele>626.7</ele>
        <time>2023-02-19T11:42:44Z</time>
      </trkpt>
      <trkpt lat="45.66838" lon="4.34998">
        <ele>626.7</ele>
        <time>2023-02-19T11:42:45Z</time>
      </trkpt>
      <trkpt lat="45.66838" lon="4.34998">
        <ele>626.7</ele>
        <time>2023-02-19T11:42:46Z</time>
      </trkpt>
      <trkpt lat="45.66838" lon="4.34998">
        <ele>626.7</ele>
        <time>2023-02-19T11:42:47Z</time>
      </trkpt>
      <trkpt lat="45.66838" lon="4.34998">
        <ele>626.7</ele>
        <time>2023-02-19T11:42:48Z</time>
      </trkpt>
      <trkpt lat="45.66839" lon="4.34998">
        <ele>626.7</ele>
        <time>2023-02-19T11:42:49Z</time>
      </trkpt>
      <trkpt lat="45.6684" lon="4.34998">
        <ele>626.8</ele>
        <time>2023-02-19T11:42:50Z</time>
      </trkpt>
      <trkpt lat="45.6684" lon="4.34998">
        <ele>626.8</ele>
        <time>2023-02-19T11:42:52Z</time>
      </trkpt>
      <trkpt lat="45.66841" lon="4.34998">
        <ele>626.8</ele>
        <time>2023-02-19T11:42:53Z</time>
      </trkpt>
      <trkpt lat="45.66841" lon="4.35">
        <ele>626.8</ele>
        <time>2023-02-19T11:42:55Z</time>
      </trkpt>
      <trkpt lat="45.66841" lon="4.35001">
        <ele>626.8</ele>
        <time>2023-02-19T11:42:56Z</time>
      </trkpt>
      <trkpt lat="45.6684" lon="4.35003">
        <ele>626.8</ele>
        <time>2023-02-19T11:42:58Z</time>
      </trkpt>
      <trkpt lat="45.66839" lon="4.35004">
        <ele>626.8</ele>
        <time>2023-02-19T11:42:59Z</time>
      </trkpt>
      <trkpt lat="45.66837" lon="4.35005">
        <ele>626.9</ele>
        <time>2023-02-19T11:43:00Z</time>
      </trkpt>
      <trkpt lat="45.66837" lon="4.35007">
        <ele>626.9</ele>
        <time>2023-02-19T11:43:01Z</time>
      </trkpt>
      <trkpt lat="45.66836" lon="4.35008">
        <ele>626.9</ele>
        <time>2023-02-19T11:43:02Z</time>
      </trkpt>
      <trkpt lat="45.66835" lon="4.35009">
        <ele>626.9</ele>
        <time>2023-02-19T11:43:03Z</time>
      </trkpt>
      <trkpt lat="45.66835" lon="4.35012">
        <ele>626.9</ele>
        <time>2023-02-19T11:43:05Z</time>
      </trkpt>
      <trkpt lat="45.66835" lon="4.35012">
        <ele>626.9</ele>
        <time>2023-02-19T11:43:06Z</time>
      </trkpt>
      <trkpt lat="45.66835" lon="4.35012">
        <ele>626.9</ele>
        <time>2023-02-19T11:43:07Z</time>
      </trkpt>
      <trkpt lat="45.66835" lon="4.35012">
        <ele>626.9</ele>
        <time>2023-02-19T11:43:08Z</time>
      </trkpt>
      <trkpt lat="45.66835" lon="4.35012">
        <ele>626.9</ele>
        <time>2023-02-19T11:43:09Z</time>
      </trkpt>
      <trkpt lat="45.66835" lon="4.35012">
        <ele>626.9</ele>
        <time>2023-02-19T11:43:11Z</time>
      </trkpt>
      <trkpt lat="45.66835" lon="4.35012">
        <ele>627</ele>
        <time>2023-02-19T11:43:12Z</time>
      </trkpt>
      <trkpt lat="45.66834" lon="4.35013">
        <ele>627</ele>
        <time>2023-02-19T11:43:13Z</time>
      </trkpt>
      <trkpt lat="45.66833" lon="4.35013">
        <ele>627</ele>
        <time>2023-02-19T11:43:14Z</time>
      </trkpt>
      <trkpt lat="45.66833" lon="4.35014">
        <ele>627</ele>
        <time>2023-02-19T11:43:16Z</time>
      </trkpt>
      <trkpt lat="45.66832" lon="4.35015">
        <ele>627</ele>
        <time>2023-02-19T11:43:17Z</time>
      </trkpt>
      <trkpt lat="45.66832" lon="4.35016">
        <ele>627</ele>
        <time>2023-02-19T11:43:18Z</time>
      </trkpt>
      <trkpt lat="45.66831" lon="4.35017">
        <ele>627</ele>
        <time>2023-02-19T11:43:19Z</time>
      </trkpt>
      <trkpt lat="45.66832" lon="4.3502">
        <ele>627</ele>
        <time>2023-02-19T11:43:20Z</time>
      </trkpt>
      <trkpt lat="45.66833" lon="4.3502">
        <ele>627.1</ele>
        <time>2023-02-19T11:43:21Z</time>
      </trkpt>
      <trkpt lat="45.66833" lon="4.35021">
        <ele>627.1</ele>
        <time>2023-02-19T11:43:23Z</time>
      </trkpt>
      <trkpt lat="45.66834" lon="4.35021">
        <ele>627.1</ele>
        <time>2023-02-19T11:43:25Z</time>
      </trkpt>
      <trkpt lat="45.66833" lon="4.3502">
        <ele>627.1</ele>
        <time>2023-02-19T11:43:27Z</time>
      </trkpt>
      <trkpt lat="45.66833" lon="4.3502">
        <ele>627.1</ele>
        <time>2023-02-19T11:43:28Z</time>
      </trkpt>
      <trkpt lat="45.66832" lon="4.3502">
        <ele>627.1</ele>
        <time>2023-02-19T11:43:29Z</time>
      </trkpt>
      <trkpt lat="45.66832" lon="4.35022">
        <ele>627.1</ele>
        <time>2023-02-19T11:43:31Z</time>
      </trkpt>
      <trkpt lat="45.66832" lon="4.35024">
        <ele>627.1</ele>
        <time>2023-02-19T11:43:32Z</time>
      </trkpt>
      <trkpt lat="45.66832" lon="4.35025">
        <ele>627.1</ele>
        <time>2023-02-19T11:43:33Z</time>
      </trkpt>
      <trkpt lat="45.66831" lon="4.35025">
        <ele>627.1</ele>
        <time>2023-02-19T11:43:34Z</time>
      </trkpt>
      <trkpt lat="45.66832" lon="4.35025">
        <ele>627.1</ele>
        <time>2023-02-19T11:43:36Z</time>
      </trkpt>
      <trkpt lat="45.66832" lon="4.35024">
        <ele>627.1</ele>
        <time>2023-02-19T11:43:37Z</time>
      </trkpt>
      <trkpt lat="45.66832" lon="4.35024">
        <ele>627.2</ele>
        <time>2023-02-19T11:43:38Z</time>
      </trkpt>
      <trkpt lat="45.66833" lon="4.35025">
        <ele>627.2</ele>
        <time>2023-02-19T11:43:39Z</time>
      </trkpt>
      <trkpt lat="45.66833" lon="4.35025">
        <ele>627.2</ele>
        <time>2023-02-19T11:43:40Z</time>
      </trkpt>
      <trkpt lat="45.66834" lon="4.35025">
        <ele>627.2</ele>
        <time>2023-02-19T11:43:42Z</time>
      </trkpt>
      <trkpt lat="45.66833" lon="4.35026">
        <ele>627.2</ele>
        <time>2023-02-19T11:43:43Z</time>
      </trkpt>
      <trkpt lat="45.66833" lon="4.35026">
        <ele>627.2</ele>
        <time>2023-02-19T11:43:44Z</time>
      </trkpt>
      <trkpt lat="45.66833" lon="4.35027">
        <ele>627.2</ele>
        <time>2023-02-19T11:43:45Z</time>
      </trkpt>
      <trkpt lat="45.66833" lon="4.35029">
        <ele>627.2</ele>
        <time>2023-02-19T11:43:46Z</time>
      </trkpt>
      <trkpt lat="45.66833" lon="4.35031">
        <ele>627.2</ele>
        <time>2023-02-19T11:43:47Z</time>
      </trkpt>
      <trkpt lat="45.66832" lon="4.35032">
        <ele>627.2</ele>
        <time>2023-02-19T11:43:49Z</time>
      </trkpt>
      <trkpt lat="45.66832" lon="4.35033">
        <ele>627.3</ele>
        <time>2023-02-19T11:43:50Z</time>
      </trkpt>
      <trkpt lat="45.66832" lon="4.35035">
        <ele>627.3</ele>
        <time>2023-02-19T11:43:51Z</time>
      </trkpt>
      <trkpt lat="45.66832" lon="4.35036">
        <ele>627.3</ele>
        <time>2023-02-19T11:43:52Z</time>
      </trkpt>
      <trkpt lat="45.66832" lon="4.35037">
        <ele>627.3</ele>
        <time>2023-02-19T11:43:53Z</time>
      </trkpt>
      <trkpt lat="45.66831" lon="4.35038">
        <ele>627.3</ele>
        <time>2023-02-19T11:43:54Z</time>
      </trkpt>
      <trkpt lat="45.66831" lon="4.35039">
        <ele>627.3</ele>
        <time>2023-02-19T11:43:56Z</time>
      </trkpt>
      <trkpt lat="45.66831" lon="4.35041">
        <ele>627.3</ele>
        <time>2023-02-19T11:43:57Z</time>
      </trkpt>
      <trkpt lat="45.6683" lon="4.35042">
        <ele>627.3</ele>
        <time>2023-02-19T11:43:58Z</time>
      </trkpt>
      <trkpt lat="45.66829" lon="4.35043">
        <ele>627.4</ele>
        <time>2023-02-19T11:43:59Z</time>
      </trkpt>
      <trkpt lat="45.66829" lon="4.35044">
        <ele>627.4</ele>
        <time>2023-02-19T11:44:00Z</time>
      </trkpt>
      <trkpt lat="45.66828" lon="4.35045">
        <ele>627.4</ele>
        <time>2023-02-19T11:44:01Z</time>
      </trkpt>
      <trkpt lat="45.66827" lon="4.35046">
        <ele>627.4</ele>
        <time>2023-02-19T11:44:02Z</time>
      </trkpt>
      <trkpt lat="45.66825" lon="4.35048">
        <ele>627.4</ele>
        <time>2023-02-19T11:44:03Z</time>
      </trkpt>
      <trkpt lat="45.66825" lon="4.35048">
        <ele>627.4</ele>
        <time>2023-02-19T11:44:04Z</time>
      </trkpt>
      <trkpt lat="45.66824" lon="4.35049">
        <ele>627.4</ele>
        <time>2023-02-19T11:44:05Z</time>
      </trkpt>
      <trkpt lat="45.66822" lon="4.3505">
        <ele>627.5</ele>
        <time>2023-02-19T11:44:06Z</time>
      </trkpt>
      <trkpt lat="45.66821" lon="4.3505">
        <ele>627.5</ele>
        <time>2023-02-19T11:44:07Z</time>
      </trkpt>
      <trkpt lat="45.66819" lon="4.35051">
        <ele>627.5</ele>
        <time>2023-02-19T11:44:09Z</time>
      </trkpt>
      <trkpt lat="45.66817" lon="4.35053">
        <ele>627.5</ele>
        <time>2023-02-19T11:44:11Z</time>
      </trkpt>
      <trkpt lat="45.66816" lon="4.35054">
        <ele>627.5</ele>
        <time>2023-02-19T11:44:12Z</time>
      </trkpt>
      <trkpt lat="45.66814" lon="4.35056">
        <ele>627.6</ele>
        <time>2023-02-19T11:44:14Z</time>
      </trkpt>
      <trkpt lat="45.66814" lon="4.35057">
        <ele>627.6</ele>
        <time>2023-02-19T11:44:15Z</time>
      </trkpt>
      <trkpt lat="45.66813" lon="4.35059">
        <ele>627.6</ele>
        <time>2023-02-19T11:44:17Z</time>
      </trkpt>
      <trkpt lat="45.66813" lon="4.35059">
        <ele>627.6</ele>
        <time>2023-02-19T11:44:18Z</time>
      </trkpt>
      <trkpt lat="45.66812" lon="4.35059">
        <ele>627.6</ele>
        <time>2023-02-19T11:44:19Z</time>
      </trkpt>
      <trkpt lat="45.66812" lon="4.35061">
        <ele>627.6</ele>
        <time>2023-02-19T11:44:21Z</time>
      </trkpt>
      <trkpt lat="45.66811" lon="4.35062">
        <ele>627.6</ele>
        <time>2023-02-19T11:44:22Z</time>
      </trkpt>
      <trkpt lat="45.6681" lon="4.35063">
        <ele>627.6</ele>
        <time>2023-02-19T11:44:23Z</time>
      </trkpt>
      <trkpt lat="45.66808" lon="4.35064">
        <ele>627.7</ele>
        <time>2023-02-19T11:44:24Z</time>
      </trkpt>
      <trkpt lat="45.66807" lon="4.35065">
        <ele>627.7</ele>
        <time>2023-02-19T11:44:25Z</time>
      </trkpt>
      <trkpt lat="45.66805" lon="4.35069">
        <ele>627.7</ele>
        <time>2023-02-19T11:44:27Z</time>
      </trkpt>
      <trkpt lat="45.66805" lon="4.35069">
        <ele>628.1</ele>
        <time>2023-02-19T11:44:28Z</time>
      </trkpt>
      <trkpt lat="45.66804" lon="4.35069">
        <ele>628.2</ele>
        <time>2023-02-19T11:44:29Z</time>
      </trkpt>
      <trkpt lat="45.66803" lon="4.3507">
        <ele>628.2</ele>
        <time>2023-02-19T11:44:30Z</time>
      </trkpt>
      <trkpt lat="45.66803" lon="4.35072">
        <ele>628.3</ele>
        <time>2023-02-19T11:44:31Z</time>
      </trkpt>
      <trkpt lat="45.66803" lon="4.35073">
        <ele>628.3</ele>
        <time>2023-02-19T11:44:32Z</time>
      </trkpt>
      <trkpt lat="45.66803" lon="4.35075">
        <ele>628.4</ele>
        <time>2023-02-19T11:44:34Z</time>
      </trkpt>
      <trkpt lat="45.66803" lon="4.35076">
        <ele>628.5</ele>
        <time>2023-02-19T11:44:35Z</time>
      </trkpt>
      <trkpt lat="45.66803" lon="4.35077">
        <ele>628.5</ele>
        <time>2023-02-19T11:44:36Z</time>
      </trkpt>
      <trkpt lat="45.66803" lon="4.3508">
        <ele>628.6</ele>
        <time>2023-02-19T11:44:38Z</time>
      </trkpt>
      <trkpt lat="45.66804" lon="4.35082">
        <ele>628.7</ele>
        <time>2023-02-19T11:44:39Z</time>
      </trkpt>
      <trkpt lat="45.66804" lon="4.35083">
        <ele>628.7</ele>
        <time>2023-02-19T11:44:40Z</time>
      </trkpt>
      <trkpt lat="45.66804" lon="4.35085">
        <ele>628.8</ele>
        <time>2023-02-19T11:44:42Z</time>
      </trkpt>
      <trkpt lat="45.66805" lon="4.35086">
        <ele>628.8</ele>
        <time>2023-02-19T11:44:43Z</time>
      </trkpt>
      <trkpt lat="45.66805" lon="4.35086">
        <ele>628.9</ele>
        <time>2023-02-19T11:44:44Z</time>
      </trkpt>
      <trkpt lat="45.66806" lon="4.35087">
        <ele>628.9</ele>
        <time>2023-02-19T11:44:45Z</time>
      </trkpt>
      <trkpt lat="45.66806" lon="4.35088">
        <ele>629</ele>
        <time>2023-02-19T11:44:46Z</time>
      </trkpt>
      <trkpt lat="45.66807" lon="4.35091">
        <ele>629.1</ele>
        <time>2023-02-19T11:44:47Z</time>
      </trkpt>
      <trkpt lat="45.66808" lon="4.3509">
        <ele>629.1</ele>
        <time>2023-02-19T11:44:48Z</time>
      </trkpt>
      <trkpt lat="45.66808" lon="4.35091">
        <ele>629.1</ele>
        <time>2023-02-19T11:44:49Z</time>
      </trkpt>
      <trkpt lat="45.66808" lon="4.35092">
        <ele>629.2</ele>
        <time>2023-02-19T11:44:50Z</time>
      </trkpt>
      <trkpt lat="45.66809" lon="4.35094">
        <ele>629.3</ele>
        <time>2023-02-19T11:44:51Z</time>
      </trkpt>
      <trkpt lat="45.66809" lon="4.35094">
        <ele>629.3</ele>
        <time>2023-02-19T11:44:52Z</time>
      </trkpt>
      <trkpt lat="45.66809" lon="4.35095">
        <ele>629.3</ele>
        <time>2023-02-19T11:44:54Z</time>
      </trkpt>
      <trkpt lat="45.6681" lon="4.35096">
        <ele>629.4</ele>
        <time>2023-02-19T11:44:55Z</time>
      </trkpt>
      <trkpt lat="45.6681" lon="4.35097">
        <ele>629.4</ele>
        <time>2023-02-19T11:44:56Z</time>
      </trkpt>
      <trkpt lat="45.66811" lon="4.35099">
        <ele>629.5</ele>
        <time>2023-02-19T11:44:57Z</time>
      </trkpt>
      <trkpt lat="45.66811" lon="4.35101">
        <ele>629.6</ele>
        <time>2023-02-19T11:44:58Z</time>
      </trkpt>
      <trkpt lat="45.66812" lon="4.35104">
        <ele>629.7</ele>
        <time>2023-02-19T11:45:00Z</time>
      </trkpt>
      <trkpt lat="45.66812" lon="4.35106">
        <ele>629.8</ele>
        <time>2023-02-19T11:45:01Z</time>
      </trkpt>
      <trkpt lat="45.66812" lon="4.35108">
        <ele>629.9</ele>
        <time>2023-02-19T11:45:02Z</time>
      </trkpt>
      <trkpt lat="45.66813" lon="4.3511">
        <ele>629.9</ele>
        <time>2023-02-19T11:45:03Z</time>
      </trkpt>
      <trkpt lat="45.66813" lon="4.35111">
        <ele>630</ele>
        <time>2023-02-19T11:45:04Z</time>
      </trkpt>
      <trkpt lat="45.66813" lon="4.35113">
        <ele>630.1</ele>
        <time>2023-02-19T11:45:05Z</time>
      </trkpt>
      <trkpt lat="45.66813" lon="4.35115">
        <ele>630.1</ele>
        <time>2023-02-19T11:45:06Z</time>
      </trkpt>
      <trkpt lat="45.66814" lon="4.35117">
        <ele>630.2</ele>
        <time>2023-02-19T11:45:07Z</time>
      </trkpt>
      <trkpt lat="45.66814" lon="4.3512">
        <ele>630.3</ele>
        <time>2023-02-19T11:45:09Z</time>
      </trkpt>
      <trkpt lat="45.66814" lon="4.35122">
        <ele>630.4</ele>
        <time>2023-02-19T11:45:10Z</time>
      </trkpt>
      <trkpt lat="45.66815" lon="4.35124">
        <ele>630.5</ele>
        <time>2023-02-19T11:45:11Z</time>
      </trkpt>
      <trkpt lat="45.66815" lon="4.35128">
        <ele>630.7</ele>
        <time>2023-02-19T11:45:13Z</time>
      </trkpt>
      <trkpt lat="45.66816" lon="4.3513">
        <ele>630.7</ele>
        <time>2023-02-19T11:45:14Z</time>
      </trkpt>
      <trkpt lat="45.66816" lon="4.35132">
        <ele>630.8</ele>
        <time>2023-02-19T11:45:15Z</time>
      </trkpt>
      <trkpt lat="45.66816" lon="4.35135">
        <ele>631</ele>
        <time>2023-02-19T11:45:17Z</time>
      </trkpt>
      <trkpt lat="45.66817" lon="4.35138">
        <ele>631.1</ele>
        <time>2023-02-19T11:45:18Z</time>
      </trkpt>
      <trkpt lat="45.66817" lon="4.35139">
        <ele>631.2</ele>
        <time>2023-02-19T11:45:19Z</time>
      </trkpt>
      <trkpt lat="45.66817" lon="4.35141">
        <ele>631.2</ele>
        <time>2023-02-19T11:45:20Z</time>
      </trkpt>
      <trkpt lat="45.66817" lon="4.35143">
        <ele>631.3</ele>
        <time>2023-02-19T11:45:21Z</time>
      </trkpt>
      <trkpt lat="45.66818" lon="4.35146">
        <ele>631.4</ele>
        <time>2023-02-19T11:45:22Z</time>
      </trkpt>
      <trkpt lat="45.66818" lon="4.35148">
        <ele>631.5</ele>
        <time>2023-02-19T11:45:23Z</time>
      </trkpt>
      <trkpt lat="45.66819" lon="4.3515">
        <ele>631.6</ele>
        <time>2023-02-19T11:45:24Z</time>
      </trkpt>
      <trkpt lat="45.66819" lon="4.35151">
        <ele>631.6</ele>
        <time>2023-02-19T11:45:25Z</time>
      </trkpt>
      <trkpt lat="45.66819" lon="4.35155">
        <ele>631.8</ele>
        <time>2023-02-19T11:45:26Z</time>
      </trkpt>
      <trkpt lat="45.66819" lon="4.35156">
        <ele>631.9</ele>
        <time>2023-02-19T11:45:28Z</time>
      </trkpt>
      <trkpt lat="45.66819" lon="4.35158">
        <ele>631.9</ele>
        <time>2023-02-19T11:45:29Z</time>
      </trkpt>
      <trkpt lat="45.66819" lon="4.3516">
        <ele>632</ele>
        <time>2023-02-19T11:45:30Z</time>
      </trkpt>
      <trkpt lat="45.6682" lon="4.35161">
        <ele>632.1</ele>
        <time>2023-02-19T11:45:31Z</time>
      </trkpt>
      <trkpt lat="45.6682" lon="4.35163">
        <ele>632.2</ele>
        <time>2023-02-19T11:45:32Z</time>
      </trkpt>
      <trkpt lat="45.66821" lon="4.35164">
        <ele>632.2</ele>
        <time>2023-02-19T11:45:33Z</time>
      </trkpt>
      <trkpt lat="45.66821" lon="4.35165">
        <ele>632.3</ele>
        <time>2023-02-19T11:45:34Z</time>
      </trkpt>
      <trkpt lat="45.66822" lon="4.35168">
        <ele>632.4</ele>
        <time>2023-02-19T11:45:36Z</time>
      </trkpt>
      <trkpt lat="45.66822" lon="4.35171">
        <ele>632.6</ele>
        <time>2023-02-19T11:45:37Z</time>
      </trkpt>
      <trkpt lat="45.66823" lon="4.35172">
        <ele>632.6</ele>
        <time>2023-02-19T11:45:38Z</time>
      </trkpt>
      <trkpt lat="45.66823" lon="4.35175">
        <ele>632.8</ele>
        <time>2023-02-19T11:45:40Z</time>
      </trkpt>
      <trkpt lat="45.66823" lon="4.35176">
        <ele>632.8</ele>
        <time>2023-02-19T11:45:41Z</time>
      </trkpt>
      <trkpt lat="45.66824" lon="4.35179">
        <ele>632.9</ele>
        <time>2023-02-19T11:45:42Z</time>
      </trkpt>
      <trkpt lat="45.66824" lon="4.35181">
        <ele>633</ele>
        <time>2023-02-19T11:45:43Z</time>
      </trkpt>
      <trkpt lat="45.66825" lon="4.35183">
        <ele>633.1</ele>
        <time>2023-02-19T11:45:44Z</time>
      </trkpt>
      <trkpt lat="45.66825" lon="4.35185">
        <ele>633.3</ele>
        <time>2023-02-19T11:45:45Z</time>
      </trkpt>
      <trkpt lat="45.66826" lon="4.35187">
        <ele>633.4</ele>
        <time>2023-02-19T11:45:46Z</time>
      </trkpt>
      <trkpt lat="45.66826" lon="4.35189">
        <ele>633.5</ele>
        <time>2023-02-19T11:45:47Z</time>
      </trkpt>
      <trkpt lat="45.66826" lon="4.35192">
        <ele>633.6</ele>
        <time>2023-02-19T11:45:49Z</time>
      </trkpt>
      <trkpt lat="45.66826" lon="4.35194">
        <ele>633.7</ele>
        <time>2023-02-19T11:45:50Z</time>
      </trkpt>
      <trkpt lat="45.66826" lon="4.35195">
        <ele>633.8</ele>
        <time>2023-02-19T11:45:51Z</time>
      </trkpt>
      <trkpt lat="45.66827" lon="4.35198">
        <ele>633.9</ele>
        <time>2023-02-19T11:45:52Z</time>
      </trkpt>
      <trkpt lat="45.66827" lon="4.35201">
        <ele>634.1</ele>
        <time>2023-02-19T11:45:53Z</time>
      </trkpt>
      <trkpt lat="45.66827" lon="4.35202">
        <ele>634.1</ele>
        <time>2023-02-19T11:45:54Z</time>
      </trkpt>
      <trkpt lat="45.66827" lon="4.35204">
        <ele>634.2</ele>
        <time>2023-02-19T11:45:55Z</time>
      </trkpt>
      <trkpt lat="45.66827" lon="4.35206">
        <ele>634.3</ele>
        <time>2023-02-19T11:45:56Z</time>
      </trkpt>
      <trkpt lat="45.66827" lon="4.35207">
        <ele>634.4</ele>
        <time>2023-02-19T11:45:57Z</time>
      </trkpt>
      <trkpt lat="45.66827" lon="4.3521">
        <ele>634.5</ele>
        <time>2023-02-19T11:45:59Z</time>
      </trkpt>
      <trkpt lat="45.66827" lon="4.35211">
        <ele>634.6</ele>
        <time>2023-02-19T11:46:00Z</time>
      </trkpt>
      <trkpt lat="45.66827" lon="4.35214">
        <ele>634.7</ele>
        <time>2023-02-19T11:46:01Z</time>
      </trkpt>
      <trkpt lat="45.66828" lon="4.35215">
        <ele>634.8</ele>
        <time>2023-02-19T11:46:02Z</time>
      </trkpt>
      <trkpt lat="45.66828" lon="4.35217">
        <ele>634.9</ele>
        <time>2023-02-19T11:46:03Z</time>
      </trkpt>
      <trkpt lat="45.66828" lon="4.35218">
        <ele>634.9</ele>
        <time>2023-02-19T11:46:04Z</time>
      </trkpt>
      <trkpt lat="45.66829" lon="4.35219">
        <ele>635</ele>
        <time>2023-02-19T11:46:05Z</time>
      </trkpt>
      <trkpt lat="45.66829" lon="4.35221">
        <ele>635.1</ele>
        <time>2023-02-19T11:46:06Z</time>
      </trkpt>
      <trkpt lat="45.66829" lon="4.35223">
        <ele>635.2</ele>
        <time>2023-02-19T11:46:07Z</time>
      </trkpt>
      <trkpt lat="45.6683" lon="4.35225">
        <ele>635.3</ele>
        <time>2023-02-19T11:46:08Z</time>
      </trkpt>
      <trkpt lat="45.6683" lon="4.35226">
        <ele>635.4</ele>
        <time>2023-02-19T11:46:10Z</time>
      </trkpt>
      <trkpt lat="45.6683" lon="4.35229">
        <ele>635.5</ele>
        <time>2023-02-19T11:46:11Z</time>
      </trkpt>
      <trkpt lat="45.66831" lon="4.35231">
        <ele>635.6</ele>
        <time>2023-02-19T11:46:12Z</time>
      </trkpt>
      <trkpt lat="45.66831" lon="4.35234">
        <ele>635.8</ele>
        <time>2023-02-19T11:46:13Z</time>
      </trkpt>
      <trkpt lat="45.66832" lon="4.35235">
        <ele>635.9</ele>
        <time>2023-02-19T11:46:14Z</time>
      </trkpt>
      <trkpt lat="45.66832" lon="4.35236">
        <ele>635.9</ele>
        <time>2023-02-19T11:46:15Z</time>
      </trkpt>
      <trkpt lat="45.66832" lon="4.35238">
        <ele>636</ele>
        <time>2023-02-19T11:46:16Z</time>
      </trkpt>
      <trkpt lat="45.66833" lon="4.3524">
        <ele>636.1</ele>
        <time>2023-02-19T11:46:17Z</time>
      </trkpt>
      <trkpt lat="45.66833" lon="4.35243">
        <ele>636.3</ele>
        <time>2023-02-19T11:46:19Z</time>
      </trkpt>
      <trkpt lat="45.66834" lon="4.35245">
        <ele>636.4</ele>
        <time>2023-02-19T11:46:20Z</time>
      </trkpt>
      <trkpt lat="45.66834" lon="4.35247">
        <ele>636.6</ele>
        <time>2023-02-19T11:46:21Z</time>
      </trkpt>
      <trkpt lat="45.66835" lon="4.35249">
        <ele>636.7</ele>
        <time>2023-02-19T11:46:22Z</time>
      </trkpt>
      <trkpt lat="45.66835" lon="4.3525">
        <ele>636.7</ele>
        <time>2023-02-19T11:46:23Z</time>
      </trkpt>
      <trkpt lat="45.66835" lon="4.35252">
        <ele>636.8</ele>
        <time>2023-02-19T11:46:24Z</time>
      </trkpt>
      <trkpt lat="45.66836" lon="4.35253">
        <ele>636.9</ele>
        <time>2023-02-19T11:46:25Z</time>
      </trkpt>
      <trkpt lat="45.66836" lon="4.35256">
        <ele>637.1</ele>
        <time>2023-02-19T11:46:27Z</time>
      </trkpt>
      <trkpt lat="45.66836" lon="4.35257">
        <ele>637.2</ele>
        <time>2023-02-19T11:46:28Z</time>
      </trkpt>
      <trkpt lat="45.66837" lon="4.35259">
        <ele>637.3</ele>
        <time>2023-02-19T11:46:29Z</time>
      </trkpt>
      <trkpt lat="45.66838" lon="4.35261">
        <ele>637.4</ele>
        <time>2023-02-19T11:46:30Z</time>
      </trkpt>
      <trkpt lat="45.66839" lon="4.35262">
        <ele>637.6</ele>
        <time>2023-02-19T11:46:31Z</time>
      </trkpt>
      <trkpt lat="45.66841" lon="4.35264">
        <ele>637.7</ele>
        <time>2023-02-19T11:46:32Z</time>
      </trkpt>
      <trkpt lat="45.66843" lon="4.35268">
        <ele>638</ele>
        <time>2023-02-19T11:46:34Z</time>
      </trkpt>
      <trkpt lat="45.66844" lon="4.35268">
        <ele>638.1</ele>
        <time>2023-02-19T11:46:35Z</time>
      </trkpt>
      <trkpt lat="45.66845" lon="4.35271">
        <ele>638.3</ele>
        <time>2023-02-19T11:46:36Z</time>
      </trkpt>
      <trkpt lat="45.66846" lon="4.35271">
        <ele>638.4</ele>
        <time>2023-02-19T11:46:37Z</time>
      </trkpt>
      <trkpt lat="45.66847" lon="4.35274">
        <ele>638.6</ele>
        <time>2023-02-19T11:46:38Z</time>
      </trkpt>
      <trkpt lat="45.66847" lon="4.35276">
        <ele>638.7</ele>
        <time>2023-02-19T11:46:40Z</time>
      </trkpt>
      <trkpt lat="45.66847" lon="4.35278">
        <ele>638.8</ele>
        <time>2023-02-19T11:46:41Z</time>
      </trkpt>
      <trkpt lat="45.66848" lon="4.35279">
        <ele>638.9</ele>
        <time>2023-02-19T11:46:42Z</time>
      </trkpt>
      <trkpt lat="45.66848" lon="4.35281">
        <ele>639.1</ele>
        <time>2023-02-19T11:46:43Z</time>
      </trkpt>
      <trkpt lat="45.66848" lon="4.35283">
        <ele>639.2</ele>
        <time>2023-02-19T11:46:44Z</time>
      </trkpt>
      <trkpt lat="45.66847" lon="4.35287">
        <ele>639.5</ele>
        <time>2023-02-19T11:46:46Z</time>
      </trkpt>
      <trkpt lat="45.66848" lon="4.35289">
        <ele>639.6</ele>
        <time>2023-02-19T11:46:48Z</time>
      </trkpt>
      <trkpt lat="45.66849" lon="4.3529">
        <ele>639.8</ele>
        <time>2023-02-19T11:46:49Z</time>
      </trkpt>
      <trkpt lat="45.66849" lon="4.35292">
        <ele>639.8</ele>
        <time>2023-02-19T11:46:50Z</time>
      </trkpt>
      <trkpt lat="45.66849" lon="4.35293">
        <ele>639.9</ele>
        <time>2023-02-19T11:46:51Z</time>
      </trkpt>
      <trkpt lat="45.66849" lon="4.35295">
        <ele>640.1</ele>
        <time>2023-02-19T11:46:52Z</time>
      </trkpt>
      <trkpt lat="45.66849" lon="4.35296">
        <ele>640.2</ele>
        <time>2023-02-19T11:46:53Z</time>
      </trkpt>
      <trkpt lat="45.66849" lon="4.35298">
        <ele>640.3</ele>
        <time>2023-02-19T11:46:54Z</time>
      </trkpt>
      <trkpt lat="45.66849" lon="4.353">
        <ele>640.4</ele>
        <time>2023-02-19T11:46:55Z</time>
      </trkpt>
      <trkpt lat="45.66849" lon="4.35301">
        <ele>640.5</ele>
        <time>2023-02-19T11:46:57Z</time>
      </trkpt>
      <trkpt lat="45.66849" lon="4.35303">
        <ele>640.7</ele>
        <time>2023-02-19T11:46:58Z</time>
      </trkpt>
      <trkpt lat="45.66849" lon="4.35304">
        <ele>640.8</ele>
        <time>2023-02-19T11:46:59Z</time>
      </trkpt>
      <trkpt lat="45.66849" lon="4.35305">
        <ele>640.9</ele>
        <time>2023-02-19T11:47:00Z</time>
      </trkpt>
      <trkpt lat="45.66849" lon="4.35307">
        <ele>641</ele>
        <time>2023-02-19T11:47:01Z</time>
      </trkpt>
      <trkpt lat="45.66849" lon="4.35308">
        <ele>641.1</ele>
        <time>2023-02-19T11:47:02Z</time>
      </trkpt>
      <trkpt lat="45.6685" lon="4.35309">
        <ele>641.2</ele>
        <time>2023-02-19T11:47:04Z</time>
      </trkpt>
      <trkpt lat="45.66851" lon="4.35311">
        <ele>641.3</ele>
        <time>2023-02-19T11:47:05Z</time>
      </trkpt>
      <trkpt lat="45.66851" lon="4.35312">
        <ele>641.4</ele>
        <time>2023-02-19T11:47:06Z</time>
      </trkpt>
      <trkpt lat="45.66852" lon="4.35314">
        <ele>641.6</ele>
        <time>2023-02-19T11:47:07Z</time>
      </trkpt>
      <trkpt lat="45.66853" lon="4.35315">
        <ele>641.7</ele>
        <time>2023-02-19T11:47:08Z</time>
      </trkpt>
      <trkpt lat="45.66853" lon="4.35317">
        <ele>641.9</ele>
        <time>2023-02-19T11:47:09Z</time>
      </trkpt>
      <trkpt lat="45.66854" lon="4.35318">
        <ele>642</ele>
        <time>2023-02-19T11:47:10Z</time>
      </trkpt>
      <trkpt lat="45.66855" lon="4.3532">
        <ele>642.2</ele>
        <time>2023-02-19T11:47:12Z</time>
      </trkpt>
      <trkpt lat="45.66856" lon="4.35322">
        <ele>642.4</ele>
        <time>2023-02-19T11:47:13Z</time>
      </trkpt>
      <trkpt lat="45.66856" lon="4.35324">
        <ele>642.5</ele>
        <time>2023-02-19T11:47:14Z</time>
      </trkpt>
      <trkpt lat="45.66857" lon="4.35325">
        <ele>642.6</ele>
        <time>2023-02-19T11:47:16Z</time>
      </trkpt>
      <trkpt lat="45.66857" lon="4.35327">
        <ele>642.7</ele>
        <time>2023-02-19T11:47:17Z</time>
      </trkpt>
      <trkpt lat="45.66857" lon="4.35328">
        <ele>642.8</ele>
        <time>2023-02-19T11:47:18Z</time>
      </trkpt>
      <trkpt lat="45.66857" lon="4.3533">
        <ele>643</ele>
        <time>2023-02-19T11:47:19Z</time>
      </trkpt>
      <trkpt lat="45.66858" lon="4.35332">
        <ele>643.1</ele>
        <time>2023-02-19T11:47:20Z</time>
      </trkpt>
      <trkpt lat="45.66858" lon="4.35334">
        <ele>643.3</ele>
        <time>2023-02-19T11:47:21Z</time>
      </trkpt>
      <trkpt lat="45.66857" lon="4.35336">
        <ele>643.5</ele>
        <time>2023-02-19T11:47:22Z</time>
      </trkpt>
      <trkpt lat="45.66857" lon="4.35338">
        <ele>643.5</ele>
        <time>2023-02-19T11:47:23Z</time>
      </trkpt>
      <trkpt lat="45.66857" lon="4.35341">
        <ele>643.6</ele>
        <time>2023-02-19T11:47:24Z</time>
      </trkpt>
      <trkpt lat="45.66857" lon="4.35343">
        <ele>643.7</ele>
        <time>2023-02-19T11:47:25Z</time>
      </trkpt>
      <trkpt lat="45.66856" lon="4.35347">
        <ele>643.9</ele>
        <time>2023-02-19T11:47:26Z</time>
      </trkpt>
      <trkpt lat="45.66856" lon="4.35348">
        <ele>643.9</ele>
        <time>2023-02-19T11:47:27Z</time>
      </trkpt>
      <trkpt lat="45.66856" lon="4.3535">
        <ele>644</ele>
        <time>2023-02-19T11:47:28Z</time>
      </trkpt>
      <trkpt lat="45.66857" lon="4.35352">
        <ele>644.1</ele>
        <time>2023-02-19T11:47:29Z</time>
      </trkpt>
      <trkpt lat="45.66857" lon="4.35356">
        <ele>644.2</ele>
        <time>2023-02-19T11:47:31Z</time>
      </trkpt>
      <trkpt lat="45.66857" lon="4.35357">
        <ele>644.3</ele>
        <time>2023-02-19T11:47:32Z</time>
      </trkpt>
      <trkpt lat="45.66858" lon="4.35358">
        <ele>644.3</ele>
        <time>2023-02-19T11:47:33Z</time>
      </trkpt>
      <trkpt lat="45.66858" lon="4.3536">
        <ele>644.4</ele>
        <time>2023-02-19T11:47:34Z</time>
      </trkpt>
      <trkpt lat="45.66859" lon="4.35362">
        <ele>644.5</ele>
        <time>2023-02-19T11:47:35Z</time>
      </trkpt>
      <trkpt lat="45.6686" lon="4.35364">
        <ele>644.6</ele>
        <time>2023-02-19T11:47:36Z</time>
      </trkpt>
      <trkpt lat="45.66861" lon="4.35366">
        <ele>644.7</ele>
        <time>2023-02-19T11:47:37Z</time>
      </trkpt>
      <trkpt lat="45.66861" lon="4.35367">
        <ele>644.7</ele>
        <time>2023-02-19T11:47:38Z</time>
      </trkpt>
      <trkpt lat="45.66861" lon="4.35369">
        <ele>644.8</ele>
        <time>2023-02-19T11:47:40Z</time>
      </trkpt>
      <trkpt lat="45.66862" lon="4.3537">
        <ele>644.9</ele>
        <time>2023-02-19T11:47:41Z</time>
      </trkpt>
      <trkpt lat="45.66862" lon="4.35372">
        <ele>645</ele>
        <time>2023-02-19T11:47:42Z</time>
      </trkpt>
      <trkpt lat="45.66863" lon="4.35373">
        <ele>645</ele>
        <time>2023-02-19T11:47:43Z</time>
      </trkpt>
      <trkpt lat="45.66863" lon="4.35374">
        <ele>645.1</ele>
        <time>2023-02-19T11:47:44Z</time>
      </trkpt>
      <trkpt lat="45.66864" lon="4.35376">
        <ele>645.2</ele>
        <time>2023-02-19T11:47:45Z</time>
      </trkpt>
      <trkpt lat="45.66864" lon="4.35378">
        <ele>645.3</ele>
        <time>2023-02-19T11:47:46Z</time>
      </trkpt>
      <trkpt lat="45.66864" lon="4.35379">
        <ele>645.3</ele>
        <time>2023-02-19T11:47:47Z</time>
      </trkpt>
      <trkpt lat="45.66864" lon="4.35381">
        <ele>645.4</ele>
        <time>2023-02-19T11:47:49Z</time>
      </trkpt>
      <trkpt lat="45.66865" lon="4.35383">
        <ele>645.6</ele>
        <time>2023-02-19T11:47:50Z</time>
      </trkpt>
      <trkpt lat="45.66865" lon="4.35385">
        <ele>645.7</ele>
        <time>2023-02-19T11:47:51Z</time>
      </trkpt>
      <trkpt lat="45.66865" lon="4.35387">
        <ele>645.8</ele>
        <time>2023-02-19T11:47:52Z</time>
      </trkpt>
      <trkpt lat="45.66865" lon="4.35389">
        <ele>645.9</ele>
        <time>2023-02-19T11:47:53Z</time>
      </trkpt>
      <trkpt lat="45.66865" lon="4.35391">
        <ele>646</ele>
        <time>2023-02-19T11:47:54Z</time>
      </trkpt>
      <trkpt lat="45.66864" lon="4.35393">
        <ele>646.1</ele>
        <time>2023-02-19T11:47:56Z</time>
      </trkpt>
      <trkpt lat="45.66864" lon="4.35396">
        <ele>646.3</ele>
        <time>2023-02-19T11:47:57Z</time>
      </trkpt>
      <trkpt lat="45.66864" lon="4.35397">
        <ele>646.3</ele>
        <time>2023-02-19T11:47:58Z</time>
      </trkpt>
      <trkpt lat="45.66864" lon="4.35398">
        <ele>646.4</ele>
        <time>2023-02-19T11:47:59Z</time>
      </trkpt>
      <trkpt lat="45.66864" lon="4.354">
        <ele>646.5</ele>
        <time>2023-02-19T11:48:00Z</time>
      </trkpt>
      <trkpt lat="45.66864" lon="4.35401">
        <ele>646.6</ele>
        <time>2023-02-19T11:48:01Z</time>
      </trkpt>
      <trkpt lat="45.66865" lon="4.35402">
        <ele>646.7</ele>
        <time>2023-02-19T11:48:02Z</time>
      </trkpt>
      <trkpt lat="45.66865" lon="4.35405">
        <ele>646.9</ele>
        <time>2023-02-19T11:48:04Z</time>
      </trkpt>
      <trkpt lat="45.66865" lon="4.35406">
        <ele>646.9</ele>
        <time>2023-02-19T11:48:06Z</time>
      </trkpt>
      <trkpt lat="45.66865" lon="4.35408">
        <ele>647.1</ele>
        <time>2023-02-19T11:48:07Z</time>
      </trkpt>
      <trkpt lat="45.66865" lon="4.35409">
        <ele>647.1</ele>
        <time>2023-02-19T11:48:08Z</time>
      </trkpt>
      <trkpt lat="45.66866" lon="4.35411">
        <ele>647.3</ele>
        <time>2023-02-19T11:48:09Z</time>
      </trkpt>
      <trkpt lat="45.66866" lon="4.35412">
        <ele>647.3</ele>
        <time>2023-02-19T11:48:10Z</time>
      </trkpt>
      <trkpt lat="45.66866" lon="4.35414">
        <ele>647.4</ele>
        <time>2023-02-19T11:48:11Z</time>
      </trkpt>
      <trkpt lat="45.66866" lon="4.35415">
        <ele>647.5</ele>
        <time>2023-02-19T11:48:12Z</time>
      </trkpt>
      <trkpt lat="45.66867" lon="4.35417">
        <ele>647.6</ele>
        <time>2023-02-19T11:48:13Z</time>
      </trkpt>
      <trkpt lat="45.66867" lon="4.35419">
        <ele>647.7</ele>
        <time>2023-02-19T11:48:14Z</time>
      </trkpt>
      <trkpt lat="45.66867" lon="4.3542">
        <ele>647.8</ele>
        <time>2023-02-19T11:48:15Z</time>
      </trkpt>
      <trkpt lat="45.66868" lon="4.35424">
        <ele>648</ele>
        <time>2023-02-19T11:48:16Z</time>
      </trkpt>
      <trkpt lat="45.66868" lon="4.35427">
        <ele>648.3</ele>
        <time>2023-02-19T11:48:18Z</time>
      </trkpt>
      <trkpt lat="45.66868" lon="4.3543">
        <ele>648.4</ele>
        <time>2023-02-19T11:48:20Z</time>
      </trkpt>
      <trkpt lat="45.66868" lon="4.35432">
        <ele>648.5</ele>
        <time>2023-02-19T11:48:21Z</time>
      </trkpt>
      <trkpt lat="45.66868" lon="4.35435">
        <ele>648.7</ele>
        <time>2023-02-19T11:48:22Z</time>
      </trkpt>
      <trkpt lat="45.66869" lon="4.35436">
        <ele>648.8</ele>
        <time>2023-02-19T11:48:23Z</time>
      </trkpt>
      <trkpt lat="45.66869" lon="4.35438">
        <ele>648.9</ele>
        <time>2023-02-19T11:48:24Z</time>
      </trkpt>
      <trkpt lat="45.66869" lon="4.3544">
        <ele>649</ele>
        <time>2023-02-19T11:48:25Z</time>
      </trkpt>
      <trkpt lat="45.6687" lon="4.35441">
        <ele>649.1</ele>
        <time>2023-02-19T11:48:26Z</time>
      </trkpt>
      <trkpt lat="45.6687" lon="4.35444">
        <ele>649.2</ele>
        <time>2023-02-19T11:48:27Z</time>
      </trkpt>
      <trkpt lat="45.6687" lon="4.35446">
        <ele>649.3</ele>
        <time>2023-02-19T11:48:28Z</time>
      </trkpt>
      <trkpt lat="45.66871" lon="4.35447">
        <ele>649.4</ele>
        <time>2023-02-19T11:48:30Z</time>
      </trkpt>
      <trkpt lat="45.66871" lon="4.35449">
        <ele>649.5</ele>
        <time>2023-02-19T11:48:31Z</time>
      </trkpt>
      <trkpt lat="45.66872" lon="4.35452">
        <ele>649.6</ele>
        <time>2023-02-19T11:48:32Z</time>
      </trkpt>
      <trkpt lat="45.66872" lon="4.35453">
        <ele>649.7</ele>
        <time>2023-02-19T11:48:33Z</time>
      </trkpt>
      <trkpt lat="45.66872" lon="4.35454">
        <ele>649.8</ele>
        <time>2023-02-19T11:48:34Z</time>
      </trkpt>
      <trkpt lat="45.66873" lon="4.35456">
        <ele>649.8</ele>
        <time>2023-02-19T11:48:35Z</time>
      </trkpt>
      <trkpt lat="45.66874" lon="4.35457">
        <ele>649.9</ele>
        <time>2023-02-19T11:48:36Z</time>
      </trkpt>
      <trkpt lat="45.66874" lon="4.3546">
        <ele>650</ele>
        <time>2023-02-19T11:48:37Z</time>
      </trkpt>
      <trkpt lat="45.66875" lon="4.35461">
        <ele>650</ele>
        <time>2023-02-19T11:48:38Z</time>
      </trkpt>
      <trkpt lat="45.66875" lon="4.35463">
        <ele>650.1</ele>
        <time>2023-02-19T11:48:39Z</time>
      </trkpt>
      <trkpt lat="45.66875" lon="4.35464">
        <ele>650.2</ele>
        <time>2023-02-19T11:48:40Z</time>
      </trkpt>
      <trkpt lat="45.66876" lon="4.35467">
        <ele>650.2</ele>
        <time>2023-02-19T11:48:41Z</time>
      </trkpt>
      <trkpt lat="45.66876" lon="4.35468">
        <ele>650.3</ele>
        <time>2023-02-19T11:48:43Z</time>
      </trkpt>
      <trkpt lat="45.66877" lon="4.3547">
        <ele>650.3</ele>
        <time>2023-02-19T11:48:44Z</time>
      </trkpt>
      <trkpt lat="45.66877" lon="4.35472">
        <ele>650.4</ele>
        <time>2023-02-19T11:48:45Z</time>
      </trkpt>
      <trkpt lat="45.66878" lon="4.35474">
        <ele>650.4</ele>
        <time>2023-02-19T11:48:46Z</time>
      </trkpt>
      <trkpt lat="45.66878" lon="4.35477">
        <ele>650.5</ele>
        <time>2023-02-19T11:48:47Z</time>
      </trkpt>
      <trkpt lat="45.66879" lon="4.35478">
        <ele>650.5</ele>
        <time>2023-02-19T11:48:48Z</time>
      </trkpt>
      <trkpt lat="45.66879" lon="4.3548">
        <ele>650.5</ele>
        <time>2023-02-19T11:48:49Z</time>
      </trkpt>
      <trkpt lat="45.66879" lon="4.35482">
        <ele>650.6</ele>
        <time>2023-02-19T11:48:50Z</time>
      </trkpt>
      <trkpt lat="45.6688" lon="4.35484">
        <ele>650.6</ele>
        <time>2023-02-19T11:48:51Z</time>
      </trkpt>
      <trkpt lat="45.66881" lon="4.35487">
        <ele>650.6</ele>
        <time>2023-02-19T11:48:53Z</time>
      </trkpt>
      <trkpt lat="45.66882" lon="4.3549">
        <ele>650.7</ele>
        <time>2023-02-19T11:48:54Z</time>
      </trkpt>
      <trkpt lat="45.66882" lon="4.35491">
        <ele>650.7</ele>
        <time>2023-02-19T11:48:55Z</time>
      </trkpt>
      <trkpt lat="45.66882" lon="4.35492">
        <ele>650.7</ele>
        <time>2023-02-19T11:48:56Z</time>
      </trkpt>
      <trkpt lat="45.66883" lon="4.35497">
        <ele>650.7</ele>
        <time>2023-02-19T11:48:58Z</time>
      </trkpt>
      <trkpt lat="45.66883" lon="4.35498">
        <ele>650.7</ele>
        <time>2023-02-19T11:48:59Z</time>
      </trkpt>
      <trkpt lat="45.66883" lon="4.355">
        <ele>650.7</ele>
        <time>2023-02-19T11:49:00Z</time>
      </trkpt>
      <trkpt lat="45.66883" lon="4.35502">
        <ele>650.7</ele>
        <time>2023-02-19T11:49:01Z</time>
      </trkpt>
      <trkpt lat="45.66883" lon="4.35505">
        <ele>650.6</ele>
        <time>2023-02-19T11:49:02Z</time>
      </trkpt>
      <trkpt lat="45.66883" lon="4.35508">
        <ele>650.6</ele>
        <time>2023-02-19T11:49:04Z</time>
      </trkpt>
      <trkpt lat="45.66883" lon="4.3551">
        <ele>650.6</ele>
        <time>2023-02-19T11:49:05Z</time>
      </trkpt>
      <trkpt lat="45.66883" lon="4.35512">
        <ele>650.6</ele>
        <time>2023-02-19T11:49:06Z</time>
      </trkpt>
      <trkpt lat="45.66883" lon="4.35514">
        <ele>650.5</ele>
        <time>2023-02-19T11:49:07Z</time>
      </trkpt>
      <trkpt lat="45.66883" lon="4.35516">
        <ele>650.5</ele>
        <time>2023-02-19T11:49:08Z</time>
      </trkpt>
      <trkpt lat="45.66884" lon="4.35517">
        <ele>650.5</ele>
        <time>2023-02-19T11:49:10Z</time>
      </trkpt>
      <trkpt lat="45.66884" lon="4.35519">
        <ele>650.4</ele>
        <time>2023-02-19T11:49:11Z</time>
      </trkpt>
      <trkpt lat="45.66884" lon="4.3552">
        <ele>650.4</ele>
        <time>2023-02-19T11:49:12Z</time>
      </trkpt>
      <trkpt lat="45.66884" lon="4.35521">
        <ele>650.4</ele>
        <time>2023-02-19T11:49:13Z</time>
      </trkpt>
      <trkpt lat="45.66885" lon="4.35523">
        <ele>650.3</ele>
        <time>2023-02-19T11:49:14Z</time>
      </trkpt>
      <trkpt lat="45.66885" lon="4.35526">
        <ele>650.3</ele>
        <time>2023-02-19T11:49:16Z</time>
      </trkpt>
      <trkpt lat="45.66886" lon="4.35528">
        <ele>650.2</ele>
        <time>2023-02-19T11:49:17Z</time>
      </trkpt>
      <trkpt lat="45.66886" lon="4.3553">
        <ele>650.2</ele>
        <time>2023-02-19T11:49:18Z</time>
      </trkpt>
      <trkpt lat="45.66886" lon="4.35532">
        <ele>650.1</ele>
        <time>2023-02-19T11:49:19Z</time>
      </trkpt>
      <trkpt lat="45.66887" lon="4.35534">
        <ele>650</ele>
        <time>2023-02-19T11:49:20Z</time>
      </trkpt>
      <trkpt lat="45.66887" lon="4.35535">
        <ele>650</ele>
        <time>2023-02-19T11:49:21Z</time>
      </trkpt>
      <trkpt lat="45.66887" lon="4.35538">
        <ele>649.9</ele>
        <time>2023-02-19T11:49:22Z</time>
      </trkpt>
      <trkpt lat="45.66887" lon="4.35539">
        <ele>649.9</ele>
        <time>2023-02-19T11:49:23Z</time>
      </trkpt>
      <trkpt lat="45.66887" lon="4.35541">
        <ele>649.8</ele>
        <time>2023-02-19T11:49:25Z</time>
      </trkpt>
      <trkpt lat="45.66887" lon="4.35543">
        <ele>649.8</ele>
        <time>2023-02-19T11:49:26Z</time>
      </trkpt>
      <trkpt lat="45.66887" lon="4.35545">
        <ele>649.7</ele>
        <time>2023-02-19T11:49:27Z</time>
      </trkpt>
      <trkpt lat="45.66887" lon="4.35548">
        <ele>649.6</ele>
        <time>2023-02-19T11:49:28Z</time>
      </trkpt>
      <trkpt lat="45.66888" lon="4.3555">
        <ele>649.6</ele>
        <time>2023-02-19T11:49:29Z</time>
      </trkpt>
      <trkpt lat="45.66888" lon="4.35551">
        <ele>649.5</ele>
        <time>2023-02-19T11:49:30Z</time>
      </trkpt>
      <trkpt lat="45.66888" lon="4.35553">
        <ele>649.5</ele>
        <time>2023-02-19T11:49:31Z</time>
      </trkpt>
      <trkpt lat="45.66889" lon="4.35555">
        <ele>649.4</ele>
        <time>2023-02-19T11:49:32Z</time>
      </trkpt>
      <trkpt lat="45.66889" lon="4.35556">
        <ele>649.4</ele>
        <time>2023-02-19T11:49:33Z</time>
      </trkpt>
      <trkpt lat="45.6689" lon="4.35559">
        <ele>649.3</ele>
        <time>2023-02-19T11:49:35Z</time>
      </trkpt>
      <trkpt lat="45.6689" lon="4.35561">
        <ele>649.2</ele>
        <time>2023-02-19T11:49:37Z</time>
      </trkpt>
      <trkpt lat="45.66891" lon="4.35563">
        <ele>649.2</ele>
        <time>2023-02-19T11:49:38Z</time>
      </trkpt>
      <trkpt lat="45.66892" lon="4.35565">
        <ele>649.1</ele>
        <time>2023-02-19T11:49:39Z</time>
      </trkpt>
      <trkpt lat="45.66892" lon="4.35567">
        <ele>649.1</ele>
        <time>2023-02-19T11:49:40Z</time>
      </trkpt>
      <trkpt lat="45.66893" lon="4.35568">
        <ele>649</ele>
        <time>2023-02-19T11:49:41Z</time>
      </trkpt>
      <trkpt lat="45.66893" lon="4.35569">
        <ele>649</ele>
        <time>2023-02-19T11:49:42Z</time>
      </trkpt>
      <trkpt lat="45.66894" lon="4.35572">
        <ele>648.9</ele>
        <time>2023-02-19T11:49:43Z</time>
      </trkpt>
      <trkpt lat="45.66894" lon="4.35573">
        <ele>648.9</ele>
        <time>2023-02-19T11:49:44Z</time>
      </trkpt>
      <trkpt lat="45.66895" lon="4.35575">
        <ele>648.9</ele>
        <time>2023-02-19T11:49:45Z</time>
      </trkpt>
      <trkpt lat="45.66895" lon="4.35577">
        <ele>648.8</ele>
        <time>2023-02-19T11:49:46Z</time>
      </trkpt>
      <trkpt lat="45.66896" lon="4.35579">
        <ele>648.8</ele>
        <time>2023-02-19T11:49:47Z</time>
      </trkpt>
      <trkpt lat="45.66896" lon="4.3558">
        <ele>648.8</ele>
        <time>2023-02-19T11:49:48Z</time>
      </trkpt>
      <trkpt lat="45.66897" lon="4.35582">
        <ele>648.7</ele>
        <time>2023-02-19T11:49:49Z</time>
      </trkpt>
      <trkpt lat="45.66897" lon="4.35583">
        <ele>648.7</ele>
        <time>2023-02-19T11:49:50Z</time>
      </trkpt>
      <trkpt lat="45.66898" lon="4.35587">
        <ele>648.6</ele>
        <time>2023-02-19T11:49:52Z</time>
      </trkpt>
      <trkpt lat="45.66898" lon="4.35588">
        <ele>648.6</ele>
        <time>2023-02-19T11:49:53Z</time>
      </trkpt>
      <trkpt lat="45.66899" lon="4.3559">
        <ele>648.6</ele>
        <time>2023-02-19T11:49:54Z</time>
      </trkpt>
      <trkpt lat="45.66899" lon="4.35593">
        <ele>648.5</ele>
        <time>2023-02-19T11:49:55Z</time>
      </trkpt>
      <trkpt lat="45.66899" lon="4.35594">
        <ele>648.5</ele>
        <time>2023-02-19T11:49:56Z</time>
      </trkpt>
      <trkpt lat="45.66899" lon="4.35596">
        <ele>648.5</ele>
        <time>2023-02-19T11:49:57Z</time>
      </trkpt>
      <trkpt lat="45.66899" lon="4.35598">
        <ele>648.4</ele>
        <time>2023-02-19T11:49:58Z</time>
      </trkpt>
      <trkpt lat="45.669" lon="4.35599">
        <ele>648.4</ele>
        <time>2023-02-19T11:49:59Z</time>
      </trkpt>
      <trkpt lat="45.669" lon="4.35602">
        <ele>648.4</ele>
        <time>2023-02-19T11:50:01Z</time>
      </trkpt>
      <trkpt lat="45.669" lon="4.35604">
        <ele>648.3</ele>
        <time>2023-02-19T11:50:02Z</time>
      </trkpt>
      <trkpt lat="45.66901" lon="4.35606">
        <ele>648.3</ele>
        <time>2023-02-19T11:50:03Z</time>
      </trkpt>
      <trkpt lat="45.66901" lon="4.35607">
        <ele>648.3</ele>
        <time>2023-02-19T11:50:04Z</time>
      </trkpt>
      <trkpt lat="45.66901" lon="4.35609">
        <ele>648.2</ele>
        <time>2023-02-19T11:50:05Z</time>
      </trkpt>
      <trkpt lat="45.66902" lon="4.35611">
        <ele>648.2</ele>
        <time>2023-02-19T11:50:07Z</time>
      </trkpt>
      <trkpt lat="45.66902" lon="4.35614">
        <ele>648.1</ele>
        <time>2023-02-19T11:50:08Z</time>
      </trkpt>
      <trkpt lat="45.66903" lon="4.35616">
        <ele>648.1</ele>
        <time>2023-02-19T11:50:09Z</time>
      </trkpt>
      <trkpt lat="45.66903" lon="4.35618">
        <ele>648.1</ele>
        <time>2023-02-19T11:50:10Z</time>
      </trkpt>
      <trkpt lat="45.66904" lon="4.3562">
        <ele>648</ele>
        <time>2023-02-19T11:50:11Z</time>
      </trkpt>
      <trkpt lat="45.66904" lon="4.35625">
        <ele>647.9</ele>
        <time>2023-02-19T11:50:12Z</time>
      </trkpt>
      <trkpt lat="45.66905" lon="4.35626">
        <ele>647.9</ele>
        <time>2023-02-19T11:50:13Z</time>
      </trkpt>
      <trkpt lat="45.66907" lon="4.3563">
        <ele>647.9</ele>
        <time>2023-02-19T11:50:14Z</time>
      </trkpt>
      <trkpt lat="45.66907" lon="4.35631">
        <ele>647.8</ele>
        <time>2023-02-19T11:50:15Z</time>
      </trkpt>
      <trkpt lat="45.66908" lon="4.35632">
        <ele>647.8</ele>
        <time>2023-02-19T11:50:16Z</time>
      </trkpt>
      <trkpt lat="45.66909" lon="4.35634">
        <ele>647.8</ele>
        <time>2023-02-19T11:50:17Z</time>
      </trkpt>
      <trkpt lat="45.66909" lon="4.35635">
        <ele>647.8</ele>
        <time>2023-02-19T11:50:18Z</time>
      </trkpt>
      <trkpt lat="45.6691" lon="4.35637">
        <ele>647.7</ele>
        <time>2023-02-19T11:50:19Z</time>
      </trkpt>
      <trkpt lat="45.66911" lon="4.35639">
        <ele>647.7</ele>
        <time>2023-02-19T11:50:21Z</time>
      </trkpt>
      <trkpt lat="45.66912" lon="4.35641">
        <ele>647.7</ele>
        <time>2023-02-19T11:50:22Z</time>
      </trkpt>
      <trkpt lat="45.66913" lon="4.35644">
        <ele>647.6</ele>
        <time>2023-02-19T11:50:23Z</time>
      </trkpt>
      <trkpt lat="45.66913" lon="4.35646">
        <ele>647.6</ele>
        <time>2023-02-19T11:50:24Z</time>
      </trkpt>
      <trkpt lat="45.66913" lon="4.35648">
        <ele>647.6</ele>
        <time>2023-02-19T11:50:25Z</time>
      </trkpt>
      <trkpt lat="45.66914" lon="4.3565">
        <ele>647.6</ele>
        <time>2023-02-19T11:50:26Z</time>
      </trkpt>
      <trkpt lat="45.66914" lon="4.35652">
        <ele>647.6</ele>
        <time>2023-02-19T11:50:27Z</time>
      </trkpt>
      <trkpt lat="45.66915" lon="4.35655">
        <ele>647.5</ele>
        <time>2023-02-19T11:50:29Z</time>
      </trkpt>
      <trkpt lat="45.66916" lon="4.35658">
        <ele>647.5</ele>
        <time>2023-02-19T11:50:30Z</time>
      </trkpt>
      <trkpt lat="45.66916" lon="4.3566">
        <ele>647.5</ele>
        <time>2023-02-19T11:50:31Z</time>
      </trkpt>
      <trkpt lat="45.66916" lon="4.35661">
        <ele>647.5</ele>
        <time>2023-02-19T11:50:32Z</time>
      </trkpt>
      <trkpt lat="45.66917" lon="4.35664">
        <ele>647.5</ele>
        <time>2023-02-19T11:50:34Z</time>
      </trkpt>
      <trkpt lat="45.66917" lon="4.35666">
        <ele>647.5</ele>
        <time>2023-02-19T11:50:35Z</time>
      </trkpt>
      <trkpt lat="45.66918" lon="4.35668">
        <ele>647.5</ele>
        <time>2023-02-19T11:50:36Z</time>
      </trkpt>
      <trkpt lat="45.66918" lon="4.3567">
        <ele>647.5</ele>
        <time>2023-02-19T11:50:38Z</time>
      </trkpt>
      <trkpt lat="45.66918" lon="4.35672">
        <ele>647.5</ele>
        <time>2023-02-19T11:50:39Z</time>
      </trkpt>
      <trkpt lat="45.66918" lon="4.35674">
        <ele>647.5</ele>
        <time>2023-02-19T11:50:40Z</time>
      </trkpt>
      <trkpt lat="45.66919" lon="4.35675">
        <ele>647.5</ele>
        <time>2023-02-19T11:50:41Z</time>
      </trkpt>
      <trkpt lat="45.66919" lon="4.35677">
        <ele>647.6</ele>
        <time>2023-02-19T11:50:42Z</time>
      </trkpt>
      <trkpt lat="45.6692" lon="4.35679">
        <ele>647.6</ele>
        <time>2023-02-19T11:50:43Z</time>
      </trkpt>
      <trkpt lat="45.6692" lon="4.35681">
        <ele>647.6</ele>
        <time>2023-02-19T11:50:44Z</time>
      </trkpt>
      <trkpt lat="45.66921" lon="4.35682">
        <ele>647.6</ele>
        <time>2023-02-19T11:50:45Z</time>
      </trkpt>
      <trkpt lat="45.66921" lon="4.35683">
        <ele>647.6</ele>
        <time>2023-02-19T11:50:46Z</time>
      </trkpt>
      <trkpt lat="45.66922" lon="4.35684">
        <ele>647.6</ele>
        <time>2023-02-19T11:50:47Z</time>
      </trkpt>
      <trkpt lat="45.66923" lon="4.35686">
        <ele>647.6</ele>
        <time>2023-02-19T11:50:49Z</time>
      </trkpt>
      <trkpt lat="45.66923" lon="4.35687">
        <ele>647.6</ele>
        <time>2023-02-19T11:50:50Z</time>
      </trkpt>
      <trkpt lat="45.66924" lon="4.35688">
        <ele>647.6</ele>
        <time>2023-02-19T11:50:51Z</time>
      </trkpt>
      <trkpt lat="45.66925" lon="4.35691">
        <ele>647.6</ele>
        <time>2023-02-19T11:50:52Z</time>
      </trkpt>
      <trkpt lat="45.66925" lon="4.35692">
        <ele>647.7</ele>
        <time>2023-02-19T11:50:53Z</time>
      </trkpt>
      <trkpt lat="45.66926" lon="4.35693">
        <ele>647.7</ele>
        <time>2023-02-19T11:50:54Z</time>
      </trkpt>
      <trkpt lat="45.66926" lon="4.35696">
        <ele>647.7</ele>
        <time>2023-02-19T11:50:55Z</time>
      </trkpt>
      <trkpt lat="45.66926" lon="4.35698">
        <ele>647.7</ele>
        <time>2023-02-19T11:50:56Z</time>
      </trkpt>
      <trkpt lat="45.66926" lon="4.35699">
        <ele>647.7</ele>
        <time>2023-02-19T11:50:57Z</time>
      </trkpt>
      <trkpt lat="45.66927" lon="4.35702">
        <ele>647.7</ele>
        <time>2023-02-19T11:50:59Z</time>
      </trkpt>
      <trkpt lat="45.66927" lon="4.35703">
        <ele>647.8</ele>
        <time>2023-02-19T11:51:00Z</time>
      </trkpt>
      <trkpt lat="45.66928" lon="4.35707">
        <ele>647.8</ele>
        <time>2023-02-19T11:51:02Z</time>
      </trkpt>
      <trkpt lat="45.66929" lon="4.35709">
        <ele>647.8</ele>
        <time>2023-02-19T11:51:03Z</time>
      </trkpt>
      <trkpt lat="45.66929" lon="4.35709">
        <ele>647.8</ele>
        <time>2023-02-19T11:51:04Z</time>
      </trkpt>
      <trkpt lat="45.6693" lon="4.35712">
        <ele>647.9</ele>
        <time>2023-02-19T11:51:06Z</time>
      </trkpt>
      <trkpt lat="45.66931" lon="4.35714">
        <ele>647.9</ele>
        <time>2023-02-19T11:51:07Z</time>
      </trkpt>
      <trkpt lat="45.66932" lon="4.35716">
        <ele>647.9</ele>
        <time>2023-02-19T11:51:08Z</time>
      </trkpt>
      <trkpt lat="45.66932" lon="4.35717">
        <ele>647.9</ele>
        <time>2023-02-19T11:51:09Z</time>
      </trkpt>
      <trkpt lat="45.66933" lon="4.35718">
        <ele>647.9</ele>
        <time>2023-02-19T11:51:10Z</time>
      </trkpt>
      <trkpt lat="45.66935" lon="4.35722">
        <ele>648</ele>
        <time>2023-02-19T11:51:12Z</time>
      </trkpt>
      <trkpt lat="45.66937" lon="4.35724">
        <ele>648</ele>
        <time>2023-02-19T11:51:13Z</time>
      </trkpt>
      <trkpt lat="45.66937" lon="4.35725">
        <ele>648</ele>
        <time>2023-02-19T11:51:15Z</time>
      </trkpt>
      <trkpt lat="45.66938" lon="4.35727">
        <ele>648</ele>
        <time>2023-02-19T11:51:16Z</time>
      </trkpt>
      <trkpt lat="45.66938" lon="4.35728">
        <ele>648</ele>
        <time>2023-02-19T11:51:17Z</time>
      </trkpt>
      <trkpt lat="45.66939" lon="4.35729">
        <ele>648</ele>
        <time>2023-02-19T11:51:18Z</time>
      </trkpt>
      <trkpt lat="45.66941" lon="4.35731">
        <ele>648.1</ele>
        <time>2023-02-19T11:51:19Z</time>
      </trkpt>
      <trkpt lat="45.66941" lon="4.35731">
        <ele>648.1</ele>
        <time>2023-02-19T11:51:20Z</time>
      </trkpt>
      <trkpt lat="45.66942" lon="4.35732">
        <ele>648.1</ele>
        <time>2023-02-19T11:51:21Z</time>
      </trkpt>
      <trkpt lat="45.66943" lon="4.35733">
        <ele>648.1</ele>
        <time>2023-02-19T11:51:22Z</time>
      </trkpt>
      <trkpt lat="45.66944" lon="4.35736">
        <ele>648.1</ele>
        <time>2023-02-19T11:51:24Z</time>
      </trkpt>
      <trkpt lat="45.66945" lon="4.35736">
        <ele>648.1</ele>
        <time>2023-02-19T11:51:25Z</time>
      </trkpt>
      <trkpt lat="45.66945" lon="4.35737">
        <ele>648.1</ele>
        <time>2023-02-19T11:51:26Z</time>
      </trkpt>
      <trkpt lat="45.66946" lon="4.35738">
        <ele>648.1</ele>
        <time>2023-02-19T11:51:27Z</time>
      </trkpt>
      <trkpt lat="45.66948" lon="4.35739">
        <ele>648.1</ele>
        <time>2023-02-19T11:51:28Z</time>
      </trkpt>
      <trkpt lat="45.6695" lon="4.35741">
        <ele>648.1</ele>
        <time>2023-02-19T11:51:29Z</time>
      </trkpt>
      <trkpt lat="45.66951" lon="4.35742">
        <ele>648.1</ele>
        <time>2023-02-19T11:51:30Z</time>
      </trkpt>
      <trkpt lat="45.66952" lon="4.35743">
        <ele>648.1</ele>
        <time>2023-02-19T11:51:31Z</time>
      </trkpt>
      <trkpt lat="45.66953" lon="4.35744">
        <ele>648.1</ele>
        <time>2023-02-19T11:51:32Z</time>
      </trkpt>
      <trkpt lat="45.66956" lon="4.35747">
        <ele>648.1</ele>
        <time>2023-02-19T11:51:34Z</time>
      </trkpt>
      <trkpt lat="45.66956" lon="4.35747">
        <ele>648.1</ele>
        <time>2023-02-19T11:51:35Z</time>
      </trkpt>
      <trkpt lat="45.66956" lon="4.35749">
        <ele>648</ele>
        <time>2023-02-19T11:51:36Z</time>
      </trkpt>
      <trkpt lat="45.66957" lon="4.35751">
        <ele>648</ele>
        <time>2023-02-19T11:51:37Z</time>
      </trkpt>
      <trkpt lat="45.66958" lon="4.35754">
        <ele>648</ele>
        <time>2023-02-19T11:51:39Z</time>
      </trkpt>
      <trkpt lat="45.66959" lon="4.35757">
        <ele>648</ele>
        <time>2023-02-19T11:51:40Z</time>
      </trkpt>
      <trkpt lat="45.66959" lon="4.35758">
        <ele>648</ele>
        <time>2023-02-19T11:51:41Z</time>
      </trkpt>
      <trkpt lat="45.6696" lon="4.35759">
        <ele>647.9</ele>
        <time>2023-02-19T11:51:42Z</time>
      </trkpt>
      <trkpt lat="45.6696" lon="4.35761">
        <ele>647.9</ele>
        <time>2023-02-19T11:51:43Z</time>
      </trkpt>
      <trkpt lat="45.66961" lon="4.35763">
        <ele>647.9</ele>
        <time>2023-02-19T11:51:44Z</time>
      </trkpt>
      <trkpt lat="45.66962" lon="4.35767">
        <ele>647.9</ele>
        <time>2023-02-19T11:51:45Z</time>
      </trkpt>
      <trkpt lat="45.66963" lon="4.35768">
        <ele>647.9</ele>
        <time>2023-02-19T11:51:46Z</time>
      </trkpt>
      <trkpt lat="45.66963" lon="4.3577">
        <ele>647.8</ele>
        <time>2023-02-19T11:51:47Z</time>
      </trkpt>
      <trkpt lat="45.66963" lon="4.35772">
        <ele>647.8</ele>
        <time>2023-02-19T11:51:48Z</time>
      </trkpt>
      <trkpt lat="45.66964" lon="4.35774">
        <ele>647.8</ele>
        <time>2023-02-19T11:51:50Z</time>
      </trkpt>
      <trkpt lat="45.66964" lon="4.35776">
        <ele>647.8</ele>
        <time>2023-02-19T11:51:51Z</time>
      </trkpt>
      <trkpt lat="45.66965" lon="4.35778">
        <ele>647.8</ele>
        <time>2023-02-19T11:51:52Z</time>
      </trkpt>
      <trkpt lat="45.66966" lon="4.35782">
        <ele>647.8</ele>
        <time>2023-02-19T11:51:53Z</time>
      </trkpt>
      <trkpt lat="45.66967" lon="4.35783">
        <ele>647.7</ele>
        <time>2023-02-19T11:51:54Z</time>
      </trkpt>
      <trkpt lat="45.66968" lon="4.35786">
        <ele>647.7</ele>
        <time>2023-02-19T11:51:55Z</time>
      </trkpt>
      <trkpt lat="45.66968" lon="4.35787">
        <ele>647.7</ele>
        <time>2023-02-19T11:51:56Z</time>
      </trkpt>
      <trkpt lat="45.66969" lon="4.35788">
        <ele>647.7</ele>
        <time>2023-02-19T11:51:57Z</time>
      </trkpt>
      <trkpt lat="45.6697" lon="4.35792">
        <ele>647.7</ele>
        <time>2023-02-19T11:51:58Z</time>
      </trkpt>
      <trkpt lat="45.6697" lon="4.35793">
        <ele>647.6</ele>
        <time>2023-02-19T11:51:59Z</time>
      </trkpt>
      <trkpt lat="45.66971" lon="4.35794">
        <ele>647.6</ele>
        <time>2023-02-19T11:52:01Z</time>
      </trkpt>
      <trkpt lat="45.66971" lon="4.35796">
        <ele>647.6</ele>
        <time>2023-02-19T11:52:02Z</time>
      </trkpt>
      <trkpt lat="45.66972" lon="4.358">
        <ele>647.6</ele>
        <time>2023-02-19T11:52:03Z</time>
      </trkpt>
      <trkpt lat="45.66973" lon="4.35801">
        <ele>647.5</ele>
        <time>2023-02-19T11:52:04Z</time>
      </trkpt>
      <trkpt lat="45.66973" lon="4.35802">
        <ele>647.5</ele>
        <time>2023-02-19T11:52:05Z</time>
      </trkpt>
      <trkpt lat="45.66973" lon="4.35804">
        <ele>647.5</ele>
        <time>2023-02-19T11:52:06Z</time>
      </trkpt>
      <trkpt lat="45.66973" lon="4.35806">
        <ele>647.5</ele>
        <time>2023-02-19T11:52:07Z</time>
      </trkpt>
      <trkpt lat="45.66974" lon="4.35807">
        <ele>647.4</ele>
        <time>2023-02-19T11:52:08Z</time>
      </trkpt>
      <trkpt lat="45.66974" lon="4.35809">
        <ele>647.4</ele>
        <time>2023-02-19T11:52:09Z</time>
      </trkpt>
      <trkpt lat="45.66974" lon="4.3581">
        <ele>647.4</ele>
        <time>2023-02-19T11:52:10Z</time>
      </trkpt>
      <trkpt lat="45.66974" lon="4.35813">
        <ele>647.3</ele>
        <time>2023-02-19T11:52:12Z</time>
      </trkpt>
      <trkpt lat="45.66975" lon="4.35815">
        <ele>647.3</ele>
        <time>2023-02-19T11:52:13Z</time>
      </trkpt>
      <trkpt lat="45.66975" lon="4.35817">
        <ele>647.2</ele>
        <time>2023-02-19T11:52:15Z</time>
      </trkpt>
      <trkpt lat="45.66975" lon="4.35819">
        <ele>647.2</ele>
        <time>2023-02-19T11:52:16Z</time>
      </trkpt>
      <trkpt lat="45.66975" lon="4.35821">
        <ele>647.1</ele>
        <time>2023-02-19T11:52:17Z</time>
      </trkpt>
      <trkpt lat="45.66976" lon="4.35823">
        <ele>647.1</ele>
        <time>2023-02-19T11:52:18Z</time>
      </trkpt>
      <trkpt lat="45.66977" lon="4.35825">
        <ele>647</ele>
        <time>2023-02-19T11:52:19Z</time>
      </trkpt>
      <trkpt lat="45.66977" lon="4.35827">
        <ele>646.9</ele>
        <time>2023-02-19T11:52:20Z</time>
      </trkpt>
      <trkpt lat="45.66977" lon="4.35829">
        <ele>646.8</ele>
        <time>2023-02-19T11:52:21Z</time>
      </trkpt>
      <trkpt lat="45.66977" lon="4.35831">
        <ele>646.8</ele>
        <time>2023-02-19T11:52:22Z</time>
      </trkpt>
      <trkpt lat="45.66977" lon="4.35832">
        <ele>646.8</ele>
        <time>2023-02-19T11:52:23Z</time>
      </trkpt>
      <trkpt lat="45.66977" lon="4.35834">
        <ele>646.7</ele>
        <time>2023-02-19T11:52:25Z</time>
      </trkpt>
      <trkpt lat="45.66977" lon="4.35836">
        <ele>646.6</ele>
        <time>2023-02-19T11:52:26Z</time>
      </trkpt>
      <trkpt lat="45.66977" lon="4.35838">
        <ele>646.5</ele>
        <time>2023-02-19T11:52:27Z</time>
      </trkpt>
      <trkpt lat="45.66978" lon="4.35839">
        <ele>646.5</ele>
        <time>2023-02-19T11:52:28Z</time>
      </trkpt>
      <trkpt lat="45.66978" lon="4.35841">
        <ele>646.4</ele>
        <time>2023-02-19T11:52:29Z</time>
      </trkpt>
      <trkpt lat="45.66978" lon="4.35843">
        <ele>646.2</ele>
        <time>2023-02-19T11:52:30Z</time>
      </trkpt>
      <trkpt lat="45.66978" lon="4.35845">
        <ele>646</ele>
        <time>2023-02-19T11:52:31Z</time>
      </trkpt>
      <trkpt lat="45.66978" lon="4.35846">
        <ele>645.8</ele>
        <time>2023-02-19T11:52:32Z</time>
      </trkpt>
      <trkpt lat="45.66978" lon="4.35849">
        <ele>645.6</ele>
        <time>2023-02-19T11:52:33Z</time>
      </trkpt>
      <trkpt lat="45.66978" lon="4.35851">
        <ele>645.3</ele>
        <time>2023-02-19T11:52:34Z</time>
      </trkpt>
      <trkpt lat="45.66977" lon="4.35854">
        <ele>644.9</ele>
        <time>2023-02-19T11:52:36Z</time>
      </trkpt>
      <trkpt lat="45.66977" lon="4.35856">
        <ele>644.7</ele>
        <time>2023-02-19T11:52:37Z</time>
      </trkpt>
      <trkpt lat="45.66977" lon="4.35859">
        <ele>644.4</ele>
        <time>2023-02-19T11:52:38Z</time>
      </trkpt>
      <trkpt lat="45.66976" lon="4.35862">
        <ele>644</ele>
        <time>2023-02-19T11:52:39Z</time>
      </trkpt>
      <trkpt lat="45.66976" lon="4.35864">
        <ele>643.7</ele>
        <time>2023-02-19T11:52:41Z</time>
      </trkpt>
      <trkpt lat="45.66975" lon="4.35866">
        <ele>643.5</ele>
        <time>2023-02-19T11:52:42Z</time>
      </trkpt>
      <trkpt lat="45.66975" lon="4.35868">
        <ele>643.2</ele>
        <time>2023-02-19T11:52:43Z</time>
      </trkpt>
      <trkpt lat="45.66975" lon="4.35872">
        <ele>642.8</ele>
        <time>2023-02-19T11:52:44Z</time>
      </trkpt>
      <trkpt lat="45.66975" lon="4.35873">
        <ele>642.6</ele>
        <time>2023-02-19T11:52:45Z</time>
      </trkpt>
      <trkpt lat="45.66976" lon="4.35877">
        <ele>642.1</ele>
        <time>2023-02-19T11:52:46Z</time>
      </trkpt>
      <trkpt lat="45.66976" lon="4.35879">
        <ele>641.8</ele>
        <time>2023-02-19T11:52:48Z</time>
      </trkpt>
      <trkpt lat="45.66977" lon="4.35881">
        <ele>641.6</ele>
        <time>2023-02-19T11:52:49Z</time>
      </trkpt>
      <trkpt lat="45.66977" lon="4.35883">
        <ele>641.4</ele>
        <time>2023-02-19T11:52:50Z</time>
      </trkpt>
      <trkpt lat="45.66978" lon="4.35885">
        <ele>641.1</ele>
        <time>2023-02-19T11:52:51Z</time>
      </trkpt>
      <trkpt lat="45.66978" lon="4.35887">
        <ele>640.8</ele>
        <time>2023-02-19T11:52:52Z</time>
      </trkpt>
      <trkpt lat="45.66979" lon="4.35889">
        <ele>640.6</ele>
        <time>2023-02-19T11:52:53Z</time>
      </trkpt>
      <trkpt lat="45.66979" lon="4.35892">
        <ele>640.3</ele>
        <time>2023-02-19T11:52:54Z</time>
      </trkpt>
      <trkpt lat="45.6698" lon="4.35893">
        <ele>640.2</ele>
        <time>2023-02-19T11:52:55Z</time>
      </trkpt>
      <trkpt lat="45.6698" lon="4.35894">
        <ele>640</ele>
        <time>2023-02-19T11:52:56Z</time>
      </trkpt>
      <trkpt lat="45.66981" lon="4.35895">
        <ele>639.9</ele>
        <time>2023-02-19T11:52:57Z</time>
      </trkpt>
      <trkpt lat="45.66981" lon="4.35897">
        <ele>639.8</ele>
        <time>2023-02-19T11:52:58Z</time>
      </trkpt>
      <trkpt lat="45.66981" lon="4.35899">
        <ele>639.6</ele>
        <time>2023-02-19T11:52:59Z</time>
      </trkpt>
      <trkpt lat="45.66981" lon="4.35899">
        <ele>639.5</ele>
        <time>2023-02-19T11:53:00Z</time>
      </trkpt>
      <trkpt lat="45.66981" lon="4.359">
        <ele>639.5</ele>
        <time>2023-02-19T11:53:02Z</time>
      </trkpt>
      <trkpt lat="45.6698" lon="4.35899">
        <ele>639.4</ele>
        <time>2023-02-19T11:53:03Z</time>
      </trkpt>
      <trkpt lat="45.6698" lon="4.35898">
        <ele>639.3</ele>
        <time>2023-02-19T11:53:04Z</time>
      </trkpt>
      <trkpt lat="45.6698" lon="4.35898">
        <ele>639.3</ele>
        <time>2023-02-19T11:53:05Z</time>
      </trkpt>
      <trkpt lat="45.6698" lon="4.35898">
        <ele>639.3</ele>
        <time>2023-02-19T11:53:06Z</time>
      </trkpt>
      <trkpt lat="45.6698" lon="4.35899">
        <ele>639.2</ele>
        <time>2023-02-19T11:53:07Z</time>
      </trkpt>
      <trkpt lat="45.6698" lon="4.359">
        <ele>639.1</ele>
        <time>2023-02-19T11:53:08Z</time>
      </trkpt>
      <trkpt lat="45.6698" lon="4.35901">
        <ele>639</ele>
        <time>2023-02-19T11:53:09Z</time>
      </trkpt>
      <trkpt lat="45.6698" lon="4.35902">
        <ele>638.9</ele>
        <time>2023-02-19T11:53:10Z</time>
      </trkpt>
      <trkpt lat="45.6698" lon="4.35904">
        <ele>638.8</ele>
        <time>2023-02-19T11:53:11Z</time>
      </trkpt>
      <trkpt lat="45.66981" lon="4.35906">
        <ele>638.6</ele>
        <time>2023-02-19T11:53:13Z</time>
      </trkpt>
      <trkpt lat="45.66981" lon="4.35908">
        <ele>638.4</ele>
        <time>2023-02-19T11:53:14Z</time>
      </trkpt>
      <trkpt lat="45.66982" lon="4.35912">
        <ele>638.1</ele>
        <time>2023-02-19T11:53:15Z</time>
      </trkpt>
      <trkpt lat="45.66982" lon="4.35913">
        <ele>638</ele>
        <time>2023-02-19T11:53:16Z</time>
      </trkpt>
      <trkpt lat="45.66983" lon="4.35915">
        <ele>637.9</ele>
        <time>2023-02-19T11:53:17Z</time>
      </trkpt>
      <trkpt lat="45.66984" lon="4.35917">
        <ele>637.7</ele>
        <time>2023-02-19T11:53:18Z</time>
      </trkpt>
      <trkpt lat="45.66985" lon="4.35921">
        <ele>637.4</ele>
        <time>2023-02-19T11:53:19Z</time>
      </trkpt>
      <trkpt lat="45.66985" lon="4.35922">
        <ele>637.4</ele>
        <time>2023-02-19T11:53:20Z</time>
      </trkpt>
      <trkpt lat="45.66986" lon="4.35923">
        <ele>637.3</ele>
        <time>2023-02-19T11:53:21Z</time>
      </trkpt>
      <trkpt lat="45.66987" lon="4.35925">
        <ele>637.2</ele>
        <time>2023-02-19T11:53:22Z</time>
      </trkpt>
      <trkpt lat="45.66988" lon="4.35927">
        <ele>637</ele>
        <time>2023-02-19T11:53:23Z</time>
      </trkpt>
      <trkpt lat="45.66989" lon="4.35929">
        <ele>636.8</ele>
        <time>2023-02-19T11:53:25Z</time>
      </trkpt>
      <trkpt lat="45.6699" lon="4.3593">
        <ele>636.8</ele>
        <time>2023-02-19T11:53:26Z</time>
      </trkpt>
      <trkpt lat="45.66991" lon="4.35931">
        <ele>636.7</ele>
        <time>2023-02-19T11:53:27Z</time>
      </trkpt>
      <trkpt lat="45.66992" lon="4.35933">
        <ele>636.6</ele>
        <time>2023-02-19T11:53:28Z</time>
      </trkpt>
      <trkpt lat="45.66993" lon="4.35934">
        <ele>636.5</ele>
        <time>2023-02-19T11:53:29Z</time>
      </trkpt>
      <trkpt lat="45.66994" lon="4.35936">
        <ele>636.3</ele>
        <time>2023-02-19T11:53:30Z</time>
      </trkpt>
      <trkpt lat="45.66995" lon="4.35937">
        <ele>636.2</ele>
        <time>2023-02-19T11:53:32Z</time>
      </trkpt>
      <trkpt lat="45.66996" lon="4.35939">
        <ele>636.1</ele>
        <time>2023-02-19T11:53:33Z</time>
      </trkpt>
      <trkpt lat="45.66998" lon="4.35943">
        <ele>635.9</ele>
        <time>2023-02-19T11:53:34Z</time>
      </trkpt>
      <trkpt lat="45.66999" lon="4.35945">
        <ele>635.8</ele>
        <time>2023-02-19T11:53:35Z</time>
      </trkpt>
      <trkpt lat="45.66999" lon="4.35946">
        <ele>635.7</ele>
        <time>2023-02-19T11:53:36Z</time>
      </trkpt>
      <trkpt lat="45.66999" lon="4.35948">
        <ele>635.7</ele>
        <time>2023-02-19T11:53:37Z</time>
      </trkpt>
      <trkpt lat="45.66999" lon="4.3595">
        <ele>635.6</ele>
        <time>2023-02-19T11:53:38Z</time>
      </trkpt>
      <trkpt lat="45.67" lon="4.35954">
        <ele>635.4</ele>
        <time>2023-02-19T11:53:39Z</time>
      </trkpt>
      <trkpt lat="45.67" lon="4.35955">
        <ele>635.4</ele>
        <time>2023-02-19T11:53:41Z</time>
      </trkpt>
      <trkpt lat="45.67" lon="4.35957">
        <ele>635.3</ele>
        <time>2023-02-19T11:53:42Z</time>
      </trkpt>
      <trkpt lat="45.67" lon="4.35959">
        <ele>635.2</ele>
        <time>2023-02-19T11:53:43Z</time>
      </trkpt>
      <trkpt lat="45.67" lon="4.3596">
        <ele>635.1</ele>
        <time>2023-02-19T11:53:44Z</time>
      </trkpt>
      <trkpt lat="45.67001" lon="4.35963">
        <ele>635</ele>
        <time>2023-02-19T11:53:45Z</time>
      </trkpt>
      <trkpt lat="45.67001" lon="4.35965">
        <ele>635</ele>
        <time>2023-02-19T11:53:46Z</time>
      </trkpt>
      <trkpt lat="45.67001" lon="4.35966">
        <ele>634.9</ele>
        <time>2023-02-19T11:53:47Z</time>
      </trkpt>
      <trkpt lat="45.67002" lon="4.35968">
        <ele>634.8</ele>
        <time>2023-02-19T11:53:48Z</time>
      </trkpt>
      <trkpt lat="45.67002" lon="4.3597">
        <ele>634.8</ele>
        <time>2023-02-19T11:53:49Z</time>
      </trkpt>
      <trkpt lat="45.67003" lon="4.35972">
        <ele>634.7</ele>
        <time>2023-02-19T11:53:50Z</time>
      </trkpt>
      <trkpt lat="45.67005" lon="4.35974">
        <ele>634.6</ele>
        <time>2023-02-19T11:53:51Z</time>
      </trkpt>
      <trkpt lat="45.67005" lon="4.35975">
        <ele>634.5</ele>
        <time>2023-02-19T11:53:52Z</time>
      </trkpt>
      <trkpt lat="45.67007" lon="4.35977">
        <ele>634.4</ele>
        <time>2023-02-19T11:53:53Z</time>
      </trkpt>
      <trkpt lat="45.67007" lon="4.35978">
        <ele>634.3</ele>
        <time>2023-02-19T11:53:55Z</time>
      </trkpt>
      <trkpt lat="45.67008" lon="4.35979">
        <ele>634.3</ele>
        <time>2023-02-19T11:53:56Z</time>
      </trkpt>
      <trkpt lat="45.67009" lon="4.35982">
        <ele>634.2</ele>
        <time>2023-02-19T11:53:57Z</time>
      </trkpt>
      <trkpt lat="45.6701" lon="4.35983">
        <ele>634.1</ele>
        <time>2023-02-19T11:53:58Z</time>
      </trkpt>
      <trkpt lat="45.67011" lon="4.35985">
        <ele>634</ele>
        <time>2023-02-19T11:53:59Z</time>
      </trkpt>
      <trkpt lat="45.67012" lon="4.35987">
        <ele>634</ele>
        <time>2023-02-19T11:54:00Z</time>
      </trkpt>
      <trkpt lat="45.67012" lon="4.35989">
        <ele>633.9</ele>
        <time>2023-02-19T11:54:01Z</time>
      </trkpt>
      <trkpt lat="45.67013" lon="4.35991">
        <ele>633.8</ele>
        <time>2023-02-19T11:54:02Z</time>
      </trkpt>
      <trkpt lat="45.67014" lon="4.35994">
        <ele>633.6</ele>
        <time>2023-02-19T11:54:03Z</time>
      </trkpt>
      <trkpt lat="45.67015" lon="4.35996">
        <ele>633.6</ele>
        <time>2023-02-19T11:54:05Z</time>
      </trkpt>
      <trkpt lat="45.67016" lon="4.35998">
        <ele>633.5</ele>
        <time>2023-02-19T11:54:06Z</time>
      </trkpt>
      <trkpt lat="45.67016" lon="4.35999">
        <ele>633.4</ele>
        <time>2023-02-19T11:54:07Z</time>
      </trkpt>
      <trkpt lat="45.67017" lon="4.36001">
        <ele>633.3</ele>
        <time>2023-02-19T11:54:09Z</time>
      </trkpt>
      <trkpt lat="45.67018" lon="4.36002">
        <ele>633.3</ele>
        <time>2023-02-19T11:54:10Z</time>
      </trkpt>
      <trkpt lat="45.67018" lon="4.36004">
        <ele>633.2</ele>
        <time>2023-02-19T11:54:11Z</time>
      </trkpt>
      <trkpt lat="45.67019" lon="4.36006">
        <ele>633.1</ele>
        <time>2023-02-19T11:54:12Z</time>
      </trkpt>
      <trkpt lat="45.6702" lon="4.36008">
        <ele>633</ele>
        <time>2023-02-19T11:54:13Z</time>
      </trkpt>
      <trkpt lat="45.6702" lon="4.3601">
        <ele>632.9</ele>
        <time>2023-02-19T11:54:14Z</time>
      </trkpt>
      <trkpt lat="45.6702" lon="4.36011">
        <ele>632.8</ele>
        <time>2023-02-19T11:54:15Z</time>
      </trkpt>
      <trkpt lat="45.67021" lon="4.36015">
        <ele>632.7</ele>
        <time>2023-02-19T11:54:16Z</time>
      </trkpt>
      <trkpt lat="45.67022" lon="4.36016">
        <ele>632.6</ele>
        <time>2023-02-19T11:54:17Z</time>
      </trkpt>
      <trkpt lat="45.67022" lon="4.36019">
        <ele>632.5</ele>
        <time>2023-02-19T11:54:18Z</time>
      </trkpt>
      <trkpt lat="45.67022" lon="4.3602">
        <ele>632.4</ele>
        <time>2023-02-19T11:54:19Z</time>
      </trkpt>
      <trkpt lat="45.67023" lon="4.36021">
        <ele>632.4</ele>
        <time>2023-02-19T11:54:20Z</time>
      </trkpt>
      <trkpt lat="45.67023" lon="4.36023">
        <ele>632.3</ele>
        <time>2023-02-19T11:54:21Z</time>
      </trkpt>
      <trkpt lat="45.67024" lon="4.36027">
        <ele>632.1</ele>
        <time>2023-02-19T11:54:23Z</time>
      </trkpt>
      <trkpt lat="45.67024" lon="4.36027">
        <ele>632.1</ele>
        <time>2023-02-19T11:54:24Z</time>
      </trkpt>
      <trkpt lat="45.67025" lon="4.36029">
        <ele>632</ele>
        <time>2023-02-19T11:54:25Z</time>
      </trkpt>
      <trkpt lat="45.67025" lon="4.36031">
        <ele>631.9</ele>
        <time>2023-02-19T11:54:26Z</time>
      </trkpt>
      <trkpt lat="45.67027" lon="4.36034">
        <ele>631.8</ele>
        <time>2023-02-19T11:54:27Z</time>
      </trkpt>
      <trkpt lat="45.67027" lon="4.36035">
        <ele>631.7</ele>
        <time>2023-02-19T11:54:28Z</time>
      </trkpt>
      <trkpt lat="45.67028" lon="4.36038">
        <ele>631.6</ele>
        <time>2023-02-19T11:54:30Z</time>
      </trkpt>
      <trkpt lat="45.67029" lon="4.36039">
        <ele>631.5</ele>
        <time>2023-02-19T11:54:31Z</time>
      </trkpt>
      <trkpt lat="45.6703" lon="4.36042">
        <ele>631.4</ele>
        <time>2023-02-19T11:54:32Z</time>
      </trkpt>
      <trkpt lat="45.67031" lon="4.36043">
        <ele>631.4</ele>
        <time>2023-02-19T11:54:33Z</time>
      </trkpt>
      <trkpt lat="45.67033" lon="4.36045">
        <ele>631.3</ele>
        <time>2023-02-19T11:54:34Z</time>
      </trkpt>
      <trkpt lat="45.67033" lon="4.36046">
        <ele>631.2</ele>
        <time>2023-02-19T11:54:35Z</time>
      </trkpt>
      <trkpt lat="45.67034" lon="4.36047">
        <ele>631.2</ele>
        <time>2023-02-19T11:54:36Z</time>
      </trkpt>
      <trkpt lat="45.67035" lon="4.36049">
        <ele>631.1</ele>
        <time>2023-02-19T11:54:38Z</time>
      </trkpt>
      <trkpt lat="45.67036" lon="4.3605">
        <ele>631.1</ele>
        <time>2023-02-19T11:54:39Z</time>
      </trkpt>
      <trkpt lat="45.67037" lon="4.36051">
        <ele>631</ele>
        <time>2023-02-19T11:54:40Z</time>
      </trkpt>
      <trkpt lat="45.67038" lon="4.36052">
        <ele>630.9</ele>
        <time>2023-02-19T11:54:41Z</time>
      </trkpt>
      <trkpt lat="45.67039" lon="4.36053">
        <ele>630.9</ele>
        <time>2023-02-19T11:54:42Z</time>
      </trkpt>
      <trkpt lat="45.6704" lon="4.36056">
        <ele>630.8</ele>
        <time>2023-02-19T11:54:43Z</time>
      </trkpt>
      <trkpt lat="45.6704" lon="4.36057">
        <ele>630.8</ele>
        <time>2023-02-19T11:54:45Z</time>
      </trkpt>
      <trkpt lat="45.6704" lon="4.36058">
        <ele>630.8</ele>
        <time>2023-02-19T11:54:46Z</time>
      </trkpt>
      <trkpt lat="45.67041" lon="4.36059">
        <ele>630.7</ele>
        <time>2023-02-19T11:54:47Z</time>
      </trkpt>
      <trkpt lat="45.67042" lon="4.36062">
        <ele>630.7</ele>
        <time>2023-02-19T11:54:48Z</time>
      </trkpt>
      <trkpt lat="45.67043" lon="4.36064">
        <ele>630.6</ele>
        <time>2023-02-19T11:54:49Z</time>
      </trkpt>
      <trkpt lat="45.67044" lon="4.36065">
        <ele>630.6</ele>
        <time>2023-02-19T11:54:50Z</time>
      </trkpt>
      <trkpt lat="45.67044" lon="4.36066">
        <ele>630.5</ele>
        <time>2023-02-19T11:54:51Z</time>
      </trkpt>
      <trkpt lat="45.67046" lon="4.36069">
        <ele>630.5</ele>
        <time>2023-02-19T11:54:52Z</time>
      </trkpt>
      <trkpt lat="45.67046" lon="4.3607">
        <ele>630.5</ele>
        <time>2023-02-19T11:54:53Z</time>
      </trkpt>
      <trkpt lat="45.67047" lon="4.36071">
        <ele>630.4</ele>
        <time>2023-02-19T11:54:54Z</time>
      </trkpt>
      <trkpt lat="45.67048" lon="4.36073">
        <ele>630.4</ele>
        <time>2023-02-19T11:54:55Z</time>
      </trkpt>
      <trkpt lat="45.67048" lon="4.36074">
        <ele>630.3</ele>
        <time>2023-02-19T11:54:57Z</time>
      </trkpt>
      <trkpt lat="45.6705" lon="4.36078">
        <ele>630.3</ele>
        <time>2023-02-19T11:54:58Z</time>
      </trkpt>
      <trkpt lat="45.67051" lon="4.36079">
        <ele>630.3</ele>
        <time>2023-02-19T11:54:59Z</time>
      </trkpt>
      <trkpt lat="45.67052" lon="4.36082">
        <ele>630.2</ele>
        <time>2023-02-19T11:55:01Z</time>
      </trkpt>
      <trkpt lat="45.67053" lon="4.36083">
        <ele>630.2</ele>
        <time>2023-02-19T11:55:02Z</time>
      </trkpt>
      <trkpt lat="45.67053" lon="4.36084">
        <ele>630.1</ele>
        <time>2023-02-19T11:55:03Z</time>
      </trkpt>
      <trkpt lat="45.67055" lon="4.36086">
        <ele>630.1</ele>
        <time>2023-02-19T11:55:04Z</time>
      </trkpt>
      <trkpt lat="45.67055" lon="4.36087">
        <ele>630.1</ele>
        <time>2023-02-19T11:55:05Z</time>
      </trkpt>
      <trkpt lat="45.67056" lon="4.36088">
        <ele>630.1</ele>
        <time>2023-02-19T11:55:06Z</time>
      </trkpt>
      <trkpt lat="45.67057" lon="4.36089">
        <ele>630</ele>
        <time>2023-02-19T11:55:07Z</time>
      </trkpt>
      <trkpt lat="45.67058" lon="4.3609">
        <ele>630</ele>
        <time>2023-02-19T11:55:08Z</time>
      </trkpt>
      <trkpt lat="45.6706" lon="4.36093">
        <ele>629.9</ele>
        <time>2023-02-19T11:55:09Z</time>
      </trkpt>
      <trkpt lat="45.67061" lon="4.36095">
        <ele>629.9</ele>
        <time>2023-02-19T11:55:11Z</time>
      </trkpt>
      <trkpt lat="45.67061" lon="4.36096">
        <ele>629.9</ele>
        <time>2023-02-19T11:55:12Z</time>
      </trkpt>
      <trkpt lat="45.67062" lon="4.36098">
        <ele>629.8</ele>
        <time>2023-02-19T11:55:13Z</time>
      </trkpt>
      <trkpt lat="45.67063" lon="4.36099">
        <ele>629.8</ele>
        <time>2023-02-19T11:55:14Z</time>
      </trkpt>
      <trkpt lat="45.67063" lon="4.36101">
        <ele>629.8</ele>
        <time>2023-02-19T11:55:15Z</time>
      </trkpt>
      <trkpt lat="45.67064" lon="4.36103">
        <ele>629.8</ele>
        <time>2023-02-19T11:55:16Z</time>
      </trkpt>
      <trkpt lat="45.67064" lon="4.36105">
        <ele>629.7</ele>
        <time>2023-02-19T11:55:17Z</time>
      </trkpt>
      <trkpt lat="45.67064" lon="4.3611">
        <ele>629.7</ele>
        <time>2023-02-19T11:55:18Z</time>
      </trkpt>
      <trkpt lat="45.67064" lon="4.36111">
        <ele>629.7</ele>
        <time>2023-02-19T11:55:19Z</time>
      </trkpt>
      <trkpt lat="45.67064" lon="4.36113">
        <ele>629.7</ele>
        <time>2023-02-19T11:55:20Z</time>
      </trkpt>
      <trkpt lat="45.67065" lon="4.36115">
        <ele>629.6</ele>
        <time>2023-02-19T11:55:21Z</time>
      </trkpt>
      <trkpt lat="45.67065" lon="4.36118">
        <ele>629.6</ele>
        <time>2023-02-19T11:55:23Z</time>
      </trkpt>
      <trkpt lat="45.67066" lon="4.36119">
        <ele>629.6</ele>
        <time>2023-02-19T11:55:24Z</time>
      </trkpt>
      <trkpt lat="45.67066" lon="4.36121">
        <ele>629.6</ele>
        <time>2023-02-19T11:55:25Z</time>
      </trkpt>
      <trkpt lat="45.67066" lon="4.36122">
        <ele>629.6</ele>
        <time>2023-02-19T11:55:26Z</time>
      </trkpt>
      <trkpt lat="45.67067" lon="4.36124">
        <ele>629.6</ele>
        <time>2023-02-19T11:55:27Z</time>
      </trkpt>
      <trkpt lat="45.67068" lon="4.36125">
        <ele>629.6</ele>
        <time>2023-02-19T11:55:28Z</time>
      </trkpt>
      <trkpt lat="45.67068" lon="4.36127">
        <ele>629.6</ele>
        <time>2023-02-19T11:55:29Z</time>
      </trkpt>
      <trkpt lat="45.67068" lon="4.36128">
        <ele>629.6</ele>
        <time>2023-02-19T11:55:30Z</time>
      </trkpt>
      <trkpt lat="45.67069" lon="4.3613">
        <ele>629.5</ele>
        <time>2023-02-19T11:55:31Z</time>
      </trkpt>
      <trkpt lat="45.67069" lon="4.36132">
        <ele>629.5</ele>
        <time>2023-02-19T11:55:32Z</time>
      </trkpt>
      <trkpt lat="45.6707" lon="4.36135">
        <ele>629.5</ele>
        <time>2023-02-19T11:55:34Z</time>
      </trkpt>
      <trkpt lat="45.6707" lon="4.36136">
        <ele>629.5</ele>
        <time>2023-02-19T11:55:35Z</time>
      </trkpt>
      <trkpt lat="45.6707" lon="4.36137">
        <ele>629.5</ele>
        <time>2023-02-19T11:55:36Z</time>
      </trkpt>
      <trkpt lat="45.6707" lon="4.36139">
        <ele>629.6</ele>
        <time>2023-02-19T11:55:37Z</time>
      </trkpt>
      <trkpt lat="45.6707" lon="4.36142">
        <ele>629.6</ele>
        <time>2023-02-19T11:55:38Z</time>
      </trkpt>
      <trkpt lat="45.6707" lon="4.36143">
        <ele>629.6</ele>
        <time>2023-02-19T11:55:39Z</time>
      </trkpt>
      <trkpt lat="45.6707" lon="4.36145">
        <ele>629.6</ele>
        <time>2023-02-19T11:55:40Z</time>
      </trkpt>
      <trkpt lat="45.67071" lon="4.36146">
        <ele>629.6</ele>
        <time>2023-02-19T11:55:41Z</time>
      </trkpt>
      <trkpt lat="45.67071" lon="4.36148">
        <ele>629.7</ele>
        <time>2023-02-19T11:55:42Z</time>
      </trkpt>
      <trkpt lat="45.67072" lon="4.36151">
        <ele>629.7</ele>
        <time>2023-02-19T11:55:43Z</time>
      </trkpt>
      <trkpt lat="45.67072" lon="4.36153">
        <ele>629.7</ele>
        <time>2023-02-19T11:55:45Z</time>
      </trkpt>
      <trkpt lat="45.67073" lon="4.36155">
        <ele>629.8</ele>
        <time>2023-02-19T11:55:46Z</time>
      </trkpt>
      <trkpt lat="45.67075" lon="4.36158">
        <ele>629.9</ele>
        <time>2023-02-19T11:55:47Z</time>
      </trkpt>
      <trkpt lat="45.67076" lon="4.3616">
        <ele>629.9</ele>
        <time>2023-02-19T11:55:48Z</time>
      </trkpt>
      <trkpt lat="45.67078" lon="4.36162">
        <ele>630</ele>
        <time>2023-02-19T11:55:49Z</time>
      </trkpt>
      <trkpt lat="45.67079" lon="4.36163">
        <ele>630.1</ele>
        <time>2023-02-19T11:55:50Z</time>
      </trkpt>
      <trkpt lat="45.6708" lon="4.36164">
        <ele>630.1</ele>
        <time>2023-02-19T11:55:51Z</time>
      </trkpt>
      <trkpt lat="45.67081" lon="4.36168">
        <ele>630.2</ele>
        <time>2023-02-19T11:55:52Z</time>
      </trkpt>
      <trkpt lat="45.67082" lon="4.36169">
        <ele>630.3</ele>
        <time>2023-02-19T11:55:53Z</time>
      </trkpt>
      <trkpt lat="45.67082" lon="4.36171">
        <ele>630.3</ele>
        <time>2023-02-19T11:55:54Z</time>
      </trkpt>
      <trkpt lat="45.67082" lon="4.36174">
        <ele>630.4</ele>
        <time>2023-02-19T11:55:56Z</time>
      </trkpt>
      <trkpt lat="45.67082" lon="4.36176">
        <ele>630.5</ele>
        <time>2023-02-19T11:55:57Z</time>
      </trkpt>
      <trkpt lat="45.67082" lon="4.36178">
        <ele>630.5</ele>
        <time>2023-02-19T11:55:58Z</time>
      </trkpt>
      <trkpt lat="45.67081" lon="4.36182">
        <ele>630.6</ele>
        <time>2023-02-19T11:55:59Z</time>
      </trkpt>
      <trkpt lat="45.6708" lon="4.36184">
        <ele>630.7</ele>
        <time>2023-02-19T11:56:00Z</time>
      </trkpt>
      <trkpt lat="45.67079" lon="4.36186">
        <ele>630.8</ele>
        <time>2023-02-19T11:56:01Z</time>
      </trkpt>
      <trkpt lat="45.67078" lon="4.36188">
        <ele>630.8</ele>
        <time>2023-02-19T11:56:02Z</time>
      </trkpt>
      <trkpt lat="45.67077" lon="4.36192">
        <ele>630.9</ele>
        <time>2023-02-19T11:56:04Z</time>
      </trkpt>
      <trkpt lat="45.67076" lon="4.36194">
        <ele>630.9</ele>
        <time>2023-02-19T11:56:05Z</time>
      </trkpt>
      <trkpt lat="45.67076" lon="4.36196">
        <ele>630.9</ele>
        <time>2023-02-19T11:56:06Z</time>
      </trkpt>
      <trkpt lat="45.67076" lon="4.36197">
        <ele>630.9</ele>
        <time>2023-02-19T11:56:07Z</time>
      </trkpt>
      <trkpt lat="45.67076" lon="4.36198">
        <ele>631</ele>
        <time>2023-02-19T11:56:08Z</time>
      </trkpt>
      <trkpt lat="45.67075" lon="4.36202">
        <ele>631</ele>
        <time>2023-02-19T11:56:09Z</time>
      </trkpt>
      <trkpt lat="45.67075" lon="4.36203">
        <ele>631</ele>
        <time>2023-02-19T11:56:10Z</time>
      </trkpt>
      <trkpt lat="45.67075" lon="4.36204">
        <ele>631</ele>
        <time>2023-02-19T11:56:11Z</time>
      </trkpt>
      <trkpt lat="45.67074" lon="4.36206">
        <ele>631</ele>
        <time>2023-02-19T11:56:12Z</time>
      </trkpt>
      <trkpt lat="45.67074" lon="4.3621">
        <ele>630.9</ele>
        <time>2023-02-19T11:56:13Z</time>
      </trkpt>
      <trkpt lat="45.67074" lon="4.36212">
        <ele>630.9</ele>
        <time>2023-02-19T11:56:15Z</time>
      </trkpt>
      <trkpt lat="45.67074" lon="4.36213">
        <ele>630.8</ele>
        <time>2023-02-19T11:56:16Z</time>
      </trkpt>
      <trkpt lat="45.67074" lon="4.36214">
        <ele>630.8</ele>
        <time>2023-02-19T11:56:17Z</time>
      </trkpt>
      <trkpt lat="45.67073" lon="4.36216">
        <ele>630.8</ele>
        <time>2023-02-19T11:56:18Z</time>
      </trkpt>
      <trkpt lat="45.67073" lon="4.36219">
        <ele>630.7</ele>
        <time>2023-02-19T11:56:19Z</time>
      </trkpt>
      <trkpt lat="45.67073" lon="4.3622">
        <ele>630.6</ele>
        <time>2023-02-19T11:56:20Z</time>
      </trkpt>
      <trkpt lat="45.67073" lon="4.36222">
        <ele>630.6</ele>
        <time>2023-02-19T11:56:21Z</time>
      </trkpt>
      <trkpt lat="45.67073" lon="4.36225">
        <ele>630.4</ele>
        <time>2023-02-19T11:56:23Z</time>
      </trkpt>
      <trkpt lat="45.67074" lon="4.36227">
        <ele>630.3</ele>
        <time>2023-02-19T11:56:24Z</time>
      </trkpt>
      <trkpt lat="45.67075" lon="4.36228">
        <ele>630.2</ele>
        <time>2023-02-19T11:56:25Z</time>
      </trkpt>
      <trkpt lat="45.67075" lon="4.36228">
        <ele>630.2</ele>
        <time>2023-02-19T11:56:26Z</time>
      </trkpt>
      <trkpt lat="45.67076" lon="4.36229">
        <ele>630.1</ele>
        <time>2023-02-19T11:56:27Z</time>
      </trkpt>
      <trkpt lat="45.67077" lon="4.36229">
        <ele>630</ele>
        <time>2023-02-19T11:56:29Z</time>
      </trkpt>
      <trkpt lat="45.67078" lon="4.36229">
        <ele>629.9</ele>
        <time>2023-02-19T11:56:30Z</time>
      </trkpt>
      <trkpt lat="45.67078" lon="4.36229">
        <ele>629.9</ele>
        <time>2023-02-19T11:56:31Z</time>
      </trkpt>
      <trkpt lat="45.6708" lon="4.36231">
        <ele>628.5</ele>
        <time>2023-02-19T11:56:32Z</time>
      </trkpt>
      <trkpt lat="45.67081" lon="4.36232">
        <ele>628.4</ele>
        <time>2023-02-19T11:56:33Z</time>
      </trkpt>
      <trkpt lat="45.67082" lon="4.36233">
        <ele>628.4</ele>
        <time>2023-02-19T11:56:34Z</time>
      </trkpt>
      <trkpt lat="45.67084" lon="4.36234">
        <ele>628.3</ele>
        <time>2023-02-19T11:56:35Z</time>
      </trkpt>
      <trkpt lat="45.67085" lon="4.36236">
        <ele>628.2</ele>
        <time>2023-02-19T11:56:36Z</time>
      </trkpt>
      <trkpt lat="45.67087" lon="4.36238">
        <ele>628.1</ele>
        <time>2023-02-19T11:56:37Z</time>
      </trkpt>
      <trkpt lat="45.67088" lon="4.36239">
        <ele>628</ele>
        <time>2023-02-19T11:56:38Z</time>
      </trkpt>
      <trkpt lat="45.6709" lon="4.3624">
        <ele>627.9</ele>
        <time>2023-02-19T11:56:39Z</time>
      </trkpt>
      <trkpt lat="45.67091" lon="4.36241">
        <ele>627.8</ele>
        <time>2023-02-19T11:56:41Z</time>
      </trkpt>
      <trkpt lat="45.67092" lon="4.36242">
        <ele>627.7</ele>
        <time>2023-02-19T11:56:42Z</time>
      </trkpt>
      <trkpt lat="45.67092" lon="4.36243">
        <ele>627.7</ele>
        <time>2023-02-19T11:56:43Z</time>
      </trkpt>
      <trkpt lat="45.67094" lon="4.36244">
        <ele>627.6</ele>
        <time>2023-02-19T11:56:44Z</time>
      </trkpt>
      <trkpt lat="45.67094" lon="4.36245">
        <ele>627.5</ele>
        <time>2023-02-19T11:56:45Z</time>
      </trkpt>
      <trkpt lat="45.67095" lon="4.36245">
        <ele>627.5</ele>
        <time>2023-02-19T11:56:46Z</time>
      </trkpt>
      <trkpt lat="45.67096" lon="4.36246">
        <ele>627.4</ele>
        <time>2023-02-19T11:56:47Z</time>
      </trkpt>
      <trkpt lat="45.67097" lon="4.36246">
        <ele>627.3</ele>
        <time>2023-02-19T11:56:48Z</time>
      </trkpt>
      <trkpt lat="45.67098" lon="4.36247">
        <ele>627.2</ele>
        <time>2023-02-19T11:56:50Z</time>
      </trkpt>
      <trkpt lat="45.67099" lon="4.36247">
        <ele>627.1</ele>
        <time>2023-02-19T11:56:51Z</time>
      </trkpt>
      <trkpt lat="45.671" lon="4.36247">
        <ele>627.1</ele>
        <time>2023-02-19T11:56:52Z</time>
      </trkpt>
      <trkpt lat="45.67101" lon="4.36247">
        <ele>627</ele>
        <time>2023-02-19T11:56:53Z</time>
      </trkpt>
      <trkpt lat="45.67103" lon="4.36247">
        <ele>626.9</ele>
        <time>2023-02-19T11:56:54Z</time>
      </trkpt>
      <trkpt lat="45.67103" lon="4.36246">
        <ele>626.8</ele>
        <time>2023-02-19T11:56:55Z</time>
      </trkpt>
      <trkpt lat="45.67104" lon="4.36246">
        <ele>626.8</ele>
        <time>2023-02-19T11:56:56Z</time>
      </trkpt>
      <trkpt lat="45.67105" lon="4.36245">
        <ele>626.7</ele>
        <time>2023-02-19T11:56:57Z</time>
      </trkpt>
      <trkpt lat="45.67106" lon="4.36245">
        <ele>626.6</ele>
        <time>2023-02-19T11:56:58Z</time>
      </trkpt>
      <trkpt lat="45.67108" lon="4.36244">
        <ele>626.5</ele>
        <time>2023-02-19T11:56:59Z</time>
      </trkpt>
      <trkpt lat="45.67109" lon="4.36243">
        <ele>626.4</ele>
        <time>2023-02-19T11:57:00Z</time>
      </trkpt>
      <trkpt lat="45.6711" lon="4.36242">
        <ele>626.3</ele>
        <time>2023-02-19T11:57:02Z</time>
      </trkpt>
      <trkpt lat="45.67112" lon="4.36241">
        <ele>626.2</ele>
        <time>2023-02-19T11:57:03Z</time>
      </trkpt>
      <trkpt lat="45.67113" lon="4.3624">
        <ele>626.1</ele>
        <time>2023-02-19T11:57:04Z</time>
      </trkpt>
      <trkpt lat="45.67114" lon="4.36239">
        <ele>626</ele>
        <time>2023-02-19T11:57:05Z</time>
      </trkpt>
      <trkpt lat="45.67115" lon="4.36239">
        <ele>625.9</ele>
        <time>2023-02-19T11:57:06Z</time>
      </trkpt>
      <trkpt lat="45.67117" lon="4.36238">
        <ele>625.7</ele>
        <time>2023-02-19T11:57:08Z</time>
      </trkpt>
      <trkpt lat="45.67118" lon="4.36238">
        <ele>625.6</ele>
        <time>2023-02-19T11:57:09Z</time>
      </trkpt>
      <trkpt lat="45.67119" lon="4.36238">
        <ele>625.5</ele>
        <time>2023-02-19T11:57:10Z</time>
      </trkpt>
      <trkpt lat="45.67121" lon="4.36238">
        <ele>625.3</ele>
        <time>2023-02-19T11:57:11Z</time>
      </trkpt>
      <trkpt lat="45.67122" lon="4.36238">
        <ele>625.1</ele>
        <time>2023-02-19T11:57:12Z</time>
      </trkpt>
      <trkpt lat="45.67123" lon="4.36238">
        <ele>625</ele>
        <time>2023-02-19T11:57:13Z</time>
      </trkpt>
      <trkpt lat="45.67126" lon="4.36238">
        <ele>624.6</ele>
        <time>2023-02-19T11:57:15Z</time>
      </trkpt>
      <trkpt lat="45.67126" lon="4.36238">
        <ele>624.6</ele>
        <time>2023-02-19T11:57:16Z</time>
      </trkpt>
      <trkpt lat="45.67128" lon="4.36238">
        <ele>624.4</ele>
        <time>2023-02-19T11:57:17Z</time>
      </trkpt>
      <trkpt lat="45.67129" lon="4.36238">
        <ele>624.3</ele>
        <time>2023-02-19T11:57:19Z</time>
      </trkpt>
      <trkpt lat="45.6713" lon="4.36238">
        <ele>624.2</ele>
        <time>2023-02-19T11:57:20Z</time>
      </trkpt>
      <trkpt lat="45.6713" lon="4.36238">
        <ele>624.2</ele>
        <time>2023-02-19T11:57:21Z</time>
      </trkpt>
      <trkpt lat="45.6713" lon="4.36238">
        <ele>624.1</ele>
        <time>2023-02-19T11:57:22Z</time>
      </trkpt>
      <trkpt lat="45.6713" lon="4.36238">
        <ele>624.1</ele>
        <time>2023-02-19T11:57:23Z</time>
      </trkpt>
      <trkpt lat="45.6713" lon="4.36238">
        <ele>624.1</ele>
        <time>2023-02-19T11:57:24Z</time>
      </trkpt>
      <trkpt lat="45.67132" lon="4.36237">
        <ele>623.9</ele>
        <time>2023-02-19T11:57:25Z</time>
      </trkpt>
      <trkpt lat="45.67132" lon="4.36237">
        <ele>623.9</ele>
        <time>2023-02-19T11:57:26Z</time>
      </trkpt>
      <trkpt lat="45.67134" lon="4.36237">
        <ele>623.6</ele>
        <time>2023-02-19T11:57:27Z</time>
      </trkpt>
      <trkpt lat="45.67135" lon="4.36237">
        <ele>623.6</ele>
        <time>2023-02-19T11:57:28Z</time>
      </trkpt>
      <trkpt lat="45.67136" lon="4.36237">
        <ele>623.5</ele>
        <time>2023-02-19T11:57:29Z</time>
      </trkpt>
      <trkpt lat="45.67138" lon="4.36236">
        <ele>623.2</ele>
        <time>2023-02-19T11:57:30Z</time>
      </trkpt>
      <trkpt lat="45.6714" lon="4.36236">
        <ele>623.2</ele>
        <time>2023-02-19T11:57:31Z</time>
      </trkpt>
      <trkpt lat="45.67141" lon="4.36236">
        <ele>623.1</ele>
        <time>2023-02-19T11:57:33Z</time>
      </trkpt>
      <trkpt lat="45.67142" lon="4.36236">
        <ele>623</ele>
        <time>2023-02-19T11:57:34Z</time>
      </trkpt>
      <trkpt lat="45.67143" lon="4.36236">
        <ele>622.9</ele>
        <time>2023-02-19T11:57:35Z</time>
      </trkpt>
      <trkpt lat="45.67144" lon="4.36236">
        <ele>622.8</ele>
        <time>2023-02-19T11:57:36Z</time>
      </trkpt>
      <trkpt lat="45.67145" lon="4.36236">
        <ele>622.7</ele>
        <time>2023-02-19T11:57:37Z</time>
      </trkpt>
      <trkpt lat="45.67148" lon="4.36236">
        <ele>622.6</ele>
        <time>2023-02-19T11:57:39Z</time>
      </trkpt>
      <trkpt lat="45.67151" lon="4.36236">
        <ele>622.4</ele>
        <time>2023-02-19T11:57:40Z</time>
      </trkpt>
      <trkpt lat="45.67151" lon="4.36236">
        <ele>622.4</ele>
        <time>2023-02-19T11:57:41Z</time>
      </trkpt>
      <trkpt lat="45.67153" lon="4.36236">
        <ele>622.3</ele>
        <time>2023-02-19T11:57:42Z</time>
      </trkpt>
      <trkpt lat="45.67154" lon="4.36236">
        <ele>622.3</ele>
        <time>2023-02-19T11:57:43Z</time>
      </trkpt>
      <trkpt lat="45.67157" lon="4.36235">
        <ele>622.1</ele>
        <time>2023-02-19T11:57:44Z</time>
      </trkpt>
      <trkpt lat="45.67158" lon="4.36235">
        <ele>622.1</ele>
        <time>2023-02-19T11:57:46Z</time>
      </trkpt>
      <trkpt lat="45.67159" lon="4.36234">
        <ele>622</ele>
        <time>2023-02-19T11:57:47Z</time>
      </trkpt>
      <trkpt lat="45.67161" lon="4.36234">
        <ele>622</ele>
        <time>2023-02-19T11:57:48Z</time>
      </trkpt>
      <trkpt lat="45.67164" lon="4.36233">
        <ele>621.8</ele>
        <time>2023-02-19T11:57:49Z</time>
      </trkpt>
      <trkpt lat="45.67165" lon="4.36232">
        <ele>621.8</ele>
        <time>2023-02-19T11:57:50Z</time>
      </trkpt>
      <trkpt lat="45.67168" lon="4.36231">
        <ele>621.6</ele>
        <time>2023-02-19T11:57:51Z</time>
      </trkpt>
      <trkpt lat="45.67169" lon="4.36231">
        <ele>621.6</ele>
        <time>2023-02-19T11:57:52Z</time>
      </trkpt>
      <trkpt lat="45.67171" lon="4.3623">
        <ele>621.5</ele>
        <time>2023-02-19T11:57:53Z</time>
      </trkpt>
      <trkpt lat="45.67175" lon="4.36228">
        <ele>621.3</ele>
        <time>2023-02-19T11:57:55Z</time>
      </trkpt>
      <trkpt lat="45.67177" lon="4.36227">
        <ele>621.2</ele>
        <time>2023-02-19T11:57:56Z</time>
      </trkpt>
      <trkpt lat="45.6718" lon="4.36226">
        <ele>621.1</ele>
        <time>2023-02-19T11:57:58Z</time>
      </trkpt>
      <trkpt lat="45.67183" lon="4.36224">
        <ele>620.9</ele>
        <time>2023-02-19T11:57:59Z</time>
      </trkpt>
      <trkpt lat="45.67185" lon="4.36223">
        <ele>620.9</ele>
        <time>2023-02-19T11:58:00Z</time>
      </trkpt>
      <trkpt lat="45.67186" lon="4.36222">
        <ele>620.8</ele>
        <time>2023-02-19T11:58:01Z</time>
      </trkpt>
      <trkpt lat="45.67188" lon="4.36221">
        <ele>620.7</ele>
        <time>2023-02-19T11:58:02Z</time>
      </trkpt>
      <trkpt lat="45.67191" lon="4.36218">
        <ele>620.6</ele>
        <time>2023-02-19T11:58:03Z</time>
      </trkpt>
      <trkpt lat="45.67192" lon="4.36217">
        <ele>620.5</ele>
        <time>2023-02-19T11:58:04Z</time>
      </trkpt>
      <trkpt lat="45.67194" lon="4.36215">
        <ele>620.4</ele>
        <time>2023-02-19T11:58:05Z</time>
      </trkpt>
      <trkpt lat="45.67196" lon="4.36214">
        <ele>620.4</ele>
        <time>2023-02-19T11:58:06Z</time>
      </trkpt>
      <trkpt lat="45.67197" lon="4.36213">
        <ele>620.3</ele>
        <time>2023-02-19T11:58:07Z</time>
      </trkpt>
      <trkpt lat="45.672" lon="4.36211">
        <ele>620.2</ele>
        <time>2023-02-19T11:58:09Z</time>
      </trkpt>
      <trkpt lat="45.67201" lon="4.3621">
        <ele>620.2</ele>
        <time>2023-02-19T11:58:10Z</time>
      </trkpt>
      <trkpt lat="45.67203" lon="4.36209">
        <ele>620.1</ele>
        <time>2023-02-19T11:58:11Z</time>
      </trkpt>
      <trkpt lat="45.67204" lon="4.36208">
        <ele>620.1</ele>
        <time>2023-02-19T11:58:12Z</time>
      </trkpt>
      <trkpt lat="45.67205" lon="4.36208">
        <ele>620</ele>
        <time>2023-02-19T11:58:13Z</time>
      </trkpt>
      <trkpt lat="45.67207" lon="4.36206">
        <ele>619.9</ele>
        <time>2023-02-19T11:58:14Z</time>
      </trkpt>
      <trkpt lat="45.67208" lon="4.36206">
        <ele>619.9</ele>
        <time>2023-02-19T11:58:15Z</time>
      </trkpt>
      <trkpt lat="45.67209" lon="4.36206">
        <ele>619.9</ele>
        <time>2023-02-19T11:58:16Z</time>
      </trkpt>
      <trkpt lat="45.67211" lon="4.36205">
        <ele>619.8</ele>
        <time>2023-02-19T11:58:17Z</time>
      </trkpt>
      <trkpt lat="45.67212" lon="4.36205">
        <ele>619.7</ele>
        <time>2023-02-19T11:58:18Z</time>
      </trkpt>
      <trkpt lat="45.67213" lon="4.36204">
        <ele>619.7</ele>
        <time>2023-02-19T11:58:19Z</time>
      </trkpt>
      <trkpt lat="45.67216" lon="4.36202">
        <ele>619.5</ele>
        <time>2023-02-19T11:58:21Z</time>
      </trkpt>
      <trkpt lat="45.67218" lon="4.36199">
        <ele>619.4</ele>
        <time>2023-02-19T11:58:22Z</time>
      </trkpt>
      <trkpt lat="45.67218" lon="4.36198">
        <ele>619.3</ele>
        <time>2023-02-19T11:58:23Z</time>
      </trkpt>
      <trkpt lat="45.67221" lon="4.36194">
        <ele>619</ele>
        <time>2023-02-19T11:58:24Z</time>
      </trkpt>
      <trkpt lat="45.67221" lon="4.36193">
        <ele>618.9</ele>
        <time>2023-02-19T11:58:25Z</time>
      </trkpt>
      <trkpt lat="45.67222" lon="4.36191">
        <ele>618.8</ele>
        <time>2023-02-19T11:58:26Z</time>
      </trkpt>
      <trkpt lat="45.67224" lon="4.36188">
        <ele>618.5</ele>
        <time>2023-02-19T11:58:28Z</time>
      </trkpt>
      <trkpt lat="45.67224" lon="4.36186">
        <ele>618.4</ele>
        <time>2023-02-19T11:58:29Z</time>
      </trkpt>
      <trkpt lat="45.67226" lon="4.36184">
        <ele>618.1</ele>
        <time>2023-02-19T11:58:31Z</time>
      </trkpt>
      <trkpt lat="45.67228" lon="4.36181">
        <ele>617.8</ele>
        <time>2023-02-19T11:58:32Z</time>
      </trkpt>
      <trkpt lat="45.67228" lon="4.36181">
        <ele>617.7</ele>
        <time>2023-02-19T11:58:33Z</time>
      </trkpt>
      <trkpt lat="45.67229" lon="4.3618">
        <ele>617.6</ele>
        <time>2023-02-19T11:58:34Z</time>
      </trkpt>
      <trkpt lat="45.67231" lon="4.36178">
        <ele>617.2</ele>
        <time>2023-02-19T11:58:35Z</time>
      </trkpt>
      <trkpt lat="45.67232" lon="4.36177">
        <ele>617.1</ele>
        <time>2023-02-19T11:58:36Z</time>
      </trkpt>
      <trkpt lat="45.67233" lon="4.36177">
        <ele>617</ele>
        <time>2023-02-19T11:58:37Z</time>
      </trkpt>
      <trkpt lat="45.67234" lon="4.36176">
        <ele>616.8</ele>
        <time>2023-02-19T11:58:38Z</time>
      </trkpt>
      <trkpt lat="45.67236" lon="4.36175">
        <ele>616.6</ele>
        <time>2023-02-19T11:58:40Z</time>
      </trkpt>
      <trkpt lat="45.67238" lon="4.36173">
        <ele>616.1</ele>
        <time>2023-02-19T11:58:41Z</time>
      </trkpt>
      <trkpt lat="45.67241" lon="4.36172">
        <ele>615.7</ele>
        <time>2023-02-19T11:58:42Z</time>
      </trkpt>
      <trkpt lat="45.67242" lon="4.36172">
        <ele>615.6</ele>
        <time>2023-02-19T11:58:43Z</time>
      </trkpt>
      <trkpt lat="45.67245" lon="4.36171">
        <ele>615.1</ele>
        <time>2023-02-19T11:58:44Z</time>
      </trkpt>
      <trkpt lat="45.67246" lon="4.3617">
        <ele>615</ele>
        <time>2023-02-19T11:58:45Z</time>
      </trkpt>
      <trkpt lat="45.67247" lon="4.3617">
        <ele>614.8</ele>
        <time>2023-02-19T11:58:47Z</time>
      </trkpt>
      <trkpt lat="45.67248" lon="4.3617">
        <ele>614.7</ele>
        <time>2023-02-19T11:58:48Z</time>
      </trkpt>
      <trkpt lat="45.67249" lon="4.36169">
        <ele>614.6</ele>
        <time>2023-02-19T11:58:49Z</time>
      </trkpt>
      <trkpt lat="45.6725" lon="4.36169">
        <ele>614.5</ele>
        <time>2023-02-19T11:58:50Z</time>
      </trkpt>
      <trkpt lat="45.6725" lon="4.36168">
        <ele>614.3</ele>
        <time>2023-02-19T11:58:51Z</time>
      </trkpt>
      <trkpt lat="45.67251" lon="4.36168">
        <ele>614.2</ele>
        <time>2023-02-19T11:58:52Z</time>
      </trkpt>
      <trkpt lat="45.67252" lon="4.36168">
        <ele>614.1</ele>
        <time>2023-02-19T11:58:53Z</time>
      </trkpt>
      <trkpt lat="45.67253" lon="4.36168">
        <ele>613.9</ele>
        <time>2023-02-19T11:58:54Z</time>
      </trkpt>
      <trkpt lat="45.67255" lon="4.36168">
        <ele>613.7</ele>
        <time>2023-02-19T11:58:56Z</time>
      </trkpt>
      <trkpt lat="45.67256" lon="4.36168">
        <ele>613.6</ele>
        <time>2023-02-19T11:58:57Z</time>
      </trkpt>
      <trkpt lat="45.67257" lon="4.36167">
        <ele>613.3</ele>
        <time>2023-02-19T11:58:59Z</time>
      </trkpt>
      <trkpt lat="45.67258" lon="4.36166">
        <ele>613.2</ele>
        <time>2023-02-19T11:59:00Z</time>
      </trkpt>
      <trkpt lat="45.67259" lon="4.36166">
        <ele>613</ele>
        <time>2023-02-19T11:59:01Z</time>
      </trkpt>
      <trkpt lat="45.6726" lon="4.36165">
        <ele>612.9</ele>
        <time>2023-02-19T11:59:02Z</time>
      </trkpt>
      <trkpt lat="45.67261" lon="4.36164">
        <ele>612.7</ele>
        <time>2023-02-19T11:59:03Z</time>
      </trkpt>
      <trkpt lat="45.67262" lon="4.36164">
        <ele>612.6</ele>
        <time>2023-02-19T11:59:04Z</time>
      </trkpt>
      <trkpt lat="45.67262" lon="4.36164">
        <ele>612.5</ele>
        <time>2023-02-19T11:59:05Z</time>
      </trkpt>
      <trkpt lat="45.67263" lon="4.36163">
        <ele>612.4</ele>
        <time>2023-02-19T11:59:06Z</time>
      </trkpt>
      <trkpt lat="45.67264" lon="4.36163">
        <ele>612.3</ele>
        <time>2023-02-19T11:59:08Z</time>
      </trkpt>
      <trkpt lat="45.67266" lon="4.36162">
        <ele>611.9</ele>
        <time>2023-02-19T11:59:09Z</time>
      </trkpt>
      <trkpt lat="45.67267" lon="4.36161">
        <ele>611.7</ele>
        <time>2023-02-19T11:59:10Z</time>
      </trkpt>
      <trkpt lat="45.67268" lon="4.36161">
        <ele>611.6</ele>
        <time>2023-02-19T11:59:11Z</time>
      </trkpt>
      <trkpt lat="45.6727" lon="4.36161">
        <ele>611.3</ele>
        <time>2023-02-19T11:59:12Z</time>
      </trkpt>
      <trkpt lat="45.67272" lon="4.3616">
        <ele>611</ele>
        <time>2023-02-19T11:59:13Z</time>
      </trkpt>
      <trkpt lat="45.67273" lon="4.3616">
        <ele>610.9</ele>
        <time>2023-02-19T11:59:14Z</time>
      </trkpt>
      <trkpt lat="45.67275" lon="4.36159">
        <ele>610.6</ele>
        <time>2023-02-19T11:59:16Z</time>
      </trkpt>
      <trkpt lat="45.67276" lon="4.36159">
        <ele>610.4</ele>
        <time>2023-02-19T11:59:17Z</time>
      </trkpt>
      <trkpt lat="45.67278" lon="4.36159">
        <ele>610.1</ele>
        <time>2023-02-19T11:59:18Z</time>
      </trkpt>
      <trkpt lat="45.67279" lon="4.36159">
        <ele>609.9</ele>
        <time>2023-02-19T11:59:19Z</time>
      </trkpt>
      <trkpt lat="45.67281" lon="4.36159">
        <ele>609.7</ele>
        <time>2023-02-19T11:59:21Z</time>
      </trkpt>
      <trkpt lat="45.67283" lon="4.36159">
        <ele>609.5</ele>
        <time>2023-02-19T11:59:22Z</time>
      </trkpt>
      <trkpt lat="45.67286" lon="4.36159">
        <ele>609</ele>
        <time>2023-02-19T11:59:23Z</time>
      </trkpt>
      <trkpt lat="45.67286" lon="4.36159">
        <ele>609</ele>
        <time>2023-02-19T11:59:24Z</time>
      </trkpt>
      <trkpt lat="45.67288" lon="4.3616">
        <ele>608.7</ele>
        <time>2023-02-19T11:59:25Z</time>
      </trkpt>
      <trkpt lat="45.67289" lon="4.36161">
        <ele>608.5</ele>
        <time>2023-02-19T11:59:26Z</time>
      </trkpt>
      <trkpt lat="45.67291" lon="4.36161">
        <ele>608.3</ele>
        <time>2023-02-19T11:59:27Z</time>
      </trkpt>
      <trkpt lat="45.67293" lon="4.36161">
        <ele>608</ele>
        <time>2023-02-19T11:59:28Z</time>
      </trkpt>
      <trkpt lat="45.67294" lon="4.36161">
        <ele>607.8</ele>
        <time>2023-02-19T11:59:29Z</time>
      </trkpt>
      <trkpt lat="45.67296" lon="4.36161">
        <ele>607.5</ele>
        <time>2023-02-19T11:59:31Z</time>
      </trkpt>
      <trkpt lat="45.67298" lon="4.36161">
        <ele>607.2</ele>
        <time>2023-02-19T11:59:32Z</time>
      </trkpt>
      <trkpt lat="45.67299" lon="4.36161">
        <ele>607</ele>
        <time>2023-02-19T11:59:33Z</time>
      </trkpt>
      <trkpt lat="45.67301" lon="4.36161">
        <ele>606.7</ele>
        <time>2023-02-19T11:59:34Z</time>
      </trkpt>
      <trkpt lat="45.67303" lon="4.36162">
        <ele>606.4</ele>
        <time>2023-02-19T11:59:35Z</time>
      </trkpt>
      <trkpt lat="45.67304" lon="4.36162">
        <ele>606.1</ele>
        <time>2023-02-19T11:59:36Z</time>
      </trkpt>
      <trkpt lat="45.67306" lon="4.36162">
        <ele>605.9</ele>
        <time>2023-02-19T11:59:37Z</time>
      </trkpt>
      <trkpt lat="45.67308" lon="4.36162">
        <ele>605.5</ele>
        <time>2023-02-19T11:59:38Z</time>
      </trkpt>
      <trkpt lat="45.6731" lon="4.36162">
        <ele>605.2</ele>
        <time>2023-02-19T11:59:40Z</time>
      </trkpt>
      <trkpt lat="45.67311" lon="4.36162">
        <ele>605</ele>
        <time>2023-02-19T11:59:41Z</time>
      </trkpt>
      <trkpt lat="45.67313" lon="4.36162">
        <ele>604.7</ele>
        <time>2023-02-19T11:59:42Z</time>
      </trkpt>
      <trkpt lat="45.67314" lon="4.36162">
        <ele>604.5</ele>
        <time>2023-02-19T11:59:43Z</time>
      </trkpt>
      <trkpt lat="45.67315" lon="4.36162">
        <ele>604.3</ele>
        <time>2023-02-19T11:59:44Z</time>
      </trkpt>
      <trkpt lat="45.67316" lon="4.36162">
        <ele>604.2</ele>
        <time>2023-02-19T11:59:45Z</time>
      </trkpt>
      <trkpt lat="45.67317" lon="4.36161">
        <ele>604</ele>
        <time>2023-02-19T11:59:46Z</time>
      </trkpt>
      <trkpt lat="45.67319" lon="4.36161">
        <ele>603.7</ele>
        <time>2023-02-19T11:59:47Z</time>
      </trkpt>
      <trkpt lat="45.67321" lon="4.3616">
        <ele>603.4</ele>
        <time>2023-02-19T11:59:48Z</time>
      </trkpt>
      <trkpt lat="45.67321" lon="4.3616">
        <ele>603.3</ele>
        <time>2023-02-19T11:59:50Z</time>
      </trkpt>
      <trkpt lat="45.67322" lon="4.36159">
        <ele>603.2</ele>
        <time>2023-02-19T11:59:51Z</time>
      </trkpt>
      <trkpt lat="45.67323" lon="4.36159">
        <ele>603.1</ele>
        <time>2023-02-19T11:59:52Z</time>
      </trkpt>
      <trkpt lat="45.67325" lon="4.36159">
        <ele>602.8</ele>
        <time>2023-02-19T11:59:53Z</time>
      </trkpt>
      <trkpt lat="45.67325" lon="4.36159">
        <ele>602.8</ele>
        <time>2023-02-19T11:59:54Z</time>
      </trkpt>
      <trkpt lat="45.67325" lon="4.36158">
        <ele>602.7</ele>
        <time>2023-02-19T11:59:55Z</time>
      </trkpt>
      <trkpt lat="45.67326" lon="4.36158">
        <ele>602.6</ele>
        <time>2023-02-19T11:59:56Z</time>
      </trkpt>
      <trkpt lat="45.67326" lon="4.36158">
        <ele>602.5</ele>
        <time>2023-02-19T11:59:57Z</time>
      </trkpt>
      <trkpt lat="45.67327" lon="4.36158">
        <ele>602.4</ele>
        <time>2023-02-19T11:59:59Z</time>
      </trkpt>
      <trkpt lat="45.67328" lon="4.36158">
        <ele>602.3</ele>
        <time>2023-02-19T12:00:00Z</time>
      </trkpt>
      <trkpt lat="45.67329" lon="4.36157">
        <ele>602.2</ele>
        <time>2023-02-19T12:00:01Z</time>
      </trkpt>
      <trkpt lat="45.6733" lon="4.36157">
        <ele>602</ele>
        <time>2023-02-19T12:00:02Z</time>
      </trkpt>
      <trkpt lat="45.67331" lon="4.36157">
        <ele>601.8</ele>
        <time>2023-02-19T12:00:03Z</time>
      </trkpt>
      <trkpt lat="45.67332" lon="4.36157">
        <ele>601.7</ele>
        <time>2023-02-19T12:00:04Z</time>
      </trkpt>
      <trkpt lat="45.67333" lon="4.36156">
        <ele>601.5</ele>
        <time>2023-02-19T12:00:05Z</time>
      </trkpt>
      <trkpt lat="45.67334" lon="4.36156">
        <ele>601.3</ele>
        <time>2023-02-19T12:00:07Z</time>
      </trkpt>
      <trkpt lat="45.67335" lon="4.36156">
        <ele>601.2</ele>
        <time>2023-02-19T12:00:08Z</time>
      </trkpt>
      <trkpt lat="45.67335" lon="4.36155">
        <ele>601.1</ele>
        <time>2023-02-19T12:00:09Z</time>
      </trkpt>
      <trkpt lat="45.67337" lon="4.36155">
        <ele>600.8</ele>
        <time>2023-02-19T12:00:10Z</time>
      </trkpt>
      <trkpt lat="45.67338" lon="4.36154">
        <ele>600.6</ele>
        <time>2023-02-19T12:00:11Z</time>
      </trkpt>
      <trkpt lat="45.67339" lon="4.36154">
        <ele>600.4</ele>
        <time>2023-02-19T12:00:12Z</time>
      </trkpt>
      <trkpt lat="45.67342" lon="4.36154">
        <ele>599.9</ele>
        <time>2023-02-19T12:00:13Z</time>
      </trkpt>
      <trkpt lat="45.67343" lon="4.36154">
        <ele>599.7</ele>
        <time>2023-02-19T12:00:14Z</time>
      </trkpt>
      <trkpt lat="45.67345" lon="4.36154">
        <ele>599.4</ele>
        <time>2023-02-19T12:00:15Z</time>
      </trkpt>
      <trkpt lat="45.67348" lon="4.36154">
        <ele>598.9</ele>
        <time>2023-02-19T12:00:17Z</time>
      </trkpt>
      <trkpt lat="45.6735" lon="4.36154">
        <ele>598.5</ele>
        <time>2023-02-19T12:00:18Z</time>
      </trkpt>
      <trkpt lat="45.67351" lon="4.36154">
        <ele>598.2</ele>
        <time>2023-02-19T12:00:19Z</time>
      </trkpt>
      <trkpt lat="45.67355" lon="4.36153">
        <ele>597.6</ele>
        <time>2023-02-19T12:00:20Z</time>
      </trkpt>
      <trkpt lat="45.67356" lon="4.36153">
        <ele>597.3</ele>
        <time>2023-02-19T12:00:21Z</time>
      </trkpt>
      <trkpt lat="45.67359" lon="4.36152">
        <ele>596.8</ele>
        <time>2023-02-19T12:00:22Z</time>
      </trkpt>
      <trkpt lat="45.67362" lon="4.36152">
        <ele>596.3</ele>
        <time>2023-02-19T12:00:24Z</time>
      </trkpt>
      <trkpt lat="45.67364" lon="4.36152">
        <ele>595.9</ele>
        <time>2023-02-19T12:00:25Z</time>
      </trkpt>
      <trkpt lat="45.67365" lon="4.36152">
        <ele>595.7</ele>
        <time>2023-02-19T12:00:26Z</time>
      </trkpt>
      <trkpt lat="45.67366" lon="4.36152">
        <ele>595.5</ele>
        <time>2023-02-19T12:00:27Z</time>
      </trkpt>
      <trkpt lat="45.67368" lon="4.36152">
        <ele>595</ele>
        <time>2023-02-19T12:00:28Z</time>
      </trkpt>
      <trkpt lat="45.67369" lon="4.36152">
        <ele>594.8</ele>
        <time>2023-02-19T12:00:29Z</time>
      </trkpt>
      <trkpt lat="45.67371" lon="4.36152">
        <ele>594.4</ele>
        <time>2023-02-19T12:00:31Z</time>
      </trkpt>
      <trkpt lat="45.67372" lon="4.36152">
        <ele>594.2</ele>
        <time>2023-02-19T12:00:32Z</time>
      </trkpt>
      <trkpt lat="45.67374" lon="4.36152">
        <ele>593.9</ele>
        <time>2023-02-19T12:00:33Z</time>
      </trkpt>
      <trkpt lat="45.67375" lon="4.36151">
        <ele>593.7</ele>
        <time>2023-02-19T12:00:34Z</time>
      </trkpt>
      <trkpt lat="45.67376" lon="4.36151">
        <ele>593.5</ele>
        <time>2023-02-19T12:00:35Z</time>
      </trkpt>
      <trkpt lat="45.67377" lon="4.36151">
        <ele>593.3</ele>
        <time>2023-02-19T12:00:36Z</time>
      </trkpt>
      <trkpt lat="45.67377" lon="4.36151">
        <ele>593.3</ele>
        <time>2023-02-19T12:00:37Z</time>
      </trkpt>
      <trkpt lat="45.67378" lon="4.36151">
        <ele>593.2</ele>
        <time>2023-02-19T12:00:38Z</time>
      </trkpt>
      <trkpt lat="45.67378" lon="4.3615">
        <ele>593.1</ele>
        <time>2023-02-19T12:00:39Z</time>
      </trkpt>
      <trkpt lat="45.67378" lon="4.36149">
        <ele>593</ele>
        <time>2023-02-19T12:00:41Z</time>
      </trkpt>
      <trkpt lat="45.67379" lon="4.36149">
        <ele>592.8</ele>
        <time>2023-02-19T12:00:42Z</time>
      </trkpt>
      <trkpt lat="45.6738" lon="4.36148">
        <ele>592.7</ele>
        <time>2023-02-19T12:00:43Z</time>
      </trkpt>
      <trkpt lat="45.67381" lon="4.36148">
        <ele>592.5</ele>
        <time>2023-02-19T12:00:44Z</time>
      </trkpt>
      <trkpt lat="45.67382" lon="4.36147">
        <ele>592.2</ele>
        <time>2023-02-19T12:00:45Z</time>
      </trkpt>
      <trkpt lat="45.67384" lon="4.36146">
        <ele>591.8</ele>
        <time>2023-02-19T12:00:46Z</time>
      </trkpt>
      <trkpt lat="45.67386" lon="4.36146">
        <ele>591.6</ele>
        <time>2023-02-19T12:00:47Z</time>
      </trkpt>
      <trkpt lat="45.67388" lon="4.36145">
        <ele>591.1</ele>
        <time>2023-02-19T12:00:49Z</time>
      </trkpt>
      <trkpt lat="45.67391" lon="4.36145">
        <ele>590.6</ele>
        <time>2023-02-19T12:00:50Z</time>
      </trkpt>
      <trkpt lat="45.67392" lon="4.36145">
        <ele>590.4</ele>
        <time>2023-02-19T12:00:51Z</time>
      </trkpt>
      <trkpt lat="45.67393" lon="4.36144">
        <ele>590.1</ele>
        <time>2023-02-19T12:00:52Z</time>
      </trkpt>
      <trkpt lat="45.67395" lon="4.36143">
        <ele>589.7</ele>
        <time>2023-02-19T12:00:53Z</time>
      </trkpt>
      <trkpt lat="45.67396" lon="4.36142">
        <ele>589.4</ele>
        <time>2023-02-19T12:00:54Z</time>
      </trkpt>
      <trkpt lat="45.67399" lon="4.36141">
        <ele>589</ele>
        <time>2023-02-19T12:00:56Z</time>
      </trkpt>
      <trkpt lat="45.674" lon="4.3614">
        <ele>588.7</ele>
        <time>2023-02-19T12:00:57Z</time>
      </trkpt>
      <trkpt lat="45.67401" lon="4.36139">
        <ele>588.4</ele>
        <time>2023-02-19T12:00:58Z</time>
      </trkpt>
      <trkpt lat="45.67402" lon="4.36138">
        <ele>588.2</ele>
        <time>2023-02-19T12:00:59Z</time>
      </trkpt>
      <trkpt lat="45.67403" lon="4.36138">
        <ele>588</ele>
        <time>2023-02-19T12:01:00Z</time>
      </trkpt>
      <trkpt lat="45.67405" lon="4.36137">
        <ele>587.8</ele>
        <time>2023-02-19T12:01:01Z</time>
      </trkpt>
      <trkpt lat="45.67405" lon="4.36137">
        <ele>587.6</ele>
        <time>2023-02-19T12:01:02Z</time>
      </trkpt>
      <trkpt lat="45.67407" lon="4.36136">
        <ele>587.3</ele>
        <time>2023-02-19T12:01:04Z</time>
      </trkpt>
      <trkpt lat="45.67408" lon="4.36136">
        <ele>587.2</ele>
        <time>2023-02-19T12:01:05Z</time>
      </trkpt>
      <trkpt lat="45.67408" lon="4.36136">
        <ele>587.1</ele>
        <time>2023-02-19T12:01:06Z</time>
      </trkpt>
      <trkpt lat="45.67408" lon="4.36136">
        <ele>587</ele>
        <time>2023-02-19T12:01:07Z</time>
      </trkpt>
      <trkpt lat="45.67408" lon="4.36136">
        <ele>587</ele>
        <time>2023-02-19T12:01:08Z</time>
      </trkpt>
      <trkpt lat="45.6741" lon="4.36136">
        <ele>586.8</ele>
        <time>2023-02-19T12:01:10Z</time>
      </trkpt>
      <trkpt lat="45.67411" lon="4.36136">
        <ele>586.6</ele>
        <time>2023-02-19T12:01:11Z</time>
      </trkpt>
      <trkpt lat="45.67411" lon="4.36136">
        <ele>586.5</ele>
        <time>2023-02-19T12:01:12Z</time>
      </trkpt>
      <trkpt lat="45.67412" lon="4.36136">
        <ele>586.4</ele>
        <time>2023-02-19T12:01:14Z</time>
      </trkpt>
      <trkpt lat="45.67413" lon="4.36136">
        <ele>586.2</ele>
        <time>2023-02-19T12:01:15Z</time>
      </trkpt>
      <trkpt lat="45.67413" lon="4.36135">
        <ele>586.2</ele>
        <time>2023-02-19T12:01:16Z</time>
      </trkpt>
      <trkpt lat="45.67414" lon="4.36135">
        <ele>586.1</ele>
        <time>2023-02-19T12:01:17Z</time>
      </trkpt>
      <trkpt lat="45.67414" lon="4.36134">
        <ele>586</ele>
        <time>2023-02-19T12:01:18Z</time>
      </trkpt>
      <trkpt lat="45.67414" lon="4.36134">
        <ele>585.9</ele>
        <time>2023-02-19T12:01:19Z</time>
      </trkpt>
      <trkpt lat="45.67414" lon="4.36133">
        <ele>585.8</ele>
        <time>2023-02-19T12:01:20Z</time>
      </trkpt>
      <trkpt lat="45.67415" lon="4.36133">
        <ele>585.8</ele>
        <time>2023-02-19T12:01:21Z</time>
      </trkpt>
      <trkpt lat="45.67416" lon="4.36132">
        <ele>585.6</ele>
        <time>2023-02-19T12:01:22Z</time>
      </trkpt>
      <trkpt lat="45.67416" lon="4.36132">
        <ele>585.5</ele>
        <time>2023-02-19T12:01:23Z</time>
      </trkpt>
      <trkpt lat="45.67417" lon="4.36131">
        <ele>585.3</ele>
        <time>2023-02-19T12:01:24Z</time>
      </trkpt>
      <trkpt lat="45.67418" lon="4.36131">
        <ele>585.2</ele>
        <time>2023-02-19T12:01:25Z</time>
      </trkpt>
      <trkpt lat="45.67419" lon="4.36131">
        <ele>585</ele>
        <time>2023-02-19T12:01:27Z</time>
      </trkpt>
      <trkpt lat="45.67421" lon="4.3613">
        <ele>584.8</ele>
        <time>2023-02-19T12:01:28Z</time>
      </trkpt>
      <trkpt lat="45.67421" lon="4.3613">
        <ele>584.7</ele>
        <time>2023-02-19T12:01:29Z</time>
      </trkpt>
      <trkpt lat="45.67422" lon="4.3613">
        <ele>584.6</ele>
        <time>2023-02-19T12:01:30Z</time>
      </trkpt>
      <trkpt lat="45.67423" lon="4.36129">
        <ele>584.4</ele>
        <time>2023-02-19T12:01:31Z</time>
      </trkpt>
      <trkpt lat="45.67424" lon="4.36129">
        <ele>584.2</ele>
        <time>2023-02-19T12:01:33Z</time>
      </trkpt>
      <trkpt lat="45.67425" lon="4.36128">
        <ele>584.1</ele>
        <time>2023-02-19T12:01:34Z</time>
      </trkpt>
      <trkpt lat="45.67427" lon="4.36127">
        <ele>583.8</ele>
        <time>2023-02-19T12:01:35Z</time>
      </trkpt>
      <trkpt lat="45.67427" lon="4.36126">
        <ele>583.6</ele>
        <time>2023-02-19T12:01:36Z</time>
      </trkpt>
      <trkpt lat="45.67428" lon="4.36125">
        <ele>583.5</ele>
        <time>2023-02-19T12:01:37Z</time>
      </trkpt>
      <trkpt lat="45.67428" lon="4.36125">
        <ele>583.4</ele>
        <time>2023-02-19T12:01:38Z</time>
      </trkpt>
      <trkpt lat="45.67427" lon="4.36125">
        <ele>583.4</ele>
        <time>2023-02-19T12:01:39Z</time>
      </trkpt>
      <trkpt lat="45.67427" lon="4.36124">
        <ele>583.3</ele>
        <time>2023-02-19T12:01:41Z</time>
      </trkpt>
      <trkpt lat="45.67428" lon="4.36124">
        <ele>583.3</ele>
        <time>2023-02-19T12:01:42Z</time>
      </trkpt>
      <trkpt lat="45.67428" lon="4.36123">
        <ele>583.1</ele>
        <time>2023-02-19T12:01:43Z</time>
      </trkpt>
      <trkpt lat="45.67429" lon="4.36123">
        <ele>583</ele>
        <time>2023-02-19T12:01:44Z</time>
      </trkpt>
      <trkpt lat="45.6743" lon="4.36122">
        <ele>582.8</ele>
        <time>2023-02-19T12:01:45Z</time>
      </trkpt>
      <trkpt lat="45.67431" lon="4.36121">
        <ele>582.6</ele>
        <time>2023-02-19T12:01:46Z</time>
      </trkpt>
      <trkpt lat="45.67432" lon="4.36119">
        <ele>582.4</ele>
        <time>2023-02-19T12:01:47Z</time>
      </trkpt>
      <trkpt lat="45.67433" lon="4.36118">
        <ele>582.1</ele>
        <time>2023-02-19T12:01:48Z</time>
      </trkpt>
      <trkpt lat="45.67433" lon="4.36117">
        <ele>582</ele>
        <time>2023-02-19T12:01:49Z</time>
      </trkpt>
      <trkpt lat="45.67434" lon="4.36116">
        <ele>581.9</ele>
        <time>2023-02-19T12:01:50Z</time>
      </trkpt>
      <trkpt lat="45.67434" lon="4.36115">
        <ele>581.8</ele>
        <time>2023-02-19T12:01:52Z</time>
      </trkpt>
      <trkpt lat="45.67435" lon="4.36114">
        <ele>581.7</ele>
        <time>2023-02-19T12:01:53Z</time>
      </trkpt>
      <trkpt lat="45.67436" lon="4.36112">
        <ele>581.3</ele>
        <time>2023-02-19T12:01:54Z</time>
      </trkpt>
      <trkpt lat="45.67436" lon="4.36111">
        <ele>581.2</ele>
        <time>2023-02-19T12:01:55Z</time>
      </trkpt>
      <trkpt lat="45.67437" lon="4.36111">
        <ele>581</ele>
        <time>2023-02-19T12:01:56Z</time>
      </trkpt>
      <trkpt lat="45.67438" lon="4.36108">
        <ele>580.7</ele>
        <time>2023-02-19T12:01:57Z</time>
      </trkpt>
      <trkpt lat="45.67439" lon="4.36107">
        <ele>580.5</ele>
        <time>2023-02-19T12:01:58Z</time>
      </trkpt>
      <trkpt lat="45.67439" lon="4.36104">
        <ele>580.1</ele>
        <time>2023-02-19T12:01:59Z</time>
      </trkpt>
      <trkpt lat="45.67439" lon="4.36101">
        <ele>579.8</ele>
        <time>2023-02-19T12:02:01Z</time>
      </trkpt>
      <trkpt lat="45.67439" lon="4.36099">
        <ele>579.5</ele>
        <time>2023-02-19T12:02:02Z</time>
      </trkpt>
      <trkpt lat="45.67439" lon="4.36097">
        <ele>579.2</ele>
        <time>2023-02-19T12:02:03Z</time>
      </trkpt>
      <trkpt lat="45.6744" lon="4.36094">
        <ele>578.8</ele>
        <time>2023-02-19T12:02:04Z</time>
      </trkpt>
      <trkpt lat="45.6744" lon="4.36093">
        <ele>578.7</ele>
        <time>2023-02-19T12:02:05Z</time>
      </trkpt>
      <trkpt lat="45.6744" lon="4.36091">
        <ele>578.5</ele>
        <time>2023-02-19T12:02:06Z</time>
      </trkpt>
      <trkpt lat="45.6744" lon="4.36089">
        <ele>578.2</ele>
        <time>2023-02-19T12:02:07Z</time>
      </trkpt>
      <trkpt lat="45.67441" lon="4.36087">
        <ele>577.9</ele>
        <time>2023-02-19T12:02:08Z</time>
      </trkpt>
      <trkpt lat="45.67443" lon="4.36085">
        <ele>577.4</ele>
        <time>2023-02-19T12:02:09Z</time>
      </trkpt>
      <trkpt lat="45.67445" lon="4.36084">
        <ele>577.1</ele>
        <time>2023-02-19T12:02:11Z</time>
      </trkpt>
      <trkpt lat="45.67446" lon="4.36083">
        <ele>576.8</ele>
        <time>2023-02-19T12:02:12Z</time>
      </trkpt>
      <trkpt lat="45.67448" lon="4.36081">
        <ele>576.4</ele>
        <time>2023-02-19T12:02:13Z</time>
      </trkpt>
      <trkpt lat="45.67448" lon="4.3608">
        <ele>576.1</ele>
        <time>2023-02-19T12:02:14Z</time>
      </trkpt>
      <trkpt lat="45.67449" lon="4.36079">
        <ele>575.9</ele>
        <time>2023-02-19T12:02:15Z</time>
      </trkpt>
      <trkpt lat="45.6745" lon="4.36077">
        <ele>575.6</ele>
        <time>2023-02-19T12:02:16Z</time>
      </trkpt>
      <trkpt lat="45.6745" lon="4.36076">
        <ele>575.5</ele>
        <time>2023-02-19T12:02:17Z</time>
      </trkpt>
      <trkpt lat="45.67452" lon="4.36074">
        <ele>575</ele>
        <time>2023-02-19T12:02:18Z</time>
      </trkpt>
      <trkpt lat="45.67453" lon="4.36072">
        <ele>574.7</ele>
        <time>2023-02-19T12:02:20Z</time>
      </trkpt>
      <trkpt lat="45.67454" lon="4.36071">
        <ele>574.3</ele>
        <time>2023-02-19T12:02:21Z</time>
      </trkpt>
      <trkpt lat="45.67455" lon="4.3607">
        <ele>574</ele>
        <time>2023-02-19T12:02:22Z</time>
      </trkpt>
      <trkpt lat="45.67457" lon="4.36067">
        <ele>573.4</ele>
        <time>2023-02-19T12:02:23Z</time>
      </trkpt>
      <trkpt lat="45.67459" lon="4.36066">
        <ele>573.1</ele>
        <time>2023-02-19T12:02:24Z</time>
      </trkpt>
      <trkpt lat="45.6746" lon="4.36065">
        <ele>572.8</ele>
        <time>2023-02-19T12:02:25Z</time>
      </trkpt>
      <trkpt lat="45.67461" lon="4.36063">
        <ele>572.4</ele>
        <time>2023-02-19T12:02:26Z</time>
      </trkpt>
      <trkpt lat="45.67462" lon="4.36062">
        <ele>572.1</ele>
        <time>2023-02-19T12:02:27Z</time>
      </trkpt>
      <trkpt lat="45.67463" lon="4.3606">
        <ele>571.6</ele>
        <time>2023-02-19T12:02:28Z</time>
      </trkpt>
      <trkpt lat="45.67464" lon="4.36059">
        <ele>571.4</ele>
        <time>2023-02-19T12:02:29Z</time>
      </trkpt>
      <trkpt lat="45.67465" lon="4.36057">
        <ele>571</ele>
        <time>2023-02-19T12:02:31Z</time>
      </trkpt>
      <trkpt lat="45.67466" lon="4.36056">
        <ele>570.8</ele>
        <time>2023-02-19T12:02:32Z</time>
      </trkpt>
      <trkpt lat="45.67467" lon="4.36055">
        <ele>570.6</ele>
        <time>2023-02-19T12:02:33Z</time>
      </trkpt>
      <trkpt lat="45.67467" lon="4.36055">
        <ele>570.5</ele>
        <time>2023-02-19T12:02:34Z</time>
      </trkpt>
      <trkpt lat="45.67467" lon="4.36054">
        <ele>570.4</ele>
        <time>2023-02-19T12:02:36Z</time>
      </trkpt>
      <trkpt lat="45.67467" lon="4.36054">
        <ele>570.3</ele>
        <time>2023-02-19T12:02:37Z</time>
      </trkpt>
      <trkpt lat="45.67468" lon="4.36053">
        <ele>570.1</ele>
        <time>2023-02-19T12:02:38Z</time>
      </trkpt>
      <trkpt lat="45.67468" lon="4.36053">
        <ele>570.1</ele>
        <time>2023-02-19T12:02:39Z</time>
      </trkpt>
      <trkpt lat="45.67468" lon="4.36052">
        <ele>570</ele>
        <time>2023-02-19T12:02:40Z</time>
      </trkpt>
      <trkpt lat="45.67468" lon="4.36051">
        <ele>569.9</ele>
        <time>2023-02-19T12:02:41Z</time>
      </trkpt>
      <trkpt lat="45.67468" lon="4.3605">
        <ele>569.7</ele>
        <time>2023-02-19T12:02:42Z</time>
      </trkpt>
      <trkpt lat="45.67468" lon="4.36049">
        <ele>569.5</ele>
        <time>2023-02-19T12:02:43Z</time>
      </trkpt>
      <trkpt lat="45.67468" lon="4.36048">
        <ele>569.3</ele>
        <time>2023-02-19T12:02:44Z</time>
      </trkpt>
      <trkpt lat="45.67468" lon="4.36047">
        <ele>569.1</ele>
        <time>2023-02-19T12:02:46Z</time>
      </trkpt>
      <trkpt lat="45.67467" lon="4.36046">
        <ele>569</ele>
        <time>2023-02-19T12:02:47Z</time>
      </trkpt>
      <trkpt lat="45.67467" lon="4.36044">
        <ele>568.7</ele>
        <time>2023-02-19T12:02:48Z</time>
      </trkpt>
      <trkpt lat="45.67467" lon="4.36043">
        <ele>568.5</ele>
        <time>2023-02-19T12:02:49Z</time>
      </trkpt>
      <trkpt lat="45.67466" lon="4.36043">
        <ele>568.3</ele>
        <time>2023-02-19T12:02:50Z</time>
      </trkpt>
      <trkpt lat="45.67464" lon="4.36042">
        <ele>568</ele>
        <time>2023-02-19T12:02:51Z</time>
      </trkpt>
      <trkpt lat="45.67462" lon="4.3604">
        <ele>567.4</ele>
        <time>2023-02-19T12:02:52Z</time>
      </trkpt>
      <trkpt lat="45.67461" lon="4.36039">
        <ele>567.2</ele>
        <time>2023-02-19T12:02:53Z</time>
      </trkpt>
      <trkpt lat="45.6746" lon="4.36039">
        <ele>566.9</ele>
        <time>2023-02-19T12:02:54Z</time>
      </trkpt>
      <trkpt lat="45.67458" lon="4.36038">
        <ele>566.6</ele>
        <time>2023-02-19T12:02:55Z</time>
      </trkpt>
      <trkpt lat="45.67457" lon="4.36037">
        <ele>566.2</ele>
        <time>2023-02-19T12:02:56Z</time>
      </trkpt>
      <trkpt lat="45.67455" lon="4.36035">
        <ele>565.8</ele>
        <time>2023-02-19T12:02:58Z</time>
      </trkpt>
      <trkpt lat="45.67453" lon="4.36032">
        <ele>565.2</ele>
        <time>2023-02-19T12:02:59Z</time>
      </trkpt>
      <trkpt lat="45.67452" lon="4.36031">
        <ele>565</ele>
        <time>2023-02-19T12:03:00Z</time>
      </trkpt>
      <trkpt lat="45.67449" lon="4.36028">
        <ele>564.4</ele>
        <time>2023-02-19T12:03:01Z</time>
      </trkpt>
      <trkpt lat="45.67449" lon="4.36027">
        <ele>564.3</ele>
        <time>2023-02-19T12:03:02Z</time>
      </trkpt>
      <trkpt lat="45.67446" lon="4.36022">
        <ele>563.6</ele>
        <time>2023-02-19T12:03:03Z</time>
      </trkpt>
      <trkpt lat="45.67445" lon="4.36021">
        <ele>563.4</ele>
        <time>2023-02-19T12:03:04Z</time>
      </trkpt>
      <trkpt lat="45.67443" lon="4.36017">
        <ele>562.9</ele>
        <time>2023-02-19T12:03:05Z</time>
      </trkpt>
      <trkpt lat="45.67443" lon="4.36015">
        <ele>562.8</ele>
        <time>2023-02-19T12:03:06Z</time>
      </trkpt>
      <trkpt lat="45.67441" lon="4.36011">
        <ele>562.3</ele>
        <time>2023-02-19T12:03:08Z</time>
      </trkpt>
      <trkpt lat="45.67441" lon="4.36009">
        <ele>562.1</ele>
        <time>2023-02-19T12:03:09Z</time>
      </trkpt>
      <trkpt lat="45.67439" lon="4.36006">
        <ele>561.7</ele>
        <time>2023-02-19T12:03:10Z</time>
      </trkpt>
      <trkpt lat="45.67439" lon="4.36005">
        <ele>561.6</ele>
        <time>2023-02-19T12:03:11Z</time>
      </trkpt>
      <trkpt lat="45.67438" lon="4.36003">
        <ele>561.4</ele>
        <time>2023-02-19T12:03:12Z</time>
      </trkpt>
      <trkpt lat="45.67437" lon="4.36001">
        <ele>561.2</ele>
        <time>2023-02-19T12:03:13Z</time>
      </trkpt>
      <trkpt lat="45.67436" lon="4.36">
        <ele>561.1</ele>
        <time>2023-02-19T12:03:14Z</time>
      </trkpt>
      <trkpt lat="45.67435" lon="4.35999">
        <ele>560.9</ele>
        <time>2023-02-19T12:03:15Z</time>
      </trkpt>
      <trkpt lat="45.67433" lon="4.35997">
        <ele>560.7</ele>
        <time>2023-02-19T12:03:17Z</time>
      </trkpt>
      <trkpt lat="45.67432" lon="4.35995">
        <ele>560.5</ele>
        <time>2023-02-19T12:03:18Z</time>
      </trkpt>
      <trkpt lat="45.67431" lon="4.35994">
        <ele>560.4</ele>
        <time>2023-02-19T12:03:19Z</time>
      </trkpt>
      <trkpt lat="45.6743" lon="4.35992">
        <ele>560.2</ele>
        <time>2023-02-19T12:03:20Z</time>
      </trkpt>
      <trkpt lat="45.67428" lon="4.35991">
        <ele>560.1</ele>
        <time>2023-02-19T12:03:21Z</time>
      </trkpt>
      <trkpt lat="45.67426" lon="4.35989">
        <ele>559.8</ele>
        <time>2023-02-19T12:03:23Z</time>
      </trkpt>
      <trkpt lat="45.67425" lon="4.35988">
        <ele>559.7</ele>
        <time>2023-02-19T12:03:24Z</time>
      </trkpt>
      <trkpt lat="45.67424" lon="4.35987">
        <ele>559.6</ele>
        <time>2023-02-19T12:03:25Z</time>
      </trkpt>
      <trkpt lat="45.67423" lon="4.35986">
        <ele>559.5</ele>
        <time>2023-02-19T12:03:27Z</time>
      </trkpt>
      <trkpt lat="45.67423" lon="4.35985">
        <ele>559.5</ele>
        <time>2023-02-19T12:03:28Z</time>
      </trkpt>
      <trkpt lat="45.67422" lon="4.35984">
        <ele>559.4</ele>
        <time>2023-02-19T12:03:29Z</time>
      </trkpt>
      <trkpt lat="45.6742" lon="4.35981">
        <ele>559.2</ele>
        <time>2023-02-19T12:03:30Z</time>
      </trkpt>
      <trkpt lat="45.6742" lon="4.3598">
        <ele>559.2</ele>
        <time>2023-02-19T12:03:31Z</time>
      </trkpt>
      <trkpt lat="45.67419" lon="4.35979">
        <ele>559.1</ele>
        <time>2023-02-19T12:03:32Z</time>
      </trkpt>
      <trkpt lat="45.67418" lon="4.35976">
        <ele>558.9</ele>
        <time>2023-02-19T12:03:33Z</time>
      </trkpt>
      <trkpt lat="45.67417" lon="4.35975">
        <ele>558.9</ele>
        <time>2023-02-19T12:03:34Z</time>
      </trkpt>
      <trkpt lat="45.67416" lon="4.35974">
        <ele>558.8</ele>
        <time>2023-02-19T12:03:35Z</time>
      </trkpt>
      <trkpt lat="45.67415" lon="4.35972">
        <ele>558.7</ele>
        <time>2023-02-19T12:03:36Z</time>
      </trkpt>
      <trkpt lat="45.67414" lon="4.35969">
        <ele>558.6</ele>
        <time>2023-02-19T12:03:37Z</time>
      </trkpt>
      <trkpt lat="45.67413" lon="4.35968">
        <ele>558.5</ele>
        <time>2023-02-19T12:03:39Z</time>
      </trkpt>
      <trkpt lat="45.67413" lon="4.35966">
        <ele>558.5</ele>
        <time>2023-02-19T12:03:40Z</time>
      </trkpt>
      <trkpt lat="45.67412" lon="4.35965">
        <ele>558.4</ele>
        <time>2023-02-19T12:03:41Z</time>
      </trkpt>
      <trkpt lat="45.67411" lon="4.35963">
        <ele>558.3</ele>
        <time>2023-02-19T12:03:42Z</time>
      </trkpt>
      <trkpt lat="45.67411" lon="4.35962">
        <ele>558.3</ele>
        <time>2023-02-19T12:03:43Z</time>
      </trkpt>
      <trkpt lat="45.6741" lon="4.3596">
        <ele>558.2</ele>
        <time>2023-02-19T12:03:44Z</time>
      </trkpt>
      <trkpt lat="45.67408" lon="4.35957">
        <ele>558.1</ele>
        <time>2023-02-19T12:03:45Z</time>
      </trkpt>
      <trkpt lat="45.67408" lon="4.35956">
        <ele>558.1</ele>
        <time>2023-02-19T12:03:46Z</time>
      </trkpt>
      <trkpt lat="45.67407" lon="4.35955">
        <ele>558.1</ele>
        <time>2023-02-19T12:03:47Z</time>
      </trkpt>
      <trkpt lat="45.67406" lon="4.35954">
        <ele>558</ele>
        <time>2023-02-19T12:03:48Z</time>
      </trkpt>
      <trkpt lat="45.67405" lon="4.35953">
        <ele>558</ele>
        <time>2023-02-19T12:03:49Z</time>
      </trkpt>
      <trkpt lat="45.67404" lon="4.35951">
        <ele>557.9</ele>
        <time>2023-02-19T12:03:51Z</time>
      </trkpt>
      <trkpt lat="45.67403" lon="4.35949">
        <ele>557.9</ele>
        <time>2023-02-19T12:03:52Z</time>
      </trkpt>
      <trkpt lat="45.67402" lon="4.35947">
        <ele>557.8</ele>
        <time>2023-02-19T12:03:54Z</time>
      </trkpt>
      <trkpt lat="45.67401" lon="4.35946">
        <ele>557.8</ele>
        <time>2023-02-19T12:03:55Z</time>
      </trkpt>
      <trkpt lat="45.674" lon="4.35943">
        <ele>557.7</ele>
        <time>2023-02-19T12:03:56Z</time>
      </trkpt>
      <trkpt lat="45.674" lon="4.35942">
        <ele>557.7</ele>
        <time>2023-02-19T12:03:57Z</time>
      </trkpt>
      <trkpt lat="45.67399" lon="4.35941">
        <ele>557.7</ele>
        <time>2023-02-19T12:03:58Z</time>
      </trkpt>
      <trkpt lat="45.67398" lon="4.35939">
        <ele>557.6</ele>
        <time>2023-02-19T12:03:59Z</time>
      </trkpt>
      <trkpt lat="45.67397" lon="4.35937">
        <ele>557.6</ele>
        <time>2023-02-19T12:04:00Z</time>
      </trkpt>
      <trkpt lat="45.67396" lon="4.35934">
        <ele>557.5</ele>
        <time>2023-02-19T12:04:02Z</time>
      </trkpt>
      <trkpt lat="45.67395" lon="4.35933">
        <ele>557.5</ele>
        <time>2023-02-19T12:04:03Z</time>
      </trkpt>
      <trkpt lat="45.67394" lon="4.35929">
        <ele>557.5</ele>
        <time>2023-02-19T12:04:04Z</time>
      </trkpt>
      <trkpt lat="45.67393" lon="4.35928">
        <ele>557.5</ele>
        <time>2023-02-19T12:04:05Z</time>
      </trkpt>
      <trkpt lat="45.67392" lon="4.35926">
        <ele>557.4</ele>
        <time>2023-02-19T12:04:06Z</time>
      </trkpt>
      <trkpt lat="45.67391" lon="4.35922">
        <ele>557.4</ele>
        <time>2023-02-19T12:04:07Z</time>
      </trkpt>
      <trkpt lat="45.67391" lon="4.35921">
        <ele>557.4</ele>
        <time>2023-02-19T12:04:09Z</time>
      </trkpt>
      <trkpt lat="45.6739" lon="4.35919">
        <ele>557.5</ele>
        <time>2023-02-19T12:04:10Z</time>
      </trkpt>
      <trkpt lat="45.6739" lon="4.35918">
        <ele>557.5</ele>
        <time>2023-02-19T12:04:11Z</time>
      </trkpt>
      <trkpt lat="45.6739" lon="4.35916">
        <ele>557.5</ele>
        <time>2023-02-19T12:04:12Z</time>
      </trkpt>
      <trkpt lat="45.67389" lon="4.35912">
        <ele>557.5</ele>
        <time>2023-02-19T12:04:13Z</time>
      </trkpt>
      <trkpt lat="45.67389" lon="4.35911">
        <ele>557.6</ele>
        <time>2023-02-19T12:04:14Z</time>
      </trkpt>
      <trkpt lat="45.67389" lon="4.35909">
        <ele>557.6</ele>
        <time>2023-02-19T12:04:15Z</time>
      </trkpt>
      <trkpt lat="45.67389" lon="4.35906">
        <ele>557.7</ele>
        <time>2023-02-19T12:04:16Z</time>
      </trkpt>
      <trkpt lat="45.6739" lon="4.35902">
        <ele>557.8</ele>
        <time>2023-02-19T12:04:17Z</time>
      </trkpt>
      <trkpt lat="45.6739" lon="4.359">
        <ele>557.8</ele>
        <time>2023-02-19T12:04:18Z</time>
      </trkpt>
      <trkpt lat="45.67391" lon="4.35896">
        <ele>557.9</ele>
        <time>2023-02-19T12:04:20Z</time>
      </trkpt>
      <trkpt lat="45.67391" lon="4.35895">
        <ele>558</ele>
        <time>2023-02-19T12:04:21Z</time>
      </trkpt>
      <trkpt lat="45.67392" lon="4.3589">
        <ele>558.1</ele>
        <time>2023-02-19T12:04:22Z</time>
      </trkpt>
      <trkpt lat="45.67392" lon="4.35889">
        <ele>558.2</ele>
        <time>2023-02-19T12:04:23Z</time>
      </trkpt>
      <trkpt lat="45.67393" lon="4.35884">
        <ele>558.3</ele>
        <time>2023-02-19T12:04:24Z</time>
      </trkpt>
      <trkpt lat="45.67393" lon="4.35883">
        <ele>558.4</ele>
        <time>2023-02-19T12:04:25Z</time>
      </trkpt>
      <trkpt lat="45.67394" lon="4.35881">
        <ele>558.5</ele>
        <time>2023-02-19T12:04:26Z</time>
      </trkpt>
      <trkpt lat="45.67394" lon="4.35879">
        <ele>558.6</ele>
        <time>2023-02-19T12:04:27Z</time>
      </trkpt>
      <trkpt lat="45.67395" lon="4.35875">
        <ele>558.7</ele>
        <time>2023-02-19T12:04:28Z</time>
      </trkpt>
      <trkpt lat="45.67396" lon="4.35873">
        <ele>558.8</ele>
        <time>2023-02-19T12:04:30Z</time>
      </trkpt>
      <trkpt lat="45.67396" lon="4.35871">
        <ele>558.9</ele>
        <time>2023-02-19T12:04:31Z</time>
      </trkpt>
      <trkpt lat="45.67397" lon="4.35869">
        <ele>559</ele>
        <time>2023-02-19T12:04:32Z</time>
      </trkpt>
      <trkpt lat="45.67399" lon="4.35866">
        <ele>559.2</ele>
        <time>2023-02-19T12:04:34Z</time>
      </trkpt>
      <trkpt lat="45.674" lon="4.35864">
        <ele>559.3</ele>
        <time>2023-02-19T12:04:35Z</time>
      </trkpt>
      <trkpt lat="45.67402" lon="4.35861">
        <ele>559.6</ele>
        <time>2023-02-19T12:04:37Z</time>
      </trkpt>
      <trkpt lat="45.67402" lon="4.35859">
        <ele>559.7</ele>
        <time>2023-02-19T12:04:38Z</time>
      </trkpt>
      <trkpt lat="45.67403" lon="4.35858">
        <ele>559.7</ele>
        <time>2023-02-19T12:04:40Z</time>
      </trkpt>
      <trkpt lat="45.67403" lon="4.35857">
        <ele>559.8</ele>
        <time>2023-02-19T12:04:41Z</time>
      </trkpt>
      <trkpt lat="45.67404" lon="4.35855">
        <ele>559.9</ele>
        <time>2023-02-19T12:04:42Z</time>
      </trkpt>
      <trkpt lat="45.67405" lon="4.35854">
        <ele>560</ele>
        <time>2023-02-19T12:04:43Z</time>
      </trkpt>
      <trkpt lat="45.67405" lon="4.35852">
        <ele>560.1</ele>
        <time>2023-02-19T12:04:44Z</time>
      </trkpt>
      <trkpt lat="45.67405" lon="4.35851">
        <ele>560.2</ele>
        <time>2023-02-19T12:04:45Z</time>
      </trkpt>
      <trkpt lat="45.67406" lon="4.3585">
        <ele>560.2</ele>
        <time>2023-02-19T12:04:46Z</time>
      </trkpt>
      <trkpt lat="45.67407" lon="4.35849">
        <ele>560.3</ele>
        <time>2023-02-19T12:04:47Z</time>
      </trkpt>
      <trkpt lat="45.67408" lon="4.35847">
        <ele>560.4</ele>
        <time>2023-02-19T12:04:48Z</time>
      </trkpt>
      <trkpt lat="45.67409" lon="4.35846">
        <ele>560.5</ele>
        <time>2023-02-19T12:04:50Z</time>
      </trkpt>
      <trkpt lat="45.6741" lon="4.35845">
        <ele>560.6</ele>
        <time>2023-02-19T12:04:51Z</time>
      </trkpt>
      <trkpt lat="45.67411" lon="4.35844">
        <ele>560.7</ele>
        <time>2023-02-19T12:04:52Z</time>
      </trkpt>
      <trkpt lat="45.67412" lon="4.35844">
        <ele>560.8</ele>
        <time>2023-02-19T12:04:53Z</time>
      </trkpt>
      <trkpt lat="45.67413" lon="4.35843">
        <ele>560.9</ele>
        <time>2023-02-19T12:04:54Z</time>
      </trkpt>
      <trkpt lat="45.67415" lon="4.35841">
        <ele>561.1</ele>
        <time>2023-02-19T12:04:55Z</time>
      </trkpt>
      <trkpt lat="45.67416" lon="4.35841">
        <ele>561.1</ele>
        <time>2023-02-19T12:04:56Z</time>
      </trkpt>
      <trkpt lat="45.67418" lon="4.35839">
        <ele>561.3</ele>
        <time>2023-02-19T12:04:57Z</time>
      </trkpt>
      <trkpt lat="45.67419" lon="4.35839">
        <ele>561.4</ele>
        <time>2023-02-19T12:04:58Z</time>
      </trkpt>
      <trkpt lat="45.6742" lon="4.35838">
        <ele>561.4</ele>
        <time>2023-02-19T12:05:00Z</time>
      </trkpt>
      <trkpt lat="45.67421" lon="4.35837">
        <ele>561.5</ele>
        <time>2023-02-19T12:05:01Z</time>
      </trkpt>
      <trkpt lat="45.67422" lon="4.35837">
        <ele>561.6</ele>
        <time>2023-02-19T12:05:02Z</time>
      </trkpt>
      <trkpt lat="45.67423" lon="4.35836">
        <ele>561.6</ele>
        <time>2023-02-19T12:05:03Z</time>
      </trkpt>
      <trkpt lat="45.67424" lon="4.35836">
        <ele>561.7</ele>
        <time>2023-02-19T12:05:04Z</time>
      </trkpt>
      <trkpt lat="45.67425" lon="4.35836">
        <ele>561.8</ele>
        <time>2023-02-19T12:05:05Z</time>
      </trkpt>
      <trkpt lat="45.67427" lon="4.35835">
        <ele>561.9</ele>
        <time>2023-02-19T12:05:06Z</time>
      </trkpt>
      <trkpt lat="45.67427" lon="4.35834">
        <ele>562</ele>
        <time>2023-02-19T12:05:08Z</time>
      </trkpt>
      <trkpt lat="45.67428" lon="4.35834">
        <ele>562</ele>
        <time>2023-02-19T12:05:09Z</time>
      </trkpt>
      <trkpt lat="45.67429" lon="4.35833">
        <ele>562.1</ele>
        <time>2023-02-19T12:05:10Z</time>
      </trkpt>
      <trkpt lat="45.67429" lon="4.35833">
        <ele>562.1</ele>
        <time>2023-02-19T12:05:11Z</time>
      </trkpt>
      <trkpt lat="45.6743" lon="4.35832">
        <ele>562.2</ele>
        <time>2023-02-19T12:05:12Z</time>
      </trkpt>
      <trkpt lat="45.67431" lon="4.35832">
        <ele>562.2</ele>
        <time>2023-02-19T12:05:13Z</time>
      </trkpt>
      <trkpt lat="45.67432" lon="4.35831">
        <ele>562.3</ele>
        <time>2023-02-19T12:05:14Z</time>
      </trkpt>
      <trkpt lat="45.67433" lon="4.35831">
        <ele>562.3</ele>
        <time>2023-02-19T12:05:15Z</time>
      </trkpt>
      <trkpt lat="45.67433" lon="4.35831">
        <ele>562.3</ele>
        <time>2023-02-19T12:05:16Z</time>
      </trkpt>
      <trkpt lat="45.67434" lon="4.35831">
        <ele>562.4</ele>
        <time>2023-02-19T12:05:17Z</time>
      </trkpt>
      <trkpt lat="45.67435" lon="4.35831">
        <ele>562.4</ele>
        <time>2023-02-19T12:05:19Z</time>
      </trkpt>
      <trkpt lat="45.67436" lon="4.35831">
        <ele>562.5</ele>
        <time>2023-02-19T12:05:20Z</time>
      </trkpt>
      <trkpt lat="45.67437" lon="4.3583">
        <ele>562.5</ele>
        <time>2023-02-19T12:05:21Z</time>
      </trkpt>
      <trkpt lat="45.67439" lon="4.3583">
        <ele>562.6</ele>
        <time>2023-02-19T12:05:22Z</time>
      </trkpt>
      <trkpt lat="45.6744" lon="4.3583">
        <ele>562.6</ele>
        <time>2023-02-19T12:05:23Z</time>
      </trkpt>
      <trkpt lat="45.67441" lon="4.35829">
        <ele>562.7</ele>
        <time>2023-02-19T12:05:24Z</time>
      </trkpt>
      <trkpt lat="45.67442" lon="4.35829">
        <ele>562.7</ele>
        <time>2023-02-19T12:05:25Z</time>
      </trkpt>
      <trkpt lat="45.67443" lon="4.35829">
        <ele>562.7</ele>
        <time>2023-02-19T12:05:26Z</time>
      </trkpt>
      <trkpt lat="45.67446" lon="4.3583">
        <ele>562.7</ele>
        <time>2023-02-19T12:05:28Z</time>
      </trkpt>
      <trkpt lat="45.67448" lon="4.3583">
        <ele>562.8</ele>
        <time>2023-02-19T12:05:30Z</time>
      </trkpt>
      <trkpt lat="45.67449" lon="4.3583">
        <ele>562.8</ele>
        <time>2023-02-19T12:05:31Z</time>
      </trkpt>
      <trkpt lat="45.67452" lon="4.35831">
        <ele>562.8</ele>
        <time>2023-02-19T12:05:32Z</time>
      </trkpt>
      <trkpt lat="45.67454" lon="4.35831">
        <ele>562.7</ele>
        <time>2023-02-19T12:05:33Z</time>
      </trkpt>
      <trkpt lat="45.67456" lon="4.3583">
        <ele>562.7</ele>
        <time>2023-02-19T12:05:34Z</time>
      </trkpt>
      <trkpt lat="45.67457" lon="4.3583">
        <ele>562.7</ele>
        <time>2023-02-19T12:05:35Z</time>
      </trkpt>
      <trkpt lat="45.67459" lon="4.3583">
        <ele>562.6</ele>
        <time>2023-02-19T12:05:36Z</time>
      </trkpt>
      <trkpt lat="45.67463" lon="4.3583">
        <ele>562.4</ele>
        <time>2023-02-19T12:05:38Z</time>
      </trkpt>
      <trkpt lat="45.67464" lon="4.3583">
        <ele>562.4</ele>
        <time>2023-02-19T12:05:39Z</time>
      </trkpt>
      <trkpt lat="45.67465" lon="4.3583">
        <ele>562.3</ele>
        <time>2023-02-19T12:05:40Z</time>
      </trkpt>
      <trkpt lat="45.67468" lon="4.35831">
        <ele>562.2</ele>
        <time>2023-02-19T12:05:41Z</time>
      </trkpt>
      <trkpt lat="45.6747" lon="4.35831">
        <ele>562.1</ele>
        <time>2023-02-19T12:05:43Z</time>
      </trkpt>
      <trkpt lat="45.67471" lon="4.35832">
        <ele>562</ele>
        <time>2023-02-19T12:05:44Z</time>
      </trkpt>
      <trkpt lat="45.67473" lon="4.35832">
        <ele>561.9</ele>
        <time>2023-02-19T12:05:45Z</time>
      </trkpt>
      <trkpt lat="45.67474" lon="4.35833">
        <ele>561.8</ele>
        <time>2023-02-19T12:05:46Z</time>
      </trkpt>
      <trkpt lat="45.67476" lon="4.35833">
        <ele>561.7</ele>
        <time>2023-02-19T12:05:48Z</time>
      </trkpt>
      <trkpt lat="45.67478" lon="4.35833">
        <ele>561.6</ele>
        <time>2023-02-19T12:05:49Z</time>
      </trkpt>
      <trkpt lat="45.67479" lon="4.35833">
        <ele>561.5</ele>
        <time>2023-02-19T12:05:50Z</time>
      </trkpt>
      <trkpt lat="45.67481" lon="4.35833">
        <ele>561.4</ele>
        <time>2023-02-19T12:05:51Z</time>
      </trkpt>
      <trkpt lat="45.67482" lon="4.35833">
        <ele>561.3</ele>
        <time>2023-02-19T12:05:52Z</time>
      </trkpt>
      <trkpt lat="45.67483" lon="4.35833">
        <ele>561.3</ele>
        <time>2023-02-19T12:05:54Z</time>
      </trkpt>
      <trkpt lat="45.67484" lon="4.35834">
        <ele>561.2</ele>
        <time>2023-02-19T12:05:55Z</time>
      </trkpt>
      <trkpt lat="45.67485" lon="4.35834">
        <ele>561.2</ele>
        <time>2023-02-19T12:05:56Z</time>
      </trkpt>
      <trkpt lat="45.67485" lon="4.35834">
        <ele>561.1</ele>
        <time>2023-02-19T12:05:57Z</time>
      </trkpt>
      <trkpt lat="45.67487" lon="4.35834">
        <ele>561</ele>
        <time>2023-02-19T12:05:58Z</time>
      </trkpt>
      <trkpt lat="45.67488" lon="4.35834">
        <ele>560.9</ele>
        <time>2023-02-19T12:05:59Z</time>
      </trkpt>
      <trkpt lat="45.67489" lon="4.35834">
        <ele>560.9</ele>
        <time>2023-02-19T12:06:01Z</time>
      </trkpt>
      <trkpt lat="45.6749" lon="4.35834">
        <ele>560.8</ele>
        <time>2023-02-19T12:06:02Z</time>
      </trkpt>
      <trkpt lat="45.67491" lon="4.35834">
        <ele>560.8</ele>
        <time>2023-02-19T12:06:03Z</time>
      </trkpt>
      <trkpt lat="45.67492" lon="4.35834">
        <ele>560.7</ele>
        <time>2023-02-19T12:06:04Z</time>
      </trkpt>
      <trkpt lat="45.67493" lon="4.35834">
        <ele>560.6</ele>
        <time>2023-02-19T12:06:05Z</time>
      </trkpt>
      <trkpt lat="45.67494" lon="4.35835">
        <ele>560.5</ele>
        <time>2023-02-19T12:06:06Z</time>
      </trkpt>
      <trkpt lat="45.67496" lon="4.35835">
        <ele>560.5</ele>
        <time>2023-02-19T12:06:07Z</time>
      </trkpt>
      <trkpt lat="45.67497" lon="4.35836">
        <ele>560.4</ele>
        <time>2023-02-19T12:06:08Z</time>
      </trkpt>
      <trkpt lat="45.675" lon="4.35837">
        <ele>560.2</ele>
        <time>2023-02-19T12:06:10Z</time>
      </trkpt>
      <trkpt lat="45.67501" lon="4.35837">
        <ele>560.1</ele>
        <time>2023-02-19T12:06:11Z</time>
      </trkpt>
      <trkpt lat="45.67503" lon="4.35837">
        <ele>560</ele>
        <time>2023-02-19T12:06:12Z</time>
      </trkpt>
      <trkpt lat="45.67505" lon="4.35837">
        <ele>559.9</ele>
        <time>2023-02-19T12:06:13Z</time>
      </trkpt>
      <trkpt lat="45.67509" lon="4.35838">
        <ele>559.6</ele>
        <time>2023-02-19T12:06:15Z</time>
      </trkpt>
      <trkpt lat="45.67511" lon="4.35838">
        <ele>559.5</ele>
        <time>2023-02-19T12:06:16Z</time>
      </trkpt>
      <trkpt lat="45.67512" lon="4.35838">
        <ele>559.4</ele>
        <time>2023-02-19T12:06:17Z</time>
      </trkpt>
      <trkpt lat="45.67513" lon="4.35838">
        <ele>559.3</ele>
        <time>2023-02-19T12:06:18Z</time>
      </trkpt>
      <trkpt lat="45.67516" lon="4.35839">
        <ele>559.1</ele>
        <time>2023-02-19T12:06:20Z</time>
      </trkpt>
      <trkpt lat="45.67517" lon="4.35839">
        <ele>559</ele>
        <time>2023-02-19T12:06:21Z</time>
      </trkpt>
      <trkpt lat="45.67519" lon="4.35838">
        <ele>558.9</ele>
        <time>2023-02-19T12:06:22Z</time>
      </trkpt>
      <trkpt lat="45.67523" lon="4.35838">
        <ele>558.7</ele>
        <time>2023-02-19T12:06:24Z</time>
      </trkpt>
      <trkpt lat="45.67524" lon="4.35838">
        <ele>558.6</ele>
        <time>2023-02-19T12:06:25Z</time>
      </trkpt>
      <trkpt lat="45.67526" lon="4.35838">
        <ele>558.5</ele>
        <time>2023-02-19T12:06:26Z</time>
      </trkpt>
      <trkpt lat="45.67527" lon="4.35838">
        <ele>558.4</ele>
        <time>2023-02-19T12:06:27Z</time>
      </trkpt>
      <trkpt lat="45.67528" lon="4.35838">
        <ele>558.4</ele>
        <time>2023-02-19T12:06:28Z</time>
      </trkpt>
      <trkpt lat="45.6753" lon="4.35838">
        <ele>558.2</ele>
        <time>2023-02-19T12:06:29Z</time>
      </trkpt>
      <trkpt lat="45.67531" lon="4.35838">
        <ele>558.2</ele>
        <time>2023-02-19T12:06:30Z</time>
      </trkpt>
      <trkpt lat="45.67533" lon="4.35838">
        <ele>558.1</ele>
        <time>2023-02-19T12:06:31Z</time>
      </trkpt>
      <trkpt lat="45.67534" lon="4.35838">
        <ele>558</ele>
        <time>2023-02-19T12:06:32Z</time>
      </trkpt>
      <trkpt lat="45.67535" lon="4.35838">
        <ele>558</ele>
        <time>2023-02-19T12:06:33Z</time>
      </trkpt>
      <trkpt lat="45.67538" lon="4.35838">
        <ele>557.9</ele>
        <time>2023-02-19T12:06:35Z</time>
      </trkpt>
      <trkpt lat="45.67539" lon="4.35839">
        <ele>557.8</ele>
        <time>2023-02-19T12:06:36Z</time>
      </trkpt>
      <trkpt lat="45.67541" lon="4.35839">
        <ele>557.7</ele>
        <time>2023-02-19T12:06:37Z</time>
      </trkpt>
      <trkpt lat="45.67542" lon="4.35839">
        <ele>557.7</ele>
        <time>2023-02-19T12:06:38Z</time>
      </trkpt>
      <trkpt lat="45.67542" lon="4.35839">
        <ele>557.7</ele>
        <time>2023-02-19T12:06:39Z</time>
      </trkpt>
      <trkpt lat="45.67544" lon="4.35839">
        <ele>557.6</ele>
        <time>2023-02-19T12:06:40Z</time>
      </trkpt>
      <trkpt lat="45.67545" lon="4.35839">
        <ele>557.6</ele>
        <time>2023-02-19T12:06:41Z</time>
      </trkpt>
      <trkpt lat="45.67546" lon="4.35839">
        <ele>557.6</ele>
        <time>2023-02-19T12:06:42Z</time>
      </trkpt>
      <trkpt lat="45.67548" lon="4.35839">
        <ele>557.5</ele>
        <time>2023-02-19T12:06:43Z</time>
      </trkpt>
      <trkpt lat="45.67549" lon="4.35839">
        <ele>557.5</ele>
        <time>2023-02-19T12:06:44Z</time>
      </trkpt>
      <trkpt lat="45.67551" lon="4.35839">
        <ele>557.5</ele>
        <time>2023-02-19T12:06:46Z</time>
      </trkpt>
      <trkpt lat="45.67552" lon="4.35839">
        <ele>557.5</ele>
        <time>2023-02-19T12:06:47Z</time>
      </trkpt>
      <trkpt lat="45.67553" lon="4.35838">
        <ele>557.4</ele>
        <time>2023-02-19T12:06:48Z</time>
      </trkpt>
      <trkpt lat="45.67555" lon="4.35838">
        <ele>557.4</ele>
        <time>2023-02-19T12:06:49Z</time>
      </trkpt>
      <trkpt lat="45.67557" lon="4.35837">
        <ele>557.4</ele>
        <time>2023-02-19T12:06:51Z</time>
      </trkpt>
      <trkpt lat="45.67558" lon="4.35836">
        <ele>557.4</ele>
        <time>2023-02-19T12:06:52Z</time>
      </trkpt>
      <trkpt lat="45.67561" lon="4.35835">
        <ele>557.5</ele>
        <time>2023-02-19T12:06:53Z</time>
      </trkpt>
      <trkpt lat="45.67562" lon="4.35835">
        <ele>557.5</ele>
        <time>2023-02-19T12:06:54Z</time>
      </trkpt>
      <trkpt lat="45.67565" lon="4.35834">
        <ele>557.5</ele>
        <time>2023-02-19T12:06:55Z</time>
      </trkpt>
      <trkpt lat="45.67566" lon="4.35833">
        <ele>557.5</ele>
        <time>2023-02-19T12:06:56Z</time>
      </trkpt>
      <trkpt lat="45.67569" lon="4.35832">
        <ele>557.6</ele>
        <time>2023-02-19T12:06:58Z</time>
      </trkpt>
      <trkpt lat="45.6757" lon="4.35832">
        <ele>557.6</ele>
        <time>2023-02-19T12:06:59Z</time>
      </trkpt>
      <trkpt lat="45.67572" lon="4.3583">
        <ele>557.7</ele>
        <time>2023-02-19T12:07:01Z</time>
      </trkpt>
      <trkpt lat="45.67573" lon="4.3583">
        <ele>557.7</ele>
        <time>2023-02-19T12:07:02Z</time>
      </trkpt>
      <trkpt lat="45.67573" lon="4.35829">
        <ele>557.7</ele>
        <time>2023-02-19T12:07:03Z</time>
      </trkpt>
      <trkpt lat="45.67575" lon="4.35829">
        <ele>557.8</ele>
        <time>2023-02-19T12:07:04Z</time>
      </trkpt>
      <trkpt lat="45.67576" lon="4.35828">
        <ele>557.8</ele>
        <time>2023-02-19T12:07:05Z</time>
      </trkpt>
      <trkpt lat="45.67578" lon="4.35826">
        <ele>557.9</ele>
        <time>2023-02-19T12:07:06Z</time>
      </trkpt>
      <trkpt lat="45.67579" lon="4.35826">
        <ele>557.9</ele>
        <time>2023-02-19T12:07:07Z</time>
      </trkpt>
      <trkpt lat="45.67579" lon="4.35825">
        <ele>558</ele>
        <time>2023-02-19T12:07:08Z</time>
      </trkpt>
      <trkpt lat="45.6758" lon="4.35824">
        <ele>558</ele>
        <time>2023-02-19T12:07:09Z</time>
      </trkpt>
      <trkpt lat="45.67581" lon="4.35824">
        <ele>558</ele>
        <time>2023-02-19T12:07:10Z</time>
      </trkpt>
      <trkpt lat="45.67582" lon="4.35822">
        <ele>558.1</ele>
        <time>2023-02-19T12:07:11Z</time>
      </trkpt>
      <trkpt lat="45.67582" lon="4.35822">
        <ele>558.2</ele>
        <time>2023-02-19T12:07:13Z</time>
      </trkpt>
      <trkpt lat="45.67583" lon="4.35821">
        <ele>558.2</ele>
        <time>2023-02-19T12:07:14Z</time>
      </trkpt>
      <trkpt lat="45.67584" lon="4.3582">
        <ele>558.3</ele>
        <time>2023-02-19T12:07:15Z</time>
      </trkpt>
      <trkpt lat="45.67585" lon="4.35819">
        <ele>558.4</ele>
        <time>2023-02-19T12:07:16Z</time>
      </trkpt>
      <trkpt lat="45.67587" lon="4.35818">
        <ele>558.5</ele>
        <time>2023-02-19T12:07:17Z</time>
      </trkpt>
      <trkpt lat="45.67588" lon="4.35816">
        <ele>558.6</ele>
        <time>2023-02-19T12:07:18Z</time>
      </trkpt>
      <trkpt lat="45.67589" lon="4.35816">
        <ele>558.7</ele>
        <time>2023-02-19T12:07:19Z</time>
      </trkpt>
      <trkpt lat="45.6759" lon="4.35815">
        <ele>558.7</ele>
        <time>2023-02-19T12:07:20Z</time>
      </trkpt>
      <trkpt lat="45.67592" lon="4.35814">
        <ele>558.9</ele>
        <time>2023-02-19T12:07:21Z</time>
      </trkpt>
      <trkpt lat="45.67593" lon="4.35814">
        <ele>559</ele>
        <time>2023-02-19T12:07:22Z</time>
      </trkpt>
      <trkpt lat="45.67594" lon="4.35814">
        <ele>559.1</ele>
        <time>2023-02-19T12:07:23Z</time>
      </trkpt>
      <trkpt lat="45.67595" lon="4.35813">
        <ele>559.2</ele>
        <time>2023-02-19T12:07:25Z</time>
      </trkpt>
      <trkpt lat="45.67597" lon="4.35813">
        <ele>559.3</ele>
        <time>2023-02-19T12:07:26Z</time>
      </trkpt>
      <trkpt lat="45.67599" lon="4.35812">
        <ele>559.5</ele>
        <time>2023-02-19T12:07:27Z</time>
      </trkpt>
      <trkpt lat="45.676" lon="4.35812">
        <ele>559.6</ele>
        <time>2023-02-19T12:07:28Z</time>
      </trkpt>
      <trkpt lat="45.67601" lon="4.35811">
        <ele>559.7</ele>
        <time>2023-02-19T12:07:29Z</time>
      </trkpt>
      <trkpt lat="45.67604" lon="4.35811">
        <ele>559.9</ele>
        <time>2023-02-19T12:07:30Z</time>
      </trkpt>
      <trkpt lat="45.67605" lon="4.3581">
        <ele>560</ele>
        <time>2023-02-19T12:07:31Z</time>
      </trkpt>
      <trkpt lat="45.67606" lon="4.3581">
        <ele>560.1</ele>
        <time>2023-02-19T12:07:32Z</time>
      </trkpt>
      <trkpt lat="45.67607" lon="4.35809">
        <ele>560.2</ele>
        <time>2023-02-19T12:07:33Z</time>
      </trkpt>
      <trkpt lat="45.67609" lon="4.35808">
        <ele>560.3</ele>
        <time>2023-02-19T12:07:35Z</time>
      </trkpt>
      <trkpt lat="45.6761" lon="4.35808">
        <ele>560.5</ele>
        <time>2023-02-19T12:07:36Z</time>
      </trkpt>
      <trkpt lat="45.67612" lon="4.35807">
        <ele>560.6</ele>
        <time>2023-02-19T12:07:37Z</time>
      </trkpt>
      <trkpt lat="45.67614" lon="4.35805">
        <ele>560.8</ele>
        <time>2023-02-19T12:07:38Z</time>
      </trkpt>
      <trkpt lat="45.67615" lon="4.35804">
        <ele>560.9</ele>
        <time>2023-02-19T12:07:39Z</time>
      </trkpt>
      <trkpt lat="45.67616" lon="4.35803">
        <ele>561</ele>
        <time>2023-02-19T12:07:40Z</time>
      </trkpt>
      <trkpt lat="45.67618" lon="4.35801">
        <ele>561.2</ele>
        <time>2023-02-19T12:07:41Z</time>
      </trkpt>
      <trkpt lat="45.67618" lon="4.358">
        <ele>561.3</ele>
        <time>2023-02-19T12:07:42Z</time>
      </trkpt>
      <trkpt lat="45.67619" lon="4.35799">
        <ele>561.4</ele>
        <time>2023-02-19T12:07:44Z</time>
      </trkpt>
      <trkpt lat="45.6762" lon="4.35797">
        <ele>561.5</ele>
        <time>2023-02-19T12:07:45Z</time>
      </trkpt>
      <trkpt lat="45.67621" lon="4.35796">
        <ele>561.6</ele>
        <time>2023-02-19T12:07:46Z</time>
      </trkpt>
      <trkpt lat="45.67623" lon="4.35794">
        <ele>561.8</ele>
        <time>2023-02-19T12:07:47Z</time>
      </trkpt>
      <trkpt lat="45.67624" lon="4.35792">
        <ele>561.9</ele>
        <time>2023-02-19T12:07:48Z</time>
      </trkpt>
      <trkpt lat="45.67624" lon="4.35791">
        <ele>562</ele>
        <time>2023-02-19T12:07:49Z</time>
      </trkpt>
      <trkpt lat="45.67625" lon="4.3579">
        <ele>562.1</ele>
        <time>2023-02-19T12:07:50Z</time>
      </trkpt>
      <trkpt lat="45.67626" lon="4.35788">
        <ele>562.2</ele>
        <time>2023-02-19T12:07:51Z</time>
      </trkpt>
      <trkpt lat="45.67626" lon="4.35786">
        <ele>562.3</ele>
        <time>2023-02-19T12:07:52Z</time>
      </trkpt>
      <trkpt lat="45.67627" lon="4.35785">
        <ele>562.4</ele>
        <time>2023-02-19T12:07:54Z</time>
      </trkpt>
      <trkpt lat="45.67628" lon="4.35784">
        <ele>562.5</ele>
        <time>2023-02-19T12:07:55Z</time>
      </trkpt>
      <trkpt lat="45.67628" lon="4.35783">
        <ele>562.6</ele>
        <time>2023-02-19T12:07:56Z</time>
      </trkpt>
      <trkpt lat="45.67628" lon="4.35781">
        <ele>562.7</ele>
        <time>2023-02-19T12:07:57Z</time>
      </trkpt>
      <trkpt lat="45.67629" lon="4.3578">
        <ele>562.8</ele>
        <time>2023-02-19T12:07:58Z</time>
      </trkpt>
      <trkpt lat="45.67629" lon="4.35779">
        <ele>562.9</ele>
        <time>2023-02-19T12:08:00Z</time>
      </trkpt>
      <trkpt lat="45.67629" lon="4.35777">
        <ele>563</ele>
        <time>2023-02-19T12:08:01Z</time>
      </trkpt>
      <trkpt lat="45.6763" lon="4.35776">
        <ele>563.1</ele>
        <time>2023-02-19T12:08:02Z</time>
      </trkpt>
      <trkpt lat="45.6763" lon="4.35774">
        <ele>563.2</ele>
        <time>2023-02-19T12:08:03Z</time>
      </trkpt>
      <trkpt lat="45.67631" lon="4.35772">
        <ele>563.3</ele>
        <time>2023-02-19T12:08:05Z</time>
      </trkpt>
      <trkpt lat="45.67631" lon="4.3577">
        <ele>563.4</ele>
        <time>2023-02-19T12:08:06Z</time>
      </trkpt>
      <trkpt lat="45.67631" lon="4.35769">
        <ele>563.5</ele>
        <time>2023-02-19T12:08:07Z</time>
      </trkpt>
      <trkpt lat="45.6763" lon="4.35768">
        <ele>563.6</ele>
        <time>2023-02-19T12:08:08Z</time>
      </trkpt>
      <trkpt lat="45.6763" lon="4.35765">
        <ele>563.7</ele>
        <time>2023-02-19T12:08:09Z</time>
      </trkpt>
      <trkpt lat="45.67629" lon="4.35764">
        <ele>563.8</ele>
        <time>2023-02-19T12:08:11Z</time>
      </trkpt>
      <trkpt lat="45.67629" lon="4.35763">
        <ele>563.9</ele>
        <time>2023-02-19T12:08:12Z</time>
      </trkpt>
      <trkpt lat="45.67628" lon="4.35761">
        <ele>564.1</ele>
        <time>2023-02-19T12:08:13Z</time>
      </trkpt>
      <trkpt lat="45.67627" lon="4.35757">
        <ele>564.3</ele>
        <time>2023-02-19T12:08:15Z</time>
      </trkpt>
      <trkpt lat="45.67627" lon="4.35754">
        <ele>564.6</ele>
        <time>2023-02-19T12:08:17Z</time>
      </trkpt>
      <trkpt lat="45.67627" lon="4.35752">
        <ele>564.7</ele>
        <time>2023-02-19T12:08:18Z</time>
      </trkpt>
      <trkpt lat="45.67627" lon="4.3575">
        <ele>564.9</ele>
        <time>2023-02-19T12:08:20Z</time>
      </trkpt>
      <trkpt lat="45.67628" lon="4.35748">
        <ele>565</ele>
        <time>2023-02-19T12:08:21Z</time>
      </trkpt>
      <trkpt lat="45.67629" lon="4.35745">
        <ele>565.3</ele>
        <time>2023-02-19T12:08:22Z</time>
      </trkpt>
      <trkpt lat="45.6763" lon="4.35742">
        <ele>565.6</ele>
        <time>2023-02-19T12:08:24Z</time>
      </trkpt>
      <trkpt lat="45.6763" lon="4.35741">
        <ele>565.7</ele>
        <time>2023-02-19T12:08:25Z</time>
      </trkpt>
      <trkpt lat="45.67631" lon="4.3574">
        <ele>565.8</ele>
        <time>2023-02-19T12:08:26Z</time>
      </trkpt>
      <trkpt lat="45.67632" lon="4.35737">
        <ele>566.1</ele>
        <time>2023-02-19T12:08:27Z</time>
      </trkpt>
      <trkpt lat="45.67633" lon="4.35736">
        <ele>566.2</ele>
        <time>2023-02-19T12:08:28Z</time>
      </trkpt>
      <trkpt lat="45.67633" lon="4.35734">
        <ele>566.4</ele>
        <time>2023-02-19T12:08:29Z</time>
      </trkpt>
      <trkpt lat="45.67634" lon="4.35732">
        <ele>566.6</ele>
        <time>2023-02-19T12:08:31Z</time>
      </trkpt>
      <trkpt lat="45.67634" lon="4.3573">
        <ele>566.8</ele>
        <time>2023-02-19T12:08:32Z</time>
      </trkpt>
      <trkpt lat="45.67635" lon="4.35729">
        <ele>566.9</ele>
        <time>2023-02-19T12:08:33Z</time>
      </trkpt>
      <trkpt lat="45.67635" lon="4.35727">
        <ele>567</ele>
        <time>2023-02-19T12:08:34Z</time>
      </trkpt>
      <trkpt lat="45.67636" lon="4.35727">
        <ele>567.1</ele>
        <time>2023-02-19T12:08:35Z</time>
      </trkpt>
      <trkpt lat="45.67636" lon="4.35725">
        <ele>567.2</ele>
        <time>2023-02-19T12:08:36Z</time>
      </trkpt>
      <trkpt lat="45.67637" lon="4.35723">
        <ele>567.4</ele>
        <time>2023-02-19T12:08:37Z</time>
      </trkpt>
      <trkpt lat="45.67638" lon="4.35721">
        <ele>567.6</ele>
        <time>2023-02-19T12:08:38Z</time>
      </trkpt>
      <trkpt lat="45.67638" lon="4.35719">
        <ele>567.7</ele>
        <time>2023-02-19T12:08:39Z</time>
      </trkpt>
      <trkpt lat="45.67639" lon="4.35718">
        <ele>567.8</ele>
        <time>2023-02-19T12:08:40Z</time>
      </trkpt>
      <trkpt lat="45.67639" lon="4.35716">
        <ele>568</ele>
        <time>2023-02-19T12:08:42Z</time>
      </trkpt>
      <trkpt lat="45.6764" lon="4.35714">
        <ele>568.2</ele>
        <time>2023-02-19T12:08:43Z</time>
      </trkpt>
      <trkpt lat="45.67641" lon="4.35713">
        <ele>568.3</ele>
        <time>2023-02-19T12:08:44Z</time>
      </trkpt>
      <trkpt lat="45.67641" lon="4.35711">
        <ele>568.5</ele>
        <time>2023-02-19T12:08:45Z</time>
      </trkpt>
      <trkpt lat="45.67642" lon="4.3571">
        <ele>568.5</ele>
        <time>2023-02-19T12:08:46Z</time>
      </trkpt>
      <trkpt lat="45.67643" lon="4.35708">
        <ele>568.7</ele>
        <time>2023-02-19T12:08:47Z</time>
      </trkpt>
      <trkpt lat="45.67644" lon="4.35706">
        <ele>568.9</ele>
        <time>2023-02-19T12:08:48Z</time>
      </trkpt>
      <trkpt lat="45.67645" lon="4.35703">
        <ele>569.1</ele>
        <time>2023-02-19T12:08:50Z</time>
      </trkpt>
      <trkpt lat="45.67645" lon="4.35702">
        <ele>569.2</ele>
        <time>2023-02-19T12:08:51Z</time>
      </trkpt>
      <trkpt lat="45.67645" lon="4.35701">
        <ele>569.3</ele>
        <time>2023-02-19T12:08:52Z</time>
      </trkpt>
      <trkpt lat="45.67646" lon="4.357">
        <ele>569.4</ele>
        <time>2023-02-19T12:08:53Z</time>
      </trkpt>
      <trkpt lat="45.67646" lon="4.35698">
        <ele>569.5</ele>
        <time>2023-02-19T12:08:54Z</time>
      </trkpt>
      <trkpt lat="45.67647" lon="4.35697">
        <ele>569.6</ele>
        <time>2023-02-19T12:08:56Z</time>
      </trkpt>
      <trkpt lat="45.67648" lon="4.35694">
        <ele>569.8</ele>
        <time>2023-02-19T12:08:57Z</time>
      </trkpt>
      <trkpt lat="45.67649" lon="4.35693">
        <ele>569.9</ele>
        <time>2023-02-19T12:08:58Z</time>
      </trkpt>
      <trkpt lat="45.6765" lon="4.35692">
        <ele>570</ele>
        <time>2023-02-19T12:08:59Z</time>
      </trkpt>
      <trkpt lat="45.67651" lon="4.35691">
        <ele>570.1</ele>
        <time>2023-02-19T12:09:00Z</time>
      </trkpt>
      <trkpt lat="45.67652" lon="4.3569">
        <ele>570.2</ele>
        <time>2023-02-19T12:09:02Z</time>
      </trkpt>
      <trkpt lat="45.67653" lon="4.35688">
        <ele>570.4</ele>
        <time>2023-02-19T12:09:03Z</time>
      </trkpt>
      <trkpt lat="45.67654" lon="4.35687">
        <ele>570.5</ele>
        <time>2023-02-19T12:09:04Z</time>
      </trkpt>
      <trkpt lat="45.67654" lon="4.35686">
        <ele>570.6</ele>
        <time>2023-02-19T12:09:05Z</time>
      </trkpt>
      <trkpt lat="45.67656" lon="4.35684">
        <ele>570.7</ele>
        <time>2023-02-19T12:09:06Z</time>
      </trkpt>
      <trkpt lat="45.67656" lon="4.35683">
        <ele>570.8</ele>
        <time>2023-02-19T12:09:07Z</time>
      </trkpt>
      <trkpt lat="45.67657" lon="4.35681">
        <ele>570.9</ele>
        <time>2023-02-19T12:09:08Z</time>
      </trkpt>
      <trkpt lat="45.67658" lon="4.35679">
        <ele>571.1</ele>
        <time>2023-02-19T12:09:09Z</time>
      </trkpt>
      <trkpt lat="45.67658" lon="4.35678">
        <ele>571.2</ele>
        <time>2023-02-19T12:09:10Z</time>
      </trkpt>
      <trkpt lat="45.67659" lon="4.35677">
        <ele>571.3</ele>
        <time>2023-02-19T12:09:11Z</time>
      </trkpt>
      <trkpt lat="45.6766" lon="4.35675">
        <ele>571.4</ele>
        <time>2023-02-19T12:09:13Z</time>
      </trkpt>
      <trkpt lat="45.6766" lon="4.35673">
        <ele>571.5</ele>
        <time>2023-02-19T12:09:14Z</time>
      </trkpt>
      <trkpt lat="45.67661" lon="4.35671">
        <ele>571.7</ele>
        <time>2023-02-19T12:09:15Z</time>
      </trkpt>
      <trkpt lat="45.67661" lon="4.35669">
        <ele>571.8</ele>
        <time>2023-02-19T12:09:16Z</time>
      </trkpt>
      <trkpt lat="45.67662" lon="4.35667">
        <ele>572</ele>
        <time>2023-02-19T12:09:17Z</time>
      </trkpt>
      <trkpt lat="45.67663" lon="4.35665">
        <ele>572.1</ele>
        <time>2023-02-19T12:09:18Z</time>
      </trkpt>
      <trkpt lat="45.67664" lon="4.35662">
        <ele>572.3</ele>
        <time>2023-02-19T12:09:19Z</time>
      </trkpt>
      <trkpt lat="45.67664" lon="4.35661">
        <ele>572.4</ele>
        <time>2023-02-19T12:09:20Z</time>
      </trkpt>
      <trkpt lat="45.67664" lon="4.3566">
        <ele>572.4</ele>
        <time>2023-02-19T12:09:21Z</time>
      </trkpt>
      <trkpt lat="45.67665" lon="4.35658">
        <ele>572.5</ele>
        <time>2023-02-19T12:09:22Z</time>
      </trkpt>
      <trkpt lat="45.67665" lon="4.35656">
        <ele>572.6</ele>
        <time>2023-02-19T12:09:23Z</time>
      </trkpt>
      <trkpt lat="45.67666" lon="4.35654">
        <ele>572.7</ele>
        <time>2023-02-19T12:09:25Z</time>
      </trkpt>
      <trkpt lat="45.67666" lon="4.35652">
        <ele>572.9</ele>
        <time>2023-02-19T12:09:26Z</time>
      </trkpt>
      <trkpt lat="45.67667" lon="4.3565">
        <ele>573</ele>
        <time>2023-02-19T12:09:27Z</time>
      </trkpt>
      <trkpt lat="45.67668" lon="4.35647">
        <ele>573.1</ele>
        <time>2023-02-19T12:09:29Z</time>
      </trkpt>
      <trkpt lat="45.67668" lon="4.35646">
        <ele>573.2</ele>
        <time>2023-02-19T12:09:30Z</time>
      </trkpt>
      <trkpt lat="45.67669" lon="4.35645">
        <ele>573.2</ele>
        <time>2023-02-19T12:09:31Z</time>
      </trkpt>
      <trkpt lat="45.67669" lon="4.35643">
        <ele>573.3</ele>
        <time>2023-02-19T12:09:32Z</time>
      </trkpt>
      <trkpt lat="45.6767" lon="4.35641">
        <ele>573.2</ele>
        <time>2023-02-19T12:09:33Z</time>
      </trkpt>
      <trkpt lat="45.67671" lon="4.35639">
        <ele>573.1</ele>
        <time>2023-02-19T12:09:34Z</time>
      </trkpt>
      <trkpt lat="45.67672" lon="4.35638">
        <ele>573</ele>
        <time>2023-02-19T12:09:35Z</time>
      </trkpt>
      <trkpt lat="45.67673" lon="4.35637">
        <ele>572.9</ele>
        <time>2023-02-19T12:09:36Z</time>
      </trkpt>
      <trkpt lat="45.67675" lon="4.35636">
        <ele>572.8</ele>
        <time>2023-02-19T12:09:38Z</time>
      </trkpt>
      <trkpt lat="45.67678" lon="4.35635">
        <ele>572.7</ele>
        <time>2023-02-19T12:09:39Z</time>
      </trkpt>
      <trkpt lat="45.6768" lon="4.35636">
        <ele>572.6</ele>
        <time>2023-02-19T12:09:41Z</time>
      </trkpt>
      <trkpt lat="45.67681" lon="4.35636">
        <ele>572.5</ele>
        <time>2023-02-19T12:09:42Z</time>
      </trkpt>
      <trkpt lat="45.67683" lon="4.35637">
        <ele>572.4</ele>
        <time>2023-02-19T12:09:43Z</time>
      </trkpt>
      <trkpt lat="45.67685" lon="4.35637">
        <ele>572.3</ele>
        <time>2023-02-19T12:09:44Z</time>
      </trkpt>
      <trkpt lat="45.67686" lon="4.35637">
        <ele>572.3</ele>
        <time>2023-02-19T12:09:45Z</time>
      </trkpt>
      <trkpt lat="45.67687" lon="4.35637">
        <ele>572.3</ele>
        <time>2023-02-19T12:09:46Z</time>
      </trkpt>
      <trkpt lat="45.67688" lon="4.35637">
        <ele>572.2</ele>
        <time>2023-02-19T12:09:47Z</time>
      </trkpt>
      <trkpt lat="45.67689" lon="4.35637">
        <ele>572.2</ele>
        <time>2023-02-19T12:09:48Z</time>
      </trkpt>
      <trkpt lat="45.6769" lon="4.35636">
        <ele>572.1</ele>
        <time>2023-02-19T12:09:50Z</time>
      </trkpt>
      <trkpt lat="45.67691" lon="4.35635">
        <ele>572.1</ele>
        <time>2023-02-19T12:09:51Z</time>
      </trkpt>
      <trkpt lat="45.67692" lon="4.35634">
        <ele>572.1</ele>
        <time>2023-02-19T12:09:52Z</time>
      </trkpt>
      <trkpt lat="45.67693" lon="4.35634">
        <ele>572</ele>
        <time>2023-02-19T12:09:53Z</time>
      </trkpt>
      <trkpt lat="45.67693" lon="4.35634">
        <ele>572</ele>
        <time>2023-02-19T12:09:54Z</time>
      </trkpt>
      <trkpt lat="45.67695" lon="4.35633">
        <ele>572</ele>
        <time>2023-02-19T12:09:56Z</time>
      </trkpt>
      <trkpt lat="45.67696" lon="4.35633">
        <ele>571.9</ele>
        <time>2023-02-19T12:09:57Z</time>
      </trkpt>
      <trkpt lat="45.67697" lon="4.35633">
        <ele>571.9</ele>
        <time>2023-02-19T12:09:58Z</time>
      </trkpt>
      <trkpt lat="45.67698" lon="4.35633">
        <ele>571.9</ele>
        <time>2023-02-19T12:10:00Z</time>
      </trkpt>
      <trkpt lat="45.677" lon="4.35633">
        <ele>571.8</ele>
        <time>2023-02-19T12:10:01Z</time>
      </trkpt>
      <trkpt lat="45.67702" lon="4.35632">
        <ele>571.7</ele>
        <time>2023-02-19T12:10:03Z</time>
      </trkpt>
      <trkpt lat="45.67703" lon="4.35632">
        <ele>571.7</ele>
        <time>2023-02-19T12:10:04Z</time>
      </trkpt>
      <trkpt lat="45.67703" lon="4.35632">
        <ele>571.7</ele>
        <time>2023-02-19T12:10:05Z</time>
      </trkpt>
      <trkpt lat="45.67706" lon="4.35632">
        <ele>571.6</ele>
        <time>2023-02-19T12:10:06Z</time>
      </trkpt>
      <trkpt lat="45.67707" lon="4.35631">
        <ele>571.6</ele>
        <time>2023-02-19T12:10:07Z</time>
      </trkpt>
      <trkpt lat="45.67707" lon="4.35631">
        <ele>571.6</ele>
        <time>2023-02-19T12:10:08Z</time>
      </trkpt>
      <trkpt lat="45.67709" lon="4.35631">
        <ele>571.5</ele>
        <time>2023-02-19T12:10:09Z</time>
      </trkpt>
      <trkpt lat="45.6771" lon="4.3563">
        <ele>571.5</ele>
        <time>2023-02-19T12:10:10Z</time>
      </trkpt>
      <trkpt lat="45.67711" lon="4.3563">
        <ele>571.4</ele>
        <time>2023-02-19T12:10:12Z</time>
      </trkpt>
      <trkpt lat="45.67713" lon="4.35629">
        <ele>571.4</ele>
        <time>2023-02-19T12:10:13Z</time>
      </trkpt>
      <trkpt lat="45.67714" lon="4.35629">
        <ele>571.4</ele>
        <time>2023-02-19T12:10:14Z</time>
      </trkpt>
      <trkpt lat="45.67715" lon="4.35629">
        <ele>571.3</ele>
        <time>2023-02-19T12:10:15Z</time>
      </trkpt>
      <trkpt lat="45.67716" lon="4.35629">
        <ele>571.3</ele>
        <time>2023-02-19T12:10:16Z</time>
      </trkpt>
      <trkpt lat="45.67719" lon="4.3563">
        <ele>571.2</ele>
        <time>2023-02-19T12:10:18Z</time>
      </trkpt>
      <trkpt lat="45.6772" lon="4.3563">
        <ele>571.1</ele>
        <time>2023-02-19T12:10:20Z</time>
      </trkpt>
      <trkpt lat="45.67722" lon="4.3563">
        <ele>571.1</ele>
        <time>2023-02-19T12:10:21Z</time>
      </trkpt>
      <trkpt lat="45.67723" lon="4.35631">
        <ele>571</ele>
        <time>2023-02-19T12:10:22Z</time>
      </trkpt>
      <trkpt lat="45.67725" lon="4.35631">
        <ele>571</ele>
        <time>2023-02-19T12:10:23Z</time>
      </trkpt>
      <trkpt lat="45.67726" lon="4.35631">
        <ele>570.9</ele>
        <time>2023-02-19T12:10:24Z</time>
      </trkpt>
      <trkpt lat="45.67728" lon="4.35632">
        <ele>570.9</ele>
        <time>2023-02-19T12:10:25Z</time>
      </trkpt>
      <trkpt lat="45.67729" lon="4.35632">
        <ele>570.8</ele>
        <time>2023-02-19T12:10:26Z</time>
      </trkpt>
      <trkpt lat="45.6773" lon="4.35632">
        <ele>570.8</ele>
        <time>2023-02-19T12:10:27Z</time>
      </trkpt>
      <trkpt lat="45.67732" lon="4.35632">
        <ele>570.7</ele>
        <time>2023-02-19T12:10:28Z</time>
      </trkpt>
      <trkpt lat="45.67733" lon="4.35632">
        <ele>570.7</ele>
        <time>2023-02-19T12:10:29Z</time>
      </trkpt>
      <trkpt lat="45.67734" lon="4.35632">
        <ele>570.6</ele>
        <time>2023-02-19T12:10:30Z</time>
      </trkpt>
      <trkpt lat="45.67735" lon="4.35631">
        <ele>570.6</ele>
        <time>2023-02-19T12:10:31Z</time>
      </trkpt>
      <trkpt lat="45.67736" lon="4.35631">
        <ele>570.6</ele>
        <time>2023-02-19T12:10:32Z</time>
      </trkpt>
      <trkpt lat="45.67738" lon="4.35631">
        <ele>570.5</ele>
        <time>2023-02-19T12:10:34Z</time>
      </trkpt>
      <trkpt lat="45.67739" lon="4.3563">
        <ele>570.5</ele>
        <time>2023-02-19T12:10:35Z</time>
      </trkpt>
      <trkpt lat="45.6774" lon="4.3563">
        <ele>570.4</ele>
        <time>2023-02-19T12:10:36Z</time>
      </trkpt>
      <trkpt lat="45.67742" lon="4.35629">
        <ele>570.4</ele>
        <time>2023-02-19T12:10:38Z</time>
      </trkpt>
      <trkpt lat="45.67742" lon="4.35629">
        <ele>570.3</ele>
        <time>2023-02-19T12:10:39Z</time>
      </trkpt>
      <trkpt lat="45.67744" lon="4.35628">
        <ele>570.3</ele>
        <time>2023-02-19T12:10:40Z</time>
      </trkpt>
      <trkpt lat="45.67745" lon="4.35628">
        <ele>570.3</ele>
        <time>2023-02-19T12:10:41Z</time>
      </trkpt>
      <trkpt lat="45.67746" lon="4.35627">
        <ele>569.8</ele>
        <time>2023-02-19T12:10:42Z</time>
      </trkpt>
      <trkpt lat="45.67747" lon="4.35626">
        <ele>569.6</ele>
        <time>2023-02-19T12:10:43Z</time>
      </trkpt>
      <trkpt lat="45.67749" lon="4.35625">
        <ele>569.3</ele>
        <time>2023-02-19T12:10:44Z</time>
      </trkpt>
      <trkpt lat="45.6775" lon="4.35624">
        <ele>569.1</ele>
        <time>2023-02-19T12:10:45Z</time>
      </trkpt>
      <trkpt lat="45.67751" lon="4.35624">
        <ele>569</ele>
        <time>2023-02-19T12:10:46Z</time>
      </trkpt>
      <trkpt lat="45.67752" lon="4.35623">
        <ele>568.8</ele>
        <time>2023-02-19T12:10:47Z</time>
      </trkpt>
      <trkpt lat="45.67753" lon="4.35622">
        <ele>568.6</ele>
        <time>2023-02-19T12:10:48Z</time>
      </trkpt>
      <trkpt lat="45.67755" lon="4.3562">
        <ele>568.3</ele>
        <time>2023-02-19T12:10:49Z</time>
      </trkpt>
      <trkpt lat="45.67756" lon="4.35618">
        <ele>568</ele>
        <time>2023-02-19T12:10:51Z</time>
      </trkpt>
      <trkpt lat="45.67757" lon="4.35616">
        <ele>567.8</ele>
        <time>2023-02-19T12:10:52Z</time>
      </trkpt>
      <trkpt lat="45.67758" lon="4.35614">
        <ele>567.7</ele>
        <time>2023-02-19T12:10:53Z</time>
      </trkpt>
      <trkpt lat="45.67758" lon="4.35612">
        <ele>567.4</ele>
        <time>2023-02-19T12:10:54Z</time>
      </trkpt>
      <trkpt lat="45.67759" lon="4.3561">
        <ele>567.3</ele>
        <time>2023-02-19T12:10:56Z</time>
      </trkpt>
      <trkpt lat="45.67759" lon="4.35608">
        <ele>567.2</ele>
        <time>2023-02-19T12:10:57Z</time>
      </trkpt>
      <trkpt lat="45.67759" lon="4.35606">
        <ele>567.2</ele>
        <time>2023-02-19T12:10:58Z</time>
      </trkpt>
      <trkpt lat="45.6776" lon="4.35604">
        <ele>567.1</ele>
        <time>2023-02-19T12:11:00Z</time>
      </trkpt>
      <trkpt lat="45.6776" lon="4.35602">
        <ele>567</ele>
        <time>2023-02-19T12:11:01Z</time>
      </trkpt>
      <trkpt lat="45.6776" lon="4.356">
        <ele>566.9</ele>
        <time>2023-02-19T12:11:02Z</time>
      </trkpt>
      <trkpt lat="45.67761" lon="4.35598">
        <ele>566.8</ele>
        <time>2023-02-19T12:11:03Z</time>
      </trkpt>
      <trkpt lat="45.67761" lon="4.35596">
        <ele>566.7</ele>
        <time>2023-02-19T12:11:04Z</time>
      </trkpt>
      <trkpt lat="45.67761" lon="4.35594">
        <ele>566.6</ele>
        <time>2023-02-19T12:11:05Z</time>
      </trkpt>
      <trkpt lat="45.67762" lon="4.35591">
        <ele>566.5</ele>
        <time>2023-02-19T12:11:07Z</time>
      </trkpt>
      <trkpt lat="45.67762" lon="4.35589">
        <ele>566.3</ele>
        <time>2023-02-19T12:11:08Z</time>
      </trkpt>
      <trkpt lat="45.67762" lon="4.35587">
        <ele>566.3</ele>
        <time>2023-02-19T12:11:09Z</time>
      </trkpt>
      <trkpt lat="45.67762" lon="4.35585">
        <ele>566.1</ele>
        <time>2023-02-19T12:11:10Z</time>
      </trkpt>
      <trkpt lat="45.67763" lon="4.35583">
        <ele>566</ele>
        <time>2023-02-19T12:11:11Z</time>
      </trkpt>
      <trkpt lat="45.67763" lon="4.35581">
        <ele>565.9</ele>
        <time>2023-02-19T12:11:12Z</time>
      </trkpt>
      <trkpt lat="45.67763" lon="4.35579">
        <ele>565.8</ele>
        <time>2023-02-19T12:11:13Z</time>
      </trkpt>
      <trkpt lat="45.67763" lon="4.35577">
        <ele>565.7</ele>
        <time>2023-02-19T12:11:14Z</time>
      </trkpt>
      <trkpt lat="45.67763" lon="4.35575">
        <ele>565.5</ele>
        <time>2023-02-19T12:11:15Z</time>
      </trkpt>
      <trkpt lat="45.67763" lon="4.35573">
        <ele>565.2</ele>
        <time>2023-02-19T12:11:17Z</time>
      </trkpt>
      <trkpt lat="45.67763" lon="4.35571">
        <ele>565</ele>
        <time>2023-02-19T12:11:18Z</time>
      </trkpt>
      <trkpt lat="45.67763" lon="4.3557">
        <ele>564.9</ele>
        <time>2023-02-19T12:11:19Z</time>
      </trkpt>
      <trkpt lat="45.67764" lon="4.35568">
        <ele>564.7</ele>
        <time>2023-02-19T12:11:20Z</time>
      </trkpt>
      <trkpt lat="45.67764" lon="4.35565">
        <ele>564.3</ele>
        <time>2023-02-19T12:11:21Z</time>
      </trkpt>
      <trkpt lat="45.67764" lon="4.35563">
        <ele>564.1</ele>
        <time>2023-02-19T12:11:22Z</time>
      </trkpt>
      <trkpt lat="45.67765" lon="4.35562">
        <ele>564</ele>
        <time>2023-02-19T12:11:23Z</time>
      </trkpt>
      <trkpt lat="45.67765" lon="4.3556">
        <ele>563.8</ele>
        <time>2023-02-19T12:11:24Z</time>
      </trkpt>
      <trkpt lat="45.67766" lon="4.35558">
        <ele>563.6</ele>
        <time>2023-02-19T12:11:25Z</time>
      </trkpt>
      <trkpt lat="45.67766" lon="4.35556">
        <ele>563.3</ele>
        <time>2023-02-19T12:11:27Z</time>
      </trkpt>
      <trkpt lat="45.67768" lon="4.35554">
        <ele>562.9</ele>
        <time>2023-02-19T12:11:28Z</time>
      </trkpt>
      <trkpt lat="45.67769" lon="4.35553">
        <ele>562.8</ele>
        <time>2023-02-19T12:11:29Z</time>
      </trkpt>
      <trkpt lat="45.67769" lon="4.35552">
        <ele>562.7</ele>
        <time>2023-02-19T12:11:30Z</time>
      </trkpt>
      <trkpt lat="45.6777" lon="4.35552">
        <ele>562.6</ele>
        <time>2023-02-19T12:11:31Z</time>
      </trkpt>
      <trkpt lat="45.67771" lon="4.3555">
        <ele>562.3</ele>
        <time>2023-02-19T12:11:33Z</time>
      </trkpt>
      <trkpt lat="45.67771" lon="4.35549">
        <ele>562.2</ele>
        <time>2023-02-19T12:11:34Z</time>
      </trkpt>
      <trkpt lat="45.67772" lon="4.35548">
        <ele>562.1</ele>
        <time>2023-02-19T12:11:35Z</time>
      </trkpt>
      <trkpt lat="45.67773" lon="4.35546">
        <ele>561.9</ele>
        <time>2023-02-19T12:11:36Z</time>
      </trkpt>
      <trkpt lat="45.67773" lon="4.35545">
        <ele>561.8</ele>
        <time>2023-02-19T12:11:37Z</time>
      </trkpt>
      <trkpt lat="45.67774" lon="4.35543">
        <ele>561.5</ele>
        <time>2023-02-19T12:11:38Z</time>
      </trkpt>
      <trkpt lat="45.67775" lon="4.35541">
        <ele>561.3</ele>
        <time>2023-02-19T12:11:39Z</time>
      </trkpt>
      <trkpt lat="45.67776" lon="4.35538">
        <ele>561</ele>
        <time>2023-02-19T12:11:40Z</time>
      </trkpt>
      <trkpt lat="45.67776" lon="4.35536">
        <ele>560.9</ele>
        <time>2023-02-19T12:11:41Z</time>
      </trkpt>
      <trkpt lat="45.67777" lon="4.35535">
        <ele>560.8</ele>
        <time>2023-02-19T12:11:42Z</time>
      </trkpt>
      <trkpt lat="45.67777" lon="4.35534">
        <ele>560.7</ele>
        <time>2023-02-19T12:11:43Z</time>
      </trkpt>
      <trkpt lat="45.67778" lon="4.35533">
        <ele>560.6</ele>
        <time>2023-02-19T12:11:44Z</time>
      </trkpt>
      <trkpt lat="45.6778" lon="4.35532">
        <ele>560.3</ele>
        <time>2023-02-19T12:11:46Z</time>
      </trkpt>
      <trkpt lat="45.67781" lon="4.3553">
        <ele>560.1</ele>
        <time>2023-02-19T12:11:47Z</time>
      </trkpt>
      <trkpt lat="45.67782" lon="4.3553">
        <ele>560</ele>
        <time>2023-02-19T12:11:48Z</time>
      </trkpt>
      <trkpt lat="45.67783" lon="4.35529">
        <ele>559.9</ele>
        <time>2023-02-19T12:11:49Z</time>
      </trkpt>
      <trkpt lat="45.67784" lon="4.35527">
        <ele>559.8</ele>
        <time>2023-02-19T12:11:51Z</time>
      </trkpt>
      <trkpt lat="45.67786" lon="4.35526">
        <ele>559.6</ele>
        <time>2023-02-19T12:11:52Z</time>
      </trkpt>
      <trkpt lat="45.67787" lon="4.35525">
        <ele>559.5</ele>
        <time>2023-02-19T12:11:53Z</time>
      </trkpt>
      <trkpt lat="45.67789" lon="4.35523">
        <ele>559.3</ele>
        <time>2023-02-19T12:11:54Z</time>
      </trkpt>
      <trkpt lat="45.67789" lon="4.35523">
        <ele>559.3</ele>
        <time>2023-02-19T12:11:55Z</time>
      </trkpt>
      <trkpt lat="45.6779" lon="4.35522">
        <ele>559.2</ele>
        <time>2023-02-19T12:11:56Z</time>
      </trkpt>
      <trkpt lat="45.67791" lon="4.3552">
        <ele>559.1</ele>
        <time>2023-02-19T12:11:57Z</time>
      </trkpt>
      <trkpt lat="45.67792" lon="4.35518">
        <ele>559</ele>
        <time>2023-02-19T12:11:58Z</time>
      </trkpt>
      <trkpt lat="45.67793" lon="4.35515">
        <ele>558.8</ele>
        <time>2023-02-19T12:12:00Z</time>
      </trkpt>
      <trkpt lat="45.67794" lon="4.35514">
        <ele>558.7</ele>
        <time>2023-02-19T12:12:01Z</time>
      </trkpt>
      <trkpt lat="45.67795" lon="4.35513">
        <ele>558.6</ele>
        <time>2023-02-19T12:12:02Z</time>
      </trkpt>
      <trkpt lat="45.67796" lon="4.35511">
        <ele>558.5</ele>
        <time>2023-02-19T12:12:03Z</time>
      </trkpt>
      <trkpt lat="45.67798" lon="4.35509">
        <ele>558.3</ele>
        <time>2023-02-19T12:12:04Z</time>
      </trkpt>
      <trkpt lat="45.67799" lon="4.35508">
        <ele>558.2</ele>
        <time>2023-02-19T12:12:05Z</time>
      </trkpt>
      <trkpt lat="45.678" lon="4.35506">
        <ele>558.1</ele>
        <time>2023-02-19T12:12:06Z</time>
      </trkpt>
      <trkpt lat="45.67801" lon="4.35505">
        <ele>558</ele>
        <time>2023-02-19T12:12:07Z</time>
      </trkpt>
      <trkpt lat="45.67803" lon="4.35502">
        <ele>557.7</ele>
        <time>2023-02-19T12:12:08Z</time>
      </trkpt>
      <trkpt lat="45.67804" lon="4.35501">
        <ele>557.7</ele>
        <time>2023-02-19T12:12:09Z</time>
      </trkpt>
      <trkpt lat="45.67806" lon="4.35497">
        <ele>557.4</ele>
        <time>2023-02-19T12:12:11Z</time>
      </trkpt>
      <trkpt lat="45.67806" lon="4.35497">
        <ele>557.4</ele>
        <time>2023-02-19T12:12:12Z</time>
      </trkpt>
      <trkpt lat="45.67808" lon="4.35494">
        <ele>557.2</ele>
        <time>2023-02-19T12:12:13Z</time>
      </trkpt>
      <trkpt lat="45.67809" lon="4.35493">
        <ele>557.1</ele>
        <time>2023-02-19T12:12:14Z</time>
      </trkpt>
      <trkpt lat="45.6781" lon="4.35493">
        <ele>557.1</ele>
        <time>2023-02-19T12:12:15Z</time>
      </trkpt>
      <trkpt lat="45.67811" lon="4.35491">
        <ele>557</ele>
        <time>2023-02-19T12:12:17Z</time>
      </trkpt>
      <trkpt lat="45.67812" lon="4.3549">
        <ele>556.9</ele>
        <time>2023-02-19T12:12:18Z</time>
      </trkpt>
      <trkpt lat="45.67814" lon="4.35487">
        <ele>556.7</ele>
        <time>2023-02-19T12:12:19Z</time>
      </trkpt>
      <trkpt lat="45.67815" lon="4.35485">
        <ele>556.6</ele>
        <time>2023-02-19T12:12:21Z</time>
      </trkpt>
      <trkpt lat="45.67816" lon="4.35484">
        <ele>556.5</ele>
        <time>2023-02-19T12:12:22Z</time>
      </trkpt>
      <trkpt lat="45.67816" lon="4.35483">
        <ele>556.5</ele>
        <time>2023-02-19T12:12:23Z</time>
      </trkpt>
      <trkpt lat="45.67818" lon="4.35479">
        <ele>556.3</ele>
        <time>2023-02-19T12:12:24Z</time>
      </trkpt>
      <trkpt lat="45.67819" lon="4.35478">
        <ele>556.2</ele>
        <time>2023-02-19T12:12:25Z</time>
      </trkpt>
      <trkpt lat="45.6782" lon="4.35475">
        <ele>556</ele>
        <time>2023-02-19T12:12:26Z</time>
      </trkpt>
      <trkpt lat="45.6782" lon="4.35473">
        <ele>556</ele>
        <time>2023-02-19T12:12:27Z</time>
      </trkpt>
      <trkpt lat="45.67821" lon="4.35472">
        <ele>555.9</ele>
        <time>2023-02-19T12:12:28Z</time>
      </trkpt>
      <trkpt lat="45.67822" lon="4.3547">
        <ele>555.8</ele>
        <time>2023-02-19T12:12:29Z</time>
      </trkpt>
      <trkpt lat="45.67822" lon="4.35467">
        <ele>555.6</ele>
        <time>2023-02-19T12:12:30Z</time>
      </trkpt>
      <trkpt lat="45.67823" lon="4.35464">
        <ele>555.5</ele>
        <time>2023-02-19T12:12:31Z</time>
      </trkpt>
      <trkpt lat="45.67824" lon="4.35463">
        <ele>555.4</ele>
        <time>2023-02-19T12:12:32Z</time>
      </trkpt>
      <trkpt lat="45.67824" lon="4.35461">
        <ele>555.3</ele>
        <time>2023-02-19T12:12:33Z</time>
      </trkpt>
      <trkpt lat="45.67826" lon="4.35458">
        <ele>555.1</ele>
        <time>2023-02-19T12:12:35Z</time>
      </trkpt>
      <trkpt lat="45.67826" lon="4.35456">
        <ele>555</ele>
        <time>2023-02-19T12:12:36Z</time>
      </trkpt>
      <trkpt lat="45.67827" lon="4.35454">
        <ele>554.9</ele>
        <time>2023-02-19T12:12:37Z</time>
      </trkpt>
      <trkpt lat="45.67828" lon="4.35453">
        <ele>554.8</ele>
        <time>2023-02-19T12:12:38Z</time>
      </trkpt>
      <trkpt lat="45.67829" lon="4.35452">
        <ele>554.8</ele>
        <time>2023-02-19T12:12:39Z</time>
      </trkpt>
      <trkpt lat="45.6783" lon="4.35451">
        <ele>554.7</ele>
        <time>2023-02-19T12:12:40Z</time>
      </trkpt>
      <trkpt lat="45.67833" lon="4.35448">
        <ele>554.4</ele>
        <time>2023-02-19T12:12:42Z</time>
      </trkpt>
      <trkpt lat="45.67833" lon="4.35447">
        <ele>554.4</ele>
        <time>2023-02-19T12:12:43Z</time>
      </trkpt>
      <trkpt lat="45.67834" lon="4.35446">
        <ele>554.3</ele>
        <time>2023-02-19T12:12:44Z</time>
      </trkpt>
      <trkpt lat="45.67835" lon="4.35444">
        <ele>554.2</ele>
        <time>2023-02-19T12:12:46Z</time>
      </trkpt>
      <trkpt lat="45.67837" lon="4.35442">
        <ele>554.1</ele>
        <time>2023-02-19T12:12:47Z</time>
      </trkpt>
      <trkpt lat="45.67837" lon="4.35441">
        <ele>554</ele>
        <time>2023-02-19T12:12:48Z</time>
      </trkpt>
      <trkpt lat="45.67838" lon="4.35439">
        <ele>553.9</ele>
        <time>2023-02-19T12:12:49Z</time>
      </trkpt>
      <trkpt lat="45.67839" lon="4.35437">
        <ele>553.9</ele>
        <time>2023-02-19T12:12:50Z</time>
      </trkpt>
      <trkpt lat="45.6784" lon="4.35434">
        <ele>553.7</ele>
        <time>2023-02-19T12:12:51Z</time>
      </trkpt>
      <trkpt lat="45.6784" lon="4.35433">
        <ele>553.7</ele>
        <time>2023-02-19T12:12:52Z</time>
      </trkpt>
      <trkpt lat="45.67841" lon="4.35432">
        <ele>553.7</ele>
        <time>2023-02-19T12:12:53Z</time>
      </trkpt>
      <trkpt lat="45.67841" lon="4.35429">
        <ele>553.6</ele>
        <time>2023-02-19T12:12:55Z</time>
      </trkpt>
      <trkpt lat="45.67841" lon="4.35427">
        <ele>553.5</ele>
        <time>2023-02-19T12:12:56Z</time>
      </trkpt>
      <trkpt lat="45.67842" lon="4.35425">
        <ele>553.4</ele>
        <time>2023-02-19T12:12:57Z</time>
      </trkpt>
      <trkpt lat="45.67842" lon="4.35424">
        <ele>553.4</ele>
        <time>2023-02-19T12:12:58Z</time>
      </trkpt>
      <trkpt lat="45.67844" lon="4.3542">
        <ele>553.2</ele>
        <time>2023-02-19T12:13:00Z</time>
      </trkpt>
      <trkpt lat="45.67844" lon="4.35419">
        <ele>553.2</ele>
        <time>2023-02-19T12:13:01Z</time>
      </trkpt>
      <trkpt lat="45.67845" lon="4.35416">
        <ele>553.1</ele>
        <time>2023-02-19T12:13:02Z</time>
      </trkpt>
      <trkpt lat="45.67846" lon="4.35415">
        <ele>553.1</ele>
        <time>2023-02-19T12:13:03Z</time>
      </trkpt>
      <trkpt lat="45.67846" lon="4.35414">
        <ele>553</ele>
        <time>2023-02-19T12:13:04Z</time>
      </trkpt>
      <trkpt lat="45.67847" lon="4.35412">
        <ele>552.9</ele>
        <time>2023-02-19T12:13:06Z</time>
      </trkpt>
      <trkpt lat="45.67848" lon="4.3541">
        <ele>552.9</ele>
        <time>2023-02-19T12:13:07Z</time>
      </trkpt>
      <trkpt lat="45.6785" lon="4.35407">
        <ele>552.7</ele>
        <time>2023-02-19T12:13:08Z</time>
      </trkpt>
      <trkpt lat="45.6785" lon="4.35406">
        <ele>552.7</ele>
        <time>2023-02-19T12:13:09Z</time>
      </trkpt>
      <trkpt lat="45.67851" lon="4.35403">
        <ele>552.6</ele>
        <time>2023-02-19T12:13:10Z</time>
      </trkpt>
      <trkpt lat="45.67852" lon="4.35402">
        <ele>552.5</ele>
        <time>2023-02-19T12:13:11Z</time>
      </trkpt>
      <trkpt lat="45.67852" lon="4.35401">
        <ele>552.5</ele>
        <time>2023-02-19T12:13:12Z</time>
      </trkpt>
      <trkpt lat="45.67854" lon="4.35398">
        <ele>552.3</ele>
        <time>2023-02-19T12:13:14Z</time>
      </trkpt>
      <trkpt lat="45.67855" lon="4.35396">
        <ele>552.3</ele>
        <time>2023-02-19T12:13:15Z</time>
      </trkpt>
      <trkpt lat="45.67856" lon="4.35395">
        <ele>552.2</ele>
        <time>2023-02-19T12:13:16Z</time>
      </trkpt>
      <trkpt lat="45.67857" lon="4.35394">
        <ele>552.1</ele>
        <time>2023-02-19T12:13:17Z</time>
      </trkpt>
      <trkpt lat="45.67858" lon="4.35392">
        <ele>552</ele>
        <time>2023-02-19T12:13:18Z</time>
      </trkpt>
      <trkpt lat="45.67859" lon="4.35389">
        <ele>551.9</ele>
        <time>2023-02-19T12:13:19Z</time>
      </trkpt>
      <trkpt lat="45.67859" lon="4.35388">
        <ele>551.9</ele>
        <time>2023-02-19T12:13:20Z</time>
      </trkpt>
      <trkpt lat="45.6786" lon="4.35385">
        <ele>551.8</ele>
        <time>2023-02-19T12:13:22Z</time>
      </trkpt>
      <trkpt lat="45.67861" lon="4.35383">
        <ele>551.7</ele>
        <time>2023-02-19T12:13:23Z</time>
      </trkpt>
      <trkpt lat="45.67861" lon="4.35382">
        <ele>551.6</ele>
        <time>2023-02-19T12:13:24Z</time>
      </trkpt>
      <trkpt lat="45.67862" lon="4.35378">
        <ele>551.5</ele>
        <time>2023-02-19T12:13:25Z</time>
      </trkpt>
      <trkpt lat="45.67863" lon="4.35376">
        <ele>551.4</ele>
        <time>2023-02-19T12:13:26Z</time>
      </trkpt>
      <trkpt lat="45.67863" lon="4.35374">
        <ele>551.3</ele>
        <time>2023-02-19T12:13:27Z</time>
      </trkpt>
      <trkpt lat="45.67864" lon="4.3537">
        <ele>551.1</ele>
        <time>2023-02-19T12:13:28Z</time>
      </trkpt>
      <trkpt lat="45.67864" lon="4.35368">
        <ele>551.1</ele>
        <time>2023-02-19T12:13:29Z</time>
      </trkpt>
      <trkpt lat="45.67864" lon="4.35366">
        <ele>551</ele>
        <time>2023-02-19T12:13:30Z</time>
      </trkpt>
      <trkpt lat="45.67864" lon="4.35363">
        <ele>550.8</ele>
        <time>2023-02-19T12:13:32Z</time>
      </trkpt>
      <trkpt lat="45.67864" lon="4.35359">
        <ele>550.7</ele>
        <time>2023-02-19T12:13:33Z</time>
      </trkpt>
      <trkpt lat="45.67864" lon="4.35358">
        <ele>550.6</ele>
        <time>2023-02-19T12:13:34Z</time>
      </trkpt>
      <trkpt lat="45.67864" lon="4.35354">
        <ele>550.4</ele>
        <time>2023-02-19T12:13:35Z</time>
      </trkpt>
      <trkpt lat="45.67865" lon="4.35353">
        <ele>550.3</ele>
        <time>2023-02-19T12:13:37Z</time>
      </trkpt>
      <trkpt lat="45.67865" lon="4.35351">
        <ele>550.2</ele>
        <time>2023-02-19T12:13:38Z</time>
      </trkpt>
      <trkpt lat="45.67865" lon="4.35347">
        <ele>550</ele>
        <time>2023-02-19T12:13:39Z</time>
      </trkpt>
      <trkpt lat="45.67865" lon="4.35345">
        <ele>549.9</ele>
        <time>2023-02-19T12:13:40Z</time>
      </trkpt>
      <trkpt lat="45.67865" lon="4.35343">
        <ele>549.8</ele>
        <time>2023-02-19T12:13:41Z</time>
      </trkpt>
      <trkpt lat="45.67865" lon="4.35341">
        <ele>549.7</ele>
        <time>2023-02-19T12:13:42Z</time>
      </trkpt>
      <trkpt lat="45.67865" lon="4.35339">
        <ele>549.6</ele>
        <time>2023-02-19T12:13:44Z</time>
      </trkpt>
      <trkpt lat="45.67865" lon="4.35338">
        <ele>549.5</ele>
        <time>2023-02-19T12:13:45Z</time>
      </trkpt>
      <trkpt lat="45.67865" lon="4.35336">
        <ele>549.5</ele>
        <time>2023-02-19T12:13:46Z</time>
      </trkpt>
      <trkpt lat="45.67865" lon="4.35334">
        <ele>549.4</ele>
        <time>2023-02-19T12:13:47Z</time>
      </trkpt>
      <trkpt lat="45.67866" lon="4.35331">
        <ele>549.2</ele>
        <time>2023-02-19T12:13:48Z</time>
      </trkpt>
      <trkpt lat="45.67866" lon="4.3533">
        <ele>549.1</ele>
        <time>2023-02-19T12:13:49Z</time>
      </trkpt>
      <trkpt lat="45.67867" lon="4.35329">
        <ele>549.1</ele>
        <time>2023-02-19T12:13:50Z</time>
      </trkpt>
      <trkpt lat="45.67867" lon="4.35327">
        <ele>549</ele>
        <time>2023-02-19T12:13:51Z</time>
      </trkpt>
      <trkpt lat="45.67868" lon="4.35324">
        <ele>548.9</ele>
        <time>2023-02-19T12:13:53Z</time>
      </trkpt>
      <trkpt lat="45.67869" lon="4.35321">
        <ele>548.7</ele>
        <time>2023-02-19T12:13:54Z</time>
      </trkpt>
      <trkpt lat="45.67869" lon="4.35319">
        <ele>548.6</ele>
        <time>2023-02-19T12:13:55Z</time>
      </trkpt>
      <trkpt lat="45.6787" lon="4.35317">
        <ele>548.5</ele>
        <time>2023-02-19T12:13:56Z</time>
      </trkpt>
      <trkpt lat="45.6787" lon="4.35315">
        <ele>548.4</ele>
        <time>2023-02-19T12:13:57Z</time>
      </trkpt>
      <trkpt lat="45.67871" lon="4.35312">
        <ele>548.2</ele>
        <time>2023-02-19T12:13:58Z</time>
      </trkpt>
      <trkpt lat="45.67871" lon="4.35311">
        <ele>548.1</ele>
        <time>2023-02-19T12:13:59Z</time>
      </trkpt>
      <trkpt lat="45.67872" lon="4.3531">
        <ele>548</ele>
        <time>2023-02-19T12:14:00Z</time>
      </trkpt>
      <trkpt lat="45.67872" lon="4.35308">
        <ele>547.9</ele>
        <time>2023-02-19T12:14:01Z</time>
      </trkpt>
      <trkpt lat="45.67873" lon="4.35307">
        <ele>547.8</ele>
        <time>2023-02-19T12:14:02Z</time>
      </trkpt>
      <trkpt lat="45.67875" lon="4.35304">
        <ele>547.5</ele>
        <time>2023-02-19T12:14:03Z</time>
      </trkpt>
      <trkpt lat="45.67876" lon="4.35302">
        <ele>547.4</ele>
        <time>2023-02-19T12:14:05Z</time>
      </trkpt>
      <trkpt lat="45.67876" lon="4.35301">
        <ele>547.2</ele>
        <time>2023-02-19T12:14:06Z</time>
      </trkpt>
      <trkpt lat="45.67877" lon="4.35299">
        <ele>547</ele>
        <time>2023-02-19T12:14:07Z</time>
      </trkpt>
      <trkpt lat="45.67879" lon="4.35296">
        <ele>546.7</ele>
        <time>2023-02-19T12:14:08Z</time>
      </trkpt>
      <trkpt lat="45.6788" lon="4.35295">
        <ele>546.5</ele>
        <time>2023-02-19T12:14:09Z</time>
      </trkpt>
      <trkpt lat="45.67881" lon="4.35294">
        <ele>546.3</ele>
        <time>2023-02-19T12:14:10Z</time>
      </trkpt>
      <trkpt lat="45.67882" lon="4.35292">
        <ele>546.1</ele>
        <time>2023-02-19T12:14:11Z</time>
      </trkpt>
      <trkpt lat="45.67883" lon="4.3529">
        <ele>545.9</ele>
        <time>2023-02-19T12:14:12Z</time>
      </trkpt>
      <trkpt lat="45.67885" lon="4.35289">
        <ele>545.6</ele>
        <time>2023-02-19T12:14:14Z</time>
      </trkpt>
      <trkpt lat="45.67886" lon="4.35287">
        <ele>545.3</ele>
        <time>2023-02-19T12:14:15Z</time>
      </trkpt>
      <trkpt lat="45.67887" lon="4.35286">
        <ele>545.1</ele>
        <time>2023-02-19T12:14:16Z</time>
      </trkpt>
      <trkpt lat="45.67889" lon="4.35284">
        <ele>544.9</ele>
        <time>2023-02-19T12:14:17Z</time>
      </trkpt>
      <trkpt lat="45.6789" lon="4.35283">
        <ele>544.7</ele>
        <time>2023-02-19T12:14:18Z</time>
      </trkpt>
      <trkpt lat="45.67891" lon="4.35282">
        <ele>544.5</ele>
        <time>2023-02-19T12:14:19Z</time>
      </trkpt>
      <trkpt lat="45.67893" lon="4.3528">
        <ele>544.3</ele>
        <time>2023-02-19T12:14:20Z</time>
      </trkpt>
      <trkpt lat="45.67894" lon="4.35279">
        <ele>544.1</ele>
        <time>2023-02-19T12:14:21Z</time>
      </trkpt>
      <trkpt lat="45.67895" lon="4.35278">
        <ele>543.9</ele>
        <time>2023-02-19T12:14:22Z</time>
      </trkpt>
      <trkpt lat="45.67898" lon="4.35276">
        <ele>543.5</ele>
        <time>2023-02-19T12:14:23Z</time>
      </trkpt>
      <trkpt lat="45.67899" lon="4.35275">
        <ele>543.3</ele>
        <time>2023-02-19T12:14:25Z</time>
      </trkpt>
      <trkpt lat="45.679" lon="4.35275">
        <ele>543.2</ele>
        <time>2023-02-19T12:14:26Z</time>
      </trkpt>
      <trkpt lat="45.67901" lon="4.35274">
        <ele>543</ele>
        <time>2023-02-19T12:14:27Z</time>
      </trkpt>
      <trkpt lat="45.67902" lon="4.35273">
        <ele>542.8</ele>
        <time>2023-02-19T12:14:28Z</time>
      </trkpt>
      <trkpt lat="45.67903" lon="4.35273">
        <ele>542.7</ele>
        <time>2023-02-19T12:14:29Z</time>
      </trkpt>
      <trkpt lat="45.67904" lon="4.35272">
        <ele>542.5</ele>
        <time>2023-02-19T12:14:30Z</time>
      </trkpt>
      <trkpt lat="45.67905" lon="4.35271">
        <ele>542.4</ele>
        <time>2023-02-19T12:14:31Z</time>
      </trkpt>
      <trkpt lat="45.67907" lon="4.35268">
        <ele>542</ele>
        <time>2023-02-19T12:14:32Z</time>
      </trkpt>
      <trkpt lat="45.67908" lon="4.35267">
        <ele>541.8</ele>
        <time>2023-02-19T12:14:34Z</time>
      </trkpt>
      <trkpt lat="45.67909" lon="4.35266">
        <ele>541.7</ele>
        <time>2023-02-19T12:14:35Z</time>
      </trkpt>
      <trkpt lat="45.6791" lon="4.35265">
        <ele>541.5</ele>
        <time>2023-02-19T12:14:36Z</time>
      </trkpt>
      <trkpt lat="45.67912" lon="4.35261">
        <ele>541.2</ele>
        <time>2023-02-19T12:14:37Z</time>
      </trkpt>
      <trkpt lat="45.67913" lon="4.3526">
        <ele>541.1</ele>
        <time>2023-02-19T12:14:38Z</time>
      </trkpt>
      <trkpt lat="45.67913" lon="4.35259">
        <ele>540.9</ele>
        <time>2023-02-19T12:14:39Z</time>
      </trkpt>
      <trkpt lat="45.67914" lon="4.35257">
        <ele>540.7</ele>
        <time>2023-02-19T12:14:40Z</time>
      </trkpt>
      <trkpt lat="45.67914" lon="4.35255">
        <ele>540.6</ele>
        <time>2023-02-19T12:14:41Z</time>
      </trkpt>
      <trkpt lat="45.67915" lon="4.35253">
        <ele>540.5</ele>
        <time>2023-02-19T12:14:42Z</time>
      </trkpt>
      <trkpt lat="45.67915" lon="4.35252">
        <ele>540.3</ele>
        <time>2023-02-19T12:14:43Z</time>
      </trkpt>
      <trkpt lat="45.67916" lon="4.35251">
        <ele>540.2</ele>
        <time>2023-02-19T12:14:44Z</time>
      </trkpt>
      <trkpt lat="45.67917" lon="4.35249">
        <ele>540</ele>
        <time>2023-02-19T12:14:45Z</time>
      </trkpt>
      <trkpt lat="45.67917" lon="4.35249">
        <ele>539.9</ele>
        <time>2023-02-19T12:14:46Z</time>
      </trkpt>
      <trkpt lat="45.67919" lon="4.35247">
        <ele>539.7</ele>
        <time>2023-02-19T12:14:48Z</time>
      </trkpt>
      <trkpt lat="45.6792" lon="4.35245">
        <ele>539.5</ele>
        <time>2023-02-19T12:14:49Z</time>
      </trkpt>
      <trkpt lat="45.67921" lon="4.35244">
        <ele>539.3</ele>
        <time>2023-02-19T12:14:50Z</time>
      </trkpt>
      <trkpt lat="45.67922" lon="4.35242">
        <ele>539.2</ele>
        <time>2023-02-19T12:14:51Z</time>
      </trkpt>
      <trkpt lat="45.67923" lon="4.3524">
        <ele>539</ele>
        <time>2023-02-19T12:14:52Z</time>
      </trkpt>
      <trkpt lat="45.67923" lon="4.35238">
        <ele>538.8</ele>
        <time>2023-02-19T12:14:53Z</time>
      </trkpt>
      <trkpt lat="45.67924" lon="4.35237">
        <ele>538.6</ele>
        <time>2023-02-19T12:14:54Z</time>
      </trkpt>
      <trkpt lat="45.67926" lon="4.35235">
        <ele>538.4</ele>
        <time>2023-02-19T12:14:56Z</time>
      </trkpt>
      <trkpt lat="45.67927" lon="4.35234">
        <ele>538.2</ele>
        <time>2023-02-19T12:14:57Z</time>
      </trkpt>
      <trkpt lat="45.67928" lon="4.35232">
        <ele>538</ele>
        <time>2023-02-19T12:14:58Z</time>
      </trkpt>
      <trkpt lat="45.67929" lon="4.35231">
        <ele>537.9</ele>
        <time>2023-02-19T12:14:59Z</time>
      </trkpt>
      <trkpt lat="45.6793" lon="4.35229">
        <ele>537.7</ele>
        <time>2023-02-19T12:15:00Z</time>
      </trkpt>
      <trkpt lat="45.67932" lon="4.35228">
        <ele>537.5</ele>
        <time>2023-02-19T12:15:01Z</time>
      </trkpt>
      <trkpt lat="45.67933" lon="4.35227">
        <ele>537.3</ele>
        <time>2023-02-19T12:15:02Z</time>
      </trkpt>
      <trkpt lat="45.67934" lon="4.35226">
        <ele>537.2</ele>
        <time>2023-02-19T12:15:03Z</time>
      </trkpt>
      <trkpt lat="45.67935" lon="4.35225">
        <ele>537</ele>
        <time>2023-02-19T12:15:04Z</time>
      </trkpt>
      <trkpt lat="45.67936" lon="4.35225">
        <ele>536.9</ele>
        <time>2023-02-19T12:15:05Z</time>
      </trkpt>
      <trkpt lat="45.67937" lon="4.35224">
        <ele>536.8</ele>
        <time>2023-02-19T12:15:07Z</time>
      </trkpt>
      <trkpt lat="45.67937" lon="4.35223">
        <ele>536.7</ele>
        <time>2023-02-19T12:15:08Z</time>
      </trkpt>
      <trkpt lat="45.67937" lon="4.35222">
        <ele>536.6</ele>
        <time>2023-02-19T12:15:09Z</time>
      </trkpt>
      <trkpt lat="45.67937" lon="4.35221">
        <ele>536.6</ele>
        <time>2023-02-19T12:15:10Z</time>
      </trkpt>
      <trkpt lat="45.67938" lon="4.3522">
        <ele>536.5</ele>
        <time>2023-02-19T12:15:11Z</time>
      </trkpt>
      <trkpt lat="45.67938" lon="4.3522">
        <ele>536.4</ele>
        <time>2023-02-19T12:15:12Z</time>
      </trkpt>
      <trkpt lat="45.67939" lon="4.35219">
        <ele>536.3</ele>
        <time>2023-02-19T12:15:13Z</time>
      </trkpt>
      <trkpt lat="45.67939" lon="4.35218">
        <ele>536.3</ele>
        <time>2023-02-19T12:15:14Z</time>
      </trkpt>
      <trkpt lat="45.67939" lon="4.35217">
        <ele>536.2</ele>
        <time>2023-02-19T12:15:15Z</time>
      </trkpt>
      <trkpt lat="45.6794" lon="4.35217">
        <ele>536.1</ele>
        <time>2023-02-19T12:15:16Z</time>
      </trkpt>
      <trkpt lat="45.6794" lon="4.35215">
        <ele>536</ele>
        <time>2023-02-19T12:15:17Z</time>
      </trkpt>
      <trkpt lat="45.67941" lon="4.35214">
        <ele>535.8</ele>
        <time>2023-02-19T12:15:18Z</time>
      </trkpt>
      <trkpt lat="45.67944" lon="4.35211">
        <ele>535.4</ele>
        <time>2023-02-19T12:15:20Z</time>
      </trkpt>
      <trkpt lat="45.67944" lon="4.3521">
        <ele>535.4</ele>
        <time>2023-02-19T12:15:21Z</time>
      </trkpt>
      <trkpt lat="45.67947" lon="4.35207">
        <ele>535</ele>
        <time>2023-02-19T12:15:22Z</time>
      </trkpt>
      <trkpt lat="45.67947" lon="4.35207">
        <ele>534.9</ele>
        <time>2023-02-19T12:15:23Z</time>
      </trkpt>
      <trkpt lat="45.67949" lon="4.35206">
        <ele>534.7</ele>
        <time>2023-02-19T12:15:24Z</time>
      </trkpt>
      <trkpt lat="45.6795" lon="4.35205">
        <ele>534.6</ele>
        <time>2023-02-19T12:15:25Z</time>
      </trkpt>
      <trkpt lat="45.67952" lon="4.35204">
        <ele>534.3</ele>
        <time>2023-02-19T12:15:26Z</time>
      </trkpt>
      <trkpt lat="45.67954" lon="4.35203">
        <ele>534.1</ele>
        <time>2023-02-19T12:15:28Z</time>
      </trkpt>
      <trkpt lat="45.67956" lon="4.35202">
        <ele>533.9</ele>
        <time>2023-02-19T12:15:29Z</time>
      </trkpt>
      <trkpt lat="45.67957" lon="4.35202">
        <ele>533.8</ele>
        <time>2023-02-19T12:15:30Z</time>
      </trkpt>
      <trkpt lat="45.6796" lon="4.35201">
        <ele>533.5</ele>
        <time>2023-02-19T12:15:31Z</time>
      </trkpt>
      <trkpt lat="45.6796" lon="4.35201">
        <ele>533.5</ele>
        <time>2023-02-19T12:15:32Z</time>
      </trkpt>
      <trkpt lat="45.67962" lon="4.352">
        <ele>533.3</ele>
        <time>2023-02-19T12:15:33Z</time>
      </trkpt>
      <trkpt lat="45.67963" lon="4.352">
        <ele>533.2</ele>
        <time>2023-02-19T12:15:34Z</time>
      </trkpt>
      <trkpt lat="45.67965" lon="4.35198">
        <ele>533</ele>
        <time>2023-02-19T12:15:36Z</time>
      </trkpt>
      <trkpt lat="45.67965" lon="4.35198">
        <ele>532.9</ele>
        <time>2023-02-19T12:15:37Z</time>
      </trkpt>
      <trkpt lat="45.67967" lon="4.35196">
        <ele>532.7</ele>
        <time>2023-02-19T12:15:38Z</time>
      </trkpt>
      <trkpt lat="45.67969" lon="4.35194">
        <ele>532.4</ele>
        <time>2023-02-19T12:15:39Z</time>
      </trkpt>
      <trkpt lat="45.6797" lon="4.35193">
        <ele>532.3</ele>
        <time>2023-02-19T12:15:40Z</time>
      </trkpt>
      <trkpt lat="45.6797" lon="4.35192">
        <ele>532.3</ele>
        <time>2023-02-19T12:15:41Z</time>
      </trkpt>
      <trkpt lat="45.67971" lon="4.3519">
        <ele>532.1</ele>
        <time>2023-02-19T12:15:42Z</time>
      </trkpt>
      <trkpt lat="45.67972" lon="4.35189">
        <ele>532</ele>
        <time>2023-02-19T12:15:43Z</time>
      </trkpt>
      <trkpt lat="45.67973" lon="4.35188">
        <ele>531.9</ele>
        <time>2023-02-19T12:15:44Z</time>
      </trkpt>
      <trkpt lat="45.67975" lon="4.35186">
        <ele>531.7</ele>
        <time>2023-02-19T12:15:46Z</time>
      </trkpt>
      <trkpt lat="45.67976" lon="4.35185">
        <ele>531.6</ele>
        <time>2023-02-19T12:15:47Z</time>
      </trkpt>
      <trkpt lat="45.67976" lon="4.35184">
        <ele>531.5</ele>
        <time>2023-02-19T12:15:48Z</time>
      </trkpt>
      <trkpt lat="45.67978" lon="4.35183">
        <ele>531.4</ele>
        <time>2023-02-19T12:15:49Z</time>
      </trkpt>
      <trkpt lat="45.67979" lon="4.35182">
        <ele>531.2</ele>
        <time>2023-02-19T12:15:51Z</time>
      </trkpt>
      <trkpt lat="45.67982" lon="4.35181">
        <ele>530.9</ele>
        <time>2023-02-19T12:15:52Z</time>
      </trkpt>
      <trkpt lat="45.67986" lon="4.35179">
        <ele>530.5</ele>
        <time>2023-02-19T12:15:54Z</time>
      </trkpt>
      <trkpt lat="45.67987" lon="4.35178">
        <ele>530.3</ele>
        <time>2023-02-19T12:15:55Z</time>
      </trkpt>
      <trkpt lat="45.67989" lon="4.35177">
        <ele>530.2</ele>
        <time>2023-02-19T12:15:56Z</time>
      </trkpt>
      <trkpt lat="45.67991" lon="4.35175">
        <ele>529.9</ele>
        <time>2023-02-19T12:15:57Z</time>
      </trkpt>
      <trkpt lat="45.67994" lon="4.35173">
        <ele>529.6</ele>
        <time>2023-02-19T12:15:59Z</time>
      </trkpt>
      <trkpt lat="45.67996" lon="4.35171">
        <ele>529.2</ele>
        <time>2023-02-19T12:16:00Z</time>
      </trkpt>
      <trkpt lat="45.67997" lon="4.3517">
        <ele>529.1</ele>
        <time>2023-02-19T12:16:01Z</time>
      </trkpt>
      <trkpt lat="45.68" lon="4.35168">
        <ele>528.7</ele>
        <time>2023-02-19T12:16:03Z</time>
      </trkpt>
      <trkpt lat="45.68001" lon="4.35167">
        <ele>528.6</ele>
        <time>2023-02-19T12:16:04Z</time>
      </trkpt>
      <trkpt lat="45.68004" lon="4.35166">
        <ele>528.3</ele>
        <time>2023-02-19T12:16:05Z</time>
      </trkpt>
      <trkpt lat="45.68005" lon="4.35165">
        <ele>528.1</ele>
        <time>2023-02-19T12:16:06Z</time>
      </trkpt>
      <trkpt lat="45.68007" lon="4.35163">
        <ele>527.9</ele>
        <time>2023-02-19T12:16:08Z</time>
      </trkpt>
      <trkpt lat="45.68008" lon="4.35162">
        <ele>527.7</ele>
        <time>2023-02-19T12:16:09Z</time>
      </trkpt>
      <trkpt lat="45.68009" lon="4.35161">
        <ele>527.5</ele>
        <time>2023-02-19T12:16:10Z</time>
      </trkpt>
      <trkpt lat="45.68011" lon="4.3516">
        <ele>527.3</ele>
        <time>2023-02-19T12:16:11Z</time>
      </trkpt>
      <trkpt lat="45.68013" lon="4.35159">
        <ele>527</ele>
        <time>2023-02-19T12:16:12Z</time>
      </trkpt>
      <trkpt lat="45.68015" lon="4.35158">
        <ele>526.8</ele>
        <time>2023-02-19T12:16:14Z</time>
      </trkpt>
      <trkpt lat="45.68018" lon="4.35156">
        <ele>526.4</ele>
        <time>2023-02-19T12:16:15Z</time>
      </trkpt>
      <trkpt lat="45.68018" lon="4.35155">
        <ele>526.3</ele>
        <time>2023-02-19T12:16:16Z</time>
      </trkpt>
      <trkpt lat="45.68021" lon="4.35153">
        <ele>526</ele>
        <time>2023-02-19T12:16:17Z</time>
      </trkpt>
      <trkpt lat="45.68022" lon="4.35153">
        <ele>525.9</ele>
        <time>2023-02-19T12:16:18Z</time>
      </trkpt>
      <trkpt lat="45.68023" lon="4.35152">
        <ele>525.7</ele>
        <time>2023-02-19T12:16:19Z</time>
      </trkpt>
      <trkpt lat="45.68025" lon="4.35151">
        <ele>525.4</ele>
        <time>2023-02-19T12:16:20Z</time>
      </trkpt>
      <trkpt lat="45.68026" lon="4.3515">
        <ele>525.2</ele>
        <time>2023-02-19T12:16:21Z</time>
      </trkpt>
      <trkpt lat="45.68027" lon="4.35149">
        <ele>525</ele>
        <time>2023-02-19T12:16:22Z</time>
      </trkpt>
      <trkpt lat="45.6803" lon="4.35149">
        <ele>524.7</ele>
        <time>2023-02-19T12:16:23Z</time>
      </trkpt>
      <trkpt lat="45.68031" lon="4.35149">
        <ele>524.5</ele>
        <time>2023-02-19T12:16:25Z</time>
      </trkpt>
      <trkpt lat="45.68033" lon="4.35149">
        <ele>524.3</ele>
        <time>2023-02-19T12:16:26Z</time>
      </trkpt>
      <trkpt lat="45.68034" lon="4.35149">
        <ele>524.2</ele>
        <time>2023-02-19T12:16:27Z</time>
      </trkpt>
      <trkpt lat="45.68036" lon="4.35149">
        <ele>523.9</ele>
        <time>2023-02-19T12:16:29Z</time>
      </trkpt>
      <trkpt lat="45.68037" lon="4.35149">
        <ele>523.7</ele>
        <time>2023-02-19T12:16:30Z</time>
      </trkpt>
      <trkpt lat="45.68038" lon="4.35149">
        <ele>523.6</ele>
        <time>2023-02-19T12:16:31Z</time>
      </trkpt>
      <trkpt lat="45.68039" lon="4.35149">
        <ele>523.5</ele>
        <time>2023-02-19T12:16:32Z</time>
      </trkpt>
      <trkpt lat="45.6804" lon="4.3515">
        <ele>523.3</ele>
        <time>2023-02-19T12:16:33Z</time>
      </trkpt>
      <trkpt lat="45.68041" lon="4.3515">
        <ele>523.2</ele>
        <time>2023-02-19T12:16:34Z</time>
      </trkpt>
      <trkpt lat="45.68042" lon="4.35149">
        <ele>523</ele>
        <time>2023-02-19T12:16:35Z</time>
      </trkpt>
      <trkpt lat="45.68044" lon="4.35149">
        <ele>522.7</ele>
        <time>2023-02-19T12:16:36Z</time>
      </trkpt>
      <trkpt lat="45.68045" lon="4.35149">
        <ele>522.6</ele>
        <time>2023-02-19T12:16:37Z</time>
      </trkpt>
      <trkpt lat="45.68046" lon="4.35149">
        <ele>522.5</ele>
        <time>2023-02-19T12:16:38Z</time>
      </trkpt>
      <trkpt lat="45.68047" lon="4.35148">
        <ele>522.4</ele>
        <time>2023-02-19T12:16:39Z</time>
      </trkpt>
      <trkpt lat="45.68048" lon="4.35148">
        <ele>522.3</ele>
        <time>2023-02-19T12:16:40Z</time>
      </trkpt>
      <trkpt lat="45.6805" lon="4.35147">
        <ele>522.1</ele>
        <time>2023-02-19T12:16:42Z</time>
      </trkpt>
      <trkpt lat="45.68052" lon="4.35145">
        <ele>521.9</ele>
        <time>2023-02-19T12:16:43Z</time>
      </trkpt>
      <trkpt lat="45.68052" lon="4.35145">
        <ele>521.8</ele>
        <time>2023-02-19T12:16:44Z</time>
      </trkpt>
      <trkpt lat="45.68053" lon="4.35144">
        <ele>521.7</ele>
        <time>2023-02-19T12:16:45Z</time>
      </trkpt>
      <trkpt lat="45.68055" lon="4.35143">
        <ele>521.6</ele>
        <time>2023-02-19T12:16:46Z</time>
      </trkpt>
      <trkpt lat="45.68056" lon="4.35143">
        <ele>521.5</ele>
        <time>2023-02-19T12:16:48Z</time>
      </trkpt>
      <trkpt lat="45.68057" lon="4.35143">
        <ele>521.5</ele>
        <time>2023-02-19T12:16:49Z</time>
      </trkpt>
      <trkpt lat="45.68059" lon="4.35142">
        <ele>521.3</ele>
        <time>2023-02-19T12:16:50Z</time>
      </trkpt>
      <trkpt lat="45.6806" lon="4.35142">
        <ele>521.2</ele>
        <time>2023-02-19T12:16:51Z</time>
      </trkpt>
      <trkpt lat="45.68061" lon="4.35141">
        <ele>521.2</ele>
        <time>2023-02-19T12:16:52Z</time>
      </trkpt>
      <trkpt lat="45.68062" lon="4.35141">
        <ele>521.1</ele>
        <time>2023-02-19T12:16:54Z</time>
      </trkpt>
      <trkpt lat="45.68064" lon="4.3514">
        <ele>521.1</ele>
        <time>2023-02-19T12:16:55Z</time>
      </trkpt>
      <trkpt lat="45.68065" lon="4.35139">
        <ele>521</ele>
        <time>2023-02-19T12:16:56Z</time>
      </trkpt>
      <trkpt lat="45.68067" lon="4.35138">
        <ele>520.9</ele>
        <time>2023-02-19T12:16:58Z</time>
      </trkpt>
      <trkpt lat="45.68068" lon="4.35138">
        <ele>520.9</ele>
        <time>2023-02-19T12:16:59Z</time>
      </trkpt>
      <trkpt lat="45.6807" lon="4.35137">
        <ele>520.9</ele>
        <time>2023-02-19T12:17:00Z</time>
      </trkpt>
      <trkpt lat="45.68071" lon="4.35136">
        <ele>520.8</ele>
        <time>2023-02-19T12:17:01Z</time>
      </trkpt>
      <trkpt lat="45.68072" lon="4.35136">
        <ele>520.8</ele>
        <time>2023-02-19T12:17:02Z</time>
      </trkpt>
      <trkpt lat="45.68075" lon="4.35134">
        <ele>520.7</ele>
        <time>2023-02-19T12:17:04Z</time>
      </trkpt>
      <trkpt lat="45.68076" lon="4.35134">
        <ele>520.7</ele>
        <time>2023-02-19T12:17:05Z</time>
      </trkpt>
      <trkpt lat="45.68078" lon="4.35133">
        <ele>520.7</ele>
        <time>2023-02-19T12:17:07Z</time>
      </trkpt>
      <trkpt lat="45.6808" lon="4.35133">
        <ele>520.6</ele>
        <time>2023-02-19T12:17:08Z</time>
      </trkpt>
      <trkpt lat="45.68082" lon="4.35132">
        <ele>520.6</ele>
        <time>2023-02-19T12:17:09Z</time>
      </trkpt>
      <trkpt lat="45.68083" lon="4.35131">
        <ele>520.5</ele>
        <time>2023-02-19T12:17:10Z</time>
      </trkpt>
      <trkpt lat="45.68085" lon="4.35131">
        <ele>520.5</ele>
        <time>2023-02-19T12:17:11Z</time>
      </trkpt>
      <trkpt lat="45.68086" lon="4.3513">
        <ele>520.4</ele>
        <time>2023-02-19T12:17:13Z</time>
      </trkpt>
      <trkpt lat="45.68087" lon="4.3513">
        <ele>520.3</ele>
        <time>2023-02-19T12:17:14Z</time>
      </trkpt>
      <trkpt lat="45.6809" lon="4.35129">
        <ele>520.2</ele>
        <time>2023-02-19T12:17:16Z</time>
      </trkpt>
      <trkpt lat="45.68092" lon="4.35128">
        <ele>520.1</ele>
        <time>2023-02-19T12:17:17Z</time>
      </trkpt>
      <trkpt lat="45.68092" lon="4.35127">
        <ele>520.1</ele>
        <time>2023-02-19T12:17:18Z</time>
      </trkpt>
      <trkpt lat="45.68093" lon="4.35127">
        <ele>520</ele>
        <time>2023-02-19T12:17:19Z</time>
      </trkpt>
      <trkpt lat="45.68095" lon="4.35126">
        <ele>519.9</ele>
        <time>2023-02-19T12:17:20Z</time>
      </trkpt>
      <trkpt lat="45.68096" lon="4.35125">
        <ele>519.8</ele>
        <time>2023-02-19T12:17:21Z</time>
      </trkpt>
      <trkpt lat="45.68097" lon="4.35123">
        <ele>519.7</ele>
        <time>2023-02-19T12:17:22Z</time>
      </trkpt>
      <trkpt lat="45.68099" lon="4.35122">
        <ele>519.7</ele>
        <time>2023-02-19T12:17:23Z</time>
      </trkpt>
      <trkpt lat="45.681" lon="4.35122">
        <ele>519.6</ele>
        <time>2023-02-19T12:17:24Z</time>
      </trkpt>
      <trkpt lat="45.68102" lon="4.35121">
        <ele>519.5</ele>
        <time>2023-02-19T12:17:25Z</time>
      </trkpt>
      <trkpt lat="45.68103" lon="4.3512">
        <ele>519.5</ele>
        <time>2023-02-19T12:17:26Z</time>
      </trkpt>
      <trkpt lat="45.68105" lon="4.35118">
        <ele>519.4</ele>
        <time>2023-02-19T12:17:27Z</time>
      </trkpt>
      <trkpt lat="45.68106" lon="4.35118">
        <ele>519.4</ele>
        <time>2023-02-19T12:17:28Z</time>
      </trkpt>
      <trkpt lat="45.68107" lon="4.35117">
        <ele>519.3</ele>
        <time>2023-02-19T12:17:30Z</time>
      </trkpt>
      <trkpt lat="45.68107" lon="4.35117">
        <ele>519.3</ele>
        <time>2023-02-19T12:17:31Z</time>
      </trkpt>
      <trkpt lat="45.68107" lon="4.35117">
        <ele>519.3</ele>
        <time>2023-02-19T12:17:32Z</time>
      </trkpt>
      <trkpt lat="45.68108" lon="4.35116">
        <ele>519.3</ele>
        <time>2023-02-19T12:17:34Z</time>
      </trkpt>
      <trkpt lat="45.68109" lon="4.35115">
        <ele>519.3</ele>
        <time>2023-02-19T12:17:35Z</time>
      </trkpt>
      <trkpt lat="45.6811" lon="4.35114">
        <ele>519.2</ele>
        <time>2023-02-19T12:17:36Z</time>
      </trkpt>
      <trkpt lat="45.68111" lon="4.35113">
        <ele>519.2</ele>
        <time>2023-02-19T12:17:37Z</time>
      </trkpt>
      <trkpt lat="45.68112" lon="4.35112">
        <ele>519.1</ele>
        <time>2023-02-19T12:17:38Z</time>
      </trkpt>
      <trkpt lat="45.68114" lon="4.35111">
        <ele>519.1</ele>
        <time>2023-02-19T12:17:39Z</time>
      </trkpt>
      <trkpt lat="45.68115" lon="4.35111">
        <ele>519.1</ele>
        <time>2023-02-19T12:17:40Z</time>
      </trkpt>
      <trkpt lat="45.68116" lon="4.3511">
        <ele>519</ele>
        <time>2023-02-19T12:17:41Z</time>
      </trkpt>
      <trkpt lat="45.68117" lon="4.3511">
        <ele>519</ele>
        <time>2023-02-19T12:17:43Z</time>
      </trkpt>
      <trkpt lat="45.68118" lon="4.35109">
        <ele>519</ele>
        <time>2023-02-19T12:17:44Z</time>
      </trkpt>
      <trkpt lat="45.68118" lon="4.35109">
        <ele>519</ele>
        <time>2023-02-19T12:17:45Z</time>
      </trkpt>
      <trkpt lat="45.6812" lon="4.35107">
        <ele>518.9</ele>
        <time>2023-02-19T12:17:46Z</time>
      </trkpt>
      <trkpt lat="45.68121" lon="4.35106">
        <ele>518.9</ele>
        <time>2023-02-19T12:17:47Z</time>
      </trkpt>
      <trkpt lat="45.68124" lon="4.35105">
        <ele>518.8</ele>
        <time>2023-02-19T12:17:48Z</time>
      </trkpt>
      <trkpt lat="45.68125" lon="4.35105">
        <ele>518.7</ele>
        <time>2023-02-19T12:17:50Z</time>
      </trkpt>
      <trkpt lat="45.68127" lon="4.35104">
        <ele>518.6</ele>
        <time>2023-02-19T12:17:52Z</time>
      </trkpt>
      <trkpt lat="45.68128" lon="4.35104">
        <ele>518.4</ele>
        <time>2023-02-19T12:17:53Z</time>
      </trkpt>
      <trkpt lat="45.68129" lon="4.35104">
        <ele>518.2</ele>
        <time>2023-02-19T12:17:54Z</time>
      </trkpt>
      <trkpt lat="45.68131" lon="4.35103">
        <ele>517.9</ele>
        <time>2023-02-19T12:17:55Z</time>
      </trkpt>
      <trkpt lat="45.68133" lon="4.35103">
        <ele>517.6</ele>
        <time>2023-02-19T12:17:56Z</time>
      </trkpt>
      <trkpt lat="45.68134" lon="4.35103">
        <ele>517.4</ele>
        <time>2023-02-19T12:17:57Z</time>
      </trkpt>
      <trkpt lat="45.68138" lon="4.35102">
        <ele>516.9</ele>
        <time>2023-02-19T12:17:58Z</time>
      </trkpt>
      <trkpt lat="45.68139" lon="4.35101">
        <ele>516.8</ele>
        <time>2023-02-19T12:18:00Z</time>
      </trkpt>
      <trkpt lat="45.6814" lon="4.35101">
        <ele>516.6</ele>
        <time>2023-02-19T12:18:01Z</time>
      </trkpt>
      <trkpt lat="45.68141" lon="4.351">
        <ele>516.5</ele>
        <time>2023-02-19T12:18:02Z</time>
      </trkpt>
      <trkpt lat="45.68142" lon="4.351">
        <ele>516.3</ele>
        <time>2023-02-19T12:18:03Z</time>
      </trkpt>
      <trkpt lat="45.68142" lon="4.351">
        <ele>516.2</ele>
        <time>2023-02-19T12:18:04Z</time>
      </trkpt>
      <trkpt lat="45.68144" lon="4.351">
        <ele>516</ele>
        <time>2023-02-19T12:18:05Z</time>
      </trkpt>
      <trkpt lat="45.68146" lon="4.351">
        <ele>515.7</ele>
        <time>2023-02-19T12:18:07Z</time>
      </trkpt>
      <trkpt lat="45.68147" lon="4.351">
        <ele>515.5</ele>
        <time>2023-02-19T12:18:08Z</time>
      </trkpt>
      <trkpt lat="45.68149" lon="4.351">
        <ele>515.2</ele>
        <time>2023-02-19T12:18:09Z</time>
      </trkpt>
      <trkpt lat="45.6815" lon="4.351">
        <ele>515</ele>
        <time>2023-02-19T12:18:10Z</time>
      </trkpt>
      <trkpt lat="45.68151" lon="4.351">
        <ele>514.8</ele>
        <time>2023-02-19T12:18:11Z</time>
      </trkpt>
      <trkpt lat="45.68154" lon="4.35099">
        <ele>514.5</ele>
        <time>2023-02-19T12:18:12Z</time>
      </trkpt>
      <trkpt lat="45.68155" lon="4.35099">
        <ele>514.3</ele>
        <time>2023-02-19T12:18:13Z</time>
      </trkpt>
      <trkpt lat="45.68156" lon="4.35099">
        <ele>514.1</ele>
        <time>2023-02-19T12:18:14Z</time>
      </trkpt>
      <trkpt lat="45.68157" lon="4.35099">
        <ele>513.9</ele>
        <time>2023-02-19T12:18:15Z</time>
      </trkpt>
      <trkpt lat="45.68158" lon="4.35099">
        <ele>513.8</ele>
        <time>2023-02-19T12:18:16Z</time>
      </trkpt>
      <trkpt lat="45.68158" lon="4.35099">
        <ele>513.7</ele>
        <time>2023-02-19T12:18:17Z</time>
      </trkpt>
      <trkpt lat="45.68159" lon="4.35099">
        <ele>513.6</ele>
        <time>2023-02-19T12:18:18Z</time>
      </trkpt>
      <trkpt lat="45.68161" lon="4.35098">
        <ele>513.4</ele>
        <time>2023-02-19T12:18:19Z</time>
      </trkpt>
      <trkpt lat="45.68163" lon="4.35098">
        <ele>513.1</ele>
        <time>2023-02-19T12:18:21Z</time>
      </trkpt>
      <trkpt lat="45.68164" lon="4.35098">
        <ele>512.9</ele>
        <time>2023-02-19T12:18:22Z</time>
      </trkpt>
      <trkpt lat="45.68165" lon="4.35097">
        <ele>512.8</ele>
        <time>2023-02-19T12:18:23Z</time>
      </trkpt>
      <trkpt lat="45.68166" lon="4.35097">
        <ele>512.6</ele>
        <time>2023-02-19T12:18:24Z</time>
      </trkpt>
      <trkpt lat="45.68168" lon="4.35097">
        <ele>512.3</ele>
        <time>2023-02-19T12:18:25Z</time>
      </trkpt>
      <trkpt lat="45.68169" lon="4.35097">
        <ele>512.1</ele>
        <time>2023-02-19T12:18:26Z</time>
      </trkpt>
      <trkpt lat="45.68171" lon="4.35097">
        <ele>511.8</ele>
        <time>2023-02-19T12:18:27Z</time>
      </trkpt>
      <trkpt lat="45.68173" lon="4.35097">
        <ele>511.5</ele>
        <time>2023-02-19T12:18:28Z</time>
      </trkpt>
      <trkpt lat="45.68174" lon="4.35098">
        <ele>511.3</ele>
        <time>2023-02-19T12:18:29Z</time>
      </trkpt>
      <trkpt lat="45.68176" lon="4.35098">
        <ele>511.1</ele>
        <time>2023-02-19T12:18:30Z</time>
      </trkpt>
      <trkpt lat="45.68177" lon="4.35098">
        <ele>510.8</ele>
        <time>2023-02-19T12:18:31Z</time>
      </trkpt>
      <trkpt lat="45.68178" lon="4.35098">
        <ele>510.7</ele>
        <time>2023-02-19T12:18:32Z</time>
      </trkpt>
      <trkpt lat="45.68179" lon="4.35099">
        <ele>510.5</ele>
        <time>2023-02-19T12:18:34Z</time>
      </trkpt>
      <trkpt lat="45.6818" lon="4.35099">
        <ele>510.4</ele>
        <time>2023-02-19T12:18:35Z</time>
      </trkpt>
      <trkpt lat="45.68181" lon="4.35098">
        <ele>510.3</ele>
        <time>2023-02-19T12:18:36Z</time>
      </trkpt>
      <trkpt lat="45.68182" lon="4.35099">
        <ele>510.2</ele>
        <time>2023-02-19T12:18:37Z</time>
      </trkpt>
      <trkpt lat="45.68183" lon="4.35099">
        <ele>510</ele>
        <time>2023-02-19T12:18:38Z</time>
      </trkpt>
      <trkpt lat="45.68185" lon="4.35099">
        <ele>509.7</ele>
        <time>2023-02-19T12:18:40Z</time>
      </trkpt>
      <trkpt lat="45.68186" lon="4.35099">
        <ele>509.5</ele>
        <time>2023-02-19T12:18:41Z</time>
      </trkpt>
      <trkpt lat="45.68188" lon="4.35099">
        <ele>509.2</ele>
        <time>2023-02-19T12:18:42Z</time>
      </trkpt>
      <trkpt lat="45.6819" lon="4.35099">
        <ele>508.9</ele>
        <time>2023-02-19T12:18:43Z</time>
      </trkpt>
      <trkpt lat="45.68191" lon="4.35099">
        <ele>508.8</ele>
        <time>2023-02-19T12:18:44Z</time>
      </trkpt>
      <trkpt lat="45.68192" lon="4.35098">
        <ele>508.6</ele>
        <time>2023-02-19T12:18:45Z</time>
      </trkpt>
      <trkpt lat="45.68194" lon="4.35098">
        <ele>508.4</ele>
        <time>2023-02-19T12:18:47Z</time>
      </trkpt>
      <trkpt lat="45.68194" lon="4.35098">
        <ele>508.2</ele>
        <time>2023-02-19T12:18:48Z</time>
      </trkpt>
      <trkpt lat="45.68195" lon="4.35098">
        <ele>508.1</ele>
        <time>2023-02-19T12:18:49Z</time>
      </trkpt>
      <trkpt lat="45.68197" lon="4.35097">
        <ele>507.9</ele>
        <time>2023-02-19T12:18:50Z</time>
      </trkpt>
      <trkpt lat="45.68198" lon="4.35097">
        <ele>507.6</ele>
        <time>2023-02-19T12:18:51Z</time>
      </trkpt>
      <trkpt lat="45.682" lon="4.35097">
        <ele>507.4</ele>
        <time>2023-02-19T12:18:52Z</time>
      </trkpt>
      <trkpt lat="45.682" lon="4.35097">
        <ele>507.3</ele>
        <time>2023-02-19T12:18:54Z</time>
      </trkpt>
      <trkpt lat="45.68201" lon="4.35097">
        <ele>507.2</ele>
        <time>2023-02-19T12:18:55Z</time>
      </trkpt>
      <trkpt lat="45.68202" lon="4.35097">
        <ele>507.1</ele>
        <time>2023-02-19T12:18:56Z</time>
      </trkpt>
      <trkpt lat="45.68202" lon="4.35097">
        <ele>507</ele>
        <time>2023-02-19T12:18:57Z</time>
      </trkpt>
      <trkpt lat="45.68203" lon="4.35097">
        <ele>506.9</ele>
        <time>2023-02-19T12:18:58Z</time>
      </trkpt>
      <trkpt lat="45.68204" lon="4.35097">
        <ele>506.7</ele>
        <time>2023-02-19T12:18:59Z</time>
      </trkpt>
      <trkpt lat="45.68206" lon="4.35098">
        <ele>506.4</ele>
        <time>2023-02-19T12:19:00Z</time>
      </trkpt>
      <trkpt lat="45.68209" lon="4.35098">
        <ele>506</ele>
        <time>2023-02-19T12:19:01Z</time>
      </trkpt>
      <trkpt lat="45.6821" lon="4.35099">
        <ele>505.8</ele>
        <time>2023-02-19T12:19:02Z</time>
      </trkpt>
      <trkpt lat="45.68212" lon="4.351">
        <ele>505.5</ele>
        <time>2023-02-19T12:19:03Z</time>
      </trkpt>
      <trkpt lat="45.68215" lon="4.351">
        <ele>505.1</ele>
        <time>2023-02-19T12:19:05Z</time>
      </trkpt>
      <trkpt lat="45.68216" lon="4.35101">
        <ele>504.8</ele>
        <time>2023-02-19T12:19:06Z</time>
      </trkpt>
      <trkpt lat="45.68218" lon="4.35101">
        <ele>504.6</ele>
        <time>2023-02-19T12:19:07Z</time>
      </trkpt>
      <trkpt lat="45.68219" lon="4.35101">
        <ele>504.4</ele>
        <time>2023-02-19T12:19:08Z</time>
      </trkpt>
      <trkpt lat="45.68221" lon="4.35101">
        <ele>504.1</ele>
        <time>2023-02-19T12:19:09Z</time>
      </trkpt>
      <trkpt lat="45.68223" lon="4.35102">
        <ele>503.9</ele>
        <time>2023-02-19T12:19:11Z</time>
      </trkpt>
      <trkpt lat="45.68224" lon="4.35102">
        <ele>503.7</ele>
        <time>2023-02-19T12:19:12Z</time>
      </trkpt>
      <trkpt lat="45.68226" lon="4.35102">
        <ele>503.4</ele>
        <time>2023-02-19T12:19:13Z</time>
      </trkpt>
      <trkpt lat="45.68227" lon="4.35103">
        <ele>503.2</ele>
        <time>2023-02-19T12:19:14Z</time>
      </trkpt>
      <trkpt lat="45.6823" lon="4.35103">
        <ele>502.8</ele>
        <time>2023-02-19T12:19:15Z</time>
      </trkpt>
      <trkpt lat="45.68231" lon="4.35103">
        <ele>502.7</ele>
        <time>2023-02-19T12:19:16Z</time>
      </trkpt>
      <trkpt lat="45.68232" lon="4.35102">
        <ele>502.5</ele>
        <time>2023-02-19T12:19:17Z</time>
      </trkpt>
      <trkpt lat="45.68233" lon="4.35102">
        <ele>502.2</ele>
        <time>2023-02-19T12:19:18Z</time>
      </trkpt>
      <trkpt lat="45.68235" lon="4.35102">
        <ele>502</ele>
        <time>2023-02-19T12:19:19Z</time>
      </trkpt>
      <trkpt lat="45.68236" lon="4.35102">
        <ele>501.8</ele>
        <time>2023-02-19T12:19:20Z</time>
      </trkpt>
      <trkpt lat="45.68238" lon="4.35102">
        <ele>501.6</ele>
        <time>2023-02-19T12:19:21Z</time>
      </trkpt>
      <trkpt lat="45.68239" lon="4.35102">
        <ele>501.4</ele>
        <time>2023-02-19T12:19:22Z</time>
      </trkpt>
      <trkpt lat="45.68241" lon="4.35103">
        <ele>501.1</ele>
        <time>2023-02-19T12:19:24Z</time>
      </trkpt>
      <trkpt lat="45.68242" lon="4.35103">
        <ele>501</ele>
        <time>2023-02-19T12:19:25Z</time>
      </trkpt>
      <trkpt lat="45.68242" lon="4.35103">
        <ele>500.9</ele>
        <time>2023-02-19T12:19:26Z</time>
      </trkpt>
      <trkpt lat="45.68243" lon="4.35103">
        <ele>500.7</ele>
        <time>2023-02-19T12:19:27Z</time>
      </trkpt>
      <trkpt lat="45.68244" lon="4.35104">
        <ele>500.6</ele>
        <time>2023-02-19T12:19:28Z</time>
      </trkpt>
      <trkpt lat="45.68245" lon="4.35104">
        <ele>500.4</ele>
        <time>2023-02-19T12:19:30Z</time>
      </trkpt>
      <trkpt lat="45.68246" lon="4.35105">
        <ele>500.3</ele>
        <time>2023-02-19T12:19:31Z</time>
      </trkpt>
      <trkpt lat="45.68246" lon="4.35105">
        <ele>500.2</ele>
        <time>2023-02-19T12:19:32Z</time>
      </trkpt>
      <trkpt lat="45.68247" lon="4.35105">
        <ele>500.2</ele>
        <time>2023-02-19T12:19:33Z</time>
      </trkpt>
      <trkpt lat="45.68247" lon="4.35105">
        <ele>500.1</ele>
        <time>2023-02-19T12:19:34Z</time>
      </trkpt>
      <trkpt lat="45.68247" lon="4.35106">
        <ele>500</ele>
        <time>2023-02-19T12:19:35Z</time>
      </trkpt>
      <trkpt lat="45.68248" lon="4.35106">
        <ele>500</ele>
        <time>2023-02-19T12:19:36Z</time>
      </trkpt>
      <trkpt lat="45.68249" lon="4.35106">
        <ele>499.8</ele>
        <time>2023-02-19T12:19:37Z</time>
      </trkpt>
      <trkpt lat="45.6825" lon="4.35106">
        <ele>499.6</ele>
        <time>2023-02-19T12:19:38Z</time>
      </trkpt>
      <trkpt lat="45.68252" lon="4.35107">
        <ele>499.4</ele>
        <time>2023-02-19T12:19:39Z</time>
      </trkpt>
      <trkpt lat="45.68253" lon="4.35108">
        <ele>499.1</ele>
        <time>2023-02-19T12:19:40Z</time>
      </trkpt>
      <trkpt lat="45.68254" lon="4.3511">
        <ele>498.9</ele>
        <time>2023-02-19T12:19:41Z</time>
      </trkpt>
      <trkpt lat="45.68256" lon="4.3511">
        <ele>498.6</ele>
        <time>2023-02-19T12:19:42Z</time>
      </trkpt>
      <trkpt lat="45.68257" lon="4.35109">
        <ele>498.4</ele>
        <time>2023-02-19T12:19:43Z</time>
      </trkpt>
      <trkpt lat="45.68258" lon="4.35109">
        <ele>498.3</ele>
        <time>2023-02-19T12:19:44Z</time>
      </trkpt>
      <trkpt lat="45.6826" lon="4.35108">
        <ele>498</ele>
        <time>2023-02-19T12:19:46Z</time>
      </trkpt>
      <trkpt lat="45.68261" lon="4.35107">
        <ele>497.8</ele>
        <time>2023-02-19T12:19:47Z</time>
      </trkpt>
      <trkpt lat="45.68263" lon="4.35105">
        <ele>497.5</ele>
        <time>2023-02-19T12:19:48Z</time>
      </trkpt>
      <trkpt lat="45.68264" lon="4.35104">
        <ele>497.3</ele>
        <time>2023-02-19T12:19:49Z</time>
      </trkpt>
      <trkpt lat="45.68265" lon="4.35104">
        <ele>497.2</ele>
        <time>2023-02-19T12:19:50Z</time>
      </trkpt>
      <trkpt lat="45.68266" lon="4.35103">
        <ele>497</ele>
        <time>2023-02-19T12:19:51Z</time>
      </trkpt>
      <trkpt lat="45.68267" lon="4.35102">
        <ele>496.8</ele>
        <time>2023-02-19T12:19:53Z</time>
      </trkpt>
      <trkpt lat="45.68268" lon="4.35102">
        <ele>496.6</ele>
        <time>2023-02-19T12:19:54Z</time>
      </trkpt>
      <trkpt lat="45.6827" lon="4.35101">
        <ele>496.4</ele>
        <time>2023-02-19T12:19:55Z</time>
      </trkpt>
      <trkpt lat="45.68271" lon="4.35101">
        <ele>496.1</ele>
        <time>2023-02-19T12:19:56Z</time>
      </trkpt>
      <trkpt lat="45.68273" lon="4.35101">
        <ele>495.9</ele>
        <time>2023-02-19T12:19:57Z</time>
      </trkpt>
      <trkpt lat="45.68274" lon="4.35101">
        <ele>495.7</ele>
        <time>2023-02-19T12:19:58Z</time>
      </trkpt>
      <trkpt lat="45.68276" lon="4.35101">
        <ele>495.4</ele>
        <time>2023-02-19T12:19:59Z</time>
      </trkpt>
      <trkpt lat="45.68277" lon="4.35101">
        <ele>495.3</ele>
        <time>2023-02-19T12:20:00Z</time>
      </trkpt>
      <trkpt lat="45.68278" lon="4.35101">
        <ele>495.1</ele>
        <time>2023-02-19T12:20:01Z</time>
      </trkpt>
      <trkpt lat="45.6828" lon="4.35102">
        <ele>494.8</ele>
        <time>2023-02-19T12:20:02Z</time>
      </trkpt>
      <trkpt lat="45.68281" lon="4.35102">
        <ele>494.6</ele>
        <time>2023-02-19T12:20:03Z</time>
      </trkpt>
      <trkpt lat="45.68283" lon="4.35103">
        <ele>494.3</ele>
        <time>2023-02-19T12:20:04Z</time>
      </trkpt>
      <trkpt lat="45.68284" lon="4.35103">
        <ele>494.1</ele>
        <time>2023-02-19T12:20:05Z</time>
      </trkpt>
      <trkpt lat="45.68285" lon="4.35103">
        <ele>494</ele>
        <time>2023-02-19T12:20:06Z</time>
      </trkpt>
      <trkpt lat="45.68286" lon="4.35103">
        <ele>493.8</ele>
        <time>2023-02-19T12:20:07Z</time>
      </trkpt>
      <trkpt lat="45.68287" lon="4.35103">
        <ele>493.7</ele>
        <time>2023-02-19T12:20:08Z</time>
      </trkpt>
      <trkpt lat="45.68289" lon="4.35103">
        <ele>493.4</ele>
        <time>2023-02-19T12:20:09Z</time>
      </trkpt>
      <trkpt lat="45.6829" lon="4.35103">
        <ele>493.2</ele>
        <time>2023-02-19T12:20:11Z</time>
      </trkpt>
      <trkpt lat="45.68291" lon="4.35103">
        <ele>493.1</ele>
        <time>2023-02-19T12:20:12Z</time>
      </trkpt>
      <trkpt lat="45.68294" lon="4.35103">
        <ele>492.7</ele>
        <time>2023-02-19T12:20:13Z</time>
      </trkpt>
      <trkpt lat="45.68295" lon="4.35103">
        <ele>492.5</ele>
        <time>2023-02-19T12:20:14Z</time>
      </trkpt>
      <trkpt lat="45.68298" lon="4.35103">
        <ele>492.1</ele>
        <time>2023-02-19T12:20:15Z</time>
      </trkpt>
      <trkpt lat="45.68299" lon="4.35103">
        <ele>491.9</ele>
        <time>2023-02-19T12:20:16Z</time>
      </trkpt>
      <trkpt lat="45.68302" lon="4.35103">
        <ele>491.4</ele>
        <time>2023-02-19T12:20:17Z</time>
      </trkpt>
      <trkpt lat="45.68303" lon="4.35103">
        <ele>491.3</ele>
        <time>2023-02-19T12:20:18Z</time>
      </trkpt>
      <trkpt lat="45.68305" lon="4.35103">
        <ele>491</ele>
        <time>2023-02-19T12:20:20Z</time>
      </trkpt>
      <trkpt lat="45.68306" lon="4.35103">
        <ele>490.8</ele>
        <time>2023-02-19T12:20:21Z</time>
      </trkpt>
      <trkpt lat="45.68307" lon="4.35103">
        <ele>490.6</ele>
        <time>2023-02-19T12:20:22Z</time>
      </trkpt>
      <trkpt lat="45.68309" lon="4.35103">
        <ele>490.4</ele>
        <time>2023-02-19T12:20:23Z</time>
      </trkpt>
      <trkpt lat="45.6831" lon="4.35103">
        <ele>490.2</ele>
        <time>2023-02-19T12:20:24Z</time>
      </trkpt>
      <trkpt lat="45.68311" lon="4.35103">
        <ele>490</ele>
        <time>2023-02-19T12:20:25Z</time>
      </trkpt>
      <trkpt lat="45.68313" lon="4.35102">
        <ele>489.7</ele>
        <time>2023-02-19T12:20:27Z</time>
      </trkpt>
      <trkpt lat="45.68315" lon="4.35101">
        <ele>489.4</ele>
        <time>2023-02-19T12:20:28Z</time>
      </trkpt>
      <trkpt lat="45.68317" lon="4.35101">
        <ele>489.2</ele>
        <time>2023-02-19T12:20:29Z</time>
      </trkpt>
      <trkpt lat="45.68319" lon="4.351">
        <ele>488.9</ele>
        <time>2023-02-19T12:20:30Z</time>
      </trkpt>
      <trkpt lat="45.6832" lon="4.351">
        <ele>488.6</ele>
        <time>2023-02-19T12:20:31Z</time>
      </trkpt>
      <trkpt lat="45.68322" lon="4.351">
        <ele>488.4</ele>
        <time>2023-02-19T12:20:32Z</time>
      </trkpt>
      <trkpt lat="45.68323" lon="4.35099">
        <ele>488.2</ele>
        <time>2023-02-19T12:20:33Z</time>
      </trkpt>
      <trkpt lat="45.68326" lon="4.35099">
        <ele>487.8</ele>
        <time>2023-02-19T12:20:34Z</time>
      </trkpt>
      <trkpt lat="45.68327" lon="4.35098">
        <ele>487.6</ele>
        <time>2023-02-19T12:20:35Z</time>
      </trkpt>
      <trkpt lat="45.68329" lon="4.35098">
        <ele>487.3</ele>
        <time>2023-02-19T12:20:37Z</time>
      </trkpt>
      <trkpt lat="45.6833" lon="4.35098">
        <ele>487.1</ele>
        <time>2023-02-19T12:20:38Z</time>
      </trkpt>
      <trkpt lat="45.68333" lon="4.35097">
        <ele>486.7</ele>
        <time>2023-02-19T12:20:40Z</time>
      </trkpt>
      <trkpt lat="45.68333" lon="4.35097">
        <ele>486.6</ele>
        <time>2023-02-19T12:20:41Z</time>
      </trkpt>
      <trkpt lat="45.68336" lon="4.35096">
        <ele>486.3</ele>
        <time>2023-02-19T12:20:43Z</time>
      </trkpt>
      <trkpt lat="45.68336" lon="4.35096">
        <ele>486.1</ele>
        <time>2023-02-19T12:20:44Z</time>
      </trkpt>
      <trkpt lat="45.68337" lon="4.35096">
        <ele>486</ele>
        <time>2023-02-19T12:20:45Z</time>
      </trkpt>
      <trkpt lat="45.6834" lon="4.35096">
        <ele>485.6</ele>
        <time>2023-02-19T12:20:46Z</time>
      </trkpt>
      <trkpt lat="45.6834" lon="4.35096">
        <ele>485.5</ele>
        <time>2023-02-19T12:20:47Z</time>
      </trkpt>
      <trkpt lat="45.68341" lon="4.35096">
        <ele>485.4</ele>
        <time>2023-02-19T12:20:48Z</time>
      </trkpt>
      <trkpt lat="45.68342" lon="4.35096">
        <ele>485.2</ele>
        <time>2023-02-19T12:20:49Z</time>
      </trkpt>
      <trkpt lat="45.68343" lon="4.35096">
        <ele>485</ele>
        <time>2023-02-19T12:20:50Z</time>
      </trkpt>
      <trkpt lat="45.68345" lon="4.35096">
        <ele>484.9</ele>
        <time>2023-02-19T12:20:51Z</time>
      </trkpt>
      <trkpt lat="45.68346" lon="4.35097">
        <ele>484.7</ele>
        <time>2023-02-19T12:20:52Z</time>
      </trkpt>
      <trkpt lat="45.68347" lon="4.35097">
        <ele>484.5</ele>
        <time>2023-02-19T12:20:53Z</time>
      </trkpt>
      <trkpt lat="45.68348" lon="4.35098">
        <ele>484.3</ele>
        <time>2023-02-19T12:20:55Z</time>
      </trkpt>
      <trkpt lat="45.6835" lon="4.35098">
        <ele>484</ele>
        <time>2023-02-19T12:20:56Z</time>
      </trkpt>
      <trkpt lat="45.68351" lon="4.35099">
        <ele>483.8</ele>
        <time>2023-02-19T12:20:57Z</time>
      </trkpt>
      <trkpt lat="45.68353" lon="4.35099">
        <ele>483.6</ele>
        <time>2023-02-19T12:20:58Z</time>
      </trkpt>
      <trkpt lat="45.68354" lon="4.35099">
        <ele>483.4</ele>
        <time>2023-02-19T12:20:59Z</time>
      </trkpt>
      <trkpt lat="45.68355" lon="4.35099">
        <ele>483.2</ele>
        <time>2023-02-19T12:21:00Z</time>
      </trkpt>
      <trkpt lat="45.68356" lon="4.351">
        <ele>483</ele>
        <time>2023-02-19T12:21:01Z</time>
      </trkpt>
      <trkpt lat="45.68358" lon="4.35101">
        <ele>482.8</ele>
        <time>2023-02-19T12:21:03Z</time>
      </trkpt>
      <trkpt lat="45.6836" lon="4.35102">
        <ele>482.4</ele>
        <time>2023-02-19T12:21:04Z</time>
      </trkpt>
      <trkpt lat="45.68361" lon="4.35103">
        <ele>482.2</ele>
        <time>2023-02-19T12:21:05Z</time>
      </trkpt>
      <trkpt lat="45.68362" lon="4.35105">
        <ele>482</ele>
        <time>2023-02-19T12:21:07Z</time>
      </trkpt>
      <trkpt lat="45.68364" lon="4.35106">
        <ele>481.7</ele>
        <time>2023-02-19T12:21:08Z</time>
      </trkpt>
      <trkpt lat="45.68364" lon="4.35107">
        <ele>481.6</ele>
        <time>2023-02-19T12:21:09Z</time>
      </trkpt>
      <trkpt lat="45.68365" lon="4.35108">
        <ele>481.4</ele>
        <time>2023-02-19T12:21:10Z</time>
      </trkpt>
      <trkpt lat="45.68366" lon="4.3511">
        <ele>481.2</ele>
        <time>2023-02-19T12:21:12Z</time>
      </trkpt>
      <trkpt lat="45.68367" lon="4.35111">
        <ele>480.9</ele>
        <time>2023-02-19T12:21:13Z</time>
      </trkpt>
      <trkpt lat="45.68368" lon="4.35113">
        <ele>480.7</ele>
        <time>2023-02-19T12:21:14Z</time>
      </trkpt>
      <trkpt lat="45.68369" lon="4.35114">
        <ele>480.5</ele>
        <time>2023-02-19T12:21:15Z</time>
      </trkpt>
      <trkpt lat="45.68371" lon="4.35116">
        <ele>480.2</ele>
        <time>2023-02-19T12:21:16Z</time>
      </trkpt>
      <trkpt lat="45.68372" lon="4.35118">
        <ele>479.9</ele>
        <time>2023-02-19T12:21:17Z</time>
      </trkpt>
      <trkpt lat="45.68373" lon="4.3512">
        <ele>479.7</ele>
        <time>2023-02-19T12:21:18Z</time>
      </trkpt>
      <trkpt lat="45.68374" lon="4.35121">
        <ele>479.5</ele>
        <time>2023-02-19T12:21:19Z</time>
      </trkpt>
      <trkpt lat="45.68375" lon="4.35122">
        <ele>479.3</ele>
        <time>2023-02-19T12:21:20Z</time>
      </trkpt>
      <trkpt lat="45.68378" lon="4.35126">
        <ele>478.7</ele>
        <time>2023-02-19T12:21:22Z</time>
      </trkpt>
      <trkpt lat="45.68379" lon="4.35126">
        <ele>478.6</ele>
        <time>2023-02-19T12:21:24Z</time>
      </trkpt>
      <trkpt lat="45.6838" lon="4.35127">
        <ele>478.6</ele>
        <time>2023-02-19T12:21:25Z</time>
      </trkpt>
      <trkpt lat="45.68381" lon="4.35128">
        <ele>478.6</ele>
        <time>2023-02-19T12:21:26Z</time>
      </trkpt>
      <trkpt lat="45.68382" lon="4.35128">
        <ele>478.6</ele>
        <time>2023-02-19T12:21:27Z</time>
      </trkpt>
      <trkpt lat="45.68381" lon="4.3513">
        <ele>478.5</ele>
        <time>2023-02-19T12:21:29Z</time>
      </trkpt>
      <trkpt lat="45.68382" lon="4.35131">
        <ele>478.5</ele>
        <time>2023-02-19T12:21:30Z</time>
      </trkpt>
      <trkpt lat="45.68382" lon="4.35133">
        <ele>478.5</ele>
        <time>2023-02-19T12:21:31Z</time>
      </trkpt>
      <trkpt lat="45.68383" lon="4.35135">
        <ele>478.4</ele>
        <time>2023-02-19T12:21:32Z</time>
      </trkpt>
      <trkpt lat="45.68384" lon="4.35136">
        <ele>478.4</ele>
        <time>2023-02-19T12:21:33Z</time>
      </trkpt>
      <trkpt lat="45.68384" lon="4.35138">
        <ele>478.3</ele>
        <time>2023-02-19T12:21:34Z</time>
      </trkpt>
      <trkpt lat="45.68385" lon="4.3514">
        <ele>478.3</ele>
        <time>2023-02-19T12:21:35Z</time>
      </trkpt>
      <trkpt lat="45.68388" lon="4.35143">
        <ele>478.3</ele>
        <time>2023-02-19T12:21:37Z</time>
      </trkpt>
      <trkpt lat="45.68389" lon="4.35145">
        <ele>478.2</ele>
        <time>2023-02-19T12:21:38Z</time>
      </trkpt>
      <trkpt lat="45.68389" lon="4.35146">
        <ele>478.2</ele>
        <time>2023-02-19T12:21:39Z</time>
      </trkpt>
      <trkpt lat="45.6839" lon="4.35148">
        <ele>478.2</ele>
        <time>2023-02-19T12:21:40Z</time>
      </trkpt>
      <trkpt lat="45.68391" lon="4.35152">
        <ele>478.2</ele>
        <time>2023-02-19T12:21:41Z</time>
      </trkpt>
      <trkpt lat="45.68391" lon="4.35153">
        <ele>478.2</ele>
        <time>2023-02-19T12:21:42Z</time>
      </trkpt>
      <trkpt lat="45.68392" lon="4.35155">
        <ele>478.2</ele>
        <time>2023-02-19T12:21:43Z</time>
      </trkpt>
      <trkpt lat="45.68392" lon="4.35157">
        <ele>478.2</ele>
        <time>2023-02-19T12:21:45Z</time>
      </trkpt>
      <trkpt lat="45.68393" lon="4.35159">
        <ele>478.2</ele>
        <time>2023-02-19T12:21:46Z</time>
      </trkpt>
      <trkpt lat="45.68394" lon="4.35162">
        <ele>478.3</ele>
        <time>2023-02-19T12:21:47Z</time>
      </trkpt>
      <trkpt lat="45.68395" lon="4.35165">
        <ele>478.3</ele>
        <time>2023-02-19T12:21:49Z</time>
      </trkpt>
      <trkpt lat="45.68396" lon="4.35167">
        <ele>478.3</ele>
        <time>2023-02-19T12:21:50Z</time>
      </trkpt>
      <trkpt lat="45.68397" lon="4.35168">
        <ele>478.3</ele>
        <time>2023-02-19T12:21:51Z</time>
      </trkpt>
      <trkpt lat="45.68399" lon="4.35171">
        <ele>478.4</ele>
        <time>2023-02-19T12:21:52Z</time>
      </trkpt>
      <trkpt lat="45.684" lon="4.35172">
        <ele>478.4</ele>
        <time>2023-02-19T12:21:54Z</time>
      </trkpt>
      <trkpt lat="45.684" lon="4.35173">
        <ele>478.4</ele>
        <time>2023-02-19T12:21:55Z</time>
      </trkpt>
      <trkpt lat="45.68401" lon="4.35175">
        <ele>478.4</ele>
        <time>2023-02-19T12:21:56Z</time>
      </trkpt>
      <trkpt lat="45.68401" lon="4.35176">
        <ele>478.4</ele>
        <time>2023-02-19T12:21:57Z</time>
      </trkpt>
      <trkpt lat="45.68402" lon="4.35177">
        <ele>478.4</ele>
        <time>2023-02-19T12:21:58Z</time>
      </trkpt>
      <trkpt lat="45.68403" lon="4.35178">
        <ele>478.5</ele>
        <time>2023-02-19T12:21:59Z</time>
      </trkpt>
      <trkpt lat="45.68403" lon="4.35179">
        <ele>478.5</ele>
        <time>2023-02-19T12:22:00Z</time>
      </trkpt>
      <trkpt lat="45.68403" lon="4.3518">
        <ele>478.5</ele>
        <time>2023-02-19T12:22:01Z</time>
      </trkpt>
      <trkpt lat="45.68403" lon="4.3518">
        <ele>478.5</ele>
        <time>2023-02-19T12:22:03Z</time>
      </trkpt>
      <trkpt lat="45.68402" lon="4.35181">
        <ele>478.5</ele>
        <time>2023-02-19T12:22:04Z</time>
      </trkpt>
      <trkpt lat="45.68402" lon="4.35182">
        <ele>478.5</ele>
        <time>2023-02-19T12:22:05Z</time>
      </trkpt>
      <trkpt lat="45.68401" lon="4.35182">
        <ele>478.5</ele>
        <time>2023-02-19T12:22:06Z</time>
      </trkpt>
      <trkpt lat="45.68401" lon="4.35183">
        <ele>478.5</ele>
        <time>2023-02-19T12:22:07Z</time>
      </trkpt>
      <trkpt lat="45.68401" lon="4.35183">
        <ele>478.5</ele>
        <time>2023-02-19T12:22:08Z</time>
      </trkpt>
      <trkpt lat="45.68401" lon="4.35182">
        <ele>478.5</ele>
        <time>2023-02-19T12:22:10Z</time>
      </trkpt>
      <trkpt lat="45.68401" lon="4.35182">
        <ele>478.5</ele>
        <time>2023-02-19T12:22:11Z</time>
      </trkpt>
      <trkpt lat="45.68401" lon="4.35182">
        <ele>478.5</ele>
        <time>2023-02-19T12:22:12Z</time>
      </trkpt>
      <trkpt lat="45.68402" lon="4.35182">
        <ele>478.5</ele>
        <time>2023-02-19T12:22:14Z</time>
      </trkpt>
      <trkpt lat="45.68402" lon="4.35183">
        <ele>478.5</ele>
        <time>2023-02-19T12:22:15Z</time>
      </trkpt>
      <trkpt lat="45.68402" lon="4.35183">
        <ele>478.5</ele>
        <time>2023-02-19T12:22:16Z</time>
      </trkpt>
      <trkpt lat="45.68403" lon="4.35183">
        <ele>478.5</ele>
        <time>2023-02-19T12:22:17Z</time>
      </trkpt>
      <trkpt lat="45.68404" lon="4.35184">
        <ele>478.6</ele>
        <time>2023-02-19T12:22:18Z</time>
      </trkpt>
      <trkpt lat="45.68405" lon="4.35184">
        <ele>478.6</ele>
        <time>2023-02-19T12:22:19Z</time>
      </trkpt>
      <trkpt lat="45.68406" lon="4.35185">
        <ele>478.6</ele>
        <time>2023-02-19T12:22:20Z</time>
      </trkpt>
      <trkpt lat="45.68408" lon="4.35185">
        <ele>478.6</ele>
        <time>2023-02-19T12:22:22Z</time>
      </trkpt>
      <trkpt lat="45.68411" lon="4.35186">
        <ele>478.7</ele>
        <time>2023-02-19T12:22:23Z</time>
      </trkpt>
      <trkpt lat="45.68412" lon="4.35186">
        <ele>478.7</ele>
        <time>2023-02-19T12:22:24Z</time>
      </trkpt>
      <trkpt lat="45.68415" lon="4.35187">
        <ele>478.8</ele>
        <time>2023-02-19T12:22:25Z</time>
      </trkpt>
      <trkpt lat="45.68419" lon="4.35188">
        <ele>478.9</ele>
        <time>2023-02-19T12:22:26Z</time>
      </trkpt>
      <trkpt lat="45.68421" lon="4.35189">
        <ele>478.9</ele>
        <time>2023-02-19T12:22:27Z</time>
      </trkpt>
      <trkpt lat="45.68423" lon="4.35189">
        <ele>479</ele>
        <time>2023-02-19T12:22:28Z</time>
      </trkpt>
      <trkpt lat="45.68425" lon="4.3519">
        <ele>479.1</ele>
        <time>2023-02-19T12:22:29Z</time>
      </trkpt>
      <trkpt lat="45.68426" lon="4.3519">
        <ele>479.1</ele>
        <time>2023-02-19T12:22:31Z</time>
      </trkpt>
      <trkpt lat="45.68428" lon="4.3519">
        <ele>479.2</ele>
        <time>2023-02-19T12:22:32Z</time>
      </trkpt>
      <trkpt lat="45.68429" lon="4.35191">
        <ele>479.2</ele>
        <time>2023-02-19T12:22:33Z</time>
      </trkpt>
      <trkpt lat="45.68431" lon="4.35191">
        <ele>479.3</ele>
        <time>2023-02-19T12:22:34Z</time>
      </trkpt>
      <trkpt lat="45.68432" lon="4.35192">
        <ele>479.3</ele>
        <time>2023-02-19T12:22:35Z</time>
      </trkpt>
      <trkpt lat="45.68434" lon="4.35192">
        <ele>479.5</ele>
        <time>2023-02-19T12:22:36Z</time>
      </trkpt>
      <trkpt lat="45.68436" lon="4.35193">
        <ele>479.7</ele>
        <time>2023-02-19T12:22:37Z</time>
      </trkpt>
      <trkpt lat="45.68438" lon="4.35194">
        <ele>480</ele>
        <time>2023-02-19T12:22:38Z</time>
      </trkpt>
      <trkpt lat="45.6844" lon="4.35195">
        <ele>480.1</ele>
        <time>2023-02-19T12:22:40Z</time>
      </trkpt>
      <trkpt lat="45.68441" lon="4.35195">
        <ele>480.3</ele>
        <time>2023-02-19T12:22:41Z</time>
      </trkpt>
      <trkpt lat="45.68442" lon="4.35196">
        <ele>480.5</ele>
        <time>2023-02-19T12:22:42Z</time>
      </trkpt>
      <trkpt lat="45.68444" lon="4.35197">
        <ele>480.7</ele>
        <time>2023-02-19T12:22:44Z</time>
      </trkpt>
      <trkpt lat="45.68445" lon="4.35197">
        <ele>480.8</ele>
        <time>2023-02-19T12:22:45Z</time>
      </trkpt>
      <trkpt lat="45.68447" lon="4.35198">
        <ele>481</ele>
        <time>2023-02-19T12:22:47Z</time>
      </trkpt>
      <trkpt lat="45.68447" lon="4.35199">
        <ele>481.1</ele>
        <time>2023-02-19T12:22:48Z</time>
      </trkpt>
      <trkpt lat="45.68447" lon="4.35199">
        <ele>481.1</ele>
        <time>2023-02-19T12:22:49Z</time>
      </trkpt>
      <trkpt lat="45.68448" lon="4.35199">
        <ele>481.1</ele>
        <time>2023-02-19T12:22:50Z</time>
      </trkpt>
      <trkpt lat="45.68448" lon="4.35199">
        <ele>481.2</ele>
        <time>2023-02-19T12:22:51Z</time>
      </trkpt>
      <trkpt lat="45.68449" lon="4.35199">
        <ele>481.3</ele>
        <time>2023-02-19T12:22:52Z</time>
      </trkpt>
      <trkpt lat="45.68449" lon="4.35199">
        <ele>481.3</ele>
        <time>2023-02-19T12:22:53Z</time>
      </trkpt>
      <trkpt lat="45.68449" lon="4.35199">
        <ele>481.4</ele>
        <time>2023-02-19T12:22:55Z</time>
      </trkpt>
      <trkpt lat="45.6845" lon="4.352">
        <ele>481.5</ele>
        <time>2023-02-19T12:22:56Z</time>
      </trkpt>
      <trkpt lat="45.68451" lon="4.352">
        <ele>481.5</ele>
        <time>2023-02-19T12:22:57Z</time>
      </trkpt>
      <trkpt lat="45.68451" lon="4.352">
        <ele>481.6</ele>
        <time>2023-02-19T12:22:58Z</time>
      </trkpt>
      <trkpt lat="45.68452" lon="4.35201">
        <ele>481.7</ele>
        <time>2023-02-19T12:22:59Z</time>
      </trkpt>
      <trkpt lat="45.68453" lon="4.35201">
        <ele>481.8</ele>
        <time>2023-02-19T12:23:00Z</time>
      </trkpt>
      <trkpt lat="45.68454" lon="4.35201">
        <ele>482</ele>
        <time>2023-02-19T12:23:01Z</time>
      </trkpt>
      <trkpt lat="45.68455" lon="4.35202">
        <ele>482.1</ele>
        <time>2023-02-19T12:23:03Z</time>
      </trkpt>
      <trkpt lat="45.68456" lon="4.35202">
        <ele>482.3</ele>
        <time>2023-02-19T12:23:04Z</time>
      </trkpt>
      <trkpt lat="45.68457" lon="4.35203">
        <ele>482.4</ele>
        <time>2023-02-19T12:23:05Z</time>
      </trkpt>
      <trkpt lat="45.68458" lon="4.35203">
        <ele>482.6</ele>
        <time>2023-02-19T12:23:06Z</time>
      </trkpt>
      <trkpt lat="45.6846" lon="4.35204">
        <ele>482.9</ele>
        <time>2023-02-19T12:23:07Z</time>
      </trkpt>
      <trkpt lat="45.68461" lon="4.35205">
        <ele>483.1</ele>
        <time>2023-02-19T12:23:09Z</time>
      </trkpt>
      <trkpt lat="45.68462" lon="4.35206">
        <ele>483.2</ele>
        <time>2023-02-19T12:23:10Z</time>
      </trkpt>
      <trkpt lat="45.68463" lon="4.35206">
        <ele>483.4</ele>
        <time>2023-02-19T12:23:11Z</time>
      </trkpt>
      <trkpt lat="45.68464" lon="4.35207">
        <ele>483.5</ele>
        <time>2023-02-19T12:23:12Z</time>
      </trkpt>
      <trkpt lat="45.68465" lon="4.35209">
        <ele>483.8</ele>
        <time>2023-02-19T12:23:14Z</time>
      </trkpt>
      <trkpt lat="45.68466" lon="4.3521">
        <ele>483.9</ele>
        <time>2023-02-19T12:23:15Z</time>
      </trkpt>
      <trkpt lat="45.68467" lon="4.3521">
        <ele>484</ele>
        <time>2023-02-19T12:23:17Z</time>
      </trkpt>
      <trkpt lat="45.68469" lon="4.35212">
        <ele>484.3</ele>
        <time>2023-02-19T12:23:18Z</time>
      </trkpt>
      <trkpt lat="45.6847" lon="4.35214">
        <ele>484.5</ele>
        <time>2023-02-19T12:23:20Z</time>
      </trkpt>
      <trkpt lat="45.6847" lon="4.35215">
        <ele>484.6</ele>
        <time>2023-02-19T12:23:21Z</time>
      </trkpt>
      <trkpt lat="45.68472" lon="4.35217">
        <ele>484.9</ele>
        <time>2023-02-19T12:23:22Z</time>
      </trkpt>
      <trkpt lat="45.68472" lon="4.35218">
        <ele>485</ele>
        <time>2023-02-19T12:23:23Z</time>
      </trkpt>
      <trkpt lat="45.68473" lon="4.35219">
        <ele>485.2</ele>
        <time>2023-02-19T12:23:24Z</time>
      </trkpt>
      <trkpt lat="45.68474" lon="4.35221">
        <ele>485.4</ele>
        <time>2023-02-19T12:23:25Z</time>
      </trkpt>
      <trkpt lat="45.68475" lon="4.35222">
        <ele>485.6</ele>
        <time>2023-02-19T12:23:26Z</time>
      </trkpt>
      <trkpt lat="45.68476" lon="4.35223">
        <ele>485.8</ele>
        <time>2023-02-19T12:23:28Z</time>
      </trkpt>
      <trkpt lat="45.68477" lon="4.35225">
        <ele>485.9</ele>
        <time>2023-02-19T12:23:29Z</time>
      </trkpt>
      <trkpt lat="45.68478" lon="4.35226">
        <ele>486.1</ele>
        <time>2023-02-19T12:23:30Z</time>
      </trkpt>
      <trkpt lat="45.68478" lon="4.35226">
        <ele>486.2</ele>
        <time>2023-02-19T12:23:31Z</time>
      </trkpt>
      <trkpt lat="45.68479" lon="4.35228">
        <ele>486.4</ele>
        <time>2023-02-19T12:23:32Z</time>
      </trkpt>
      <trkpt lat="45.6848" lon="4.35229">
        <ele>486.6</ele>
        <time>2023-02-19T12:23:34Z</time>
      </trkpt>
      <trkpt lat="45.68481" lon="4.3523">
        <ele>486.7</ele>
        <time>2023-02-19T12:23:35Z</time>
      </trkpt>
      <trkpt lat="45.68482" lon="4.3523">
        <ele>486.8</ele>
        <time>2023-02-19T12:23:36Z</time>
      </trkpt>
      <trkpt lat="45.68483" lon="4.35231">
        <ele>487</ele>
        <time>2023-02-19T12:23:37Z</time>
      </trkpt>
      <trkpt lat="45.68484" lon="4.35231">
        <ele>487.1</ele>
        <time>2023-02-19T12:23:38Z</time>
      </trkpt>
      <trkpt lat="45.68485" lon="4.35232">
        <ele>487.2</ele>
        <time>2023-02-19T12:23:39Z</time>
      </trkpt>
      <trkpt lat="45.68485" lon="4.35232">
        <ele>487.3</ele>
        <time>2023-02-19T12:23:40Z</time>
      </trkpt>
      <trkpt lat="45.68486" lon="4.35231">
        <ele>487.4</ele>
        <time>2023-02-19T12:23:41Z</time>
      </trkpt>
      <trkpt lat="45.68486" lon="4.35231">
        <ele>487.5</ele>
        <time>2023-02-19T12:23:42Z</time>
      </trkpt>
      <trkpt lat="45.68487" lon="4.35231">
        <ele>487.6</ele>
        <time>2023-02-19T12:23:44Z</time>
      </trkpt>
      <trkpt lat="45.68488" lon="4.35231">
        <ele>487.7</ele>
        <time>2023-02-19T12:23:45Z</time>
      </trkpt>
      <trkpt lat="45.68489" lon="4.35232">
        <ele>487.8</ele>
        <time>2023-02-19T12:23:46Z</time>
      </trkpt>
      <trkpt lat="45.6849" lon="4.35233">
        <ele>488</ele>
        <time>2023-02-19T12:23:47Z</time>
      </trkpt>
      <trkpt lat="45.6849" lon="4.35233">
        <ele>488.1</ele>
        <time>2023-02-19T12:23:49Z</time>
      </trkpt>
      <trkpt lat="45.68491" lon="4.35234">
        <ele>488.3</ele>
        <time>2023-02-19T12:23:50Z</time>
      </trkpt>
      <trkpt lat="45.68493" lon="4.35235">
        <ele>488.6</ele>
        <time>2023-02-19T12:23:51Z</time>
      </trkpt>
      <trkpt lat="45.68494" lon="4.35235">
        <ele>488.7</ele>
        <time>2023-02-19T12:23:52Z</time>
      </trkpt>
      <trkpt lat="45.68495" lon="4.35236">
        <ele>488.8</ele>
        <time>2023-02-19T12:23:53Z</time>
      </trkpt>
      <trkpt lat="45.68496" lon="4.35237">
        <ele>489.1</ele>
        <time>2023-02-19T12:23:54Z</time>
      </trkpt>
      <trkpt lat="45.68497" lon="4.35238">
        <ele>489.3</ele>
        <time>2023-02-19T12:23:56Z</time>
      </trkpt>
      <trkpt lat="45.68498" lon="4.35239">
        <ele>489.4</ele>
        <time>2023-02-19T12:23:57Z</time>
      </trkpt>
      <trkpt lat="45.68499" lon="4.35239">
        <ele>489.6</ele>
        <time>2023-02-19T12:23:58Z</time>
      </trkpt>
      <trkpt lat="45.68501" lon="4.3524">
        <ele>489.8</ele>
        <time>2023-02-19T12:23:59Z</time>
      </trkpt>
      <trkpt lat="45.68502" lon="4.3524">
        <ele>490</ele>
        <time>2023-02-19T12:24:01Z</time>
      </trkpt>
      <trkpt lat="45.68503" lon="4.35241">
        <ele>490.2</ele>
        <time>2023-02-19T12:24:02Z</time>
      </trkpt>
      <trkpt lat="45.68503" lon="4.35241">
        <ele>490.3</ele>
        <time>2023-02-19T12:24:03Z</time>
      </trkpt>
      <trkpt lat="45.68504" lon="4.35242">
        <ele>490.5</ele>
        <time>2023-02-19T12:24:04Z</time>
      </trkpt>
      <trkpt lat="45.68505" lon="4.35242">
        <ele>490.5</ele>
        <time>2023-02-19T12:24:06Z</time>
      </trkpt>
      <trkpt lat="45.68506" lon="4.35243">
        <ele>490.7</ele>
        <time>2023-02-19T12:24:07Z</time>
      </trkpt>
      <trkpt lat="45.68506" lon="4.35243">
        <ele>490.8</ele>
        <time>2023-02-19T12:24:08Z</time>
      </trkpt>
      <trkpt lat="45.68507" lon="4.35244">
        <ele>490.9</ele>
        <time>2023-02-19T12:24:09Z</time>
      </trkpt>
      <trkpt lat="45.68507" lon="4.35244">
        <ele>491</ele>
        <time>2023-02-19T12:24:10Z</time>
      </trkpt>
      <trkpt lat="45.68508" lon="4.35245">
        <ele>491.2</ele>
        <time>2023-02-19T12:24:11Z</time>
      </trkpt>
      <trkpt lat="45.68509" lon="4.35246">
        <ele>491.4</ele>
        <time>2023-02-19T12:24:12Z</time>
      </trkpt>
      <trkpt lat="45.68509" lon="4.35248">
        <ele>491.5</ele>
        <time>2023-02-19T12:24:14Z</time>
      </trkpt>
      <trkpt lat="45.6851" lon="4.35249">
        <ele>491.6</ele>
        <time>2023-02-19T12:24:15Z</time>
      </trkpt>
      <trkpt lat="45.6851" lon="4.3525">
        <ele>491.8</ele>
        <time>2023-02-19T12:24:16Z</time>
      </trkpt>
      <trkpt lat="45.6851" lon="4.35251">
        <ele>491.9</ele>
        <time>2023-02-19T12:24:17Z</time>
      </trkpt>
      <trkpt lat="45.6851" lon="4.35253">
        <ele>492.1</ele>
        <time>2023-02-19T12:24:18Z</time>
      </trkpt>
      <trkpt lat="45.6851" lon="4.35255">
        <ele>493.2</ele>
        <time>2023-02-19T12:24:20Z</time>
      </trkpt>
      <trkpt lat="45.6851" lon="4.35256">
        <ele>493.3</ele>
        <time>2023-02-19T12:24:21Z</time>
      </trkpt>
      <trkpt lat="45.6851" lon="4.35259">
        <ele>493.6</ele>
        <time>2023-02-19T12:24:22Z</time>
      </trkpt>
      <trkpt lat="45.6851" lon="4.35263">
        <ele>493.8</ele>
        <time>2023-02-19T12:24:23Z</time>
      </trkpt>
      <trkpt lat="45.6851" lon="4.35264">
        <ele>493.9</ele>
        <time>2023-02-19T12:24:24Z</time>
      </trkpt>
      <trkpt lat="45.6851" lon="4.35266">
        <ele>494.1</ele>
        <time>2023-02-19T12:24:25Z</time>
      </trkpt>
      <trkpt lat="45.68511" lon="4.35269">
        <ele>494.3</ele>
        <time>2023-02-19T12:24:26Z</time>
      </trkpt>
      <trkpt lat="45.68511" lon="4.35271">
        <ele>494.4</ele>
        <time>2023-02-19T12:24:28Z</time>
      </trkpt>
      <trkpt lat="45.68512" lon="4.35273">
        <ele>494.6</ele>
        <time>2023-02-19T12:24:29Z</time>
      </trkpt>
      <trkpt lat="45.68512" lon="4.35275">
        <ele>494.7</ele>
        <time>2023-02-19T12:24:30Z</time>
      </trkpt>
      <trkpt lat="45.68513" lon="4.3528">
        <ele>495</ele>
        <time>2023-02-19T12:24:31Z</time>
      </trkpt>
      <trkpt lat="45.68513" lon="4.35281">
        <ele>495.1</ele>
        <time>2023-02-19T12:24:32Z</time>
      </trkpt>
      <trkpt lat="45.68514" lon="4.35285">
        <ele>495.3</ele>
        <time>2023-02-19T12:24:33Z</time>
      </trkpt>
      <trkpt lat="45.68515" lon="4.35289">
        <ele>495.5</ele>
        <time>2023-02-19T12:24:35Z</time>
      </trkpt>
      <trkpt lat="45.68516" lon="4.35293">
        <ele>495.7</ele>
        <time>2023-02-19T12:24:36Z</time>
      </trkpt>
      <trkpt lat="45.68517" lon="4.35295">
        <ele>495.8</ele>
        <time>2023-02-19T12:24:37Z</time>
      </trkpt>
      <trkpt lat="45.68517" lon="4.35297">
        <ele>495.9</ele>
        <time>2023-02-19T12:24:38Z</time>
      </trkpt>
      <trkpt lat="45.68517" lon="4.35299">
        <ele>496</ele>
        <time>2023-02-19T12:24:39Z</time>
      </trkpt>
      <trkpt lat="45.68517" lon="4.35302">
        <ele>496.1</ele>
        <time>2023-02-19T12:24:41Z</time>
      </trkpt>
      <trkpt lat="45.68518" lon="4.35303">
        <ele>496.2</ele>
        <time>2023-02-19T12:24:42Z</time>
      </trkpt>
      <trkpt lat="45.68518" lon="4.35305">
        <ele>496.3</ele>
        <time>2023-02-19T12:24:43Z</time>
      </trkpt>
      <trkpt lat="45.68519" lon="4.35306">
        <ele>496.3</ele>
        <time>2023-02-19T12:24:44Z</time>
      </trkpt>
      <trkpt lat="45.6852" lon="4.35308">
        <ele>496.5</ele>
        <time>2023-02-19T12:24:45Z</time>
      </trkpt>
      <trkpt lat="45.6852" lon="4.3531">
        <ele>496.6</ele>
        <time>2023-02-19T12:24:47Z</time>
      </trkpt>
      <trkpt lat="45.68521" lon="4.35311">
        <ele>496.7</ele>
        <time>2023-02-19T12:24:48Z</time>
      </trkpt>
      <trkpt lat="45.68521" lon="4.35313">
        <ele>496.7</ele>
        <time>2023-02-19T12:24:49Z</time>
      </trkpt>
      <trkpt lat="45.68521" lon="4.35315">
        <ele>496.8</ele>
        <time>2023-02-19T12:24:50Z</time>
      </trkpt>
      <trkpt lat="45.68519" lon="4.35318">
        <ele>497.1</ele>
        <time>2023-02-19T12:24:51Z</time>
      </trkpt>
      <trkpt lat="45.68519" lon="4.3532">
        <ele>497.2</ele>
        <time>2023-02-19T12:24:52Z</time>
      </trkpt>
      <trkpt lat="45.68518" lon="4.35322">
        <ele>497.3</ele>
        <time>2023-02-19T12:24:53Z</time>
      </trkpt>
      <trkpt lat="45.68517" lon="4.35324">
        <ele>497.4</ele>
        <time>2023-02-19T12:24:54Z</time>
      </trkpt>
      <trkpt lat="45.68516" lon="4.35327">
        <ele>497.6</ele>
        <time>2023-02-19T12:24:55Z</time>
      </trkpt>
      <trkpt lat="45.68516" lon="4.35329">
        <ele>497.7</ele>
        <time>2023-02-19T12:24:56Z</time>
      </trkpt>
      <trkpt lat="45.68515" lon="4.3533">
        <ele>497.8</ele>
        <time>2023-02-19T12:24:57Z</time>
      </trkpt>
      <trkpt lat="45.68515" lon="4.35332">
        <ele>497.9</ele>
        <time>2023-02-19T12:24:59Z</time>
      </trkpt>
      <trkpt lat="45.68514" lon="4.35334">
        <ele>498.1</ele>
        <time>2023-02-19T12:25:00Z</time>
      </trkpt>
      <trkpt lat="45.68512" lon="4.35336">
        <ele>498.3</ele>
        <time>2023-02-19T12:25:01Z</time>
      </trkpt>
      <trkpt lat="45.68512" lon="4.35337">
        <ele>498.3</ele>
        <time>2023-02-19T12:25:02Z</time>
      </trkpt>
      <trkpt lat="45.68511" lon="4.35338">
        <ele>500.8</ele>
        <time>2023-02-19T12:25:03Z</time>
      </trkpt>
      <trkpt lat="45.6851" lon="4.35339">
        <ele>501.1</ele>
        <time>2023-02-19T12:25:04Z</time>
      </trkpt>
      <trkpt lat="45.68509" lon="4.35341">
        <ele>501.5</ele>
        <time>2023-02-19T12:25:05Z</time>
      </trkpt>
      <trkpt lat="45.68508" lon="4.35342">
        <ele>501.7</ele>
        <time>2023-02-19T12:25:06Z</time>
      </trkpt>
      <trkpt lat="45.68508" lon="4.35345">
        <ele>502.1</ele>
        <time>2023-02-19T12:25:08Z</time>
      </trkpt>
      <trkpt lat="45.68507" lon="4.35346">
        <ele>502.2</ele>
        <time>2023-02-19T12:25:09Z</time>
      </trkpt>
      <trkpt lat="45.68507" lon="4.35349">
        <ele>502.6</ele>
        <time>2023-02-19T12:25:11Z</time>
      </trkpt>
      <trkpt lat="45.68508" lon="4.35351">
        <ele>502.8</ele>
        <time>2023-02-19T12:25:13Z</time>
      </trkpt>
      <trkpt lat="45.68508" lon="4.35352">
        <ele>502.9</ele>
        <time>2023-02-19T12:25:14Z</time>
      </trkpt>
      <trkpt lat="45.68508" lon="4.35353">
        <ele>503</ele>
        <time>2023-02-19T12:25:15Z</time>
      </trkpt>
      <trkpt lat="45.68509" lon="4.35353">
        <ele>503.1</ele>
        <time>2023-02-19T12:25:16Z</time>
      </trkpt>
      <trkpt lat="45.68509" lon="4.35353">
        <ele>503.2</ele>
        <time>2023-02-19T12:25:17Z</time>
      </trkpt>
      <trkpt lat="45.6851" lon="4.35353">
        <ele>503.2</ele>
        <time>2023-02-19T12:25:18Z</time>
      </trkpt>
      <trkpt lat="45.6851" lon="4.35353">
        <ele>503.2</ele>
        <time>2023-02-19T12:25:20Z</time>
      </trkpt>
      <trkpt lat="45.6851" lon="4.35351">
        <ele>503.3</ele>
        <time>2023-02-19T12:25:22Z</time>
      </trkpt>
      <trkpt lat="45.6851" lon="4.35351">
        <ele>503.4</ele>
        <time>2023-02-19T12:25:23Z</time>
      </trkpt>
      <trkpt lat="45.68511" lon="4.35351">
        <ele>503.4</ele>
        <time>2023-02-19T12:25:24Z</time>
      </trkpt>
      <trkpt lat="45.68511" lon="4.35351">
        <ele>503.5</ele>
        <time>2023-02-19T12:25:25Z</time>
      </trkpt>
      <trkpt lat="45.68512" lon="4.35351">
        <ele>503.6</ele>
        <time>2023-02-19T12:25:27Z</time>
      </trkpt>
      <trkpt lat="45.68512" lon="4.35351">
        <ele>503.6</ele>
        <time>2023-02-19T12:25:28Z</time>
      </trkpt>
      <trkpt lat="45.68512" lon="4.35352">
        <ele>503.7</ele>
        <time>2023-02-19T12:25:30Z</time>
      </trkpt>
      <trkpt lat="45.68512" lon="4.35351">
        <ele>503.7</ele>
        <time>2023-02-19T12:25:31Z</time>
      </trkpt>
      <trkpt lat="45.68512" lon="4.35351">
        <ele>503.7</ele>
        <time>2023-02-19T12:25:32Z</time>
      </trkpt>
      <trkpt lat="45.68513" lon="4.35351">
        <ele>503.8</ele>
        <time>2023-02-19T12:25:33Z</time>
      </trkpt>
      <trkpt lat="45.68514" lon="4.35351">
        <ele>503.9</ele>
        <time>2023-02-19T12:25:35Z</time>
      </trkpt>
      <trkpt lat="45.68514" lon="4.35351">
        <ele>504</ele>
        <time>2023-02-19T12:25:36Z</time>
      </trkpt>
      <trkpt lat="45.68516" lon="4.35351">
        <ele>504.2</ele>
        <time>2023-02-19T12:25:37Z</time>
      </trkpt>
      <trkpt lat="45.68517" lon="4.35351">
        <ele>504.3</ele>
        <time>2023-02-19T12:25:38Z</time>
      </trkpt>
      <trkpt lat="45.68517" lon="4.35351">
        <ele>504.4</ele>
        <time>2023-02-19T12:25:39Z</time>
      </trkpt>
      <trkpt lat="45.68518" lon="4.35351">
        <ele>504.5</ele>
        <time>2023-02-19T12:25:40Z</time>
      </trkpt>
      <trkpt lat="45.68519" lon="4.35351">
        <ele>504.7</ele>
        <time>2023-02-19T12:25:42Z</time>
      </trkpt>
      <trkpt lat="45.6852" lon="4.35351">
        <ele>504.8</ele>
        <time>2023-02-19T12:25:44Z</time>
      </trkpt>
      <trkpt lat="45.68521" lon="4.35351">
        <ele>504.9</ele>
        <time>2023-02-19T12:25:45Z</time>
      </trkpt>
      <trkpt lat="45.68522" lon="4.3535">
        <ele>505</ele>
        <time>2023-02-19T12:25:46Z</time>
      </trkpt>
      <trkpt lat="45.68522" lon="4.3535">
        <ele>505.1</ele>
        <time>2023-02-19T12:25:47Z</time>
      </trkpt>
      <trkpt lat="45.68523" lon="4.3535">
        <ele>505.2</ele>
        <time>2023-02-19T12:25:48Z</time>
      </trkpt>
      <trkpt lat="45.68523" lon="4.3535">
        <ele>505.3</ele>
        <time>2023-02-19T12:25:49Z</time>
      </trkpt>
      <trkpt lat="45.68524" lon="4.3535">
        <ele>505.4</ele>
        <time>2023-02-19T12:25:50Z</time>
      </trkpt>
      <trkpt lat="45.68525" lon="4.3535">
        <ele>505.5</ele>
        <time>2023-02-19T12:25:51Z</time>
      </trkpt>
      <trkpt lat="45.68526" lon="4.3535">
        <ele>505.6</ele>
        <time>2023-02-19T12:25:53Z</time>
      </trkpt>
      <trkpt lat="45.68526" lon="4.3535">
        <ele>505.7</ele>
        <time>2023-02-19T12:25:54Z</time>
      </trkpt>
      <trkpt lat="45.68527" lon="4.3535">
        <ele>505.8</ele>
        <time>2023-02-19T12:25:55Z</time>
      </trkpt>
      <trkpt lat="45.68528" lon="4.3535">
        <ele>505.9</ele>
        <time>2023-02-19T12:25:56Z</time>
      </trkpt>
      <trkpt lat="45.68528" lon="4.35349">
        <ele>506</ele>
        <time>2023-02-19T12:25:57Z</time>
      </trkpt>
      <trkpt lat="45.68529" lon="4.3535">
        <ele>506.1</ele>
        <time>2023-02-19T12:25:58Z</time>
      </trkpt>
      <trkpt lat="45.6853" lon="4.3535">
        <ele>506.3</ele>
        <time>2023-02-19T12:25:59Z</time>
      </trkpt>
      <trkpt lat="45.68531" lon="4.3535">
        <ele>506.5</ele>
        <time>2023-02-19T12:26:00Z</time>
      </trkpt>
      <trkpt lat="45.68532" lon="4.3535">
        <ele>506.6</ele>
        <time>2023-02-19T12:26:02Z</time>
      </trkpt>
      <trkpt lat="45.68533" lon="4.35351">
        <ele>506.7</ele>
        <time>2023-02-19T12:26:03Z</time>
      </trkpt>
      <trkpt lat="45.68534" lon="4.35351">
        <ele>506.9</ele>
        <time>2023-02-19T12:26:04Z</time>
      </trkpt>
      <trkpt lat="45.68534" lon="4.35352">
        <ele>507</ele>
        <time>2023-02-19T12:26:05Z</time>
      </trkpt>
      <trkpt lat="45.68534" lon="4.35352">
        <ele>507.1</ele>
        <time>2023-02-19T12:26:07Z</time>
      </trkpt>
      <trkpt lat="45.68534" lon="4.35353">
        <ele>507.1</ele>
        <time>2023-02-19T12:26:08Z</time>
      </trkpt>
      <trkpt lat="45.68535" lon="4.35354">
        <ele>507.2</ele>
        <time>2023-02-19T12:26:09Z</time>
      </trkpt>
      <trkpt lat="45.68535" lon="4.35354">
        <ele>507.3</ele>
        <time>2023-02-19T12:26:11Z</time>
      </trkpt>
      <trkpt lat="45.68535" lon="4.35355">
        <ele>507.4</ele>
        <time>2023-02-19T12:26:12Z</time>
      </trkpt>
      <trkpt lat="45.68536" lon="4.35355">
        <ele>507.5</ele>
        <time>2023-02-19T12:26:13Z</time>
      </trkpt>
      <trkpt lat="45.68536" lon="4.35356">
        <ele>507.6</ele>
        <time>2023-02-19T12:26:14Z</time>
      </trkpt>
      <trkpt lat="45.68536" lon="4.35356">
        <ele>507.7</ele>
        <time>2023-02-19T12:26:15Z</time>
      </trkpt>
      <trkpt lat="45.68536" lon="4.35356">
        <ele>507.7</ele>
        <time>2023-02-19T12:26:17Z</time>
      </trkpt>
      <trkpt lat="45.68536" lon="4.35357">
        <ele>507.7</ele>
        <time>2023-02-19T12:26:18Z</time>
      </trkpt>
      <trkpt lat="45.68536" lon="4.35357">
        <ele>507.8</ele>
        <time>2023-02-19T12:26:19Z</time>
      </trkpt>
      <trkpt lat="45.68537" lon="4.35358">
        <ele>507.9</ele>
        <time>2023-02-19T12:26:20Z</time>
      </trkpt>
      <trkpt lat="45.68537" lon="4.35358">
        <ele>508</ele>
        <time>2023-02-19T12:26:21Z</time>
      </trkpt>
      <trkpt lat="45.68539" lon="4.3536">
        <ele>508.5</ele>
        <time>2023-02-19T12:26:23Z</time>
      </trkpt>
      <trkpt lat="45.6854" lon="4.35361">
        <ele>508.6</ele>
        <time>2023-02-19T12:26:25Z</time>
      </trkpt>
      <trkpt lat="45.68541" lon="4.35361">
        <ele>508.7</ele>
        <time>2023-02-19T12:26:26Z</time>
      </trkpt>
      <trkpt lat="45.68542" lon="4.35362">
        <ele>509</ele>
        <time>2023-02-19T12:26:27Z</time>
      </trkpt>
      <trkpt lat="45.68544" lon="4.35364">
        <ele>509.4</ele>
        <time>2023-02-19T12:26:29Z</time>
      </trkpt>
      <trkpt lat="45.68545" lon="4.35365">
        <ele>509.6</ele>
        <time>2023-02-19T12:26:30Z</time>
      </trkpt>
      <trkpt lat="45.68545" lon="4.35366">
        <ele>509.8</ele>
        <time>2023-02-19T12:26:31Z</time>
      </trkpt>
      <trkpt lat="45.68546" lon="4.35367">
        <ele>509.9</ele>
        <time>2023-02-19T12:26:32Z</time>
      </trkpt>
      <trkpt lat="45.68547" lon="4.35367">
        <ele>510</ele>
        <time>2023-02-19T12:26:33Z</time>
      </trkpt>
      <trkpt lat="45.68547" lon="4.35368">
        <ele>510.2</ele>
        <time>2023-02-19T12:26:34Z</time>
      </trkpt>
      <trkpt lat="45.68548" lon="4.35369">
        <ele>510.4</ele>
        <time>2023-02-19T12:26:35Z</time>
      </trkpt>
      <trkpt lat="45.68549" lon="4.35369">
        <ele>510.5</ele>
        <time>2023-02-19T12:26:37Z</time>
      </trkpt>
      <trkpt lat="45.6855" lon="4.3537">
        <ele>510.6</ele>
        <time>2023-02-19T12:26:38Z</time>
      </trkpt>
      <trkpt lat="45.68551" lon="4.35371">
        <ele>510.8</ele>
        <time>2023-02-19T12:26:40Z</time>
      </trkpt>
      <trkpt lat="45.68552" lon="4.35371">
        <ele>510.9</ele>
        <time>2023-02-19T12:26:41Z</time>
      </trkpt>
      <trkpt lat="45.68552" lon="4.35371">
        <ele>511</ele>
        <time>2023-02-19T12:26:42Z</time>
      </trkpt>
      <trkpt lat="45.68553" lon="4.35372">
        <ele>511.2</ele>
        <time>2023-02-19T12:26:43Z</time>
      </trkpt>
      <trkpt lat="45.68554" lon="4.35373">
        <ele>511.4</ele>
        <time>2023-02-19T12:26:45Z</time>
      </trkpt>
      <trkpt lat="45.68555" lon="4.35374">
        <ele>511.5</ele>
        <time>2023-02-19T12:26:46Z</time>
      </trkpt>
      <trkpt lat="45.68556" lon="4.35375">
        <ele>511.7</ele>
        <time>2023-02-19T12:26:47Z</time>
      </trkpt>
      <trkpt lat="45.68556" lon="4.35375">
        <ele>511.9</ele>
        <time>2023-02-19T12:26:48Z</time>
      </trkpt>
      <trkpt lat="45.68557" lon="4.35376">
        <ele>512</ele>
        <time>2023-02-19T12:26:49Z</time>
      </trkpt>
      <trkpt lat="45.68558" lon="4.35376">
        <ele>512.1</ele>
        <time>2023-02-19T12:26:50Z</time>
      </trkpt>
      <trkpt lat="45.6856" lon="4.35378">
        <ele>512.5</ele>
        <time>2023-02-19T12:26:52Z</time>
      </trkpt>
      <trkpt lat="45.6856" lon="4.35378">
        <ele>512.6</ele>
        <time>2023-02-19T12:26:53Z</time>
      </trkpt>
      <trkpt lat="45.68561" lon="4.35379">
        <ele>512.8</ele>
        <time>2023-02-19T12:26:54Z</time>
      </trkpt>
      <trkpt lat="45.68562" lon="4.35379">
        <ele>513</ele>
        <time>2023-02-19T12:26:56Z</time>
      </trkpt>
      <trkpt lat="45.68565" lon="4.3538">
        <ele>513.4</ele>
        <time>2023-02-19T12:26:57Z</time>
      </trkpt>
      <trkpt lat="45.68566" lon="4.3538">
        <ele>513.6</ele>
        <time>2023-02-19T12:26:59Z</time>
      </trkpt>
      <trkpt lat="45.68567" lon="4.3538">
        <ele>513.9</ele>
        <time>2023-02-19T12:27:00Z</time>
      </trkpt>
      <trkpt lat="45.68569" lon="4.35381">
        <ele>514.1</ele>
        <time>2023-02-19T12:27:02Z</time>
      </trkpt>
      <trkpt lat="45.6857" lon="4.35381">
        <ele>514.3</ele>
        <time>2023-02-19T12:27:03Z</time>
      </trkpt>
      <trkpt lat="45.6857" lon="4.35381">
        <ele>514.4</ele>
        <time>2023-02-19T12:27:04Z</time>
      </trkpt>
      <trkpt lat="45.68571" lon="4.35382">
        <ele>514.6</ele>
        <time>2023-02-19T12:27:05Z</time>
      </trkpt>
      <trkpt lat="45.68572" lon="4.35383">
        <ele>514.7</ele>
        <time>2023-02-19T12:27:06Z</time>
      </trkpt>
      <trkpt lat="45.68573" lon="4.35384">
        <ele>514.9</ele>
        <time>2023-02-19T12:27:07Z</time>
      </trkpt>
      <trkpt lat="45.68574" lon="4.35385">
        <ele>515.2</ele>
        <time>2023-02-19T12:27:08Z</time>
      </trkpt>
      <trkpt lat="45.68575" lon="4.35386">
        <ele>515.4</ele>
        <time>2023-02-19T12:27:10Z</time>
      </trkpt>
      <trkpt lat="45.68576" lon="4.35387">
        <ele>515.6</ele>
        <time>2023-02-19T12:27:11Z</time>
      </trkpt>
      <trkpt lat="45.68578" lon="4.35388">
        <ele>515.9</ele>
        <time>2023-02-19T12:27:13Z</time>
      </trkpt>
      <trkpt lat="45.68579" lon="4.35389">
        <ele>516.1</ele>
        <time>2023-02-19T12:27:15Z</time>
      </trkpt>
      <trkpt lat="45.68581" lon="4.3539">
        <ele>516.5</ele>
        <time>2023-02-19T12:27:17Z</time>
      </trkpt>
      <trkpt lat="45.68582" lon="4.3539">
        <ele>516.7</ele>
        <time>2023-02-19T12:27:19Z</time>
      </trkpt>
      <trkpt lat="45.68583" lon="4.3539">
        <ele>516.9</ele>
        <time>2023-02-19T12:27:20Z</time>
      </trkpt>
      <trkpt lat="45.68585" lon="4.35391">
        <ele>517.1</ele>
        <time>2023-02-19T12:27:21Z</time>
      </trkpt>
      <trkpt lat="45.68585" lon="4.35391">
        <ele>517.2</ele>
        <time>2023-02-19T12:27:22Z</time>
      </trkpt>
      <trkpt lat="45.68588" lon="4.35392">
        <ele>517.5</ele>
        <time>2023-02-19T12:27:24Z</time>
      </trkpt>
      <trkpt lat="45.68589" lon="4.35392">
        <ele>517.7</ele>
        <time>2023-02-19T12:27:25Z</time>
      </trkpt>
      <trkpt lat="45.68591" lon="4.35393">
        <ele>518</ele>
        <time>2023-02-19T12:27:26Z</time>
      </trkpt>
      <trkpt lat="45.68593" lon="4.35393">
        <ele>518.1</ele>
        <time>2023-02-19T12:27:28Z</time>
      </trkpt>
      <trkpt lat="45.68595" lon="4.35394">
        <ele>518.3</ele>
        <time>2023-02-19T12:27:29Z</time>
      </trkpt>
      <trkpt lat="45.68596" lon="4.35395">
        <ele>518.5</ele>
        <time>2023-02-19T12:27:30Z</time>
      </trkpt>
      <trkpt lat="45.68597" lon="4.35396">
        <ele>518.6</ele>
        <time>2023-02-19T12:27:31Z</time>
      </trkpt>
      <trkpt lat="45.68599" lon="4.35397">
        <ele>518.9</ele>
        <time>2023-02-19T12:27:32Z</time>
      </trkpt>
      <trkpt lat="45.68601" lon="4.35399">
        <ele>519</ele>
        <time>2023-02-19T12:27:33Z</time>
      </trkpt>
      <trkpt lat="45.68602" lon="4.354">
        <ele>519.2</ele>
        <time>2023-02-19T12:27:34Z</time>
      </trkpt>
      <trkpt lat="45.68603" lon="4.35401">
        <ele>519.4</ele>
        <time>2023-02-19T12:27:36Z</time>
      </trkpt>
      <trkpt lat="45.68604" lon="4.35401">
        <ele>519.5</ele>
        <time>2023-02-19T12:27:37Z</time>
      </trkpt>
      <trkpt lat="45.68605" lon="4.35402">
        <ele>519.6</ele>
        <time>2023-02-19T12:27:38Z</time>
      </trkpt>
      <trkpt lat="45.68606" lon="4.35403">
        <ele>519.8</ele>
        <time>2023-02-19T12:27:39Z</time>
      </trkpt>
      <trkpt lat="45.68607" lon="4.35404">
        <ele>519.9</ele>
        <time>2023-02-19T12:27:42Z</time>
      </trkpt>
      <trkpt lat="45.68608" lon="4.35404">
        <ele>520</ele>
        <time>2023-02-19T12:27:43Z</time>
      </trkpt>
      <trkpt lat="45.68609" lon="4.35404">
        <ele>520.2</ele>
        <time>2023-02-19T12:27:44Z</time>
      </trkpt>
      <trkpt lat="45.6861" lon="4.35405">
        <ele>520.3</ele>
        <time>2023-02-19T12:27:45Z</time>
      </trkpt>
      <trkpt lat="45.68611" lon="4.35406">
        <ele>520.5</ele>
        <time>2023-02-19T12:27:46Z</time>
      </trkpt>
      <trkpt lat="45.68613" lon="4.35407">
        <ele>520.8</ele>
        <time>2023-02-19T12:27:48Z</time>
      </trkpt>
      <trkpt lat="45.68614" lon="4.35407">
        <ele>520.9</ele>
        <time>2023-02-19T12:27:49Z</time>
      </trkpt>
      <trkpt lat="45.68615" lon="4.35408">
        <ele>521.1</ele>
        <time>2023-02-19T12:27:50Z</time>
      </trkpt>
      <trkpt lat="45.68616" lon="4.35409">
        <ele>521.4</ele>
        <time>2023-02-19T12:27:52Z</time>
      </trkpt>
      <trkpt lat="45.68617" lon="4.3541">
        <ele>521.6</ele>
        <time>2023-02-19T12:27:53Z</time>
      </trkpt>
      <trkpt lat="45.68619" lon="4.35411">
        <ele>521.8</ele>
        <time>2023-02-19T12:27:54Z</time>
      </trkpt>
      <trkpt lat="45.6862" lon="4.35413">
        <ele>522.2</ele>
        <time>2023-02-19T12:27:55Z</time>
      </trkpt>
      <trkpt lat="45.68623" lon="4.35415">
        <ele>522.6</ele>
        <time>2023-02-19T12:27:56Z</time>
      </trkpt>
      <trkpt lat="45.68624" lon="4.35415">
        <ele>522.7</ele>
        <time>2023-02-19T12:27:57Z</time>
      </trkpt>
      <trkpt lat="45.68626" lon="4.35417">
        <ele>523.1</ele>
        <time>2023-02-19T12:27:59Z</time>
      </trkpt>
      <trkpt lat="45.68628" lon="4.35418">
        <ele>523.4</ele>
        <time>2023-02-19T12:28:00Z</time>
      </trkpt>
      <trkpt lat="45.68629" lon="4.35419">
        <ele>523.6</ele>
        <time>2023-02-19T12:28:01Z</time>
      </trkpt>
      <trkpt lat="45.68631" lon="4.3542">
        <ele>523.9</ele>
        <time>2023-02-19T12:28:02Z</time>
      </trkpt>
      <trkpt lat="45.68632" lon="4.35421">
        <ele>524.1</ele>
        <time>2023-02-19T12:28:03Z</time>
      </trkpt>
      <trkpt lat="45.68634" lon="4.35422">
        <ele>524.4</ele>
        <time>2023-02-19T12:28:04Z</time>
      </trkpt>
      <trkpt lat="45.68635" lon="4.35423">
        <ele>524.5</ele>
        <time>2023-02-19T12:28:06Z</time>
      </trkpt>
      <trkpt lat="45.68635" lon="4.35424">
        <ele>524.7</ele>
        <time>2023-02-19T12:28:07Z</time>
      </trkpt>
      <trkpt lat="45.68636" lon="4.35425">
        <ele>524.8</ele>
        <time>2023-02-19T12:28:08Z</time>
      </trkpt>
      <trkpt lat="45.68636" lon="4.35426">
        <ele>525</ele>
        <time>2023-02-19T12:28:09Z</time>
      </trkpt>
      <trkpt lat="45.68637" lon="4.35427">
        <ele>525.1</ele>
        <time>2023-02-19T12:28:10Z</time>
      </trkpt>
      <trkpt lat="45.68638" lon="4.35429">
        <ele>525.4</ele>
        <time>2023-02-19T12:28:11Z</time>
      </trkpt>
      <trkpt lat="45.68639" lon="4.3543">
        <ele>525.6</ele>
        <time>2023-02-19T12:28:12Z</time>
      </trkpt>
      <trkpt lat="45.6864" lon="4.35431">
        <ele>525.7</ele>
        <time>2023-02-19T12:28:14Z</time>
      </trkpt>
      <trkpt lat="45.6864" lon="4.35431">
        <ele>525.8</ele>
        <time>2023-02-19T12:28:15Z</time>
      </trkpt>
      <trkpt lat="45.68641" lon="4.35432">
        <ele>525.9</ele>
        <time>2023-02-19T12:28:16Z</time>
      </trkpt>
      <trkpt lat="45.68642" lon="4.35433">
        <ele>526.1</ele>
        <time>2023-02-19T12:28:18Z</time>
      </trkpt>
      <trkpt lat="45.68642" lon="4.35434">
        <ele>526.2</ele>
        <time>2023-02-19T12:28:19Z</time>
      </trkpt>
      <trkpt lat="45.68643" lon="4.35434">
        <ele>526.3</ele>
        <time>2023-02-19T12:28:20Z</time>
      </trkpt>
      <trkpt lat="45.68644" lon="4.35435">
        <ele>526.5</ele>
        <time>2023-02-19T12:28:21Z</time>
      </trkpt>
      <trkpt lat="45.68644" lon="4.35436">
        <ele>526.6</ele>
        <time>2023-02-19T12:28:22Z</time>
      </trkpt>
      <trkpt lat="45.68645" lon="4.35436">
        <ele>526.7</ele>
        <time>2023-02-19T12:28:23Z</time>
      </trkpt>
      <trkpt lat="45.68646" lon="4.35438">
        <ele>526.9</ele>
        <time>2023-02-19T12:28:24Z</time>
      </trkpt>
      <trkpt lat="45.68647" lon="4.35439">
        <ele>527.1</ele>
        <time>2023-02-19T12:28:25Z</time>
      </trkpt>
      <trkpt lat="45.68648" lon="4.35439">
        <ele>527.3</ele>
        <time>2023-02-19T12:28:27Z</time>
      </trkpt>
      <trkpt lat="45.68649" lon="4.3544">
        <ele>527.4</ele>
        <time>2023-02-19T12:28:28Z</time>
      </trkpt>
      <trkpt lat="45.68649" lon="4.35441">
        <ele>527.6</ele>
        <time>2023-02-19T12:28:29Z</time>
      </trkpt>
      <trkpt lat="45.6865" lon="4.35442">
        <ele>527.8</ele>
        <time>2023-02-19T12:28:30Z</time>
      </trkpt>
      <trkpt lat="45.68651" lon="4.35443">
        <ele>527.9</ele>
        <time>2023-02-19T12:28:31Z</time>
      </trkpt>
      <trkpt lat="45.68651" lon="4.35443">
        <ele>528.1</ele>
        <time>2023-02-19T12:28:32Z</time>
      </trkpt>
      <trkpt lat="45.68652" lon="4.35444">
        <ele>528.2</ele>
        <time>2023-02-19T12:28:34Z</time>
      </trkpt>
      <trkpt lat="45.68653" lon="4.35445">
        <ele>528.4</ele>
        <time>2023-02-19T12:28:35Z</time>
      </trkpt>
      <trkpt lat="45.68654" lon="4.35446">
        <ele>528.6</ele>
        <time>2023-02-19T12:28:36Z</time>
      </trkpt>
      <trkpt lat="45.68655" lon="4.35447">
        <ele>528.8</ele>
        <time>2023-02-19T12:28:38Z</time>
      </trkpt>
      <trkpt lat="45.68656" lon="4.35447">
        <ele>529</ele>
        <time>2023-02-19T12:28:39Z</time>
      </trkpt>
      <trkpt lat="45.68658" lon="4.35449">
        <ele>529.2</ele>
        <time>2023-02-19T12:28:40Z</time>
      </trkpt>
      <trkpt lat="45.6866" lon="4.3545">
        <ele>529.6</ele>
        <time>2023-02-19T12:28:42Z</time>
      </trkpt>
      <trkpt lat="45.68662" lon="4.3545">
        <ele>529.8</ele>
        <time>2023-02-19T12:28:44Z</time>
      </trkpt>
      <trkpt lat="45.68663" lon="4.35451">
        <ele>529.9</ele>
        <time>2023-02-19T12:28:45Z</time>
      </trkpt>
      <trkpt lat="45.68664" lon="4.35451">
        <ele>530</ele>
        <time>2023-02-19T12:28:46Z</time>
      </trkpt>
      <trkpt lat="45.68665" lon="4.35452">
        <ele>530.2</ele>
        <time>2023-02-19T12:28:47Z</time>
      </trkpt>
      <trkpt lat="45.68666" lon="4.35452">
        <ele>530.3</ele>
        <time>2023-02-19T12:28:48Z</time>
      </trkpt>
      <trkpt lat="45.68666" lon="4.35453">
        <ele>530.4</ele>
        <time>2023-02-19T12:28:49Z</time>
      </trkpt>
      <trkpt lat="45.68667" lon="4.35453">
        <ele>530.5</ele>
        <time>2023-02-19T12:28:50Z</time>
      </trkpt>
      <trkpt lat="45.68668" lon="4.35453">
        <ele>530.6</ele>
        <time>2023-02-19T12:28:52Z</time>
      </trkpt>
      <trkpt lat="45.68669" lon="4.35453">
        <ele>530.7</ele>
        <time>2023-02-19T12:28:53Z</time>
      </trkpt>
      <trkpt lat="45.6867" lon="4.35454">
        <ele>530.7</ele>
        <time>2023-02-19T12:28:54Z</time>
      </trkpt>
      <trkpt lat="45.6867" lon="4.35454">
        <ele>530.8</ele>
        <time>2023-02-19T12:28:55Z</time>
      </trkpt>
      <trkpt lat="45.68671" lon="4.35454">
        <ele>530.9</ele>
        <time>2023-02-19T12:28:56Z</time>
      </trkpt>
      <trkpt lat="45.68672" lon="4.35454">
        <ele>531</ele>
        <time>2023-02-19T12:28:57Z</time>
      </trkpt>
      <trkpt lat="45.68673" lon="4.35455">
        <ele>531</ele>
        <time>2023-02-19T12:28:58Z</time>
      </trkpt>
      <trkpt lat="45.68674" lon="4.35455">
        <ele>531.2</ele>
        <time>2023-02-19T12:29:00Z</time>
      </trkpt>
      <trkpt lat="45.68674" lon="4.35456">
        <ele>531.2</ele>
        <time>2023-02-19T12:29:01Z</time>
      </trkpt>
      <trkpt lat="45.68675" lon="4.35456">
        <ele>531.3</ele>
        <time>2023-02-19T12:29:02Z</time>
      </trkpt>
      <trkpt lat="45.68676" lon="4.35457">
        <ele>531.4</ele>
        <time>2023-02-19T12:29:03Z</time>
      </trkpt>
      <trkpt lat="45.68677" lon="4.35457">
        <ele>531.5</ele>
        <time>2023-02-19T12:29:04Z</time>
      </trkpt>
      <trkpt lat="45.68677" lon="4.35457">
        <ele>531.5</ele>
        <time>2023-02-19T12:29:06Z</time>
      </trkpt>
      <trkpt lat="45.68678" lon="4.35457">
        <ele>531.6</ele>
        <time>2023-02-19T12:29:07Z</time>
      </trkpt>
      <trkpt lat="45.68679" lon="4.35458">
        <ele>531.7</ele>
        <time>2023-02-19T12:29:08Z</time>
      </trkpt>
      <trkpt lat="45.6868" lon="4.35459">
        <ele>531.8</ele>
        <time>2023-02-19T12:29:09Z</time>
      </trkpt>
      <trkpt lat="45.68681" lon="4.3546">
        <ele>532</ele>
        <time>2023-02-19T12:29:11Z</time>
      </trkpt>
      <trkpt lat="45.68682" lon="4.35461">
        <ele>532.1</ele>
        <time>2023-02-19T12:29:13Z</time>
      </trkpt>
      <trkpt lat="45.68683" lon="4.35462">
        <ele>532.2</ele>
        <time>2023-02-19T12:29:14Z</time>
      </trkpt>
      <trkpt lat="45.68684" lon="4.35463">
        <ele>532.3</ele>
        <time>2023-02-19T12:29:15Z</time>
      </trkpt>
      <trkpt lat="45.68685" lon="4.35463">
        <ele>532.4</ele>
        <time>2023-02-19T12:29:17Z</time>
      </trkpt>
      <trkpt lat="45.68686" lon="4.35464">
        <ele>532.5</ele>
        <time>2023-02-19T12:29:18Z</time>
      </trkpt>
      <trkpt lat="45.68687" lon="4.35464">
        <ele>532.6</ele>
        <time>2023-02-19T12:29:19Z</time>
      </trkpt>
      <trkpt lat="45.68688" lon="4.35465">
        <ele>532.7</ele>
        <time>2023-02-19T12:29:20Z</time>
      </trkpt>
      <trkpt lat="45.68688" lon="4.35465">
        <ele>532.8</ele>
        <time>2023-02-19T12:29:22Z</time>
      </trkpt>
      <trkpt lat="45.68689" lon="4.35466">
        <ele>532.9</ele>
        <time>2023-02-19T12:29:23Z</time>
      </trkpt>
      <trkpt lat="45.6869" lon="4.35467">
        <ele>533</ele>
        <time>2023-02-19T12:29:25Z</time>
      </trkpt>
      <trkpt lat="45.68691" lon="4.35468">
        <ele>533.2</ele>
        <time>2023-02-19T12:29:27Z</time>
      </trkpt>
      <trkpt lat="45.68692" lon="4.35468">
        <ele>533.3</ele>
        <time>2023-02-19T12:29:28Z</time>
      </trkpt>
      <trkpt lat="45.68692" lon="4.35468">
        <ele>533.3</ele>
        <time>2023-02-19T12:29:29Z</time>
      </trkpt>
      <trkpt lat="45.68693" lon="4.35468">
        <ele>533.4</ele>
        <time>2023-02-19T12:29:30Z</time>
      </trkpt>
      <trkpt lat="45.68693" lon="4.35468">
        <ele>533.5</ele>
        <time>2023-02-19T12:29:31Z</time>
      </trkpt>
      <trkpt lat="45.68693" lon="4.35468">
        <ele>533.5</ele>
        <time>2023-02-19T12:29:32Z</time>
      </trkpt>
      <trkpt lat="45.68694" lon="4.35467">
        <ele>533.6</ele>
        <time>2023-02-19T12:29:33Z</time>
      </trkpt>
      <trkpt lat="45.68694" lon="4.35467">
        <ele>533.7</ele>
        <time>2023-02-19T12:29:34Z</time>
      </trkpt>
      <trkpt lat="45.68695" lon="4.35468">
        <ele>533.8</ele>
        <time>2023-02-19T12:29:36Z</time>
      </trkpt>
      <trkpt lat="45.68696" lon="4.35468">
        <ele>533.9</ele>
        <time>2023-02-19T12:29:38Z</time>
      </trkpt>
      <trkpt lat="45.68696" lon="4.35468">
        <ele>534</ele>
        <time>2023-02-19T12:29:39Z</time>
      </trkpt>
      <trkpt lat="45.68697" lon="4.35469">
        <ele>534.1</ele>
        <time>2023-02-19T12:29:40Z</time>
      </trkpt>
      <trkpt lat="45.68698" lon="4.35469">
        <ele>534.2</ele>
        <time>2023-02-19T12:29:41Z</time>
      </trkpt>
      <trkpt lat="45.68699" lon="4.3547">
        <ele>534.4</ele>
        <time>2023-02-19T12:29:42Z</time>
      </trkpt>
      <trkpt lat="45.68699" lon="4.3547">
        <ele>534.5</ele>
        <time>2023-02-19T12:29:43Z</time>
      </trkpt>
      <trkpt lat="45.687" lon="4.3547">
        <ele>534.6</ele>
        <time>2023-02-19T12:29:44Z</time>
      </trkpt>
      <trkpt lat="45.68701" lon="4.3547">
        <ele>534.8</ele>
        <time>2023-02-19T12:29:45Z</time>
      </trkpt>
      <trkpt lat="45.68702" lon="4.35471">
        <ele>534.9</ele>
        <time>2023-02-19T12:29:46Z</time>
      </trkpt>
      <trkpt lat="45.68703" lon="4.35471">
        <ele>535.1</ele>
        <time>2023-02-19T12:29:47Z</time>
      </trkpt>
      <trkpt lat="45.68705" lon="4.35472">
        <ele>535.3</ele>
        <time>2023-02-19T12:29:49Z</time>
      </trkpt>
      <trkpt lat="45.68706" lon="4.35473">
        <ele>535.5</ele>
        <time>2023-02-19T12:29:50Z</time>
      </trkpt>
      <trkpt lat="45.68708" lon="4.35474">
        <ele>535.7</ele>
        <time>2023-02-19T12:29:51Z</time>
      </trkpt>
      <trkpt lat="45.6871" lon="4.35475">
        <ele>535.9</ele>
        <time>2023-02-19T12:29:52Z</time>
      </trkpt>
      <trkpt lat="45.68712" lon="4.35476">
        <ele>536.2</ele>
        <time>2023-02-19T12:29:54Z</time>
      </trkpt>
      <trkpt lat="45.68715" lon="4.35477">
        <ele>536.4</ele>
        <time>2023-02-19T12:29:55Z</time>
      </trkpt>
      <trkpt lat="45.68716" lon="4.35477">
        <ele>536.5</ele>
        <time>2023-02-19T12:29:56Z</time>
      </trkpt>
      <trkpt lat="45.68717" lon="4.35477">
        <ele>536.6</ele>
        <time>2023-02-19T12:29:57Z</time>
      </trkpt>
      <trkpt lat="45.68719" lon="4.35478">
        <ele>536.8</ele>
        <time>2023-02-19T12:29:58Z</time>
      </trkpt>
      <trkpt lat="45.6872" lon="4.35478">
        <ele>536.8</ele>
        <time>2023-02-19T12:29:59Z</time>
      </trkpt>
      <trkpt lat="45.68721" lon="4.35479">
        <ele>536.9</ele>
        <time>2023-02-19T12:30:00Z</time>
      </trkpt>
      <trkpt lat="45.68723" lon="4.35479">
        <ele>537</ele>
        <time>2023-02-19T12:30:02Z</time>
      </trkpt>
      <trkpt lat="45.68724" lon="4.3548">
        <ele>537.1</ele>
        <time>2023-02-19T12:30:03Z</time>
      </trkpt>
      <trkpt lat="45.68726" lon="4.35481">
        <ele>537.2</ele>
        <time>2023-02-19T12:30:04Z</time>
      </trkpt>
      <trkpt lat="45.68728" lon="4.35483">
        <ele>537.3</ele>
        <time>2023-02-19T12:30:05Z</time>
      </trkpt>
      <trkpt lat="45.68729" lon="4.35483">
        <ele>537.3</ele>
        <time>2023-02-19T12:30:06Z</time>
      </trkpt>
      <trkpt lat="45.6873" lon="4.35483">
        <ele>537.4</ele>
        <time>2023-02-19T12:30:07Z</time>
      </trkpt>
      <trkpt lat="45.68733" lon="4.35483">
        <ele>537.5</ele>
        <time>2023-02-19T12:30:09Z</time>
      </trkpt>
      <trkpt lat="45.68734" lon="4.35484">
        <ele>537.5</ele>
        <time>2023-02-19T12:30:10Z</time>
      </trkpt>
      <trkpt lat="45.68735" lon="4.35485">
        <ele>537.6</ele>
        <time>2023-02-19T12:30:11Z</time>
      </trkpt>
      <trkpt lat="45.68737" lon="4.35486">
        <ele>537.6</ele>
        <time>2023-02-19T12:30:12Z</time>
      </trkpt>
      <trkpt lat="45.68738" lon="4.35486">
        <ele>537.7</ele>
        <time>2023-02-19T12:30:13Z</time>
      </trkpt>
      <trkpt lat="45.6874" lon="4.35486">
        <ele>537.7</ele>
        <time>2023-02-19T12:30:15Z</time>
      </trkpt>
      <trkpt lat="45.68741" lon="4.35485">
        <ele>537.7</ele>
        <time>2023-02-19T12:30:16Z</time>
      </trkpt>
      <trkpt lat="45.68741" lon="4.35484">
        <ele>537.8</ele>
        <time>2023-02-19T12:30:17Z</time>
      </trkpt>
      <trkpt lat="45.68742" lon="4.35485">
        <ele>537.8</ele>
        <time>2023-02-19T12:30:18Z</time>
      </trkpt>
      <trkpt lat="45.68744" lon="4.35485">
        <ele>537.9</ele>
        <time>2023-02-19T12:30:19Z</time>
      </trkpt>
      <trkpt lat="45.68744" lon="4.35485">
        <ele>537.9</ele>
        <time>2023-02-19T12:30:21Z</time>
      </trkpt>
      <trkpt lat="45.68744" lon="4.35485">
        <ele>537.9</ele>
        <time>2023-02-19T12:30:22Z</time>
      </trkpt>
      <trkpt lat="45.68745" lon="4.35486">
        <ele>537.9</ele>
        <time>2023-02-19T12:30:23Z</time>
      </trkpt>
      <trkpt lat="45.68745" lon="4.35486">
        <ele>537.9</ele>
        <time>2023-02-19T12:30:24Z</time>
      </trkpt>
      <trkpt lat="45.68745" lon="4.35486">
        <ele>537.9</ele>
        <time>2023-02-19T12:30:25Z</time>
      </trkpt>
      <trkpt lat="45.68746" lon="4.35486">
        <ele>538</ele>
        <time>2023-02-19T12:30:26Z</time>
      </trkpt>
      <trkpt lat="45.68747" lon="4.35486">
        <ele>538</ele>
        <time>2023-02-19T12:30:27Z</time>
      </trkpt>
      <trkpt lat="45.68749" lon="4.35486">
        <ele>538</ele>
        <time>2023-02-19T12:30:29Z</time>
      </trkpt>
      <trkpt lat="45.6875" lon="4.35486">
        <ele>538.1</ele>
        <time>2023-02-19T12:30:30Z</time>
      </trkpt>
      <trkpt lat="45.68752" lon="4.35486">
        <ele>538.2</ele>
        <time>2023-02-19T12:30:32Z</time>
      </trkpt>
      <trkpt lat="45.68753" lon="4.35486">
        <ele>538.2</ele>
        <time>2023-02-19T12:30:33Z</time>
      </trkpt>
      <trkpt lat="45.68754" lon="4.35486">
        <ele>538.2</ele>
        <time>2023-02-19T12:30:34Z</time>
      </trkpt>
      <trkpt lat="45.68755" lon="4.35486">
        <ele>538.3</ele>
        <time>2023-02-19T12:30:35Z</time>
      </trkpt>
      <trkpt lat="45.68756" lon="4.35486">
        <ele>538.3</ele>
        <time>2023-02-19T12:30:36Z</time>
      </trkpt>
      <trkpt lat="45.68759" lon="4.35488">
        <ele>538.4</ele>
        <time>2023-02-19T12:30:37Z</time>
      </trkpt>
      <trkpt lat="45.6876" lon="4.35489">
        <ele>538.5</ele>
        <time>2023-02-19T12:30:39Z</time>
      </trkpt>
      <trkpt lat="45.6876" lon="4.3549">
        <ele>538.5</ele>
        <time>2023-02-19T12:30:40Z</time>
      </trkpt>
      <trkpt lat="45.68761" lon="4.35491">
        <ele>538.5</ele>
        <time>2023-02-19T12:30:41Z</time>
      </trkpt>
      <trkpt lat="45.68762" lon="4.35492">
        <ele>538.6</ele>
        <time>2023-02-19T12:30:42Z</time>
      </trkpt>
      <trkpt lat="45.68763" lon="4.35493">
        <ele>538.6</ele>
        <time>2023-02-19T12:30:43Z</time>
      </trkpt>
      <trkpt lat="45.68765" lon="4.35495">
        <ele>538.7</ele>
        <time>2023-02-19T12:30:45Z</time>
      </trkpt>
      <trkpt lat="45.68766" lon="4.35498">
        <ele>538.8</ele>
        <time>2023-02-19T12:30:46Z</time>
      </trkpt>
      <trkpt lat="45.68767" lon="4.35499">
        <ele>538.8</ele>
        <time>2023-02-19T12:30:47Z</time>
      </trkpt>
      <trkpt lat="45.68768" lon="4.355">
        <ele>538.9</ele>
        <time>2023-02-19T12:30:48Z</time>
      </trkpt>
      <trkpt lat="45.6877" lon="4.35502">
        <ele>538.9</ele>
        <time>2023-02-19T12:30:50Z</time>
      </trkpt>
      <trkpt lat="45.68772" lon="4.35504">
        <ele>539</ele>
        <time>2023-02-19T12:30:51Z</time>
      </trkpt>
      <trkpt lat="45.68773" lon="4.35505">
        <ele>539</ele>
        <time>2023-02-19T12:30:52Z</time>
      </trkpt>
      <trkpt lat="45.68774" lon="4.35506">
        <ele>539.1</ele>
        <time>2023-02-19T12:30:53Z</time>
      </trkpt>
      <trkpt lat="45.68776" lon="4.35507">
        <ele>539.2</ele>
        <time>2023-02-19T12:30:54Z</time>
      </trkpt>
      <trkpt lat="45.68777" lon="4.35508">
        <ele>539.2</ele>
        <time>2023-02-19T12:30:56Z</time>
      </trkpt>
      <trkpt lat="45.68778" lon="4.35509">
        <ele>539.4</ele>
        <time>2023-02-19T12:30:57Z</time>
      </trkpt>
      <trkpt lat="45.6878" lon="4.3551">
        <ele>539.7</ele>
        <time>2023-02-19T12:30:58Z</time>
      </trkpt>
      <trkpt lat="45.68782" lon="4.35512">
        <ele>539.8</ele>
        <time>2023-02-19T12:30:59Z</time>
      </trkpt>
      <trkpt lat="45.68783" lon="4.35513">
        <ele>539.8</ele>
        <time>2023-02-19T12:31:00Z</time>
      </trkpt>
      <trkpt lat="45.68784" lon="4.35514">
        <ele>540.3</ele>
        <time>2023-02-19T12:31:01Z</time>
      </trkpt>
      <trkpt lat="45.68785" lon="4.35515">
        <ele>540.3</ele>
        <time>2023-02-19T12:31:03Z</time>
      </trkpt>
      <trkpt lat="45.68787" lon="4.35518">
        <ele>540.5</ele>
        <time>2023-02-19T12:31:04Z</time>
      </trkpt>
      <trkpt lat="45.68789" lon="4.35519">
        <ele>540.8</ele>
        <time>2023-02-19T12:31:06Z</time>
      </trkpt>
      <trkpt lat="45.6879" lon="4.35521">
        <ele>540.9</ele>
        <time>2023-02-19T12:31:07Z</time>
      </trkpt>
      <trkpt lat="45.68791" lon="4.35521">
        <ele>540.9</ele>
        <time>2023-02-19T12:31:08Z</time>
      </trkpt>
      <trkpt lat="45.68792" lon="4.35522">
        <ele>540.9</ele>
        <time>2023-02-19T12:31:09Z</time>
      </trkpt>
      <trkpt lat="45.68793" lon="4.35523">
        <ele>541.3</ele>
        <time>2023-02-19T12:31:10Z</time>
      </trkpt>
      <trkpt lat="45.68793" lon="4.35524">
        <ele>541.3</ele>
        <time>2023-02-19T12:31:11Z</time>
      </trkpt>
      <trkpt lat="45.68794" lon="4.35525">
        <ele>541.3</ele>
        <time>2023-02-19T12:31:13Z</time>
      </trkpt>
      <trkpt lat="45.68795" lon="4.35525">
        <ele>541.3</ele>
        <time>2023-02-19T12:31:14Z</time>
      </trkpt>
      <trkpt lat="45.68795" lon="4.35526">
        <ele>541.3</ele>
        <time>2023-02-19T12:31:15Z</time>
      </trkpt>
      <trkpt lat="45.68796" lon="4.35527">
        <ele>541.7</ele>
        <time>2023-02-19T12:31:16Z</time>
      </trkpt>
      <trkpt lat="45.68796" lon="4.35527">
        <ele>541.7</ele>
        <time>2023-02-19T12:31:17Z</time>
      </trkpt>
      <trkpt lat="45.68797" lon="4.35528">
        <ele>541.7</ele>
        <time>2023-02-19T12:31:18Z</time>
      </trkpt>
      <trkpt lat="45.68798" lon="4.3553">
        <ele>541.7</ele>
        <time>2023-02-19T12:31:19Z</time>
      </trkpt>
      <trkpt lat="45.68799" lon="4.35531">
        <ele>542</ele>
        <time>2023-02-19T12:31:21Z</time>
      </trkpt>
      <trkpt lat="45.688" lon="4.35532">
        <ele>542</ele>
        <time>2023-02-19T12:31:22Z</time>
      </trkpt>
      <trkpt lat="45.68801" lon="4.35533">
        <ele>542</ele>
        <time>2023-02-19T12:31:23Z</time>
      </trkpt>
      <trkpt lat="45.68802" lon="4.35534">
        <ele>542</ele>
        <time>2023-02-19T12:31:24Z</time>
      </trkpt>
      <trkpt lat="45.68805" lon="4.35536">
        <ele>542.3</ele>
        <time>2023-02-19T12:31:26Z</time>
      </trkpt>
      <trkpt lat="45.68806" lon="4.35537">
        <ele>542.3</ele>
        <time>2023-02-19T12:31:27Z</time>
      </trkpt>
      <trkpt lat="45.68808" lon="4.35537">
        <ele>542.3</ele>
        <time>2023-02-19T12:31:28Z</time>
      </trkpt>
      <trkpt lat="45.68809" lon="4.35536">
        <ele>542.3</ele>
        <time>2023-02-19T12:31:29Z</time>
      </trkpt>
      <trkpt lat="45.68811" lon="4.35536">
        <ele>542.3</ele>
        <time>2023-02-19T12:31:30Z</time>
      </trkpt>
      <trkpt lat="45.68811" lon="4.35536">
        <ele>542.3</ele>
        <time>2023-02-19T12:31:31Z</time>
      </trkpt>
      <trkpt lat="45.68812" lon="4.35536">
        <ele>542.3</ele>
        <time>2023-02-19T12:31:33Z</time>
      </trkpt>
      <trkpt lat="45.68813" lon="4.35536">
        <ele>542.3</ele>
        <time>2023-02-19T12:31:34Z</time>
      </trkpt>
      <trkpt lat="45.68814" lon="4.35537">
        <ele>542.3</ele>
        <time>2023-02-19T12:31:35Z</time>
      </trkpt>
      <trkpt lat="45.68814" lon="4.35537">
        <ele>542.3</ele>
        <time>2023-02-19T12:31:36Z</time>
      </trkpt>
      <trkpt lat="45.68814" lon="4.35537">
        <ele>542.3</ele>
        <time>2023-02-19T12:31:37Z</time>
      </trkpt>
      <trkpt lat="45.68815" lon="4.35537">
        <ele>542.3</ele>
        <time>2023-02-19T12:31:38Z</time>
      </trkpt>
      <trkpt lat="45.68815" lon="4.35537">
        <ele>542.3</ele>
        <time>2023-02-19T12:31:39Z</time>
      </trkpt>
      <trkpt lat="45.68815" lon="4.35537">
        <ele>542.3</ele>
        <time>2023-02-19T12:31:41Z</time>
      </trkpt>
      <trkpt lat="45.68815" lon="4.35538">
        <ele>542.3</ele>
        <time>2023-02-19T12:31:42Z</time>
      </trkpt>
      <trkpt lat="45.68815" lon="4.35538">
        <ele>542.3</ele>
        <time>2023-02-19T12:31:43Z</time>
      </trkpt>
      <trkpt lat="45.68816" lon="4.35539">
        <ele>542.3</ele>
        <time>2023-02-19T12:31:44Z</time>
      </trkpt>
      <trkpt lat="45.68816" lon="4.3554">
        <ele>542.5</ele>
        <time>2023-02-19T12:31:45Z</time>
      </trkpt>
      <trkpt lat="45.68817" lon="4.35542">
        <ele>542.5</ele>
        <time>2023-02-19T12:31:46Z</time>
      </trkpt>
      <trkpt lat="45.68817" lon="4.35544">
        <ele>542.7</ele>
        <time>2023-02-19T12:31:47Z</time>
      </trkpt>
      <trkpt lat="45.68817" lon="4.35545">
        <ele>542.7</ele>
        <time>2023-02-19T12:31:48Z</time>
      </trkpt>
      <trkpt lat="45.68818" lon="4.35546">
        <ele>542.7</ele>
        <time>2023-02-19T12:31:50Z</time>
      </trkpt>
      <trkpt lat="45.68818" lon="4.35547">
        <ele>542.7</ele>
        <time>2023-02-19T12:31:51Z</time>
      </trkpt>
      <trkpt lat="45.68819" lon="4.35547">
        <ele>542.7</ele>
        <time>2023-02-19T12:31:52Z</time>
      </trkpt>
      <trkpt lat="45.6882" lon="4.35548">
        <ele>542.9</ele>
        <time>2023-02-19T12:31:53Z</time>
      </trkpt>
      <trkpt lat="45.68821" lon="4.35548">
        <ele>542.9</ele>
        <time>2023-02-19T12:31:54Z</time>
      </trkpt>
      <trkpt lat="45.68822" lon="4.35549">
        <ele>542.9</ele>
        <time>2023-02-19T12:31:55Z</time>
      </trkpt>
      <trkpt lat="45.68823" lon="4.35549">
        <ele>542.8</ele>
        <time>2023-02-19T12:31:57Z</time>
      </trkpt>
      <trkpt lat="45.68823" lon="4.3555">
        <ele>542.8</ele>
        <time>2023-02-19T12:31:59Z</time>
      </trkpt>
      <trkpt lat="45.68823" lon="4.35552">
        <ele>542.8</ele>
        <time>2023-02-19T12:32:00Z</time>
      </trkpt>
      <trkpt lat="45.68822" lon="4.35552">
        <ele>543</ele>
        <time>2023-02-19T12:32:01Z</time>
      </trkpt>
      <trkpt lat="45.68822" lon="4.35554">
        <ele>543</ele>
        <time>2023-02-19T12:32:02Z</time>
      </trkpt>
      <trkpt lat="45.68822" lon="4.35555">
        <ele>543</ele>
        <time>2023-02-19T12:32:03Z</time>
      </trkpt>
      <trkpt lat="45.68821" lon="4.35557">
        <ele>543.2</ele>
        <time>2023-02-19T12:32:04Z</time>
      </trkpt>
      <trkpt lat="45.68821" lon="4.35559">
        <ele>543.2</ele>
        <time>2023-02-19T12:32:06Z</time>
      </trkpt>
      <trkpt lat="45.68821" lon="4.3556">
        <ele>543.2</ele>
        <time>2023-02-19T12:32:07Z</time>
      </trkpt>
      <trkpt lat="45.6882" lon="4.35562">
        <ele>543.4</ele>
        <time>2023-02-19T12:32:08Z</time>
      </trkpt>
      <trkpt lat="45.6882" lon="4.35562">
        <ele>543.4</ele>
        <time>2023-02-19T12:32:09Z</time>
      </trkpt>
      <trkpt lat="45.6882" lon="4.35563">
        <ele>543.4</ele>
        <time>2023-02-19T12:32:10Z</time>
      </trkpt>
      <trkpt lat="45.6882" lon="4.35565">
        <ele>543.4</ele>
        <time>2023-02-19T12:32:11Z</time>
      </trkpt>
      <trkpt lat="45.6882" lon="4.35566">
        <ele>543.5</ele>
        <time>2023-02-19T12:32:12Z</time>
      </trkpt>
      <trkpt lat="45.6882" lon="4.35567">
        <ele>543.5</ele>
        <time>2023-02-19T12:32:13Z</time>
      </trkpt>
      <trkpt lat="45.6882" lon="4.35567">
        <ele>543.5</ele>
        <time>2023-02-19T12:32:15Z</time>
      </trkpt>
      <trkpt lat="45.68821" lon="4.35568">
        <ele>543.5</ele>
        <time>2023-02-19T12:32:16Z</time>
      </trkpt>
      <trkpt lat="45.68822" lon="4.35569">
        <ele>543.5</ele>
        <time>2023-02-19T12:32:17Z</time>
      </trkpt>
      <trkpt lat="45.68822" lon="4.3557">
        <ele>543.7</ele>
        <time>2023-02-19T12:32:18Z</time>
      </trkpt>
      <trkpt lat="45.68823" lon="4.3557">
        <ele>543.6</ele>
        <time>2023-02-19T12:32:19Z</time>
      </trkpt>
      <trkpt lat="45.68825" lon="4.35569">
        <ele>543.6</ele>
        <time>2023-02-19T12:32:20Z</time>
      </trkpt>
      <trkpt lat="45.68826" lon="4.3557">
        <ele>543.6</ele>
        <time>2023-02-19T12:32:21Z</time>
      </trkpt>
      <trkpt lat="45.68827" lon="4.3557">
        <ele>543.6</ele>
        <time>2023-02-19T12:32:22Z</time>
      </trkpt>
      <trkpt lat="45.68827" lon="4.35572">
        <ele>543.6</ele>
        <time>2023-02-19T12:32:24Z</time>
      </trkpt>
      <trkpt lat="45.68828" lon="4.35572">
        <ele>543.6</ele>
        <time>2023-02-19T12:32:25Z</time>
      </trkpt>
      <trkpt lat="45.68828" lon="4.35573">
        <ele>543.6</ele>
        <time>2023-02-19T12:32:26Z</time>
      </trkpt>
      <trkpt lat="45.68828" lon="4.35574">
        <ele>543.7</ele>
        <time>2023-02-19T12:32:27Z</time>
      </trkpt>
      <trkpt lat="45.68829" lon="4.35575">
        <ele>543.6</ele>
        <time>2023-02-19T12:32:29Z</time>
      </trkpt>
      <trkpt lat="45.68829" lon="4.35576">
        <ele>543.6</ele>
        <time>2023-02-19T12:32:30Z</time>
      </trkpt>
      <trkpt lat="45.68829" lon="4.35579">
        <ele>543.7</ele>
        <time>2023-02-19T12:32:31Z</time>
      </trkpt>
      <trkpt lat="45.68828" lon="4.3558">
        <ele>543.8</ele>
        <time>2023-02-19T12:32:32Z</time>
      </trkpt>
      <trkpt lat="45.68828" lon="4.35582">
        <ele>543.8</ele>
        <time>2023-02-19T12:32:33Z</time>
      </trkpt>
      <trkpt lat="45.68828" lon="4.35583">
        <ele>544</ele>
        <time>2023-02-19T12:32:34Z</time>
      </trkpt>
      <trkpt lat="45.68828" lon="4.35585">
        <ele>544</ele>
        <time>2023-02-19T12:32:36Z</time>
      </trkpt>
      <trkpt lat="45.68827" lon="4.35588">
        <ele>544.1</ele>
        <time>2023-02-19T12:32:37Z</time>
      </trkpt>
      <trkpt lat="45.68827" lon="4.35589">
        <ele>544.1</ele>
        <time>2023-02-19T12:32:38Z</time>
      </trkpt>
      <trkpt lat="45.68827" lon="4.3559">
        <ele>544.1</ele>
        <time>2023-02-19T12:32:40Z</time>
      </trkpt>
      <trkpt lat="45.68828" lon="4.35591">
        <ele>544.3</ele>
        <time>2023-02-19T12:32:41Z</time>
      </trkpt>
      <trkpt lat="45.68828" lon="4.35592">
        <ele>544.3</ele>
        <time>2023-02-19T12:32:42Z</time>
      </trkpt>
      <trkpt lat="45.68829" lon="4.35594">
        <ele>544.1</ele>
        <time>2023-02-19T12:32:44Z</time>
      </trkpt>
      <trkpt lat="45.6883" lon="4.35594">
        <ele>544.1</ele>
        <time>2023-02-19T12:32:45Z</time>
      </trkpt>
      <trkpt lat="45.6883" lon="4.35595">
        <ele>544.1</ele>
        <time>2023-02-19T12:32:46Z</time>
      </trkpt>
      <trkpt lat="45.68831" lon="4.35595">
        <ele>544.3</ele>
        <time>2023-02-19T12:32:47Z</time>
      </trkpt>
      <trkpt lat="45.68832" lon="4.35595">
        <ele>544.1</ele>
        <time>2023-02-19T12:32:49Z</time>
      </trkpt>
      <trkpt lat="45.68832" lon="4.35595">
        <ele>544</ele>
        <time>2023-02-19T12:32:50Z</time>
      </trkpt>
      <trkpt lat="45.68833" lon="4.35595">
        <ele>544</ele>
        <time>2023-02-19T12:32:51Z</time>
      </trkpt>
      <trkpt lat="45.68834" lon="4.35594">
        <ele>544</ele>
        <time>2023-02-19T12:32:53Z</time>
      </trkpt>
      <trkpt lat="45.68834" lon="4.35594">
        <ele>544</ele>
        <time>2023-02-19T12:32:54Z</time>
      </trkpt>
      <trkpt lat="45.68834" lon="4.35594">
        <ele>544</ele>
        <time>2023-02-19T12:32:55Z</time>
      </trkpt>
      <trkpt lat="45.68834" lon="4.35595">
        <ele>544</ele>
        <time>2023-02-19T12:32:56Z</time>
      </trkpt>
      <trkpt lat="45.68835" lon="4.35596">
        <ele>544</ele>
        <time>2023-02-19T12:32:57Z</time>
      </trkpt>
      <trkpt lat="45.68835" lon="4.35597">
        <ele>544</ele>
        <time>2023-02-19T12:32:58Z</time>
      </trkpt>
      <trkpt lat="45.68836" lon="4.35598">
        <ele>544</ele>
        <time>2023-02-19T12:32:59Z</time>
      </trkpt>
      <trkpt lat="45.68837" lon="4.35601">
        <ele>544.1</ele>
        <time>2023-02-19T12:33:01Z</time>
      </trkpt>
      <trkpt lat="45.68838" lon="4.35604">
        <ele>544.1</ele>
        <time>2023-02-19T12:33:02Z</time>
      </trkpt>
      <trkpt lat="45.68839" lon="4.3561">
        <ele>544.3</ele>
        <time>2023-02-19T12:33:05Z</time>
      </trkpt>
      <trkpt lat="45.6884" lon="4.35614">
        <ele>544.5</ele>
        <time>2023-02-19T12:33:06Z</time>
      </trkpt>
      <trkpt lat="45.68841" lon="4.35615">
        <ele>544.3</ele>
        <time>2023-02-19T12:33:07Z</time>
      </trkpt>
      <trkpt lat="45.68842" lon="4.35623">
        <ele>544.6</ele>
        <time>2023-02-19T12:33:11Z</time>
      </trkpt>
      <trkpt lat="45.68842" lon="4.35626">
        <ele>544.7</ele>
        <time>2023-02-19T12:33:12Z</time>
      </trkpt>
      <trkpt lat="45.68843" lon="4.35631">
        <ele>544.9</ele>
        <time>2023-02-19T12:33:16Z</time>
      </trkpt>
      <trkpt lat="45.68844" lon="4.35634">
        <ele>544.7</ele>
        <time>2023-02-19T12:33:17Z</time>
      </trkpt>
      <trkpt lat="45.68844" lon="4.35634">
        <ele>544.9</ele>
        <time>2023-02-19T12:33:18Z</time>
      </trkpt>
      <trkpt lat="45.68843" lon="4.35634">
        <ele>545</ele>
        <time>2023-02-19T12:33:23Z</time>
      </trkpt>
      <trkpt lat="45.68843" lon="4.35633">
        <ele>544.9</ele>
        <time>2023-02-19T12:33:28Z</time>
      </trkpt>
      <trkpt lat="45.68842" lon="4.35631">
        <ele>544.9</ele>
        <time>2023-02-19T12:33:33Z</time>
      </trkpt>
      <trkpt lat="45.6884" lon="4.35628">
        <ele>544.9</ele>
        <time>2023-02-19T12:33:41Z</time>
      </trkpt>
      <trkpt lat="45.6884" lon="4.35627">
        <ele>544.9</ele>
        <time>2023-02-19T12:33:42Z</time>
      </trkpt>
      <trkpt lat="45.6884" lon="4.35627">
        <ele>544.9</ele>
        <time>2023-02-19T12:33:43Z</time>
      </trkpt>
      <trkpt lat="45.6884" lon="4.35627">
        <ele>544.9</ele>
        <time>2023-02-19T12:33:45Z</time>
      </trkpt>
      <trkpt lat="45.68841" lon="4.35626">
        <ele>544.7</ele>
        <time>2023-02-19T12:33:46Z</time>
      </trkpt>
      <trkpt lat="45.68842" lon="4.35625">
        <ele>544.7</ele>
        <time>2023-02-19T12:33:47Z</time>
      </trkpt>
      <trkpt lat="45.68842" lon="4.35625">
        <ele>544.6</ele>
        <time>2023-02-19T12:33:48Z</time>
      </trkpt>
      <trkpt lat="45.68842" lon="4.35625">
        <ele>544.6</ele>
        <time>2023-02-19T12:33:49Z</time>
      </trkpt>
      <trkpt lat="45.68842" lon="4.35625">
        <ele>544.6</ele>
        <time>2023-02-19T12:33:53Z</time>
      </trkpt>
      <trkpt lat="45.68844" lon="4.35625">
        <ele>544.5</ele>
        <time>2023-02-19T12:33:56Z</time>
      </trkpt>
      <trkpt lat="45.68844" lon="4.35624">
        <ele>544.5</ele>
        <time>2023-02-19T12:33:57Z</time>
      </trkpt>
      <trkpt lat="45.68845" lon="4.35623">
        <ele>544.5</ele>
        <time>2023-02-19T12:33:58Z</time>
      </trkpt>
      <trkpt lat="45.68845" lon="4.35623">
        <ele>544.5</ele>
        <time>2023-02-19T12:33:59Z</time>
      </trkpt>
      <trkpt lat="45.68846" lon="4.35623">
        <ele>544.5</ele>
        <time>2023-02-19T12:34:01Z</time>
      </trkpt>
      <trkpt lat="45.68846" lon="4.35623">
        <ele>544.5</ele>
        <time>2023-02-19T12:34:03Z</time>
      </trkpt>
      <trkpt lat="45.68846" lon="4.35623">
        <ele>544.5</ele>
        <time>2023-02-19T12:34:04Z</time>
      </trkpt>
      <trkpt lat="45.68847" lon="4.35623">
        <ele>544.3</ele>
        <time>2023-02-19T12:34:06Z</time>
      </trkpt>
      <trkpt lat="45.68847" lon="4.35623">
        <ele>544.3</ele>
        <time>2023-02-19T12:34:07Z</time>
      </trkpt>
      <trkpt lat="45.68848" lon="4.35623">
        <ele>544.3</ele>
        <time>2023-02-19T12:34:08Z</time>
      </trkpt>
      <trkpt lat="45.68848" lon="4.35622">
        <ele>544.3</ele>
        <time>2023-02-19T12:34:09Z</time>
      </trkpt>
      <trkpt lat="45.68848" lon="4.35622">
        <ele>544.3</ele>
        <time>2023-02-19T12:34:11Z</time>
      </trkpt>
      <trkpt lat="45.68848" lon="4.35625">
        <ele>544.4</ele>
        <time>2023-02-19T12:34:12Z</time>
      </trkpt>
      <trkpt lat="45.68848" lon="4.35625">
        <ele>544.3</ele>
        <time>2023-02-19T12:34:14Z</time>
      </trkpt>
      <trkpt lat="45.68849" lon="4.35625">
        <ele>544.3</ele>
        <time>2023-02-19T12:34:15Z</time>
      </trkpt>
      <trkpt lat="45.68849" lon="4.35626">
        <ele>544.4</ele>
        <time>2023-02-19T12:34:16Z</time>
      </trkpt>
      <trkpt lat="45.68849" lon="4.35626">
        <ele>544.4</ele>
        <time>2023-02-19T12:34:18Z</time>
      </trkpt>
      <trkpt lat="45.68849" lon="4.35626">
        <ele>544.4</ele>
        <time>2023-02-19T12:34:19Z</time>
      </trkpt>
      <trkpt lat="45.68849" lon="4.35625">
        <ele>544.4</ele>
        <time>2023-02-19T12:34:20Z</time>
      </trkpt>
      <trkpt lat="45.68849" lon="4.35626">
        <ele>544.4</ele>
        <time>2023-02-19T12:34:21Z</time>
      </trkpt>
      <trkpt lat="45.6885" lon="4.35627">
        <ele>544.2</ele>
        <time>2023-02-19T12:34:22Z</time>
      </trkpt>
      <trkpt lat="45.6885" lon="4.35627">
        <ele>544.2</ele>
        <time>2023-02-19T12:34:24Z</time>
      </trkpt>
      <trkpt lat="45.6885" lon="4.35627">
        <ele>544.2</ele>
        <time>2023-02-19T12:34:25Z</time>
      </trkpt>
      <trkpt lat="45.6885" lon="4.35627">
        <ele>544.2</ele>
        <time>2023-02-19T12:34:27Z</time>
      </trkpt>
      <trkpt lat="45.6885" lon="4.35627">
        <ele>544.2</ele>
        <time>2023-02-19T12:34:29Z</time>
      </trkpt>
      <trkpt lat="45.6885" lon="4.35627">
        <ele>544.2</ele>
        <time>2023-02-19T12:34:30Z</time>
      </trkpt>
      <trkpt lat="45.6885" lon="4.35627">
        <ele>544.2</ele>
        <time>2023-02-19T12:34:31Z</time>
      </trkpt>
      <trkpt lat="45.68851" lon="4.35628">
        <ele>544.2</ele>
        <time>2023-02-19T12:34:33Z</time>
      </trkpt>
      <trkpt lat="45.68851" lon="4.35629">
        <ele>544.2</ele>
        <time>2023-02-19T12:34:35Z</time>
      </trkpt>
      <trkpt lat="45.68851" lon="4.35629">
        <ele>544.4</ele>
        <time>2023-02-19T12:34:36Z</time>
      </trkpt>
      <trkpt lat="45.68851" lon="4.3563">
        <ele>544.4</ele>
        <time>2023-02-19T12:34:37Z</time>
      </trkpt>
      <trkpt lat="45.68852" lon="4.35632">
        <ele>544.4</ele>
        <time>2023-02-19T12:34:39Z</time>
      </trkpt>
      <trkpt lat="45.68853" lon="4.35632">
        <ele>544.2</ele>
        <time>2023-02-19T12:34:40Z</time>
      </trkpt>
      <trkpt lat="45.68853" lon="4.35633">
        <ele>544.2</ele>
        <time>2023-02-19T12:34:41Z</time>
      </trkpt>
      <trkpt lat="45.68854" lon="4.35632">
        <ele>544.2</ele>
        <time>2023-02-19T12:34:43Z</time>
      </trkpt>
      <trkpt lat="45.68854" lon="4.35632">
        <ele>544.2</ele>
        <time>2023-02-19T12:34:44Z</time>
      </trkpt>
      <trkpt lat="45.68854" lon="4.35632">
        <ele>544.2</ele>
        <time>2023-02-19T12:34:45Z</time>
      </trkpt>
      <trkpt lat="45.68854" lon="4.35631">
        <ele>544.2</ele>
        <time>2023-02-19T12:34:46Z</time>
      </trkpt>
      <trkpt lat="45.68854" lon="4.35631">
        <ele>544.2</ele>
        <time>2023-02-19T12:34:47Z</time>
      </trkpt>
      <trkpt lat="45.68853" lon="4.35631">
        <ele>544.2</ele>
        <time>2023-02-19T12:34:48Z</time>
      </trkpt>
      <trkpt lat="45.68853" lon="4.35632">
        <ele>544.2</ele>
        <time>2023-02-19T12:34:49Z</time>
      </trkpt>
      <trkpt lat="45.68853" lon="4.35632">
        <ele>544.2</ele>
        <time>2023-02-19T12:34:50Z</time>
      </trkpt>
      <trkpt lat="45.68853" lon="4.35633">
        <ele>544.2</ele>
        <time>2023-02-19T12:34:51Z</time>
      </trkpt>
      <trkpt lat="45.68853" lon="4.35634">
        <ele>544.3</ele>
        <time>2023-02-19T12:34:52Z</time>
      </trkpt>
      <trkpt lat="45.68853" lon="4.35633">
        <ele>544.2</ele>
        <time>2023-02-19T12:34:53Z</time>
      </trkpt>
      <trkpt lat="45.68853" lon="4.35632">
        <ele>544.2</ele>
        <time>2023-02-19T12:34:55Z</time>
      </trkpt>
      <trkpt lat="45.68853" lon="4.35634">
        <ele>544.3</ele>
        <time>2023-02-19T12:34:56Z</time>
      </trkpt>
      <trkpt lat="45.68853" lon="4.35636">
        <ele>544.3</ele>
        <time>2023-02-19T12:34:57Z</time>
      </trkpt>
      <trkpt lat="45.68853" lon="4.35637">
        <ele>544.3</ele>
        <time>2023-02-19T12:34:58Z</time>
      </trkpt>
      <trkpt lat="45.68853" lon="4.35638">
        <ele>544.5</ele>
        <time>2023-02-19T12:34:59Z</time>
      </trkpt>
      <trkpt lat="45.68852" lon="4.35639">
        <ele>544.7</ele>
        <time>2023-02-19T12:35:00Z</time>
      </trkpt>
      <trkpt lat="45.68853" lon="4.3564">
        <ele>544.5</ele>
        <time>2023-02-19T12:35:01Z</time>
      </trkpt>
      <trkpt lat="45.68853" lon="4.35641">
        <ele>544.5</ele>
        <time>2023-02-19T12:35:02Z</time>
      </trkpt>
      <trkpt lat="45.68853" lon="4.35642">
        <ele>544.5</ele>
        <time>2023-02-19T12:35:03Z</time>
      </trkpt>
      <trkpt lat="45.68854" lon="4.35642">
        <ele>544.7</ele>
        <time>2023-02-19T12:35:04Z</time>
      </trkpt>
      <trkpt lat="45.68854" lon="4.35643">
        <ele>544.7</ele>
        <time>2023-02-19T12:35:05Z</time>
      </trkpt>
      <trkpt lat="45.68854" lon="4.35643">
        <ele>544.7</ele>
        <time>2023-02-19T12:35:06Z</time>
      </trkpt>
      <trkpt lat="45.68854" lon="4.35643">
        <ele>544.7</ele>
        <time>2023-02-19T12:35:07Z</time>
      </trkpt>
      <trkpt lat="45.68855" lon="4.35643">
        <ele>544.7</ele>
        <time>2023-02-19T12:35:08Z</time>
      </trkpt>
      <trkpt lat="45.68855" lon="4.35643">
        <ele>544.7</ele>
        <time>2023-02-19T12:35:09Z</time>
      </trkpt>
      <trkpt lat="45.68855" lon="4.35643">
        <ele>544.7</ele>
        <time>2023-02-19T12:35:10Z</time>
      </trkpt>
      <trkpt lat="45.68856" lon="4.35644">
        <ele>544.4</ele>
        <time>2023-02-19T12:35:11Z</time>
      </trkpt>
      <trkpt lat="45.68856" lon="4.35644">
        <ele>544.4</ele>
        <time>2023-02-19T12:35:12Z</time>
      </trkpt>
      <trkpt lat="45.68856" lon="4.35644">
        <ele>544.4</ele>
        <time>2023-02-19T12:35:13Z</time>
      </trkpt>
      <trkpt lat="45.68856" lon="4.35643">
        <ele>544.4</ele>
        <time>2023-02-19T12:35:14Z</time>
      </trkpt>
      <trkpt lat="45.68855" lon="4.35643">
        <ele>544.7</ele>
        <time>2023-02-19T12:35:15Z</time>
      </trkpt>
      <trkpt lat="45.68855" lon="4.35644">
        <ele>544.7</ele>
        <time>2023-02-19T12:35:16Z</time>
      </trkpt>
      <trkpt lat="45.68855" lon="4.35644">
        <ele>544.7</ele>
        <time>2023-02-19T12:35:17Z</time>
      </trkpt>
      <trkpt lat="45.68855" lon="4.35644">
        <ele>544.7</ele>
        <time>2023-02-19T12:35:18Z</time>
      </trkpt>
      <trkpt lat="45.68856" lon="4.35644">
        <ele>544.4</ele>
        <time>2023-02-19T12:35:19Z</time>
      </trkpt>
      <trkpt lat="45.68856" lon="4.35644">
        <ele>544.4</ele>
        <time>2023-02-19T12:35:20Z</time>
      </trkpt>
      <trkpt lat="45.68856" lon="4.35644">
        <ele>544.4</ele>
        <time>2023-02-19T12:35:21Z</time>
      </trkpt>
      <trkpt lat="45.68856" lon="4.35644">
        <ele>544.4</ele>
        <time>2023-02-19T12:35:22Z</time>
      </trkpt>
      <trkpt lat="45.68856" lon="4.35644">
        <ele>544.4</ele>
        <time>2023-02-19T12:35:23Z</time>
      </trkpt>
      <trkpt lat="45.68855" lon="4.35644">
        <ele>544.7</ele>
        <time>2023-02-19T12:35:24Z</time>
      </trkpt>
      <trkpt lat="45.68855" lon="4.35643">
        <ele>544.7</ele>
        <time>2023-02-19T12:35:25Z</time>
      </trkpt>
      <trkpt lat="45.68855" lon="4.35642">
        <ele>544.7</ele>
        <time>2023-02-19T12:35:26Z</time>
      </trkpt>
      <trkpt lat="45.68854" lon="4.35642">
        <ele>544.5</ele>
        <time>2023-02-19T12:35:27Z</time>
      </trkpt>
      <trkpt lat="45.68854" lon="4.35641">
        <ele>544.5</ele>
        <time>2023-02-19T12:35:28Z</time>
      </trkpt>
      <trkpt lat="45.68854" lon="4.3564">
        <ele>544.5</ele>
        <time>2023-02-19T12:35:29Z</time>
      </trkpt>
      <trkpt lat="45.68854" lon="4.3564">
        <ele>544.5</ele>
        <time>2023-02-19T12:35:30Z</time>
      </trkpt>
      <trkpt lat="45.68855" lon="4.3564">
        <ele>544.5</ele>
        <time>2023-02-19T12:35:31Z</time>
      </trkpt>
      <trkpt lat="45.68855" lon="4.35641">
        <ele>544.5</ele>
        <time>2023-02-19T12:35:32Z</time>
      </trkpt>
      <trkpt lat="45.68855" lon="4.35641">
        <ele>544.5</ele>
        <time>2023-02-19T12:35:33Z</time>
      </trkpt>
      <trkpt lat="45.68856" lon="4.35642">
        <ele>544.3</ele>
        <time>2023-02-19T12:35:34Z</time>
      </trkpt>
      <trkpt lat="45.68856" lon="4.35642">
        <ele>544.3</ele>
        <time>2023-02-19T12:35:35Z</time>
      </trkpt>
      <trkpt lat="45.68856" lon="4.35642">
        <ele>544.3</ele>
        <time>2023-02-19T12:35:36Z</time>
      </trkpt>
      <trkpt lat="45.68856" lon="4.35642">
        <ele>544.3</ele>
        <time>2023-02-19T12:35:37Z</time>
      </trkpt>
      <trkpt lat="45.68856" lon="4.35642">
        <ele>544.3</ele>
        <time>2023-02-19T12:35:38Z</time>
      </trkpt>
      <trkpt lat="45.68857" lon="4.35641">
        <ele>544.3</ele>
        <time>2023-02-19T12:35:39Z</time>
      </trkpt>
      <trkpt lat="45.68855" lon="4.35638">
        <ele>544.5</ele>
        <time>2023-02-19T12:35:40Z</time>
      </trkpt>
      <trkpt lat="45.68853" lon="4.35636">
        <ele>544.3</ele>
        <time>2023-02-19T12:35:41Z</time>
      </trkpt>
      <trkpt lat="45.68853" lon="4.35635">
        <ele>544.3</ele>
        <time>2023-02-19T12:35:42Z</time>
      </trkpt>
      <trkpt lat="45.68852" lon="4.35634">
        <ele>544.5</ele>
        <time>2023-02-19T12:35:43Z</time>
      </trkpt>
      <trkpt lat="45.68851" lon="4.35633">
        <ele>544.4</ele>
        <time>2023-02-19T12:35:44Z</time>
      </trkpt>
      <trkpt lat="45.6885" lon="4.35631">
        <ele>544.4</ele>
        <time>2023-02-19T12:35:45Z</time>
      </trkpt>
      <trkpt lat="45.68851" lon="4.35632">
        <ele>544.4</ele>
        <time>2023-02-19T12:35:46Z</time>
      </trkpt>
      <trkpt lat="45.68851" lon="4.35633">
        <ele>544.4</ele>
        <time>2023-02-19T12:35:47Z</time>
      </trkpt>
      <trkpt lat="45.68852" lon="4.35634">
        <ele>544.5</ele>
        <time>2023-02-19T12:35:48Z</time>
      </trkpt>
      <trkpt lat="45.68853" lon="4.35635">
        <ele>544.3</ele>
        <time>2023-02-19T12:35:49Z</time>
      </trkpt>
      <trkpt lat="45.68853" lon="4.35636">
        <ele>544.3</ele>
        <time>2023-02-19T12:35:50Z</time>
      </trkpt>
      <trkpt lat="45.68853" lon="4.35636">
        <ele>544.3</ele>
        <time>2023-02-19T12:35:51Z</time>
      </trkpt>
      <trkpt lat="45.68853" lon="4.35636">
        <ele>544.3</ele>
        <time>2023-02-19T12:35:52Z</time>
      </trkpt>
      <trkpt lat="45.68853" lon="4.35636">
        <ele>544.3</ele>
        <time>2023-02-19T12:35:53Z</time>
      </trkpt>
      <trkpt lat="45.68853" lon="4.35635">
        <ele>544.3</ele>
        <time>2023-02-19T12:35:54Z</time>
      </trkpt>
      <trkpt lat="45.68852" lon="4.35634">
        <ele>544.4</ele>
        <time>2023-02-19T12:35:55Z</time>
      </trkpt>
      <trkpt lat="45.68852" lon="4.35633">
        <ele>544.4</ele>
        <time>2023-02-19T12:35:56Z</time>
      </trkpt>
      <trkpt lat="45.68852" lon="4.35632">
        <ele>544.4</ele>
        <time>2023-02-19T12:35:57Z</time>
      </trkpt>
      <trkpt lat="45.68852" lon="4.35632">
        <ele>544.4</ele>
        <time>2023-02-19T12:35:58Z</time>
      </trkpt>
      <trkpt lat="45.68855" lon="4.35634">
        <ele>544.3</ele>
        <time>2023-02-19T12:35:59Z</time>
      </trkpt>
      <trkpt lat="45.68858" lon="4.35637">
        <ele>544.1</ele>
        <time>2023-02-19T12:36:00Z</time>
      </trkpt>
      <trkpt lat="45.68859" lon="4.35637">
        <ele>543.9</ele>
        <time>2023-02-19T12:36:01Z</time>
      </trkpt>
      <trkpt lat="45.6886" lon="4.35638">
        <ele>543.9</ele>
        <time>2023-02-19T12:36:02Z</time>
      </trkpt>
      <trkpt lat="45.68861" lon="4.35638">
        <ele>544</ele>
        <time>2023-02-19T12:36:03Z</time>
      </trkpt>
      <trkpt lat="45.68861" lon="4.35639">
        <ele>544</ele>
        <time>2023-02-19T12:36:04Z</time>
      </trkpt>
      <trkpt lat="45.68861" lon="4.35639">
        <ele>544</ele>
        <time>2023-02-19T12:36:05Z</time>
      </trkpt>
      <trkpt lat="45.68861" lon="4.35639">
        <ele>544</ele>
        <time>2023-02-19T12:36:06Z</time>
      </trkpt>
      <trkpt lat="45.68861" lon="4.35639">
        <ele>544</ele>
        <time>2023-02-19T12:36:07Z</time>
      </trkpt>
      <trkpt lat="45.68861" lon="4.35639">
        <ele>544</ele>
        <time>2023-02-19T12:36:08Z</time>
      </trkpt>
      <trkpt lat="45.68861" lon="4.35639">
        <ele>544</ele>
        <time>2023-02-19T12:36:09Z</time>
      </trkpt>
      <trkpt lat="45.68861" lon="4.35639">
        <ele>544</ele>
        <time>2023-02-19T12:36:10Z</time>
      </trkpt>
      <trkpt lat="45.68861" lon="4.35639">
        <ele>544</ele>
        <time>2023-02-19T12:36:11Z</time>
      </trkpt>
      <trkpt lat="45.68861" lon="4.35638">
        <ele>544</ele>
        <time>2023-02-19T12:36:12Z</time>
      </trkpt>
      <trkpt lat="45.6886" lon="4.35638">
        <ele>543.9</ele>
        <time>2023-02-19T12:36:13Z</time>
      </trkpt>
      <trkpt lat="45.68859" lon="4.35637">
        <ele>543.9</ele>
        <time>2023-02-19T12:36:14Z</time>
      </trkpt>
      <trkpt lat="45.68859" lon="4.35637">
        <ele>543.9</ele>
        <time>2023-02-19T12:36:15Z</time>
      </trkpt>
      <trkpt lat="45.6886" lon="4.35638">
        <ele>543.9</ele>
        <time>2023-02-19T12:36:16Z</time>
      </trkpt>
      <trkpt lat="45.68861" lon="4.35638">
        <ele>543.9</ele>
        <time>2023-02-19T12:36:17Z</time>
      </trkpt>
      <trkpt lat="45.68862" lon="4.35638">
        <ele>543.6</ele>
        <time>2023-02-19T12:36:18Z</time>
      </trkpt>
      <trkpt lat="45.68862" lon="4.35638">
        <ele>543.6</ele>
        <time>2023-02-19T12:36:19Z</time>
      </trkpt>
      <trkpt lat="45.68861" lon="4.35638">
        <ele>543.9</ele>
        <time>2023-02-19T12:36:20Z</time>
      </trkpt>
      <trkpt lat="45.68861" lon="4.35638">
        <ele>544</ele>
        <time>2023-02-19T12:36:21Z</time>
      </trkpt>
      <trkpt lat="45.6886" lon="4.35638">
        <ele>544</ele>
        <time>2023-02-19T12:36:22Z</time>
      </trkpt>
      <trkpt lat="45.68859" lon="4.35638">
        <ele>544</ele>
        <time>2023-02-19T12:36:23Z</time>
      </trkpt>
      <trkpt lat="45.68858" lon="4.35638">
        <ele>544.1</ele>
        <time>2023-02-19T12:36:24Z</time>
      </trkpt>
      <trkpt lat="45.68858" lon="4.35637">
        <ele>544.1</ele>
        <time>2023-02-19T12:36:25Z</time>
      </trkpt>
      <trkpt lat="45.68858" lon="4.35636">
        <ele>544.1</ele>
        <time>2023-02-19T12:36:26Z</time>
      </trkpt>
      <trkpt lat="45.68858" lon="4.35635">
        <ele>544.1</ele>
        <time>2023-02-19T12:36:27Z</time>
      </trkpt>
      <trkpt lat="45.68858" lon="4.35634">
        <ele>544.1</ele>
        <time>2023-02-19T12:36:28Z</time>
      </trkpt>
      <trkpt lat="45.68858" lon="4.35633">
        <ele>544</ele>
        <time>2023-02-19T12:36:29Z</time>
      </trkpt>
      <trkpt lat="45.68859" lon="4.35633">
        <ele>543.7</ele>
        <time>2023-02-19T12:36:30Z</time>
      </trkpt>
      <trkpt lat="45.68859" lon="4.35632">
        <ele>543.7</ele>
        <time>2023-02-19T12:36:31Z</time>
      </trkpt>
      <trkpt lat="45.68859" lon="4.3563">
        <ele>543.7</ele>
        <time>2023-02-19T12:36:32Z</time>
      </trkpt>
      <trkpt lat="45.68859" lon="4.35629">
        <ele>543.6</ele>
        <time>2023-02-19T12:36:33Z</time>
      </trkpt>
      <trkpt lat="45.68859" lon="4.35629">
        <ele>543.6</ele>
        <time>2023-02-19T12:36:34Z</time>
      </trkpt>
      <trkpt lat="45.68859" lon="4.35627">
        <ele>543.6</ele>
        <time>2023-02-19T12:36:35Z</time>
      </trkpt>
      <trkpt lat="45.68859" lon="4.35627">
        <ele>543.6</ele>
        <time>2023-02-19T12:36:36Z</time>
      </trkpt>
      <trkpt lat="45.68859" lon="4.35627">
        <ele>543.6</ele>
        <time>2023-02-19T12:36:37Z</time>
      </trkpt>
      <trkpt lat="45.68858" lon="4.35628">
        <ele>543.8</ele>
        <time>2023-02-19T12:36:38Z</time>
      </trkpt>
      <trkpt lat="45.68858" lon="4.35628">
        <ele>543.8</ele>
        <time>2023-02-19T12:36:39Z</time>
      </trkpt>
      <trkpt lat="45.68858" lon="4.35629">
        <ele>543.8</ele>
        <time>2023-02-19T12:36:40Z</time>
      </trkpt>
      <trkpt lat="45.68858" lon="4.3563">
        <ele>544</ele>
        <time>2023-02-19T12:36:41Z</time>
      </trkpt>
      <trkpt lat="45.68857" lon="4.3563">
        <ele>544</ele>
        <time>2023-02-19T12:36:42Z</time>
      </trkpt>
      <trkpt lat="45.68857" lon="4.35631">
        <ele>544</ele>
        <time>2023-02-19T12:36:43Z</time>
      </trkpt>
      <trkpt lat="45.68857" lon="4.35631">
        <ele>544</ele>
        <time>2023-02-19T12:36:44Z</time>
      </trkpt>
      <trkpt lat="45.68856" lon="4.35632">
        <ele>544</ele>
        <time>2023-02-19T12:36:45Z</time>
      </trkpt>
      <trkpt lat="45.68856" lon="4.35632">
        <ele>544</ele>
        <time>2023-02-19T12:36:47Z</time>
      </trkpt>
      <trkpt lat="45.68856" lon="4.35633">
        <ele>544</ele>
        <time>2023-02-19T12:36:48Z</time>
      </trkpt>
      <trkpt lat="45.68852" lon="4.35637">
        <ele>544.5</ele>
        <time>2023-02-19T12:36:49Z</time>
      </trkpt>
      <trkpt lat="45.68852" lon="4.35638">
        <ele>544.7</ele>
        <time>2023-02-19T12:36:50Z</time>
      </trkpt>
      <trkpt lat="45.6885" lon="4.35641">
        <ele>544.7</ele>
        <time>2023-02-19T12:36:52Z</time>
      </trkpt>
      <trkpt lat="45.68848" lon="4.35643">
        <ele>545.1</ele>
        <time>2023-02-19T12:36:53Z</time>
      </trkpt>
      <trkpt lat="45.68843" lon="4.35649">
        <ele>545.5</ele>
        <time>2023-02-19T12:36:55Z</time>
      </trkpt>
      <trkpt lat="45.68838" lon="4.35648">
        <ele>545.7</ele>
        <time>2023-02-19T12:36:59Z</time>
      </trkpt>
      <trkpt lat="45.68839" lon="4.35647">
        <ele>545.7</ele>
        <time>2023-02-19T12:37:00Z</time>
      </trkpt>
      <trkpt lat="45.68839" lon="4.35646">
        <ele>545.5</ele>
        <time>2023-02-19T12:37:01Z</time>
      </trkpt>
      <trkpt lat="45.6884" lon="4.35647">
        <ele>545.7</ele>
        <time>2023-02-19T12:37:02Z</time>
      </trkpt>
    </trkseg>
  </trk>
</gpx>